<?xml version='1.0' encoding='UTF-8'?><gpx version="1.1" creator="JPX - https://github.com/jenetics/jpx" xmlns="http://www.topografix.com/GPX/1/1"><trk><trkseg><trkpt lat="42.191552677431446" lon="14.220330396729656"><ele>566.0</ele><time>2026-05-01T12:13:11Z</time></trkpt><trkpt lat="42.19196468403916" lon="14.220463572999053"><ele>566.0</ele><time>2026-05-01T12:13:13.071Z</time></trkpt><trkpt lat="42.192129369984606" lon="14.220543770271991"><ele>566.0</ele><time>2026-05-01T12:13:14.071Z</time></trkpt><trkpt lat="42.19220741303154" lon="14.220579279232407"><ele>566.0</ele><time>2026-05-01T12:13:15.071Z</time></trkpt><trkpt lat="42.19227872232134" lon="14.220614433663528"><ele>566.0</ele><time>2026-05-01T12:13:16.071Z</time></trkpt><trkpt lat="42.19238116921499" lon="14.220672411421166"><ele>566.0</ele><time>2026-05-01T12:13:18Z</time></trkpt><trkpt lat="42.19230425853958" lon="14.220669099089429"><ele>566.0</ele><time>2026-05-01T12:13:20Z</time></trkpt><trkpt lat="42.19210797427603" lon="14.220617900954064"><ele>566.0</ele><time>2026-05-01T12:13:22Z</time></trkpt><trkpt lat="42.191881964330896" lon="14.22047657087496"><ele>566.0</ele><time>2026-05-01T12:13:26Z</time></trkpt><trkpt lat="42.191763652992954" lon="14.220421881424391"><ele>566.0</ele><time>2026-05-01T12:13:27Z</time></trkpt><trkpt lat="42.191672485637156" lon="14.220357939256585"><ele>566.0</ele><time>2026-05-01T12:13:28Z</time></trkpt><trkpt lat="42.191598832463825" lon="14.220310785367184"><ele>566.0</ele><time>2026-05-01T12:13:29Z</time></trkpt><trkpt lat="42.19146698483861" lon="14.220241047117248"><ele>566.0</ele><time>2026-05-01T12:13:30Z</time></trkpt><trkpt lat="42.19139852321732" lon="14.220276204188687"><ele>566.0</ele><time>2026-05-01T12:13:37Z</time></trkpt><trkpt lat="42.19126361122842" lon="14.220225953224993"><ele>566.0</ele><time>2026-05-01T12:13:38Z</time></trkpt><trkpt lat="42.19119776144887" lon="14.220271670347985"><ele>566.3333333333333</ele><time>2026-05-01T12:13:40Z</time></trkpt><trkpt lat="42.19116121819103" lon="14.22034492389385"><ele>566.6666666666666</ele><time>2026-05-01T12:13:56Z</time></trkpt><trkpt lat="42.191184010867126" lon="14.22042880025684"><ele>567.0</ele><time>2026-05-01T12:14:08Z</time></trkpt><trkpt lat="42.19113549171423" lon="14.220494753870328"><ele>567.3333333333334</ele><time>2026-05-01T12:14:27Z</time></trkpt><trkpt lat="42.191066441168594" lon="14.220507145324772"><ele>567.6666666666667</ele><time>2026-05-01T12:14:40Z</time></trkpt><trkpt lat="42.19100293068447" lon="14.22057101932397"><ele>568.0</ele><time>2026-05-01T12:27:38Z</time></trkpt><trkpt lat="42.19090418978128" lon="14.22061299227957"><ele>568.0</ele><time>2026-05-01T12:27:40Z</time></trkpt><trkpt lat="42.19082072856381" lon="14.220610115663439"><ele>568.0</ele><time>2026-05-01T12:27:41Z</time></trkpt><trkpt lat="42.19073722891828" lon="14.220594694689696"><ele>568.0</ele><time>2026-05-01T12:27:42Z</time></trkpt><trkpt lat="42.190667051181826" lon="14.220582217015032"><ele>568.0</ele><time>2026-05-01T12:27:43Z</time></trkpt><trkpt lat="42.19057002548713" lon="14.220525786204089"><ele>568.0</ele><time>2026-05-01T12:27:45Z</time></trkpt><trkpt lat="42.19048257890716" lon="14.220500649718725"><ele>568.0</ele><time>2026-05-01T12:27:47Z</time></trkpt><trkpt lat="42.19037323236764" lon="14.220474191943165"><ele>568.6</ele><time>2026-05-01T12:27:49Z</time></trkpt><trkpt lat="42.19030246548788" lon="14.220441239282666"><ele>569.1999999999999</ele><time>2026-05-01T12:27:51Z</time></trkpt><trkpt lat="42.19023681400398" lon="14.220332376767718"><ele>569.8</ele><time>2026-05-01T12:27:56Z</time></trkpt><trkpt lat="42.19011934810206" lon="14.22026971452029"><ele>570.4</ele><time>2026-05-01T12:27:58Z</time></trkpt><trkpt lat="42.19005349703962" lon="14.220239347442051"><ele>571.0</ele><time>2026-05-01T12:27:59Z</time></trkpt><trkpt lat="42.1900739937902" lon="14.220097963781802"><ele>571.0</ele><time>2026-05-01T12:28:04Z</time></trkpt><trkpt lat="42.18999028020105" lon="14.220002882874685"><ele>571.0</ele><time>2026-05-01T12:28:06Z</time></trkpt><trkpt lat="42.18989623498043" lon="14.220043919784066"><ele>571.0</ele><time>2026-05-01T12:28:08Z</time></trkpt><trkpt lat="42.18980848893994" lon="14.220039446743012"><ele>571.0</ele><time>2026-05-01T12:28:10Z</time></trkpt><trkpt lat="42.18976218550597" lon="14.219946874517516"><ele>571.0</ele><time>2026-05-01T12:28:13Z</time></trkpt><trkpt lat="42.189839035405605" lon="14.219924115144318"><ele>571.0</ele><time>2026-05-01T12:28:14Z</time></trkpt><trkpt lat="42.18991046794858" lon="14.219933467882207"><ele>571.0</ele><time>2026-05-01T12:28:15Z</time></trkpt><trkpt lat="42.19002198725855" lon="14.219952346886739"><ele>571.0</ele><time>2026-05-01T12:28:16Z</time></trkpt><trkpt lat="42.19012661332215" lon="14.21991092297121"><ele>571.0</ele><time>2026-05-01T12:28:17Z</time></trkpt><trkpt lat="42.19021548154616" lon="14.219849677644902"><ele>571.0</ele><time>2026-05-01T12:28:18Z</time></trkpt><trkpt lat="42.19030096819246" lon="14.219799007736368"><ele>568.8333333333334</ele><time>2026-05-01T12:28:19Z</time></trkpt><trkpt lat="42.19038814411224" lon="14.21975409972644"><ele>566.6666666666667</ele><time>2026-05-01T12:28:20Z</time></trkpt><trkpt lat="42.19045896802578" lon="14.219720250642787"><ele>564.5</ele><time>2026-05-01T12:28:21Z</time></trkpt><trkpt lat="42.190533605297624" lon="14.219709396437285"><ele>562.3333333333334</ele><time>2026-05-01T12:28:22Z</time></trkpt><trkpt lat="42.19061284706237" lon="14.219701382777979"><ele>560.1666666666666</ele><time>2026-05-01T12:28:23Z</time></trkpt><trkpt lat="42.19071493939048" lon="14.219702540846322"><ele>558.0</ele><time>2026-05-01T12:28:24Z</time></trkpt><trkpt lat="42.19081862445786" lon="14.219728560884908"><ele>557.0</ele><time>2026-05-01T12:28:25Z</time></trkpt><trkpt lat="42.19092871193778" lon="14.219738568264715"><ele>556.0</ele><time>2026-05-01T12:28:26Z</time></trkpt><trkpt lat="42.19104250859072" lon="14.219748399963912"><ele>555.0</ele><time>2026-05-01T12:28:27Z</time></trkpt><trkpt lat="42.1911509933643" lon="14.219743025483046"><ele>554.0</ele><time>2026-05-01T12:28:28Z</time></trkpt><trkpt lat="42.191254406215066" lon="14.219743922648561"><ele>553.0</ele><time>2026-05-01T12:28:29Z</time></trkpt><trkpt lat="42.19136585779644" lon="14.21975259911492"><ele>553.0</ele><time>2026-05-01T12:28:30Z</time></trkpt><trkpt lat="42.19147778058135" lon="14.219753550458302"><ele>553.0</ele><time>2026-05-01T12:28:31Z</time></trkpt><trkpt lat="42.19159974838425" lon="14.219759550656812"><ele>553.0</ele><time>2026-05-01T12:28:32Z</time></trkpt><trkpt lat="42.19171615527084" lon="14.219754780373068"><ele>553.0</ele><time>2026-05-01T12:28:33Z</time></trkpt><trkpt lat="42.1918297105232" lon="14.219773490556673"><ele>552.1999999999999</ele><time>2026-05-01T12:28:34Z</time></trkpt><trkpt lat="42.191942123259665" lon="14.219783362369744"><ele>551.4</ele><time>2026-05-01T12:28:35Z</time></trkpt><trkpt lat="42.192050026306795" lon="14.219794471779041"><ele>550.5999999999999</ele><time>2026-05-01T12:28:36Z</time></trkpt><trkpt lat="42.192153862534184" lon="14.219805438437616"><ele>549.8</ele><time>2026-05-01T12:28:37Z</time></trkpt><trkpt lat="42.19225736893564" lon="14.2198196440912"><ele>549.0</ele><time>2026-05-01T12:28:38Z</time></trkpt><trkpt lat="42.19235640376797" lon="14.219832779573906"><ele>551.2</ele><time>2026-05-01T12:28:39Z</time></trkpt><trkpt lat="42.19245222442375" lon="14.219869916883404"><ele>553.4</ele><time>2026-05-01T12:28:40Z</time></trkpt><trkpt lat="42.19254136562583" lon="14.219914695033717"><ele>555.6</ele><time>2026-05-01T12:28:41Z</time></trkpt><trkpt lat="42.19262136496133" lon="14.219959737119254"><ele>557.8</ele><time>2026-05-01T12:28:42Z</time></trkpt><trkpt lat="42.19269237717516" lon="14.219997675440073"><ele>560.0</ele><time>2026-05-01T12:28:43Z</time></trkpt><trkpt lat="42.1927825209184" lon="14.220046381875225"><ele>560.0</ele><time>2026-05-01T12:28:44Z</time></trkpt><trkpt lat="42.19287887484776" lon="14.22012514087518"><ele>560.0</ele><time>2026-05-01T12:28:45Z</time></trkpt><trkpt lat="42.19297699240363" lon="14.220226603381112"><ele>560.0</ele><time>2026-05-01T12:28:46Z</time></trkpt><trkpt lat="42.193072108658555" lon="14.220320231862397"><ele>560.0</ele><time>2026-05-01T12:28:47Z</time></trkpt><trkpt lat="42.19316346978076" lon="14.220389849568413"><ele>558.0</ele><time>2026-05-01T12:28:48Z</time></trkpt><trkpt lat="42.193253153920494" lon="14.220464561814211"><ele>556.0</ele><time>2026-05-01T12:28:49Z</time></trkpt><trkpt lat="42.19336093365389" lon="14.22051765889635"><ele>554.0</ele><time>2026-05-01T12:28:50Z</time></trkpt><trkpt lat="42.193469409305266" lon="14.220553199925552"><ele>552.0</ele><time>2026-05-01T12:28:51Z</time></trkpt><trkpt lat="42.19356895243928" lon="14.220575935093107"><ele>550.0</ele><time>2026-05-01T12:28:51.999Z</time></trkpt><trkpt lat="42.19365881721445" lon="14.220609233503934"><ele>550.0</ele><time>2026-05-01T12:28:52.999Z</time></trkpt><trkpt lat="42.193741595128046" lon="14.220644129487773"><ele>550.0</ele><time>2026-05-01T12:28:53.999Z</time></trkpt><trkpt lat="42.19381986612367" lon="14.22065733221838"><ele>550.0</ele><time>2026-05-01T12:28:54.999Z</time></trkpt><trkpt lat="42.19389065520062" lon="14.22051343958537"><ele>550.0</ele><time>2026-05-01T12:28:56.999Z</time></trkpt><trkpt lat="42.193863488618994" lon="14.220380289325027"><ele>550.0</ele><time>2026-05-01T12:28:57.999Z</time></trkpt><trkpt lat="42.19379654913054" lon="14.220284896016876"><ele>550.0</ele><time>2026-05-01T12:28:58.999Z</time></trkpt><trkpt lat="42.193658410863264" lon="14.220259739085272"><ele>550.0</ele><time>2026-05-01T12:28:59.999Z</time></trkpt><trkpt lat="42.19355193399291" lon="14.220212162856743"><ele>550.0</ele><time>2026-05-01T12:29:00.999Z</time></trkpt><trkpt lat="42.193452767778155" lon="14.220159657575456"><ele>550.0</ele><time>2026-05-01T12:29:01.999Z</time></trkpt><trkpt lat="42.19336444242879" lon="14.220106784037311"><ele>550.0</ele><time>2026-05-01T12:29:02.999Z</time></trkpt><trkpt lat="42.19329234376886" lon="14.220065496359995"><ele>550.0</ele><time>2026-05-01T12:29:03.999Z</time></trkpt><trkpt lat="42.193294076944994" lon="14.219973377662056"><ele>550.0</ele><time>2026-05-01T12:29:09.999Z</time></trkpt><trkpt lat="42.193399377729925" lon="14.220039961986659"><ele>550.0</ele><time>2026-05-01T12:29:11.999Z</time></trkpt><trkpt lat="42.193482388545505" lon="14.220090318157798"><ele>550.0</ele><time>2026-05-01T12:29:12.999Z</time></trkpt><trkpt lat="42.193555749025954" lon="14.22014869592445"><ele>550.0</ele><time>2026-05-01T12:29:13.999Z</time></trkpt><trkpt lat="42.19362313193081" lon="14.220179333470274"><ele>550.0</ele><time>2026-05-01T12:29:14.999Z</time></trkpt><trkpt lat="42.193687414094875" lon="14.220209809817595"><ele>550.0</ele><time>2026-05-01T12:29:15.999Z</time></trkpt><trkpt lat="42.193770060478776" lon="14.2202424582848"><ele>550.0</ele><time>2026-05-01T12:29:17.999Z</time></trkpt><trkpt lat="42.193840898843135" lon="14.220282064055173"><ele>550.0</ele><time>2026-05-01T12:29:20.999Z</time></trkpt><trkpt lat="42.193941590011725" lon="14.220387944765529"><ele>550.0</ele><time>2026-05-01T12:29:22.999Z</time></trkpt><trkpt lat="42.19397270263717" lon="14.220485728957252"><ele>550.0</ele><time>2026-05-01T12:29:23.999Z</time></trkpt><trkpt lat="42.1939979134572" lon="14.220583218349194"><ele>546.5</ele><time>2026-05-01T12:29:24.999Z</time></trkpt><trkpt lat="42.19402340913421" lon="14.220672834863173"><ele>543.0</ele><time>2026-05-01T12:29:25.999Z</time></trkpt><trkpt lat="42.19403895561584" lon="14.220755944455144"><ele>539.5</ele><time>2026-05-01T12:29:26.999Z</time></trkpt><trkpt lat="42.194047715490264" lon="14.22090080432056"><ele>536.0</ele><time>2026-05-01T12:29:28.999Z</time></trkpt><trkpt lat="42.194245040822715" lon="14.220614687202215"><ele>540.6666666666666</ele><time>2026-05-01T12:29:53Z</time></trkpt><trkpt lat="42.19396162476631" lon="14.220391328589736"><ele>545.3333333333334</ele><time>2026-05-01T12:29:55Z</time></trkpt><trkpt lat="42.19392522416011" lon="14.220292120232656"><ele>550.0</ele><time>2026-05-01T12:29:57Z</time></trkpt><trkpt lat="42.193885457805465" lon="14.220368255482269"><ele>550.0</ele><time>2026-05-01T12:30:32Z</time></trkpt><trkpt lat="42.19394574754355" lon="14.220433561245848"><ele>550.0</ele><time>2026-05-01T12:31:44Z</time></trkpt><trkpt lat="42.19398236909495" lon="14.220512160389111"><ele>550.0</ele><time>2026-05-01T12:31:45Z</time></trkpt><trkpt lat="42.19401597350905" lon="14.220614303478538"><ele>550.0</ele><time>2026-05-01T12:31:46Z</time></trkpt><trkpt lat="42.194047424442466" lon="14.220737813268787"><ele>550.0</ele><time>2026-05-01T12:31:47Z</time></trkpt><trkpt lat="42.19405827147481" lon="14.220878178445336"><ele>550.0</ele><time>2026-05-01T12:31:48Z</time></trkpt><trkpt lat="42.194051548981896" lon="14.221019531782435"><ele>546.8</ele><time>2026-05-01T12:31:49Z</time></trkpt><trkpt lat="42.19404849781728" lon="14.221161705412552"><ele>543.6</ele><time>2026-05-01T12:31:50Z</time></trkpt><trkpt lat="42.194044311316944" lon="14.221306202025314"><ele>540.4</ele><time>2026-05-01T12:31:51Z</time></trkpt><trkpt lat="42.1940380850924" lon="14.22145665387096"><ele>537.2</ele><time>2026-05-01T12:31:52Z</time></trkpt><trkpt lat="42.19403350374337" lon="14.221611064531073"><ele>534.0</ele><time>2026-05-01T12:31:53Z</time></trkpt><trkpt lat="42.19403041810075" lon="14.221763735758845"><ele>532.75</ele><time>2026-05-01T12:31:54Z</time></trkpt><trkpt lat="42.19402574403489" lon="14.221918546425425"><ele>531.5</ele><time>2026-05-01T12:31:55Z</time></trkpt><trkpt lat="42.194020918052885" lon="14.222077026697274"><ele>530.25</ele><time>2026-05-01T12:31:56Z</time></trkpt><trkpt lat="42.19401914867598" lon="14.222237754533504"><ele>529.0</ele><time>2026-05-01T12:31:57Z</time></trkpt><trkpt lat="42.19401821534866" lon="14.222400428943327"><ele>527.25</ele><time>2026-05-01T12:31:58Z</time></trkpt><trkpt lat="42.19402164801282" lon="14.222562539581634"><ele>525.5</ele><time>2026-05-01T12:31:59Z</time></trkpt><trkpt lat="42.19402904703957" lon="14.222716290671233"><ele>523.75</ele><time>2026-05-01T12:32:00Z</time></trkpt><trkpt lat="42.19404047941136" lon="14.222863546573528"><ele>522.0</ele><time>2026-05-01T12:32:01Z</time></trkpt><trkpt lat="42.19405527271946" lon="14.223005583610906"><ele>522.0</ele><time>2026-05-01T12:32:02Z</time></trkpt><trkpt lat="42.194069025221594" lon="14.223141774333511"><ele>522.0</ele><time>2026-05-01T12:32:03Z</time></trkpt><trkpt lat="42.19408246917972" lon="14.223264158662994"><ele>522.0</ele><time>2026-05-01T12:32:04Z</time></trkpt><trkpt lat="42.194094254601296" lon="14.22338452951604"><ele>522.0</ele><time>2026-05-01T12:32:05Z</time></trkpt><trkpt lat="42.19410507687486" lon="14.223501808167875"><ele>522.0</ele><time>2026-05-01T12:32:06Z</time></trkpt><trkpt lat="42.194119513759006" lon="14.223612332051115"><ele>520.8000000000001</ele><time>2026-05-01T12:32:07Z</time></trkpt><trkpt lat="42.194131532339334" lon="14.223711119002466"><ele>519.6</ele><time>2026-05-01T12:32:08Z</time></trkpt><trkpt lat="42.19415809188078" lon="14.223860655114844"><ele>518.4000000000001</ele><time>2026-05-01T12:32:10Z</time></trkpt><trkpt lat="42.19422120206473" lon="14.223932594850568"><ele>517.2</ele><time>2026-05-01T12:32:12Z</time></trkpt><trkpt lat="42.19429900260899" lon="14.223904081195561"><ele>516.0</ele><time>2026-05-01T12:32:14Z</time></trkpt><trkpt lat="42.194409885883765" lon="14.22379182949582"><ele>515.9999999999999</ele><time>2026-05-01T12:32:16Z</time></trkpt><trkpt lat="42.194464605834554" lon="14.223735724102928"><ele>516.0</ele><time>2026-05-01T12:32:17Z</time></trkpt><trkpt lat="42.19451931756583" lon="14.223687076273906"><ele>516.0</ele><time>2026-05-01T12:32:18Z</time></trkpt><trkpt lat="42.19457656775881" lon="14.223638240767766"><ele>516.0</ele><time>2026-05-01T12:32:19Z</time></trkpt><trkpt lat="42.194633290673224" lon="14.223587577496126"><ele>516.0</ele><time>2026-05-01T12:32:20Z</time></trkpt><trkpt lat="42.19469233414387" lon="14.223539856889067"><ele>515.9999999999999</ele><time>2026-05-01T12:32:21Z</time></trkpt><trkpt lat="42.19475191692138" lon="14.22349052954009"><ele>516.0</ele><time>2026-05-01T12:32:22Z</time></trkpt><trkpt lat="42.19481633319821" lon="14.223432300037064"><ele>514.8</ele><time>2026-05-01T12:32:23Z</time></trkpt><trkpt lat="42.19489254093407" lon="14.223369197826418"><ele>513.6</ele><time>2026-05-01T12:32:24Z</time></trkpt><trkpt lat="42.19497386294561" lon="14.223301108200161"><ele>512.4</ele><time>2026-05-01T12:32:25Z</time></trkpt><trkpt lat="42.19505909681881" lon="14.223229976340471"><ele>511.2</ele><time>2026-05-01T12:32:26Z</time></trkpt><trkpt lat="42.19513957391408" lon="14.223150552699215"><ele>510.0</ele><time>2026-05-01T12:32:27Z</time></trkpt><trkpt lat="42.19521168622874" lon="14.223061609218059"><ele>510.0</ele><time>2026-05-01T12:32:28Z</time></trkpt><trkpt lat="42.19528079449009" lon="14.222964060698397"><ele>510.0</ele><time>2026-05-01T12:32:29Z</time></trkpt><trkpt lat="42.195347565095496" lon="14.222873128297604"><ele>510.0</ele><time>2026-05-01T12:32:30Z</time></trkpt><trkpt lat="42.195423247200644" lon="14.222794052627684"><ele>510.0</ele><time>2026-05-01T12:32:31Z</time></trkpt><trkpt lat="42.195478696327456" lon="14.222682526331582"><ele>510.0</ele><time>2026-05-01T12:32:32Z</time></trkpt><trkpt lat="42.1955539929941" lon="14.222598620769313"><ele>510.0</ele><time>2026-05-01T12:32:33Z</time></trkpt><trkpt lat="42.19561428875855" lon="14.222480918339635"><ele>510.0</ele><time>2026-05-01T12:32:34Z</time></trkpt><trkpt lat="42.195659841926364" lon="14.222348907872673"><ele>510.0</ele><time>2026-05-01T12:32:35Z</time></trkpt><trkpt lat="42.19569783040842" lon="14.222211361161788"><ele>510.0</ele><time>2026-05-01T12:32:36Z</time></trkpt><trkpt lat="42.19571279019328" lon="14.222073314076157"><ele>510.0</ele><time>2026-05-01T12:32:37Z</time></trkpt><trkpt lat="42.19574075079392" lon="14.221948139682414"><ele>509.0</ele><time>2026-05-01T12:32:38Z</time></trkpt><trkpt lat="42.19576501219498" lon="14.221830816999258"><ele>508.0</ele><time>2026-05-01T12:32:39Z</time></trkpt><trkpt lat="42.195789058264985" lon="14.22171058747663"><ele>507.0</ele><time>2026-05-01T12:32:40Z</time></trkpt><trkpt lat="42.195802307374365" lon="14.221580685760314"><ele>506.0</ele><time>2026-05-01T12:32:41Z</time></trkpt><trkpt lat="42.19580171606798" lon="14.221428426216287"><ele>505.0</ele><time>2026-05-01T12:32:42Z</time></trkpt><trkpt lat="42.195793555809686" lon="14.221259516353046"><ele>505.0</ele><time>2026-05-01T12:32:43Z</time></trkpt><trkpt lat="42.19578925035465" lon="14.221101197003822"><ele>505.0</ele><time>2026-05-01T12:32:44Z</time></trkpt><trkpt lat="42.195784723536484" lon="14.22095124763086"><ele>505.0</ele><time>2026-05-01T12:32:45Z</time></trkpt><trkpt lat="42.19578418003055" lon="14.22080022255863"><ele>505.0</ele><time>2026-05-01T12:32:46Z</time></trkpt><trkpt lat="42.19578352023715" lon="14.220654172406713"><ele>505.0</ele><time>2026-05-01T12:32:47Z</time></trkpt><trkpt lat="42.1957956539325" lon="14.220515095803295"><ele>505.4</ele><time>2026-05-01T12:32:48Z</time></trkpt><trkpt lat="42.195816714655955" lon="14.220386026964466"><ele>505.8</ele><time>2026-05-01T12:32:49Z</time></trkpt><trkpt lat="42.195842146735615" lon="14.220260919216203"><ele>506.20000000000005</ele><time>2026-05-01T12:32:50Z</time></trkpt><trkpt lat="42.195876855463155" lon="14.220134994894433"><ele>506.6</ele><time>2026-05-01T12:32:51Z</time></trkpt><trkpt lat="42.195915018191734" lon="14.220011711959174"><ele>507.0</ele><time>2026-05-01T12:32:52Z</time></trkpt><trkpt lat="42.19595879855617" lon="14.219890238662753"><ele>507.20000000000005</ele><time>2026-05-01T12:32:53Z</time></trkpt><trkpt lat="42.19601359208561" lon="14.21977813949562"><ele>507.40000000000003</ele><time>2026-05-01T12:32:54Z</time></trkpt><trkpt lat="42.19608380907962" lon="14.219677310102904"><ele>507.59999999999997</ele><time>2026-05-01T12:32:55Z</time></trkpt><trkpt lat="42.196167790197535" lon="14.219583427068848"><ele>507.79999999999995</ele><time>2026-05-01T12:32:56Z</time></trkpt><trkpt lat="42.196258661997085" lon="14.219495060413255"><ele>508.0</ele><time>2026-05-01T12:32:57Z</time></trkpt><trkpt lat="42.19633953993366" lon="14.219415890260066"><ele>508.00000000000006</ele><time>2026-05-01T12:32:58Z</time></trkpt><trkpt lat="42.19640802008298" lon="14.21935834300721"><ele>508.0</ele><time>2026-05-01T12:32:59Z</time></trkpt><trkpt lat="42.196471108503516" lon="14.219305735259411"><ele>508.0</ele><time>2026-05-01T12:33:00Z</time></trkpt><trkpt lat="42.19652652034711" lon="14.219261810623552"><ele>508.0</ele><time>2026-05-01T12:33:01Z</time></trkpt><trkpt lat="42.196609280626575" lon="14.219202770511151"><ele>508.00000000000006</ele><time>2026-05-01T12:33:03Z</time></trkpt><trkpt lat="42.19667585784941" lon="14.2192276583071"><ele>508.0</ele><time>2026-05-01T12:33:04Z</time></trkpt><trkpt lat="42.19678087712951" lon="14.219240251888886"><ele>507.00000000000006</ele><time>2026-05-01T12:33:06Z</time></trkpt><trkpt lat="42.19685677081388" lon="14.219182611811041"><ele>506.0</ele><time>2026-05-01T12:33:08Z</time></trkpt><trkpt lat="42.19694179286827" lon="14.219087591736812"><ele>505.0</ele><time>2026-05-01T12:33:10Z</time></trkpt><trkpt lat="42.197011088576694" lon="14.219081822936493"><ele>504.0</ele><time>2026-05-01T12:33:11Z</time></trkpt><trkpt lat="42.1970909140007" lon="14.219091775725055"><ele>503.00000000000006</ele><time>2026-05-01T12:33:12Z</time></trkpt><trkpt lat="42.197176572732225" lon="14.219081098762553"><ele>502.0</ele><time>2026-05-01T12:33:13Z</time></trkpt><trkpt lat="42.197270435059465" lon="14.219071579255857"><ele>501.25</ele><time>2026-05-01T12:33:14Z</time></trkpt><trkpt lat="42.197374394814304" lon="14.219065437817207"><ele>500.5</ele><time>2026-05-01T12:33:15Z</time></trkpt><trkpt lat="42.197487553976" lon="14.219046265409844"><ele>499.75</ele><time>2026-05-01T12:33:16Z</time></trkpt><trkpt lat="42.19760232151787" lon="14.219020626919871"><ele>499.0</ele><time>2026-05-01T12:33:17Z</time></trkpt><trkpt lat="42.197721446895414" lon="14.218994588253649"><ele>498.0</ele><time>2026-05-01T12:33:18Z</time></trkpt><trkpt lat="42.19783868192726" lon="14.21897078170684"><ele>497.0</ele><time>2026-05-01T12:33:19Z</time></trkpt><trkpt lat="42.19795182726009" lon="14.218946717408983"><ele>496.0</ele><time>2026-05-01T12:33:20Z</time></trkpt><trkpt lat="42.19807162770703" lon="14.218922570239632"><ele>495.0</ele><time>2026-05-01T12:33:21Z</time></trkpt><trkpt lat="42.19819522153112" lon="14.218891406332315"><ele>494.25</ele><time>2026-05-01T12:33:22Z</time></trkpt><trkpt lat="42.19832045491225" lon="14.218854898913685"><ele>493.5</ele><time>2026-05-01T12:33:23Z</time></trkpt><trkpt lat="42.198445661473905" lon="14.218808978086177"><ele>492.75</ele><time>2026-05-01T12:33:24Z</time></trkpt><trkpt lat="42.19857192061356" lon="14.218758801327382"><ele>492.0</ele><time>2026-05-01T12:33:25Z</time></trkpt><trkpt lat="42.198699971534396" lon="14.218705359946512"><ele>492.0</ele><time>2026-05-01T12:33:26Z</time></trkpt><trkpt lat="42.19883450443382" lon="14.218647878033464"><ele>492.0</ele><time>2026-05-01T12:33:27Z</time></trkpt><trkpt lat="42.19897430274066" lon="14.218588951069036"><ele>492.0</ele><time>2026-05-01T12:33:28Z</time></trkpt><trkpt lat="42.19911775826969" lon="14.218527464032007"><ele>492.0</ele><time>2026-05-01T12:33:29Z</time></trkpt><trkpt lat="42.19926069015499" lon="14.218465430842908"><ele>490.75</ele><time>2026-05-01T12:33:30Z</time></trkpt><trkpt lat="42.19940116634421" lon="14.218405057229452"><ele>489.5</ele><time>2026-05-01T12:33:31Z</time></trkpt><trkpt lat="42.199529602474755" lon="14.218348631518277"><ele>488.25</ele><time>2026-05-01T12:33:32Z</time></trkpt><trkpt lat="42.19965312276964" lon="14.21830155960462"><ele>487.0</ele><time>2026-05-01T12:33:33Z</time></trkpt><trkpt lat="42.19976983004219" lon="14.218263684861498"><ele>486.0</ele><time>2026-05-01T12:33:34Z</time></trkpt><trkpt lat="42.19988347130609" lon="14.218235126545235"><ele>485.00000000000006</ele><time>2026-05-01T12:33:35Z</time></trkpt><trkpt lat="42.19999319914895" lon="14.218215652844862"><ele>484.00000000000006</ele><time>2026-05-01T12:33:36Z</time></trkpt><trkpt lat="42.20009861510107" lon="14.218206383696694"><ele>483.0</ele><time>2026-05-01T12:33:37Z</time></trkpt><trkpt lat="42.20019146976969" lon="14.218201829690639"><ele>482.0</ele><time>2026-05-01T12:33:38Z</time></trkpt><trkpt lat="42.20027361805238" lon="14.218198848678197"><ele>481.99999999999994</ele><time>2026-05-01T12:33:39Z</time></trkpt><trkpt lat="42.20034206770516" lon="14.218191142551598"><ele>482.0</ele><time>2026-05-01T12:33:40Z</time></trkpt><trkpt lat="42.20044567077025" lon="14.218189585422431"><ele>482.0</ele><time>2026-05-01T12:33:42Z</time></trkpt><trkpt lat="42.20052690538064" lon="14.218194197003381"><ele>482.0</ele><time>2026-05-01T12:33:44Z</time></trkpt><trkpt lat="42.20058729222013" lon="14.21810187705311"><ele>481.99999999999994</ele><time>2026-05-01T12:33:45Z</time></trkpt><trkpt lat="42.20065658048835" lon="14.218090739769977"><ele>482.0</ele><time>2026-05-01T12:33:46Z</time></trkpt><trkpt lat="42.20072754859685" lon="14.21807566560979"><ele>480.6</ele><time>2026-05-01T12:33:47Z</time></trkpt><trkpt lat="42.200809928191475" lon="14.218054674359994"><ele>479.20000000000005</ele><time>2026-05-01T12:33:48Z</time></trkpt><trkpt lat="42.200897731238015" lon="14.218033227054654"><ele>477.8</ele><time>2026-05-01T12:33:49Z</time></trkpt><trkpt lat="42.20099627584977" lon="14.218010637418717"><ele>476.4</ele><time>2026-05-01T12:33:50Z</time></trkpt><trkpt lat="42.20110312752402" lon="14.217992553691062"><ele>475.0</ele><time>2026-05-01T12:33:51Z</time></trkpt><trkpt lat="42.20121897119128" lon="14.217975548024276"><ele>475.0</ele><time>2026-05-01T12:33:52Z</time></trkpt><trkpt lat="42.20133528825896" lon="14.21796110814153"><ele>475.0</ele><time>2026-05-01T12:33:53Z</time></trkpt><trkpt lat="42.201456645354575" lon="14.21795228892754"><ele>475.0</ele><time>2026-05-01T12:33:54Z</time></trkpt><trkpt lat="42.20157862850614" lon="14.217943644706043"><ele>475.0</ele><time>2026-05-01T12:33:55Z</time></trkpt><trkpt lat="42.201702501489656" lon="14.217949519780667"><ele>474.25</ele><time>2026-05-01T12:33:56Z</time></trkpt><trkpt lat="42.20182994504651" lon="14.217974846030481"><ele>473.5</ele><time>2026-05-01T12:33:57Z</time></trkpt><trkpt lat="42.20196263348509" lon="14.21800733657985"><ele>472.75</ele><time>2026-05-01T12:33:58Z</time></trkpt><trkpt lat="42.20209542469796" lon="14.21804127116045"><ele>472.0</ele><time>2026-05-01T12:33:59Z</time></trkpt><trkpt lat="42.20222927858514" lon="14.218061864649789"><ele>471.25</ele><time>2026-05-01T12:34:00Z</time></trkpt><trkpt lat="42.20235831446133" lon="14.218070545348962"><ele>470.5</ele><time>2026-05-01T12:34:01Z</time></trkpt><trkpt lat="42.202494068190994" lon="14.218065609890251"><ele>469.75</ele><time>2026-05-01T12:34:02Z</time></trkpt><trkpt lat="42.20262696951958" lon="14.218052105047226"><ele>469.0</ele><time>2026-05-01T12:34:03Z</time></trkpt><trkpt lat="42.20275654676624" lon="14.21803610984592"><ele>469.0</ele><time>2026-05-01T12:34:04Z</time></trkpt><trkpt lat="42.20287520484754" lon="14.218020221535978"><ele>469.0</ele><time>2026-05-01T12:34:05Z</time></trkpt><trkpt lat="42.202987360871596" lon="14.218001351710843"><ele>469.0</ele><time>2026-05-01T12:34:06Z</time></trkpt><trkpt lat="42.203088710056036" lon="14.217965711835953"><ele>469.0</ele><time>2026-05-01T12:34:07Z</time></trkpt><trkpt lat="42.20317810264326" lon="14.217909035891786"><ele>469.0</ele><time>2026-05-01T12:34:08Z</time></trkpt><trkpt lat="42.20328185009583" lon="14.217838773215641"><ele>466.75</ele><time>2026-05-01T12:34:09Z</time></trkpt><trkpt lat="42.20337331809069" lon="14.21772531084945"><ele>464.5</ele><time>2026-05-01T12:34:10Z</time></trkpt><trkpt lat="42.20348288682497" lon="14.217633896117528"><ele>462.25</ele><time>2026-05-01T12:34:11Z</time></trkpt><trkpt lat="42.20359095189369" lon="14.217544638341966"><ele>460.0</ele><time>2026-05-01T12:34:12Z</time></trkpt><trkpt lat="42.20369178625649" lon="14.21745926872453"><ele>460.0</ele><time>2026-05-01T12:34:13Z</time></trkpt><trkpt lat="42.20378833510028" lon="14.217376456788339"><ele>460.0</ele><time>2026-05-01T12:34:14Z</time></trkpt><trkpt lat="42.20388066352217" lon="14.217311904972641"><ele>460.0</ele><time>2026-05-01T12:34:15Z</time></trkpt><trkpt lat="42.20397460192029" lon="14.21728300450287"><ele>460.0</ele><time>2026-05-01T12:34:16Z</time></trkpt><trkpt lat="42.204070268164955" lon="14.217286337465033"><ele>460.0</ele><time>2026-05-01T12:34:17Z</time></trkpt><trkpt lat="42.20416982198652" lon="14.217310923297791"><ele>460.6</ele><time>2026-05-01T12:34:18Z</time></trkpt><trkpt lat="42.2042703707732" lon="14.21732203239362"><ele>461.2</ele><time>2026-05-01T12:34:19Z</time></trkpt><trkpt lat="42.20436712243842" lon="14.21731117748674"><ele>461.79999999999995</ele><time>2026-05-01T12:34:20Z</time></trkpt><trkpt lat="42.20447211164298" lon="14.217276407116621"><ele>462.4</ele><time>2026-05-01T12:34:21Z</time></trkpt><trkpt lat="42.20457939482581" lon="14.217232514655263"><ele>463.0</ele><time>2026-05-01T12:34:22Z</time></trkpt><trkpt lat="42.20467768722487" lon="14.217195551245982"><ele>463.0</ele><time>2026-05-01T12:34:23Z</time></trkpt><trkpt lat="42.20476203291099" lon="14.217166025957063"><ele>462.99999999999994</ele><time>2026-05-01T12:34:24Z</time></trkpt><trkpt lat="42.20483112217605" lon="14.217143742035386"><ele>463.0</ele><time>2026-05-01T12:34:25Z</time></trkpt><trkpt lat="42.20489167495945" lon="14.21711176413297"><ele>463.0</ele><time>2026-05-01T12:34:26Z</time></trkpt><trkpt lat="42.20495220781151" lon="14.217086726621499"><ele>462.99999999999994</ele><time>2026-05-01T12:34:27Z</time></trkpt><trkpt lat="42.205013011335964" lon="14.217061755721712"><ele>463.0</ele><time>2026-05-01T12:34:28Z</time></trkpt><trkpt lat="42.205082217132684" lon="14.217026913792202"><ele>463.0</ele><time>2026-05-01T12:34:29Z</time></trkpt><trkpt lat="42.20516035933505" lon="14.217015056183946"><ele>462.33333333333337</ele><time>2026-05-01T12:34:30Z</time></trkpt><trkpt lat="42.20524237052066" lon="14.216991155420436"><ele>461.6666666666667</ele><time>2026-05-01T12:34:31Z</time></trkpt><trkpt lat="42.20531974028013" lon="14.216969091254171"><ele>461.0</ele><time>2026-05-01T12:34:32Z</time></trkpt><trkpt lat="42.205390084838" lon="14.216953561755005"><ele>460.33333333333337</ele><time>2026-05-01T12:34:33Z</time></trkpt><trkpt lat="42.205478957788614" lon="14.216955345939692"><ele>459.6666666666667</ele><time>2026-05-01T12:34:35Z</time></trkpt><trkpt lat="42.2055705909004" lon="14.216982187721566"><ele>459.0</ele><time>2026-05-01T12:34:38.001Z</time></trkpt><trkpt lat="42.20559785198499" lon="14.217115490697346"><ele>459.0</ele><time>2026-05-01T12:34:39.001Z</time></trkpt><trkpt lat="42.205642583575894" lon="14.2172152993294"><ele>459.0</ele><time>2026-05-01T12:34:40.001Z</time></trkpt><trkpt lat="42.20568401419576" lon="14.217292980333058"><ele>459.0</ele><time>2026-05-01T12:34:41.001Z</time></trkpt><trkpt lat="42.20574962152034" lon="14.217434434331377"><ele>459.0</ele><time>2026-05-01T12:34:43.001Z</time></trkpt><trkpt lat="42.20579044667145" lon="14.217517041370515"><ele>459.0</ele><time>2026-05-01T12:34:44.001Z</time></trkpt><trkpt lat="42.205833694222065" lon="14.217605810750909"><ele>459.0</ele><time>2026-05-01T12:34:45.001Z</time></trkpt><trkpt lat="42.205883500867145" lon="14.217703210939844"><ele>456.0</ele><time>2026-05-01T12:34:46.001Z</time></trkpt><trkpt lat="42.20593725031559" lon="14.217811966970137"><ele>453.0</ele><time>2026-05-01T12:34:47.001Z</time></trkpt><trkpt lat="42.20599321002828" lon="14.217927497904943"><ele>450.0</ele><time>2026-05-01T12:34:48.001Z</time></trkpt><trkpt lat="42.206050404111785" lon="14.218044359847113"><ele>447.0</ele><time>2026-05-01T12:34:49.001Z</time></trkpt><trkpt lat="42.20611225402436" lon="14.21815257935231"><ele>444.0</ele><time>2026-05-01T12:34:50.001Z</time></trkpt><trkpt lat="42.206188148928284" lon="14.218247283466175"><ele>442.79999999999995</ele><time>2026-05-01T12:34:51.001Z</time></trkpt><trkpt lat="42.20627696033239" lon="14.218330229615745"><ele>441.59999999999997</ele><time>2026-05-01T12:34:52.001Z</time></trkpt><trkpt lat="42.20636717802644" lon="14.218399470855164"><ele>440.4</ele><time>2026-05-01T12:34:53.001Z</time></trkpt><trkpt lat="42.20645936690402" lon="14.218464150709135"><ele>439.2</ele><time>2026-05-01T12:34:54.001Z</time></trkpt><trkpt lat="42.20654475502631" lon="14.218524386072497"><ele>438.0</ele><time>2026-05-01T12:34:55.001Z</time></trkpt><trkpt lat="42.20662328913632" lon="14.218587587080597"><ele>436.59999999999997</ele><time>2026-05-01T12:34:56.001Z</time></trkpt><trkpt lat="42.20668918734782" lon="14.218673668021456"><ele>435.19999999999993</ele><time>2026-05-01T12:34:57.001Z</time></trkpt><trkpt lat="42.20674903486308" lon="14.218769172183483"><ele>433.8</ele><time>2026-05-01T12:34:58.001Z</time></trkpt><trkpt lat="42.20680722012452" lon="14.218879953793035"><ele>432.4</ele><time>2026-05-01T12:34:59.001Z</time></trkpt><trkpt lat="42.20686520574142" lon="14.218996707163392"><ele>431.0</ele><time>2026-05-01T12:35:00.001Z</time></trkpt><trkpt lat="42.20692073525665" lon="14.219114286324297"><ele>430.4</ele><time>2026-05-01T12:35:01.001Z</time></trkpt><trkpt lat="42.20697301226107" lon="14.21923864217016"><ele>429.8</ele><time>2026-05-01T12:35:02.001Z</time></trkpt><trkpt lat="42.20701917394135" lon="14.21935304142582"><ele>429.19999999999993</ele><time>2026-05-01T12:35:03.001Z</time></trkpt><trkpt lat="42.207064652971475" lon="14.219461129488229"><ele>428.59999999999997</ele><time>2026-05-01T12:35:04.001Z</time></trkpt><trkpt lat="42.20711035136193" lon="14.219570179370574"><ele>428.0</ele><time>2026-05-01T12:35:05.001Z</time></trkpt><trkpt lat="42.207154957304944" lon="14.219678266167447"><ele>427.99999999999994</ele><time>2026-05-01T12:35:06.001Z</time></trkpt><trkpt lat="42.207201711745064" lon="14.219788712065741"><ele>428.0</ele><time>2026-05-01T12:35:07.001Z</time></trkpt><trkpt lat="42.207262280126436" lon="14.219884979425863"><ele>428.0</ele><time>2026-05-01T12:35:08.001Z</time></trkpt><trkpt lat="42.20733077696955" lon="14.2199549537202"><ele>428.0</ele><time>2026-05-01T12:35:09.001Z</time></trkpt><trkpt lat="42.20740814951851" lon="14.219991643322562"><ele>427.99999999999994</ele><time>2026-05-01T12:35:10.001Z</time></trkpt><trkpt lat="42.207497892862804" lon="14.220008121877493"><ele>428.0</ele><time>2026-05-01T12:35:11.001Z</time></trkpt><trkpt lat="42.20758019832869" lon="14.220002464611978"><ele>426.3333333333333</ele><time>2026-05-01T12:35:12.001Z</time></trkpt><trkpt lat="42.207647673241105" lon="14.219996039483213"><ele>424.66666666666663</ele><time>2026-05-01T12:35:13.001Z</time></trkpt><trkpt lat="42.2077608342573" lon="14.219988081753165"><ele>423.0</ele><time>2026-05-01T12:35:15.001Z</time></trkpt><trkpt lat="42.20782358476106" lon="14.220080886442833"><ele>421.33333333333337</ele><time>2026-05-01T12:35:35Z</time></trkpt><trkpt lat="42.20780234097808" lon="14.22018078152508"><ele>419.6666666666667</ele><time>2026-05-01T12:35:36Z</time></trkpt><trkpt lat="42.207847826758666" lon="14.220259256584995"><ele>418.0</ele><time>2026-05-01T12:35:43Z</time></trkpt><trkpt lat="42.20787365997606" lon="14.220344778845948"><ele>418.0</ele><time>2026-05-01T12:35:46Z</time></trkpt><trkpt lat="42.207908015229705" lon="14.220463858589467"><ele>418.0</ele><time>2026-05-01T12:35:50Z</time></trkpt><trkpt lat="42.20799149619012" lon="14.220543556190076"><ele>418.0</ele><time>2026-05-01T12:35:55Z</time></trkpt><trkpt lat="42.20825721729004" lon="14.219874836659624"><ele>416.6666666666667</ele><time>2026-05-01T12:35:56Z</time></trkpt><trkpt lat="42.20830798088698" lon="14.219816630013957"><ele>415.33333333333337</ele><time>2026-05-01T12:35:57Z</time></trkpt><trkpt lat="42.208418066484455" lon="14.219758983037826"><ele>414.0</ele><time>2026-05-01T12:35:59Z</time></trkpt><trkpt lat="42.208483703130405" lon="14.219713791682542"><ele>412.66666666666663</ele><time>2026-05-01T12:36:00Z</time></trkpt><trkpt lat="42.208588571116856" lon="14.219636337049709"><ele>411.3333333333333</ele><time>2026-05-01T12:36:02Z</time></trkpt><trkpt lat="42.20864329049309" lon="14.219593519871463"><ele>410.0</ele><time>2026-05-01T12:36:03Z</time></trkpt><trkpt lat="42.208768742434366" lon="14.219551814041946"><ele>410.0</ele><time>2026-05-01T12:36:04Z</time></trkpt><trkpt lat="42.20892103508526" lon="14.219619478234083"><ele>410.0</ele><time>2026-05-01T12:36:05Z</time></trkpt><trkpt lat="42.209003119824274" lon="14.219722509048108"><ele>410.0</ele><time>2026-05-01T12:36:06Z</time></trkpt><trkpt lat="42.209054888609586" lon="14.219828972226141"><ele>410.0</ele><time>2026-05-01T12:36:07Z</time></trkpt><trkpt lat="42.209010897048245" lon="14.220016537511283"><ele>405.66666666666663</ele><time>2026-05-01T12:36:08Z</time></trkpt><trkpt lat="42.20908747265576" lon="14.220140105980107"><ele>401.33333333333337</ele><time>2026-05-01T12:36:10Z</time></trkpt><trkpt lat="42.209150905940085" lon="14.220218906721499"><ele>397.0</ele><time>2026-05-01T12:36:12.001Z</time></trkpt><trkpt lat="42.20939207568617" lon="14.220056761605065"><ele>397.00000000000006</ele><time>2026-05-01T12:36:13.001Z</time></trkpt><trkpt lat="42.20947136133506" lon="14.220073211066861"><ele>397.0</ele><time>2026-05-01T12:36:15.001Z</time></trkpt><trkpt lat="42.209552847483494" lon="14.220026096272731"><ele>397.0</ele><time>2026-05-01T12:36:17.001Z</time></trkpt><trkpt lat="42.2095964171988" lon="14.21995145605712"><ele>397.0</ele><time>2026-05-01T12:36:18.001Z</time></trkpt><trkpt lat="42.209639364697395" lon="14.219862149401887"><ele>397.00000000000006</ele><time>2026-05-01T12:36:19.001Z</time></trkpt><trkpt lat="42.20968119313805" lon="14.219777489069456"><ele>397.0</ele><time>2026-05-01T12:36:20.001Z</time></trkpt><trkpt lat="42.20971750265346" lon="14.219696894486981"><ele>397.00000000000006</ele><time>2026-05-01T12:36:21.001Z</time></trkpt><trkpt lat="42.209741478498565" lon="14.21961333745592"><ele>397.0</ele><time>2026-05-01T12:36:22.001Z</time></trkpt><trkpt lat="42.20974920193489" lon="14.21944985050445"><ele>397.0</ele><time>2026-05-01T12:36:24.001Z</time></trkpt><trkpt lat="42.20974791189801" lon="14.219338406596467"><ele>397.0</ele><time>2026-05-01T12:36:26.001Z</time></trkpt><trkpt lat="42.20981263838361" lon="14.219309989176764"><ele>397.00000000000006</ele><time>2026-05-01T12:36:29.001Z</time></trkpt><trkpt lat="42.20984907085388" lon="14.219425693823222"><ele>397.0</ele><time>2026-05-01T12:36:31.001Z</time></trkpt><trkpt lat="42.209839680058884" lon="14.219557779796974"><ele>397.0</ele><time>2026-05-01T12:36:32.001Z</time></trkpt><trkpt lat="42.20982461333867" lon="14.219697977681449"><ele>397.0</ele><time>2026-05-01T12:36:33.001Z</time></trkpt><trkpt lat="42.20981867819316" lon="14.219844937167018"><ele>397.0</ele><time>2026-05-01T12:36:34.001Z</time></trkpt><trkpt lat="42.20981341021502" lon="14.219995355889187"><ele>397.0</ele><time>2026-05-01T12:36:35.001Z</time></trkpt><trkpt lat="42.20980100038741" lon="14.220136826339967"><ele>397.0</ele><time>2026-05-01T12:36:36.001Z</time></trkpt><trkpt lat="42.20978771316677" lon="14.220263198082833"><ele>397.00000000000006</ele><time>2026-05-01T12:36:37.001Z</time></trkpt><trkpt lat="42.209787089541166" lon="14.220381145046467"><ele>397.0</ele><time>2026-05-01T12:36:38.001Z</time></trkpt><trkpt lat="42.20979059396959" lon="14.220478324102773"><ele>397.0</ele><time>2026-05-01T12:36:39.001Z</time></trkpt><trkpt lat="42.20979831478759" lon="14.220563803222792"><ele>397.0</ele><time>2026-05-01T12:36:40.001Z</time></trkpt><trkpt lat="42.20982452552836" lon="14.220687108165949"><ele>397.00000000000006</ele><time>2026-05-01T12:36:42.001Z</time></trkpt><trkpt lat="42.20982544731457" lon="14.220778922537317"><ele>397.0</ele><time>2026-05-01T12:36:45.001Z</time></trkpt><trkpt lat="42.210072472044196" lon="14.2207387035247"><ele>395.83333333333337</ele><time>2026-05-01T12:36:52.001Z</time></trkpt><trkpt lat="42.210168929764244" lon="14.220729192359967"><ele>394.6666666666667</ele><time>2026-05-01T12:36:54.001Z</time></trkpt><trkpt lat="42.21025028763576" lon="14.220716026207876"><ele>393.5</ele><time>2026-05-01T12:36:56.001Z</time></trkpt><trkpt lat="42.21031189500879" lon="14.220737961362092"><ele>392.33333333333337</ele><time>2026-05-01T12:36:58.001Z</time></trkpt><trkpt lat="42.21036434936455" lon="14.220843042088783"><ele>391.1666666666667</ele><time>2026-05-01T12:37:01.001Z</time></trkpt><trkpt lat="42.210417961136166" lon="14.220912284439665"><ele>390.0</ele><time>2026-05-01T12:37:03.001Z</time></trkpt><trkpt lat="42.21050413103242" lon="14.22090294978068"><ele>390.0</ele><time>2026-05-01T12:37:05.001Z</time></trkpt><trkpt lat="42.21060151682726" lon="14.220858489199951"><ele>390.0</ele><time>2026-05-01T12:37:07.001Z</time></trkpt><trkpt lat="42.21071837106246" lon="14.220818885493653"><ele>390.0</ele><time>2026-05-01T12:37:09.001Z</time></trkpt><trkpt lat="42.2108367500504" lon="14.220792102517942"><ele>390.0</ele><time>2026-05-01T12:37:11.001Z</time></trkpt><trkpt lat="42.21095946344631" lon="14.220773184844425"><ele>388.8</ele><time>2026-05-01T12:37:13.001Z</time></trkpt><trkpt lat="42.21108196781765" lon="14.220752852206386"><ele>387.6</ele><time>2026-05-01T12:37:15.001Z</time></trkpt><trkpt lat="42.21115708828837" lon="14.220737081438207"><ele>386.4</ele><time>2026-05-01T12:37:16.001Z</time></trkpt><trkpt lat="42.21122753110288" lon="14.220716809885321"><ele>385.2</ele><time>2026-05-01T12:37:17.001Z</time></trkpt><trkpt lat="42.211327952781794" lon="14.220695799689542"><ele>384.0</ele><time>2026-05-01T12:37:19.001Z</time></trkpt><trkpt lat="42.21141154703314" lon="14.220679129492405"><ele>381.2</ele><time>2026-05-01T12:37:21.001Z</time></trkpt><trkpt lat="42.211509865344745" lon="14.220628468001932"><ele>378.4</ele><time>2026-05-01T12:37:23.001Z</time></trkpt><trkpt lat="42.21161236596906" lon="14.220598164585112"><ele>375.6</ele><time>2026-05-01T12:37:25.001Z</time></trkpt><trkpt lat="42.21172187109479" lon="14.220590582077016"><ele>372.8</ele><time>2026-05-01T12:37:27.001Z</time></trkpt><trkpt lat="42.211828515899896" lon="14.220559032000358"><ele>370.0</ele><time>2026-05-01T12:37:29.001Z</time></trkpt><trkpt lat="42.21189727148722" lon="14.220511782476184"><ele>369.99999999999994</ele><time>2026-05-01T12:37:31.001Z</time></trkpt><trkpt lat="42.2119522482533" lon="14.220452447705274"><ele>370.0</ele><time>2026-05-01T12:37:34.001Z</time></trkpt><trkpt lat="42.211993038599125" lon="14.22038004866031"><ele>370.0</ele><time>2026-05-01T12:37:36.001Z</time></trkpt><trkpt lat="42.212022034689" lon="14.220289666260403"><ele>370.0</ele><time>2026-05-01T12:37:50.001Z</time></trkpt><trkpt lat="42.21206442031718" lon="14.22022231313891"><ele>370.0</ele><time>2026-05-01T12:37:57.001Z</time></trkpt><trkpt lat="42.21214330229322" lon="14.22017027953191"><ele>369.99999999999994</ele><time>2026-05-01T12:38:06.001Z</time></trkpt><trkpt lat="42.21220602783198" lon="14.220181763964117"><ele>370.0</ele><time>2026-05-01T12:38:09.001Z</time></trkpt><trkpt lat="42.212268553694805" lon="14.220255954378612"><ele>370.0</ele><time>2026-05-01T12:38:14.001Z</time></trkpt><trkpt lat="42.21228315142855" lon="14.220372554189005"><ele>370.0</ele><time>2026-05-01T12:38:16.001Z</time></trkpt><trkpt lat="42.212283857820616" lon="14.220468955328082"><ele>370.0</ele><time>2026-05-01T12:38:17.001Z</time></trkpt><trkpt lat="42.21229323619743" lon="14.220618846491762"><ele>370.0</ele><time>2026-05-01T12:38:19.001Z</time></trkpt><trkpt lat="42.212326834416665" lon="14.22075243939205"><ele>370.0</ele><time>2026-05-01T12:38:21.001Z</time></trkpt><trkpt lat="42.21237941279267" lon="14.22082410549848"><ele>370.4</ele><time>2026-05-01T12:38:23.001Z</time></trkpt><trkpt lat="42.21249113674152" lon="14.220763479581834"><ele>370.8</ele><time>2026-05-01T12:38:25.001Z</time></trkpt><trkpt lat="42.212593649498864" lon="14.220700490021354"><ele>371.20000000000005</ele><time>2026-05-01T12:38:27.001Z</time></trkpt><trkpt lat="42.212688326773154" lon="14.22064774338914"><ele>371.6</ele><time>2026-05-01T12:38:29.001Z</time></trkpt><trkpt lat="42.21277155447658" lon="14.220597833543833"><ele>372.0</ele><time>2026-05-01T12:38:32.001Z</time></trkpt><trkpt lat="42.212870268970704" lon="14.220565821491876"><ele>372.0</ele><time>2026-05-01T12:38:38.001Z</time></trkpt><trkpt lat="42.2129406003626" lon="14.220500485431105"><ele>372.0</ele><time>2026-05-01T12:38:40.001Z</time></trkpt><trkpt lat="42.213000403785834" lon="14.220446503646414"><ele>372.0</ele><time>2026-05-01T12:38:42.001Z</time></trkpt><trkpt lat="42.21307000457027" lon="14.220413192177512"><ele>372.0</ele><time>2026-05-01T12:38:45.001Z</time></trkpt><trkpt lat="42.213141466471484" lon="14.220327990362382"><ele>372.0</ele><time>2026-05-01T12:38:48.001Z</time></trkpt><trkpt lat="42.21320652597983" lon="14.220249037810845"><ele>372.0</ele><time>2026-05-01T12:38:50.001Z</time></trkpt><trkpt lat="42.213287408622705" lon="14.220203480717025"><ele>372.8</ele><time>2026-05-01T12:38:52.001Z</time></trkpt><trkpt lat="42.21337277334818" lon="14.220150993731028"><ele>373.6</ele><time>2026-05-01T12:38:54.001Z</time></trkpt><trkpt lat="42.21344373172818" lon="14.220076821882794"><ele>374.40000000000003</ele><time>2026-05-01T12:38:56.001Z</time></trkpt><trkpt lat="42.213500302303494" lon="14.219989375601072"><ele>375.20000000000005</ele><time>2026-05-01T12:38:58.001Z</time></trkpt><trkpt lat="42.21357789783093" lon="14.219911921098742"><ele>376.0</ele><time>2026-05-01T12:39:00.001Z</time></trkpt><trkpt lat="42.21367116244865" lon="14.219845484390243"><ele>374.5</ele><time>2026-05-01T12:39:02.001Z</time></trkpt><trkpt lat="42.21373075158552" lon="14.219766221908557"><ele>373.0</ele><time>2026-05-01T12:39:04.001Z</time></trkpt><trkpt lat="42.21379500540759" lon="14.219703280545945"><ele>371.5</ele><time>2026-05-01T12:39:06.001Z</time></trkpt><trkpt lat="42.21385861574811" lon="14.219631140651622"><ele>370.0</ele><time>2026-05-01T12:39:08.001Z</time></trkpt><trkpt lat="42.21391988167338" lon="14.219585926593009"><ele>368.5</ele><time>2026-05-01T12:39:10.001Z</time></trkpt><trkpt lat="42.2139671109462" lon="14.219519730893872"><ele>367.0</ele><time>2026-05-01T12:39:12.001Z</time></trkpt><trkpt lat="42.21401934210354" lon="14.219428415188439"><ele>367.0</ele><time>2026-05-01T12:39:14.001Z</time></trkpt><trkpt lat="42.21407240161221" lon="14.219328792823264"><ele>367.0</ele><time>2026-05-01T12:39:16.001Z</time></trkpt><trkpt lat="42.21411902242758" lon="14.21924105550391"><ele>367.0</ele><time>2026-05-01T12:39:18.001Z</time></trkpt><trkpt lat="42.21416390465205" lon="14.219145403970462"><ele>367.0</ele><time>2026-05-01T12:39:20.001Z</time></trkpt><trkpt lat="42.21420758257146" lon="14.219043143862246"><ele>367.0</ele><time>2026-05-01T12:39:22.001Z</time></trkpt><trkpt lat="42.21425753847394" lon="14.218934629596037"><ele>367.0</ele><time>2026-05-01T12:39:24.001Z</time></trkpt><trkpt lat="42.21432196977658" lon="14.218841116355286"><ele>364.5</ele><time>2026-05-01T12:39:26.001Z</time></trkpt><trkpt lat="42.21440838631408" lon="14.218760139823104"><ele>362.0</ele><time>2026-05-01T12:39:28.001Z</time></trkpt><trkpt lat="42.21447272378509" lon="14.218720107434537"><ele>359.5</ele><time>2026-05-01T12:39:29.001Z</time></trkpt><trkpt lat="42.21453135162261" lon="14.218669507890404"><ele>357.0</ele><time>2026-05-01T12:39:30.001Z</time></trkpt><trkpt lat="42.214608722128304" lon="14.218581508369759"><ele>354.5</ele><time>2026-05-01T12:39:32.001Z</time></trkpt><trkpt lat="42.21465750607185" lon="14.21852348076927"><ele>352.0</ele><time>2026-05-01T12:39:33.001Z</time></trkpt><trkpt lat="42.214704464991755" lon="14.218465754483924"><ele>352.0</ele><time>2026-05-01T12:39:34.001Z</time></trkpt><trkpt lat="42.21478845339611" lon="14.218361338734152"><ele>352.0</ele><time>2026-05-01T12:39:36.001Z</time></trkpt><trkpt lat="42.21485991643438" lon="14.218272956160163"><ele>352.0</ele><time>2026-05-01T12:39:38.001Z</time></trkpt><trkpt lat="42.21493222329282" lon="14.218181213508117"><ele>352.0</ele><time>2026-05-01T12:39:40.001Z</time></trkpt><trkpt lat="42.215025519748885" lon="14.218082940184463"><ele>352.0</ele><time>2026-05-01T12:39:42.001Z</time></trkpt><trkpt lat="42.21507726483559" lon="14.218033194912838"><ele>351.20000000000005</ele><time>2026-05-01T12:39:43.001Z</time></trkpt><trkpt lat="42.21518130454224" lon="14.217942360172641"><ele>350.4</ele><time>2026-05-01T12:39:45.001Z</time></trkpt><trkpt lat="42.21530292618138" lon="14.217877293902506"><ele>349.6</ele><time>2026-05-01T12:39:47.001Z</time></trkpt><trkpt lat="42.215370747265474" lon="14.217841676993933"><ele>348.79999999999995</ele><time>2026-05-01T12:39:48.001Z</time></trkpt><trkpt lat="42.215438888427336" lon="14.217793767424409"><ele>348.0</ele><time>2026-05-01T12:39:49.001Z</time></trkpt><trkpt lat="42.21549496520466" lon="14.217748487740927"><ele>348.0</ele><time>2026-05-01T12:39:50.001Z</time></trkpt><trkpt lat="42.215586574267334" lon="14.217659837410714"><ele>348.0</ele><time>2026-05-01T12:39:52Z</time></trkpt><trkpt lat="42.215692894055934" lon="14.217561364274502"><ele>348.0</ele><time>2026-05-01T12:39:54Z</time></trkpt><trkpt lat="42.21574948571423" lon="14.217511417979287"><ele>348.0</ele><time>2026-05-01T12:39:55Z</time></trkpt><trkpt lat="42.21580225666692" lon="14.217461077586753"><ele>348.0</ele><time>2026-05-01T12:39:56Z</time></trkpt><trkpt lat="42.21585324786884" lon="14.217409559972248"><ele>348.0</ele><time>2026-05-01T12:39:57Z</time></trkpt><trkpt lat="42.21590544387357" lon="14.21735491125808"><ele>346.59999999999997</ele><time>2026-05-01T12:39:58Z</time></trkpt><trkpt lat="42.21596389984655" lon="14.21729650190712"><ele>345.2</ele><time>2026-05-01T12:39:59Z</time></trkpt><trkpt lat="42.216057259449634" lon="14.217202934755212"><ele>343.8</ele><time>2026-05-01T12:40:01Z</time></trkpt><trkpt lat="42.216156449793935" lon="14.21712028929267"><ele>342.4</ele><time>2026-05-01T12:40:03Z</time></trkpt><trkpt lat="42.21625162434538" lon="14.217022441337482"><ele>341.0</ele><time>2026-05-01T12:40:05Z</time></trkpt><trkpt lat="42.21635455053509" lon="14.216934576835117"><ele>341.0</ele><time>2026-05-01T12:40:07Z</time></trkpt><trkpt lat="42.21646549736073" lon="14.216863125043966"><ele>341.0</ele><time>2026-05-01T12:40:09Z</time></trkpt><trkpt lat="42.21655512464987" lon="14.21680661144996"><ele>341.0</ele><time>2026-05-01T12:40:11Z</time></trkpt><trkpt lat="42.216640487919584" lon="14.216783240795554"><ele>341.0</ele><time>2026-05-01T12:40:13Z</time></trkpt><trkpt lat="42.216719754601975" lon="14.216728566304598"><ele>341.0</ele><time>2026-05-01T12:40:15Z</time></trkpt><trkpt lat="42.21680696198342" lon="14.216675643952138"><ele>341.1666666666667</ele><time>2026-05-01T12:40:17Z</time></trkpt><trkpt lat="42.216890616876356" lon="14.216605783974636"><ele>341.33333333333337</ele><time>2026-05-01T12:40:19Z</time></trkpt><trkpt lat="42.216977110166894" lon="14.216525091842742"><ele>341.5</ele><time>2026-05-01T12:40:21Z</time></trkpt><trkpt lat="42.21703600724971" lon="14.21648899809753"><ele>341.6666666666667</ele><time>2026-05-01T12:40:22Z</time></trkpt><trkpt lat="42.21710285656607" lon="14.216447504145577"><ele>341.8333333333333</ele><time>2026-05-01T12:40:23Z</time></trkpt><trkpt lat="42.217165517586594" lon="14.216416488958767"><ele>342.0</ele><time>2026-05-01T12:40:24Z</time></trkpt><trkpt lat="42.21722607438041" lon="14.216381754945841"><ele>341.3333333333333</ele><time>2026-05-01T12:40:25Z</time></trkpt><trkpt lat="42.217287538246936" lon="14.21634118016096"><ele>340.6666666666667</ele><time>2026-05-01T12:40:26Z</time></trkpt><trkpt lat="42.21734753082868" lon="14.216295346136489"><ele>340.0</ele><time>2026-05-01T12:40:27Z</time></trkpt><trkpt lat="42.21740790532877" lon="14.216259629892447"><ele>339.33333333333337</ele><time>2026-05-01T12:40:28Z</time></trkpt><trkpt lat="42.217515516685154" lon="14.216237891260063"><ele>338.6666666666667</ele><time>2026-05-01T12:40:30Z</time></trkpt><trkpt lat="42.217583774878634" lon="14.216321055932491"><ele>338.0</ele><time>2026-05-01T12:40:32Z</time></trkpt><trkpt lat="42.217640357145356" lon="14.216441879722806"><ele>339.0</ele><time>2026-05-01T12:40:34Z</time></trkpt><trkpt lat="42.21767422226523" lon="14.216527384000965"><ele>340.0</ele><time>2026-05-01T12:40:37Z</time></trkpt><trkpt lat="42.21770301908989" lon="14.216620247813312"><ele>341.0</ele><time>2026-05-01T12:40:39Z</time></trkpt><trkpt lat="42.21769707635398" lon="14.216706293068839"><ele>342.0</ele><time>2026-05-01T12:40:41Z</time></trkpt><trkpt lat="42.21759877953725" lon="14.216767270847143"><ele>343.0</ele><time>2026-05-01T12:40:43Z</time></trkpt><trkpt lat="42.217494073301594" lon="14.216805490735503"><ele>344.0</ele><time>2026-05-01T12:40:45Z</time></trkpt><trkpt lat="42.217449661899394" lon="14.216896493437531"><ele>344.00000000000006</ele><time>2026-05-01T12:40:47Z</time></trkpt><trkpt lat="42.21752600221555" lon="14.216957388066708"><ele>344.0</ele><time>2026-05-01T12:40:49Z</time></trkpt><trkpt lat="42.217601548253555" lon="14.216952376456149"><ele>344.0</ele><time>2026-05-01T12:40:50Z</time></trkpt><trkpt lat="42.21767407087734" lon="14.216932890715517"><ele>344.0</ele><time>2026-05-01T12:40:51Z</time></trkpt><trkpt lat="42.217740225654175" lon="14.216922886893855"><ele>344.0</ele><time>2026-05-01T12:40:52Z</time></trkpt><trkpt lat="42.2178069163837" lon="14.2169105989005"><ele>344.00000000000006</ele><time>2026-05-01T12:40:53Z</time></trkpt><trkpt lat="42.21787508807758" lon="14.216889645598965"><ele>344.0</ele><time>2026-05-01T12:40:54Z</time></trkpt><trkpt lat="42.21798643173474" lon="14.216877871240541"><ele>344.0</ele><time>2026-05-01T12:40:56Z</time></trkpt><trkpt lat="42.218090735563905" lon="14.216989986477197"><ele>344.0</ele><time>2026-05-01T12:40:58Z</time></trkpt><trkpt lat="42.21815784137054" lon="14.217066573389559"><ele>344.0</ele><time>2026-05-01T12:40:59Z</time></trkpt><trkpt lat="42.21823010146706" lon="14.217143211304347"><ele>344.0</ele><time>2026-05-01T12:41:00Z</time></trkpt><trkpt lat="42.21830436333832" lon="14.217215881733097"><ele>344.0</ele><time>2026-05-01T12:41:02Z</time></trkpt><trkpt lat="42.21836961138947" lon="14.217147717137431"><ele>344.6</ele><time>2026-05-01T12:41:05Z</time></trkpt><trkpt lat="42.218401571582916" lon="14.217007241838242"><ele>345.2</ele><time>2026-05-01T12:41:07Z</time></trkpt><trkpt lat="42.21844999999771" lon="14.216918319381351"><ele>345.8</ele><time>2026-05-01T12:41:08Z</time></trkpt><trkpt lat="42.21851625651624" lon="14.21683885465436"><ele>346.40000000000003</ele><time>2026-05-01T12:41:09.001Z</time></trkpt><trkpt lat="42.21859975713769" lon="14.216750450728952"><ele>347.0</ele><time>2026-05-01T12:41:10.001Z</time></trkpt><trkpt lat="42.218687479745626" lon="14.216673620555953"><ele>347.0</ele><time>2026-05-01T12:41:11.001Z</time></trkpt><trkpt lat="42.21877982765638" lon="14.216595895372626"><ele>347.0</ele><time>2026-05-01T12:41:12.001Z</time></trkpt><trkpt lat="42.21886511199067" lon="14.216516370550133"><ele>347.0</ele><time>2026-05-01T12:41:13.001Z</time></trkpt><trkpt lat="42.218946256464584" lon="14.216425021994027"><ele>347.0</ele><time>2026-05-01T12:41:14.001Z</time></trkpt><trkpt lat="42.21902534874079" lon="14.21632338043436"><ele>347.0</ele><time>2026-05-01T12:41:15.001Z</time></trkpt><trkpt lat="42.21910202070844" lon="14.216218059326762"><ele>345.8</ele><time>2026-05-01T12:41:16.001Z</time></trkpt><trkpt lat="42.219177918079794" lon="14.216113472960282"><ele>344.6</ele><time>2026-05-01T12:41:17.001Z</time></trkpt><trkpt lat="42.2192463324729" lon="14.21601512134204"><ele>343.40000000000003</ele><time>2026-05-01T12:41:18.001Z</time></trkpt><trkpt lat="42.21930574136706" lon="14.215900540179643"><ele>342.20000000000005</ele><time>2026-05-01T12:41:19.001Z</time></trkpt><trkpt lat="42.219358159299546" lon="14.215765195221714"><ele>341.0</ele><time>2026-05-01T12:41:20.001Z</time></trkpt><trkpt lat="42.21942612497364" lon="14.215622268401543"><ele>338.5</ele><time>2026-05-01T12:41:21.001Z</time></trkpt><trkpt lat="42.21947731406203" lon="14.215475104786409"><ele>336.0</ele><time>2026-05-01T12:41:22.001Z</time></trkpt><trkpt lat="42.219516637985215" lon="14.215320552132592"><ele>333.5</ele><time>2026-05-01T12:41:23.001Z</time></trkpt><trkpt lat="42.21957605132707" lon="14.215171815235975"><ele>331.0</ele><time>2026-05-01T12:41:24.001Z</time></trkpt><trkpt lat="42.21964492596205" lon="14.215021646915355"><ele>331.0</ele><time>2026-05-01T12:41:25.001Z</time></trkpt><trkpt lat="42.2197332689421" lon="14.21488465409826"><ele>331.0</ele><time>2026-05-01T12:41:26.001Z</time></trkpt><trkpt lat="42.21979394143627" lon="14.214722552241007"><ele>331.0</ele><time>2026-05-01T12:41:27.001Z</time></trkpt><trkpt lat="42.21986582243791" lon="14.214575690868479"><ele>331.0</ele><time>2026-05-01T12:41:28.001Z</time></trkpt><trkpt lat="42.21992845278667" lon="14.214428019829365"><ele>330.20000000000005</ele><time>2026-05-01T12:41:29.001Z</time></trkpt><trkpt lat="42.219974326874954" lon="14.214302026838146"><ele>329.40000000000003</ele><time>2026-05-01T12:41:30.001Z</time></trkpt><trkpt lat="42.220007155992825" lon="14.214204432725994"><ele>328.6</ele><time>2026-05-01T12:41:31.001Z</time></trkpt><trkpt lat="42.22004878082143" lon="14.214061870991724"><ele>327.8</ele><time>2026-05-01T12:41:33.001Z</time></trkpt><trkpt lat="42.22009956969999" lon="14.213921420544676"><ele>327.0</ele><time>2026-05-01T12:41:35.001Z</time></trkpt><trkpt lat="42.22014071645086" lon="14.21378249018551"><ele>326.0</ele><time>2026-05-01T12:41:37.001Z</time></trkpt><trkpt lat="42.220069164386004" lon="14.213677440875832"><ele>325.0</ele><time>2026-05-01T12:41:39.001Z</time></trkpt><trkpt lat="42.22000970885018" lon="14.213618006697411"><ele>324.0</ele><time>2026-05-01T12:41:40.001Z</time></trkpt><trkpt lat="42.219918581779496" lon="14.213557042457564"><ele>323.0</ele><time>2026-05-01T12:41:42.001Z</time></trkpt><trkpt lat="42.219868154553566" lon="14.213459102789985"><ele>322.0</ele><time>2026-05-01T12:41:44Z</time></trkpt><trkpt lat="42.21989489129963" lon="14.213374603748182"><ele>321.0</ele><time>2026-05-01T12:41:45Z</time></trkpt><trkpt lat="42.219950609891924" lon="14.213294052319261"><ele>321.0</ele><time>2026-05-01T12:41:46Z</time></trkpt><trkpt lat="42.220004931351866" lon="14.213207822347346"><ele>321.0</ele><time>2026-05-01T12:41:47Z</time></trkpt><trkpt lat="42.220051780687676" lon="14.213120683738188"><ele>321.0</ele><time>2026-05-01T12:41:48Z</time></trkpt><trkpt lat="42.22010182488229" lon="14.213039409143935"><ele>321.0</ele><time>2026-05-01T12:41:49Z</time></trkpt><trkpt lat="42.22016247095473" lon="14.212952855813503"><ele>321.0</ele><time>2026-05-01T12:41:50Z</time></trkpt><trkpt lat="42.22023358182938" lon="14.212855735074283"><ele>321.0</ele><time>2026-05-01T12:41:51Z</time></trkpt><trkpt lat="42.22032863247049" lon="14.21277214359436"><ele>321.25</ele><time>2026-05-01T12:41:52Z</time></trkpt><trkpt lat="42.220411635553" lon="14.212667166071991"><ele>321.5</ele><time>2026-05-01T12:41:53Z</time></trkpt><trkpt lat="42.22048248040586" lon="14.21255446135032"><ele>321.75</ele><time>2026-05-01T12:41:54Z</time></trkpt><trkpt lat="42.22056949792281" lon="14.21245327737332"><ele>322.0</ele><time>2026-05-01T12:41:54.999Z</time></trkpt><trkpt lat="42.2206523139018" lon="14.21235003982972"><ele>321.6</ele><time>2026-05-01T12:41:55.999Z</time></trkpt><trkpt lat="42.22072531942137" lon="14.212253752037505"><ele>321.20000000000005</ele><time>2026-05-01T12:41:56.999Z</time></trkpt><trkpt lat="42.22079279559126" lon="14.212162902423804"><ele>320.8</ele><time>2026-05-01T12:41:57.999Z</time></trkpt><trkpt lat="42.2208576767083" lon="14.212076022149088"><ele>320.4</ele><time>2026-05-01T12:41:58.999Z</time></trkpt><trkpt lat="42.22092481190706" lon="14.2119923609455"><ele>320.0</ele><time>2026-05-01T12:41:59.999Z</time></trkpt><trkpt lat="42.220996687582286" lon="14.211907246713196"><ele>320.0</ele><time>2026-05-01T12:42:00.999Z</time></trkpt><trkpt lat="42.221079093889294" lon="14.21183056982034"><ele>320.0</ele><time>2026-05-01T12:42:01.999Z</time></trkpt><trkpt lat="42.22116762369409" lon="14.211760401154779"><ele>320.0</ele><time>2026-05-01T12:42:02.999Z</time></trkpt><trkpt lat="42.221262342720486" lon="14.211692847996886"><ele>320.0</ele><time>2026-05-01T12:42:03.999Z</time></trkpt><trkpt lat="42.22136264405288" lon="14.211629553739735"><ele>320.0</ele><time>2026-05-01T12:42:04.999Z</time></trkpt><trkpt lat="42.22146674520812" lon="14.211564216668092"><ele>319.0</ele><time>2026-05-01T12:42:05.999Z</time></trkpt><trkpt lat="42.2215774709904" lon="14.21150291636702"><ele>318.0</ele><time>2026-05-01T12:42:06.999Z</time></trkpt><trkpt lat="42.22169614901557" lon="14.211465516948522"><ele>317.0</ele><time>2026-05-01T12:42:07.999Z</time></trkpt><trkpt lat="42.221787054472806" lon="14.211382443553893"><ele>316.0</ele><time>2026-05-01T12:42:08.999Z</time></trkpt><trkpt lat="42.221879755874454" lon="14.211332365184466"><ele>315.6</ele><time>2026-05-01T12:42:09.999Z</time></trkpt><trkpt lat="42.22196625191633" lon="14.211272081892242"><ele>315.20000000000005</ele><time>2026-05-01T12:42:10.999Z</time></trkpt><trkpt lat="42.22205647329184" lon="14.211235756043862"><ele>314.79999999999995</ele><time>2026-05-01T12:42:11.999Z</time></trkpt><trkpt lat="42.22215653154019" lon="14.211211822925213"><ele>314.4</ele><time>2026-05-01T12:42:12.999Z</time></trkpt><trkpt lat="42.22226347195522" lon="14.21117936296909"><ele>314.0</ele><time>2026-05-01T12:42:13.999Z</time></trkpt><trkpt lat="42.22236644424055" lon="14.211140809479557"><ele>313.2</ele><time>2026-05-01T12:42:14.999Z</time></trkpt><trkpt lat="42.22246320127932" lon="14.211093592107602"><ele>312.4</ele><time>2026-05-01T12:42:15.999Z</time></trkpt><trkpt lat="42.222557776211474" lon="14.21104005961001"><ele>311.6</ele><time>2026-05-01T12:42:16.999Z</time></trkpt><trkpt lat="42.22265476018763" lon="14.21097660284205"><ele>310.8</ele><time>2026-05-01T12:42:17.999Z</time></trkpt><trkpt lat="42.22274432221169" lon="14.21090745794223"><ele>310.0</ele><time>2026-05-01T12:42:18.999Z</time></trkpt><trkpt lat="42.22283227472029" lon="14.210835967541504"><ele>310.0</ele><time>2026-05-01T12:42:19.999Z</time></trkpt><trkpt lat="42.22291125175575" lon="14.210764505840714"><ele>310.0</ele><time>2026-05-01T12:42:20.999Z</time></trkpt><trkpt lat="42.22298464757174" lon="14.210692237568043"><ele>310.0</ele><time>2026-05-01T12:42:21.999Z</time></trkpt><trkpt lat="42.223046288383095" lon="14.210637771450616"><ele>310.0</ele><time>2026-05-01T12:42:22.999Z</time></trkpt><trkpt lat="42.22310573953128" lon="14.210573851540007"><ele>310.0</ele><time>2026-05-01T12:42:23.999Z</time></trkpt><trkpt lat="42.22317510969747" lon="14.210505242215902"><ele>310.0</ele><time>2026-05-01T12:42:24.999Z</time></trkpt><trkpt lat="42.22324277320133" lon="14.210433290874953"><ele>309.8</ele><time>2026-05-01T12:42:25.999Z</time></trkpt><trkpt lat="42.223312356792725" lon="14.210346152611232"><ele>309.6</ele><time>2026-05-01T12:42:26.999Z</time></trkpt><trkpt lat="42.223376490909985" lon="14.21025591240107"><ele>309.4</ele><time>2026-05-01T12:42:27.999Z</time></trkpt><trkpt lat="42.223440430378204" lon="14.210171220639674"><ele>309.2</ele><time>2026-05-01T12:42:28.999Z</time></trkpt><trkpt lat="42.22350951167143" lon="14.210088601747056"><ele>309.0</ele><time>2026-05-01T12:42:29.999Z</time></trkpt><trkpt lat="42.223575037908404" lon="14.210014038793547"><ele>309.0</ele><time>2026-05-01T12:42:30.999Z</time></trkpt><trkpt lat="42.22363838433937" lon="14.209956241639745"><ele>309.0</ele><time>2026-05-01T12:42:31.999Z</time></trkpt><trkpt lat="42.22370997832623" lon="14.209895226033334"><ele>309.0</ele><time>2026-05-01T12:42:32.999Z</time></trkpt><trkpt lat="42.223784806476786" lon="14.20984857414861"><ele>309.0</ele><time>2026-05-01T12:42:33.998Z</time></trkpt><trkpt lat="42.22386329631205" lon="14.209861217690879"><ele>309.0</ele><time>2026-05-01T12:42:34.999Z</time></trkpt><trkpt lat="42.223936382567594" lon="14.209850001748368"><ele>309.0</ele><time>2026-05-01T12:42:35.998Z</time></trkpt><trkpt lat="42.22400770138274" lon="14.20986180608397"><ele>309.0</ele><time>2026-05-01T12:42:36.998Z</time></trkpt><trkpt lat="42.22409199094322" lon="14.209894170001599"><ele>309.0</ele><time>2026-05-01T12:42:37.998Z</time></trkpt><trkpt lat="42.224176368114406" lon="14.209911639190109"><ele>309.0</ele><time>2026-05-01T12:42:38.998Z</time></trkpt><trkpt lat="42.22425856159612" lon="14.209897348482446"><ele>309.0</ele><time>2026-05-01T12:42:39.998Z</time></trkpt><trkpt lat="42.22433331645836" lon="14.209877667482216"><ele>309.0</ele><time>2026-05-01T12:42:40.998Z</time></trkpt><trkpt lat="42.22440919814451" lon="14.209818906506822"><ele>309.0</ele><time>2026-05-01T12:42:41.998Z</time></trkpt><trkpt lat="42.22444829005117" lon="14.209695551058141"><ele>309.4</ele><time>2026-05-01T12:42:42.998Z</time></trkpt><trkpt lat="42.22451181263576" lon="14.20962724780124"><ele>309.79999999999995</ele><time>2026-05-01T12:42:43.998Z</time></trkpt><trkpt lat="42.22455957520678" lon="14.209524963359033"><ele>310.20000000000005</ele><time>2026-05-01T12:42:44.998Z</time></trkpt><trkpt lat="42.22463307898243" lon="14.209443349542171"><ele>310.6</ele><time>2026-05-01T12:42:45.998Z</time></trkpt><trkpt lat="42.22471672660228" lon="14.209365550872421"><ele>311.0</ele><time>2026-05-01T12:42:46.998Z</time></trkpt><trkpt lat="42.224782874467614" lon="14.209284559494556"><ele>310.33333333333337</ele><time>2026-05-01T12:42:47.998Z</time></trkpt><trkpt lat="42.22484231418854" lon="14.209226343800232"><ele>309.6666666666667</ele><time>2026-05-01T12:42:48.998Z</time></trkpt><trkpt lat="42.22491849612625" lon="14.209186218714287"><ele>309.0</ele><time>2026-05-01T12:42:49.998Z</time></trkpt><trkpt lat="42.22500695054932" lon="14.209165254394074"><ele>308.3333333333333</ele><time>2026-05-01T12:42:50.998Z</time></trkpt><trkpt lat="42.22510264685487" lon="14.209155168956888"><ele>307.66666666666663</ele><time>2026-05-01T12:42:51.998Z</time></trkpt><trkpt lat="42.22519862184277" lon="14.209142355530332"><ele>307.0</ele><time>2026-05-01T12:42:52.998Z</time></trkpt><trkpt lat="42.22528974771361" lon="14.209095003397376"><ele>307.0</ele><time>2026-05-01T12:42:53.998Z</time></trkpt><trkpt lat="42.22537891821092" lon="14.209035526410526"><ele>307.0</ele><time>2026-05-01T12:42:54.998Z</time></trkpt><trkpt lat="42.22546866357799" lon="14.208964374501011"><ele>307.0</ele><time>2026-05-01T12:42:55.998Z</time></trkpt><trkpt lat="42.225557190557055" lon="14.208901768484164"><ele>307.0</ele><time>2026-05-01T12:42:56.998Z</time></trkpt><trkpt lat="42.22565939656903" lon="14.208851287365395"><ele>307.0</ele><time>2026-05-01T12:42:57.998Z</time></trkpt><trkpt lat="42.22576031307493" lon="14.208834791714638"><ele>306.3333333333333</ele><time>2026-05-01T12:42:58.998Z</time></trkpt><trkpt lat="42.225855728368735" lon="14.208810258588231"><ele>305.66666666666663</ele><time>2026-05-01T12:42:59.998Z</time></trkpt><trkpt lat="42.22595435604669" lon="14.208784167394038"><ele>305.0</ele><time>2026-05-01T12:43:00.998Z</time></trkpt><trkpt lat="42.22603591943509" lon="14.208742425739512"><ele>304.3333333333333</ele><time>2026-05-01T12:43:01.998Z</time></trkpt><trkpt lat="42.226111756915834" lon="14.208715177357853"><ele>303.6666666666667</ele><time>2026-05-01T12:43:02.998Z</time></trkpt><trkpt lat="42.22617413246587" lon="14.208696687467151"><ele>303.0</ele><time>2026-05-01T12:43:03.998Z</time></trkpt><trkpt lat="42.226226974200145" lon="14.20862755163938"><ele>303.0</ele><time>2026-05-01T12:43:04.998Z</time></trkpt><trkpt lat="42.22627389483064" lon="14.208522673643566"><ele>303.0</ele><time>2026-05-01T12:43:05.998Z</time></trkpt><trkpt lat="42.22631661549032" lon="14.208407511698173"><ele>303.0</ele><time>2026-05-01T12:43:06.998Z</time></trkpt><trkpt lat="42.22636108035928" lon="14.208297681090356"><ele>303.0</ele><time>2026-05-01T12:43:07.998Z</time></trkpt><trkpt lat="42.22640151126057" lon="14.208183769863567"><ele>303.0</ele><time>2026-05-01T12:43:08.998Z</time></trkpt><trkpt lat="42.22642318576414" lon="14.208070852803786"><ele>302.6666666666667</ele><time>2026-05-01T12:43:09.998Z</time></trkpt><trkpt lat="42.22647717328689" lon="14.207974210899406"><ele>302.3333333333333</ele><time>2026-05-01T12:43:10.998Z</time></trkpt><trkpt lat="42.226519416211495" lon="14.2078765220739"><ele>302.0</ele><time>2026-05-01T12:43:11.998Z</time></trkpt><trkpt lat="42.226557233653615" lon="14.207795178629738"><ele>301.66666666666663</ele><time>2026-05-01T12:43:12.998Z</time></trkpt><trkpt lat="42.22662740446453" lon="14.207682379871589"><ele>301.3333333333333</ele><time>2026-05-01T12:43:14.998Z</time></trkpt><trkpt lat="42.22666948278748" lon="14.207613618014795"><ele>301.0</ele><time>2026-05-01T12:43:16.998Z</time></trkpt><trkpt lat="42.226717350750505" lon="14.207552267692202"><ele>300.6</ele><time>2026-05-01T12:43:42Z</time></trkpt><trkpt lat="42.226820082089944" lon="14.207438011060976"><ele>300.20000000000005</ele><time>2026-05-01T12:43:44Z</time></trkpt><trkpt lat="42.2268897698471" lon="14.207362489096154"><ele>299.79999999999995</ele><time>2026-05-01T12:43:45Z</time></trkpt><trkpt lat="42.22697976566776" lon="14.207305333798699"><ele>299.4</ele><time>2026-05-01T12:43:46Z</time></trkpt><trkpt lat="42.22706465095717" lon="14.207252829016975"><ele>299.0</ele><time>2026-05-01T12:43:47Z</time></trkpt><trkpt lat="42.227154357478895" lon="14.207203918363826"><ele>298.83333333333337</ele><time>2026-05-01T12:43:48Z</time></trkpt><trkpt lat="42.22724746459379" lon="14.207165869658473"><ele>298.6666666666667</ele><time>2026-05-01T12:43:49Z</time></trkpt><trkpt lat="42.22732539715873" lon="14.20708931162052"><ele>298.5</ele><time>2026-05-01T12:43:50Z</time></trkpt><trkpt lat="42.22740338946043" lon="14.207026336270767"><ele>298.3333333333333</ele><time>2026-05-01T12:43:51Z</time></trkpt><trkpt lat="42.227471334076654" lon="14.206980061091526"><ele>298.16666666666663</ele><time>2026-05-01T12:43:52Z</time></trkpt><trkpt lat="42.22753119488928" lon="14.206924864305599"><ele>298.0</ele><time>2026-05-01T12:43:53Z</time></trkpt><trkpt lat="42.227581419695916" lon="14.206839657895362"><ele>297.2</ele><time>2026-05-01T12:43:54Z</time></trkpt><trkpt lat="42.227638184342936" lon="14.206741765731774"><ele>296.4</ele><time>2026-05-01T12:43:55Z</time></trkpt><trkpt lat="42.22763955671575" lon="14.20660957104706"><ele>295.59999999999997</ele><time>2026-05-01T12:43:56Z</time></trkpt><trkpt lat="42.2276859648015" lon="14.206497251480622"><ele>294.8</ele><time>2026-05-01T12:43:57Z</time></trkpt><trkpt lat="42.22772496329976" lon="14.206372314758184"><ele>294.0</ele><time>2026-05-01T12:43:58Z</time></trkpt><trkpt lat="42.22776053437419" lon="14.206244178938144"><ele>293.4</ele><time>2026-05-01T12:43:59Z</time></trkpt><trkpt lat="42.22779307045634" lon="14.206130502380926"><ele>292.79999999999995</ele><time>2026-05-01T12:44:00Z</time></trkpt><trkpt lat="42.22781003598177" lon="14.20603369408285"><ele>292.20000000000005</ele><time>2026-05-01T12:44:01Z</time></trkpt><trkpt lat="42.22784163404401" lon="14.205870409451249"><ele>291.6</ele><time>2026-05-01T12:44:03Z</time></trkpt><trkpt lat="42.227828391977354" lon="14.205758098668626"><ele>291.0</ele><time>2026-05-01T12:44:04Z</time></trkpt><trkpt lat="42.22777775832436" lon="14.20564331243057"><ele>290.8</ele><time>2026-05-01T12:44:05Z</time></trkpt><trkpt lat="42.22773710847907" lon="14.205536047268417"><ele>290.6</ele><time>2026-05-01T12:44:06Z</time></trkpt><trkpt lat="42.22771864280945" lon="14.205446898701018"><ele>290.4</ele><time>2026-05-01T12:44:07Z</time></trkpt><trkpt lat="42.22771408397055" lon="14.205291384570716"><ele>290.2</ele><time>2026-05-01T12:44:09Z</time></trkpt><trkpt lat="42.22776594259587" lon="14.205144978446318"><ele>290.0</ele><time>2026-05-01T12:44:11Z</time></trkpt><trkpt lat="42.227804771302786" lon="14.205070451253713"><ele>290.0</ele><time>2026-05-01T12:44:12Z</time></trkpt><trkpt lat="42.22786540881131" lon="14.205000540426175"><ele>290.0</ele><time>2026-05-01T12:44:13Z</time></trkpt><trkpt lat="42.227941269190836" lon="14.204979842845288"><ele>290.0</ele><time>2026-05-01T12:44:14Z</time></trkpt><trkpt lat="42.22803847753376" lon="14.204939281783538"><ele>290.0</ele><time>2026-05-01T12:44:15Z</time></trkpt><trkpt lat="42.22812316928546" lon="14.20486709427153"><ele>290.0</ele><time>2026-05-01T12:44:16Z</time></trkpt><trkpt lat="42.22820559655377" lon="14.204803038597625"><ele>290.0</ele><time>2026-05-01T12:44:17Z</time></trkpt><trkpt lat="42.228265599824084" lon="14.204733011129846"><ele>290.0</ele><time>2026-05-01T12:44:18Z</time></trkpt><trkpt lat="42.22832832406086" lon="14.204670442439554"><ele>290.0</ele><time>2026-05-01T12:44:19Z</time></trkpt><trkpt lat="42.228387582942545" lon="14.204564131929375"><ele>290.0</ele><time>2026-05-01T12:44:20Z</time></trkpt><trkpt lat="42.22843312094859" lon="14.204425782316749"><ele>290.0</ele><time>2026-05-01T12:44:21Z</time></trkpt><trkpt lat="42.228476075611056" lon="14.204308324002083"><ele>290.0</ele><time>2026-05-01T12:44:22Z</time></trkpt><trkpt lat="42.2285157150122" lon="14.204233170252627"><ele>290.0</ele><time>2026-05-01T12:44:23Z</time></trkpt><trkpt lat="42.228562084009226" lon="14.204156240949837"><ele>290.0</ele><time>2026-05-01T12:44:24Z</time></trkpt><trkpt lat="42.22862053294509" lon="14.20407515736868"><ele>290.0</ele><time>2026-05-01T12:44:25Z</time></trkpt><trkpt lat="42.22869651515337" lon="14.204009261484444"><ele>290.0</ele><time>2026-05-01T12:44:26Z</time></trkpt><trkpt lat="42.22878907257549" lon="14.203954567599007"><ele>290.0</ele><time>2026-05-01T12:44:27Z</time></trkpt><trkpt lat="42.22888467686049" lon="14.203907643584342"><ele>289.6</ele><time>2026-05-01T12:44:28Z</time></trkpt><trkpt lat="42.228960030709985" lon="14.20384508922697"><ele>289.2</ele><time>2026-05-01T12:44:29Z</time></trkpt><trkpt lat="42.229046168330626" lon="14.203798297086145"><ele>288.8</ele><time>2026-05-01T12:44:30Z</time></trkpt><trkpt lat="42.22913493748525" lon="14.203744870947158"><ele>288.4</ele><time>2026-05-01T12:44:31Z</time></trkpt><trkpt lat="42.229230015809584" lon="14.203702569058176"><ele>288.0</ele><time>2026-05-01T12:44:32Z</time></trkpt><trkpt lat="42.22931025582787" lon="14.203644912084446"><ele>288.00000000000006</ele><time>2026-05-01T12:44:33Z</time></trkpt><trkpt lat="42.22937571423588" lon="14.20359162728776"><ele>288.0</ele><time>2026-05-01T12:44:34Z</time></trkpt><trkpt lat="42.229433075116404" lon="14.203532258628089"><ele>288.0</ele><time>2026-05-01T12:44:35Z</time></trkpt><trkpt lat="42.2294989720908" lon="14.203446941023829"><ele>288.0</ele><time>2026-05-01T12:44:37Z</time></trkpt><trkpt lat="42.22953974512599" lon="14.203372453831214"><ele>288.0</ele><time>2026-05-01T12:44:43Z</time></trkpt><trkpt lat="42.22957272407177" lon="14.203294632841066"><ele>288.00000000000006</ele><time>2026-05-01T12:44:45Z</time></trkpt><trkpt lat="42.22959778897504" lon="14.20320100579541"><ele>288.0</ele><time>2026-05-01T12:44:48Z</time></trkpt><trkpt lat="42.229585486201564" lon="14.203077201521142"><ele>287.2</ele><time>2026-05-01T12:52:31Z</time></trkpt><trkpt lat="42.229603413503135" lon="14.202906333139142"><ele>286.4</ele><time>2026-05-01T12:52:33Z</time></trkpt><trkpt lat="42.229613359511156" lon="14.202821383229116"><ele>285.59999999999997</ele><time>2026-05-01T12:52:34Z</time></trkpt><trkpt lat="42.229623424859284" lon="14.202731182310474"><ele>284.8</ele><time>2026-05-01T12:52:35Z</time></trkpt><trkpt lat="42.22963488697985" lon="14.202642393351196"><ele>284.0</ele><time>2026-05-01T12:52:36Z</time></trkpt><trkpt lat="42.229667228759624" lon="14.202474160836259"><ele>284.0</ele><time>2026-05-01T12:52:38Z</time></trkpt><trkpt lat="42.22968501695493" lon="14.202369861400852"><ele>284.0</ele><time>2026-05-01T12:52:39Z</time></trkpt><trkpt lat="42.22973410180702" lon="14.202272160601783"><ele>284.0</ele><time>2026-05-01T12:52:40Z</time></trkpt><trkpt lat="42.22978837858033" lon="14.202182315069436"><ele>284.0</ele><time>2026-05-01T12:52:41Z</time></trkpt><trkpt lat="42.229838658662246" lon="14.202100386345197"><ele>284.0</ele><time>2026-05-01T12:52:42Z</time></trkpt><trkpt lat="42.22989495156196" lon="14.202018014848118"><ele>284.0</ele><time>2026-05-01T12:52:43Z</time></trkpt><trkpt lat="42.229960907336114" lon="14.20193812203503"><ele>283.8</ele><time>2026-05-01T12:52:44Z</time></trkpt><trkpt lat="42.230038392348604" lon="14.201856229136348"><ele>283.59999999999997</ele><time>2026-05-01T12:52:45Z</time></trkpt><trkpt lat="42.230125793524785" lon="14.201779805951523"><ele>283.4</ele><time>2026-05-01T12:52:46Z</time></trkpt><trkpt lat="42.23021859979435" lon="14.201714061854371"><ele>283.2</ele><time>2026-05-01T12:52:47Z</time></trkpt><trkpt lat="42.23030778231388" lon="14.201659141291664"><ele>283.0</ele><time>2026-05-01T12:52:48Z</time></trkpt><trkpt lat="42.23040063020371" lon="14.201607059984749"><ele>283.0</ele><time>2026-05-01T12:52:49Z</time></trkpt><trkpt lat="42.23049271219253" lon="14.201545326704084"><ele>283.0</ele><time>2026-05-01T12:52:50Z</time></trkpt><trkpt lat="42.2305856635825" lon="14.20146781228163"><ele>283.0</ele><time>2026-05-01T12:52:51Z</time></trkpt><trkpt lat="42.23066843582383" lon="14.201360165660525"><ele>283.0</ele><time>2026-05-01T12:52:52Z</time></trkpt><trkpt lat="42.23074533834667" lon="14.201243602273907"><ele>283.0</ele><time>2026-05-01T12:52:53Z</time></trkpt><trkpt lat="42.23081451215542" lon="14.201128108602218"><ele>282.8</ele><time>2026-05-01T12:52:54Z</time></trkpt><trkpt lat="42.23086636045141" lon="14.201008418461596"><ele>282.6</ele><time>2026-05-01T12:52:55Z</time></trkpt><trkpt lat="42.23090664004163" lon="14.200904595947657"><ele>282.4</ele><time>2026-05-01T12:52:56Z</time></trkpt><trkpt lat="42.23094752653319" lon="14.200806346329694"><ele>282.2</ele><time>2026-05-01T12:52:57Z</time></trkpt><trkpt lat="42.23100465418707" lon="14.2007118648533"><ele>282.0</ele><time>2026-05-01T12:52:58Z</time></trkpt><trkpt lat="42.23108363805824" lon="14.200618943622901"><ele>280.75</ele><time>2026-05-01T12:52:59Z</time></trkpt><trkpt lat="42.23117782559176" lon="14.2005255252932"><ele>279.5</ele><time>2026-05-01T12:53:00Z</time></trkpt><trkpt lat="42.23127740432504" lon="14.200422271231748"><ele>278.25</ele><time>2026-05-01T12:53:01Z</time></trkpt><trkpt lat="42.23136958895379" lon="14.200298938977452"><ele>277.0</ele><time>2026-05-01T12:53:01.999Z</time></trkpt><trkpt lat="42.23146262088818" lon="14.200162456968688"><ele>276.75</ele><time>2026-05-01T12:53:02.999Z</time></trkpt><trkpt lat="42.23155803596591" lon="14.200024098854225"><ele>276.5</ele><time>2026-05-01T12:53:03.999Z</time></trkpt><trkpt lat="42.23165067019191" lon="14.199893972804952"><ele>276.25</ele><time>2026-05-01T12:53:04.999Z</time></trkpt><trkpt lat="42.231737639404976" lon="14.199778726657101"><ele>276.0</ele><time>2026-05-01T12:53:05.999Z</time></trkpt><trkpt lat="42.23181370656824" lon="14.19969520369227"><ele>276.0</ele><time>2026-05-01T12:53:06.999Z</time></trkpt><trkpt lat="42.2318788546169" lon="14.199622771436273"><ele>276.0</ele><time>2026-05-01T12:53:07.999Z</time></trkpt><trkpt lat="42.231942046674966" lon="14.19953037747941"><ele>276.0</ele><time>2026-05-01T12:53:08.999Z</time></trkpt><trkpt lat="42.23200216439644" lon="14.19942101496486"><ele>276.0</ele><time>2026-05-01T12:53:09.999Z</time></trkpt><trkpt lat="42.23206188885228" lon="14.19930191573342"><ele>276.0</ele><time>2026-05-01T12:53:10.999Z</time></trkpt><trkpt lat="42.2321253703756" lon="14.199184520863954"><ele>276.0</ele><time>2026-05-01T12:53:11.999Z</time></trkpt><trkpt lat="42.232196760455125" lon="14.199064145747457"><ele>276.0</ele><time>2026-05-01T12:53:12.999Z</time></trkpt><trkpt lat="42.232269289683515" lon="14.19894715023888"><ele>276.0</ele><time>2026-05-01T12:53:13.999Z</time></trkpt><trkpt lat="42.23234057228608" lon="14.198835349114475"><ele>276.0</ele><time>2026-05-01T12:53:14.999Z</time></trkpt><trkpt lat="42.232408972563505" lon="14.19873549308167"><ele>276.0</ele><time>2026-05-01T12:53:15.999Z</time></trkpt><trkpt lat="42.23247833250714" lon="14.198642419706914"><ele>275.2</ele><time>2026-05-01T12:53:16.999Z</time></trkpt><trkpt lat="42.23255039542716" lon="14.198546459455704"><ele>274.40000000000003</ele><time>2026-05-01T12:53:17.999Z</time></trkpt><trkpt lat="42.2326208575474" lon="14.198451987046687"><ele>273.6</ele><time>2026-05-01T12:53:18.999Z</time></trkpt><trkpt lat="42.23269099564024" lon="14.1983554183552"><ele>272.8</ele><time>2026-05-01T12:53:19.999Z</time></trkpt><trkpt lat="42.23276081765789" lon="14.198254005549517"><ele>272.0</ele><time>2026-05-01T12:53:20.999Z</time></trkpt><trkpt lat="42.23282541213747" lon="14.198143889243847"><ele>271.1666666666667</ele><time>2026-05-01T12:53:21.999Z</time></trkpt><trkpt lat="42.23286583650951" lon="14.198033952965647"><ele>270.33333333333337</ele><time>2026-05-01T12:53:22.999Z</time></trkpt><trkpt lat="42.232895476974484" lon="14.197943569564854"><ele>269.5</ele><time>2026-05-01T12:53:23.999Z</time></trkpt><trkpt lat="42.23291773590143" lon="14.197860791149091"><ele>268.6666666666667</ele><time>2026-05-01T12:53:24.999Z</time></trkpt><trkpt lat="42.232948643709086" lon="14.197706416996624"><ele>267.8333333333333</ele><time>2026-05-01T12:53:26.999Z</time></trkpt><trkpt lat="42.23296053965726" lon="14.197607376899898"><ele>267.0</ele><time>2026-05-01T12:53:27.999Z</time></trkpt><trkpt lat="42.23294663088804" lon="14.1977100214549"><ele>267.0</ele><time>2026-05-01T12:53:51.999Z</time></trkpt><trkpt lat="42.233142428745495" lon="14.197776248618048"><ele>267.0</ele><time>2026-05-01T12:54:07.999Z</time></trkpt><trkpt lat="42.233222942130965" lon="14.197717320138173"><ele>267.0</ele><time>2026-05-01T12:54:09.999Z</time></trkpt><trkpt lat="42.23332204224253" lon="14.197658402434916"><ele>267.0</ele><time>2026-05-01T12:54:11.999Z</time></trkpt><trkpt lat="42.23345163902936" lon="14.197570153486947"><ele>267.0</ele><time>2026-05-01T12:54:13.999Z</time></trkpt><trkpt lat="42.23352110571062" lon="14.197514096127891"><ele>267.0</ele><time>2026-05-01T12:54:14.999Z</time></trkpt><trkpt lat="42.233582474157835" lon="14.197457937508348"><ele>267.0</ele><time>2026-05-01T12:54:15.999Z</time></trkpt><trkpt lat="42.23362239912147" lon="14.197386290971284"><ele>267.0</ele><time>2026-05-01T12:54:16.999Z</time></trkpt><trkpt lat="42.23368195810777" lon="14.197336877069226"><ele>267.0</ele><time>2026-05-01T12:54:17.999Z</time></trkpt><trkpt lat="42.233728867457394" lon="14.197261054121777"><ele>267.0</ele><time>2026-05-01T12:54:18.999Z</time></trkpt><trkpt lat="42.23378351803241" lon="14.197155869931729"><ele>267.0</ele><time>2026-05-01T12:54:19.999Z</time></trkpt><trkpt lat="42.2338238152533" lon="14.197060035132264"><ele>267.0</ele><time>2026-05-01T12:54:20.999Z</time></trkpt><trkpt lat="42.23380001175027" lon="14.196932400960586"><ele>267.0</ele><time>2026-05-01T12:54:21.999Z</time></trkpt><trkpt lat="42.23383998341466" lon="14.196858175898598"><ele>267.0</ele><time>2026-05-01T12:54:22.999Z</time></trkpt><trkpt lat="42.233880263173916" lon="14.196787421076074"><ele>267.0</ele><time>2026-05-01T12:54:23.999Z</time></trkpt><trkpt lat="42.23393302922645" lon="14.196662241313446"><ele>267.0</ele><time>2026-05-01T12:54:25.999Z</time></trkpt><trkpt lat="42.23395956333339" lon="14.19655525046393"><ele>266.8</ele><time>2026-05-01T12:54:27.999Z</time></trkpt><trkpt lat="42.23399444230456" lon="14.19643802204154"><ele>266.6</ele><time>2026-05-01T12:54:30.999Z</time></trkpt><trkpt lat="42.23405040795765" lon="14.19628468247875"><ele>266.40000000000003</ele><time>2026-05-01T12:54:32.999Z</time></trkpt><trkpt lat="42.23409683806364" lon="14.196188854860978"><ele>266.2</ele><time>2026-05-01T12:54:33.999Z</time></trkpt><trkpt lat="42.23414091997828" lon="14.196100943614635"><ele>266.0</ele><time>2026-05-01T12:54:34.999Z</time></trkpt><trkpt lat="42.23418680492721" lon="14.195998970646787"><ele>266.0</ele><time>2026-05-01T12:54:35.999Z</time></trkpt><trkpt lat="42.23422438077909" lon="14.195906690447924"><ele>266.0</ele><time>2026-05-01T12:54:36.999Z</time></trkpt><trkpt lat="42.23426633462327" lon="14.195808465830208"><ele>266.0</ele><time>2026-05-01T12:54:37.999Z</time></trkpt><trkpt lat="42.23432306773119" lon="14.195723877625394"><ele>266.0</ele><time>2026-05-01T12:54:38.999Z</time></trkpt><trkpt lat="42.23437921595113" lon="14.195640157279527"><ele>266.0</ele><time>2026-05-01T12:54:39.999Z</time></trkpt><trkpt lat="42.23444780323598" lon="14.195554476284533"><ele>266.0</ele><time>2026-05-01T12:54:40.999Z</time></trkpt><trkpt lat="42.23451666616883" lon="14.195492319121195"><ele>266.0</ele><time>2026-05-01T12:54:41.999Z</time></trkpt><trkpt lat="42.23458468031764" lon="14.195407184831021"><ele>266.0</ele><time>2026-05-01T12:54:42.999Z</time></trkpt><trkpt lat="42.234645539651396" lon="14.195317302346988"><ele>266.0</ele><time>2026-05-01T12:54:43.999Z</time></trkpt><trkpt lat="42.23468927049909" lon="14.195244551059055"><ele>266.0</ele><time>2026-05-01T12:54:44.999Z</time></trkpt><trkpt lat="42.23474476687739" lon="14.19520030147794"><ele>266.0</ele><time>2026-05-01T12:54:45.999Z</time></trkpt><trkpt lat="42.234800414378675" lon="14.195145144102792"><ele>266.0</ele><time>2026-05-01T12:54:46.999Z</time></trkpt><trkpt lat="42.234865812093936" lon="14.195092306765448"><ele>266.0</ele><time>2026-05-01T12:54:47.999Z</time></trkpt><trkpt lat="42.23493519367668" lon="14.19503215107482"><ele>266.0</ele><time>2026-05-01T12:54:48.999Z</time></trkpt><trkpt lat="42.235006689765925" lon="14.194954995179641"><ele>266.0</ele><time>2026-05-01T12:54:49.999Z</time></trkpt><trkpt lat="42.235077560104095" lon="14.194870660581175"><ele>266.0</ele><time>2026-05-01T12:54:50.999Z</time></trkpt><trkpt lat="42.235149325526585" lon="14.19478497936193"><ele>266.0</ele><time>2026-05-01T12:54:51.999Z</time></trkpt><trkpt lat="42.23522963768976" lon="14.194701210753552"><ele>265.83333333333337</ele><time>2026-05-01T12:54:52.999Z</time></trkpt><trkpt lat="42.23530626360787" lon="14.194621772875388"><ele>265.6666666666667</ele><time>2026-05-01T12:54:53.999Z</time></trkpt><trkpt lat="42.23538639667032" lon="14.194552018561314"><ele>265.5</ele><time>2026-05-01T12:54:54.999Z</time></trkpt><trkpt lat="42.23545699372209" lon="14.194485205118344"><ele>265.3333333333333</ele><time>2026-05-01T12:54:55.999Z</time></trkpt><trkpt lat="42.23552553542713" lon="14.194424518538085"><ele>265.16666666666663</ele><time>2026-05-01T12:54:56.999Z</time></trkpt><trkpt lat="42.235586785273036" lon="14.194382763908491"><ele>265.0</ele><time>2026-05-01T12:54:57.999Z</time></trkpt><trkpt lat="42.23565628493927" lon="14.194343334602522"><ele>265.0</ele><time>2026-05-01T12:54:58.999Z</time></trkpt><trkpt lat="42.23574273863392" lon="14.194304431627115"><ele>265.0</ele><time>2026-05-01T12:54:59.999Z</time></trkpt><trkpt lat="42.235835249930155" lon="14.194261410009736"><ele>265.0</ele><time>2026-05-01T12:55:00.999Z</time></trkpt><trkpt lat="42.235921692052834" lon="14.194201504970085"><ele>265.0</ele><time>2026-05-01T12:55:01.999Z</time></trkpt><trkpt lat="42.23597999632196" lon="14.194105576587788"><ele>265.0</ele><time>2026-05-01T12:55:02.999Z</time></trkpt><trkpt lat="42.23603987203814" lon="14.193998152240903"><ele>264.4</ele><time>2026-05-01T12:55:03.999Z</time></trkpt><trkpt lat="42.23609502800391" lon="14.193885079287737"><ele>263.8</ele><time>2026-05-01T12:55:04.999Z</time></trkpt><trkpt lat="42.236135100100825" lon="14.193772410052235"><ele>263.2</ele><time>2026-05-01T12:55:05.999Z</time></trkpt><trkpt lat="42.23616715651756" lon="14.193653983518882"><ele>262.6</ele><time>2026-05-01T12:55:06.999Z</time></trkpt><trkpt lat="42.236206075039966" lon="14.193531671816215"><ele>262.0</ele><time>2026-05-01T12:55:07.999Z</time></trkpt><trkpt lat="42.236246305095435" lon="14.193409871484159"><ele>262.0</ele><time>2026-05-01T12:55:08.999Z</time></trkpt><trkpt lat="42.236274739604454" lon="14.193293159844742"><ele>262.0</ele><time>2026-05-01T12:55:09.999Z</time></trkpt><trkpt lat="42.23630050046986" lon="14.193183048835557"><ele>262.0</ele><time>2026-05-01T12:55:10.999Z</time></trkpt><trkpt lat="42.23632330326512" lon="14.193090604375561"><ele>262.0</ele><time>2026-05-01T12:55:11.999Z</time></trkpt><trkpt lat="42.23634454890527" lon="14.193003810744278"><ele>262.0</ele><time>2026-05-01T12:55:12.999Z</time></trkpt><trkpt lat="42.236361275421395" lon="14.192904988398196"><ele>262.0</ele><time>2026-05-01T12:55:13.999Z</time></trkpt><trkpt lat="42.236379894219105" lon="14.192788917009114"><ele>262.2</ele><time>2026-05-01T12:55:14.999Z</time></trkpt><trkpt lat="42.23640718942505" lon="14.192693630040184"><ele>262.4</ele><time>2026-05-01T12:55:15.999Z</time></trkpt><trkpt lat="42.23644563296202" lon="14.192598103245874"><ele>262.6</ele><time>2026-05-01T12:55:16.999Z</time></trkpt><trkpt lat="42.236478691414895" lon="14.192481563801236"><ele>262.8</ele><time>2026-05-01T12:55:17.999Z</time></trkpt><trkpt lat="42.23652798466241" lon="14.192342795038236"><ele>263.0</ele><time>2026-05-01T12:55:18.999Z</time></trkpt><trkpt lat="42.236570537679235" lon="14.192202334582756"><ele>261.5</ele><time>2026-05-01T12:55:19.999Z</time></trkpt><trkpt lat="42.23661307738925" lon="14.192061864230695"><ele>260.0</ele><time>2026-05-01T12:55:20.999Z</time></trkpt><trkpt lat="42.23666018630713" lon="14.191927886489394"><ele>258.5</ele><time>2026-05-01T12:55:21.999Z</time></trkpt><trkpt lat="42.2367136020523" lon="14.191788211036444"><ele>257.0</ele><time>2026-05-01T12:55:22.999Z</time></trkpt><trkpt lat="42.23678083134295" lon="14.191649050378771"><ele>257.0</ele><time>2026-05-01T12:55:23.999Z</time></trkpt><trkpt lat="42.236861744634155" lon="14.191515959218743"><ele>257.0</ele><time>2026-05-01T12:55:24.999Z</time></trkpt><trkpt lat="42.236947711263085" lon="14.19139568010339"><ele>257.0</ele><time>2026-05-01T12:55:25.999Z</time></trkpt><trkpt lat="42.23702932406643" lon="14.191295343644521"><ele>257.0</ele><time>2026-05-01T12:55:26.999Z</time></trkpt><trkpt lat="42.237095345796334" lon="14.191201341541218"><ele>256.0</ele><time>2026-05-01T12:55:27.999Z</time></trkpt><trkpt lat="42.237135216781425" lon="14.19110182253426"><ele>255.0</ele><time>2026-05-01T12:55:28.999Z</time></trkpt><trkpt lat="42.237211652827895" lon="14.191015987463436"><ele>254.0</ele><time>2026-05-01T12:55:29.999Z</time></trkpt><trkpt lat="42.23723032558935" lon="14.190880886749488"><ele>253.0</ele><time>2026-05-01T12:55:30.999Z</time></trkpt><trkpt lat="42.23725236134115" lon="14.190759189896276"><ele>252.0</ele><time>2026-05-01T12:55:31.999Z</time></trkpt><trkpt lat="42.23729412489165" lon="14.190632778877767"><ele>252.2</ele><time>2026-05-01T12:55:32.999Z</time></trkpt><trkpt lat="42.23734361359448" lon="14.190516227396515"><ele>252.39999999999998</ele><time>2026-05-01T12:55:33.999Z</time></trkpt><trkpt lat="42.23739539530725" lon="14.190414695657587"><ele>252.60000000000002</ele><time>2026-05-01T12:55:34.999Z</time></trkpt><trkpt lat="42.23745881098974" lon="14.190311985211267"><ele>252.8</ele><time>2026-05-01T12:55:35.999Z</time></trkpt><trkpt lat="42.237552263928286" lon="14.190231458821735"><ele>253.0</ele><time>2026-05-01T12:55:36.999Z</time></trkpt><trkpt lat="42.23767536809579" lon="14.190190602070347"><ele>253.0</ele><time>2026-05-01T12:55:37.999Z</time></trkpt><trkpt lat="42.23775990131925" lon="14.190067902105547"><ele>253.0</ele><time>2026-05-01T12:55:38.999Z</time></trkpt><trkpt lat="42.23782749726481" lon="14.18992862883298"><ele>253.0</ele><time>2026-05-01T12:55:39.999Z</time></trkpt><trkpt lat="42.23787895536706" lon="14.18977373147563"><ele>253.0</ele><time>2026-05-01T12:55:40.999Z</time></trkpt><trkpt lat="42.2378942515636" lon="14.18961582371477"><ele>251.75</ele><time>2026-05-01T12:55:41.999Z</time></trkpt><trkpt lat="42.23791718681139" lon="14.189465016004794"><ele>250.5</ele><time>2026-05-01T12:55:42.999Z</time></trkpt><trkpt lat="42.23795169851953" lon="14.189317739344194"><ele>249.25</ele><time>2026-05-01T12:55:43.999Z</time></trkpt><trkpt lat="42.2379664929368" lon="14.189163661157373"><ele>248.0</ele><time>2026-05-01T12:55:44.999Z</time></trkpt><trkpt lat="42.23796911765798" lon="14.189019486184613"><ele>247.4</ele><time>2026-05-01T12:55:45.999Z</time></trkpt><trkpt lat="42.23796686024453" lon="14.188883600071847"><ele>246.8</ele><time>2026-05-01T12:55:46.999Z</time></trkpt><trkpt lat="42.23796159142247" lon="14.188759687361612"><ele>246.2</ele><time>2026-05-01T12:55:47.999Z</time></trkpt><trkpt lat="42.23794338594917" lon="14.188637915692723"><ele>245.6</ele><time>2026-05-01T12:55:48.999Z</time></trkpt><trkpt lat="42.237976355518626" lon="14.188520110386472"><ele>245.0</ele><time>2026-05-01T12:55:49.999Z</time></trkpt><trkpt lat="42.238023400524405" lon="14.188397036540605"><ele>245.0</ele><time>2026-05-01T12:55:50.999Z</time></trkpt><trkpt lat="42.238084532193916" lon="14.188289896558235"><ele>245.0</ele><time>2026-05-01T12:55:51.999Z</time></trkpt><trkpt lat="42.23817115724873" lon="14.18822341331568"><ele>245.0</ele><time>2026-05-01T12:55:52.999Z</time></trkpt><trkpt lat="42.23823527017607" lon="14.18812198455499"><ele>245.0</ele><time>2026-05-01T12:55:53.999Z</time></trkpt><trkpt lat="42.23830502965383" lon="14.18805096498531"><ele>245.0</ele><time>2026-05-01T12:55:54.999Z</time></trkpt><trkpt lat="42.23834716391433" lon="14.18798189817702"><ele>244.66666666666669</ele><time>2026-05-01T12:55:55.999Z</time></trkpt><trkpt lat="42.238376896323686" lon="14.187896957853717"><ele>244.33333333333334</ele><time>2026-05-01T12:55:56.999Z</time></trkpt><trkpt lat="42.23837405344563" lon="14.187795015908181"><ele>244.0</ele><time>2026-05-01T12:55:57.999Z</time></trkpt><trkpt lat="42.238375577636454" lon="14.187699209995719"><ele>243.66666666666669</ele><time>2026-05-01T12:55:58.999Z</time></trkpt><trkpt lat="42.2383749739956" lon="14.187595564601608"><ele>243.33333333333334</ele><time>2026-05-01T12:55:59.999Z</time></trkpt><trkpt lat="42.23836246376349" lon="14.187500209364512"><ele>243.0</ele><time>2026-05-01T12:56:00.999Z</time></trkpt><trkpt lat="42.238446048229704" lon="14.187375093460924"><ele>243.8</ele><time>2026-05-01T12:56:02.999Z</time></trkpt><trkpt lat="42.23852043482592" lon="14.18732895901321"><ele>244.60000000000002</ele><time>2026-05-01T12:56:03.999Z</time></trkpt><trkpt lat="42.238608596506715" lon="14.187291730884056"><ele>245.39999999999998</ele><time>2026-05-01T12:56:04.999Z</time></trkpt><trkpt lat="42.238710662484564" lon="14.187268947359673"><ele>246.2</ele><time>2026-05-01T12:56:05.999Z</time></trkpt><trkpt lat="42.23880805076546" lon="14.187257228387463"><ele>247.0</ele><time>2026-05-01T12:56:06.999Z</time></trkpt><trkpt lat="42.238891593478094" lon="14.187230531272132"><ele>247.0</ele><time>2026-05-01T12:56:07.999Z</time></trkpt><trkpt lat="42.23895924016275" lon="14.187174088311316"><ele>247.0</ele><time>2026-05-01T12:56:08.999Z</time></trkpt><trkpt lat="42.23900739884684" lon="14.187089710510117"><ele>247.0</ele><time>2026-05-01T12:56:09.999Z</time></trkpt><trkpt lat="42.23906903783453" lon="14.186977963640299"><ele>247.0</ele><time>2026-05-01T12:56:10.999Z</time></trkpt><trkpt lat="42.23913242232267" lon="14.18683209023424"><ele>247.0</ele><time>2026-05-01T12:56:11.999Z</time></trkpt><trkpt lat="42.23918782734367" lon="14.18667076636243"><ele>247.39999999999998</ele><time>2026-05-01T12:56:12.999Z</time></trkpt><trkpt lat="42.23924314718695" lon="14.186533574902422"><ele>247.79999999999998</ele><time>2026-05-01T12:56:13.999Z</time></trkpt><trkpt lat="42.239297824920605" lon="14.18643587000247"><ele>248.2</ele><time>2026-05-01T12:56:14.999Z</time></trkpt><trkpt lat="42.2393334782908" lon="14.186360516450476"><ele>248.6</ele><time>2026-05-01T12:56:15.999Z</time></trkpt><trkpt lat="42.23941934778631" lon="14.186222597120663"><ele>249.0</ele><time>2026-05-01T12:56:17.999Z</time></trkpt><trkpt lat="42.23949671052547" lon="14.186152073143687"><ele>249.79999999999998</ele><time>2026-05-01T12:56:18.999Z</time></trkpt><trkpt lat="42.23957610567889" lon="14.186076402906062"><ele>250.59999999999997</ele><time>2026-05-01T12:56:19.999Z</time></trkpt><trkpt lat="42.23964947779244" lon="14.185992310450962"><ele>251.4</ele><time>2026-05-01T12:56:20.999Z</time></trkpt><trkpt lat="42.2397206576171" lon="14.185884801694185"><ele>252.2</ele><time>2026-05-01T12:56:21.999Z</time></trkpt><trkpt lat="42.239786387154815" lon="14.185770020067794"><ele>253.0</ele><time>2026-05-01T12:56:22.999Z</time></trkpt><trkpt lat="42.23984188702615" lon="14.185653669574608"><ele>253.0</ele><time>2026-05-01T12:56:23.999Z</time></trkpt><trkpt lat="42.23988611863225" lon="14.185539802367144"><ele>253.0</ele><time>2026-05-01T12:56:24.999Z</time></trkpt><trkpt lat="42.2399304086761" lon="14.18542884651344"><ele>253.0</ele><time>2026-05-01T12:56:25.999Z</time></trkpt><trkpt lat="42.23997871454367" lon="14.185332384788403"><ele>253.0</ele><time>2026-05-01T12:56:26.999Z</time></trkpt><trkpt lat="42.24004247920586" lon="14.1852443697683"><ele>253.0</ele><time>2026-05-01T12:56:27.999Z</time></trkpt><trkpt lat="42.24011598390429" lon="14.185174747289917"><ele>253.0</ele><time>2026-05-01T12:56:28.999Z</time></trkpt><trkpt lat="42.24019131384811" lon="14.185099137562188"><ele>253.0</ele><time>2026-05-01T12:56:29.999Z</time></trkpt><trkpt lat="42.24026295781226" lon="14.185010993705541"><ele>253.0</ele><time>2026-05-01T12:56:30.999Z</time></trkpt><trkpt lat="42.24033348096782" lon="14.184920955141653"><ele>253.0</ele><time>2026-05-01T12:56:31.999Z</time></trkpt><trkpt lat="42.24041318846616" lon="14.184861607294707"><ele>253.0</ele><time>2026-05-01T12:56:32.999Z</time></trkpt><trkpt lat="42.24046929227722" lon="14.184800815257768"><ele>252.99999999999997</ele><time>2026-05-01T12:56:33.999Z</time></trkpt><trkpt lat="42.24054132799813" lon="14.18470172490589"><ele>253.0</ele><time>2026-05-01T12:56:35.999Z</time></trkpt><trkpt lat="42.24060767870272" lon="14.184676766035803"><ele>253.0</ele><time>2026-05-01T12:56:39.999Z</time></trkpt><trkpt lat="42.240662694914484" lon="14.184734972534695"><ele>253.0</ele><time>2026-05-01T12:56:40.999Z</time></trkpt><trkpt lat="42.240727808865294" lon="14.184774522653386"><ele>252.99999999999997</ele><time>2026-05-01T12:56:42.999Z</time></trkpt><trkpt lat="42.24078995931" lon="14.184813461759141"><ele>253.0</ele><time>2026-05-01T12:56:43.999Z</time></trkpt><trkpt lat="42.240869602084764" lon="14.18486624803005"><ele>252.2</ele><time>2026-05-01T12:56:44.999Z</time></trkpt><trkpt lat="42.24096541249569" lon="14.184927033651991"><ele>251.4</ele><time>2026-05-01T12:56:45.999Z</time></trkpt><trkpt lat="42.24107062366757" lon="14.18499041524739"><ele>250.59999999999997</ele><time>2026-05-01T12:56:46.999Z</time></trkpt><trkpt lat="42.241175279362075" lon="14.18505524664792"><ele>249.79999999999998</ele><time>2026-05-01T12:56:47.999Z</time></trkpt><trkpt lat="42.24126928031441" lon="14.185113379463779"><ele>249.0</ele><time>2026-05-01T12:56:48.999Z</time></trkpt><trkpt lat="42.241354567245125" lon="14.185164306908751"><ele>249.0</ele><time>2026-05-01T12:56:49.999Z</time></trkpt><trkpt lat="42.24143199678026" lon="14.185194461634206"><ele>249.0</ele><time>2026-05-01T12:56:50.999Z</time></trkpt><trkpt lat="42.24150549389334" lon="14.185187632592388"><ele>249.0</ele><time>2026-05-01T12:56:51.999Z</time></trkpt><trkpt lat="42.24157567147571" lon="14.185146554113246"><ele>249.0</ele><time>2026-05-01T12:56:52.999Z</time></trkpt><trkpt lat="42.24164806867019" lon="14.185070750926512"><ele>249.0</ele><time>2026-05-01T12:56:53.999Z</time></trkpt><trkpt lat="42.241718599742256" lon="14.184974890234864"><ele>249.0</ele><time>2026-05-01T12:56:54.999Z</time></trkpt><trkpt lat="42.24178866194494" lon="14.184872071818974"><ele>248.5</ele><time>2026-05-01T12:56:55.999Z</time></trkpt><trkpt lat="42.24185386545021" lon="14.184785839365903"><ele>248.0</ele><time>2026-05-01T12:56:56.999Z</time></trkpt><trkpt lat="42.241922732745635" lon="14.184718880202048"><ele>247.5</ele><time>2026-05-01T12:56:57.999Z</time></trkpt><trkpt lat="42.24196982106756" lon="14.184641448601656"><ele>247.0</ele><time>2026-05-01T12:56:58.999Z</time></trkpt><trkpt lat="42.24200564143989" lon="14.18454840898841"><ele>246.5</ele><time>2026-05-01T12:56:59.999Z</time></trkpt><trkpt lat="42.24202389003399" lon="14.184435989806035"><ele>246.0</ele><time>2026-05-01T12:57:00.999Z</time></trkpt><trkpt lat="42.242029128245306" lon="14.184309885017786"><ele>246.0</ele><time>2026-05-01T12:57:01.999Z</time></trkpt><trkpt lat="42.24202770094135" lon="14.184195349940913"><ele>246.0</ele><time>2026-05-01T12:57:02.999Z</time></trkpt><trkpt lat="42.24204894301577" lon="14.184100810122173"><ele>246.0</ele><time>2026-05-01T12:57:03.999Z</time></trkpt><trkpt lat="42.24204436889502" lon="14.184005681196979"><ele>246.0</ele><time>2026-05-01T12:57:04.999Z</time></trkpt><trkpt lat="42.242066863351724" lon="14.183915169949191"><ele>246.0</ele><time>2026-05-01T12:57:05.999Z</time></trkpt><trkpt lat="42.24210616217833" lon="14.18383003210918"><ele>246.0</ele><time>2026-05-01T12:57:06.999Z</time></trkpt><trkpt lat="42.24216498116213" lon="14.18375473310827"><ele>246.0</ele><time>2026-05-01T12:57:07.999Z</time></trkpt><trkpt lat="42.24219957287746" lon="14.183639073489605"><ele>246.00000000000003</ele><time>2026-05-01T12:57:08.999Z</time></trkpt><trkpt lat="42.242247869605954" lon="14.183551801265544"><ele>246.00000000000003</ele><time>2026-05-01T12:57:09.999Z</time></trkpt><trkpt lat="42.24231065406365" lon="14.183454616206749"><ele>246.0</ele><time>2026-05-01T12:57:10.999Z</time></trkpt><trkpt lat="42.242381136748435" lon="14.18337404619104"><ele>246.0</ele><time>2026-05-01T12:57:11.999Z</time></trkpt><trkpt lat="42.2424685148999" lon="14.183323985580891"><ele>246.20000000000002</ele><time>2026-05-01T12:57:12.999Z</time></trkpt><trkpt lat="42.24256502110982" lon="14.183309825134485"><ele>246.40000000000003</ele><time>2026-05-01T12:57:13.999Z</time></trkpt><trkpt lat="42.24266652350189" lon="14.183316674338183"><ele>246.6</ele><time>2026-05-01T12:57:14.999Z</time></trkpt><trkpt lat="42.24277115019721" lon="14.183333932072681"><ele>246.8</ele><time>2026-05-01T12:57:15.999Z</time></trkpt><trkpt lat="42.24286746662149" lon="14.183362489754131"><ele>247.0</ele><time>2026-05-01T12:57:16.999Z</time></trkpt><trkpt lat="42.24295637340078" lon="14.183388225143098"><ele>246.99999999999997</ele><time>2026-05-01T12:57:17.999Z</time></trkpt><trkpt lat="42.24303982807591" lon="14.183412647054453"><ele>247.0</ele><time>2026-05-01T12:57:18.999Z</time></trkpt><trkpt lat="42.24312146029341" lon="14.183432084359369"><ele>247.0</ele><time>2026-05-01T12:57:19.999Z</time></trkpt><trkpt lat="42.24318375028235" lon="14.183445915430427"><ele>247.0</ele><time>2026-05-01T12:57:20.999Z</time></trkpt><trkpt lat="42.24326279830301" lon="14.183419518812785"><ele>246.99999999999997</ele><time>2026-05-01T12:57:22.999Z</time></trkpt><trkpt lat="42.24332314820729" lon="14.183313651551618"><ele>247.0</ele><time>2026-05-01T12:57:24.999Z</time></trkpt><trkpt lat="42.243368705910015" lon="14.183222262857525"><ele>247.0</ele><time>2026-05-01T12:57:27.999Z</time></trkpt><trkpt lat="42.24323626458247" lon="14.183125106691264"><ele>247.0</ele><time>2026-05-01T12:57:28.999Z</time></trkpt><trkpt lat="42.243162093079654" lon="14.183091388663978"><ele>247.0</ele><time>2026-05-01T12:57:29.999Z</time></trkpt><trkpt lat="42.24308354981432" lon="14.183051530992485"><ele>247.0</ele><time>2026-05-01T12:57:30.999Z</time></trkpt><trkpt lat="42.2429972401466" lon="14.183005496099469"><ele>247.0</ele><time>2026-05-01T12:57:31.999Z</time></trkpt><trkpt lat="42.24291158135217" lon="14.182963371567096"><ele>247.33333333333331</ele><time>2026-05-01T12:57:32.999Z</time></trkpt><trkpt lat="42.24284507544333" lon="14.182902832522153"><ele>247.66666666666666</ele><time>2026-05-01T12:57:33.999Z</time></trkpt><trkpt lat="42.24277599670274" lon="14.182862583717643"><ele>248.0</ele><time>2026-05-01T12:57:34.999Z</time></trkpt><trkpt lat="42.24269712818256" lon="14.182831688787575"><ele>248.33333333333331</ele><time>2026-05-01T12:57:35.999Z</time></trkpt><trkpt lat="42.24263587572079" lon="14.18276362851153"><ele>248.66666666666666</ele><time>2026-05-01T12:57:36.999Z</time></trkpt><trkpt lat="42.24257379952669" lon="14.18270331424354"><ele>249.0</ele><time>2026-05-01T12:57:37.999Z</time></trkpt><trkpt lat="42.242512325388425" lon="14.182634929269105"><ele>249.0</ele><time>2026-05-01T12:57:38.999Z</time></trkpt><trkpt lat="42.242455661244904" lon="14.182567852111836"><ele>248.99999999999997</ele><time>2026-05-01T12:57:39.999Z</time></trkpt><trkpt lat="42.24237859604404" lon="14.18247308751374"><ele>248.99999999999997</ele><time>2026-05-01T12:57:41.999Z</time></trkpt><trkpt lat="42.24233023773966" lon="14.182412625252613"><ele>249.0</ele><time>2026-05-01T12:57:43.999Z</time></trkpt><trkpt lat="42.24240355671456" lon="14.182316992255911"><ele>249.0</ele><time>2026-05-01T12:57:45.999Z</time></trkpt><trkpt lat="42.24253825131632" lon="14.182258869223755"><ele>249.33333333333334</ele><time>2026-05-01T12:57:47.999Z</time></trkpt><trkpt lat="42.24262155051734" lon="14.182231864404113"><ele>249.66666666666669</ele><time>2026-05-01T12:57:48.999Z</time></trkpt><trkpt lat="42.242702922535244" lon="14.18218338324881"><ele>250.0</ele><time>2026-05-01T12:57:49.999Z</time></trkpt><trkpt lat="42.2427792572266" lon="14.182132599616585"><ele>250.33333333333334</ele><time>2026-05-01T12:57:50.999Z</time></trkpt><trkpt lat="42.24285783680652" lon="14.182083979189919"><ele>250.66666666666669</ele><time>2026-05-01T12:57:51.999Z</time></trkpt><trkpt lat="42.24293642102129" lon="14.18203670882809"><ele>251.0</ele><time>2026-05-01T12:57:52.999Z</time></trkpt><trkpt lat="42.243015666311415" lon="14.181990732863673"><ele>251.0</ele><time>2026-05-01T12:57:53.999Z</time></trkpt><trkpt lat="42.24309663988087" lon="14.181955451711318"><ele>251.00000000000003</ele><time>2026-05-01T12:57:54.999Z</time></trkpt><trkpt lat="42.24317703617514" lon="14.181928913206686"><ele>251.00000000000003</ele><time>2026-05-01T12:57:55.999Z</time></trkpt><trkpt lat="42.24326257869324" lon="14.181884860717066"><ele>251.0</ele><time>2026-05-01T12:57:56.999Z</time></trkpt><trkpt lat="42.243358460690644" lon="14.18182032143233"><ele>251.0</ele><time>2026-05-01T12:57:57.999Z</time></trkpt><trkpt lat="42.243465908929906" lon="14.181753849914797"><ele>249.75</ele><time>2026-05-01T12:57:58.999Z</time></trkpt><trkpt lat="42.24357883010716" lon="14.181690362842774"><ele>248.5</ele><time>2026-05-01T12:57:59.999Z</time></trkpt><trkpt lat="42.24368556483615" lon="14.181634669031451"><ele>247.25</ele><time>2026-05-01T12:58:00.999Z</time></trkpt><trkpt lat="42.24379638701494" lon="14.18158095962522"><ele>246.0</ele><time>2026-05-01T12:58:01.999Z</time></trkpt><trkpt lat="42.24390679162457" lon="14.18152411359723"><ele>245.0</ele><time>2026-05-01T12:58:02.999Z</time></trkpt><trkpt lat="42.244013714286005" lon="14.181462485272302"><ele>244.00000000000003</ele><time>2026-05-01T12:58:03.999Z</time></trkpt><trkpt lat="42.244112924484476" lon="14.18140890745408"><ele>243.00000000000003</ele><time>2026-05-01T12:58:04.999Z</time></trkpt><trkpt lat="42.24420836355463" lon="14.181354666023084"><ele>242.0</ele><time>2026-05-01T12:58:05.999Z</time></trkpt><trkpt lat="42.24430763238608" lon="14.18129400675779"><ele>241.0</ele><time>2026-05-01T12:58:06.999Z</time></trkpt><trkpt lat="42.24440871178954" lon="14.181230035033781"><ele>241.0</ele><time>2026-05-01T12:58:07.999Z</time></trkpt><trkpt lat="42.244511911591374" lon="14.18116237722408"><ele>241.00000000000003</ele><time>2026-05-01T12:58:08.999Z</time></trkpt><trkpt lat="42.244609355849356" lon="14.181101746425513"><ele>241.00000000000003</ele><time>2026-05-01T12:58:09.999Z</time></trkpt><trkpt lat="42.244696991212" lon="14.181057223711894"><ele>241.0</ele><time>2026-05-01T12:58:10.999Z</time></trkpt><trkpt lat="42.24476481032347" lon="14.181031839841193"><ele>241.0</ele><time>2026-05-01T12:58:11.999Z</time></trkpt><trkpt lat="42.244874918527366" lon="14.181064465828392"><ele>240.4</ele><time>2026-05-01T12:58:13.999Z</time></trkpt><trkpt lat="42.24501111732566" lon="14.181101920824378"><ele>239.8</ele><time>2026-05-01T12:58:15.999Z</time></trkpt><trkpt lat="42.24508766227944" lon="14.181142627149908"><ele>239.20000000000002</ele><time>2026-05-01T12:58:16.999Z</time></trkpt><trkpt lat="42.245146081602954" lon="14.181215230081971"><ele>238.60000000000002</ele><time>2026-05-01T12:58:17.999Z</time></trkpt><trkpt lat="42.24522338510233" lon="14.1812602546188"><ele>238.0</ele><time>2026-05-01T12:58:18.999Z</time></trkpt><trkpt lat="42.24529577579507" lon="14.181336771531392"><ele>238.0</ele><time>2026-05-01T12:58:19.999Z</time></trkpt><trkpt lat="42.24538094862122" lon="14.18141272273174"><ele>238.0</ele><time>2026-05-01T12:58:20.999Z</time></trkpt><trkpt lat="42.24547965605264" lon="14.181468096294488"><ele>238.0</ele><time>2026-05-01T12:58:21.999Z</time></trkpt><trkpt lat="42.24558746047513" lon="14.181504898625677"><ele>238.0</ele><time>2026-05-01T12:58:22.999Z</time></trkpt><trkpt lat="42.24569526642077" lon="14.18155068320368"><ele>238.0</ele><time>2026-05-01T12:58:23.999Z</time></trkpt><trkpt lat="42.24579778733117" lon="14.181615349001596"><ele>237.8</ele><time>2026-05-01T12:58:24.999Z</time></trkpt><trkpt lat="42.245892751889045" lon="14.181695146821252"><ele>237.60000000000002</ele><time>2026-05-01T12:58:25.999Z</time></trkpt><trkpt lat="42.245982982046115" lon="14.181783048016511"><ele>237.39999999999998</ele><time>2026-05-01T12:58:26.999Z</time></trkpt><trkpt lat="42.24607654267807" lon="14.18185428860568"><ele>237.2</ele><time>2026-05-01T12:58:27.999Z</time></trkpt><trkpt lat="42.24618244927753" lon="14.181901138597437"><ele>237.0</ele><time>2026-05-01T12:58:28.999Z</time></trkpt><trkpt lat="42.246297344231486" lon="14.181915438336429"><ele>237.0</ele><time>2026-05-01T12:58:29.999Z</time></trkpt><trkpt lat="42.24641405925757" lon="14.181911611906695"><ele>237.0</ele><time>2026-05-01T12:58:30.999Z</time></trkpt><trkpt lat="42.24652497548162" lon="14.181908434368447"><ele>237.0</ele><time>2026-05-01T12:58:31.999Z</time></trkpt><trkpt lat="42.246629955160266" lon="14.181908069843104"><ele>237.0</ele><time>2026-05-01T12:58:32.999Z</time></trkpt><trkpt lat="42.24672616668399" lon="14.181913733081778"><ele>237.0</ele><time>2026-05-01T12:58:33.999Z</time></trkpt><trkpt lat="42.24681286703522" lon="14.181931521271963"><ele>236.28571428571425</ele><time>2026-05-01T12:58:34.999Z</time></trkpt><trkpt lat="42.2468883313242" lon="14.181962173339741"><ele>235.57142857142856</ele><time>2026-05-01T12:58:35.999Z</time></trkpt><trkpt lat="42.246954542738" lon="14.18199897531864"><ele>234.85714285714286</ele><time>2026-05-01T12:58:36.999Z</time></trkpt><trkpt lat="42.247016149919425" lon="14.182037041269018"><ele>234.14285714285714</ele><time>2026-05-01T12:58:37.999Z</time></trkpt><trkpt lat="42.24707789166247" lon="14.182080078480569"><ele>233.42857142857144</ele><time>2026-05-01T12:58:38.999Z</time></trkpt><trkpt lat="42.24713964876746" lon="14.182126249043705"><ele>232.71428571428575</ele><time>2026-05-01T12:58:39.999Z</time></trkpt><trkpt lat="42.24719947225254" lon="14.182181282972548"><ele>232.00000000000003</ele><time>2026-05-01T12:58:40.999Z</time></trkpt><trkpt lat="42.24725317370941" lon="14.182246769311645"><ele>232.0</ele><time>2026-05-01T12:58:41.999Z</time></trkpt><trkpt lat="42.24729598964761" lon="14.182323815276154"><ele>232.0</ele><time>2026-05-01T12:58:42.999Z</time></trkpt><trkpt lat="42.24735916149425" lon="14.18245823030967"><ele>232.0</ele><time>2026-05-01T12:58:44.999Z</time></trkpt><trkpt lat="42.24739359745758" lon="14.182613481518839"><ele>232.0</ele><time>2026-05-01T12:58:46.999Z</time></trkpt><trkpt lat="42.24741536593212" lon="14.182759274099693"><ele>232.0</ele><time>2026-05-01T12:58:48.999Z</time></trkpt><trkpt lat="42.24748628205179" lon="14.182801197001051"><ele>232.0</ele><time>2026-05-01T12:58:49.999Z</time></trkpt><trkpt lat="42.24757728175949" lon="14.182883970228614"><ele>232.0</ele><time>2026-05-01T12:58:51.999Z</time></trkpt><trkpt lat="42.24766490627603" lon="14.182963203820384"><ele>232.0</ele><time>2026-05-01T12:58:53.999Z</time></trkpt><trkpt lat="42.247759337978295" lon="14.183028843610268"><ele>232.0</ele><time>2026-05-01T12:58:55.999Z</time></trkpt><trkpt lat="42.24786385838127" lon="14.18311014761817"><ele>232.0</ele><time>2026-05-01T12:58:57.999Z</time></trkpt><trkpt lat="42.24791005572365" lon="14.18317106387346"><ele>232.5</ele><time>2026-05-01T12:58:58.999Z</time></trkpt><trkpt lat="42.24797487883071" lon="14.183308360625388"><ele>233.0</ele><time>2026-05-01T12:59:00.999Z</time></trkpt><trkpt lat="42.248028740040525" lon="14.183444661368101"><ele>233.5</ele><time>2026-05-01T12:59:02.999Z</time></trkpt><trkpt lat="42.24805708933451" lon="14.183599212652895"><ele>234.0</ele><time>2026-05-01T12:59:04.999Z</time></trkpt><trkpt lat="42.24805951027889" lon="14.183765445340498"><ele>234.0</ele><time>2026-05-01T12:59:06.999Z</time></trkpt><trkpt lat="42.248040102368094" lon="14.183890392133682"><ele>234.0</ele><time>2026-05-01T12:59:08.999Z</time></trkpt><trkpt lat="42.24804385562083" lon="14.183977627421516"><ele>234.0</ele><time>2026-05-01T12:59:12.999Z</time></trkpt><trkpt lat="42.248168500361196" lon="14.183910578919676"><ele>234.0</ele><time>2026-05-01T12:59:14.999Z</time></trkpt><trkpt lat="42.2481896006428" lon="14.18380071356892"><ele>234.0</ele><time>2026-05-01T12:59:15.999Z</time></trkpt><trkpt lat="42.24822352335469" lon="14.183716266179031"><ele>234.0</ele><time>2026-05-01T12:59:16.999Z</time></trkpt><trkpt lat="42.24826093740972" lon="14.183624923239199"><ele>232.39999999999998</ele><time>2026-05-01T12:59:17.999Z</time></trkpt><trkpt lat="42.24829751765593" lon="14.183531226853756"><ele>230.79999999999998</ele><time>2026-05-01T12:59:18.999Z</time></trkpt><trkpt lat="42.24834881193937" lon="14.183432359307481"><ele>229.20000000000002</ele><time>2026-05-01T12:59:19.999Z</time></trkpt><trkpt lat="42.24841744135458" lon="14.183338453798118"><ele>227.60000000000002</ele><time>2026-05-01T12:59:20.999Z</time></trkpt><trkpt lat="42.248508946298585" lon="14.183266678776684"><ele>226.0</ele><time>2026-05-01T12:59:21.999Z</time></trkpt><trkpt lat="42.2486202141614" lon="14.183224516529787"><ele>226.0</ele><time>2026-05-01T12:59:22.999Z</time></trkpt><trkpt lat="42.248726992256806" lon="14.183209285935757"><ele>226.00000000000003</ele><time>2026-05-01T12:59:23.999Z</time></trkpt><trkpt lat="42.24883062419145" lon="14.183210431051329"><ele>226.00000000000003</ele><time>2026-05-01T12:59:24.999Z</time></trkpt><trkpt lat="42.24892405001018" lon="14.183246759520982"><ele>226.0</ele><time>2026-05-01T12:59:25.999Z</time></trkpt><trkpt lat="42.249004309994525" lon="14.183319378764242"><ele>226.0</ele><time>2026-05-01T12:59:26.999Z</time></trkpt><trkpt lat="42.249053702489014" lon="14.183403775006367"><ele>224.60000000000002</ele><time>2026-05-01T12:59:27.999Z</time></trkpt><trkpt lat="42.249102251320636" lon="14.183520121556485"><ele>223.20000000000002</ele><time>2026-05-01T12:59:29.999Z</time></trkpt><trkpt lat="42.249152912917786" lon="14.183601408953939"><ele>221.79999999999998</ele><time>2026-05-01T12:59:37.999Z</time></trkpt><trkpt lat="42.249278948944244" lon="14.183459254295965"><ele>220.39999999999998</ele><time>2026-05-01T12:59:40.999Z</time></trkpt><trkpt lat="42.24933202125826" lon="14.183400113771919"><ele>219.0</ele><time>2026-05-01T12:59:41.999Z</time></trkpt><trkpt lat="42.249406214850985" lon="14.183329619694103"><ele>219.0</ele><time>2026-05-01T12:59:43.999Z</time></trkpt><trkpt lat="42.24946936145377" lon="14.183278470732345"><ele>218.99999999999997</ele><time>2026-05-01T12:59:46.999Z</time></trkpt><trkpt lat="42.249526702464216" lon="14.183235183193904"><ele>218.99999999999997</ele><time>2026-05-01T12:59:48.999Z</time></trkpt><trkpt lat="42.24960813487189" lon="14.18313861876771"><ele>219.0</ele><time>2026-05-01T12:59:50.999Z</time></trkpt><trkpt lat="42.249688418828" lon="14.183009925460343"><ele>219.0</ele><time>2026-05-01T12:59:52.999Z</time></trkpt><trkpt lat="42.24975376634686" lon="14.182936010247273"><ele>218.83333333333334</ele><time>2026-05-01T12:59:54.999Z</time></trkpt><trkpt lat="42.24978781818559" lon="14.18285407747339"><ele>218.66666666666669</ele><time>2026-05-01T12:59:56.999Z</time></trkpt><trkpt lat="42.24986831107419" lon="14.182837945939989"><ele>218.5</ele><time>2026-05-01T12:59:57.999Z</time></trkpt><trkpt lat="42.249920836422" lon="14.182762416237868"><ele>218.33333333333334</ele><time>2026-05-01T12:59:58.999Z</time></trkpt><trkpt lat="42.24998060669686" lon="14.18267106772361"><ele>218.16666666666669</ele><time>2026-05-01T12:59:59.999Z</time></trkpt><trkpt lat="42.25004388325007" lon="14.182561498248136"><ele>218.0</ele><time>2026-05-01T13:00:00.999Z</time></trkpt><trkpt lat="42.250106465738504" lon="14.182453416261085"><ele>218.0</ele><time>2026-05-01T13:00:01.999Z</time></trkpt><trkpt lat="42.25016940235675" lon="14.182355555461527"><ele>218.0</ele><time>2026-05-01T13:00:02.999Z</time></trkpt><trkpt lat="42.25022993786676" lon="14.182271831268979"><ele>218.0</ele><time>2026-05-01T13:00:03.999Z</time></trkpt><trkpt lat="42.250285276522" lon="14.18220938623266"><ele>218.0</ele><time>2026-05-01T13:00:04.999Z</time></trkpt><trkpt lat="42.2503614063599" lon="14.182131918849358"><ele>218.0</ele><time>2026-05-01T13:00:05.999Z</time></trkpt><trkpt lat="42.25045231870125" lon="14.182058919860658"><ele>217.60000000000002</ele><time>2026-05-01T13:00:06.999Z</time></trkpt><trkpt lat="42.25054521733968" lon="14.181975089665821"><ele>217.20000000000002</ele><time>2026-05-01T13:00:07.999Z</time></trkpt><trkpt lat="42.25062631755007" lon="14.181892425850402"><ele>216.8</ele><time>2026-05-01T13:00:08.999Z</time></trkpt><trkpt lat="42.250708610733106" lon="14.181801354606275"><ele>216.4</ele><time>2026-05-01T13:00:09.999Z</time></trkpt><trkpt lat="42.250795417494004" lon="14.181715991633292"><ele>216.0</ele><time>2026-05-01T13:00:10.999Z</time></trkpt><trkpt lat="42.250898300994514" lon="14.181647193720595"><ele>216.0</ele><time>2026-05-01T13:00:11.999Z</time></trkpt><trkpt lat="42.25101340266824" lon="14.181598145840917"><ele>216.0</ele><time>2026-05-01T13:00:12.999Z</time></trkpt><trkpt lat="42.25112775446714" lon="14.181518459396571"><ele>216.0</ele><time>2026-05-01T13:00:13.999Z</time></trkpt><trkpt lat="42.251245317687015" lon="14.181439514333318"><ele>216.0</ele><time>2026-05-01T13:00:14.999Z</time></trkpt><trkpt lat="42.251353065875286" lon="14.181379987414156"><ele>217.20000000000002</ele><time>2026-05-01T13:00:15.999Z</time></trkpt><trkpt lat="42.25143510121027" lon="14.181322703776688"><ele>218.40000000000003</ele><time>2026-05-01T13:00:16.999Z</time></trkpt><trkpt lat="42.25151352713449" lon="14.181282028448733"><ele>219.6</ele><time>2026-05-01T13:00:17.999Z</time></trkpt><trkpt lat="42.25157169869744" lon="14.181230965972462"><ele>220.8</ele><time>2026-05-01T13:00:18.999Z</time></trkpt><trkpt lat="42.25166010638462" lon="14.181324395117672"><ele>222.0</ele><time>2026-05-01T13:00:22.999Z</time></trkpt><trkpt lat="42.251769478566466" lon="14.18140863005964"><ele>222.39999999999998</ele><time>2026-05-01T13:00:24.999Z</time></trkpt><trkpt lat="42.25184189305819" lon="14.181462741685003"><ele>222.79999999999998</ele><time>2026-05-01T13:00:25.999Z</time></trkpt><trkpt lat="42.25190346440858" lon="14.18155436592339"><ele>223.2</ele><time>2026-05-01T13:00:26.999Z</time></trkpt><trkpt lat="42.25198908381814" lon="14.181621984510745"><ele>223.6</ele><time>2026-05-01T13:00:27.999Z</time></trkpt><trkpt lat="42.25206675423988" lon="14.181711471635214"><ele>224.0</ele><time>2026-05-01T13:00:28.999Z</time></trkpt><trkpt lat="42.25214133302957" lon="14.18178315902775"><ele>222.0</ele><time>2026-05-01T13:00:29.999Z</time></trkpt><trkpt lat="42.25222363993435" lon="14.181847764173718"><ele>219.99999999999997</ele><time>2026-05-01T13:00:30.999Z</time></trkpt><trkpt lat="42.25230881496927" lon="14.18189330105238"><ele>217.99999999999997</ele><time>2026-05-01T13:00:31.999Z</time></trkpt><trkpt lat="42.252398281757" lon="14.181918694868516"><ele>216.0</ele><time>2026-05-01T13:00:32.999Z</time></trkpt><trkpt lat="42.25248970860618" lon="14.181922025589932"><ele>214.0</ele><time>2026-05-01T13:00:33.999Z</time></trkpt><trkpt lat="42.25258163122662" lon="14.181911920138518"><ele>213.79999999999998</ele><time>2026-05-01T13:00:34.999Z</time></trkpt><trkpt lat="42.25267511747653" lon="14.181897507133895"><ele>213.59999999999997</ele><time>2026-05-01T13:00:35.999Z</time></trkpt><trkpt lat="42.252776226282" lon="14.181877741076473"><ele>213.4</ele><time>2026-05-01T13:00:36.999Z</time></trkpt><trkpt lat="42.25287757055927" lon="14.181855330991116"><ele>213.2</ele><time>2026-05-01T13:00:37.999Z</time></trkpt><trkpt lat="42.2529836546688" lon="14.181831881633995"><ele>213.0</ele><time>2026-05-01T13:00:38.999Z</time></trkpt><trkpt lat="42.25309393643951" lon="14.18180914900001"><ele>214.2</ele><time>2026-05-01T13:00:39.999Z</time></trkpt><trkpt lat="42.253205517598815" lon="14.181791280630446"><ele>215.4</ele><time>2026-05-01T13:00:40.999Z</time></trkpt><trkpt lat="42.253319090180874" lon="14.18178210269118"><ele>216.59999999999997</ele><time>2026-05-01T13:00:41.999Z</time></trkpt><trkpt lat="42.2534272034763" lon="14.181783996112022"><ele>217.79999999999998</ele><time>2026-05-01T13:00:42.999Z</time></trkpt><trkpt lat="42.253528870296925" lon="14.18181309504987"><ele>219.0</ele><time>2026-05-01T13:00:43.999Z</time></trkpt><trkpt lat="42.253625395435506" lon="14.181869769869357"><ele>219.0</ele><time>2026-05-01T13:00:44.999Z</time></trkpt><trkpt lat="42.25372009176424" lon="14.181941851833713"><ele>219.0</ele><time>2026-05-01T13:00:45.999Z</time></trkpt><trkpt lat="42.25382466992751" lon="14.182032292953394"><ele>219.0</ele><time>2026-05-01T13:00:46.999Z</time></trkpt><trkpt lat="42.253937510596124" lon="14.182122662815841"><ele>219.0</ele><time>2026-05-01T13:00:47.999Z</time></trkpt><trkpt lat="42.254049501547186" lon="14.182208705143394"><ele>219.25</ele><time>2026-05-01T13:00:48.999Z</time></trkpt><trkpt lat="42.254152551051504" lon="14.182289427012671"><ele>219.5</ele><time>2026-05-01T13:00:49.999Z</time></trkpt><trkpt lat="42.25425177044596" lon="14.182367235849888"><ele>219.75</ele><time>2026-05-01T13:00:50.999Z</time></trkpt><trkpt lat="42.254352374959296" lon="14.182447557756754"><ele>220.0</ele><time>2026-05-01T13:00:51.999Z</time></trkpt><trkpt lat="42.25445442327242" lon="14.182529887675665"><ele>220.0</ele><time>2026-05-01T13:00:52.999Z</time></trkpt><trkpt lat="42.254555225801575" lon="14.18261744982484"><ele>220.0</ele><time>2026-05-01T13:00:53.999Z</time></trkpt><trkpt lat="42.254650866475714" lon="14.182708448674248"><ele>220.0</ele><time>2026-05-01T13:00:54.999Z</time></trkpt><trkpt lat="42.254733395190186" lon="14.18280553825134"><ele>220.0</ele><time>2026-05-01T13:00:55.999Z</time></trkpt><trkpt lat="42.25481190525188" lon="14.18291354585774"><ele>220.25</ele><time>2026-05-01T13:00:56.999Z</time></trkpt><trkpt lat="42.25489097901255" lon="14.183031406465956"><ele>220.5</ele><time>2026-05-01T13:00:57.999Z</time></trkpt><trkpt lat="42.25497705093783" lon="14.183153457000246"><ele>220.75</ele><time>2026-05-01T13:00:58.999Z</time></trkpt><trkpt lat="42.25506383812155" lon="14.183274455625957"><ele>221.0</ele><time>2026-05-01T13:00:59.999Z</time></trkpt><trkpt lat="42.255146765540104" lon="14.18339147814513"><ele>221.0</ele><time>2026-05-01T13:01:00.999Z</time></trkpt><trkpt lat="42.25523072186094" lon="14.183502695042899"><ele>221.0</ele><time>2026-05-01T13:01:01.999Z</time></trkpt><trkpt lat="42.25531863991409" lon="14.183615579236202"><ele>221.0</ele><time>2026-05-01T13:01:02.999Z</time></trkpt><trkpt lat="42.255410344531064" lon="14.183733587681173"><ele>221.0</ele><time>2026-05-01T13:01:03.999Z</time></trkpt><trkpt lat="42.255503760266954" lon="14.183858432286403"><ele>221.0</ele><time>2026-05-01T13:01:04.999Z</time></trkpt><trkpt lat="42.25559288398567" lon="14.183986919198277"><ele>221.0</ele><time>2026-05-01T13:01:05.999Z</time></trkpt><trkpt lat="42.25567046850052" lon="14.184114361619669"><ele>221.0</ele><time>2026-05-01T13:01:06.999Z</time></trkpt><trkpt lat="42.25573846309045" lon="14.184232972574799"><ele>221.0</ele><time>2026-05-01T13:01:07.999Z</time></trkpt><trkpt lat="42.255804171483796" lon="14.184341506870107"><ele>221.00000000000003</ele><time>2026-05-01T13:01:08.999Z</time></trkpt><trkpt lat="42.2558727709732" lon="14.184439551509522"><ele>221.0</ele><time>2026-05-01T13:01:09.999Z</time></trkpt><trkpt lat="42.25594286523233" lon="14.184516649684102"><ele>221.0</ele><time>2026-05-01T13:01:10.999Z</time></trkpt><trkpt lat="42.25601459342915" lon="14.184576062887476"><ele>221.0</ele><time>2026-05-01T13:01:11.999Z</time></trkpt><trkpt lat="42.25608704419318" lon="14.184626697205033"><ele>221.00000000000003</ele><time>2026-05-01T13:01:12.999Z</time></trkpt><trkpt lat="42.25615939814594" lon="14.18467373734637"><ele>221.0</ele><time>2026-05-01T13:01:13.999Z</time></trkpt><trkpt lat="42.256242031354944" lon="14.184732732205479"><ele>221.00000000000003</ele><time>2026-05-01T13:01:14.999Z</time></trkpt><trkpt lat="42.25631932621765" lon="14.184788992054314"><ele>221.0</ele><time>2026-05-01T13:01:15.999Z</time></trkpt><trkpt lat="42.25638635873499" lon="14.184844703374331"><ele>221.0</ele><time>2026-05-01T13:01:16.999Z</time></trkpt><trkpt lat="42.256443528324226" lon="14.184895761220368"><ele>221.0</ele><time>2026-05-01T13:01:17.999Z</time></trkpt><trkpt lat="42.25649935995981" lon="14.18494707049941"><ele>221.00000000000003</ele><time>2026-05-01T13:01:18.999Z</time></trkpt><trkpt lat="42.25657187714947" lon="14.185028089103174"><ele>221.0</ele><time>2026-05-01T13:01:20.999Z</time></trkpt><trkpt lat="42.2566588949484" lon="14.185083119666503"><ele>221.0</ele><time>2026-05-01T13:01:23.999Z</time></trkpt><trkpt lat="42.25679779745854" lon="14.184863790644078"><ele>221.0</ele><time>2026-05-01T13:01:27.999Z</time></trkpt><trkpt lat="42.256858853929074" lon="14.184763842371462"><ele>221.0</ele><time>2026-05-01T13:01:28.999Z</time></trkpt><trkpt lat="42.25692844219864" lon="14.18467374992421"><ele>221.0</ele><time>2026-05-01T13:01:29.999Z</time></trkpt><trkpt lat="42.25700605930391" lon="14.184604108696055"><ele>222.20000000000002</ele><time>2026-05-01T13:01:30.999Z</time></trkpt><trkpt lat="42.25709160377402" lon="14.184539532789895"><ele>223.40000000000003</ele><time>2026-05-01T13:01:31.999Z</time></trkpt><trkpt lat="42.25717182232226" lon="14.184480103449301"><ele>224.6</ele><time>2026-05-01T13:01:32.999Z</time></trkpt><trkpt lat="42.257243831081965" lon="14.184420402788248"><ele>225.8</ele><time>2026-05-01T13:01:33.999Z</time></trkpt><trkpt lat="42.257324479837195" lon="14.184344305822975"><ele>227.0</ele><time>2026-05-01T13:01:34.999Z</time></trkpt><trkpt lat="42.25740900110042" lon="14.184261094048725"><ele>227.39999999999998</ele><time>2026-05-01T13:01:35.999Z</time></trkpt><trkpt lat="42.25747715317506" lon="14.184182289785289"><ele>227.79999999999998</ele><time>2026-05-01T13:01:36.999Z</time></trkpt><trkpt lat="42.257538317441295" lon="14.184071680098187"><ele>228.2</ele><time>2026-05-01T13:01:38.999Z</time></trkpt><trkpt lat="42.25756732867318" lon="14.183899340958993"><ele>228.6</ele><time>2026-05-01T13:01:40.999Z</time></trkpt><trkpt lat="42.257579871105946" lon="14.183782526225274"><ele>229.0</ele><time>2026-05-01T13:01:41.999Z</time></trkpt><trkpt lat="42.257572630814906" lon="14.183656307150972"><ele>229.99999999999997</ele><time>2026-05-01T13:01:42.999Z</time></trkpt><trkpt lat="42.25755265738904" lon="14.183519489237938"><ele>231.0</ele><time>2026-05-01T13:01:43.999Z</time></trkpt><trkpt lat="42.25753155825579" lon="14.183407565774765"><ele>232.0</ele><time>2026-05-01T13:01:44.999Z</time></trkpt><trkpt lat="42.25751368754454" lon="14.183325472744144"><ele>233.0</ele><time>2026-05-01T13:01:45.999Z</time></trkpt><trkpt lat="42.25749230427147" lon="14.183227544710793"><ele>233.99999999999997</ele><time>2026-05-01T13:01:46.999Z</time></trkpt><trkpt lat="42.257462727883926" lon="14.183113488176112"><ele>235.0</ele><time>2026-05-01T13:01:47.999Z</time></trkpt><trkpt lat="42.25745125209424" lon="14.182997728207026"><ele>236.83333333333331</ele><time>2026-05-01T13:01:48.999Z</time></trkpt><trkpt lat="42.25743205731872" lon="14.182902773060222"><ele>238.66666666666666</ele><time>2026-05-01T13:01:49.999Z</time></trkpt><trkpt lat="42.25734862021661" lon="14.182803565901676"><ele>240.5</ele><time>2026-05-01T13:01:51.999Z</time></trkpt><trkpt lat="42.257273542050626" lon="14.182762706180833"><ele>242.33333333333331</ele><time>2026-05-01T13:01:52.999Z</time></trkpt><trkpt lat="42.25720222042795" lon="14.182724755710463"><ele>244.16666666666666</ele><time>2026-05-01T13:01:53.999Z</time></trkpt><trkpt lat="42.25713058891084" lon="14.182706009103196"><ele>246.0</ele><time>2026-05-01T13:01:54.999Z</time></trkpt><trkpt lat="42.2570322475554" lon="14.182654780617725"><ele>246.33333333333334</ele><time>2026-05-01T13:01:56.999Z</time></trkpt><trkpt lat="42.25701792904081" lon="14.18256262839374"><ele>246.66666666666669</ele><time>2026-05-01T13:01:58.999Z</time></trkpt><trkpt lat="42.25706635007554" lon="14.182416317773017"><ele>247.0</ele><time>2026-05-01T13:02:00.999Z</time></trkpt><trkpt lat="42.25706406882041" lon="14.182325401140934"><ele>247.33333333333334</ele><time>2026-05-01T13:02:01.999Z</time></trkpt><trkpt lat="42.257074051689344" lon="14.182195713654593"><ele>247.66666666666669</ele><time>2026-05-01T13:02:03.999Z</time></trkpt><trkpt lat="42.25713737506349" lon="14.182128195731503"><ele>248.0</ele><time>2026-05-01T13:02:05.999Z</time></trkpt><trkpt lat="42.25719658709036" lon="14.182077595714361"><ele>249.16666666666669</ele><time>2026-05-01T13:02:06.999Z</time></trkpt><trkpt lat="42.25725063980916" lon="14.182012646893082"><ele>250.33333333333334</ele><time>2026-05-01T13:02:07.999Z</time></trkpt><trkpt lat="42.25730124862665" lon="14.181932845453517"><ele>251.5</ele><time>2026-05-01T13:02:08.999Z</time></trkpt><trkpt lat="42.257336961023725" lon="14.181838190784061"><ele>252.66666666666669</ele><time>2026-05-01T13:02:09.999Z</time></trkpt><trkpt lat="42.257367303972465" lon="14.181703794334252"><ele>253.83333333333334</ele><time>2026-05-01T13:02:10.999Z</time></trkpt><trkpt lat="42.257396048234824" lon="14.181572806129989"><ele>255.0</ele><time>2026-05-01T13:02:11.999Z</time></trkpt><trkpt lat="42.25743217549603" lon="14.181455844441853"><ele>256.5</ele><time>2026-05-01T13:02:12.999Z</time></trkpt><trkpt lat="42.25745854673855" lon="14.181352810083295"><ele>258.0</ele><time>2026-05-01T13:02:13.999Z</time></trkpt><trkpt lat="42.25748245042209" lon="14.181267695934595"><ele>259.5</ele><time>2026-05-01T13:02:14.999Z</time></trkpt><trkpt lat="42.25753515048884" lon="14.181171644357601"><ele>261.0</ele><time>2026-05-01T13:02:16.999Z</time></trkpt><trkpt lat="42.25758085052101" lon="14.181104121031211"><ele>262.5</ele><time>2026-05-01T13:02:17.999Z</time></trkpt><trkpt lat="42.25762715440226" lon="14.181016963528856"><ele>264.0</ele><time>2026-05-01T13:02:18.999Z</time></trkpt><trkpt lat="42.25767322678034" lon="14.18091915950226"><ele>264.0</ele><time>2026-05-01T13:02:19.999Z</time></trkpt><trkpt lat="42.2577211697167" lon="14.180834942401669"><ele>264.0</ele><time>2026-05-01T13:02:20.999Z</time></trkpt><trkpt lat="42.25777341894779" lon="14.180740661340007"><ele>264.0</ele><time>2026-05-01T13:02:22.999Z</time></trkpt><trkpt lat="42.25782891220386" lon="14.180577045631946"><ele>264.0</ele><time>2026-05-01T13:02:24.999Z</time></trkpt><trkpt lat="42.25785444056483" lon="14.180473098424185"><ele>264.0</ele><time>2026-05-01T13:02:25.999Z</time></trkpt><trkpt lat="42.25786512222453" lon="14.180369891290754"><ele>266.59999999999997</ele><time>2026-05-01T13:02:26.999Z</time></trkpt><trkpt lat="42.25787212637778" lon="14.18022773140337"><ele>269.2</ele><time>2026-05-01T13:02:27.999Z</time></trkpt><trkpt lat="42.25788349971515" lon="14.18007238957913"><ele>271.79999999999995</ele><time>2026-05-01T13:02:28.999Z</time></trkpt><trkpt lat="42.25789773998856" lon="14.179922594016453"><ele>274.4</ele><time>2026-05-01T13:02:29.999Z</time></trkpt><trkpt lat="42.257909921180755" lon="14.179793318144538"><ele>277.0</ele><time>2026-05-01T13:02:30.999Z</time></trkpt><trkpt lat="42.25791847237585" lon="14.179665509417928"><ele>278.8333333333333</ele><time>2026-05-01T13:02:31.999Z</time></trkpt><trkpt lat="42.25791108909911" lon="14.179551305596958"><ele>280.66666666666663</ele><time>2026-05-01T13:02:32.999Z</time></trkpt><trkpt lat="42.25790640256847" lon="14.179431291901574"><ele>282.5</ele><time>2026-05-01T13:02:33.999Z</time></trkpt><trkpt lat="42.257914296711256" lon="14.179270875782938"><ele>284.3333333333333</ele><time>2026-05-01T13:02:35.999Z</time></trkpt><trkpt lat="42.25793570591214" lon="14.179179676845223"><ele>286.1666666666667</ele><time>2026-05-01T13:02:36.999Z</time></trkpt><trkpt lat="42.25795539489558" lon="14.17908274524242"><ele>288.0</ele><time>2026-05-01T13:02:37.999Z</time></trkpt><trkpt lat="42.25796408095831" lon="14.178972859225317"><ele>289.6666666666667</ele><time>2026-05-01T13:02:38.999Z</time></trkpt><trkpt lat="42.257976155133896" lon="14.178864340921642"><ele>291.3333333333333</ele><time>2026-05-01T13:02:39.999Z</time></trkpt><trkpt lat="42.25800810709106" lon="14.178776053362272"><ele>293.0</ele><time>2026-05-01T13:02:40.999Z</time></trkpt><trkpt lat="42.258045706929096" lon="14.17869990369514"><ele>294.66666666666663</ele><time>2026-05-01T13:02:41.999Z</time></trkpt><trkpt lat="42.25805240614858" lon="14.178599657293388"><ele>296.3333333333333</ele><time>2026-05-01T13:02:42.999Z</time></trkpt><trkpt lat="42.25806253649583" lon="14.178474741528808"><ele>298.0</ele><time>2026-05-01T13:02:43.999Z</time></trkpt><trkpt lat="42.25806741110871" lon="14.178365032805745"><ele>298.0</ele><time>2026-05-01T13:02:44.999Z</time></trkpt><trkpt lat="42.258079261332306" lon="14.178264094317356"><ele>298.0</ele><time>2026-05-01T13:02:45.999Z</time></trkpt><trkpt lat="42.25810756761978" lon="14.178158468960708"><ele>298.0</ele><time>2026-05-01T13:02:47.999Z</time></trkpt><trkpt lat="42.258091207481435" lon="14.178060783564177"><ele>298.0</ele><time>2026-05-01T13:02:49.999Z</time></trkpt><trkpt lat="42.258092223250515" lon="14.177919913782903"><ele>298.0</ele><time>2026-05-01T13:02:51.999Z</time></trkpt><trkpt lat="42.25802387488251" lon="14.177839835599995"><ele>298.0</ele><time>2026-05-01T13:02:53.999Z</time></trkpt><trkpt lat="42.257955698441926" lon="14.177812348256378"><ele>299.16666666666663</ele><time>2026-05-01T13:02:54.999Z</time></trkpt><trkpt lat="42.257868426927146" lon="14.177739440667175"><ele>300.3333333333333</ele><time>2026-05-01T13:02:56.999Z</time></trkpt><trkpt lat="42.257796005004" lon="14.177693975146088"><ele>301.5</ele><time>2026-05-01T13:02:58.999Z</time></trkpt><trkpt lat="42.257730596911536" lon="14.177724520246125"><ele>302.6666666666667</ele><time>2026-05-01T13:02:59.999Z</time></trkpt><trkpt lat="42.257668654803304" lon="14.177751950324092"><ele>303.83333333333337</ele><time>2026-05-01T13:03:00.999Z</time></trkpt><trkpt lat="42.25755592396679" lon="14.177719609794869"><ele>305.0</ele><time>2026-05-01T13:03:02.999Z</time></trkpt><trkpt lat="42.25749984915594" lon="14.177679632974877"><ele>305.0</ele><time>2026-05-01T13:03:03.999Z</time></trkpt><trkpt lat="42.257424288806455" lon="14.177689186484125"><ele>305.0</ele><time>2026-05-01T13:03:04.999Z</time></trkpt><trkpt lat="42.257341832238545" lon="14.177740548535837"><ele>305.0</ele><time>2026-05-01T13:03:05.999Z</time></trkpt><trkpt lat="42.257264533356576" lon="14.177794718910496"><ele>305.0</ele><time>2026-05-01T13:03:06.999Z</time></trkpt><trkpt lat="42.25718024210691" lon="14.177868590718804"><ele>305.0</ele><time>2026-05-01T13:03:08.999Z</time></trkpt><trkpt lat="42.25711007989709" lon="14.177988591047102"><ele>306.83333333333337</ele><time>2026-05-01T13:03:10.999Z</time></trkpt><trkpt lat="42.2570453385245" lon="14.177952569763645"><ele>308.6666666666667</ele><time>2026-05-01T13:03:12.999Z</time></trkpt><trkpt lat="42.25702953858593" lon="14.17784379639653"><ele>310.5</ele><time>2026-05-01T13:03:14.999Z</time></trkpt><trkpt lat="42.257055915750364" lon="14.177760052324883"><ele>312.3333333333333</ele><time>2026-05-01T13:03:15.999Z</time></trkpt><trkpt lat="42.257081765676254" lon="14.177654391707296"><ele>314.16666666666663</ele><time>2026-05-01T13:03:16.999Z</time></trkpt><trkpt lat="42.257102871321614" lon="14.177530568898323"><ele>316.0</ele><time>2026-05-01T13:03:17.999Z</time></trkpt><trkpt lat="42.25714297719453" lon="14.177403031719747"><ele>315.8333333333333</ele><time>2026-05-01T13:03:18.999Z</time></trkpt><trkpt lat="42.25719496474508" lon="14.177302045311274"><ele>315.66666666666663</ele><time>2026-05-01T13:03:19.999Z</time></trkpt><trkpt lat="42.25724796933736" lon="14.177223494489212"><ele>315.5</ele><time>2026-05-01T13:03:20.999Z</time></trkpt><trkpt lat="42.257298546179904" lon="14.177139379087563"><ele>315.3333333333333</ele><time>2026-05-01T13:03:21.999Z</time></trkpt><trkpt lat="42.25734335396514" lon="14.177048530592108"><ele>315.1666666666667</ele><time>2026-05-01T13:03:22.999Z</time></trkpt><trkpt lat="42.25738419804432" lon="14.176948250523035"><ele>315.0</ele><time>2026-05-01T13:03:23.999Z</time></trkpt><trkpt lat="42.25741514389006" lon="14.176842662198254"><ele>315.0</ele><time>2026-05-01T13:03:24.999Z</time></trkpt><trkpt lat="42.25744392681773" lon="14.176726086092966"><ele>315.0</ele><time>2026-05-01T13:03:25.999Z</time></trkpt><trkpt lat="42.2574726270125" lon="14.17660404941958"><ele>315.0</ele><time>2026-05-01T13:03:26.999Z</time></trkpt><trkpt lat="42.257509009755886" lon="14.176488730778956"><ele>315.0</ele><time>2026-05-01T13:03:27.999Z</time></trkpt><trkpt lat="42.25754304921863" lon="14.176383990080636"><ele>315.0</ele><time>2026-05-01T13:03:28.999Z</time></trkpt><trkpt lat="42.25756685232571" lon="14.176299855885391"><ele>315.0</ele><time>2026-05-01T13:03:30.999Z</time></trkpt><trkpt lat="42.25756390645203" lon="14.176209752445754"><ele>316.5</ele><time>2026-05-01T13:03:33.999Z</time></trkpt><trkpt lat="42.25751161975996" lon="14.176128110619553"><ele>318.0</ele><time>2026-05-01T13:03:35.999Z</time></trkpt><trkpt lat="42.257450288194406" lon="14.176086662204012"><ele>319.5</ele><time>2026-05-01T13:03:36.999Z</time></trkpt><trkpt lat="42.25738642211421" lon="14.176050247511421"><ele>321.0</ele><time>2026-05-01T13:03:37.999Z</time></trkpt><trkpt lat="42.25731860721133" lon="14.175988900487027"><ele>322.5</ele><time>2026-05-01T13:03:38.999Z</time></trkpt><trkpt lat="42.2572724783723" lon="14.175923387067924"><ele>324.0</ele><time>2026-05-01T13:03:39.999Z</time></trkpt><trkpt lat="42.25724430511508" lon="14.17577945209077"><ele>325.0</ele><time>2026-05-01T13:03:41.999Z</time></trkpt><trkpt lat="42.25722572173722" lon="14.175668319112516"><ele>326.0</ele><time>2026-05-01T13:03:43.999Z</time></trkpt><trkpt lat="42.25718576833586" lon="14.1755190325966"><ele>327.0</ele><time>2026-05-01T13:03:45.999Z</time></trkpt><trkpt lat="42.25715954561416" lon="14.175408932865452"><ele>328.0</ele><time>2026-05-01T13:03:47.999Z</time></trkpt><trkpt lat="42.2571955371138" lon="14.17521665553401"><ele>329.0</ele><time>2026-05-01T13:03:49.999Z</time></trkpt><trkpt lat="42.25723091698604" lon="14.1751096875663"><ele>329.0</ele><time>2026-05-01T13:03:50.999Z</time></trkpt><trkpt lat="42.257265301527774" lon="14.175029598630092"><ele>329.0</ele><time>2026-05-01T13:03:51.999Z</time></trkpt><trkpt lat="42.25732364793922" lon="14.174885918022998"><ele>329.0</ele><time>2026-05-01T13:03:53.999Z</time></trkpt><trkpt lat="42.2573692134396" lon="14.174763294751969"><ele>329.0</ele><time>2026-05-01T13:03:54.999Z</time></trkpt><trkpt lat="42.257430981815226" lon="14.174606226920522"><ele>329.0</ele><time>2026-05-01T13:03:55.999Z</time></trkpt><trkpt lat="42.2575046355539" lon="14.174433120068038"><ele>331.5</ele><time>2026-05-01T13:03:56.999Z</time></trkpt><trkpt lat="42.25757501153752" lon="14.174272465312024"><ele>334.0</ele><time>2026-05-01T13:03:57.999Z</time></trkpt><trkpt lat="42.257646661908474" lon="14.174110631416285"><ele>336.5</ele><time>2026-05-01T13:03:58.999Z</time></trkpt><trkpt lat="42.257718695643625" lon="14.17394630426959"><ele>339.0</ele><time>2026-05-01T13:03:59.999Z</time></trkpt><trkpt lat="42.25779675092063" lon="14.17378719386516"><ele>340.25</ele><time>2026-05-01T13:04:00.999Z</time></trkpt><trkpt lat="42.257885146087375" lon="14.173639243281455"><ele>341.5</ele><time>2026-05-01T13:04:01.999Z</time></trkpt><trkpt lat="42.257973667283956" lon="14.173505144843524"><ele>342.75</ele><time>2026-05-01T13:04:02.999Z</time></trkpt><trkpt lat="42.258067909355255" lon="14.173377176948835"><ele>344.0</ele><time>2026-05-01T13:04:03.999Z</time></trkpt><trkpt lat="42.258167320740206" lon="14.173278368480284"><ele>344.0</ele><time>2026-05-01T13:04:04.999Z</time></trkpt><trkpt lat="42.258245244072874" lon="14.173208977967496"><ele>344.0</ele><time>2026-05-01T13:04:05.999Z</time></trkpt><trkpt lat="42.25830503558574" lon="14.173158753870155"><ele>344.0</ele><time>2026-05-01T13:04:06.999Z</time></trkpt><trkpt lat="42.25837883284575" lon="14.173085027054189"><ele>344.0</ele><time>2026-05-01T13:04:08.999Z</time></trkpt><trkpt lat="42.25844237058394" lon="14.173037674191445"><ele>344.0</ele><time>2026-05-01T13:04:10.999Z</time></trkpt><trkpt lat="42.25851298886904" lon="14.172820062028904"><ele>346.6</ele><time>2026-05-01T13:04:12.999Z</time></trkpt><trkpt lat="42.258565414350535" lon="14.17270619779372"><ele>349.2</ele><time>2026-05-01T13:04:13.999Z</time></trkpt><trkpt lat="42.258644049800964" lon="14.172600657445106"><ele>351.8</ele><time>2026-05-01T13:04:14.999Z</time></trkpt><trkpt lat="42.25872162980386" lon="14.172493000978214"><ele>354.40000000000003</ele><time>2026-05-01T13:04:15.999Z</time></trkpt><trkpt lat="42.25880089676155" lon="14.172387444060988"><ele>357.0</ele><time>2026-05-01T13:04:16.999Z</time></trkpt><trkpt lat="42.25888415251905" lon="14.172288551030103"><ele>360.20000000000005</ele><time>2026-05-01T13:04:17.999Z</time></trkpt><trkpt lat="42.2589710871715" lon="14.172197445389026"><ele>363.4</ele><time>2026-05-01T13:04:18.999Z</time></trkpt><trkpt lat="42.259052318277064" lon="14.17211708083245"><ele>366.6</ele><time>2026-05-01T13:04:19.999Z</time></trkpt><trkpt lat="42.25912495087735" lon="14.17204133371756"><ele>369.79999999999995</ele><time>2026-05-01T13:04:20.999Z</time></trkpt><trkpt lat="42.25919112131225" lon="14.171967296354373"><ele>373.0</ele><time>2026-05-01T13:04:21.999Z</time></trkpt><trkpt lat="42.25926048270529" lon="14.1718944609282"><ele>373.0</ele><time>2026-05-01T13:04:22.999Z</time></trkpt><trkpt lat="42.259328611370314" lon="14.171822112076269"><ele>373.0</ele><time>2026-05-01T13:04:23.999Z</time></trkpt><trkpt lat="42.259390652896826" lon="14.171742758160423"><ele>373.0</ele><time>2026-05-01T13:04:24.999Z</time></trkpt><trkpt lat="42.259442199826665" lon="14.17164928101443"><ele>373.0</ele><time>2026-05-01T13:04:25.999Z</time></trkpt><trkpt lat="42.25949132821436" lon="14.1715438503696"><ele>373.0</ele><time>2026-05-01T13:04:26.999Z</time></trkpt><trkpt lat="42.259539420396436" lon="14.171441706558848"><ele>373.0</ele><time>2026-05-01T13:04:27.999Z</time></trkpt><trkpt lat="42.25958270984631" lon="14.17135427608649"><ele>372.4</ele><time>2026-05-01T13:04:28.999Z</time></trkpt><trkpt lat="42.25962299349683" lon="14.171269685497634"><ele>371.79999999999995</ele><time>2026-05-01T13:04:30.999Z</time></trkpt><trkpt lat="42.259692340133434" lon="14.171164530683967"><ele>371.2</ele><time>2026-05-01T13:04:33.999Z</time></trkpt><trkpt lat="42.25976105115971" lon="14.171093555300494"><ele>370.6</ele><time>2026-05-01T13:04:34.999Z</time></trkpt><trkpt lat="42.25985194390795" lon="14.171008600118316"><ele>370.0</ele><time>2026-05-01T13:04:35.999Z</time></trkpt><trkpt lat="42.25994371844325" lon="14.170916727728411"><ele>370.0</ele><time>2026-05-01T13:04:36.999Z</time></trkpt><trkpt lat="42.26003545417298" lon="14.170825475295599"><ele>370.0</ele><time>2026-05-01T13:04:37.999Z</time></trkpt><trkpt lat="42.26012576681437" lon="14.17073643830246"><ele>370.0</ele><time>2026-05-01T13:04:38.999Z</time></trkpt><trkpt lat="42.260215833917094" lon="14.170648746799214"><ele>370.0</ele><time>2026-05-01T13:04:39.999Z</time></trkpt><trkpt lat="42.260301512460856" lon="14.170562527701055"><ele>370.0</ele><time>2026-05-01T13:04:40.999Z</time></trkpt><trkpt lat="42.26038380197696" lon="14.17048125146283"><ele>369.4</ele><time>2026-05-01T13:04:41.999Z</time></trkpt><trkpt lat="42.260467360993744" lon="14.170400616309282"><ele>368.8</ele><time>2026-05-01T13:04:42.999Z</time></trkpt><trkpt lat="42.26054679001617" lon="14.170316915814338"><ele>368.20000000000005</ele><time>2026-05-01T13:04:43.999Z</time></trkpt><trkpt lat="42.2606254336982" lon="14.170236999836774"><ele>367.6</ele><time>2026-05-01T13:04:44.999Z</time></trkpt><trkpt lat="42.260692889112555" lon="14.170146830580576"><ele>367.0</ele><time>2026-05-01T13:04:45.999Z</time></trkpt><trkpt lat="42.260760704802706" lon="14.170065491510508"><ele>365.0</ele><time>2026-05-01T13:04:46.999Z</time></trkpt><trkpt lat="42.26082525627459" lon="14.169981097220402"><ele>363.0</ele><time>2026-05-01T13:04:47.999Z</time></trkpt><trkpt lat="42.260876398347065" lon="14.169907131967735"><ele>361.0</ele><time>2026-05-01T13:04:48.999Z</time></trkpt><trkpt lat="42.260920647812384" lon="14.169839188583762"><ele>359.0</ele><time>2026-05-01T13:04:49.999Z</time></trkpt><trkpt lat="42.26098883764241" lon="14.169720737914234"><ele>357.0</ele><time>2026-05-01T13:04:51.999Z</time></trkpt><trkpt lat="42.2610077434948" lon="14.169622645699654"><ele>355.0</ele><time>2026-05-01T13:04:52.999Z</time></trkpt><trkpt lat="42.26101347807714" lon="14.169501840549653"><ele>353.8333333333333</ele><time>2026-05-01T13:04:53.999Z</time></trkpt><trkpt lat="42.261024184791374" lon="14.169390694570604"><ele>352.66666666666663</ele><time>2026-05-01T13:04:54.999Z</time></trkpt><trkpt lat="42.26103435367275" lon="14.169285408339354"><ele>351.5</ele><time>2026-05-01T13:04:55.999Z</time></trkpt><trkpt lat="42.26104433625362" lon="14.169182286815536"><ele>350.3333333333333</ele><time>2026-05-01T13:04:56.999Z</time></trkpt><trkpt lat="42.261051890373494" lon="14.169076661391914"><ele>349.1666666666667</ele><time>2026-05-01T13:04:57.999Z</time></trkpt><trkpt lat="42.26105017776815" lon="14.168981315265503"><ele>348.0</ele><time>2026-05-01T13:04:58.999Z</time></trkpt><trkpt lat="42.261035904552" lon="14.168888295362171"><ele>347.0</ele><time>2026-05-01T13:04:59.999Z</time></trkpt><trkpt lat="42.26100595991607" lon="14.168783773254429"><ele>346.0</ele><time>2026-05-01T13:05:00.999Z</time></trkpt><trkpt lat="42.26102015401895" lon="14.168659522145088"><ele>345.0</ele><time>2026-05-01T13:05:01.999Z</time></trkpt><trkpt lat="42.261030446539664" lon="14.168543854010249"><ele>344.0</ele><time>2026-05-01T13:05:02.999Z</time></trkpt><trkpt lat="42.26104794696103" lon="14.168417459641985"><ele>343.0</ele><time>2026-05-01T13:05:03.999Z</time></trkpt><trkpt lat="42.26106245364133" lon="14.168288559029811"><ele>341.5</ele><time>2026-05-01T13:05:04.999Z</time></trkpt><trkpt lat="42.261097562543085" lon="14.168160793410307"><ele>340.0</ele><time>2026-05-01T13:05:05.999Z</time></trkpt><trkpt lat="42.26112687277213" lon="14.168053583668812"><ele>338.5</ele><time>2026-05-01T13:05:06.999Z</time></trkpt><trkpt lat="42.261154578451276" lon="14.167956298248617"><ele>337.0</ele><time>2026-05-01T13:05:07.999Z</time></trkpt><trkpt lat="42.26117207823521" lon="14.167853450729769"><ele>335.5</ele><time>2026-05-01T13:05:08.999Z</time></trkpt><trkpt lat="42.26117355414581" lon="14.167735575921872"><ele>334.0</ele><time>2026-05-01T13:05:09.999Z</time></trkpt><trkpt lat="42.261167770725315" lon="14.167599655434383"><ele>334.0</ele><time>2026-05-01T13:05:10.999Z</time></trkpt><trkpt lat="42.26117620533936" lon="14.167450015338025"><ele>334.0</ele><time>2026-05-01T13:05:11.999Z</time></trkpt><trkpt lat="42.261151145464524" lon="14.16732561711274"><ele>334.0</ele><time>2026-05-01T13:05:12.999Z</time></trkpt><trkpt lat="42.26114687628909" lon="14.167226912231413"><ele>334.0</ele><time>2026-05-01T13:05:13.999Z</time></trkpt><trkpt lat="42.26114382183787" lon="14.167140115409962"><ele>334.0</ele><time>2026-05-01T13:05:15.999Z</time></trkpt><trkpt lat="42.261143520174876" lon="14.167051842867389"><ele>334.0</ele><time>2026-05-01T13:05:40.999Z</time></trkpt><trkpt lat="42.261190194998065" lon="14.166963489310982"><ele>331.5</ele><time>2026-05-01T13:05:42.999Z</time></trkpt><trkpt lat="42.26128663047712" lon="14.166989341181477"><ele>329.0</ele><time>2026-05-01T13:05:44.999Z</time></trkpt><trkpt lat="42.26138313408664" lon="14.16706556472347"><ele>326.5</ele><time>2026-05-01T13:05:46.999Z</time></trkpt><trkpt lat="42.261444148357604" lon="14.16710559611604"><ele>324.0</ele><time>2026-05-01T13:05:47.999Z</time></trkpt><trkpt lat="42.26151295235083" lon="14.167135011468396"><ele>321.5</ele><time>2026-05-01T13:05:48.999Z</time></trkpt><trkpt lat="42.26156809404992" lon="14.167213311828528"><ele>319.0</ele><time>2026-05-01T13:05:49.999Z</time></trkpt><trkpt lat="42.2616271690162" lon="14.167276201046558"><ele>318.66666666666663</ele><time>2026-05-01T13:05:50.999Z</time></trkpt><trkpt lat="42.26169840891028" lon="14.167325560965942"><ele>318.3333333333333</ele><time>2026-05-01T13:05:51.999Z</time></trkpt><trkpt lat="42.26175336378052" lon="14.16739631390011"><ele>318.0</ele><time>2026-05-01T13:05:52.999Z</time></trkpt><trkpt lat="42.2618007868742" lon="14.167460397234656"><ele>317.6666666666667</ele><time>2026-05-01T13:05:53.999Z</time></trkpt><trkpt lat="42.26185669821758" lon="14.167505259568864"><ele>317.33333333333337</ele><time>2026-05-01T13:05:54.999Z</time></trkpt><trkpt lat="42.26193982357564" lon="14.167609185499197"><ele>317.0</ele><time>2026-05-01T13:05:56.999Z</time></trkpt><trkpt lat="42.26196936089092" lon="14.167688373042651"><ele>317.0</ele><time>2026-05-01T13:05:57.999Z</time></trkpt><trkpt lat="42.26201448912724" lon="14.167750708469185"><ele>317.0</ele><time>2026-05-01T13:05:58.999Z</time></trkpt><trkpt lat="42.26207859251093" lon="14.167783961456081"><ele>317.0</ele><time>2026-05-01T13:05:59.999Z</time></trkpt><trkpt lat="42.26214657555795" lon="14.167754213693815"><ele>317.0</ele><time>2026-05-01T13:06:00.999Z</time></trkpt><trkpt lat="42.26221332507875" lon="14.167729325308956"><ele>317.0</ele><time>2026-05-01T13:06:01.999Z</time></trkpt><trkpt lat="42.26228653827812" lon="14.167699260320758"><ele>317.0</ele><time>2026-05-01T13:06:02.999Z</time></trkpt><trkpt lat="42.26236385773825" lon="14.167674412153831"><ele>317.0</ele><time>2026-05-01T13:06:03.999Z</time></trkpt><trkpt lat="42.26244301894063" lon="14.167651910041524"><ele>312.5</ele><time>2026-05-01T13:06:04.999Z</time></trkpt><trkpt lat="42.2625116632722" lon="14.167640061250474"><ele>308.0</ele><time>2026-05-01T13:06:05.999Z</time></trkpt><trkpt lat="42.262575871687474" lon="14.167642592215994"><ele>303.5</ele><time>2026-05-01T13:06:06.999Z</time></trkpt><trkpt lat="42.26264355085745" lon="14.16766219837432"><ele>299.0</ele><time>2026-05-01T13:06:07.999Z</time></trkpt><trkpt lat="42.26270111826257" lon="14.167731454401777"><ele>294.5</ele><time>2026-05-01T13:06:08.999Z</time></trkpt><trkpt lat="42.262781814586965" lon="14.167767429468219"><ele>290.0</ele><time>2026-05-01T13:06:09.999Z</time></trkpt><trkpt lat="42.26286002763585" lon="14.167828273377307"><ele>290.0</ele><time>2026-05-01T13:06:10.999Z</time></trkpt><trkpt lat="42.26294478819571" lon="14.167887981875008"><ele>290.0</ele><time>2026-05-01T13:06:11.999Z</time></trkpt><trkpt lat="42.26303481296986" lon="14.167945516157522"><ele>290.0</ele><time>2026-05-01T13:06:12.999Z</time></trkpt><trkpt lat="42.26312483098517" lon="14.168009777820872"><ele>290.0</ele><time>2026-05-01T13:06:13.999Z</time></trkpt><trkpt lat="42.26321799145747" lon="14.168076245352003"><ele>290.0</ele><time>2026-05-01T13:06:14.999Z</time></trkpt><trkpt lat="42.263301703744986" lon="14.168140794696422"><ele>288.1666666666667</ele><time>2026-05-01T13:06:15.999Z</time></trkpt><trkpt lat="42.263377123714946" lon="14.168198830803638"><ele>286.33333333333337</ele><time>2026-05-01T13:06:16.999Z</time></trkpt><trkpt lat="42.26345503002926" lon="14.168252960167397"><ele>284.5</ele><time>2026-05-01T13:06:17.999Z</time></trkpt><trkpt lat="42.26353436133244" lon="14.168305493329427"><ele>282.6666666666667</ele><time>2026-05-01T13:06:18.999Z</time></trkpt><trkpt lat="42.263610671544235" lon="14.168354307561634"><ele>280.8333333333333</ele><time>2026-05-01T13:06:19.999Z</time></trkpt><trkpt lat="42.263686923514285" lon="14.168395349911224"><ele>279.0</ele><time>2026-05-01T13:06:20.999Z</time></trkpt><trkpt lat="42.263763427978944" lon="14.168424572760605"><ele>279.0</ele><time>2026-05-01T13:06:21.999Z</time></trkpt><trkpt lat="42.26383831246158" lon="14.168440150173064"><ele>279.0</ele><time>2026-05-01T13:06:22.999Z</time></trkpt><trkpt lat="42.2639130043341" lon="14.16844080610776"><ele>279.0</ele><time>2026-05-01T13:06:23.999Z</time></trkpt><trkpt lat="42.26398362160513" lon="14.168428123949356"><ele>279.0</ele><time>2026-05-01T13:06:24.999Z</time></trkpt><trkpt lat="42.26409305250077" lon="14.16840787239403"><ele>279.0</ele><time>2026-05-01T13:06:26.999Z</time></trkpt><trkpt lat="42.26418377059108" lon="14.168366812042624"><ele>279.0</ele><time>2026-05-01T13:06:28.999Z</time></trkpt><trkpt lat="42.264260746306306" lon="14.168313239428327"><ele>276.1666666666667</ele><time>2026-05-01T13:06:30.999Z</time></trkpt><trkpt lat="42.26430976855167" lon="14.168258403493706"><ele>273.3333333333333</ele><time>2026-05-01T13:06:32.999Z</time></trkpt><trkpt lat="42.264344654007985" lon="14.168180677328087"><ele>270.5</ele><time>2026-05-01T13:06:46.999Z</time></trkpt><trkpt lat="42.26438554371786" lon="14.16805455810349"><ele>267.66666666666663</ele><time>2026-05-01T13:06:48.999Z</time></trkpt><trkpt lat="42.2644428568375" lon="14.167913478929266"><ele>264.8333333333333</ele><time>2026-05-01T13:06:50.999Z</time></trkpt><trkpt lat="42.264472994227944" lon="14.167836801117293"><ele>262.0</ele><time>2026-05-01T13:06:51.999Z</time></trkpt><trkpt lat="42.264507816076794" lon="14.16775399321432"><ele>260.7142857142857</ele><time>2026-05-01T13:06:52.999Z</time></trkpt><trkpt lat="42.264544429656475" lon="14.167664715901628"><ele>259.42857142857144</ele><time>2026-05-01T13:06:53.999Z</time></trkpt><trkpt lat="42.26458244724098" lon="14.167579402140525"><ele>258.14285714285717</ele><time>2026-05-01T13:06:54.999Z</time></trkpt><trkpt lat="42.26462186306171" lon="14.16749568088984"><ele>256.8571428571429</ele><time>2026-05-01T13:06:55.999Z</time></trkpt><trkpt lat="42.264666154453224" lon="14.16741768845952"><ele>255.57142857142858</ele><time>2026-05-01T13:06:56.999Z</time></trkpt><trkpt lat="42.26472258947269" lon="14.167357535737933"><ele>254.28571428571433</ele><time>2026-05-01T13:06:57.999Z</time></trkpt><trkpt lat="42.26478753405912" lon="14.167325166550452"><ele>253.00000000000003</ele><time>2026-05-01T13:06:58.999Z</time></trkpt><trkpt lat="42.26488282082927" lon="14.1673157262375"><ele>248.33333333333331</ele><time>2026-05-01T13:07:00.999Z</time></trkpt><trkpt lat="42.26495020541216" lon="14.167293206912364"><ele>243.66666666666666</ele><time>2026-05-01T13:07:02.999Z</time></trkpt><trkpt lat="42.265021165070294" lon="14.167241343199043"><ele>239.0</ele><time>2026-05-01T13:07:05.999Z</time></trkpt><trkpt lat="42.265072994936915" lon="14.167169694166681"><ele>234.33333333333331</ele><time>2026-05-01T13:07:07.999Z</time></trkpt><trkpt lat="42.26512611167045" lon="14.167071280979204"><ele>229.66666666666666</ele><time>2026-05-01T13:07:09.999Z</time></trkpt><trkpt lat="42.2652057335104" lon="14.16697847090229"><ele>225.0</ele><time>2026-05-01T13:07:11.999Z</time></trkpt><trkpt lat="42.26528334629465" lon="14.166884586865383"><ele>225.0</ele><time>2026-05-01T13:07:13.999Z</time></trkpt><trkpt lat="42.265361328663225" lon="14.166763829391321"><ele>225.0</ele><time>2026-05-01T13:07:15.999Z</time></trkpt><trkpt lat="42.26540495782514" lon="14.166698733888568"><ele>225.0</ele><time>2026-05-01T13:07:16.999Z</time></trkpt><trkpt lat="42.26548781717154" lon="14.1665771068455"><ele>225.0</ele><time>2026-05-01T13:07:18.999Z</time></trkpt><trkpt lat="42.265572960085635" lon="14.166466470417475"><ele>225.0</ele><time>2026-05-01T13:07:20.999Z</time></trkpt><trkpt lat="42.2656716970667" lon="14.166345454356323"><ele>221.6</ele><time>2026-05-01T13:07:22.999Z</time></trkpt><trkpt lat="42.26571844278943" lon="14.16628666669415"><ele>218.2</ele><time>2026-05-01T13:07:23.999Z</time></trkpt><trkpt lat="42.26576631437757" lon="14.1662279315121"><ele>214.8</ele><time>2026-05-01T13:07:24.999Z</time></trkpt><trkpt lat="42.265841641074466" lon="14.166100464263824"><ele>211.4</ele><time>2026-05-01T13:07:26.999Z</time></trkpt><trkpt lat="42.26590598261015" lon="14.16594327879259"><ele>208.0</ele><time>2026-05-01T13:07:28.999Z</time></trkpt><trkpt lat="42.26592968539429" lon="14.165845090229304"><ele>207.99999999999997</ele><time>2026-05-01T13:07:29.999Z</time></trkpt><trkpt lat="42.26594965903686" lon="14.16575538476034"><ele>208.0</ele><time>2026-05-01T13:07:30.999Z</time></trkpt><trkpt lat="42.26598815897844" lon="14.165633247975462"><ele>208.0</ele><time>2026-05-01T13:07:32.999Z</time></trkpt><trkpt lat="42.266065302531885" lon="14.165569021029658"><ele>208.0</ele><time>2026-05-01T13:07:35.999Z</time></trkpt><trkpt lat="42.266134777569626" lon="14.16562562658055"><ele>207.99999999999997</ele><time>2026-05-01T13:07:37.999Z</time></trkpt><trkpt lat="42.26615937200962" lon="14.165749173082883"><ele>208.0</ele><time>2026-05-01T13:07:39.999Z</time></trkpt><trkpt lat="42.26620586846398" lon="14.165871042050727"><ele>208.0</ele><time>2026-05-01T13:07:42.999Z</time></trkpt><trkpt lat="42.266231394700434" lon="14.165971658702796"><ele>208.0</ele><time>2026-05-01T13:07:44.999Z</time></trkpt><trkpt lat="42.26625792072697" lon="14.16609080437247"><ele>208.0</ele><time>2026-05-01T13:07:46.999Z</time></trkpt><trkpt lat="42.26628087055733" lon="14.166283133465589"><ele>208.0</ele><time>2026-05-01T13:07:48.999Z</time></trkpt><trkpt lat="42.26630560420453" lon="14.166391141827601"><ele>208.0</ele><time>2026-05-01T13:07:49.999Z</time></trkpt><trkpt lat="42.26633046116281" lon="14.16648629087493"><ele>206.99999999999997</ele><time>2026-05-01T13:07:50.999Z</time></trkpt><trkpt lat="42.26637140244644" lon="14.166566838984957"><ele>206.0</ele><time>2026-05-01T13:07:51.999Z</time></trkpt><trkpt lat="42.26640756602585" lon="14.166654077191307"><ele>205.0</ele><time>2026-05-01T13:07:52.999Z</time></trkpt><trkpt lat="42.266442953004734" lon="14.166736743637161"><ele>204.0</ele><time>2026-05-01T13:07:53.999Z</time></trkpt><trkpt lat="42.266476512026934" lon="14.166809756975297"><ele>202.99999999999997</ele><time>2026-05-01T13:07:54.999Z</time></trkpt><trkpt lat="42.26653952173265" lon="14.166956587516228"><ele>202.0</ele><time>2026-05-01T13:07:56.999Z</time></trkpt><trkpt lat="42.266575631610074" lon="14.167031343555745"><ele>201.99999999999997</ele><time>2026-05-01T13:07:57.999Z</time></trkpt><trkpt lat="42.26660991811581" lon="14.167107511050295"><ele>202.0</ele><time>2026-05-01T13:07:58.999Z</time></trkpt><trkpt lat="42.266645633247386" lon="14.167182063525042"><ele>202.0</ele><time>2026-05-01T13:07:59.999Z</time></trkpt><trkpt lat="42.26668188011056" lon="14.167266788019099"><ele>202.0</ele><time>2026-05-01T13:08:00.999Z</time></trkpt><trkpt lat="42.266712186853766" lon="14.167342404300955"><ele>201.99999999999997</ele><time>2026-05-01T13:08:01.999Z</time></trkpt><trkpt lat="42.26676651714506" lon="14.167472200597453"><ele>202.0</ele><time>2026-05-01T13:08:03.999Z</time></trkpt><trkpt lat="42.266814267196025" lon="14.167604995216244"><ele>202.8</ele><time>2026-05-01T13:08:05.999Z</time></trkpt><trkpt lat="42.26685436201363" lon="14.167675856107264"><ele>203.6</ele><time>2026-05-01T13:08:06.999Z</time></trkpt><trkpt lat="42.266896921667396" lon="14.167751097632024"><ele>204.4</ele><time>2026-05-01T13:08:07.999Z</time></trkpt><trkpt lat="42.266935017441114" lon="14.167842267085272"><ele>205.20000000000002</ele><time>2026-05-01T13:08:08.999Z</time></trkpt><trkpt lat="42.26701182435831" lon="14.167972668617862"><ele>206.0</ele><time>2026-05-01T13:08:10.999Z</time></trkpt><trkpt lat="42.26707653980681" lon="14.168097346975042"><ele>205.4</ele><time>2026-05-01T13:08:12.999Z</time></trkpt><trkpt lat="42.26715284963533" lon="14.168204138243782"><ele>204.8</ele><time>2026-05-01T13:08:14.999Z</time></trkpt><trkpt lat="42.26723777915629" lon="14.16829424839771"><ele>204.20000000000002</ele><time>2026-05-01T13:08:16.999Z</time></trkpt><trkpt lat="42.26731030392388" lon="14.168379634693448"><ele>203.60000000000002</ele><time>2026-05-01T13:08:18.999Z</time></trkpt><trkpt lat="42.267362010369574" lon="14.168476964368205"><ele>203.0</ele><time>2026-05-01T13:08:20.999Z</time></trkpt><trkpt lat="42.26742318402527" lon="14.168545361688489"><ele>200.16666666666669</ele><time>2026-05-01T13:08:22.999Z</time></trkpt><trkpt lat="42.267486761962274" lon="14.168643272240589"><ele>197.33333333333334</ele><time>2026-05-01T13:08:24.999Z</time></trkpt><trkpt lat="42.26756485720002" lon="14.168733095746353"><ele>194.5</ele><time>2026-05-01T13:08:26.999Z</time></trkpt><trkpt lat="42.26764428092889" lon="14.168739398376005"><ele>191.66666666666669</ele><time>2026-05-01T13:08:28.999Z</time></trkpt><trkpt lat="42.26768240013119" lon="14.168670735963428"><ele>188.83333333333334</ele><time>2026-05-01T13:08:31.999Z</time></trkpt><trkpt lat="42.26768623473893" lon="14.168553328113036"><ele>186.0</ele><time>2026-05-01T13:08:33.999Z</time></trkpt><trkpt lat="42.26769678548696" lon="14.168380414828624"><ele>186.0</ele><time>2026-05-01T13:08:35.999Z</time></trkpt><trkpt lat="42.26770858059922" lon="14.168267953315064"><ele>186.0</ele><time>2026-05-01T13:08:36.999Z</time></trkpt><trkpt lat="42.267720520267304" lon="14.16817543298313"><ele>186.0</ele><time>2026-05-01T13:08:37.999Z</time></trkpt><trkpt lat="42.26771799445608" lon="14.1680659919663"><ele>186.0</ele><time>2026-05-01T13:08:39.999Z</time></trkpt><trkpt lat="42.267743545368056" lon="14.16795125815358"><ele>186.0</ele><time>2026-05-01T13:08:42.999Z</time></trkpt><trkpt lat="42.2677440544354" lon="14.16785928141561"><ele>186.0</ele><time>2026-05-01T13:08:45Z</time></trkpt><trkpt lat="42.26774207586912" lon="14.167717244337734"><ele>185.33333333333334</ele><time>2026-05-01T13:08:47Z</time></trkpt><trkpt lat="42.26773353384684" lon="14.167573974994221"><ele>184.66666666666666</ele><time>2026-05-01T13:08:49Z</time></trkpt><trkpt lat="42.26772127274371" lon="14.167415344812293"><ele>184.0</ele><time>2026-05-01T13:08:51Z</time></trkpt><trkpt lat="42.26771398805623" lon="14.167321097580688"><ele>183.33333333333331</ele><time>2026-05-01T13:08:52Z</time></trkpt><trkpt lat="42.26770667233672" lon="14.16722644926002"><ele>182.66666666666666</ele><time>2026-05-01T13:08:53Z</time></trkpt><trkpt lat="42.26769821929733" lon="14.167135757182514"><ele>182.0</ele><time>2026-05-01T13:08:54Z</time></trkpt><trkpt lat="42.26767845334285" lon="14.167050433475714"><ele>181.0</ele><time>2026-05-01T13:08:55Z</time></trkpt><trkpt lat="42.26768755433006" lon="14.166958382611142"><ele>180.0</ele><time>2026-05-01T13:08:56Z</time></trkpt><trkpt lat="42.267689177210336" lon="14.166802548995186"><ele>179.0</ele><time>2026-05-01T13:08:58Z</time></trkpt><trkpt lat="42.2676888277154" lon="14.16669066105214"><ele>178.0</ele><time>2026-05-01T13:09:00Z</time></trkpt><trkpt lat="42.26769158564864" lon="14.166578223675117"><ele>177.0</ele><time>2026-05-01T13:09:02Z</time></trkpt><trkpt lat="42.26771675244272" lon="14.166415857924456"><ele>176.6</ele><time>2026-05-01T13:09:04Z</time></trkpt><trkpt lat="42.26773495986094" lon="14.1663238753522"><ele>176.2</ele><time>2026-05-01T13:09:05Z</time></trkpt><trkpt lat="42.26777368428624" lon="14.166209709041665"><ele>175.8</ele><time>2026-05-01T13:09:07Z</time></trkpt><trkpt lat="42.26784951598702" lon="14.166092357525384"><ele>175.4</ele><time>2026-05-01T13:09:09Z</time></trkpt><trkpt lat="42.267917679499995" lon="14.166007482049578"><ele>175.0</ele><time>2026-05-01T13:09:11Z</time></trkpt><trkpt lat="42.268020868405515" lon="14.165917910253823"><ele>175.0</ele><time>2026-05-01T13:09:13Z</time></trkpt><trkpt lat="42.26809155726809" lon="14.165777841438127"><ele>175.0</ele><time>2026-05-01T13:09:15Z</time></trkpt><trkpt lat="42.26811000928749" lon="14.165612907255257"><ele>175.0</ele><time>2026-05-01T13:09:17Z</time></trkpt><trkpt lat="42.26812156626977" lon="14.165495861593994"><ele>175.0</ele><time>2026-05-01T13:09:19Z</time></trkpt><trkpt lat="42.268116786280686" lon="14.16536071478862"><ele>175.0</ele><time>2026-05-01T13:09:21Z</time></trkpt><trkpt lat="42.26811090164719" lon="14.165194336204948"><ele>174.0</ele><time>2026-05-01T13:09:23Z</time></trkpt><trkpt lat="42.26810325138073" lon="14.16504118278229"><ele>173.0</ele><time>2026-05-01T13:09:25Z</time></trkpt><trkpt lat="42.26809737822425" lon="14.164927542973677"><ele>172.0</ele><time>2026-05-01T13:09:27Z</time></trkpt><trkpt lat="42.26809235747838" lon="14.164772822925173"><ele>171.0</ele><time>2026-05-01T13:09:29Z</time></trkpt><trkpt lat="42.2680900548235" lon="14.16468517795892"><ele>170.0</ele><time>2026-05-01T13:09:30Z</time></trkpt><trkpt lat="42.26808568664235" lon="14.164539600517754"><ele>167.8</ele><time>2026-05-01T13:09:32Z</time></trkpt><trkpt lat="42.26808195982681" lon="14.164441732574264"><ele>165.6</ele><time>2026-05-01T13:09:34Z</time></trkpt><trkpt lat="42.26807814240863" lon="14.164341485016468"><ele>163.4</ele><time>2026-05-01T13:09:36Z</time></trkpt><trkpt lat="42.268070461829815" lon="14.164188025559294"><ele>161.2</ele><time>2026-05-01T13:09:38Z</time></trkpt><trkpt lat="42.268057246804155" lon="14.164018713171707"><ele>159.0</ele><time>2026-05-01T13:09:40Z</time></trkpt><trkpt lat="42.26805039224819" lon="14.163888961802755"><ele>155.6</ele><time>2026-05-01T13:09:42Z</time></trkpt><trkpt lat="42.26804852102262" lon="14.163732216301934"><ele>152.2</ele><time>2026-05-01T13:09:44Z</time></trkpt><trkpt lat="42.26806305793616" lon="14.163646487526144"><ele>148.79999999999998</ele><time>2026-05-01T13:09:45Z</time></trkpt><trkpt lat="42.26810137625769" lon="14.163493689713235"><ele>145.4</ele><time>2026-05-01T13:09:47Z</time></trkpt><trkpt lat="42.26815282996273" lon="14.163345792967855"><ele>142.0</ele><time>2026-05-01T13:09:49Z</time></trkpt><trkpt lat="42.268186984508745" lon="14.163244476985994"><ele>142.66666666666669</ele><time>2026-05-01T13:09:51Z</time></trkpt><trkpt lat="42.2682235221068" lon="14.16313226557619"><ele>143.33333333333334</ele><time>2026-05-01T13:09:53Z</time></trkpt><trkpt lat="42.268287114456804" lon="14.162993214078254"><ele>144.0</ele><time>2026-05-01T13:09:55Z</time></trkpt><trkpt lat="42.26832062611989" lon="14.1629184693963"><ele>144.66666666666666</ele><time>2026-05-01T13:09:56Z</time></trkpt><trkpt lat="42.268355758048024" lon="14.162839436348987"><ele>145.33333333333331</ele><time>2026-05-01T13:09:57Z</time></trkpt><trkpt lat="42.26839652002262" lon="14.16273492739383"><ele>146.0</ele><time>2026-05-01T13:09:58Z</time></trkpt><trkpt lat="42.26845171301867" lon="14.162610840925181"><ele>146.0</ele><time>2026-05-01T13:09:59Z</time></trkpt><trkpt lat="42.26851973910314" lon="14.162488248472425"><ele>146.0</ele><time>2026-05-01T13:10:00Z</time></trkpt><trkpt lat="42.268582616111345" lon="14.162400065184956"><ele>146.0</ele><time>2026-05-01T13:10:01Z</time></trkpt><trkpt lat="42.268637665955374" lon="14.162346327083291"><ele>146.0</ele><time>2026-05-01T13:10:02Z</time></trkpt><trkpt lat="42.268699154904766" lon="14.16230496766391"><ele>146.0</ele><time>2026-05-01T13:10:03Z</time></trkpt><trkpt lat="42.26883317264084" lon="14.162290504444046"><ele>147.66666666666666</ele><time>2026-05-01T13:10:05Z</time></trkpt><trkpt lat="42.26890681527545" lon="14.162304144547825"><ele>149.33333333333331</ele><time>2026-05-01T13:10:06Z</time></trkpt><trkpt lat="42.26897782908021" lon="14.162317686809768"><ele>151.0</ele><time>2026-05-01T13:10:07Z</time></trkpt><trkpt lat="42.26909166329835" lon="14.162310930133623"><ele>152.66666666666666</ele><time>2026-05-01T13:10:09Z</time></trkpt><trkpt lat="42.26917908695601" lon="14.162247108840605"><ele>154.33333333333334</ele><time>2026-05-01T13:10:11Z</time></trkpt><trkpt lat="42.26921540666411" lon="14.162160708786834"><ele>156.0</ele><time>2026-05-01T13:10:12Z</time></trkpt><trkpt lat="42.26926242042146" lon="14.162062065184504"><ele>156.0</ele><time>2026-05-01T13:10:13Z</time></trkpt><trkpt lat="42.26926689902122" lon="14.161933532339422"><ele>156.0</ele><time>2026-05-01T13:10:14Z</time></trkpt><trkpt lat="42.2692499324006" lon="14.161803883877"><ele>156.0</ele><time>2026-05-01T13:10:15Z</time></trkpt><trkpt lat="42.269239040310346" lon="14.16168717228825"><ele>156.0</ele><time>2026-05-01T13:10:16Z</time></trkpt><trkpt lat="42.26923054320947" lon="14.161576881452666"><ele>156.0</ele><time>2026-05-01T13:10:17Z</time></trkpt><trkpt lat="42.26922297953437" lon="14.161478706108264"><ele>156.0</ele><time>2026-05-01T13:10:18Z</time></trkpt><trkpt lat="42.26921587209026" lon="14.161386059258673"><ele>157.16666666666666</ele><time>2026-05-01T13:10:19Z</time></trkpt><trkpt lat="42.26920655119777" lon="14.161269111573874"><ele>158.33333333333334</ele><time>2026-05-01T13:10:20Z</time></trkpt><trkpt lat="42.269195308424585" lon="14.161150691923437"><ele>159.5</ele><time>2026-05-01T13:10:21Z</time></trkpt><trkpt lat="42.26917788926552" lon="14.161047417090266"><ele>160.66666666666669</ele><time>2026-05-01T13:10:22Z</time></trkpt><trkpt lat="42.269160370221975" lon="14.160961866972496"><ele>161.83333333333334</ele><time>2026-05-01T13:10:23Z</time></trkpt><trkpt lat="42.269131310806436" lon="14.160869759812893"><ele>163.0</ele><time>2026-05-01T13:10:24Z</time></trkpt><trkpt lat="42.2690757983563" lon="14.160797160606448"><ele>163.0</ele><time>2026-05-01T13:10:25Z</time></trkpt><trkpt lat="42.269007630665634" lon="14.160755130632099"><ele>163.0</ele><time>2026-05-01T13:10:26Z</time></trkpt><trkpt lat="42.2689254417822" lon="14.160769511880115"><ele>163.0</ele><time>2026-05-01T13:10:27Z</time></trkpt><trkpt lat="42.26884973735251" lon="14.160770929186405"><ele>163.0</ele><time>2026-05-01T13:10:28Z</time></trkpt><trkpt lat="42.26876604576819" lon="14.160762777039833"><ele>163.0</ele><time>2026-05-01T13:10:29Z</time></trkpt><trkpt lat="42.26867273604954" lon="14.160774590632684"><ele>163.0</ele><time>2026-05-01T13:10:30Z</time></trkpt><trkpt lat="42.26858297887287" lon="14.160793344612088"><ele>164.8</ele><time>2026-05-01T13:10:31Z</time></trkpt><trkpt lat="42.26851464293928" lon="14.16080978658116"><ele>166.60000000000002</ele><time>2026-05-01T13:10:32Z</time></trkpt><trkpt lat="42.268423837666276" lon="14.160831556220213"><ele>168.39999999999998</ele><time>2026-05-01T13:10:34Z</time></trkpt><trkpt lat="42.26829695403263" lon="14.160863633572905"><ele>170.2</ele><time>2026-05-01T13:10:36Z</time></trkpt><trkpt lat="42.268199752508565" lon="14.160894044456956"><ele>172.0</ele><time>2026-05-01T13:10:38Z</time></trkpt><trkpt lat="42.26811679730854" lon="14.160920558485163"><ele>172.0</ele><time>2026-05-01T13:10:40Z</time></trkpt><trkpt lat="42.26802720275597" lon="14.160941511034371"><ele>172.0</ele><time>2026-05-01T13:10:42Z</time></trkpt><trkpt lat="42.26791531918802" lon="14.160947085633943"><ele>172.0</ele><time>2026-05-01T13:10:44Z</time></trkpt><trkpt lat="42.26785084036277" lon="14.160941914672236"><ele>172.0</ele><time>2026-05-01T13:10:45Z</time></trkpt><trkpt lat="42.26778107665962" lon="14.16092743349132"><ele>172.0</ele><time>2026-05-01T13:10:46Z</time></trkpt><trkpt lat="42.26768553499683" lon="14.160890401616967"><ele>172.0</ele><time>2026-05-01T13:10:48Z</time></trkpt><trkpt lat="42.267635550753546" lon="14.160820202425983"><ele>172.0</ele><time>2026-05-01T13:10:50Z</time></trkpt><trkpt lat="42.26760994270027" lon="14.160738389015803"><ele>172.0</ele><time>2026-05-01T13:11:11Z</time></trkpt><trkpt lat="42.26770884778774" lon="14.160608879613921"><ele>172.0</ele><time>2026-05-01T13:11:13Z</time></trkpt><trkpt lat="42.26778479723851" lon="14.160549601612596"><ele>172.0</ele><time>2026-05-01T13:11:14Z</time></trkpt><trkpt lat="42.267877862037494" lon="14.160471003138506"><ele>172.0</ele><time>2026-05-01T13:11:15Z</time></trkpt><trkpt lat="42.26793351290894" lon="14.16038503114666"><ele>174.66666666666669</ele><time>2026-05-01T13:11:16Z</time></trkpt><trkpt lat="42.2679963847561" lon="14.160312166926124"><ele>177.33333333333334</ele><time>2026-05-01T13:11:17Z</time></trkpt><trkpt lat="42.26804381403403" lon="14.160240777299192"><ele>180.0</ele><time>2026-05-01T13:11:18Z</time></trkpt><trkpt lat="42.2680831950687" lon="14.160151214587527"><ele>182.66666666666666</ele><time>2026-05-01T13:11:19Z</time></trkpt><trkpt lat="42.26812555472645" lon="14.160057245916066"><ele>185.33333333333331</ele><time>2026-05-01T13:11:20Z</time></trkpt><trkpt lat="42.26817715327525" lon="14.15996577040465"><ele>188.0</ele><time>2026-05-01T13:11:21Z</time></trkpt><trkpt lat="42.2682312554547" lon="14.159867890468744"><ele>190.33333333333331</ele><time>2026-05-01T13:11:22Z</time></trkpt><trkpt lat="42.26827620672009" lon="14.159769772186714"><ele>192.66666666666666</ele><time>2026-05-01T13:11:23Z</time></trkpt><trkpt lat="42.26831823917745" lon="14.159670673877603"><ele>195.0</ele><time>2026-05-01T13:11:24Z</time></trkpt><trkpt lat="42.268351989743756" lon="14.159571126799289"><ele>197.33333333333331</ele><time>2026-05-01T13:11:25Z</time></trkpt><trkpt lat="42.26837532565148" lon="14.159478264176338"><ele>199.66666666666666</ele><time>2026-05-01T13:11:26Z</time></trkpt><trkpt lat="42.268389447235435" lon="14.159390118931494"><ele>202.0</ele><time>2026-05-01T13:11:27Z</time></trkpt><trkpt lat="42.26839372631615" lon="14.159294304903062"><ele>202.0</ele><time>2026-05-01T13:11:28Z</time></trkpt><trkpt lat="42.26838773880009" lon="14.159195288329952"><ele>202.0</ele><time>2026-05-01T13:11:29Z</time></trkpt><trkpt lat="42.26837380901125" lon="14.159098057354685"><ele>202.0</ele><time>2026-05-01T13:11:30Z</time></trkpt><trkpt lat="42.26835901244058" lon="14.158985629638213"><ele>202.0</ele><time>2026-05-01T13:11:31Z</time></trkpt><trkpt lat="42.26833608913532" lon="14.15884340114116"><ele>202.0</ele><time>2026-05-01T13:11:32Z</time></trkpt><trkpt lat="42.26830890704108" lon="14.158688500257645"><ele>204.2</ele><time>2026-05-01T13:11:33Z</time></trkpt><trkpt lat="42.268290357170436" lon="14.158543927684677"><ele>206.39999999999998</ele><time>2026-05-01T13:11:34Z</time></trkpt><trkpt lat="42.26828808001305" lon="14.158414144790665"><ele>208.60000000000002</ele><time>2026-05-01T13:11:35Z</time></trkpt><trkpt lat="42.268289558941824" lon="14.15828824608547"><ele>210.8</ele><time>2026-05-01T13:11:36Z</time></trkpt><trkpt lat="42.26832793423479" lon="14.158170271949096"><ele>213.0</ele><time>2026-05-01T13:11:37Z</time></trkpt><trkpt lat="42.26833524222952" lon="14.15805935953644"><ele>214.8</ele><time>2026-05-01T13:11:38Z</time></trkpt><trkpt lat="42.26834214634129" lon="14.157964788080973"><ele>216.60000000000002</ele><time>2026-05-01T13:11:39Z</time></trkpt><trkpt lat="42.26836022572437" lon="14.157799744937984"><ele>218.39999999999998</ele><time>2026-05-01T13:11:41Z</time></trkpt><trkpt lat="42.26837260673363" lon="14.157712623056181"><ele>220.2</ele><time>2026-05-01T13:11:42Z</time></trkpt><trkpt lat="42.26840637629327" lon="14.157569365399857"><ele>222.0</ele><time>2026-05-01T13:11:44Z</time></trkpt><trkpt lat="42.26845605114755" lon="14.157421229604576"><ele>224.66666666666666</ele><time>2026-05-01T13:11:46Z</time></trkpt><trkpt lat="42.268482518635025" lon="14.157328669993353"><ele>227.33333333333331</ele><time>2026-05-01T13:11:47Z</time></trkpt><trkpt lat="42.2685372793384" lon="14.157280851928407"><ele>230.0</ele><time>2026-05-01T13:11:48Z</time></trkpt><trkpt lat="42.26860509131596" lon="14.157224358088412"><ele>232.66666666666666</ele><time>2026-05-01T13:11:50Z</time></trkpt><trkpt lat="42.26867062330228" lon="14.157211733272021"><ele>235.33333333333331</ele><time>2026-05-01T13:11:51Z</time></trkpt><trkpt lat="42.268760940648995" lon="14.15719952062242"><ele>238.0</ele><time>2026-05-01T13:11:52Z</time></trkpt><trkpt lat="42.268856881327025" lon="14.157205944615123"><ele>238.2</ele><time>2026-05-01T13:11:53Z</time></trkpt><trkpt lat="42.26895509377214" lon="14.15723229728224"><ele>238.4</ele><time>2026-05-01T13:11:54Z</time></trkpt><trkpt lat="42.26905456405727" lon="14.157260911313752"><ele>238.59999999999997</ele><time>2026-05-01T13:11:55Z</time></trkpt><trkpt lat="42.26914541844743" lon="14.157281106463504"><ele>238.79999999999998</ele><time>2026-05-01T13:11:56Z</time></trkpt><trkpt lat="42.269227793178906" lon="14.157293939107852"><ele>239.0</ele><time>2026-05-01T13:11:57Z</time></trkpt><trkpt lat="42.2693003912447" lon="14.157300479455808"><ele>239.00000000000003</ele><time>2026-05-01T13:11:58Z</time></trkpt><trkpt lat="42.269371218127844" lon="14.15732264322906"><ele>239.0</ele><time>2026-05-01T13:12:00Z</time></trkpt><trkpt lat="42.2694574185966" lon="14.157338133625641"><ele>239.0</ele><time>2026-05-01T13:12:02Z</time></trkpt><trkpt lat="42.269549420289096" lon="14.157328230623362"><ele>239.0</ele><time>2026-05-01T13:12:04Z</time></trkpt><trkpt lat="42.26964658612334" lon="14.15726430106526"><ele>239.00000000000003</ele><time>2026-05-01T13:12:06Z</time></trkpt><trkpt lat="42.269709037609694" lon="14.157209457292552"><ele>239.0</ele><time>2026-05-01T13:12:07Z</time></trkpt><trkpt lat="42.26977331410057" lon="14.157149534971744"><ele>238.5714285714286</ele><time>2026-05-01T13:12:08Z</time></trkpt><trkpt lat="42.26982458629167" lon="14.157084612366862"><ele>238.14285714285717</ele><time>2026-05-01T13:12:09Z</time></trkpt><trkpt lat="42.26986943243301" lon="14.157023309662113"><ele>237.71428571428572</ele><time>2026-05-01T13:12:10Z</time></trkpt><trkpt lat="42.26991219818092" lon="14.156959875166432"><ele>237.2857142857143</ele><time>2026-05-01T13:12:11Z</time></trkpt><trkpt lat="42.26994928245979" lon="14.15688211277467"><ele>236.8571428571429</ele><time>2026-05-01T13:12:12Z</time></trkpt><trkpt lat="42.26997926747256" lon="14.156781817026904"><ele>236.42857142857142</ele><time>2026-05-01T13:12:13Z</time></trkpt><trkpt lat="42.27000093696462" lon="14.156667753715176"><ele>236.0</ele><time>2026-05-01T13:12:14Z</time></trkpt><trkpt lat="42.27004173620247" lon="14.156549997284248"><ele>237.8</ele><time>2026-05-01T13:12:15Z</time></trkpt><trkpt lat="42.27005012869302" lon="14.156415200511887"><ele>239.60000000000002</ele><time>2026-05-01T13:12:16Z</time></trkpt><trkpt lat="42.27008476939778" lon="14.156288353289906"><ele>241.4</ele><time>2026-05-01T13:12:17Z</time></trkpt><trkpt lat="42.27012559812804" lon="14.15616692499036"><ele>243.2</ele><time>2026-05-01T13:12:18Z</time></trkpt><trkpt lat="42.27017044851597" lon="14.156049489660665"><ele>245.0</ele><time>2026-05-01T13:12:19Z</time></trkpt><trkpt lat="42.2702161072723" lon="14.155934574426121"><ele>245.00000000000003</ele><time>2026-05-01T13:12:20Z</time></trkpt><trkpt lat="42.270257320893386" lon="14.155831025670349"><ele>245.0</ele><time>2026-05-01T13:12:21Z</time></trkpt><trkpt lat="42.27028449710238" lon="14.155734130869376"><ele>245.0</ele><time>2026-05-01T13:12:22Z</time></trkpt><trkpt lat="42.27031060473875" lon="14.155644467205322"><ele>245.0</ele><time>2026-05-01T13:12:23Z</time></trkpt><trkpt lat="42.27029707865383" lon="14.15555345048515"><ele>245.00000000000003</ele><time>2026-05-01T13:12:24Z</time></trkpt><trkpt lat="42.270246681049365" lon="14.155482131076932"><ele>245.0</ele><time>2026-05-01T13:12:25Z</time></trkpt><trkpt lat="42.27016546582704" lon="14.15540966562705"><ele>247.33333333333334</ele><time>2026-05-01T13:12:35Z</time></trkpt><trkpt lat="42.27010500656251" lon="14.155372082794424"><ele>249.66666666666669</ele><time>2026-05-01T13:12:36Z</time></trkpt><trkpt lat="42.27004174207158" lon="14.155387436840146"><ele>252.0</ele><time>2026-05-01T13:12:37Z</time></trkpt><trkpt lat="42.26971723462288" lon="14.155391117732899"><ele>252.0</ele><time>2026-05-01T13:12:40Z</time></trkpt><trkpt lat="42.26967430315444" lon="14.155228207881796"><ele>252.0</ele><time>2026-05-01T13:12:41Z</time></trkpt><trkpt lat="42.26965984004775" lon="14.155092209801387"><ele>252.0</ele><time>2026-05-01T13:12:43Z</time></trkpt><trkpt lat="42.2699192214687" lon="14.154948598523571"><ele>254.39999999999998</ele><time>2026-05-01T13:12:45Z</time></trkpt><trkpt lat="42.26997853197317" lon="14.154798434835895"><ele>256.79999999999995</ele><time>2026-05-01T13:12:47Z</time></trkpt><trkpt lat="42.27004848332151" lon="14.15467591886224"><ele>259.2</ele><time>2026-05-01T13:12:50Z</time></trkpt><trkpt lat="42.27008910629187" lon="14.154595230973047"><ele>261.59999999999997</ele><time>2026-05-01T13:12:51Z</time></trkpt><trkpt lat="42.27013286680717" lon="14.15449809481514"><ele>264.0</ele><time>2026-05-01T13:12:52Z</time></trkpt><trkpt lat="42.27017575876034" lon="14.154392299193763"><ele>264.0</ele><time>2026-05-01T13:12:53Z</time></trkpt><trkpt lat="42.2702216771725" lon="14.154306661949258"><ele>264.0</ele><time>2026-05-01T13:12:54Z</time></trkpt><trkpt lat="42.270305174127195" lon="14.154152885633755"><ele>264.0</ele><time>2026-05-01T13:12:56Z</time></trkpt><trkpt lat="42.27035890636337" lon="14.15405515652291"><ele>264.0</ele><time>2026-05-01T13:12:57Z</time></trkpt><trkpt lat="42.27043478317762" lon="14.153943583001379"><ele>264.0</ele><time>2026-05-01T13:12:58Z</time></trkpt><trkpt lat="42.27053343875833" lon="14.153819550300863"><ele>265.2</ele><time>2026-05-01T13:12:59Z</time></trkpt><trkpt lat="42.27062779526501" lon="14.153706967514553"><ele>266.4</ele><time>2026-05-01T13:13:00Z</time></trkpt><trkpt lat="42.27070375356425" lon="14.153606629878105"><ele>267.6</ele><time>2026-05-01T13:13:01Z</time></trkpt><trkpt lat="42.27076511874847" lon="14.153518555967015"><ele>268.8</ele><time>2026-05-01T13:13:02Z</time></trkpt><trkpt lat="42.27082363293943" lon="14.15342982000937"><ele>270.0</ele><time>2026-05-01T13:13:03Z</time></trkpt><trkpt lat="42.27088207804207" lon="14.153343379632027"><ele>270.0</ele><time>2026-05-01T13:13:04Z</time></trkpt><trkpt lat="42.27093546485855" lon="14.153245025110165"><ele>270.0</ele><time>2026-05-01T13:13:05Z</time></trkpt><trkpt lat="42.270985128203534" lon="14.153149411576063"><ele>270.0</ele><time>2026-05-01T13:13:06Z</time></trkpt><trkpt lat="42.2710295812656" lon="14.153054303096184"><ele>270.0</ele><time>2026-05-01T13:13:07Z</time></trkpt><trkpt lat="42.271065830819815" lon="14.152923644474091"><ele>270.0</ele><time>2026-05-01T13:13:09Z</time></trkpt><trkpt lat="42.271084615624645" lon="14.152822745278753"><ele>270.0</ele><time>2026-05-01T13:13:11Z</time></trkpt><trkpt lat="42.271091002014906" lon="14.1527269467472"><ele>268.75</ele><time>2026-05-01T13:13:13Z</time></trkpt><trkpt lat="42.2712319716019" lon="14.152627520334931"><ele>267.5</ele><time>2026-05-01T13:13:46Z</time></trkpt><trkpt lat="42.271325943985325" lon="14.152584494858262"><ele>266.25</ele><time>2026-05-01T13:13:48Z</time></trkpt><trkpt lat="42.27142015718068" lon="14.15254215257745"><ele>265.0</ele><time>2026-05-01T13:13:50Z</time></trkpt><trkpt lat="42.27152249862731" lon="14.152496157078634"><ele>265.0</ele><time>2026-05-01T13:13:52Z</time></trkpt><trkpt lat="42.271618920977204" lon="14.152452821825195"><ele>265.0</ele><time>2026-05-01T13:13:54Z</time></trkpt><trkpt lat="42.271702923293596" lon="14.152415068543823"><ele>265.0</ele><time>2026-05-01T13:13:56Z</time></trkpt><trkpt lat="42.27176569564883" lon="14.15238685665273"><ele>265.0</ele><time>2026-05-01T13:13:58Z</time></trkpt><trkpt lat="42.271902552772715" lon="14.152377638505934"><ele>265.0</ele><time>2026-05-01T13:13:59Z</time></trkpt><trkpt lat="42.272108028788374" lon="14.153042067525062"><ele>265.0</ele><time>2026-05-01T13:14:08Z</time></trkpt><trkpt lat="42.272144148649" lon="14.153119343001773"><ele>265.0</ele><time>2026-05-01T13:14:10Z</time></trkpt><trkpt lat="42.27218284221607" lon="14.1532083749749"><ele>265.0</ele><time>2026-05-01T13:14:12Z</time></trkpt><trkpt lat="42.27224029664014" lon="14.153303853810828"><ele>265.0</ele><time>2026-05-01T13:14:14Z</time></trkpt><trkpt lat="42.272315948715395" lon="14.153393629377879"><ele>265.0</ele><time>2026-05-01T13:14:16Z</time></trkpt><trkpt lat="42.272379299607664" lon="14.153488718065894"><ele>265.0</ele><time>2026-05-01T13:14:18Z</time></trkpt><trkpt lat="42.27244961334823" lon="14.153584616049777"><ele>260.4</ele><time>2026-05-01T13:14:20Z</time></trkpt><trkpt lat="42.27251462926973" lon="14.153691743214244"><ele>255.8</ele><time>2026-05-01T13:14:22Z</time></trkpt><trkpt lat="42.27256750879585" lon="14.15379642540978"><ele>251.2</ele><time>2026-05-01T13:14:24Z</time></trkpt><trkpt lat="42.272620515810424" lon="14.153886690305077"><ele>246.6</ele><time>2026-05-01T13:14:26Z</time></trkpt><trkpt lat="42.27269669165529" lon="14.153957627399661"><ele>242.0</ele><time>2026-05-01T13:14:28Z</time></trkpt><trkpt lat="42.27278140204371" lon="14.154030510362913"><ele>239.39999999999998</ele><time>2026-05-01T13:14:30Z</time></trkpt><trkpt lat="42.27286571560729" lon="14.154120474449861"><ele>236.79999999999998</ele><time>2026-05-01T13:14:32Z</time></trkpt><trkpt lat="42.27296162983778" lon="14.154181829992519"><ele>234.2</ele><time>2026-05-01T13:14:34Z</time></trkpt><trkpt lat="42.27305956011219" lon="14.154235066281647"><ele>231.6</ele><time>2026-05-01T13:14:36Z</time></trkpt><trkpt lat="42.2731603844386" lon="14.154295578722092"><ele>229.0</ele><time>2026-05-01T13:14:38Z</time></trkpt><trkpt lat="42.27324785976196" lon="14.154352643266785"><ele>226.49999999999997</ele><time>2026-05-01T13:14:40Z</time></trkpt><trkpt lat="42.27332083856931" lon="14.154419710689181"><ele>224.0</ele><time>2026-05-01T13:14:42Z</time></trkpt><trkpt lat="42.27336565366718" lon="14.154533180078037"><ele>221.5</ele><time>2026-05-01T13:14:44Z</time></trkpt><trkpt lat="42.27339916411179" lon="14.154647544153407"><ele>219.0</ele><time>2026-05-01T13:14:46Z</time></trkpt><trkpt lat="42.27342584671049" lon="14.154751810134648"><ele>216.49999999999997</ele><time>2026-05-01T13:14:48Z</time></trkpt><trkpt lat="42.273441749061035" lon="14.154856887007059"><ele>214.0</ele><time>2026-05-01T13:14:50Z</time></trkpt><trkpt lat="42.273459665645454" lon="14.154954633513864"><ele>211.0</ele><time>2026-05-01T13:14:52Z</time></trkpt><trkpt lat="42.273512944222716" lon="14.15505382969485"><ele>207.99999999999997</ele><time>2026-05-01T13:14:54Z</time></trkpt><trkpt lat="42.27359557142512" lon="14.15512750260504"><ele>205.0</ele><time>2026-05-01T13:14:56Z</time></trkpt><trkpt lat="42.2736706656527" lon="14.155179322061814"><ele>202.0</ele><time>2026-05-01T13:14:58Z</time></trkpt><trkpt lat="42.27376372657265" lon="14.155231476014645"><ele>199.0</ele><time>2026-05-01T13:15:00Z</time></trkpt><trkpt lat="42.273851145103365" lon="14.155307855221775"><ele>199.0</ele><time>2026-05-01T13:15:02Z</time></trkpt><trkpt lat="42.273910632257284" lon="14.155424709762768"><ele>199.0</ele><time>2026-05-01T13:15:04Z</time></trkpt><trkpt lat="42.273966080346916" lon="14.155543233050176"><ele>199.0</ele><time>2026-05-01T13:15:06Z</time></trkpt><trkpt lat="42.274022831739146" lon="14.155630797742447"><ele>199.0</ele><time>2026-05-01T13:15:08Z</time></trkpt><trkpt lat="42.27411660669256" lon="14.155653701439306"><ele>199.0</ele><time>2026-05-01T13:15:10Z</time></trkpt><trkpt lat="42.27419374127145" lon="14.155708296540354"><ele>196.39999999999998</ele><time>2026-05-01T13:15:12Z</time></trkpt><trkpt lat="42.27423286602274" lon="14.155820777952963"><ele>193.8</ele><time>2026-05-01T13:15:14Z</time></trkpt><trkpt lat="42.27425460663211" lon="14.155947231429622"><ele>191.2</ele><time>2026-05-01T13:15:16Z</time></trkpt><trkpt lat="42.2742855152623" lon="14.156075487972355"><ele>188.60000000000002</ele><time>2026-05-01T13:15:18Z</time></trkpt><trkpt lat="42.27433329633874" lon="14.156202206312166"><ele>186.0</ele><time>2026-05-01T13:15:20Z</time></trkpt><trkpt lat="42.274381747455074" lon="14.156308146467625"><ele>186.0</ele><time>2026-05-01T13:15:22Z</time></trkpt><trkpt lat="42.27441395855883" lon="14.156406806150086"><ele>186.0</ele><time>2026-05-01T13:15:24Z</time></trkpt><trkpt lat="42.27444123182659" lon="14.156523027979427"><ele>186.0</ele><time>2026-05-01T13:15:26Z</time></trkpt><trkpt lat="42.27449875937823" lon="14.15658143568866"><ele>186.0</ele><time>2026-05-01T13:15:28Z</time></trkpt><trkpt lat="42.27457768349157" lon="14.156637588474721"><ele>186.0</ele><time>2026-05-01T13:15:31Z</time></trkpt><trkpt lat="42.27462282048504" lon="14.156697559151164"><ele>186.0</ele><time>2026-05-01T13:15:33Z</time></trkpt><trkpt lat="42.274687709146335" lon="14.156700409661449"><ele>183.57142857142858</ele><time>2026-05-01T13:15:36Z</time></trkpt><trkpt lat="42.27476351277553" lon="14.15666634313422"><ele>181.14285714285714</ele><time>2026-05-01T13:15:40Z</time></trkpt><trkpt lat="42.27483120987295" lon="14.156635257093134"><ele>178.71428571428572</ele><time>2026-05-01T13:15:43Z</time></trkpt><trkpt lat="42.27490433955733" lon="14.156614224720586"><ele>176.28571428571428</ele><time>2026-05-01T13:15:46Z</time></trkpt><trkpt lat="42.2749679999912" lon="14.15662194636498"><ele>173.85714285714286</ele><time>2026-05-01T13:15:50Z</time></trkpt><trkpt lat="42.27503347696701" lon="14.15660951064611"><ele>171.42857142857144</ele><time>2026-05-01T13:15:56Z</time></trkpt><trkpt lat="42.275103026085766" lon="14.156594071115517"><ele>169.0</ele><time>2026-05-01T13:16:01Z</time></trkpt><trkpt lat="42.27518163522206" lon="14.156554879722274"><ele>169.71428571428572</ele><time>2026-05-01T13:16:06Z</time></trkpt><trkpt lat="42.27524720152358" lon="14.156504369993463"><ele>170.42857142857142</ele><time>2026-05-01T13:16:09Z</time></trkpt><trkpt lat="42.27531142033264" lon="14.156463782799124"><ele>171.14285714285714</ele><time>2026-05-01T13:16:12Z</time></trkpt><trkpt lat="42.275373784581355" lon="14.156426919733413"><ele>171.85714285714286</ele><time>2026-05-01T13:16:16Z</time></trkpt><trkpt lat="42.27545775195276" lon="14.156436338922813"><ele>172.57142857142858</ele><time>2026-05-01T13:16:19Z</time></trkpt><trkpt lat="42.27550878171661" lon="14.156513070352688"><ele>173.28571428571428</ele><time>2026-05-01T13:16:22Z</time></trkpt><trkpt lat="42.27555872547757" lon="14.156586918134042"><ele>174.0</ele><time>2026-05-01T13:16:24.999Z</time></trkpt><trkpt lat="42.27563550656886" lon="14.156649179438238"><ele>170.39999999999998</ele><time>2026-05-01T13:16:29.999Z</time></trkpt><trkpt lat="42.27567909863929" lon="14.156781931549858"><ele>166.79999999999998</ele><time>2026-05-01T13:16:32.999Z</time></trkpt><trkpt lat="42.27567424582326" lon="14.156868965299733"><ele>163.2</ele><time>2026-05-01T13:16:33.999Z</time></trkpt><trkpt lat="42.27575119721827" lon="14.156833061638245"><ele>159.6</ele><time>2026-05-01T13:16:40.999Z</time></trkpt><trkpt lat="42.2758338641285" lon="14.156734951424374"><ele>156.0</ele><time>2026-05-01T13:16:42.999Z</time></trkpt><trkpt lat="42.27592978200857" lon="14.156615370614865"><ele>156.0</ele><time>2026-05-01T13:16:44.999Z</time></trkpt><trkpt lat="42.27598463153056" lon="14.156555770406689"><ele>156.0</ele><time>2026-05-01T13:16:45.999Z</time></trkpt><trkpt lat="42.27604854268735" lon="14.156508715926154"><ele>156.0</ele><time>2026-05-01T13:16:46.999Z</time></trkpt><trkpt lat="42.27611224316758" lon="14.15646924209589"><ele>156.0</ele><time>2026-05-01T13:16:47.999Z</time></trkpt><trkpt lat="42.27617361614942" lon="14.156430925240237"><ele>156.0</ele><time>2026-05-01T13:16:48.999Z</time></trkpt><trkpt lat="42.2762366143475" lon="14.156390139306156"><ele>156.0</ele><time>2026-05-01T13:16:49.999Z</time></trkpt><trkpt lat="42.2762979112948" lon="14.15634834598805"><ele>156.0</ele><time>2026-05-01T13:16:50.999Z</time></trkpt><trkpt lat="42.276354987269166" lon="14.156308227806871"><ele>156.0</ele><time>2026-05-01T13:16:51.999Z</time></trkpt><trkpt lat="42.27645743204645" lon="14.156217750800083"><ele>156.0</ele><time>2026-05-01T13:16:53.999Z</time></trkpt><trkpt lat="42.27651306556206" lon="14.156163708479186"><ele>156.0</ele><time>2026-05-01T13:16:54.999Z</time></trkpt><trkpt lat="42.27657142276158" lon="14.156129803514526"><ele>156.0</ele><time>2026-05-01T13:16:55.999Z</time></trkpt><trkpt lat="42.276634849825605" lon="14.15609919018021"><ele>156.0</ele><time>2026-05-01T13:16:56.999Z</time></trkpt><trkpt lat="42.276744530242745" lon="14.156037268864862"><ele>156.0</ele><time>2026-05-01T13:16:58.999Z</time></trkpt><trkpt lat="42.27686220207042" lon="14.155972837520324"><ele>156.0</ele><time>2026-05-01T13:17:00.999Z</time></trkpt><trkpt lat="42.27692401333308" lon="14.155909746957594"><ele>156.0</ele><time>2026-05-01T13:17:01.999Z</time></trkpt><trkpt lat="42.27699958938394" lon="14.155862345402648"><ele>156.0</ele><time>2026-05-01T13:17:02.999Z</time></trkpt><trkpt lat="42.27707427829683" lon="14.155815500252926"><ele>156.0</ele><time>2026-05-01T13:17:03.999Z</time></trkpt><trkpt lat="42.277143843319514" lon="14.155771868821688"><ele>156.0</ele><time>2026-05-01T13:17:04.999Z</time></trkpt><trkpt lat="42.27720602887709" lon="14.155732865833043"><ele>156.0</ele><time>2026-05-01T13:17:05.999Z</time></trkpt><trkpt lat="42.27727968061556" lon="14.15568667117836"><ele>156.0</ele><time>2026-05-01T13:17:08Z</time></trkpt><trkpt lat="42.27735367869426" lon="14.15564025938435"><ele>156.0</ele><time>2026-05-01T13:17:11Z</time></trkpt><trkpt lat="42.277454525678905" lon="14.155576945446004"><ele>156.0</ele><time>2026-05-01T13:17:13Z</time></trkpt><trkpt lat="42.27754075133983" lon="14.155522810649195"><ele>156.0</ele><time>2026-05-01T13:17:14Z</time></trkpt><trkpt lat="42.27762845275744" lon="14.15546774932691"><ele>156.0</ele><time>2026-05-01T13:17:15Z</time></trkpt><trkpt lat="42.27771036721222" lon="14.155416321242503"><ele>156.0</ele><time>2026-05-01T13:17:16Z</time></trkpt><trkpt lat="42.277785190115054" lon="14.155369345385354"><ele>156.0</ele><time>2026-05-01T13:17:17Z</time></trkpt><trkpt lat="42.27785505301312" lon="14.155325483576755"><ele>156.0</ele><time>2026-05-01T13:17:18Z</time></trkpt><trkpt lat="42.27792755488565" lon="14.155279964974948"><ele>156.0</ele><time>2026-05-01T13:17:19Z</time></trkpt><trkpt lat="42.278000443697" lon="14.155234203422053"><ele>156.0</ele><time>2026-05-01T13:17:20Z</time></trkpt><trkpt lat="42.27807505980397" lon="14.155187401161138"><ele>156.0</ele><time>2026-05-01T13:17:21Z</time></trkpt><trkpt lat="42.27815212183802" lon="14.155139172800286"><ele>155.14285714285714</ele><time>2026-05-01T13:17:22Z</time></trkpt><trkpt lat="42.27822453952538" lon="14.155093851089417"><ele>154.28571428571428</ele><time>2026-05-01T13:17:23Z</time></trkpt><trkpt lat="42.27828454773643" lon="14.155056295721025"><ele>153.42857142857142</ele><time>2026-05-01T13:17:24Z</time></trkpt><trkpt lat="42.27835340818365" lon="14.155013200265916"><ele>152.57142857142856</ele><time>2026-05-01T13:17:25Z</time></trkpt><trkpt lat="42.27841677976942" lon="14.154973539954526"><ele>151.71428571428572</ele><time>2026-05-01T13:17:26Z</time></trkpt><trkpt lat="42.27850185940806" lon="14.154920293955414"><ele>150.85714285714283</ele><time>2026-05-01T13:17:27Z</time></trkpt><trkpt lat="42.27855940061727" lon="14.154884282501135"><ele>150.0</ele><time>2026-05-01T13:17:28Z</time></trkpt><trkpt lat="42.27864522201601" lon="14.154830572333209"><ele>150.0</ele><time>2026-05-01T13:17:30Z</time></trkpt><trkpt lat="42.278728246839506" lon="14.15477861221164"><ele>150.0</ele><time>2026-05-01T13:17:32Z</time></trkpt><trkpt lat="42.27884615279945" lon="14.154704822225936"><ele>150.0</ele><time>2026-05-01T13:17:34Z</time></trkpt><trkpt lat="42.27892816970949" lon="14.154653492067935"><ele>150.0</ele><time>2026-05-01T13:17:35Z</time></trkpt><trkpt lat="42.27902126225784" lon="14.154595230106706"><ele>150.0</ele><time>2026-05-01T13:17:36Z</time></trkpt><trkpt lat="42.2791183756482" lon="14.154534451644453"><ele>148.2</ele><time>2026-05-01T13:17:37Z</time></trkpt><trkpt lat="42.27921382590572" lon="14.154474686550248"><ele>146.4</ele><time>2026-05-01T13:17:38Z</time></trkpt><trkpt lat="42.27930274368687" lon="14.154418984489093"><ele>144.6</ele><time>2026-05-01T13:17:39Z</time></trkpt><trkpt lat="42.279379053779785" lon="14.154371180410307"><ele>142.8</ele><time>2026-05-01T13:17:40Z</time></trkpt><trkpt lat="42.279444243435556" lon="14.154329966202981"><ele>141.0</ele><time>2026-05-01T13:17:41Z</time></trkpt><trkpt lat="42.27954325851032" lon="14.154267319340208"><ele>141.0</ele><time>2026-05-01T13:17:43Z</time></trkpt><trkpt lat="42.27964600164608" lon="14.154202990611278"><ele>141.0</ele><time>2026-05-01T13:17:45Z</time></trkpt><trkpt lat="42.27972602807675" lon="14.154152971407594"><ele>141.0</ele><time>2026-05-01T13:17:46Z</time></trkpt><trkpt lat="42.279812731971674" lon="14.15409877857433"><ele>141.0</ele><time>2026-05-01T13:17:47Z</time></trkpt><trkpt lat="42.27990615787916" lon="14.1540403842256"><ele>141.0</ele><time>2026-05-01T13:17:48Z</time></trkpt><trkpt lat="42.27999475444026" lon="14.15398627385014"><ele>141.4</ele><time>2026-05-01T13:17:49Z</time></trkpt><trkpt lat="42.28009202469963" lon="14.153927267679112"><ele>141.8</ele><time>2026-05-01T13:17:50Z</time></trkpt><trkpt lat="42.28018554319158" lon="14.153870537320579"><ele>142.20000000000002</ele><time>2026-05-01T13:17:51Z</time></trkpt><trkpt lat="42.28027071284089" lon="14.153820336856755"><ele>142.6</ele><time>2026-05-01T13:17:52Z</time></trkpt><trkpt lat="42.280339501464205" lon="14.153780157899666"><ele>143.0</ele><time>2026-05-01T13:17:52.999Z</time></trkpt><trkpt lat="42.28040821055075" lon="14.153740025454857"><ele>143.0</ele><time>2026-05-01T13:17:53.999Z</time></trkpt><trkpt lat="42.28049120507888" lon="14.153695175885984"><ele>143.0</ele><time>2026-05-01T13:17:54.999Z</time></trkpt><trkpt lat="42.280568457319106" lon="14.153656058876786"><ele>143.0</ele><time>2026-05-01T13:17:55.999Z</time></trkpt><trkpt lat="42.28065832828909" lon="14.153612134806652"><ele>143.0</ele><time>2026-05-01T13:17:56.999Z</time></trkpt><trkpt lat="42.28074842620556" lon="14.153568642529356"><ele>143.0</ele><time>2026-05-01T13:17:57.999Z</time></trkpt><trkpt lat="42.280823050355615" lon="14.15353413837742"><ele>143.0</ele><time>2026-05-01T13:17:58.999Z</time></trkpt><trkpt lat="42.280887591014654" lon="14.153504336931418"><ele>141.0</ele><time>2026-05-01T13:17:59.999Z</time></trkpt><trkpt lat="42.280992684578536" lon="14.153456762497209"><ele>139.0</ele><time>2026-05-01T13:18:01.999Z</time></trkpt><trkpt lat="42.28108380333703" lon="14.153415137089263"><ele>137.0</ele><time>2026-05-01T13:18:03.999Z</time></trkpt><trkpt lat="42.28118931286137" lon="14.153372557220255"><ele>135.0</ele><time>2026-05-01T13:18:06.999Z</time></trkpt><trkpt lat="42.28127657089036" lon="14.153338026373001"><ele>133.0</ele><time>2026-05-01T13:18:08.999Z</time></trkpt><trkpt lat="42.281361768114515" lon="14.153494153794895"><ele>130.8</ele><time>2026-05-01T13:18:09.999Z</time></trkpt><trkpt lat="42.28145180778566" lon="14.153415698833536"><ele>128.60000000000002</ele><time>2026-05-01T13:18:11.999Z</time></trkpt><trkpt lat="42.281528929682764" lon="14.153289167233098"><ele>126.39999999999999</ele><time>2026-05-01T13:18:13.999Z</time></trkpt><trkpt lat="42.28160006980302" lon="14.153222601238353"><ele>124.19999999999999</ele><time>2026-05-01T13:18:14.999Z</time></trkpt><trkpt lat="42.28168073025165" lon="14.153173635188741"><ele>122.0</ele><time>2026-05-01T13:18:15.999Z</time></trkpt><trkpt lat="42.28176043305185" lon="14.153137078617469"><ele>121.6</ele><time>2026-05-01T13:18:16.999Z</time></trkpt><trkpt lat="42.28183859113928" lon="14.153110130954003"><ele>121.19999999999999</ele><time>2026-05-01T13:18:17.999Z</time></trkpt><trkpt lat="42.28190371762379" lon="14.153093997232958"><ele>120.8</ele><time>2026-05-01T13:18:18.999Z</time></trkpt><trkpt lat="42.28203504817983" lon="14.15307307125641"><ele>120.4</ele><time>2026-05-01T13:18:20.999Z</time></trkpt><trkpt lat="42.282126849354874" lon="14.153042838174946"><ele>120.0</ele><time>2026-05-01T13:18:21.999Z</time></trkpt><trkpt lat="42.28221225701254" lon="14.153011611867408"><ele>119.5</ele><time>2026-05-01T13:18:22.999Z</time></trkpt><trkpt lat="42.28228296047442" lon="14.152996529793972"><ele>119.0</ele><time>2026-05-01T13:18:23.999Z</time></trkpt><trkpt lat="42.28237833125524" lon="14.152989818075946"><ele>118.5</ele><time>2026-05-01T13:18:25.999Z</time></trkpt><trkpt lat="42.28244872615738" lon="14.152949858718037"><ele>118.0</ele><time>2026-05-01T13:18:29.999Z</time></trkpt><trkpt lat="42.28249697144536" lon="14.152878631118638"><ele>117.5</ele><time>2026-05-01T13:18:32.999Z</time></trkpt><trkpt lat="42.28249769475915" lon="14.152777895371244"><ele>117.0</ele><time>2026-05-01T13:18:34.999Z</time></trkpt><trkpt lat="42.28246746040105" lon="14.152658916543803"><ele>117.0</ele><time>2026-05-01T13:18:36.999Z</time></trkpt><trkpt lat="42.28245071956803" lon="14.152563117929722"><ele>117.0</ele><time>2026-05-01T13:18:37.999Z</time></trkpt><trkpt lat="42.282433958937986" lon="14.15245038332348"><ele>117.0</ele><time>2026-05-01T13:18:38.999Z</time></trkpt><trkpt lat="42.28240453306514" lon="14.152352784634544"><ele>117.0</ele><time>2026-05-01T13:18:39.999Z</time></trkpt><trkpt lat="42.282372253394634" lon="14.152277436166061"><ele>117.0</ele><time>2026-05-01T13:18:40.999Z</time></trkpt><trkpt lat="42.282321204291485" lon="14.15216977947063"><ele>117.0</ele><time>2026-05-01T13:18:42.999Z</time></trkpt><trkpt lat="42.28235872437863" lon="14.152082898523421"><ele>117.39999999999999</ele><time>2026-05-01T13:18:49.999Z</time></trkpt><trkpt lat="42.28244913539307" lon="14.152097870822871"><ele>117.79999999999998</ele><time>2026-05-01T13:18:51.999Z</time></trkpt><trkpt lat="42.282542638754975" lon="14.152108073418521"><ele>118.2</ele><time>2026-05-01T13:18:53.999Z</time></trkpt><trkpt lat="42.28261628887196" lon="14.152115534917055"><ele>118.6</ele><time>2026-05-01T13:18:54.999Z</time></trkpt><trkpt lat="42.28271864188274" lon="14.152131121159588"><ele>119.0</ele><time>2026-05-01T13:18:55.999Z</time></trkpt><trkpt lat="42.28280969932172" lon="14.152148318301911"><ele>119.0</ele><time>2026-05-01T13:18:56.999Z</time></trkpt><trkpt lat="42.28289878189282" lon="14.152146654565765"><ele>119.0</ele><time>2026-05-01T13:18:57.999Z</time></trkpt><trkpt lat="42.28298037362257" lon="14.15211413960447"><ele>119.0</ele><time>2026-05-01T13:18:58.999Z</time></trkpt><trkpt lat="42.28304066829352" lon="14.152031674891719"><ele>119.0</ele><time>2026-05-01T13:18:59.999Z</time></trkpt><trkpt lat="42.28307607609604" lon="14.151913130165829"><ele>119.0</ele><time>2026-05-01T13:19:00.999Z</time></trkpt><trkpt lat="42.283093290902656" lon="14.151785566696345"><ele>120.33333333333333</ele><time>2026-05-01T13:19:01.999Z</time></trkpt><trkpt lat="42.28310584191288" lon="14.151660370423357"><ele>121.66666666666666</ele><time>2026-05-01T13:19:02.999Z</time></trkpt><trkpt lat="42.28311822333721" lon="14.151545689878409"><ele>123.0</ele><time>2026-05-01T13:19:03.999Z</time></trkpt><trkpt lat="42.28313161044649" lon="14.151448786903687"><ele>124.33333333333334</ele><time>2026-05-01T13:19:04.999Z</time></trkpt><trkpt lat="42.283151575590566" lon="14.151353225263094"><ele>125.66666666666667</ele><time>2026-05-01T13:19:05.999Z</time></trkpt><trkpt lat="42.28318322333053" lon="14.151271402937544"><ele>127.0</ele><time>2026-05-01T13:19:06.999Z</time></trkpt><trkpt lat="42.2832234171965" lon="14.151141761686551"><ele>126.0</ele><time>2026-05-01T13:19:08.999Z</time></trkpt><trkpt lat="42.28308173235631" lon="14.150968943744246"><ele>125.0</ele><time>2026-05-01T13:19:12.999Z</time></trkpt><trkpt lat="42.28298790062919" lon="14.150914039955488"><ele>124.0</ele><time>2026-05-01T13:19:13.999Z</time></trkpt><trkpt lat="42.28287443404843" lon="14.15085617232748"><ele>123.0</ele><time>2026-05-01T13:19:14.999Z</time></trkpt><trkpt lat="42.28276529804275" lon="14.15075678640954"><ele>125.25</ele><time>2026-05-01T13:19:15.999Z</time></trkpt><trkpt lat="42.28266427282645" lon="14.150656399994334"><ele>127.5</ele><time>2026-05-01T13:19:16.999Z</time></trkpt><trkpt lat="42.2825827422547" lon="14.150515739088293"><ele>129.75</ele><time>2026-05-01T13:19:17.999Z</time></trkpt><trkpt lat="42.28250097949842" lon="14.150378456739046"><ele>132.0</ele><time>2026-05-01T13:19:18.999Z</time></trkpt><trkpt lat="42.282422555753044" lon="14.150232514769057"><ele>132.0</ele><time>2026-05-01T13:19:19.999Z</time></trkpt><trkpt lat="42.28234476029239" lon="14.15008813532092"><ele>132.0</ele><time>2026-05-01T13:19:20.999Z</time></trkpt><trkpt lat="42.282270849554045" lon="14.149936505538024"><ele>132.0</ele><time>2026-05-01T13:19:21.999Z</time></trkpt><trkpt lat="42.28219125670932" lon="14.14978660871056"><ele>132.0</ele><time>2026-05-01T13:19:22.999Z</time></trkpt><trkpt lat="42.282112407551914" lon="14.14963630310089"><ele>131.0</ele><time>2026-05-01T13:19:23.999Z</time></trkpt><trkpt lat="42.28203393389493" lon="14.149485544834446"><ele>130.0</ele><time>2026-05-01T13:19:24.999Z</time></trkpt><trkpt lat="42.2819553290719" lon="14.149334436117478"><ele>129.0</ele><time>2026-05-01T13:19:25.999Z</time></trkpt><trkpt lat="42.28187856967041" lon="14.14918389730791"><ele>128.0</ele><time>2026-05-01T13:19:26.999Z</time></trkpt><trkpt lat="42.2818003059277" lon="14.14903574054465"><ele>128.0</ele><time>2026-05-01T13:19:27.999Z</time></trkpt><trkpt lat="42.28172570647507" lon="14.14888803181861"><ele>128.0</ele><time>2026-05-01T13:19:28.999Z</time></trkpt><trkpt lat="42.28165196549606" lon="14.14874283038041"><ele>128.0</ele><time>2026-05-01T13:19:29.999Z</time></trkpt><trkpt lat="42.281578175562885" lon="14.148597794661717"><ele>128.0</ele><time>2026-05-01T13:19:30.999Z</time></trkpt><trkpt lat="42.281507270532494" lon="14.148443565623172"><ele>128.0</ele><time>2026-05-01T13:19:31.999Z</time></trkpt><trkpt lat="42.28143715091795" lon="14.148283105659644"><ele>128.0</ele><time>2026-05-01T13:19:32.999Z</time></trkpt><trkpt lat="42.281368188279686" lon="14.148122318471945"><ele>128.0</ele><time>2026-05-01T13:19:33.999Z</time></trkpt><trkpt lat="42.28129862344159" lon="14.147963263255503"><ele>128.0</ele><time>2026-05-01T13:19:34.999Z</time></trkpt><trkpt lat="42.28124041962978" lon="14.147821328054869"><ele>126.99999999999999</ele><time>2026-05-01T13:19:35.999Z</time></trkpt><trkpt lat="42.28119431431921" lon="14.147702427043075"><ele>126.0</ele><time>2026-05-01T13:19:36.999Z</time></trkpt><trkpt lat="42.28115052793917" lon="14.147576674553386"><ele>125.0</ele><time>2026-05-01T13:19:38.999Z</time></trkpt><trkpt lat="42.281134776596595" lon="14.147486082524463"><ele>124.0</ele><time>2026-05-01T13:19:40.999Z</time></trkpt><trkpt lat="42.28108899628119" lon="14.14741302519114"><ele>122.99999999999999</ele><time>2026-05-01T13:19:44.999Z</time></trkpt><trkpt lat="42.28112340692995" lon="14.147494191667029"><ele>122.0</ele><time>2026-05-01T13:19:47.999Z</time></trkpt><trkpt lat="42.281115344713115" lon="14.147597190730451"><ele>121.99999999999999</ele><time>2026-05-01T13:19:48.999Z</time></trkpt><trkpt lat="42.28116015797474" lon="14.147664967454686"><ele>122.0</ele><time>2026-05-01T13:19:50.999Z</time></trkpt><trkpt lat="42.28123858223456" lon="14.147609814989394"><ele>122.0</ele><time>2026-05-01T13:19:54.999Z</time></trkpt><trkpt lat="42.281340134764974" lon="14.147506381047599"><ele>122.0</ele><time>2026-05-01T13:19:56.999Z</time></trkpt><trkpt lat="42.28140064165408" lon="14.147446430655272"><ele>121.99999999999999</ele><time>2026-05-01T13:19:57.999Z</time></trkpt><trkpt lat="42.28145575585868" lon="14.147385149309383"><ele>122.0</ele><time>2026-05-01T13:19:58.999Z</time></trkpt><trkpt lat="42.28150160394155" lon="14.147319420309897"><ele>123.8</ele><time>2026-05-01T13:19:59.999Z</time></trkpt><trkpt lat="42.281553209764674" lon="14.14716787641486"><ele>125.6</ele><time>2026-05-01T13:20:01.999Z</time></trkpt><trkpt lat="42.281582822992426" lon="14.147090966823741"><ele>127.39999999999999</ele><time>2026-05-01T13:20:02.999Z</time></trkpt><trkpt lat="42.281617195799136" lon="14.14692993736917"><ele>129.2</ele><time>2026-05-01T13:20:04.999Z</time></trkpt><trkpt lat="42.28158605713111" lon="14.146788670237937"><ele>131.0</ele><time>2026-05-01T13:20:06.999Z</time></trkpt><trkpt lat="42.281571966425254" lon="14.146634337009758"><ele>131.16666666666666</ele><time>2026-05-01T13:20:08.999Z</time></trkpt><trkpt lat="42.281552768744035" lon="14.146505193154855"><ele>131.33333333333331</ele><time>2026-05-01T13:20:10.999Z</time></trkpt><trkpt lat="42.28152119926616" lon="14.14636410693421"><ele>131.5</ele><time>2026-05-01T13:20:12.999Z</time></trkpt><trkpt lat="42.28149716590329" lon="14.14626524608819"><ele>131.66666666666666</ele><time>2026-05-01T13:20:15.999Z</time></trkpt><trkpt lat="42.28147823267359" lon="14.146180266775014"><ele>131.83333333333334</ele><time>2026-05-01T13:20:41.999Z</time></trkpt><trkpt lat="42.28145305392143" lon="14.146054835341678"><ele>132.0</ele><time>2026-05-01T13:20:43.999Z</time></trkpt><trkpt lat="42.28142807553823" lon="14.14596498662566"><ele>132.0</ele><time>2026-05-01T13:20:49.999Z</time></trkpt><trkpt lat="42.28138580510427" lon="14.145813930699818"><ele>132.0</ele><time>2026-05-01T13:20:51.999Z</time></trkpt><trkpt lat="42.28136315914528" lon="14.145725222603"><ele>132.0</ele><time>2026-05-01T13:20:52.999Z</time></trkpt><trkpt lat="42.281289756268656" lon="14.14559478658436"><ele>132.0</ele><time>2026-05-01T13:20:54.999Z</time></trkpt><trkpt lat="42.2812218628742" lon="14.14545210677859"><ele>132.0</ele><time>2026-05-01T13:20:56.999Z</time></trkpt><trkpt lat="42.28119371343737" lon="14.145308271042977"><ele>133.66666666666666</ele><time>2026-05-01T13:20:58.999Z</time></trkpt><trkpt lat="42.281200928781345" lon="14.145138446771437"><ele>135.33333333333334</ele><time>2026-05-01T13:21:00.999Z</time></trkpt><trkpt lat="42.2812065279654" lon="14.145042393095196"><ele>137.0</ele><time>2026-05-01T13:21:01.999Z</time></trkpt><trkpt lat="42.28121403515667" lon="14.144946211143505"><ele>138.66666666666669</ele><time>2026-05-01T13:21:02.999Z</time></trkpt><trkpt lat="42.28122465833454" lon="14.144842193013384"><ele>140.33333333333334</ele><time>2026-05-01T13:21:03.999Z</time></trkpt><trkpt lat="42.281234092117955" lon="14.144738297393175"><ele>142.0</ele><time>2026-05-01T13:21:04.999Z</time></trkpt><trkpt lat="42.281243145980014" lon="14.144638610278559"><ele>143.14285714285714</ele><time>2026-05-01T13:21:05.999Z</time></trkpt><trkpt lat="42.28125294182645" lon="14.14453095797723"><ele>144.28571428571428</ele><time>2026-05-01T13:21:06.999Z</time></trkpt><trkpt lat="42.28126272592346" lon="14.144438621546083"><ele>145.42857142857142</ele><time>2026-05-01T13:21:07.999Z</time></trkpt><trkpt lat="42.28126934637374" lon="14.144341384493071"><ele>146.57142857142856</ele><time>2026-05-01T13:21:08.999Z</time></trkpt><trkpt lat="42.28127894697026" lon="14.144254874419566"><ele>147.71428571428572</ele><time>2026-05-01T13:21:09.999Z</time></trkpt><trkpt lat="42.28129059357468" lon="14.144157762231512"><ele>148.85714285714283</ele><time>2026-05-01T13:21:10.999Z</time></trkpt><trkpt lat="42.28130081403396" lon="14.144053485213167"><ele>150.0</ele><time>2026-05-01T13:21:11.999Z</time></trkpt><trkpt lat="42.2813129307295" lon="14.143953598113576"><ele>151.83333333333334</ele><time>2026-05-01T13:21:12.999Z</time></trkpt><trkpt lat="42.281324278007794" lon="14.143860544352734"><ele>153.66666666666666</ele><time>2026-05-01T13:21:13.999Z</time></trkpt><trkpt lat="42.28133528161815" lon="14.143772281615131"><ele>155.5</ele><time>2026-05-01T13:21:14.999Z</time></trkpt><trkpt lat="42.28135155643936" lon="14.143622732544852"><ele>157.33333333333331</ele><time>2026-05-01T13:21:16.999Z</time></trkpt><trkpt lat="42.28134785551857" lon="14.143497283269946"><ele>159.16666666666666</ele><time>2026-05-01T13:21:18.999Z</time></trkpt><trkpt lat="42.28134097694172" lon="14.143412195748455"><ele>161.0</ele><time>2026-05-01T13:21:19.999Z</time></trkpt><trkpt lat="42.28129742491799" lon="14.143269507599843"><ele>162.5</ele><time>2026-05-01T13:21:21.999Z</time></trkpt><trkpt lat="42.281266434157246" lon="14.143116398979362"><ele>164.0</ele><time>2026-05-01T13:21:23.999Z</time></trkpt><trkpt lat="42.281238870904225" lon="14.143035464544168"><ele>165.5</ele><time>2026-05-01T13:21:24.999Z</time></trkpt><trkpt lat="42.28124709409804" lon="14.14291027902793"><ele>167.0</ele><time>2026-05-01T13:21:26.999Z</time></trkpt><trkpt lat="42.28131779851244" lon="14.142887619996086"><ele>168.5</ele><time>2026-05-01T13:21:30.999Z</time></trkpt><trkpt lat="42.281371864718494" lon="14.14279178961957"><ele>170.0</ele><time>2026-05-01T13:21:36.999Z</time></trkpt><trkpt lat="42.28144664494925" lon="14.14267163429595"><ele>170.0</ele><time>2026-05-01T13:21:38.999Z</time></trkpt><trkpt lat="42.281497445115185" lon="14.142605142207882"><ele>170.0</ele><time>2026-05-01T13:21:39.999Z</time></trkpt><trkpt lat="42.2815489419701" lon="14.142542513681517"><ele>170.0</ele><time>2026-05-01T13:21:40.999Z</time></trkpt><trkpt lat="42.281588634894" lon="14.14246603687866"><ele>170.0</ele><time>2026-05-01T13:21:42.999Z</time></trkpt><trkpt lat="42.281554090735234" lon="14.142394512969021"><ele>170.0</ele><time>2026-05-01T13:21:45.999Z</time></trkpt><trkpt lat="42.281481696369546" lon="14.142392154827998"><ele>170.0</ele><time>2026-05-01T13:22:20Z</time></trkpt><trkpt lat="42.281384227246825" lon="14.142372234386118"><ele>170.0</ele><time>2026-05-01T13:22:38Z</time></trkpt><trkpt lat="42.28130024279306" lon="14.142342698200878"><ele>174.4</ele><time>2026-05-01T13:22:40Z</time></trkpt><trkpt lat="42.281194713066995" lon="14.142314794202738"><ele>178.8</ele><time>2026-05-01T13:22:42Z</time></trkpt><trkpt lat="42.28109400377288" lon="14.142259222171191"><ele>183.2</ele><time>2026-05-01T13:22:44Z</time></trkpt><trkpt lat="42.281011169922465" lon="14.142193190468618"><ele>187.6</ele><time>2026-05-01T13:22:46Z</time></trkpt><trkpt lat="42.28095143458809" lon="14.14210533091572"><ele>192.0</ele><time>2026-05-01T13:22:48Z</time></trkpt><trkpt lat="42.28093013087339" lon="14.142003022616075"><ele>192.0</ele><time>2026-05-01T13:22:50Z</time></trkpt><trkpt lat="42.28091326282716" lon="14.141850226813693"><ele>192.0</ele><time>2026-05-01T13:22:52Z</time></trkpt><trkpt lat="42.28088687818574" lon="14.141691033444477"><ele>192.0</ele><time>2026-05-01T13:22:54Z</time></trkpt><trkpt lat="42.28085857165476" lon="14.141526792946113"><ele>192.0</ele><time>2026-05-01T13:22:56Z</time></trkpt><trkpt lat="42.28084236365447" lon="14.141439621996653"><ele>192.0</ele><time>2026-05-01T13:22:57Z</time></trkpt><trkpt lat="42.28082161241907" lon="14.14129956030757"><ele>192.0</ele><time>2026-05-01T13:22:59Z</time></trkpt><trkpt lat="42.28080693564109" lon="14.141210876048882"><ele>192.0</ele><time>2026-05-01T13:23:00Z</time></trkpt><trkpt lat="42.28078629733195" lon="14.141126586279224"><ele>192.0</ele><time>2026-05-01T13:23:01Z</time></trkpt><trkpt lat="42.28076823296134" lon="14.141036578705302"><ele>192.0</ele><time>2026-05-01T13:23:02Z</time></trkpt><trkpt lat="42.28079105876152" lon="14.140926126479062"><ele>192.0</ele><time>2026-05-01T13:23:04Z</time></trkpt><trkpt lat="42.28086336875904" lon="14.140914415053423"><ele>192.0</ele><time>2026-05-01T13:23:07Z</time></trkpt><trkpt lat="42.28095273632836" lon="14.14085964008214"><ele>191.99999999999997</ele><time>2026-05-01T13:23:15Z</time></trkpt><trkpt lat="42.28101308764056" lon="14.140832013987866"><ele>192.0</ele><time>2026-05-01T13:23:16Z</time></trkpt><trkpt lat="42.281077111773826" lon="14.140801264617487"><ele>192.0</ele><time>2026-05-01T13:23:17Z</time></trkpt><trkpt lat="42.28114876297861" lon="14.140760983619478"><ele>192.0</ele><time>2026-05-01T13:23:18Z</time></trkpt><trkpt lat="42.28122500854235" lon="14.140720361272628"><ele>192.0</ele><time>2026-05-01T13:23:19Z</time></trkpt><trkpt lat="42.28129891544731" lon="14.140684614188226"><ele>191.99999999999997</ele><time>2026-05-01T13:23:20Z</time></trkpt><trkpt lat="42.28136412810995" lon="14.140655531778771"><ele>192.0</ele><time>2026-05-01T13:23:21Z</time></trkpt><trkpt lat="42.28144219268027" lon="14.140618922944109"><ele>194.83333333333334</ele><time>2026-05-01T13:23:22Z</time></trkpt><trkpt lat="42.2815069989418" lon="14.140583572553675"><ele>197.66666666666669</ele><time>2026-05-01T13:23:23Z</time></trkpt><trkpt lat="42.28157766298647" lon="14.140543430619706"><ele>200.5</ele><time>2026-05-01T13:23:24Z</time></trkpt><trkpt lat="42.28168300332006" lon="14.140438204639546"><ele>203.33333333333334</ele><time>2026-05-01T13:23:26Z</time></trkpt><trkpt lat="42.28174246765051" lon="14.140357413597458"><ele>206.16666666666669</ele><time>2026-05-01T13:23:27Z</time></trkpt><trkpt lat="42.28180349724492" lon="14.14028164243883"><ele>209.0</ele><time>2026-05-01T13:23:28Z</time></trkpt><trkpt lat="42.28186719302323" lon="14.14020112069613"><ele>209.0</ele><time>2026-05-01T13:23:29Z</time></trkpt><trkpt lat="42.28192134569202" lon="14.140122560683906"><ele>209.0</ele><time>2026-05-01T13:23:30Z</time></trkpt><trkpt lat="42.28196048274258" lon="14.140049959645072"><ele>209.0</ele><time>2026-05-01T13:23:31Z</time></trkpt><trkpt lat="42.28203675384382" lon="14.139941821679917"><ele>209.0</ele><time>2026-05-01T13:23:33Z</time></trkpt><trkpt lat="42.28213527661667" lon="14.139825986704382"><ele>209.0</ele><time>2026-05-01T13:23:35Z</time></trkpt><trkpt lat="42.28219276600329" lon="14.139754310887842"><ele>209.66666666666669</ele><time>2026-05-01T13:23:36Z</time></trkpt><trkpt lat="42.28225783504435" lon="14.139696349973411"><ele>210.33333333333334</ele><time>2026-05-01T13:23:37Z</time></trkpt><trkpt lat="42.2823279271548" lon="14.139632006568393"><ele>211.0</ele><time>2026-05-01T13:23:38Z</time></trkpt><trkpt lat="42.28239548259612" lon="14.139556658698773"><ele>211.66666666666669</ele><time>2026-05-01T13:23:39Z</time></trkpt><trkpt lat="42.28246818371528" lon="14.13946891129467"><ele>212.33333333333334</ele><time>2026-05-01T13:23:40Z</time></trkpt><trkpt lat="42.28253883844763" lon="14.139375052414934"><ele>213.0</ele><time>2026-05-01T13:23:41Z</time></trkpt><trkpt lat="42.282608527005976" lon="14.13927436847741"><ele>213.0</ele><time>2026-05-01T13:23:42Z</time></trkpt><trkpt lat="42.2826932882444" lon="14.139186018950722"><ele>213.0</ele><time>2026-05-01T13:23:43Z</time></trkpt><trkpt lat="42.28276413600005" lon="14.139082758787477"><ele>213.0</ele><time>2026-05-01T13:23:44Z</time></trkpt><trkpt lat="42.28283247327497" lon="14.138979716783538"><ele>213.0</ele><time>2026-05-01T13:23:45Z</time></trkpt><trkpt lat="42.282898793691096" lon="14.138874965103131"><ele>213.0</ele><time>2026-05-01T13:23:46Z</time></trkpt><trkpt lat="42.28295941063132" lon="14.13874677441342"><ele>213.8</ele><time>2026-05-01T13:23:47Z</time></trkpt><trkpt lat="42.28303937815132" lon="14.138636831874607"><ele>214.60000000000002</ele><time>2026-05-01T13:23:48Z</time></trkpt><trkpt lat="42.283120234780526" lon="14.138553245365921"><ele>215.39999999999998</ele><time>2026-05-01T13:23:49Z</time></trkpt><trkpt lat="42.28318623862862" lon="14.138477410904201"><ele>216.2</ele><time>2026-05-01T13:23:50Z</time></trkpt><trkpt lat="42.28324947972494" lon="14.138414584095381"><ele>217.0</ele><time>2026-05-01T13:23:51Z</time></trkpt><trkpt lat="42.28329615478877" lon="14.138345921279843"><ele>217.0</ele><time>2026-05-01T13:23:52Z</time></trkpt><trkpt lat="42.28336584513214" lon="14.138301728164965"><ele>217.0</ele><time>2026-05-01T13:23:54Z</time></trkpt><trkpt lat="42.28325927894609" lon="14.138223510686766"><ele>217.0</ele><time>2026-05-01T13:23:57Z</time></trkpt><trkpt lat="42.28318443003843" lon="14.138193695376497"><ele>217.0</ele><time>2026-05-01T13:23:58Z</time></trkpt><trkpt lat="42.28305644755456" lon="14.13812998424631"><ele>217.0</ele><time>2026-05-01T13:24:00Z</time></trkpt><trkpt lat="42.282976295829485" lon="14.138127035271223"><ele>213.8</ele><time>2026-05-01T13:24:01Z</time></trkpt><trkpt lat="42.28290869824869" lon="14.138117687872027"><ele>210.6</ele><time>2026-05-01T13:24:02Z</time></trkpt><trkpt lat="42.28280370031713" lon="14.138082390893958"><ele>207.4</ele><time>2026-05-01T13:24:04Z</time></trkpt><trkpt lat="42.282734410299994" lon="14.138077534722632"><ele>204.20000000000002</ele><time>2026-05-01T13:24:06Z</time></trkpt><trkpt lat="42.28266947133201" lon="14.138046487873593"><ele>201.0</ele><time>2026-05-01T13:24:09Z</time></trkpt><trkpt lat="42.28279478452131" lon="14.137864218738875"><ele>201.0</ele><time>2026-05-01T13:24:13Z</time></trkpt><trkpt lat="42.28285361806081" lon="14.137814687906568"><ele>201.0</ele><time>2026-05-01T13:24:14Z</time></trkpt><trkpt lat="42.28291690787212" lon="14.137715281633094"><ele>201.0</ele><time>2026-05-01T13:24:16Z</time></trkpt><trkpt lat="42.28293245778545" lon="14.137606976948591"><ele>201.0</ele><time>2026-05-01T13:24:18Z</time></trkpt><trkpt lat="42.28290723251396" lon="14.137462152192006"><ele>201.0</ele><time>2026-05-01T13:24:20Z</time></trkpt><trkpt lat="42.28285532998854" lon="14.1373248364588"><ele>202.20000000000002</ele><time>2026-05-01T13:24:22Z</time></trkpt><trkpt lat="42.28279854773479" lon="14.137211988714926"><ele>203.4</ele><time>2026-05-01T13:24:24Z</time></trkpt><trkpt lat="42.282770740233836" lon="14.13706337949495"><ele>204.6</ele><time>2026-05-01T13:24:26Z</time></trkpt><trkpt lat="42.282762593089366" lon="14.136896402271153"><ele>205.8</ele><time>2026-05-01T13:24:28Z</time></trkpt><trkpt lat="42.28275943876359" lon="14.136806885667704"><ele>207.0</ele><time>2026-05-01T13:24:29Z</time></trkpt><trkpt lat="42.2827564208311" lon="14.136715480593466"><ele>207.0</ele><time>2026-05-01T13:24:30Z</time></trkpt><trkpt lat="42.282748900916125" lon="14.136627644911286"><ele>207.0</ele><time>2026-05-01T13:24:31Z</time></trkpt><trkpt lat="42.28273744030424" lon="14.136542220151721"><ele>207.0</ele><time>2026-05-01T13:24:32Z</time></trkpt><trkpt lat="42.282714232001894" lon="14.136458160885494"><ele>207.0</ele><time>2026-05-01T13:24:33Z</time></trkpt><trkpt lat="42.282688246402984" lon="14.136376692014943"><ele>207.0</ele><time>2026-05-01T13:24:34Z</time></trkpt><trkpt lat="42.28266461186938" lon="14.13628559327812"><ele>207.0</ele><time>2026-05-01T13:24:35Z</time></trkpt><trkpt lat="42.282608439068035" lon="14.136133128832272"><ele>208.16666666666666</ele><time>2026-05-01T13:24:37Z</time></trkpt><trkpt lat="42.28255303712337" lon="14.13605369123112"><ele>209.33333333333331</ele><time>2026-05-01T13:24:38Z</time></trkpt><trkpt lat="42.28249720142069" lon="14.135990950487177"><ele>210.5</ele><time>2026-05-01T13:24:39Z</time></trkpt><trkpt lat="42.2824052946802" lon="14.135874414322895"><ele>211.66666666666666</ele><time>2026-05-01T13:24:41Z</time></trkpt><trkpt lat="42.28236106346244" lon="14.135785803447098"><ele>212.83333333333331</ele><time>2026-05-01T13:24:42Z</time></trkpt><trkpt lat="42.282321433780474" lon="14.13568424071572"><ele>214.0</ele><time>2026-05-01T13:24:43Z</time></trkpt><trkpt lat="42.282290500698366" lon="14.13560391788978"><ele>212.66666666666666</ele><time>2026-05-01T13:24:44Z</time></trkpt><trkpt lat="42.28225468689274" lon="14.135471459401382"><ele>211.33333333333331</ele><time>2026-05-01T13:24:46Z</time></trkpt><trkpt lat="42.28225586365367" lon="14.135379257664441"><ele>210.0</ele><time>2026-05-01T13:24:47Z</time></trkpt><trkpt lat="42.28225563055767" lon="14.135276409440909"><ele>208.66666666666669</ele><time>2026-05-01T13:24:48Z</time></trkpt><trkpt lat="42.282242494440716" lon="14.135175130562887"><ele>207.33333333333334</ele><time>2026-05-01T13:24:49Z</time></trkpt><trkpt lat="42.28222608224454" lon="14.135081670401654"><ele>206.0</ele><time>2026-05-01T13:24:50Z</time></trkpt><trkpt lat="42.282217479850466" lon="14.134978272469517"><ele>207.50000000000003</ele><time>2026-05-01T13:24:51Z</time></trkpt><trkpt lat="42.28220534751189" lon="14.134875185555456"><ele>209.0</ele><time>2026-05-01T13:24:52Z</time></trkpt><trkpt lat="42.28218753508562" lon="14.134770316885106"><ele>210.5</ele><time>2026-05-01T13:24:53Z</time></trkpt><trkpt lat="42.28217103023042" lon="14.13465998885347"><ele>212.0</ele><time>2026-05-01T13:24:54Z</time></trkpt><trkpt lat="42.282157718723276" lon="14.1345512673374"><ele>213.50000000000003</ele><time>2026-05-01T13:24:55Z</time></trkpt><trkpt lat="42.28214324901521" lon="14.134450727979496"><ele>215.0</ele><time>2026-05-01T13:24:56Z</time></trkpt><trkpt lat="42.28212707888984" lon="14.134364240560487"><ele>215.00000000000003</ele><time>2026-05-01T13:24:57Z</time></trkpt><trkpt lat="42.28210463404811" lon="14.134263639987754"><ele>215.0</ele><time>2026-05-01T13:24:58Z</time></trkpt><trkpt lat="42.2820867278722" lon="14.134164954235569"><ele>215.0</ele><time>2026-05-01T13:24:59Z</time></trkpt><trkpt lat="42.2820701483589" lon="14.134051322504835"><ele>215.0</ele><time>2026-05-01T13:25:00Z</time></trkpt><trkpt lat="42.2820528152876" lon="14.13394329735293"><ele>215.00000000000003</ele><time>2026-05-01T13:25:01Z</time></trkpt><trkpt lat="42.28203902718295" lon="14.13384087878555"><ele>215.0</ele><time>2026-05-01T13:25:02Z</time></trkpt><trkpt lat="42.282024266701946" lon="14.133732076976878"><ele>215.83333333333334</ele><time>2026-05-01T13:25:03Z</time></trkpt><trkpt lat="42.28201081728349" lon="14.133619333466505"><ele>216.66666666666669</ele><time>2026-05-01T13:25:04Z</time></trkpt><trkpt lat="42.28200099769464" lon="14.13351839251751"><ele>217.5</ele><time>2026-05-01T13:25:05Z</time></trkpt><trkpt lat="42.28199033820584" lon="14.133419116491485"><ele>218.33333333333331</ele><time>2026-05-01T13:25:06Z</time></trkpt><trkpt lat="42.28198396948165" lon="14.13332169252997"><ele>219.16666666666666</ele><time>2026-05-01T13:25:07Z</time></trkpt><trkpt lat="42.281975910575746" lon="14.13321474671346"><ele>220.0</ele><time>2026-05-01T13:25:09Z</time></trkpt><trkpt lat="42.281892026659825" lon="14.133198333067227"><ele>220.8</ele><time>2026-05-01T13:25:25Z</time></trkpt><trkpt lat="42.281785176907164" lon="14.133149357911957"><ele>221.6</ele><time>2026-05-01T13:25:27Z</time></trkpt><trkpt lat="42.28169703568177" lon="14.133070412732364"><ele>222.39999999999998</ele><time>2026-05-01T13:25:29Z</time></trkpt><trkpt lat="42.281602735184826" lon="14.132980216579833"><ele>223.2</ele><time>2026-05-01T13:25:31Z</time></trkpt><trkpt lat="42.28149178370195" lon="14.132974531029406"><ele>224.0</ele><time>2026-05-01T13:25:33Z</time></trkpt><trkpt lat="42.28142578123333" lon="14.133013172760858"><ele>224.00000000000003</ele><time>2026-05-01T13:25:34Z</time></trkpt><trkpt lat="42.28135601328954" lon="14.133040334413392"><ele>224.0</ele><time>2026-05-01T13:25:35Z</time></trkpt><trkpt lat="42.281275037819476" lon="14.13304931934168"><ele>224.0</ele><time>2026-05-01T13:25:36Z</time></trkpt><trkpt lat="42.28118660518177" lon="14.133076713275548"><ele>224.0</ele><time>2026-05-01T13:25:37Z</time></trkpt><trkpt lat="42.28111244587613" lon="14.13311660279091"><ele>224.00000000000003</ele><time>2026-05-01T13:25:38Z</time></trkpt><trkpt lat="42.28105402762897" lon="14.133150492056263"><ele>224.0</ele><time>2026-05-01T13:25:39Z</time></trkpt><trkpt lat="42.28093513945962" lon="14.13317117948048"><ele>224.0</ele><time>2026-05-01T13:25:41Z</time></trkpt><trkpt lat="42.280876346841524" lon="14.13313388058144"><ele>224.0</ele><time>2026-05-01T13:25:42Z</time></trkpt><trkpt lat="42.28082671950465" lon="14.13306879366034"><ele>224.0</ele><time>2026-05-01T13:25:43Z</time></trkpt><trkpt lat="42.28077495033015" lon="14.132992215797893"><ele>224.0</ele><time>2026-05-01T13:25:44Z</time></trkpt><trkpt lat="42.28071404730505" lon="14.13292067533464"><ele>224.0</ele><time>2026-05-01T13:25:45Z</time></trkpt><trkpt lat="42.280662156429464" lon="14.132859186177216"><ele>224.0</ele><time>2026-05-01T13:25:46Z</time></trkpt><trkpt lat="42.280606178746325" lon="14.13281167851655"><ele>224.0</ele><time>2026-05-01T13:25:47Z</time></trkpt><trkpt lat="42.280538079269355" lon="14.1327721525028"><ele>222.83333333333334</ele><time>2026-05-01T13:25:48Z</time></trkpt><trkpt lat="42.28047016619973" lon="14.132739860554272"><ele>221.66666666666669</ele><time>2026-05-01T13:25:49Z</time></trkpt><trkpt lat="42.28040245888657" lon="14.13270533725478"><ele>220.5</ele><time>2026-05-01T13:25:50Z</time></trkpt><trkpt lat="42.28035013694466" lon="14.13261330060785"><ele>219.33333333333331</ele><time>2026-05-01T13:25:51Z</time></trkpt><trkpt lat="42.280279259387" lon="14.132579170318461"><ele>218.16666666666666</ele><time>2026-05-01T13:25:52Z</time></trkpt><trkpt lat="42.2802153951874" lon="14.13254753905514"><ele>217.0</ele><time>2026-05-01T13:25:53Z</time></trkpt><trkpt lat="42.28009629269908" lon="14.132475123836544"><ele>216.99999999999997</ele><time>2026-05-01T13:25:55Z</time></trkpt><trkpt lat="42.28003625081962" lon="14.13243708464538"><ele>217.0</ele><time>2026-05-01T13:25:56Z</time></trkpt><trkpt lat="42.27997759515138" lon="14.132399403907154"><ele>217.0</ele><time>2026-05-01T13:25:57Z</time></trkpt><trkpt lat="42.279920662483626" lon="14.132362265594361"><ele>217.0</ele><time>2026-05-01T13:25:58Z</time></trkpt><trkpt lat="42.27986206760424" lon="14.132299370239975"><ele>216.99999999999997</ele><time>2026-05-01T13:26:00Z</time></trkpt><trkpt lat="42.27986913642742" lon="14.13216411606935"><ele>217.0</ele><time>2026-05-01T13:26:02Z</time></trkpt><trkpt lat="42.27984820433482" lon="14.132037574240767"><ele>217.99999999999997</ele><time>2026-05-01T13:26:03Z</time></trkpt><trkpt lat="42.279814923821796" lon="14.131932153218866"><ele>219.0</ele><time>2026-05-01T13:26:04Z</time></trkpt><trkpt lat="42.279781594409386" lon="14.131828620095376"><ele>220.0</ele><time>2026-05-01T13:26:05Z</time></trkpt><trkpt lat="42.27975335779047" lon="14.131733867793518"><ele>221.0</ele><time>2026-05-01T13:26:06Z</time></trkpt><trkpt lat="42.27972952086348" lon="14.13164335081926"><ele>221.99999999999997</ele><time>2026-05-01T13:26:07Z</time></trkpt><trkpt lat="42.279711616108145" lon="14.131504950558696"><ele>223.0</ele><time>2026-05-01T13:26:09Z</time></trkpt><trkpt lat="42.27978523437478" lon="14.131473963205996"><ele>227.2</ele><time>2026-05-01T13:26:13Z</time></trkpt><trkpt lat="42.27987694836849" lon="14.131479267432693"><ele>231.4</ele><time>2026-05-01T13:26:14Z</time></trkpt><trkpt lat="42.27997406927864" lon="14.13150713907788"><ele>235.59999999999997</ele><time>2026-05-01T13:26:15Z</time></trkpt><trkpt lat="42.28008904285249" lon="14.131524239305811"><ele>239.79999999999998</ele><time>2026-05-01T13:26:16Z</time></trkpt><trkpt lat="42.280216431617696" lon="14.131527191034811"><ele>244.0</ele><time>2026-05-01T13:26:17Z</time></trkpt><trkpt lat="42.280338737108906" lon="14.131504545271387"><ele>244.0</ele><time>2026-05-01T13:26:18Z</time></trkpt><trkpt lat="42.280457877226006" lon="14.13147815989015"><ele>243.99999999999997</ele><time>2026-05-01T13:26:19Z</time></trkpt><trkpt lat="42.28057517815035" lon="14.131451870466538"><ele>243.99999999999997</ele><time>2026-05-01T13:26:20Z</time></trkpt><trkpt lat="42.280671504877304" lon="14.131418000442237"><ele>244.0</ele><time>2026-05-01T13:26:21Z</time></trkpt><trkpt lat="42.28075054488062" lon="14.131355607142176"><ele>244.0</ele><time>2026-05-01T13:26:22Z</time></trkpt><trkpt lat="42.28080658667594" lon="14.131263111042404"><ele>243.6</ele><time>2026-05-01T13:26:23Z</time></trkpt><trkpt lat="42.28085054614635" lon="14.131146390571644"><ele>243.2</ele><time>2026-05-01T13:26:24Z</time></trkpt><trkpt lat="42.2808873097996" lon="14.131022750310875"><ele>242.79999999999998</ele><time>2026-05-01T13:26:25Z</time></trkpt><trkpt lat="42.280921424781596" lon="14.130907278778702"><ele>242.39999999999998</ele><time>2026-05-01T13:26:26Z</time></trkpt><trkpt lat="42.2809556207228" lon="14.130789495400531"><ele>242.0</ele><time>2026-05-01T13:26:27Z</time></trkpt><trkpt lat="42.28098423326885" lon="14.130663008041"><ele>243.2</ele><time>2026-05-01T13:26:28Z</time></trkpt><trkpt lat="42.28101118733806" lon="14.130533041549148"><ele>244.39999999999998</ele><time>2026-05-01T13:26:29Z</time></trkpt><trkpt lat="42.28103093429344" lon="14.130400509388439"><ele>245.60000000000002</ele><time>2026-05-01T13:26:30Z</time></trkpt><trkpt lat="42.281047988197024" lon="14.130270484104873"><ele>246.8</ele><time>2026-05-01T13:26:31Z</time></trkpt><trkpt lat="42.281059985378704" lon="14.130153618626958"><ele>248.0</ele><time>2026-05-01T13:26:32Z</time></trkpt><trkpt lat="42.281044561224235" lon="14.13004071077028"><ele>248.00000000000003</ele><time>2026-05-01T13:26:33Z</time></trkpt><trkpt lat="42.280995250527596" lon="14.129943289227823"><ele>248.0</ele><time>2026-05-01T13:26:34Z</time></trkpt><trkpt lat="42.28092124566173" lon="14.129884521509453"><ele>248.0</ele><time>2026-05-01T13:26:35Z</time></trkpt><trkpt lat="42.280834119277216" lon="14.129861164285513"><ele>248.0</ele><time>2026-05-01T13:26:36Z</time></trkpt><trkpt lat="42.280750475640716" lon="14.129892211481096"><ele>248.00000000000003</ele><time>2026-05-01T13:26:37Z</time></trkpt><trkpt lat="42.28068274390952" lon="14.129972734217073"><ele>248.0</ele><time>2026-05-01T13:26:38Z</time></trkpt><trkpt lat="42.28061114176571" lon="14.130067093723222"><ele>249.2</ele><time>2026-05-01T13:26:39Z</time></trkpt><trkpt lat="42.28053219338063" lon="14.130166630347437"><ele>250.4</ele><time>2026-05-01T13:26:40Z</time></trkpt><trkpt lat="42.28044751133252" lon="14.130269035763359"><ele>251.59999999999997</ele><time>2026-05-01T13:26:41Z</time></trkpt><trkpt lat="42.28035962125471" lon="14.13036914409904"><ele>252.79999999999998</ele><time>2026-05-01T13:26:42Z</time></trkpt><trkpt lat="42.28027126500273" lon="14.130456361453811"><ele>254.0</ele><time>2026-05-01T13:26:43Z</time></trkpt><trkpt lat="42.280176339644456" lon="14.130506410346067"><ele>254.0</ele><time>2026-05-01T13:26:44Z</time></trkpt><trkpt lat="42.280075518520555" lon="14.130507373054263"><ele>253.99999999999997</ele><time>2026-05-01T13:26:45Z</time></trkpt><trkpt lat="42.27998245686664" lon="14.130435993536748"><ele>253.99999999999997</ele><time>2026-05-01T13:26:46Z</time></trkpt><trkpt lat="42.27987696581338" lon="14.130396422713517"><ele>254.0</ele><time>2026-05-01T13:26:47Z</time></trkpt><trkpt lat="42.27977429657717" lon="14.13033335431395"><ele>254.0</ele><time>2026-05-01T13:26:48Z</time></trkpt><trkpt lat="42.27966824406822" lon="14.130275985373586"><ele>253.6</ele><time>2026-05-01T13:26:49Z</time></trkpt><trkpt lat="42.27956101317327" lon="14.13021676203962"><ele>253.2</ele><time>2026-05-01T13:26:50Z</time></trkpt><trkpt lat="42.279460825285625" lon="14.1301502132242"><ele>252.79999999999998</ele><time>2026-05-01T13:26:51Z</time></trkpt><trkpt lat="42.27937480315688" lon="14.130072743463671"><ele>252.39999999999998</ele><time>2026-05-01T13:26:52Z</time></trkpt><trkpt lat="42.279316355240596" lon="14.129984099397936"><ele>252.0</ele><time>2026-05-01T13:26:53Z</time></trkpt><trkpt lat="42.27928919802407" lon="14.129889017679297"><ele>254.16666666666666</ele><time>2026-05-01T13:26:54Z</time></trkpt><trkpt lat="42.27928765172776" lon="14.129789433064628"><ele>256.3333333333333</ele><time>2026-05-01T13:26:55Z</time></trkpt><trkpt lat="42.27930986746494" lon="14.129689369778678"><ele>258.5</ele><time>2026-05-01T13:26:56Z</time></trkpt><trkpt lat="42.27941355279122" lon="14.129604732915613"><ele>260.66666666666663</ele><time>2026-05-01T13:26:58Z</time></trkpt><trkpt lat="42.279489648763565" lon="14.129593210284039"><ele>262.8333333333333</ele><time>2026-05-01T13:26:59Z</time></trkpt><trkpt lat="42.27957558280731" lon="14.129592134645467"><ele>265.0</ele><time>2026-05-01T13:27:00Z</time></trkpt><trkpt lat="42.279669976336905" lon="14.129588536163977"><ele>265.0</ele><time>2026-05-01T13:27:01Z</time></trkpt><trkpt lat="42.27976622246696" lon="14.129555557087716"><ele>265.0</ele><time>2026-05-01T13:27:02Z</time></trkpt><trkpt lat="42.279849440533475" lon="14.129472988066166"><ele>265.0</ele><time>2026-05-01T13:27:03Z</time></trkpt><trkpt lat="42.27991124162767" lon="14.129361162484953"><ele>265.0</ele><time>2026-05-01T13:27:04Z</time></trkpt><trkpt lat="42.27997294822606" lon="14.129246040623352"><ele>265.0</ele><time>2026-05-01T13:27:05Z</time></trkpt><trkpt lat="42.28001519089781" lon="14.129133849562935"><ele>266.2</ele><time>2026-05-01T13:27:06Z</time></trkpt><trkpt lat="42.280063975046666" lon="14.12900364447897"><ele>267.4</ele><time>2026-05-01T13:27:07Z</time></trkpt><trkpt lat="42.2801137739946" lon="14.128870731162037"><ele>268.6</ele><time>2026-05-01T13:27:08Z</time></trkpt><trkpt lat="42.280164648907245" lon="14.128737385140965"><ele>269.8</ele><time>2026-05-01T13:27:09Z</time></trkpt><trkpt lat="42.2802163884885" lon="14.12860675041946"><ele>271.0</ele><time>2026-05-01T13:27:10Z</time></trkpt><trkpt lat="42.28027030504892" lon="14.128477459308707"><ele>271.0</ele><time>2026-05-01T13:27:11Z</time></trkpt><trkpt lat="42.28031412584872" lon="14.128343318581"><ele>271.0</ele><time>2026-05-01T13:27:12Z</time></trkpt><trkpt lat="42.280398563891254" lon="14.12825436408549"><ele>271.0</ele><time>2026-05-01T13:27:13Z</time></trkpt><trkpt lat="42.280495375233166" lon="14.128190366900702"><ele>271.0</ele><time>2026-05-01T13:27:14Z</time></trkpt><trkpt lat="42.280593686821156" lon="14.128131570091346"><ele>271.0</ele><time>2026-05-01T13:27:15Z</time></trkpt><trkpt lat="42.28069457418537" lon="14.128080676929757"><ele>272.2</ele><time>2026-05-01T13:27:16Z</time></trkpt><trkpt lat="42.28079548665672" lon="14.128033716184145"><ele>273.40000000000003</ele><time>2026-05-01T13:27:17Z</time></trkpt><trkpt lat="42.28089567730392" lon="14.12798175258448"><ele>274.6</ele><time>2026-05-01T13:27:18Z</time></trkpt><trkpt lat="42.280978673776396" lon="14.127916487083786"><ele>275.8</ele><time>2026-05-01T13:27:19Z</time></trkpt><trkpt lat="42.2810398166825" lon="14.127833269178849"><ele>277.0</ele><time>2026-05-01T13:27:20Z</time></trkpt><trkpt lat="42.28107137359446" lon="14.12773487286752"><ele>277.0</ele><time>2026-05-01T13:27:21Z</time></trkpt><trkpt lat="42.28109366274232" lon="14.127632075650533"><ele>277.0</ele><time>2026-05-01T13:27:22Z</time></trkpt><trkpt lat="42.28105102385837" lon="14.127512426584193"><ele>277.0</ele><time>2026-05-01T13:27:23Z</time></trkpt><trkpt lat="42.28101974228675" lon="14.12739799838264"><ele>277.0</ele><time>2026-05-01T13:27:24Z</time></trkpt><trkpt lat="42.28093501599154" lon="14.127338110905773"><ele>277.0</ele><time>2026-05-01T13:27:25Z</time></trkpt><trkpt lat="42.28085468939342" lon="14.127282272140047"><ele>279.2</ele><time>2026-05-01T13:27:26Z</time></trkpt><trkpt lat="42.280750750452704" lon="14.127301962943582"><ele>281.4</ele><time>2026-05-01T13:27:27Z</time></trkpt><trkpt lat="42.28064391530443" lon="14.127314523162747"><ele>283.6</ele><time>2026-05-01T13:27:28Z</time></trkpt><trkpt lat="42.28052926795653" lon="14.127328893593159"><ele>285.8</ele><time>2026-05-01T13:27:29Z</time></trkpt><trkpt lat="42.28041117967366" lon="14.127340341258087"><ele>288.0</ele><time>2026-05-01T13:27:30Z</time></trkpt><trkpt lat="42.2802895556716" lon="14.127349885173254"><ele>288.0</ele><time>2026-05-01T13:27:31Z</time></trkpt><trkpt lat="42.28016802564616" lon="14.127365268325244"><ele>288.0</ele><time>2026-05-01T13:27:32Z</time></trkpt><trkpt lat="42.2800459985752" lon="14.127381725852713"><ele>288.0</ele><time>2026-05-01T13:27:33Z</time></trkpt><trkpt lat="42.27992356667498" lon="14.127392965240842"><ele>288.0</ele><time>2026-05-01T13:27:34Z</time></trkpt><trkpt lat="42.27980181077414" lon="14.127400894039932"><ele>286.5</ele><time>2026-05-01T13:27:35Z</time></trkpt><trkpt lat="42.279680936575495" lon="14.127411862261349"><ele>285.0</ele><time>2026-05-01T13:27:36Z</time></trkpt><trkpt lat="42.27956113829989" lon="14.127428398906046"><ele>283.5</ele><time>2026-05-01T13:27:37Z</time></trkpt><trkpt lat="42.27944479658688" lon="14.12744400166825"><ele>282.0</ele><time>2026-05-01T13:27:38Z</time></trkpt><trkpt lat="42.279332224504884" lon="14.12745557374703"><ele>282.0</ele><time>2026-05-01T13:27:39Z</time></trkpt><trkpt lat="42.27922204117198" lon="14.127467811779711"><ele>282.0</ele><time>2026-05-01T13:27:40Z</time></trkpt><trkpt lat="42.27911224646868" lon="14.127479795596127"><ele>282.0</ele><time>2026-05-01T13:27:41Z</time></trkpt><trkpt lat="42.27900050601498" lon="14.127494931637786"><ele>282.0</ele><time>2026-05-01T13:27:42Z</time></trkpt><trkpt lat="42.278887157266055" lon="14.127509053634649"><ele>282.0</ele><time>2026-05-01T13:27:43Z</time></trkpt><trkpt lat="42.278774456610016" lon="14.127517219873067"><ele>282.4</ele><time>2026-05-01T13:27:44Z</time></trkpt><trkpt lat="42.27866925979848" lon="14.127499073330174"><ele>282.79999999999995</ele><time>2026-05-01T13:27:45Z</time></trkpt><trkpt lat="42.278576270253836" lon="14.127438216189123"><ele>283.2</ele><time>2026-05-01T13:27:46Z</time></trkpt><trkpt lat="42.27849982631806" lon="14.127345915917013"><ele>283.59999999999997</ele><time>2026-05-01T13:27:47Z</time></trkpt><trkpt lat="42.27845867571167" lon="14.127221450117442"><ele>284.0</ele><time>2026-05-01T13:27:48Z</time></trkpt><trkpt lat="42.27841416726867" lon="14.127111245436641"><ele>284.6666666666667</ele><time>2026-05-01T13:27:49Z</time></trkpt><trkpt lat="42.278412122754595" lon="14.127009533678105"><ele>285.33333333333337</ele><time>2026-05-01T13:27:50Z</time></trkpt><trkpt lat="42.27842829868582" lon="14.126864278912628"><ele>286.0</ele><time>2026-05-01T13:27:52Z</time></trkpt><trkpt lat="42.27845858305825" lon="14.12677457881016"><ele>286.6666666666667</ele><time>2026-05-01T13:27:54Z</time></trkpt><trkpt lat="42.278505337550925" lon="14.126684273614748"><ele>287.3333333333333</ele><time>2026-05-01T13:27:56Z</time></trkpt><trkpt lat="42.278592140806886" lon="14.126606712370211"><ele>288.0</ele><time>2026-05-01T13:27:58Z</time></trkpt><trkpt lat="42.27867130146557" lon="14.126567503334448"><ele>288.0</ele><time>2026-05-01T13:28:00Z</time></trkpt><trkpt lat="42.27876109792098" lon="14.126544786200618"><ele>288.0</ele><time>2026-05-01T13:28:02Z</time></trkpt><trkpt lat="42.27865887336959" lon="14.1265635802502"><ele>288.0</ele><time>2026-05-01T13:28:14Z</time></trkpt><trkpt lat="42.278348896751154" lon="14.126699398176164"><ele>288.0</ele><time>2026-05-01T13:28:15Z</time></trkpt><trkpt lat="42.27851453028925" lon="14.126624124267181"><ele>288.0</ele><time>2026-05-01T13:28:16Z</time></trkpt><trkpt lat="42.27845648179385" lon="14.12670301136481"><ele>288.0</ele><time>2026-05-01T13:28:17Z</time></trkpt><trkpt lat="42.27841821485482" lon="14.126793716767793"><ele>288.0</ele><time>2026-05-01T13:28:18Z</time></trkpt><trkpt lat="42.27839424708586" lon="14.12688949288709"><ele>288.0</ele><time>2026-05-01T13:28:19Z</time></trkpt><trkpt lat="42.27838334769229" lon="14.126976252118206"><ele>288.0</ele><time>2026-05-01T13:28:20Z</time></trkpt><trkpt lat="42.278398102346586" lon="14.127114481442149"><ele>288.0</ele><time>2026-05-01T13:28:22Z</time></trkpt><trkpt lat="42.278422718213754" lon="14.127240324092096"><ele>288.0</ele><time>2026-05-01T13:28:24Z</time></trkpt><trkpt lat="42.278485076865664" lon="14.127363784738629"><ele>288.0</ele><time>2026-05-01T13:28:26Z</time></trkpt><trkpt lat="42.27853084293549" lon="14.12742468668686"><ele>288.0</ele><time>2026-05-01T13:28:27Z</time></trkpt><trkpt lat="42.278584946939155" lon="14.127474737717936"><ele>288.0</ele><time>2026-05-01T13:28:28Z</time></trkpt><trkpt lat="42.278699325418124" lon="14.12753074211937"><ele>287.0</ele><time>2026-05-01T13:28:30Z</time></trkpt><trkpt lat="42.278815319594656" lon="14.127535173019368"><ele>286.0</ele><time>2026-05-01T13:28:32Z</time></trkpt><trkpt lat="42.278929856109876" lon="14.127531955701285"><ele>285.0</ele><time>2026-05-01T13:28:34Z</time></trkpt><trkpt lat="42.27903450171122" lon="14.127532268734173"><ele>284.0</ele><time>2026-05-01T13:28:36Z</time></trkpt><trkpt lat="42.27915027192903" lon="14.127510062598658"><ele>283.6666666666667</ele><time>2026-05-01T13:28:38Z</time></trkpt><trkpt lat="42.27922140386335" lon="14.127497653297109"><ele>283.33333333333337</ele><time>2026-05-01T13:28:39Z</time></trkpt><trkpt lat="42.27931685945329" lon="14.127494820612984"><ele>283.0</ele><time>2026-05-01T13:28:41Z</time></trkpt><trkpt lat="42.27932740748915" lon="14.127593282214423"><ele>282.6666666666667</ele><time>2026-05-01T13:28:44Z</time></trkpt><trkpt lat="42.279237537070095" lon="14.127625137010641"><ele>282.3333333333333</ele><time>2026-05-01T13:28:46Z</time></trkpt><trkpt lat="42.27916722538153" lon="14.127612634145386"><ele>282.0</ele><time>2026-05-01T13:28:47Z</time></trkpt><trkpt lat="42.279091474964936" lon="14.127624521609944"><ele>282.0</ele><time>2026-05-01T13:28:48Z</time></trkpt><trkpt lat="42.27901110758051" lon="14.12763053669092"><ele>282.0</ele><time>2026-05-01T13:28:49Z</time></trkpt><trkpt lat="42.27894127816793" lon="14.127629550008976"><ele>282.0</ele><time>2026-05-01T13:28:50Z</time></trkpt><trkpt lat="42.27884218621805" lon="14.127627166867649"><ele>282.0</ele><time>2026-05-01T13:28:52Z</time></trkpt><trkpt lat="42.278739694974334" lon="14.12763233364771"><ele>282.0</ele><time>2026-05-01T13:29:21Z</time></trkpt><trkpt lat="42.27866780817193" lon="14.12762672864325"><ele>282.0</ele><time>2026-05-01T13:29:22Z</time></trkpt><trkpt lat="42.27858366561238" lon="14.127618112477974"><ele>282.4</ele><time>2026-05-01T13:29:23Z</time></trkpt><trkpt lat="42.27849020288132" lon="14.127612062017704"><ele>282.79999999999995</ele><time>2026-05-01T13:29:24Z</time></trkpt><trkpt lat="42.27839642721462" lon="14.127608082694957"><ele>283.2</ele><time>2026-05-01T13:29:25Z</time></trkpt><trkpt lat="42.27830913407522" lon="14.127601409371364"><ele>283.59999999999997</ele><time>2026-05-01T13:29:26Z</time></trkpt><trkpt lat="42.27821807953233" lon="14.127591518825332"><ele>284.0</ele><time>2026-05-01T13:29:27Z</time></trkpt><trkpt lat="42.278125607218115" lon="14.127581426404255"><ele>284.33333333333337</ele><time>2026-05-01T13:29:28Z</time></trkpt><trkpt lat="42.278037559369025" lon="14.127563571412239"><ele>284.6666666666667</ele><time>2026-05-01T13:29:29Z</time></trkpt><trkpt lat="42.27795645085447" lon="14.127506123381156"><ele>285.0</ele><time>2026-05-01T13:29:30Z</time></trkpt><trkpt lat="42.27786964971709" lon="14.127473661677334"><ele>285.3333333333333</ele><time>2026-05-01T13:29:31Z</time></trkpt><trkpt lat="42.2777807968719" lon="14.127462191247302"><ele>285.66666666666663</ele><time>2026-05-01T13:29:32Z</time></trkpt><trkpt lat="42.27769729974344" lon="14.127427719439554"><ele>286.0</ele><time>2026-05-01T13:29:33Z</time></trkpt><trkpt lat="42.2776155665939" lon="14.127400537715545"><ele>287.0</ele><time>2026-05-01T13:29:34Z</time></trkpt><trkpt lat="42.277533621526615" lon="14.127378738867368"><ele>288.0</ele><time>2026-05-01T13:29:35Z</time></trkpt><trkpt lat="42.27745126169804" lon="14.127365303812306"><ele>289.0</ele><time>2026-05-01T13:29:36Z</time></trkpt><trkpt lat="42.2773704394365" lon="14.12737521906072"><ele>290.0</ele><time>2026-05-01T13:29:37Z</time></trkpt><trkpt lat="42.27728525424751" lon="14.127389629191727"><ele>291.0</ele><time>2026-05-01T13:29:38Z</time></trkpt><trkpt lat="42.27719762323455" lon="14.127404528320136"><ele>292.0</ele><time>2026-05-01T13:29:39Z</time></trkpt><trkpt lat="42.27711041885741" lon="14.127403946973878"><ele>292.8333333333333</ele><time>2026-05-01T13:29:40Z</time></trkpt><trkpt lat="42.27702934581515" lon="14.127357451776343"><ele>293.66666666666663</ele><time>2026-05-01T13:29:41Z</time></trkpt><trkpt lat="42.276951077675385" lon="14.12731409649554"><ele>294.5</ele><time>2026-05-01T13:29:42Z</time></trkpt><trkpt lat="42.27686920061284" lon="14.127273065104506"><ele>295.3333333333333</ele><time>2026-05-01T13:29:43Z</time></trkpt><trkpt lat="42.276784474052036" lon="14.127234389523755"><ele>296.1666666666667</ele><time>2026-05-01T13:29:44Z</time></trkpt><trkpt lat="42.276700526461234" lon="14.127219665231088"><ele>297.0</ele><time>2026-05-01T13:29:45Z</time></trkpt><trkpt lat="42.276635800897346" lon="14.127191581126157"><ele>297.0</ele><time>2026-05-01T13:29:46Z</time></trkpt><trkpt lat="42.27653761572911" lon="14.127213736618247"><ele>297.0</ele><time>2026-05-01T13:29:48Z</time></trkpt><trkpt lat="42.276450827209445" lon="14.12733065527428"><ele>297.0</ele><time>2026-05-01T13:29:50Z</time></trkpt><trkpt lat="42.27639149394749" lon="14.127414198277027"><ele>297.0</ele><time>2026-05-01T13:29:51Z</time></trkpt><trkpt lat="42.276328729738175" lon="14.127513315944558"><ele>297.0</ele><time>2026-05-01T13:29:52Z</time></trkpt><trkpt lat="42.276266019259594" lon="14.12762243003131"><ele>296.8333333333333</ele><time>2026-05-01T13:29:53Z</time></trkpt><trkpt lat="42.276203793998825" lon="14.127731142069697"><ele>296.6666666666667</ele><time>2026-05-01T13:29:54Z</time></trkpt><trkpt lat="42.27614044836227" lon="14.127813525037997"><ele>296.5</ele><time>2026-05-01T13:29:55Z</time></trkpt><trkpt lat="42.276073411354076" lon="14.12787543813595"><ele>296.33333333333337</ele><time>2026-05-01T13:29:56Z</time></trkpt><trkpt lat="42.2760007382278" lon="14.127925536745812"><ele>296.1666666666667</ele><time>2026-05-01T13:29:57Z</time></trkpt><trkpt lat="42.27592158840529" lon="14.127957315271246"><ele>296.0</ele><time>2026-05-01T13:29:58Z</time></trkpt><trkpt lat="42.27583911585561" lon="14.127977578662842"><ele>296.0</ele><time>2026-05-01T13:29:59Z</time></trkpt><trkpt lat="42.27575113338414" lon="14.127997110333528"><ele>296.0</ele><time>2026-05-01T13:30:00Z</time></trkpt><trkpt lat="42.27566212404735" lon="14.128024950290456"><ele>296.0</ele><time>2026-05-01T13:30:01Z</time></trkpt><trkpt lat="42.27556968428479" lon="14.128031549446021"><ele>296.0</ele><time>2026-05-01T13:30:02Z</time></trkpt><trkpt lat="42.2754949985785" lon="14.128089911490544"><ele>296.0</ele><time>2026-05-01T13:30:03Z</time></trkpt><trkpt lat="42.2754231302464" lon="14.128131707319346"><ele>296.0</ele><time>2026-05-01T13:30:04Z</time></trkpt><trkpt lat="42.275363261360674" lon="14.128184945502051"><ele>296.6666666666667</ele><time>2026-05-01T13:30:05Z</time></trkpt><trkpt lat="42.27530345411627" lon="14.128220680120013"><ele>297.33333333333337</ele><time>2026-05-01T13:30:06Z</time></trkpt><trkpt lat="42.275228535652666" lon="14.128269984849144"><ele>298.0</ele><time>2026-05-01T13:30:08Z</time></trkpt><trkpt lat="42.27515328076613" lon="14.128251787763137"><ele>298.6666666666667</ele><time>2026-05-01T13:30:10Z</time></trkpt><trkpt lat="42.27514220175463" lon="14.128141844505404"><ele>299.3333333333333</ele><time>2026-05-01T13:30:11Z</time></trkpt><trkpt lat="42.27511340067129" lon="14.128032265668178"><ele>300.0</ele><time>2026-05-01T13:30:12Z</time></trkpt><trkpt lat="42.275072937180795" lon="14.127899737373117"><ele>300.75</ele><time>2026-05-01T13:30:13Z</time></trkpt><trkpt lat="42.27500941386685" lon="14.12775314798197"><ele>301.5</ele><time>2026-05-01T13:30:14Z</time></trkpt><trkpt lat="42.27496827417192" lon="14.127577961002292"><ele>302.25</ele><time>2026-05-01T13:30:15Z</time></trkpt><trkpt lat="42.27491750714005" lon="14.127426709834491"><ele>303.0</ele><time>2026-05-01T13:30:16Z</time></trkpt><trkpt lat="42.27486551746362" lon="14.127267186180461"><ele>303.5</ele><time>2026-05-01T13:30:17Z</time></trkpt><trkpt lat="42.27481230684956" lon="14.127103168033829"><ele>304.0</ele><time>2026-05-01T13:30:18Z</time></trkpt><trkpt lat="42.27476125986125" lon="14.126937417173487"><ele>304.5</ele><time>2026-05-01T13:30:19Z</time></trkpt><trkpt lat="42.27470548819187" lon="14.126777290015465"><ele>305.0</ele><time>2026-05-01T13:30:20Z</time></trkpt><trkpt lat="42.27468276461986" lon="14.126610091057284"><ele>302.2</ele><time>2026-05-01T13:30:21Z</time></trkpt><trkpt lat="42.27465074787353" lon="14.12645013911417"><ele>299.4</ele><time>2026-05-01T13:30:22Z</time></trkpt><trkpt lat="42.27462354983146" lon="14.126299498436891"><ele>296.6</ele><time>2026-05-01T13:30:23Z</time></trkpt><trkpt lat="42.27462316631462" lon="14.126161919656791"><ele>293.8</ele><time>2026-05-01T13:30:24Z</time></trkpt><trkpt lat="42.27464264830825" lon="14.126017408132245"><ele>291.0</ele><time>2026-05-01T13:30:25Z</time></trkpt><trkpt lat="42.27467861464552" lon="14.125868801381928"><ele>291.25</ele><time>2026-05-01T13:30:26Z</time></trkpt><trkpt lat="42.27472137092125" lon="14.125716021461683"><ele>291.5</ele><time>2026-05-01T13:30:27Z</time></trkpt><trkpt lat="42.27476528155253" lon="14.125562782477564"><ele>291.75</ele><time>2026-05-01T13:30:28Z</time></trkpt><trkpt lat="42.274807085435256" lon="14.125409996633973"><ele>292.0</ele><time>2026-05-01T13:30:29Z</time></trkpt><trkpt lat="42.27484784122159" lon="14.125263585747968"><ele>297.4</ele><time>2026-05-01T13:30:30Z</time></trkpt><trkpt lat="42.27488776193138" lon="14.125124771495287"><ele>302.79999999999995</ele><time>2026-05-01T13:30:31Z</time></trkpt><trkpt lat="42.274926675018904" lon="14.124995698487332"><ele>308.2</ele><time>2026-05-01T13:30:32Z</time></trkpt><trkpt lat="42.2749683277693" lon="14.124874534466247"><ele>313.59999999999997</ele><time>2026-05-01T13:30:33Z</time></trkpt><trkpt lat="42.275014350611585" lon="14.124757506858469"><ele>319.0</ele><time>2026-05-01T13:30:34Z</time></trkpt><trkpt lat="42.27506678838884" lon="14.124639913932324"><ele>320.6</ele><time>2026-05-01T13:30:35Z</time></trkpt><trkpt lat="42.27510701635919" lon="14.124509548336345"><ele>322.2</ele><time>2026-05-01T13:30:36Z</time></trkpt><trkpt lat="42.27517170434615" lon="14.124416314592057"><ele>323.8</ele><time>2026-05-01T13:30:37Z</time></trkpt><trkpt lat="42.27520465478147" lon="14.12432856843338"><ele>325.40000000000003</ele><time>2026-05-01T13:30:38Z</time></trkpt><trkpt lat="42.275319886363356" lon="14.124256050284965"><ele>327.0</ele><time>2026-05-01T13:30:40Z</time></trkpt><trkpt lat="42.275391248421826" lon="14.124253303438197"><ele>327.0</ele><time>2026-05-01T13:30:41Z</time></trkpt><trkpt lat="42.27546390206479" lon="14.124246707894947"><ele>327.0</ele><time>2026-05-01T13:30:42Z</time></trkpt><trkpt lat="42.275541389790355" lon="14.124234841910301"><ele>327.0</ele><time>2026-05-01T13:30:43Z</time></trkpt><trkpt lat="42.2756210219906" lon="14.124224280276673"><ele>327.0</ele><time>2026-05-01T13:30:44Z</time></trkpt><trkpt lat="42.275704255705655" lon="14.124215257246242"><ele>327.0</ele><time>2026-05-01T13:30:45Z</time></trkpt><trkpt lat="42.27578678008374" lon="14.124210965492553"><ele>327.0</ele><time>2026-05-01T13:30:46Z</time></trkpt><trkpt lat="42.27587255051251" lon="14.124210141990522"><ele>326.0</ele><time>2026-05-01T13:30:47Z</time></trkpt><trkpt lat="42.275959066604855" lon="14.124205948504649"><ele>325.0</ele><time>2026-05-01T13:30:48Z</time></trkpt><trkpt lat="42.27604132742214" lon="14.124181262786701"><ele>324.0</ele><time>2026-05-01T13:30:49Z</time></trkpt><trkpt lat="42.27612428384494" lon="14.124166146440164"><ele>323.0</ele><time>2026-05-01T13:30:50Z</time></trkpt><trkpt lat="42.27620069470101" lon="14.12414684573458"><ele>322.0</ele><time>2026-05-01T13:30:51Z</time></trkpt><trkpt lat="42.276279121912225" lon="14.124138340315236"><ele>321.0</ele><time>2026-05-01T13:30:52Z</time></trkpt><trkpt lat="42.27635852574417" lon="14.124112975904458"><ele>321.0</ele><time>2026-05-01T13:30:53Z</time></trkpt><trkpt lat="42.27642796861344" lon="14.124109869645318"><ele>321.0</ele><time>2026-05-01T13:30:54Z</time></trkpt><trkpt lat="42.276527764517574" lon="14.124111237808078"><ele>321.0</ele><time>2026-05-01T13:30:56Z</time></trkpt><trkpt lat="42.27659992869877" lon="14.124130877380555"><ele>321.0</ele><time>2026-05-01T13:31:00Z</time></trkpt><trkpt lat="42.27666586571303" lon="14.124122822574341"><ele>321.0</ele><time>2026-05-01T13:31:02Z</time></trkpt><trkpt lat="42.27658656483305" lon="14.124130204166056"><ele>321.0</ele><time>2026-05-01T13:31:11Z</time></trkpt><trkpt lat="42.276460751758144" lon="14.124127029395886"><ele>320.0</ele><time>2026-05-01T13:31:13Z</time></trkpt><trkpt lat="42.276326127085454" lon="14.123866387949086"><ele>319.0</ele><time>2026-05-01T13:31:15Z</time></trkpt><trkpt lat="42.276287044075076" lon="14.123781126064298"><ele>318.0</ele><time>2026-05-01T13:31:16Z</time></trkpt><trkpt lat="42.27624988604592" lon="14.123705637800613"><ele>317.0</ele><time>2026-05-01T13:31:17Z</time></trkpt><trkpt lat="42.276205981185555" lon="14.123615574780928"><ele>317.0</ele><time>2026-05-01T13:31:18Z</time></trkpt><trkpt lat="42.276161078502696" lon="14.123530019879594"><ele>317.0</ele><time>2026-05-01T13:31:19Z</time></trkpt><trkpt lat="42.276104742573736" lon="14.123468251251175"><ele>317.0</ele><time>2026-05-01T13:31:20Z</time></trkpt><trkpt lat="42.27605213520827" lon="14.123418901196704"><ele>317.0</ele><time>2026-05-01T13:31:21Z</time></trkpt><trkpt lat="42.275992616280305" lon="14.123364292599527"><ele>317.0</ele><time>2026-05-01T13:31:22Z</time></trkpt><trkpt lat="42.275912297285004" lon="14.123337978071644"><ele>317.0</ele><time>2026-05-01T13:31:23Z</time></trkpt><trkpt lat="42.27582723871612" lon="14.123311640743687"><ele>317.0</ele><time>2026-05-01T13:31:24Z</time></trkpt><trkpt lat="42.27573164080284" lon="14.12328213209912"><ele>317.0</ele><time>2026-05-01T13:31:25Z</time></trkpt><trkpt lat="42.27564091218576" lon="14.123279027338864"><ele>317.0</ele><time>2026-05-01T13:31:26Z</time></trkpt><trkpt lat="42.275564267800746" lon="14.123234416881937"><ele>317.0</ele><time>2026-05-01T13:31:27Z</time></trkpt><trkpt lat="42.27547884694618" lon="14.123210064807251"><ele>317.0</ele><time>2026-05-01T13:31:28Z</time></trkpt><trkpt lat="42.27540731161154" lon="14.123189671349673"><ele>317.0</ele><time>2026-05-01T13:31:29Z</time></trkpt><trkpt lat="42.275335332801426" lon="14.123169151382841"><ele>316.5</ele><time>2026-05-01T13:31:30Z</time></trkpt><trkpt lat="42.27526706678003" lon="14.12314968989207"><ele>316.0</ele><time>2026-05-01T13:31:31Z</time></trkpt><trkpt lat="42.27519787305361" lon="14.123128670294161"><ele>315.5</ele><time>2026-05-01T13:31:32Z</time></trkpt><trkpt lat="42.27513360523316" lon="14.123109011898944"><ele>315.0</ele><time>2026-05-01T13:31:33Z</time></trkpt><trkpt lat="42.27506488126687" lon="14.123113172955405"><ele>314.5</ele><time>2026-05-01T13:31:34Z</time></trkpt><trkpt lat="42.274935273284676" lon="14.12309271480744"><ele>314.0</ele><time>2026-05-01T13:31:36Z</time></trkpt><trkpt lat="42.27482591816275" lon="14.123077489347425"><ele>315.2</ele><time>2026-05-01T13:31:38Z</time></trkpt><trkpt lat="42.274705568259364" lon="14.123064847962684"><ele>316.4</ele><time>2026-05-01T13:31:40Z</time></trkpt><trkpt lat="42.27463562004823" lon="14.123074538843179"><ele>317.6</ele><time>2026-05-01T13:31:41Z</time></trkpt><trkpt lat="42.274571166171896" lon="14.123038880312794"><ele>318.8</ele><time>2026-05-01T13:31:42Z</time></trkpt><trkpt lat="42.27447276256607" lon="14.123007775348587"><ele>320.0</ele><time>2026-05-01T13:31:44Z</time></trkpt><trkpt lat="42.27437216885232" lon="14.122952477442473"><ele>320.0</ele><time>2026-05-01T13:31:46Z</time></trkpt><trkpt lat="42.27427073382457" lon="14.12287920124155"><ele>320.0</ele><time>2026-05-01T13:31:48Z</time></trkpt><trkpt lat="42.274187373814286" lon="14.122816564628302"><ele>320.0</ele><time>2026-05-01T13:31:50Z</time></trkpt><trkpt lat="42.27411474033983" lon="14.122756956838346"><ele>320.0</ele><time>2026-05-01T13:31:52Z</time></trkpt><trkpt lat="42.27405248650351" lon="14.12263741031722"><ele>320.0</ele><time>2026-05-01T13:31:54Z</time></trkpt><trkpt lat="42.27402602393825" lon="14.122559647459546"><ele>320.0</ele><time>2026-05-01T13:31:55Z</time></trkpt><trkpt lat="42.27396443680166" lon="14.122442374289268"><ele>320.0</ele><time>2026-05-01T13:31:57Z</time></trkpt><trkpt lat="42.27390235267887" lon="14.122365914646515"><ele>320.0</ele><time>2026-05-01T13:37:57Z</time></trkpt><trkpt lat="42.273829111735274" lon="14.12229467966101"><ele>320.0</ele><time>2026-05-01T13:37:59Z</time></trkpt><trkpt lat="42.27376553949807" lon="14.122229997053427"><ele>320.0</ele><time>2026-05-01T13:38:01Z</time></trkpt><trkpt lat="42.2737044625974" lon="14.122142855339522"><ele>320.0</ele><time>2026-05-01T13:38:03Z</time></trkpt><trkpt lat="42.27367229254604" lon="14.122024625576486"><ele>316.83333333333337</ele><time>2026-05-01T13:38:05Z</time></trkpt><trkpt lat="42.27364340115411" lon="14.121857080250807"><ele>313.6666666666667</ele><time>2026-05-01T13:38:07Z</time></trkpt><trkpt lat="42.27364000424629" lon="14.121763224721356"><ele>310.5</ele><time>2026-05-01T13:38:08Z</time></trkpt><trkpt lat="42.2736097689286" lon="14.121688322597835"><ele>307.3333333333333</ele><time>2026-05-01T13:38:09Z</time></trkpt><trkpt lat="42.27353304929658" lon="14.121585294300099"><ele>304.16666666666663</ele><time>2026-05-01T13:38:11Z</time></trkpt><trkpt lat="42.273466865638255" lon="14.121535790877942"><ele>301.0</ele><time>2026-05-01T13:38:27Z</time></trkpt><trkpt lat="42.27337852524141" lon="14.121442588977851"><ele>300.5</ele><time>2026-05-01T13:38:29Z</time></trkpt><trkpt lat="42.273319497067725" lon="14.121355611245724"><ele>300.0</ele><time>2026-05-01T13:38:31Z</time></trkpt><trkpt lat="42.27329255004138" lon="14.121271246917887"><ele>299.5</ele><time>2026-05-01T13:38:33Z</time></trkpt><trkpt lat="42.273257825197554" lon="14.121180897709001"><ele>299.0</ele><time>2026-05-01T13:38:35Z</time></trkpt><trkpt lat="42.27320451874718" lon="14.121073401315329"><ele>298.5</ele><time>2026-05-01T13:38:37Z</time></trkpt><trkpt lat="42.27310716346003" lon="14.120984585206905"><ele>298.0</ele><time>2026-05-01T13:38:39Z</time></trkpt><trkpt lat="42.27300295409704" lon="14.120911888788495"><ele>296.8</ele><time>2026-05-01T13:38:41Z</time></trkpt><trkpt lat="42.272906762987446" lon="14.120849897288227"><ele>295.6</ele><time>2026-05-01T13:38:43Z</time></trkpt><trkpt lat="42.27280281069427" lon="14.12080218164308"><ele>294.4</ele><time>2026-05-01T13:38:45Z</time></trkpt><trkpt lat="42.272718346976255" lon="14.120760572368521"><ele>293.2</ele><time>2026-05-01T13:38:47Z</time></trkpt><trkpt lat="42.2726309557617" lon="14.120717619899764"><ele>292.0</ele><time>2026-05-01T13:38:49Z</time></trkpt><trkpt lat="42.27256146389879" lon="14.120635168298628"><ele>290.2</ele><time>2026-05-01T13:38:51Z</time></trkpt><trkpt lat="42.27247352539566" lon="14.120559255639415"><ele>288.4</ele><time>2026-05-01T13:38:53Z</time></trkpt><trkpt lat="42.27235553505726" lon="14.120479987332766"><ele>286.6</ele><time>2026-05-01T13:38:55Z</time></trkpt><trkpt lat="42.27230777617822" lon="14.120414790857863"><ele>284.8</ele><time>2026-05-01T13:38:56Z</time></trkpt><trkpt lat="42.272207682638836" lon="14.12032931547803"><ele>283.0</ele><time>2026-05-01T13:38:58Z</time></trkpt><trkpt lat="42.27211784976315" lon="14.120252602365726"><ele>282.5</ele><time>2026-05-01T13:39:00Z</time></trkpt><trkpt lat="42.272026916022234" lon="14.120200904962566"><ele>282.0</ele><time>2026-05-01T13:39:02Z</time></trkpt><trkpt lat="42.2719249611407" lon="14.120113421473075"><ele>281.5</ele><time>2026-05-01T13:39:04Z</time></trkpt><trkpt lat="42.27181824510663" lon="14.120026527143715"><ele>281.0</ele><time>2026-05-01T13:39:06Z</time></trkpt><trkpt lat="42.27170359544641" lon="14.119943484757083"><ele>280.5</ele><time>2026-05-01T13:39:08Z</time></trkpt><trkpt lat="42.271652572069534" lon="14.11988300478805"><ele>280.0</ele><time>2026-05-01T13:39:09Z</time></trkpt><trkpt lat="42.271560939648516" lon="14.119806064954572"><ele>279.5</ele><time>2026-05-01T13:39:11Z</time></trkpt><trkpt lat="42.27150239824628" lon="14.119767203658999"><ele>279.0</ele><time>2026-05-01T13:39:12Z</time></trkpt><trkpt lat="42.27144420285352" lon="14.119611028349576"><ele>278.5</ele><time>2026-05-01T13:39:14Z</time></trkpt><trkpt lat="42.27141943151909" lon="14.119518684592906"><ele>278.0</ele><time>2026-05-01T13:39:15Z</time></trkpt><trkpt lat="42.271389003399285" lon="14.119424220470368"><ele>278.0</ele><time>2026-05-01T13:39:16Z</time></trkpt><trkpt lat="42.27136121346486" lon="14.11933843123589"><ele>278.0</ele><time>2026-05-01T13:39:17Z</time></trkpt><trkpt lat="42.27133317767072" lon="14.119256666414314"><ele>278.0</ele><time>2026-05-01T13:39:18Z</time></trkpt><trkpt lat="42.2712758320481" lon="14.119107353135158"><ele>278.0</ele><time>2026-05-01T13:39:20Z</time></trkpt><trkpt lat="42.2712426857958" lon="14.119027054721089"><ele>278.0</ele><time>2026-05-01T13:39:21Z</time></trkpt><trkpt lat="42.27116655345922" lon="14.118894715855186"><ele>277.33333333333337</ele><time>2026-05-01T13:39:23Z</time></trkpt><trkpt lat="42.271116129148275" lon="14.11883604712633"><ele>276.6666666666667</ele><time>2026-05-01T13:39:24Z</time></trkpt><trkpt lat="42.271059431368265" lon="14.118796007031538"><ele>276.0</ele><time>2026-05-01T13:39:25Z</time></trkpt><trkpt lat="42.271004427928276" lon="14.118750637032578"><ele>275.3333333333333</ele><time>2026-05-01T13:39:26Z</time></trkpt><trkpt lat="42.270881691476305" lon="14.118739387984363"><ele>274.66666666666663</ele><time>2026-05-01T13:39:28Z</time></trkpt><trkpt lat="42.270806971966245" lon="14.11875054689937"><ele>274.0</ele><time>2026-05-01T13:39:29Z</time></trkpt><trkpt lat="42.2707319485781" lon="14.118723063613235"><ele>274.0</ele><time>2026-05-01T13:39:30Z</time></trkpt><trkpt lat="42.2706478669223" lon="14.118710150451749"><ele>274.0</ele><time>2026-05-01T13:39:31Z</time></trkpt><trkpt lat="42.270562306618736" lon="14.118697010186622"><ele>274.0</ele><time>2026-05-01T13:39:32Z</time></trkpt><trkpt lat="42.270473804559636" lon="14.118683218851391"><ele>274.0</ele><time>2026-05-01T13:39:33Z</time></trkpt><trkpt lat="42.2703953328501" lon="14.118667417859246"><ele>274.0</ele><time>2026-05-01T13:39:34Z</time></trkpt><trkpt lat="42.27032221558117" lon="14.118647274016796"><ele>274.0</ele><time>2026-05-01T13:39:35Z</time></trkpt><trkpt lat="42.27024461464471" lon="14.11863249828058"><ele>275.3333333333333</ele><time>2026-05-01T13:39:36Z</time></trkpt><trkpt lat="42.270170410586566" lon="14.118587717151575"><ele>276.66666666666663</ele><time>2026-05-01T13:39:37Z</time></trkpt><trkpt lat="42.27008935496294" lon="14.118556183441743"><ele>278.0</ele><time>2026-05-01T13:39:38Z</time></trkpt><trkpt lat="42.27001758641566" lon="14.118505109182257"><ele>279.3333333333333</ele><time>2026-05-01T13:39:39Z</time></trkpt><trkpt lat="42.269955670736024" lon="14.118445354542343"><ele>280.6666666666667</ele><time>2026-05-01T13:39:40Z</time></trkpt><trkpt lat="42.26989712783543" lon="14.118405834884554"><ele>282.0</ele><time>2026-05-01T13:39:41Z</time></trkpt><trkpt lat="42.26983318264842" lon="14.118359203085907"><ele>280.6666666666667</ele><time>2026-05-01T13:39:43Z</time></trkpt><trkpt lat="42.26976616928708" lon="14.118306368313412"><ele>279.3333333333333</ele><time>2026-05-01T13:39:47Z</time></trkpt><trkpt lat="42.26971257317459" lon="14.118258531455334"><ele>278.0</ele><time>2026-05-01T13:39:54Z</time></trkpt><trkpt lat="42.26964715336394" lon="14.118201678621917"><ele>276.66666666666663</ele><time>2026-05-01T13:39:59Z</time></trkpt><trkpt lat="42.26959804993786" lon="14.118134100177398"><ele>275.3333333333333</ele><time>2026-05-01T13:40:01Z</time></trkpt><trkpt lat="42.269541452142256" lon="14.118050078442483"><ele>274.0</ele><time>2026-05-01T13:40:03Z</time></trkpt><trkpt lat="42.26948157383977" lon="14.117945060087013"><ele>273.16666666666663</ele><time>2026-05-01T13:40:05Z</time></trkpt><trkpt lat="42.26943286489624" lon="14.117823923839675"><ele>272.3333333333333</ele><time>2026-05-01T13:40:07Z</time></trkpt><trkpt lat="42.269403456004284" lon="14.117704318171771"><ele>271.5</ele><time>2026-05-01T13:40:09Z</time></trkpt><trkpt lat="42.26938449164663" lon="14.117556885207069"><ele>270.6666666666667</ele><time>2026-05-01T13:40:11Z</time></trkpt><trkpt lat="42.2693983249473" lon="14.117471374431009"><ele>269.83333333333337</ele><time>2026-05-01T13:40:12Z</time></trkpt><trkpt lat="42.26943727909911" lon="14.11739995372578"><ele>269.0</ele><time>2026-05-01T13:40:13.001Z</time></trkpt><trkpt lat="42.26948126493054" lon="14.117247334772863"><ele>267.0</ele><time>2026-05-01T13:40:15.001Z</time></trkpt><trkpt lat="42.26954149570524" lon="14.117107506652362"><ele>265.0</ele><time>2026-05-01T13:40:17.001Z</time></trkpt><trkpt lat="42.26960506892606" lon="14.116968220136803"><ele>263.0</ele><time>2026-05-01T13:40:19.001Z</time></trkpt><trkpt lat="42.26958779282833" lon="14.116784742704256"><ele>261.0</ele><time>2026-05-01T13:40:21.001Z</time></trkpt><trkpt lat="42.26960141738976" lon="14.116690853214726"><ele>259.0</ele><time>2026-05-01T13:40:22.001Z</time></trkpt><trkpt lat="42.26958469589136" lon="14.116607958806174"><ele>258.0</ele><time>2026-05-01T13:40:23.001Z</time></trkpt><trkpt lat="42.26958428237159" lon="14.116519309880697"><ele>257.0</ele><time>2026-05-01T13:40:24.001Z</time></trkpt><trkpt lat="42.269595810952865" lon="14.11643004701051"><ele>256.0</ele><time>2026-05-01T13:40:25.001Z</time></trkpt><trkpt lat="42.26958002309996" lon="14.116344253486131"><ele>255.0</ele><time>2026-05-01T13:40:26.001Z</time></trkpt><trkpt lat="42.269580405746375" lon="14.116184359021068"><ele>253.99999999999997</ele><time>2026-05-01T13:40:28.001Z</time></trkpt><trkpt lat="42.26956486204458" lon="14.116035179362322"><ele>253.0</ele><time>2026-05-01T13:40:30.001Z</time></trkpt><trkpt lat="42.26951659885564" lon="14.11587977738733"><ele>253.00000000000003</ele><time>2026-05-01T13:40:32.001Z</time></trkpt><trkpt lat="42.269499354142006" lon="14.115794336043507"><ele>253.0</ele><time>2026-05-01T13:40:33.001Z</time></trkpt><trkpt lat="42.269452221426874" lon="14.115733987189863"><ele>253.00000000000003</ele><time>2026-05-01T13:40:34.001Z</time></trkpt><trkpt lat="42.269397813834296" lon="14.115689116839365"><ele>253.00000000000003</ele><time>2026-05-01T13:40:35.001Z</time></trkpt><trkpt lat="42.269330401748945" lon="14.115669220934"><ele>253.0</ele><time>2026-05-01T13:40:36.001Z</time></trkpt><trkpt lat="42.26928321903581" lon="14.115607906260756"><ele>253.00000000000003</ele><time>2026-05-01T13:40:37.001Z</time></trkpt><trkpt lat="42.26923003461388" lon="14.115557475601511"><ele>253.00000000000003</ele><time>2026-05-01T13:40:38.001Z</time></trkpt><trkpt lat="42.26917807451197" lon="14.115505805067144"><ele>251.8</ele><time>2026-05-01T13:40:39.001Z</time></trkpt><trkpt lat="42.269108359507406" lon="14.115377781897097"><ele>250.60000000000002</ele><time>2026-05-01T13:40:41.001Z</time></trkpt><trkpt lat="42.26907344454803" lon="14.115293213205401"><ele>249.39999999999998</ele><time>2026-05-01T13:40:42.001Z</time></trkpt><trkpt lat="42.26902236370317" lon="14.115159457320807"><ele>248.2</ele><time>2026-05-01T13:40:44.001Z</time></trkpt><trkpt lat="42.268975309770035" lon="14.115071548311787"><ele>247.0</ele><time>2026-05-01T13:40:46.001Z</time></trkpt><trkpt lat="42.268950828366016" lon="14.114978850555563"><ele>243.39999999999998</ele><time>2026-05-01T13:40:48.001Z</time></trkpt><trkpt lat="42.26891312546191" lon="14.114872707640197"><ele>239.79999999999998</ele><time>2026-05-01T13:40:50.001Z</time></trkpt><trkpt lat="42.268888271022746" lon="14.114749282816723"><ele>236.2</ele><time>2026-05-01T13:40:52.001Z</time></trkpt><trkpt lat="42.26881983714927" lon="14.114637648462088"><ele>232.6</ele><time>2026-05-01T13:40:54.001Z</time></trkpt><trkpt lat="42.26880933506378" lon="14.114551174574604"><ele>229.0</ele><time>2026-05-01T13:40:55.001Z</time></trkpt><trkpt lat="42.26878021449024" lon="14.114399711068563"><ele>228.99999999999997</ele><time>2026-05-01T13:40:57.001Z</time></trkpt><trkpt lat="42.26875862466689" lon="14.114307048222928"><ele>229.0</ele><time>2026-05-01T13:40:58.001Z</time></trkpt><trkpt lat="42.26874811133094" lon="14.114192115797481"><ele>229.0</ele><time>2026-05-01T13:40:59.001Z</time></trkpt><trkpt lat="42.26872317324739" lon="14.114082303270726"><ele>229.0</ele><time>2026-05-01T13:41:00.001Z</time></trkpt><trkpt lat="42.26869803878246" lon="14.11399092886844"><ele>228.99999999999997</ele><time>2026-05-01T13:41:01.001Z</time></trkpt><trkpt lat="42.26860235933367" lon="14.113872134574926"><ele>229.0</ele><time>2026-05-01T13:41:03.001Z</time></trkpt><trkpt lat="42.268523416093736" lon="14.11382787320581"><ele>228.99999999999997</ele><time>2026-05-01T13:41:04.001Z</time></trkpt><trkpt lat="42.268444397629125" lon="14.113778251409634"><ele>229.0</ele><time>2026-05-01T13:41:05.001Z</time></trkpt><trkpt lat="42.26837716882001" lon="14.11371952353413"><ele>229.0</ele><time>2026-05-01T13:41:06.001Z</time></trkpt><trkpt lat="42.26831187958636" lon="14.113657689387278"><ele>229.0</ele><time>2026-05-01T13:41:07.001Z</time></trkpt><trkpt lat="42.268248678199875" lon="14.113610412404402"><ele>228.99999999999997</ele><time>2026-05-01T13:41:08.001Z</time></trkpt><trkpt lat="42.26817921245703" lon="14.113579007488259"><ele>229.0</ele><time>2026-05-01T13:41:09.001Z</time></trkpt><trkpt lat="42.26811135382883" lon="14.113542042073647"><ele>228.66666666666666</ele><time>2026-05-01T13:41:10.001Z</time></trkpt><trkpt lat="42.26805260820712" lon="14.113476445800186"><ele>228.33333333333331</ele><time>2026-05-01T13:41:11.001Z</time></trkpt><trkpt lat="42.267993155746794" lon="14.113385289401386"><ele>228.0</ele><time>2026-05-01T13:41:12.001Z</time></trkpt><trkpt lat="42.26793526121143" lon="14.113283906952667"><ele>227.66666666666669</ele><time>2026-05-01T13:41:13.001Z</time></trkpt><trkpt lat="42.267879329799385" lon="14.113185329602873"><ele>227.33333333333334</ele><time>2026-05-01T13:41:14.001Z</time></trkpt><trkpt lat="42.267829567730914" lon="14.11308537770116"><ele>227.0</ele><time>2026-05-01T13:41:15Z</time></trkpt><trkpt lat="42.26779805849539" lon="14.11299663290717"><ele>228.00000000000003</ele><time>2026-05-01T13:41:16Z</time></trkpt><trkpt lat="42.267762363618466" lon="14.112903553064081"><ele>229.0</ele><time>2026-05-01T13:41:17Z</time></trkpt><trkpt lat="42.267731241469086" lon="14.11280650349547"><ele>230.0</ele><time>2026-05-01T13:41:18Z</time></trkpt><trkpt lat="42.26767318372782" lon="14.112743270255114"><ele>231.0</ele><time>2026-05-01T13:41:19Z</time></trkpt><trkpt lat="42.26759706316396" lon="14.112706434145176"><ele>232.00000000000003</ele><time>2026-05-01T13:41:20Z</time></trkpt><trkpt lat="42.267533946002224" lon="14.112637102393435"><ele>233.0</ele><time>2026-05-01T13:41:21Z</time></trkpt><trkpt lat="42.26750196508411" lon="14.112529622399324"><ele>232.33333333333334</ele><time>2026-05-01T13:41:22Z</time></trkpt><trkpt lat="42.26743086241628" lon="14.112395462795778"><ele>231.66666666666669</ele><time>2026-05-01T13:41:24Z</time></trkpt><trkpt lat="42.26740160927473" lon="14.112305567013886"><ele>231.0</ele><time>2026-05-01T13:41:25Z</time></trkpt><trkpt lat="42.26735896657292" lon="14.112209165312931"><ele>230.33333333333331</ele><time>2026-05-01T13:41:26Z</time></trkpt><trkpt lat="42.267336883641484" lon="14.112099800189103"><ele>229.66666666666666</ele><time>2026-05-01T13:41:27Z</time></trkpt><trkpt lat="42.26731653632556" lon="14.112003315107092"><ele>229.0</ele><time>2026-05-01T13:41:28Z</time></trkpt><trkpt lat="42.26729210117812" lon="14.111902638734607"><ele>231.49999999999997</ele><time>2026-05-01T13:41:29Z</time></trkpt><trkpt lat="42.26726949291639" lon="14.111809472523019"><ele>234.0</ele><time>2026-05-01T13:41:30Z</time></trkpt><trkpt lat="42.267243475769604" lon="14.111713863205882"><ele>236.5</ele><time>2026-05-01T13:41:31Z</time></trkpt><trkpt lat="42.26721358885566" lon="14.111613964430767"><ele>239.0</ele><time>2026-05-01T13:41:32Z</time></trkpt><trkpt lat="42.26718785484997" lon="14.111526269293226"><ele>241.49999999999997</ele><time>2026-05-01T13:41:33Z</time></trkpt><trkpt lat="42.26713845513548" lon="14.111357551202758"><ele>244.0</ele><time>2026-05-01T13:41:35Z</time></trkpt><trkpt lat="42.26710537917194" lon="14.111256611685773"><ele>243.99999999999997</ele><time>2026-05-01T13:41:36Z</time></trkpt><trkpt lat="42.26707246739397" lon="14.111154613564917"><ele>244.0</ele><time>2026-05-01T13:41:37Z</time></trkpt><trkpt lat="42.26703980014842" lon="14.111068524960723"><ele>243.99999999999997</ele><time>2026-05-01T13:41:38Z</time></trkpt><trkpt lat="42.26700667236985" lon="14.110992869600597"><ele>243.99999999999997</ele><time>2026-05-01T13:41:39Z</time></trkpt><trkpt lat="42.266973676369716" lon="14.110901087167031"><ele>244.0</ele><time>2026-05-01T13:41:40Z</time></trkpt><trkpt lat="42.26694608045319" lon="14.110802395265996"><ele>243.99999999999997</ele><time>2026-05-01T13:41:41Z</time></trkpt><trkpt lat="42.26691691095911" lon="14.110711896241797"><ele>243.99999999999997</ele><time>2026-05-01T13:41:42Z</time></trkpt><trkpt lat="42.266891411358685" lon="14.110621339382613"><ele>244.49999999999997</ele><time>2026-05-01T13:41:43Z</time></trkpt><trkpt lat="42.26686947825503" lon="14.110527169996463"><ele>245.0</ele><time>2026-05-01T13:41:44Z</time></trkpt><trkpt lat="42.26684489306597" lon="14.110408964147725"><ele>245.5</ele><time>2026-05-01T13:41:45Z</time></trkpt><trkpt lat="42.266824878462835" lon="14.11030721341529"><ele>246.0</ele><time>2026-05-01T13:41:46Z</time></trkpt><trkpt lat="42.266805704360685" lon="14.110201589903376"><ele>246.49999999999997</ele><time>2026-05-01T13:41:47Z</time></trkpt><trkpt lat="42.26679420285473" lon="14.110089661173168"><ele>247.0</ele><time>2026-05-01T13:41:48Z</time></trkpt><trkpt lat="42.266787605515475" lon="14.109986252350469"><ele>249.0</ele><time>2026-05-01T13:41:49Z</time></trkpt><trkpt lat="42.26677284458733" lon="14.109891212679843"><ele>251.0</ele><time>2026-05-01T13:41:50Z</time></trkpt><trkpt lat="42.2667115460624" lon="14.109746275548428"><ele>253.0</ele><time>2026-05-01T13:41:52Z</time></trkpt><trkpt lat="42.26665642809975" lon="14.109610425270777"><ele>255.0</ele><time>2026-05-01T13:41:54Z</time></trkpt><trkpt lat="42.26662162258559" lon="14.10952370181628"><ele>257.0</ele><time>2026-05-01T13:41:55Z</time></trkpt><trkpt lat="42.26657966265718" lon="14.109435574723062"><ele>257.0</ele><time>2026-05-01T13:41:56Z</time></trkpt><trkpt lat="42.26653630340654" lon="14.109339356079433"><ele>257.0</ele><time>2026-05-01T13:41:57Z</time></trkpt><trkpt lat="42.26649594360154" lon="14.109252664466128"><ele>257.0</ele><time>2026-05-01T13:41:58Z</time></trkpt><trkpt lat="42.26647893211867" lon="14.109158373342236"><ele>257.0</ele><time>2026-05-01T13:41:59Z</time></trkpt><trkpt lat="42.266439874642685" lon="14.109089919661075"><ele>257.0</ele><time>2026-05-01T13:42:00Z</time></trkpt><trkpt lat="42.26639918424642" lon="14.109019800127667"><ele>257.0</ele><time>2026-05-01T13:42:01Z</time></trkpt><trkpt lat="42.26630776152262" lon="14.10890440000634"><ele>258.6666666666667</ele><time>2026-05-01T13:42:03Z</time></trkpt><trkpt lat="42.26623257842938" lon="14.108792604565883"><ele>260.33333333333337</ele><time>2026-05-01T13:42:05Z</time></trkpt><trkpt lat="42.266183566690685" lon="14.10872216826169"><ele>262.0</ele><time>2026-05-01T13:42:06Z</time></trkpt><trkpt lat="42.26612445618646" lon="14.108639643329075"><ele>263.6666666666667</ele><time>2026-05-01T13:42:07Z</time></trkpt><trkpt lat="42.26606826612555" lon="14.108552455114499"><ele>265.3333333333333</ele><time>2026-05-01T13:42:08Z</time></trkpt><trkpt lat="42.26601754048784" lon="14.10847325704315"><ele>267.0</ele><time>2026-05-01T13:42:09Z</time></trkpt><trkpt lat="42.265973139123794" lon="14.108398690398465"><ele>267.0</ele><time>2026-05-01T13:42:10Z</time></trkpt><trkpt lat="42.26592942498687" lon="14.108330338092001"><ele>267.0</ele><time>2026-05-01T13:42:11Z</time></trkpt><trkpt lat="42.26585248869478" lon="14.108188439899578"><ele>267.0</ele><time>2026-05-01T13:42:13Z</time></trkpt><trkpt lat="42.26581568093236" lon="14.108110998850414"><ele>267.0</ele><time>2026-05-01T13:42:14Z</time></trkpt><trkpt lat="42.26578867804327" lon="14.108032970082052"><ele>267.0</ele><time>2026-05-01T13:42:15Z</time></trkpt><trkpt lat="42.265760251282735" lon="14.107956077102493"><ele>267.0</ele><time>2026-05-01T13:42:16Z</time></trkpt><trkpt lat="42.26573290516988" lon="14.10787372535699"><ele>267.3333333333333</ele><time>2026-05-01T13:42:17Z</time></trkpt><trkpt lat="42.26570257856194" lon="14.107790281264403"><ele>267.6666666666667</ele><time>2026-05-01T13:42:18Z</time></trkpt><trkpt lat="42.26567442631128" lon="14.107710709087106"><ele>268.0</ele><time>2026-05-01T13:42:19.001Z</time></trkpt><trkpt lat="42.26561600685702" lon="14.10757187696031"><ele>268.33333333333337</ele><time>2026-05-01T13:42:21.001Z</time></trkpt><trkpt lat="42.265555763951184" lon="14.10747223401564"><ele>268.6666666666667</ele><time>2026-05-01T13:42:23.001Z</time></trkpt><trkpt lat="42.26549597794306" lon="14.107361414674902"><ele>269.0</ele><time>2026-05-01T13:42:25.001Z</time></trkpt><trkpt lat="42.26545861107817" lon="14.10729286331696"><ele>269.2</ele><time>2026-05-01T13:42:26.001Z</time></trkpt><trkpt lat="42.26544329799928" lon="14.107210214867928"><ele>269.4</ele><time>2026-05-01T13:42:27.001Z</time></trkpt><trkpt lat="42.26539001108161" lon="14.107072785083787"><ele>269.6</ele><time>2026-05-01T13:42:29.001Z</time></trkpt><trkpt lat="42.26533190051175" lon="14.106941646646451"><ele>269.8</ele><time>2026-05-01T13:42:31.001Z</time></trkpt><trkpt lat="42.26528882479291" lon="14.106839717851502"><ele>270.0</ele><time>2026-05-01T13:42:33.001Z</time></trkpt><trkpt lat="42.26532714352222" lon="14.106930390210609"><ele>257.5</ele><time>2026-05-01T13:43:21Z</time></trkpt><trkpt lat="42.265615993552686" lon="14.106486173858201"><ele>245.0</ele><time>2026-05-01T13:44:23Z</time></trkpt><trkpt lat="42.2656924828972" lon="14.10642796341265"><ele>245.00000000000003</ele><time>2026-05-01T13:44:26.001Z</time></trkpt><trkpt lat="42.2657727737691" lon="14.106378675772907"><ele>245.0</ele><time>2026-05-01T13:44:29.001Z</time></trkpt><trkpt lat="42.26583609180517" lon="14.106342966297618"><ele>245.0</ele><time>2026-05-01T13:44:31.001Z</time></trkpt><trkpt lat="42.26589793490545" lon="14.106292651586731"><ele>245.0</ele><time>2026-05-01T13:44:33.001Z</time></trkpt><trkpt lat="42.2659623002261" lon="14.106231167137686"><ele>245.00000000000003</ele><time>2026-05-01T13:44:35.001Z</time></trkpt><trkpt lat="42.266017184160376" lon="14.106161490981313"><ele>245.0</ele><time>2026-05-01T13:44:37.001Z</time></trkpt><trkpt lat="42.26606423336103" lon="14.106087275182306"><ele>245.0</ele><time>2026-05-01T13:44:39.001Z</time></trkpt><trkpt lat="42.26610189898734" lon="14.106017887466997"><ele>245.0</ele><time>2026-05-01T13:44:41.001Z</time></trkpt><trkpt lat="42.266138596314526" lon="14.105935472544797"><ele>245.0</ele><time>2026-05-01T13:44:43.001Z</time></trkpt><trkpt lat="42.26617107784283" lon="14.105840347936441"><ele>245.0</ele><time>2026-05-01T13:44:46.001Z</time></trkpt><trkpt lat="42.26619324344526" lon="14.105738531128216"><ele>245.0</ele><time>2026-05-01T13:44:52.001Z</time></trkpt><trkpt lat="42.26621132987901" lon="14.10565274623552"><ele>245.0</ele><time>2026-05-01T13:44:55.001Z</time></trkpt><trkpt lat="42.266227759611155" lon="14.105547579674505"><ele>245.0</ele><time>2026-05-01T13:44:58.001Z</time></trkpt><trkpt lat="42.266250871392394" lon="14.105445937550282"><ele>240.8</ele><time>2026-05-01T13:45:00.001Z</time></trkpt><trkpt lat="42.266270877458595" lon="14.105351673005107"><ele>236.6</ele><time>2026-05-01T13:45:02.001Z</time></trkpt><trkpt lat="42.26629983392217" lon="14.10523706356737"><ele>232.39999999999998</ele><time>2026-05-01T13:45:05.001Z</time></trkpt><trkpt lat="42.26632460220074" lon="14.105156178153853"><ele>228.2</ele><time>2026-05-01T13:45:07.001Z</time></trkpt><trkpt lat="42.26639233882411" lon="14.105016157209958"><ele>224.0</ele><time>2026-05-01T13:45:09.001Z</time></trkpt><trkpt lat="42.26646722847518" lon="14.104926458842067"><ele>221.42857142857142</ele><time>2026-05-01T13:45:11Z</time></trkpt><trkpt lat="42.26652329000933" lon="14.104873888715083"><ele>218.85714285714286</ele><time>2026-05-01T13:45:12Z</time></trkpt><trkpt lat="42.266578707251796" lon="14.104827550748134"><ele>216.28571428571428</ele><time>2026-05-01T13:45:13Z</time></trkpt><trkpt lat="42.2666349485956" lon="14.104787492631054"><ele>213.71428571428572</ele><time>2026-05-01T13:45:14Z</time></trkpt><trkpt lat="42.26669638555145" lon="14.10475616228016"><ele>211.14285714285714</ele><time>2026-05-01T13:45:15Z</time></trkpt><trkpt lat="42.26676423147714" lon="14.10473770475411"><ele>208.57142857142856</ele><time>2026-05-01T13:45:16Z</time></trkpt><trkpt lat="42.2668347237024" lon="14.104728591421187"><ele>206.0</ele><time>2026-05-01T13:45:17Z</time></trkpt><trkpt lat="42.26690445881155" lon="14.104726939455048"><ele>206.0</ele><time>2026-05-01T13:45:18Z</time></trkpt><trkpt lat="42.26696954568297" lon="14.104722816797192"><ele>206.0</ele><time>2026-05-01T13:45:19Z</time></trkpt><trkpt lat="42.26708462932202" lon="14.104700816341758"><ele>206.0</ele><time>2026-05-01T13:45:21Z</time></trkpt><trkpt lat="42.26719992506006" lon="14.104678972071067"><ele>206.0</ele><time>2026-05-01T13:45:23Z</time></trkpt><trkpt lat="42.26731559512111" lon="14.104647126364727"><ele>206.0</ele><time>2026-05-01T13:45:25Z</time></trkpt><trkpt lat="42.26738389910108" lon="14.104626455438252"><ele>206.50000000000003</ele><time>2026-05-01T13:45:26Z</time></trkpt><trkpt lat="42.26744990201214" lon="14.104608081416133"><ele>207.0</ele><time>2026-05-01T13:45:27Z</time></trkpt><trkpt lat="42.26751866424242" lon="14.104595140957974"><ele>207.5</ele><time>2026-05-01T13:45:28Z</time></trkpt><trkpt lat="42.26759788756249" lon="14.104588227282715"><ele>208.0</ele><time>2026-05-01T13:45:29Z</time></trkpt><trkpt lat="42.26767964136949" lon="14.104580700041005"><ele>208.50000000000003</ele><time>2026-05-01T13:45:30Z</time></trkpt><trkpt lat="42.26775626878718" lon="14.1045701340053"><ele>209.0</ele><time>2026-05-01T13:45:31Z</time></trkpt><trkpt lat="42.26784090196183" lon="14.104560515008421"><ele>209.00000000000003</ele><time>2026-05-01T13:45:32Z</time></trkpt><trkpt lat="42.26791614109707" lon="14.104550727386961"><ele>209.0</ele><time>2026-05-01T13:45:33Z</time></trkpt><trkpt lat="42.26800063017294" lon="14.104538177893835"><ele>209.0</ele><time>2026-05-01T13:45:34Z</time></trkpt><trkpt lat="42.2680734998053" lon="14.10451948960899"><ele>209.0</ele><time>2026-05-01T13:45:35Z</time></trkpt><trkpt lat="42.268160623505615" lon="14.104502894653532"><ele>209.00000000000003</ele><time>2026-05-01T13:45:36Z</time></trkpt><trkpt lat="42.268233912344016" lon="14.104481744552734"><ele>209.0</ele><time>2026-05-01T13:45:37Z</time></trkpt><trkpt lat="42.268313631507475" lon="14.104456085503045"><ele>210.0</ele><time>2026-05-01T13:45:38Z</time></trkpt><trkpt lat="42.26838544582124" lon="14.104436574804048"><ele>211.0</ele><time>2026-05-01T13:45:39Z</time></trkpt><trkpt lat="42.268450026012395" lon="14.10441780316223"><ele>211.99999999999997</ele><time>2026-05-01T13:45:40Z</time></trkpt><trkpt lat="42.26856486691666" lon="14.104393262383788"><ele>213.0</ele><time>2026-05-01T13:45:42Z</time></trkpt><trkpt lat="42.26866939147281" lon="14.10439750749931"><ele>214.0</ele><time>2026-05-01T13:45:44Z</time></trkpt><trkpt lat="42.26878702332805" lon="14.104434422462788"><ele>213.99999999999997</ele><time>2026-05-01T13:45:46Z</time></trkpt><trkpt lat="42.2688567211441" lon="14.104440840055528"><ele>214.0</ele><time>2026-05-01T13:45:47Z</time></trkpt><trkpt lat="42.26892723874787" lon="14.104457265583587"><ele>214.0</ele><time>2026-05-01T13:45:48Z</time></trkpt><trkpt lat="42.26899903986105" lon="14.104483881940258"><ele>214.0</ele><time>2026-05-01T13:45:49Z</time></trkpt><trkpt lat="42.26907547251516" lon="14.1045075191137"><ele>213.99999999999997</ele><time>2026-05-01T13:45:50Z</time></trkpt><trkpt lat="42.26914645301241" lon="14.104521007634235"><ele>214.0</ele><time>2026-05-01T13:45:51Z</time></trkpt><trkpt lat="42.26925976594716" lon="14.104557066954737"><ele>213.83333333333331</ele><time>2026-05-01T13:45:53Z</time></trkpt><trkpt lat="42.269330824060745" lon="14.10459456687693"><ele>213.66666666666666</ele><time>2026-05-01T13:45:54Z</time></trkpt><trkpt lat="42.26941457708146" lon="14.104627684254003"><ele>213.5</ele><time>2026-05-01T13:45:55Z</time></trkpt><trkpt lat="42.26949299130057" lon="14.104637210991742"><ele>213.33333333333331</ele><time>2026-05-01T13:45:56Z</time></trkpt><trkpt lat="42.2695684550702" lon="14.10462928513551"><ele>213.16666666666666</ele><time>2026-05-01T13:45:57Z</time></trkpt><trkpt lat="42.26964202200322" lon="14.104611801442216"><ele>213.0</ele><time>2026-05-01T13:45:58Z</time></trkpt><trkpt lat="42.26970707544895" lon="14.104591392111255"><ele>213.83333333333334</ele><time>2026-05-01T13:45:59Z</time></trkpt><trkpt lat="42.269839809292655" lon="14.104578080624506"><ele>214.66666666666669</ele><time>2026-05-01T13:46:01Z</time></trkpt><trkpt lat="42.26992272621777" lon="14.104581555128254"><ele>215.5</ele><time>2026-05-01T13:46:02Z</time></trkpt><trkpt lat="42.269987032783874" lon="14.104592458172773"><ele>216.33333333333334</ele><time>2026-05-01T13:46:03Z</time></trkpt><trkpt lat="42.27006626433377" lon="14.104603943636496"><ele>217.16666666666669</ele><time>2026-05-01T13:46:04Z</time></trkpt><trkpt lat="42.27015292772399" lon="14.104616486044264"><ele>218.0</ele><time>2026-05-01T13:46:05Z</time></trkpt><trkpt lat="42.2702361048047" lon="14.104624148027783"><ele>218.00000000000003</ele><time>2026-05-01T13:46:06Z</time></trkpt><trkpt lat="42.270364433790235" lon="14.104632049234734"><ele>218.0</ele><time>2026-05-01T13:46:08Z</time></trkpt><trkpt lat="42.27042799838325" lon="14.104630470042661"><ele>218.0</ele><time>2026-05-01T13:46:09Z</time></trkpt><trkpt lat="42.27049585201598" lon="14.104623596315122"><ele>218.0</ele><time>2026-05-01T13:46:10Z</time></trkpt><trkpt lat="42.270591750331945" lon="14.104617001520117"><ele>218.00000000000003</ele><time>2026-05-01T13:46:12Z</time></trkpt><trkpt lat="42.270673650441395" lon="14.104597947508775"><ele>218.0</ele><time>2026-05-01T13:46:14Z</time></trkpt><trkpt lat="42.27079599472922" lon="14.104572910374884"><ele>217.60000000000002</ele><time>2026-05-01T13:46:16Z</time></trkpt><trkpt lat="42.27091227284487" lon="14.104549213764935"><ele>217.20000000000002</ele><time>2026-05-01T13:46:18Z</time></trkpt><trkpt lat="42.271045857027715" lon="14.104506108769327"><ele>216.8</ele><time>2026-05-01T13:46:20Z</time></trkpt><trkpt lat="42.27111789703294" lon="14.104473037262824"><ele>216.4</ele><time>2026-05-01T13:46:21Z</time></trkpt><trkpt lat="42.271199684638" lon="14.1044446833023"><ele>216.0</ele><time>2026-05-01T13:46:22Z</time></trkpt><trkpt lat="42.27128667875066" lon="14.104427743501107"><ele>216.0</ele><time>2026-05-01T13:46:23Z</time></trkpt><trkpt lat="42.27138067693738" lon="14.104422360415729"><ele>216.00000000000003</ele><time>2026-05-01T13:46:24Z</time></trkpt><trkpt lat="42.271465975613374" lon="14.104417738136053"><ele>216.00000000000003</ele><time>2026-05-01T13:46:25Z</time></trkpt><trkpt lat="42.27154216117112" lon="14.104421544094635"><ele>216.0</ele><time>2026-05-01T13:46:26Z</time></trkpt><trkpt lat="42.27166035570409" lon="14.104391249125104"><ele>216.0</ele><time>2026-05-01T13:46:28Z</time></trkpt><trkpt lat="42.27172545537286" lon="14.104331801363612"><ele>215.0</ele><time>2026-05-01T13:46:29Z</time></trkpt><trkpt lat="42.271794513728146" lon="14.104251274434862"><ele>214.0</ele><time>2026-05-01T13:46:30Z</time></trkpt><trkpt lat="42.27186075381833" lon="14.104178567819435"><ele>213.0</ele><time>2026-05-01T13:46:31.001Z</time></trkpt><trkpt lat="42.27192380829396" lon="14.104109888385686"><ele>212.0</ele><time>2026-05-01T13:46:32.001Z</time></trkpt><trkpt lat="42.27196663444247" lon="14.104047393728345"><ele>211.0</ele><time>2026-05-01T13:46:33.001Z</time></trkpt><trkpt lat="42.27199587489363" lon="14.103970179019893"><ele>210.0</ele><time>2026-05-01T13:46:34.001Z</time></trkpt><trkpt lat="42.272030110716535" lon="14.103897003010987"><ele>209.0</ele><time>2026-05-01T13:46:35.001Z</time></trkpt><trkpt lat="42.27206419894424" lon="14.103820113792075"><ele>206.66666666666669</ele><time>2026-05-01T13:46:36.001Z</time></trkpt><trkpt lat="42.27209158066884" lon="14.103725603667781"><ele>204.33333333333334</ele><time>2026-05-01T13:46:37.001Z</time></trkpt><trkpt lat="42.27211489498955" lon="14.103621848264867"><ele>202.0</ele><time>2026-05-01T13:46:38.001Z</time></trkpt><trkpt lat="42.27214215140559" lon="14.103508025966516"><ele>199.66666666666669</ele><time>2026-05-01T13:46:39.001Z</time></trkpt><trkpt lat="42.272172168262436" lon="14.103391544283774"><ele>197.33333333333334</ele><time>2026-05-01T13:46:40.001Z</time></trkpt><trkpt lat="42.27219846467502" lon="14.103267924498116"><ele>195.0</ele><time>2026-05-01T13:46:41.001Z</time></trkpt><trkpt lat="42.27221198586262" lon="14.103137428596527"><ele>193.16666666666666</ele><time>2026-05-01T13:46:42Z</time></trkpt><trkpt lat="42.272212224171525" lon="14.103008684638946"><ele>191.33333333333334</ele><time>2026-05-01T13:46:43Z</time></trkpt><trkpt lat="42.272217474646254" lon="14.102911863611867"><ele>189.5</ele><time>2026-05-01T13:46:44Z</time></trkpt><trkpt lat="42.27223209178185" lon="14.102826745970972"><ele>187.66666666666669</ele><time>2026-05-01T13:46:45Z</time></trkpt><trkpt lat="42.272264706616625" lon="14.102751262594008"><ele>185.83333333333334</ele><time>2026-05-01T13:46:46Z</time></trkpt><trkpt lat="42.27236696492374" lon="14.102629685825299"><ele>184.0</ele><time>2026-05-01T13:46:48Z</time></trkpt><trkpt lat="42.27243632771058" lon="14.102572601690097"><ele>185.33333333333334</ele><time>2026-05-01T13:46:49Z</time></trkpt><trkpt lat="42.27250899051142" lon="14.10251118496138"><ele>186.66666666666669</ele><time>2026-05-01T13:46:50Z</time></trkpt><trkpt lat="42.27258826108531" lon="14.102441107906596"><ele>188.0</ele><time>2026-05-01T13:46:51Z</time></trkpt><trkpt lat="42.272665026470605" lon="14.102373963770093"><ele>189.33333333333334</ele><time>2026-05-01T13:46:52Z</time></trkpt><trkpt lat="42.27272997681027" lon="14.102302743451148"><ele>190.66666666666666</ele><time>2026-05-01T13:46:53Z</time></trkpt><trkpt lat="42.272784073016304" lon="14.102224550914634"><ele>192.0</ele><time>2026-05-01T13:46:54Z</time></trkpt><trkpt lat="42.272825485081796" lon="14.102132129694104"><ele>192.0</ele><time>2026-05-01T13:46:55Z</time></trkpt><trkpt lat="42.27285347192492" lon="14.102027602838103"><ele>192.0</ele><time>2026-05-01T13:46:56Z</time></trkpt><trkpt lat="42.27288009291048" lon="14.101916492141712"><ele>192.0</ele><time>2026-05-01T13:46:57Z</time></trkpt><trkpt lat="42.27290806574789" lon="14.101809290128822"><ele>192.0</ele><time>2026-05-01T13:46:58Z</time></trkpt><trkpt lat="42.27294305805457" lon="14.101712339271515"><ele>192.0</ele><time>2026-05-01T13:46:59Z</time></trkpt><trkpt lat="42.2729858846562" lon="14.101628956969439"><ele>192.0</ele><time>2026-05-01T13:47:00Z</time></trkpt><trkpt lat="42.27303043225945" lon="14.101556148506765"><ele>191.85714285714283</ele><time>2026-05-01T13:47:01Z</time></trkpt><trkpt lat="42.27308741303641" lon="14.101501929867448"><ele>191.71428571428572</ele><time>2026-05-01T13:47:02Z</time></trkpt><trkpt lat="42.27314871219167" lon="14.101463629489421"><ele>191.57142857142856</ele><time>2026-05-01T13:47:03Z</time></trkpt><trkpt lat="42.27321389598219" lon="14.101443669148258"><ele>191.42857142857142</ele><time>2026-05-01T13:47:04Z</time></trkpt><trkpt lat="42.27328091209519" lon="14.10144966129773"><ele>191.28571428571428</ele><time>2026-05-01T13:47:05Z</time></trkpt><trkpt lat="42.27335832167351" lon="14.101472026089773"><ele>191.14285714285714</ele><time>2026-05-01T13:47:06Z</time></trkpt><trkpt lat="42.27344468413616" lon="14.101502275714918"><ele>191.0</ele><time>2026-05-01T13:47:07Z</time></trkpt><trkpt lat="42.273537835744534" lon="14.101537990578851"><ele>191.0</ele><time>2026-05-01T13:47:08Z</time></trkpt><trkpt lat="42.27363569958986" lon="14.101576202349932"><ele>191.0</ele><time>2026-05-01T13:47:09Z</time></trkpt><trkpt lat="42.27373440484885" lon="14.101618090917432"><ele>191.0</ele><time>2026-05-01T13:47:10Z</time></trkpt><trkpt lat="42.273833659412134" lon="14.10166429534549"><ele>191.0</ele><time>2026-05-01T13:47:11Z</time></trkpt><trkpt lat="42.27393335336807" lon="14.101707302173748"><ele>191.0</ele><time>2026-05-01T13:47:12Z</time></trkpt><trkpt lat="42.27403386596853" lon="14.101743608346863"><ele>189.8</ele><time>2026-05-01T13:47:13Z</time></trkpt><trkpt lat="42.27413420817623" lon="14.101772089648774"><ele>188.60000000000002</ele><time>2026-05-01T13:47:14Z</time></trkpt><trkpt lat="42.274234081452555" lon="14.101783968403428"><ele>187.4</ele><time>2026-05-01T13:47:15Z</time></trkpt><trkpt lat="42.27433139800207" lon="14.101774031183558"><ele>186.2</ele><time>2026-05-01T13:47:16Z</time></trkpt><trkpt lat="42.27442510744626" lon="14.101751148654543"><ele>185.0</ele><time>2026-05-01T13:47:17Z</time></trkpt><trkpt lat="42.27451410703354" lon="14.101708103331067"><ele>185.0</ele><time>2026-05-01T13:47:18Z</time></trkpt><trkpt lat="42.274598237815056" lon="14.101652696065512"><ele>185.0</ele><time>2026-05-01T13:47:19Z</time></trkpt><trkpt lat="42.27467470470637" lon="14.101584364163134"><ele>185.0</ele><time>2026-05-01T13:47:20Z</time></trkpt><trkpt lat="42.27474275796428" lon="14.101502504609474"><ele>185.0</ele><time>2026-05-01T13:47:21Z</time></trkpt><trkpt lat="42.274809797876564" lon="14.101411150268392"><ele>185.0</ele><time>2026-05-01T13:47:22Z</time></trkpt><trkpt lat="42.274869760928645" lon="14.10130997027116"><ele>183.8</ele><time>2026-05-01T13:47:23Z</time></trkpt><trkpt lat="42.27491430765257" lon="14.10120349221255"><ele>182.6</ele><time>2026-05-01T13:47:24Z</time></trkpt><trkpt lat="42.27495882453221" lon="14.101084639938088"><ele>181.39999999999998</ele><time>2026-05-01T13:47:25Z</time></trkpt><trkpt lat="42.27500248958971" lon="14.100958627075322"><ele>180.2</ele><time>2026-05-01T13:47:26Z</time></trkpt><trkpt lat="42.27505060103655" lon="14.100832399988928"><ele>179.0</ele><time>2026-05-01T13:47:27Z</time></trkpt><trkpt lat="42.27509840191648" lon="14.10070941388247"><ele>178.0</ele><time>2026-05-01T13:47:28Z</time></trkpt><trkpt lat="42.275146987552176" lon="14.100587981641324"><ele>177.0</ele><time>2026-05-01T13:47:29Z</time></trkpt><trkpt lat="42.27519747342102" lon="14.100471382976796"><ele>176.0</ele><time>2026-05-01T13:47:30Z</time></trkpt><trkpt lat="42.27524485196164" lon="14.100350641164233"><ele>175.0</ele><time>2026-05-01T13:47:31Z</time></trkpt><trkpt lat="42.2752931243985" lon="14.100231762137708"><ele>174.0</ele><time>2026-05-01T13:47:32Z</time></trkpt><trkpt lat="42.275342512756694" lon="14.10011142715388"><ele>174.0</ele><time>2026-05-01T13:47:33Z</time></trkpt><trkpt lat="42.27539030669616" lon="14.099991979522976"><ele>174.0</ele><time>2026-05-01T13:47:34Z</time></trkpt><trkpt lat="42.27543455409866" lon="14.099873850325885"><ele>174.0</ele><time>2026-05-01T13:47:35Z</time></trkpt><trkpt lat="42.275470503210585" lon="14.099757530801622"><ele>174.0</ele><time>2026-05-01T13:47:36Z</time></trkpt><trkpt lat="42.27549835208834" lon="14.099634327195668"><ele>174.0</ele><time>2026-05-01T13:47:37Z</time></trkpt><trkpt lat="42.275524586751686" lon="14.099505315847432"><ele>174.2</ele><time>2026-05-01T13:47:38Z</time></trkpt><trkpt lat="42.27551869765287" lon="14.099358147356329"><ele>174.39999999999998</ele><time>2026-05-01T13:47:39Z</time></trkpt><trkpt lat="42.275498275427104" lon="14.099209088543375"><ele>174.6</ele><time>2026-05-01T13:47:40Z</time></trkpt><trkpt lat="42.275475376779596" lon="14.099066140725697"><ele>174.8</ele><time>2026-05-01T13:47:41Z</time></trkpt><trkpt lat="42.275451406628775" lon="14.098938117076742"><ele>175.0</ele><time>2026-05-01T13:47:42Z</time></trkpt><trkpt lat="42.27543025263821" lon="14.098821435915498"><ele>175.83333333333334</ele><time>2026-05-01T13:47:43Z</time></trkpt><trkpt lat="42.27541126960178" lon="14.09870714666983"><ele>176.66666666666669</ele><time>2026-05-01T13:47:44Z</time></trkpt><trkpt lat="42.2753929213417" lon="14.098591415007883"><ele>177.5</ele><time>2026-05-01T13:47:45Z</time></trkpt><trkpt lat="42.27537365626342" lon="14.098476374616292"><ele>178.33333333333334</ele><time>2026-05-01T13:47:46Z</time></trkpt><trkpt lat="42.275344261135515" lon="14.098363014663935"><ele>179.16666666666666</ele><time>2026-05-01T13:47:47Z</time></trkpt><trkpt lat="42.2753300772278" lon="14.098235356457042"><ele>180.0</ele><time>2026-05-01T13:47:48Z</time></trkpt><trkpt lat="42.275317751558724" lon="14.098105414471304"><ele>180.0</ele><time>2026-05-01T13:47:49Z</time></trkpt><trkpt lat="42.275312521564196" lon="14.097968992134891"><ele>180.0</ele><time>2026-05-01T13:47:50Z</time></trkpt><trkpt lat="42.275314685796786" lon="14.097832903700505"><ele>180.0</ele><time>2026-05-01T13:47:51Z</time></trkpt><trkpt lat="42.275319715999984" lon="14.097692445166373"><ele>180.0</ele><time>2026-05-01T13:47:52Z</time></trkpt><trkpt lat="42.275329109573896" lon="14.097550302761485"><ele>180.0</ele><time>2026-05-01T13:47:53Z</time></trkpt><trkpt lat="42.275338578784236" lon="14.097412959418481"><ele>179.16666666666666</ele><time>2026-05-01T13:47:54Z</time></trkpt><trkpt lat="42.27534823391888" lon="14.097294403512077"><ele>178.33333333333334</ele><time>2026-05-01T13:47:55Z</time></trkpt><trkpt lat="42.27535865331466" lon="14.097181789876187"><ele>177.5</ele><time>2026-05-01T13:47:56Z</time></trkpt><trkpt lat="42.27536928068455" lon="14.097075890609748"><ele>176.66666666666669</ele><time>2026-05-01T13:47:57Z</time></trkpt><trkpt lat="42.275381247769374" lon="14.096977572958869"><ele>175.83333333333334</ele><time>2026-05-01T13:47:58Z</time></trkpt><trkpt lat="42.275392622264185" lon="14.096882524962998"><ele>175.0</ele><time>2026-05-01T13:47:59Z</time></trkpt><trkpt lat="42.275403009285384" lon="14.096789573643088"><ele>175.0</ele><time>2026-05-01T13:48:00Z</time></trkpt><trkpt lat="42.275415888922964" lon="14.09668723191001"><ele>175.0</ele><time>2026-05-01T13:48:01Z</time></trkpt><trkpt lat="42.275428741246316" lon="14.096575282338"><ele>175.0</ele><time>2026-05-01T13:48:02Z</time></trkpt><trkpt lat="42.27543959326307" lon="14.096455991005262"><ele>175.0</ele><time>2026-05-01T13:48:03Z</time></trkpt><trkpt lat="42.275451193999366" lon="14.096331926889192"><ele>175.0</ele><time>2026-05-01T13:48:04Z</time></trkpt><trkpt lat="42.2754649376185" lon="14.096202356809066"><ele>175.0</ele><time>2026-05-01T13:48:05Z</time></trkpt><trkpt lat="42.27548027371176" lon="14.096071689835362"><ele>173.83333333333334</ele><time>2026-05-01T13:48:06Z</time></trkpt><trkpt lat="42.27550221053595" lon="14.095941678870233"><ele>172.66666666666669</ele><time>2026-05-01T13:48:07Z</time></trkpt><trkpt lat="42.27552930868661" lon="14.09582170406819"><ele>171.5</ele><time>2026-05-01T13:48:08Z</time></trkpt><trkpt lat="42.275556450721304" lon="14.095709047406377"><ele>170.33333333333334</ele><time>2026-05-01T13:48:09Z</time></trkpt><trkpt lat="42.27559609906537" lon="14.095604826738347"><ele>169.16666666666666</ele><time>2026-05-01T13:48:10Z</time></trkpt><trkpt lat="42.2756066038573" lon="14.095498225590465"><ele>168.0</ele><time>2026-05-01T13:48:11Z</time></trkpt><trkpt lat="42.27559456438647" lon="14.095385757932018"><ele>167.4</ele><time>2026-05-01T13:48:12Z</time></trkpt><trkpt lat="42.27559491176849" lon="14.095292991901294"><ele>166.8</ele><time>2026-05-01T13:48:13Z</time></trkpt><trkpt lat="42.275640574222756" lon="14.095168820612122"><ele>166.2</ele><time>2026-05-01T13:48:15Z</time></trkpt><trkpt lat="42.27576151069819" lon="14.095106443243688"><ele>165.6</ele><time>2026-05-01T13:48:17Z</time></trkpt><trkpt lat="42.275851379515245" lon="14.095068371854204"><ele>165.0</ele><time>2026-05-01T13:48:18Z</time></trkpt><trkpt lat="42.275951271905576" lon="14.09501354807244"><ele>165.0</ele><time>2026-05-01T13:48:19Z</time></trkpt><trkpt lat="42.27605758114096" lon="14.094953194625822"><ele>165.0</ele><time>2026-05-01T13:48:20Z</time></trkpt><trkpt lat="42.276163842600134" lon="14.094892667119055"><ele>165.0</ele><time>2026-05-01T13:48:21Z</time></trkpt><trkpt lat="42.27627174592747" lon="14.09483288538855"><ele>165.0</ele><time>2026-05-01T13:48:22Z</time></trkpt><trkpt lat="42.27637835323757" lon="14.0947720069218"><ele>162.8</ele><time>2026-05-01T13:48:23Z</time></trkpt><trkpt lat="42.27648048469748" lon="14.094709001497693"><ele>160.6</ele><time>2026-05-01T13:48:24Z</time></trkpt><trkpt lat="42.2765782721634" lon="14.094642369022019"><ele>158.4</ele><time>2026-05-01T13:48:25Z</time></trkpt><trkpt lat="42.276667000201826" lon="14.094568649254812"><ele>156.2</ele><time>2026-05-01T13:48:26Z</time></trkpt><trkpt lat="42.276738553085984" lon="14.09447977092706"><ele>154.0</ele><time>2026-05-01T13:48:27Z</time></trkpt><trkpt lat="42.27679840994174" lon="14.094376343205964"><ele>154.0</ele><time>2026-05-01T13:48:28Z</time></trkpt><trkpt lat="42.276843379719" lon="14.094259162448164"><ele>154.0</ele><time>2026-05-01T13:48:29Z</time></trkpt><trkpt lat="42.276875649075826" lon="14.094117282916319"><ele>154.0</ele><time>2026-05-01T13:48:30Z</time></trkpt><trkpt lat="42.27690360882091" lon="14.093961407082018"><ele>154.0</ele><time>2026-05-01T13:48:31Z</time></trkpt><trkpt lat="42.27693412881334" lon="14.093816275470397"><ele>154.0</ele><time>2026-05-01T13:48:32Z</time></trkpt><trkpt lat="42.276962041799315" lon="14.09366766358085"><ele>151.75</ele><time>2026-05-01T13:48:33Z</time></trkpt><trkpt lat="42.276992187076345" lon="14.093510894606068"><ele>149.5</ele><time>2026-05-01T13:48:34Z</time></trkpt><trkpt lat="42.27702476980856" lon="14.093351876167304"><ele>147.25</ele><time>2026-05-01T13:48:35Z</time></trkpt><trkpt lat="42.277057265620314" lon="14.09319496740384"><ele>145.0</ele><time>2026-05-01T13:48:36Z</time></trkpt><trkpt lat="42.277086602233894" lon="14.093040997772363"><ele>143.2</ele><time>2026-05-01T13:48:37Z</time></trkpt><trkpt lat="42.27712521696578" lon="14.092894791916915"><ele>141.4</ele><time>2026-05-01T13:48:38Z</time></trkpt><trkpt lat="42.27712938576204" lon="14.092744224475997"><ele>139.6</ele><time>2026-05-01T13:48:39Z</time></trkpt><trkpt lat="42.27713716541281" lon="14.092596096560307"><ele>137.8</ele><time>2026-05-01T13:48:40Z</time></trkpt><trkpt lat="42.27713929428339" lon="14.09244630892036"><ele>136.0</ele><time>2026-05-01T13:48:41Z</time></trkpt><trkpt lat="42.27714116692831" lon="14.092292853230408"><ele>134.2</ele><time>2026-05-01T13:48:42Z</time></trkpt><trkpt lat="42.27714507898574" lon="14.092136602240695"><ele>132.39999999999998</ele><time>2026-05-01T13:48:43Z</time></trkpt><trkpt lat="42.27714770337104" lon="14.091979181425067"><ele>130.6</ele><time>2026-05-01T13:48:44Z</time></trkpt><trkpt lat="42.277147562748496" lon="14.091831389523694"><ele>128.79999999999998</ele><time>2026-05-01T13:48:45Z</time></trkpt><trkpt lat="42.27715290363177" lon="14.091691736361595"><ele>127.0</ele><time>2026-05-01T13:48:46Z</time></trkpt><trkpt lat="42.2771647619403" lon="14.091562593770409"><ele>128.0</ele><time>2026-05-01T13:48:47Z</time></trkpt><trkpt lat="42.2771833372394" lon="14.091438440936464"><ele>129.0</ele><time>2026-05-01T13:48:48Z</time></trkpt><trkpt lat="42.277210989511545" lon="14.091321687649488"><ele>130.0</ele><time>2026-05-01T13:48:49Z</time></trkpt><trkpt lat="42.277242867876225" lon="14.09122003273997"><ele>131.0</ele><time>2026-05-01T13:48:50Z</time></trkpt><trkpt lat="42.27728300780394" lon="14.09113277108049"><ele>132.0</ele><time>2026-05-01T13:48:51Z</time></trkpt><trkpt lat="42.277335938052325" lon="14.091065920106379"><ele>133.0</ele><time>2026-05-01T13:48:52Z</time></trkpt><trkpt lat="42.27740218615444" lon="14.091026326967205"><ele>133.0</ele><time>2026-05-01T13:48:53Z</time></trkpt><trkpt lat="42.2774798068202" lon="14.091017543797447"><ele>133.0</ele><time>2026-05-01T13:48:54Z</time></trkpt><trkpt lat="42.27757184281158" lon="14.091060835938135"><ele>133.0</ele><time>2026-05-01T13:48:55Z</time></trkpt><trkpt lat="42.27765842427152" lon="14.091127762374526"><ele>133.0</ele><time>2026-05-01T13:48:56Z</time></trkpt><trkpt lat="42.27774752675233" lon="14.091187443197148"><ele>133.0</ele><time>2026-05-01T13:48:57Z</time></trkpt><trkpt lat="42.27782870723063" lon="14.091233739095449"><ele>133.0</ele><time>2026-05-01T13:48:58Z</time></trkpt><trkpt lat="42.27790117184757" lon="14.091263325653552"><ele>133.0</ele><time>2026-05-01T13:48:59Z</time></trkpt><trkpt lat="42.2779671931872" lon="14.091261835960717"><ele>133.0</ele><time>2026-05-01T13:49:00Z</time></trkpt><trkpt lat="42.278059861131084" lon="14.091149571710243"><ele>133.0</ele><time>2026-05-01T13:49:02Z</time></trkpt><trkpt lat="42.27805692091216" lon="14.091045385315878"><ele>133.0</ele><time>2026-05-01T13:49:03Z</time></trkpt><trkpt lat="42.27804758343652" lon="14.090947239702372"><ele>133.0</ele><time>2026-05-01T13:49:04Z</time></trkpt><trkpt lat="42.278035482576115" lon="14.090858849103252"><ele>133.0</ele><time>2026-05-01T13:49:05Z</time></trkpt><trkpt lat="42.27802398420621" lon="14.090774842086415"><ele>133.0</ele><time>2026-05-01T13:49:06Z</time></trkpt><trkpt lat="42.27802505696278" lon="14.090643887321171"><ele>133.0</ele><time>2026-05-01T13:49:08Z</time></trkpt><trkpt lat="42.278094401221985" lon="14.090709398969198"><ele>133.0</ele><time>2026-05-01T13:49:14Z</time></trkpt><trkpt lat="42.27814070717885" lon="14.09078227493415"><ele>133.0</ele><time>2026-05-01T13:49:15Z</time></trkpt><trkpt lat="42.278169775396606" lon="14.090881614429678"><ele>133.0</ele><time>2026-05-01T13:49:16Z</time></trkpt><trkpt lat="42.27820782413276" lon="14.090981350888706"><ele>131.5</ele><time>2026-05-01T13:49:17Z</time></trkpt><trkpt lat="42.2782479685912" lon="14.091073358389231"><ele>130.0</ele><time>2026-05-01T13:49:18Z</time></trkpt><trkpt lat="42.27828650562115" lon="14.091173648465682"><ele>128.5</ele><time>2026-05-01T13:49:19Z</time></trkpt><trkpt lat="42.278317055587394" lon="14.091271963034144"><ele>127.0</ele><time>2026-05-01T13:49:20Z</time></trkpt><trkpt lat="42.27834775896771" lon="14.091384738930586"><ele>125.50000000000001</ele><time>2026-05-01T13:49:21Z</time></trkpt><trkpt lat="42.278376277850306" lon="14.091517957762605"><ele>124.0</ele><time>2026-05-01T13:49:22Z</time></trkpt><trkpt lat="42.27840385617218" lon="14.091651070555166"><ele>124.0</ele><time>2026-05-01T13:49:23Z</time></trkpt><trkpt lat="42.278428788875054" lon="14.091782891637967"><ele>124.0</ele><time>2026-05-01T13:49:24Z</time></trkpt><trkpt lat="42.2784543043144" lon="14.091914530514003"><ele>124.0</ele><time>2026-05-01T13:49:25Z</time></trkpt><trkpt lat="42.27847807263447" lon="14.092040544038216"><ele>124.0</ele><time>2026-05-01T13:49:26Z</time></trkpt><trkpt lat="42.27848218433287" lon="14.09216623725742"><ele>124.0</ele><time>2026-05-01T13:49:27Z</time></trkpt><trkpt lat="42.278498099625736" lon="14.09229019515989"><ele>124.0</ele><time>2026-05-01T13:49:28Z</time></trkpt><trkpt lat="42.27852545715319" lon="14.092413162749956"><ele>124.0</ele><time>2026-05-01T13:49:29Z</time></trkpt><trkpt lat="42.27853628673777" lon="14.092550639123719"><ele>124.0</ele><time>2026-05-01T13:49:30Z</time></trkpt><trkpt lat="42.27855887673664" lon="14.092693843311634"><ele>124.0</ele><time>2026-05-01T13:49:31Z</time></trkpt><trkpt lat="42.27859641536984" lon="14.092830489819463"><ele>124.0</ele><time>2026-05-01T13:49:32Z</time></trkpt><trkpt lat="42.278648036205986" lon="14.092957485449364"><ele>124.16666666666667</ele><time>2026-05-01T13:49:33Z</time></trkpt><trkpt lat="42.27870876534336" lon="14.09306753722015"><ele>124.33333333333334</ele><time>2026-05-01T13:49:34Z</time></trkpt><trkpt lat="42.278776866947865" lon="14.093153433118319"><ele>124.5</ele><time>2026-05-01T13:49:35Z</time></trkpt><trkpt lat="42.278860467523806" lon="14.093197605175279"><ele>124.66666666666666</ele><time>2026-05-01T13:49:36Z</time></trkpt><trkpt lat="42.278936489306645" lon="14.09321501263943"><ele>124.83333333333333</ele><time>2026-05-01T13:49:37Z</time></trkpt><trkpt lat="42.27901610411076" lon="14.093203144852515"><ele>125.0</ele><time>2026-05-01T13:49:38Z</time></trkpt><trkpt lat="42.279100984475676" lon="14.093173445525695"><ele>123.2</ele><time>2026-05-01T13:49:39Z</time></trkpt><trkpt lat="42.279193039390464" lon="14.093143910693112"><ele>121.4</ele><time>2026-05-01T13:49:40Z</time></trkpt><trkpt lat="42.27928748124245" lon="14.093132365671769"><ele>119.6</ele><time>2026-05-01T13:49:41Z</time></trkpt><trkpt lat="42.27937865223995" lon="14.093141653326539"><ele>117.8</ele><time>2026-05-01T13:49:42Z</time></trkpt><trkpt lat="42.279461899411956" lon="14.093184176079152"><ele>116.0</ele><time>2026-05-01T13:49:43Z</time></trkpt><trkpt lat="42.27952440097667" lon="14.093282038862467"><ele>116.0</ele><time>2026-05-01T13:49:44Z</time></trkpt><trkpt lat="42.27960722449989" lon="14.09336189548308"><ele>116.0</ele><time>2026-05-01T13:49:45Z</time></trkpt><trkpt lat="42.27967797964126" lon="14.093466644077884"><ele>116.0</ele><time>2026-05-01T13:49:46Z</time></trkpt><trkpt lat="42.27974279945796" lon="14.093563051400583"><ele>116.0</ele><time>2026-05-01T13:49:47Z</time></trkpt><trkpt lat="42.279807205632274" lon="14.093650334582193"><ele>116.0</ele><time>2026-05-01T13:49:48Z</time></trkpt><trkpt lat="42.27987285493588" lon="14.093732734615203"><ele>113.49999999999999</ele><time>2026-05-01T13:49:49Z</time></trkpt><trkpt lat="42.279941765226155" lon="14.09380240411707"><ele>111.0</ele><time>2026-05-01T13:49:50Z</time></trkpt><trkpt lat="42.28001446156284" lon="14.093861299016247"><ele>108.5</ele><time>2026-05-01T13:49:51Z</time></trkpt><trkpt lat="42.28007265558219" lon="14.093917479476884"><ele>106.0</ele><time>2026-05-01T13:49:52Z</time></trkpt><trkpt lat="42.28011154730971" lon="14.093997677333823"><ele>103.49999999999999</ele><time>2026-05-01T13:49:53Z</time></trkpt><trkpt lat="42.28013336803779" lon="14.094101301162938"><ele>101.0</ele><time>2026-05-01T13:49:54Z</time></trkpt><trkpt lat="42.28013487906419" lon="14.09422167581642"><ele>100.8</ele><time>2026-05-01T13:49:55Z</time></trkpt><trkpt lat="42.28013631531079" lon="14.094355830733889"><ele>100.6</ele><time>2026-05-01T13:49:56Z</time></trkpt><trkpt lat="42.28014027918038" lon="14.094497538780832"><ele>100.4</ele><time>2026-05-01T13:49:57Z</time></trkpt><trkpt lat="42.28014629071791" lon="14.094642804281852"><ele>100.2</ele><time>2026-05-01T13:49:58Z</time></trkpt><trkpt lat="42.28015246588539" lon="14.094783469199335"><ele>100.0</ele><time>2026-05-01T13:49:59Z</time></trkpt><trkpt lat="42.280156823390946" lon="14.094923231680406"><ele>99.6</ele><time>2026-05-01T13:50:00Z</time></trkpt><trkpt lat="42.28016338941952" lon="14.095066990748862"><ele>99.2</ele><time>2026-05-01T13:50:01Z</time></trkpt><trkpt lat="42.28017347419189" lon="14.095209867073544"><ele>98.80000000000001</ele><time>2026-05-01T13:50:02Z</time></trkpt><trkpt lat="42.280186021159636" lon="14.09535272817413"><ele>98.4</ele><time>2026-05-01T13:50:03Z</time></trkpt><trkpt lat="42.28019811640778" lon="14.095496910642833"><ele>98.0</ele><time>2026-05-01T13:50:04Z</time></trkpt><trkpt lat="42.280207029148606" lon="14.095642115485035"><ele>98.5</ele><time>2026-05-01T13:50:05Z</time></trkpt><trkpt lat="42.280216451374734" lon="14.09579187270753"><ele>99.0</ele><time>2026-05-01T13:50:06Z</time></trkpt><trkpt lat="42.28023289167618" lon="14.095942320518926"><ele>99.5</ele><time>2026-05-01T13:50:07Z</time></trkpt><trkpt lat="42.280251784415924" lon="14.09609622610148"><ele>100.0</ele><time>2026-05-01T13:50:08Z</time></trkpt><trkpt lat="42.28027230137623" lon="14.09625157901696"><ele>100.0</ele><time>2026-05-01T13:50:09Z</time></trkpt><trkpt lat="42.28029613796412" lon="14.096404815787876"><ele>100.0</ele><time>2026-05-01T13:50:10Z</time></trkpt><trkpt lat="42.28032882409691" lon="14.096553106087661"><ele>100.0</ele><time>2026-05-01T13:50:11Z</time></trkpt><trkpt lat="42.28036828554376" lon="14.096695433212428"><ele>100.0</ele><time>2026-05-01T13:50:12Z</time></trkpt><trkpt lat="42.28040696605845" lon="14.096833942210548"><ele>100.6</ele><time>2026-05-01T13:50:13Z</time></trkpt><trkpt lat="42.28041625401477" lon="14.096972103434119"><ele>101.2</ele><time>2026-05-01T13:50:14Z</time></trkpt><trkpt lat="42.28043882317941" lon="14.097100406042026"><ele>101.80000000000001</ele><time>2026-05-01T13:50:15Z</time></trkpt><trkpt lat="42.280439891279784" lon="14.097236100823531"><ele>102.4</ele><time>2026-05-01T13:50:16Z</time></trkpt><trkpt lat="42.28044637944336" lon="14.097375604386462"><ele>103.0</ele><time>2026-05-01T13:50:17Z</time></trkpt><trkpt lat="42.280458786773536" lon="14.097518544326968"><ele>103.0</ele><time>2026-05-01T13:50:18Z</time></trkpt><trkpt lat="42.28047698303239" lon="14.097662965696651"><ele>103.0</ele><time>2026-05-01T13:50:19Z</time></trkpt><trkpt lat="42.280499618506866" lon="14.097808769928577"><ele>103.0</ele><time>2026-05-01T13:50:20Z</time></trkpt><trkpt lat="42.280528128464816" lon="14.09795534497645"><ele>103.0</ele><time>2026-05-01T13:50:21Z</time></trkpt><trkpt lat="42.2805588706709" lon="14.098101134379174"><ele>103.0</ele><time>2026-05-01T13:50:22Z</time></trkpt><trkpt lat="42.280589507615154" lon="14.0982475076625"><ele>104.4</ele><time>2026-05-01T13:50:23Z</time></trkpt><trkpt lat="42.280621272087785" lon="14.098392490699878"><ele>105.80000000000001</ele><time>2026-05-01T13:50:24Z</time></trkpt><trkpt lat="42.280652209059795" lon="14.098538246293526"><ele>107.2</ele><time>2026-05-01T13:50:25Z</time></trkpt><trkpt lat="42.280678999021646" lon="14.098682061885015"><ele>108.6</ele><time>2026-05-01T13:50:26Z</time></trkpt><trkpt lat="42.28070807148865" lon="14.098824652238594"><ele>110.0</ele><time>2026-05-01T13:50:27Z</time></trkpt><trkpt lat="42.280740951177215" lon="14.09896567755306"><ele>111.4</ele><time>2026-05-01T13:50:28Z</time></trkpt><trkpt lat="42.280772308769876" lon="14.099107801430968"><ele>112.8</ele><time>2026-05-01T13:50:29Z</time></trkpt><trkpt lat="42.280800971638" lon="14.099245352358146"><ele>114.19999999999999</ele><time>2026-05-01T13:50:30Z</time></trkpt><trkpt lat="42.28083147608291" lon="14.099379836542777"><ele>115.6</ele><time>2026-05-01T13:50:31Z</time></trkpt><trkpt lat="42.28086028584158" lon="14.099508180375421"><ele>117.0</ele><time>2026-05-01T13:50:32Z</time></trkpt><trkpt lat="42.280891266116214" lon="14.099624885928533"><ele>117.0</ele><time>2026-05-01T13:50:33Z</time></trkpt><trkpt lat="42.280921850748406" lon="14.099743559345251"><ele>116.99999999999999</ele><time>2026-05-01T13:50:34Z</time></trkpt><trkpt lat="42.28094898653424" lon="14.099859993636565"><ele>116.99999999999999</ele><time>2026-05-01T13:50:35Z</time></trkpt><trkpt lat="42.280977083526466" lon="14.099981886287615"><ele>117.0</ele><time>2026-05-01T13:50:36Z</time></trkpt><trkpt lat="42.28100016041443" lon="14.100104425781348"><ele>117.0</ele><time>2026-05-01T13:50:37Z</time></trkpt><trkpt lat="42.28101531412416" lon="14.100232513300611"><ele>118.39999999999999</ele><time>2026-05-01T13:50:38Z</time></trkpt><trkpt lat="42.281031453505584" lon="14.100366641703419"><ele>119.79999999999998</ele><time>2026-05-01T13:50:39Z</time></trkpt><trkpt lat="42.28104516748893" lon="14.100497670533253"><ele>121.2</ele><time>2026-05-01T13:50:40Z</time></trkpt><trkpt lat="42.28103435658946" lon="14.100621075892382"><ele>122.6</ele><time>2026-05-01T13:50:41Z</time></trkpt><trkpt lat="42.28103281184349" lon="14.100726418639711"><ele>124.0</ele><time>2026-05-01T13:50:42Z</time></trkpt><trkpt lat="42.28104515442758" lon="14.100859968935753"><ele>125.66666666666667</ele><time>2026-05-01T13:50:44Z</time></trkpt><trkpt lat="42.28103871985415" lon="14.100974135323318"><ele>127.33333333333334</ele><time>2026-05-01T13:50:46Z</time></trkpt><trkpt lat="42.281017443032674" lon="14.101121148710266"><ele>129.0</ele><time>2026-05-01T13:50:48Z</time></trkpt><trkpt lat="42.281007501274665" lon="14.101215173128681"><ele>130.66666666666666</ele><time>2026-05-01T13:50:49Z</time></trkpt><trkpt lat="42.281003900761796" lon="14.101300834504585"><ele>132.33333333333331</ele><time>2026-05-01T13:50:50Z</time></trkpt><trkpt lat="42.28098580045119" lon="14.101389816535962"><ele>134.0</ele><time>2026-05-01T13:50:52Z</time></trkpt><trkpt lat="42.28100860977066" lon="14.101234940862742"><ele>134.0</ele><time>2026-05-01T13:51:04Z</time></trkpt><trkpt lat="42.281042340162564" lon="14.101073228008342"><ele>134.0</ele><time>2026-05-01T13:51:06Z</time></trkpt><trkpt lat="42.28105198884525" lon="14.100911770165274"><ele>134.0</ele><time>2026-05-01T13:51:08Z</time></trkpt><trkpt lat="42.281051786214526" lon="14.10082620770819"><ele>134.0</ele><time>2026-05-01T13:51:09Z</time></trkpt><trkpt lat="42.28104934562108" lon="14.100739080674435"><ele>134.0</ele><time>2026-05-01T13:51:10Z</time></trkpt><trkpt lat="42.281047197298044" lon="14.100651631021655"><ele>134.0</ele><time>2026-05-01T13:51:11Z</time></trkpt><trkpt lat="42.28104318115323" lon="14.1005626178619"><ele>132.33333333333331</ele><time>2026-05-01T13:51:12Z</time></trkpt><trkpt lat="42.28103581684509" lon="14.100475788128177"><ele>130.66666666666666</ele><time>2026-05-01T13:51:13Z</time></trkpt><trkpt lat="42.281018479446544" lon="14.100315262734556"><ele>129.0</ele><time>2026-05-01T13:51:15Z</time></trkpt><trkpt lat="42.28099978001968" lon="14.10018575100454"><ele>127.33333333333334</ele><time>2026-05-01T13:51:17Z</time></trkpt><trkpt lat="42.28102085209635" lon="14.100101593949564"><ele>125.66666666666667</ele><time>2026-05-01T13:51:26Z</time></trkpt><trkpt lat="42.28108104719777" lon="14.100128297923668"><ele>124.0</ele><time>2026-05-01T13:51:29Z</time></trkpt><trkpt lat="42.28113766801449" lon="14.100266359341"><ele>124.00000000000001</ele><time>2026-05-01T13:51:31Z</time></trkpt><trkpt lat="42.28117153222394" lon="14.100356929930514"><ele>124.0</ele><time>2026-05-01T13:51:32Z</time></trkpt><trkpt lat="42.28121806088844" lon="14.10044545311612"><ele>124.0</ele><time>2026-05-01T13:51:33Z</time></trkpt><trkpt lat="42.28126656303226" lon="14.10053268620943"><ele>124.0</ele><time>2026-05-01T13:51:34Z</time></trkpt><trkpt lat="42.28131479893454" lon="14.100618809090319"><ele>124.00000000000001</ele><time>2026-05-01T13:51:35Z</time></trkpt><trkpt lat="42.28136521622669" lon="14.100710409733784"><ele>124.0</ele><time>2026-05-01T13:51:36Z</time></trkpt><trkpt lat="42.28140895668336" lon="14.10080033005537"><ele>124.00000000000001</ele><time>2026-05-01T13:51:37Z</time></trkpt><trkpt lat="42.281452235723215" lon="14.100889856862745"><ele>124.0</ele><time>2026-05-01T13:51:38Z</time></trkpt><trkpt lat="42.2814966227771" lon="14.100978998209843"><ele>124.0</ele><time>2026-05-01T13:51:39Z</time></trkpt><trkpt lat="42.281536578489984" lon="14.101068701583007"><ele>124.0</ele><time>2026-05-01T13:51:40Z</time></trkpt><trkpt lat="42.28157752180907" lon="14.1011698910318"><ele>124.00000000000001</ele><time>2026-05-01T13:51:41Z</time></trkpt><trkpt lat="42.28162419386184" lon="14.10127605569686"><ele>124.0</ele><time>2026-05-01T13:51:42Z</time></trkpt><trkpt lat="42.28167220985522" lon="14.101389318792792"><ele>124.0</ele><time>2026-05-01T13:51:43Z</time></trkpt><trkpt lat="42.28172557898661" lon="14.101495950117158"><ele>124.0</ele><time>2026-05-01T13:51:44Z</time></trkpt><trkpt lat="42.281778169271455" lon="14.101601065995286"><ele>124.0</ele><time>2026-05-01T13:51:45Z</time></trkpt><trkpt lat="42.28182666128143" lon="14.101704825199038"><ele>124.0</ele><time>2026-05-01T13:51:46Z</time></trkpt><trkpt lat="42.281870206583875" lon="14.101807601862664"><ele>124.0</ele><time>2026-05-01T13:51:47Z</time></trkpt><trkpt lat="42.28191513089418" lon="14.101912862315672"><ele>125.80000000000001</ele><time>2026-05-01T13:51:48Z</time></trkpt><trkpt lat="42.28196275145837" lon="14.102023032945283"><ele>127.60000000000001</ele><time>2026-05-01T13:51:49Z</time></trkpt><trkpt lat="42.28200767589884" lon="14.102129703906437"><ele>129.4</ele><time>2026-05-01T13:51:50Z</time></trkpt><trkpt lat="42.28205529236231" lon="14.102235595448484"><ele>131.20000000000002</ele><time>2026-05-01T13:51:51Z</time></trkpt><trkpt lat="42.28209949109184" lon="14.102342782719301"><ele>133.0</ele><time>2026-05-01T13:51:52Z</time></trkpt><trkpt lat="42.2821401395627" lon="14.102443253032032"><ele>134.5</ele><time>2026-05-01T13:51:53Z</time></trkpt><trkpt lat="42.28218231216338" lon="14.102532078078395"><ele>136.0</ele><time>2026-05-01T13:51:54Z</time></trkpt><trkpt lat="42.28221772907237" lon="14.102614389624344"><ele>137.5</ele><time>2026-05-01T13:51:55Z</time></trkpt><trkpt lat="42.282251679360165" lon="14.102702271272774"><ele>139.0</ele><time>2026-05-01T13:51:56Z</time></trkpt><trkpt lat="42.28229657687945" lon="14.102800595693187"><ele>140.5</ele><time>2026-05-01T13:51:57Z</time></trkpt><trkpt lat="42.2823453419295" lon="14.102901745303626"><ele>142.0</ele><time>2026-05-01T13:51:58Z</time></trkpt><trkpt lat="42.28239491275259" lon="14.103018766058351"><ele>139.4</ele><time>2026-05-01T13:51:59Z</time></trkpt><trkpt lat="42.282444164858155" lon="14.10313554849798"><ele>136.79999999999998</ele><time>2026-05-01T13:52:00Z</time></trkpt><trkpt lat="42.28249673256075" lon="14.103252795334765"><ele>134.2</ele><time>2026-05-01T13:52:01Z</time></trkpt><trkpt lat="42.28254910259972" lon="14.103369430363966"><ele>131.6</ele><time>2026-05-01T13:52:02Z</time></trkpt><trkpt lat="42.282598331018654" lon="14.10348558279106"><ele>129.0</ele><time>2026-05-01T13:52:03Z</time></trkpt><trkpt lat="42.28264110245958" lon="14.103600958080966"><ele>129.0</ele><time>2026-05-01T13:52:04Z</time></trkpt><trkpt lat="42.28268568136836" lon="14.103718758987522"><ele>129.0</ele><time>2026-05-01T13:52:05Z</time></trkpt><trkpt lat="42.282730305961174" lon="14.10382660007223"><ele>129.0</ele><time>2026-05-01T13:52:06Z</time></trkpt><trkpt lat="42.282775038420276" lon="14.103935266967428"><ele>129.0</ele><time>2026-05-01T13:52:07Z</time></trkpt><trkpt lat="42.282817166217875" lon="14.104037910079407"><ele>129.0</ele><time>2026-05-01T13:52:08Z</time></trkpt><trkpt lat="42.28285681496439" lon="14.104170212929734"><ele>130.4</ele><time>2026-05-01T13:52:10Z</time></trkpt><trkpt lat="42.28289138660978" lon="14.104267134102201"><ele>131.8</ele><time>2026-05-01T13:52:12Z</time></trkpt><trkpt lat="42.28292052398765" lon="14.104355619039232"><ele>133.2</ele><time>2026-05-01T13:52:15Z</time></trkpt><trkpt lat="42.28296727267077" lon="14.104494033908935"><ele>134.6</ele><time>2026-05-01T13:52:17Z</time></trkpt><trkpt lat="42.28300233235064" lon="14.104579328466148"><ele>136.0</ele><time>2026-05-01T13:52:18Z</time></trkpt><trkpt lat="42.28305949393463" lon="14.104732507606778"><ele>136.0</ele><time>2026-05-01T13:52:20Z</time></trkpt><trkpt lat="42.28309206614152" lon="14.104818080886899"><ele>136.0</ele><time>2026-05-01T13:52:21Z</time></trkpt><trkpt lat="42.28312874365597" lon="14.104907077842212"><ele>136.0</ele><time>2026-05-01T13:52:22Z</time></trkpt><trkpt lat="42.283172694158914" lon="14.105011002260643"><ele>136.0</ele><time>2026-05-01T13:52:23Z</time></trkpt><trkpt lat="42.283228629596024" lon="14.105151983458546"><ele>136.0</ele><time>2026-05-01T13:52:24Z</time></trkpt><trkpt lat="42.28327659065845" lon="14.105293015457455"><ele>134.66666666666669</ele><time>2026-05-01T13:52:25Z</time></trkpt><trkpt lat="42.28331685091272" lon="14.105416819673081"><ele>133.33333333333334</ele><time>2026-05-01T13:52:26Z</time></trkpt><trkpt lat="42.283355393409586" lon="14.105539753803312"><ele>132.0</ele><time>2026-05-01T13:52:27Z</time></trkpt><trkpt lat="42.28338786138552" lon="14.10563713494797"><ele>130.66666666666666</ele><time>2026-05-01T13:52:28Z</time></trkpt><trkpt lat="42.28342557530954" lon="14.105742687225638"><ele>129.33333333333331</ele><time>2026-05-01T13:52:29Z</time></trkpt><trkpt lat="42.28345904685711" lon="14.105841679554121"><ele>128.0</ele><time>2026-05-01T13:52:30Z</time></trkpt><trkpt lat="42.28349107263005" lon="14.105937470434633"><ele>127.99999999999999</ele><time>2026-05-01T13:52:31Z</time></trkpt><trkpt lat="42.283527552119224" lon="14.106030889015555"><ele>128.0</ele><time>2026-05-01T13:52:32Z</time></trkpt><trkpt lat="42.28356450675301" lon="14.106115681786811"><ele>128.0</ele><time>2026-05-01T13:52:33Z</time></trkpt><trkpt lat="42.28360245227575" lon="14.106210090655523"><ele>128.0</ele><time>2026-05-01T13:52:34Z</time></trkpt><trkpt lat="42.28363484771945" lon="14.1063075651889"><ele>127.99999999999999</ele><time>2026-05-01T13:52:35Z</time></trkpt><trkpt lat="42.28366941640008" lon="14.106423499811077"><ele>128.0</ele><time>2026-05-01T13:52:36Z</time></trkpt><trkpt lat="42.28370345330242" lon="14.106531334142826"><ele>129.6</ele><time>2026-05-01T13:52:37Z</time></trkpt><trkpt lat="42.28374537843137" lon="14.106651770535503"><ele>131.20000000000002</ele><time>2026-05-01T13:52:38Z</time></trkpt><trkpt lat="42.28378757106926" lon="14.106769443466838"><ele>132.8</ele><time>2026-05-01T13:52:39Z</time></trkpt><trkpt lat="42.28382292716143" lon="14.10688225786266"><ele>134.4</ele><time>2026-05-01T13:52:40Z</time></trkpt><trkpt lat="42.28385927201321" lon="14.106993421020436"><ele>136.0</ele><time>2026-05-01T13:52:41Z</time></trkpt><trkpt lat="42.28389557629655" lon="14.107108500535047"><ele>134.83333333333334</ele><time>2026-05-01T13:52:42Z</time></trkpt><trkpt lat="42.283932783251416" lon="14.107219828657806"><ele>133.66666666666669</ele><time>2026-05-01T13:52:43Z</time></trkpt><trkpt lat="42.283963063586214" lon="14.10731648014299"><ele>132.5</ele><time>2026-05-01T13:52:44Z</time></trkpt><trkpt lat="42.28399346268741" lon="14.107417679167432"><ele>131.33333333333334</ele><time>2026-05-01T13:52:45Z</time></trkpt><trkpt lat="42.284024451123145" lon="14.107518757260342"><ele>130.16666666666666</ele><time>2026-05-01T13:52:46Z</time></trkpt><trkpt lat="42.284057245218" lon="14.107620091856928"><ele>129.0</ele><time>2026-05-01T13:52:47Z</time></trkpt><trkpt lat="42.284088031705416" lon="14.107727783351075"><ele>129.0</ele><time>2026-05-01T13:52:48Z</time></trkpt><trkpt lat="42.28411504177287" lon="14.107833382356304"><ele>129.0</ele><time>2026-05-01T13:52:49Z</time></trkpt><trkpt lat="42.28414771416974" lon="14.10794165876074"><ele>129.0</ele><time>2026-05-01T13:52:50Z</time></trkpt><trkpt lat="42.28418379851724" lon="14.108038792505695"><ele>129.0</ele><time>2026-05-01T13:52:51Z</time></trkpt><trkpt lat="42.2842178034765" lon="14.10813366872334"><ele>129.0</ele><time>2026-05-01T13:52:52Z</time></trkpt><trkpt lat="42.28424434478239" lon="14.108215873686747"><ele>129.0</ele><time>2026-05-01T13:52:53Z</time></trkpt><trkpt lat="42.28426876658593" lon="14.108297019193767"><ele>129.6</ele><time>2026-05-01T13:52:54Z</time></trkpt><trkpt lat="42.28431462252282" lon="14.108444231978913"><ele>130.2</ele><time>2026-05-01T13:52:56Z</time></trkpt><trkpt lat="42.284353768468605" lon="14.108564250259354"><ele>130.79999999999998</ele><time>2026-05-01T13:52:58Z</time></trkpt><trkpt lat="42.28438752729753" lon="14.108637222579143"><ele>131.4</ele><time>2026-05-01T13:53:00Z</time></trkpt><trkpt lat="42.284435474621404" lon="14.108771291455522"><ele>132.0</ele><time>2026-05-01T13:53:02Z</time></trkpt><trkpt lat="42.28445789043847" lon="14.108851490263683"><ele>132.0</ele><time>2026-05-01T13:53:03Z</time></trkpt><trkpt lat="42.284505194605764" lon="14.10899329061946"><ele>132.0</ele><time>2026-05-01T13:53:05Z</time></trkpt><trkpt lat="42.284540701569746" lon="14.109092651278521"><ele>132.0</ele><time>2026-05-01T13:53:07Z</time></trkpt><trkpt lat="42.28458662224523" lon="14.10921416073929"><ele>132.0</ele><time>2026-05-01T13:53:09Z</time></trkpt><trkpt lat="42.284618334919706" lon="14.109300350854996"><ele>132.0</ele><time>2026-05-01T13:53:10Z</time></trkpt><trkpt lat="42.284647140382965" lon="14.109381436004423"><ele>132.0</ele><time>2026-05-01T13:53:11Z</time></trkpt><trkpt lat="42.28467508391154" lon="14.10946850734788"><ele>132.83333333333334</ele><time>2026-05-01T13:53:12Z</time></trkpt><trkpt lat="42.28470223684691" lon="14.1095506511301"><ele>133.66666666666666</ele><time>2026-05-01T13:53:13Z</time></trkpt><trkpt lat="42.284742362434365" lon="14.109644932078954"><ele>134.5</ele><time>2026-05-01T13:53:14Z</time></trkpt><trkpt lat="42.28478459598624" lon="14.109730233025983"><ele>135.33333333333331</ele><time>2026-05-01T13:53:15Z</time></trkpt><trkpt lat="42.28481990282707" lon="14.109817510553372"><ele>136.16666666666666</ele><time>2026-05-01T13:53:16Z</time></trkpt><trkpt lat="42.28485970083637" lon="14.109916729563091"><ele>137.0</ele><time>2026-05-01T13:53:17Z</time></trkpt><trkpt lat="42.28489675736875" lon="14.110020248584629"><ele>135.33333333333331</ele><time>2026-05-01T13:53:18Z</time></trkpt><trkpt lat="42.28493426999336" lon="14.110129793470714"><ele>133.66666666666666</ele><time>2026-05-01T13:53:19Z</time></trkpt><trkpt lat="42.28496833763639" lon="14.11023471878001"><ele>132.0</ele><time>2026-05-01T13:53:20Z</time></trkpt><trkpt lat="42.285004001184944" lon="14.110350120254465"><ele>130.33333333333334</ele><time>2026-05-01T13:53:21Z</time></trkpt><trkpt lat="42.28503845829327" lon="14.110458965360467"><ele>128.66666666666669</ele><time>2026-05-01T13:53:22Z</time></trkpt><trkpt lat="42.285065066001316" lon="14.110541860133754"><ele>127.0</ele><time>2026-05-01T13:53:23Z</time></trkpt><trkpt lat="42.285089230669584" lon="14.110639313128175"><ele>127.00000000000001</ele><time>2026-05-01T13:53:24Z</time></trkpt><trkpt lat="42.28511394831466" lon="14.110736279340372"><ele>127.0</ele><time>2026-05-01T13:53:25Z</time></trkpt><trkpt lat="42.285139771691505" lon="14.110829249861094"><ele>127.0</ele><time>2026-05-01T13:53:26Z</time></trkpt><trkpt lat="42.28516457732403" lon="14.110920444094818"><ele>127.0</ele><time>2026-05-01T13:53:27Z</time></trkpt><trkpt lat="42.28518695355295" lon="14.111015840757782"><ele>127.00000000000001</ele><time>2026-05-01T13:53:28Z</time></trkpt><trkpt lat="42.28521293137407" lon="14.11111963739282"><ele>127.0</ele><time>2026-05-01T13:53:29Z</time></trkpt><trkpt lat="42.28523866976739" lon="14.111222041258207"><ele>128.33333333333334</ele><time>2026-05-01T13:53:30Z</time></trkpt><trkpt lat="42.285263081026436" lon="14.111322541637042"><ele>129.66666666666669</ele><time>2026-05-01T13:53:31Z</time></trkpt><trkpt lat="42.28528722512516" lon="14.111425017121755"><ele>131.0</ele><time>2026-05-01T13:53:32Z</time></trkpt><trkpt lat="42.285311599992305" lon="14.111526319423024"><ele>132.33333333333334</ele><time>2026-05-01T13:53:33Z</time></trkpt><trkpt lat="42.28535330287796" lon="14.111676582618877"><ele>133.66666666666666</ele><time>2026-05-01T13:53:35Z</time></trkpt><trkpt lat="42.285394560559574" lon="14.111779551031866"><ele>135.0</ele><time>2026-05-01T13:53:37Z</time></trkpt><trkpt lat="42.28540759126681" lon="14.111891668358842"><ele>135.66666666666666</ele><time>2026-05-01T13:53:39Z</time></trkpt><trkpt lat="42.28545178799481" lon="14.11201830880899"><ele>136.33333333333334</ele><time>2026-05-01T13:53:41Z</time></trkpt><trkpt lat="42.28549456462925" lon="14.112089900785076"><ele>137.0</ele><time>2026-05-01T13:53:42Z</time></trkpt><trkpt lat="42.285578344257175" lon="14.112227813996384"><ele>137.66666666666669</ele><time>2026-05-01T13:53:44Z</time></trkpt><trkpt lat="42.285621260197075" lon="14.112298005681422"><ele>138.33333333333334</ele><time>2026-05-01T13:53:45Z</time></trkpt><trkpt lat="42.285665174127395" lon="14.112374130929322"><ele>139.0</ele><time>2026-05-01T13:53:46Z</time></trkpt><trkpt lat="42.28570962748196" lon="14.112445542658598"><ele>137.5</ele><time>2026-05-01T13:53:47Z</time></trkpt><trkpt lat="42.2857553418317" lon="14.112519497009421"><ele>136.0</ele><time>2026-05-01T13:53:48Z</time></trkpt><trkpt lat="42.28580728416108" lon="14.112598788610338"><ele>134.5</ele><time>2026-05-01T13:53:49Z</time></trkpt><trkpt lat="42.285864655766865" lon="14.112680718827812"><ele>133.0</ele><time>2026-05-01T13:53:50Z</time></trkpt><trkpt lat="42.28592346490791" lon="14.112765301616879"><ele>131.5</ele><time>2026-05-01T13:53:51Z</time></trkpt><trkpt lat="42.285983295645515" lon="14.112852882387724"><ele>130.0</ele><time>2026-05-01T13:53:52Z</time></trkpt><trkpt lat="42.28604466141013" lon="14.112943416971172"><ele>130.0</ele><time>2026-05-01T13:53:53Z</time></trkpt><trkpt lat="42.28610073285663" lon="14.11303631296756"><ele>130.0</ele><time>2026-05-01T13:53:54Z</time></trkpt><trkpt lat="42.28613989959312" lon="14.113111025035229"><ele>130.0</ele><time>2026-05-01T13:53:55Z</time></trkpt><trkpt lat="42.28619701660524" lon="14.113248765228594"><ele>130.0</ele><time>2026-05-01T13:53:57Z</time></trkpt><trkpt lat="42.2862365292208" lon="14.113411632703512"><ele>130.0</ele><time>2026-05-01T13:53:59Z</time></trkpt><trkpt lat="42.2862481586957" lon="14.113498766756285"><ele>131.8</ele><time>2026-05-01T13:54:00Z</time></trkpt><trkpt lat="42.28626134719101" lon="14.113660848525093"><ele>133.6</ele><time>2026-05-01T13:54:02Z</time></trkpt><trkpt lat="42.286272306485884" lon="14.1137880521753"><ele>135.4</ele><time>2026-05-01T13:54:04Z</time></trkpt><trkpt lat="42.28628435208057" lon="14.11391211604554"><ele>137.2</ele><time>2026-05-01T13:54:06Z</time></trkpt><trkpt lat="42.28629623156942" lon="14.114051706323576"><ele>139.0</ele><time>2026-05-01T13:54:08Z</time></trkpt><trkpt lat="42.286308608803296" lon="14.114196120479722"><ele>139.83333333333334</ele><time>2026-05-01T13:54:10Z</time></trkpt><trkpt lat="42.286317613250894" lon="14.114284180266429"><ele>140.66666666666669</ele><time>2026-05-01T13:54:11Z</time></trkpt><trkpt lat="42.28633018358181" lon="14.114377071442382"><ele>141.5</ele><time>2026-05-01T13:54:12Z</time></trkpt><trkpt lat="42.286339122646375" lon="14.114466667316723"><ele>142.33333333333334</ele><time>2026-05-01T13:54:13Z</time></trkpt><trkpt lat="42.286346547692034" lon="14.114559326374023"><ele>143.16666666666666</ele><time>2026-05-01T13:54:14Z</time></trkpt><trkpt lat="42.28635977237481" lon="14.114706209038236"><ele>144.0</ele><time>2026-05-01T13:54:16Z</time></trkpt><trkpt lat="42.28637267449539" lon="14.11484823520411"><ele>145.16666666666666</ele><time>2026-05-01T13:54:18Z</time></trkpt><trkpt lat="42.28639509540386" lon="14.114996381591766"><ele>146.33333333333334</ele><time>2026-05-01T13:54:20Z</time></trkpt><trkpt lat="42.28641357757697" lon="14.115084516004277"><ele>147.5</ele><time>2026-05-01T13:54:21Z</time></trkpt><trkpt lat="42.286436119325806" lon="14.115178099321838"><ele>148.66666666666669</ele><time>2026-05-01T13:54:22Z</time></trkpt><trkpt lat="42.28645517347052" lon="14.11526563520617"><ele>149.83333333333334</ele><time>2026-05-01T13:54:23Z</time></trkpt><trkpt lat="42.28649350395619" lon="14.115414690628862"><ele>151.0</ele><time>2026-05-01T13:54:25Z</time></trkpt><trkpt lat="42.28653405957817" lon="14.115554998976128"><ele>148.2</ele><time>2026-05-01T13:54:27Z</time></trkpt><trkpt lat="42.28656263551658" lon="14.115684472306855"><ele>145.39999999999998</ele><time>2026-05-01T13:54:29Z</time></trkpt><trkpt lat="42.28654511005661" lon="14.11582347561047"><ele>142.6</ele><time>2026-05-01T13:54:31Z</time></trkpt><trkpt lat="42.28652552761283" lon="14.11590614757604"><ele>139.79999999999998</ele><time>2026-05-01T13:54:32Z</time></trkpt><trkpt lat="42.28649162469824" lon="14.116043794915845"><ele>137.0</ele><time>2026-05-01T13:54:34Z</time></trkpt><trkpt lat="42.28642825732973" lon="14.116190447619298"><ele>139.0</ele><time>2026-05-01T13:54:36Z</time></trkpt><trkpt lat="42.286387865497396" lon="14.116258197986424"><ele>141.0</ele><time>2026-05-01T13:54:37Z</time></trkpt><trkpt lat="42.28634187699093" lon="14.116340357370879"><ele>143.0</ele><time>2026-05-01T13:54:38Z</time></trkpt><trkpt lat="42.286294058813574" lon="14.116424569771253"><ele>145.0</ele><time>2026-05-01T13:54:39Z</time></trkpt><trkpt lat="42.28624539106054" lon="14.116498965416618"><ele>147.0</ele><time>2026-05-01T13:54:40Z</time></trkpt><trkpt lat="42.28618936128705" lon="14.116619167686165"><ele>149.0</ele><time>2026-05-01T13:54:42Z</time></trkpt><trkpt lat="42.286150961972425" lon="14.11676859698705"><ele>149.0</ele><time>2026-05-01T13:54:44Z</time></trkpt><trkpt lat="42.286143177987164" lon="14.11692258283955"><ele>149.0</ele><time>2026-05-01T13:54:46Z</time></trkpt><trkpt lat="42.28613769821756" lon="14.117073480809951"><ele>149.0</ele><time>2026-05-01T13:54:48Z</time></trkpt><trkpt lat="42.28613207539" lon="14.117215313875874"><ele>149.0</ele><time>2026-05-01T13:54:50Z</time></trkpt><trkpt lat="42.286121233836994" lon="14.117385351298086"><ele>149.28571428571428</ele><time>2026-05-01T13:54:52Z</time></trkpt><trkpt lat="42.28611618469554" lon="14.117552591024996"><ele>149.57142857142856</ele><time>2026-05-01T13:54:54Z</time></trkpt><trkpt lat="42.286110277896164" lon="14.117639021234085"><ele>149.85714285714286</ele><time>2026-05-01T13:54:55Z</time></trkpt><trkpt lat="42.286100348424526" lon="14.117725181915315"><ele>150.14285714285714</ele><time>2026-05-01T13:54:56Z</time></trkpt><trkpt lat="42.28608787094153" lon="14.117811139353995"><ele>150.42857142857144</ele><time>2026-05-01T13:54:57Z</time></trkpt><trkpt lat="42.286073609407794" lon="14.117897752188473"><ele>150.71428571428572</ele><time>2026-05-01T13:54:58Z</time></trkpt><trkpt lat="42.28605499910773" lon="14.117982416765575"><ele>151.0</ele><time>2026-05-01T13:54:59Z</time></trkpt><trkpt lat="42.286028937999895" lon="14.118064232505809"><ele>151.0</ele><time>2026-05-01T13:55:00Z</time></trkpt><trkpt lat="42.285999612755866" lon="14.11814534027789"><ele>151.0</ele><time>2026-05-01T13:55:01Z</time></trkpt><trkpt lat="42.285972455474635" lon="14.118228605239125"><ele>151.0</ele><time>2026-05-01T13:55:02Z</time></trkpt><trkpt lat="42.285933335457536" lon="14.118381853480166"><ele>151.0</ele><time>2026-05-01T13:55:04Z</time></trkpt><trkpt lat="42.285904546364314" lon="14.118515522511114"><ele>151.0</ele><time>2026-05-01T13:55:06Z</time></trkpt><trkpt lat="42.285865767840335" lon="14.118638298566582"><ele>151.66666666666669</ele><time>2026-05-01T13:55:08Z</time></trkpt><trkpt lat="42.2858570940927" lon="14.118789313296931"><ele>152.33333333333334</ele><time>2026-05-01T13:55:10Z</time></trkpt><trkpt lat="42.285856626679454" lon="14.118876606924365"><ele>153.0</ele><time>2026-05-01T13:55:11Z</time></trkpt><trkpt lat="42.285846269907296" lon="14.118964507270872"><ele>153.66666666666666</ele><time>2026-05-01T13:55:12Z</time></trkpt><trkpt lat="42.28582502769282" lon="14.119046586244435"><ele>154.33333333333331</ele><time>2026-05-01T13:55:13Z</time></trkpt><trkpt lat="42.28579658388777" lon="14.119128174264727"><ele>155.0</ele><time>2026-05-01T13:55:14Z</time></trkpt><trkpt lat="42.28572987824231" lon="14.119252556884435"><ele>156.0</ele><time>2026-05-01T13:55:16Z</time></trkpt><trkpt lat="42.28565833360659" lon="14.119350779517154"><ele>157.0</ele><time>2026-05-01T13:55:18Z</time></trkpt><trkpt lat="42.28558486944738" lon="14.119440629438373"><ele>158.0</ele><time>2026-05-01T13:55:20Z</time></trkpt><trkpt lat="42.28550554262588" lon="14.119519041123201"><ele>159.0</ele><time>2026-05-01T13:55:22Z</time></trkpt><trkpt lat="42.285424977488276" lon="14.119605024074518"><ele>160.0</ele><time>2026-05-01T13:55:24Z</time></trkpt><trkpt lat="42.28534050509582" lon="14.119687150959493"><ele>163.0</ele><time>2026-05-01T13:55:26Z</time></trkpt><trkpt lat="42.285245836098625" lon="14.119774872239661"><ele>166.0</ele><time>2026-05-01T13:55:28Z</time></trkpt><trkpt lat="42.28514546349458" lon="14.119861303193744"><ele>169.0</ele><time>2026-05-01T13:55:30Z</time></trkpt><trkpt lat="42.285039286304595" lon="14.119935798934584"><ele>172.0</ele><time>2026-05-01T13:55:32Z</time></trkpt><trkpt lat="42.28493786115318" lon="14.120018728227684"><ele>172.0</ele><time>2026-05-01T13:55:34Z</time></trkpt><trkpt lat="42.28484570981355" lon="14.120097461678661"><ele>172.0</ele><time>2026-05-01T13:55:36Z</time></trkpt><trkpt lat="42.28476237291659" lon="14.120168853723644"><ele>172.0</ele><time>2026-05-01T13:55:38Z</time></trkpt><trkpt lat="42.28468956500671" lon="14.120231710378311"><ele>172.0</ele><time>2026-05-01T13:55:40Z</time></trkpt><trkpt lat="42.284624748368834" lon="14.12032235701184"><ele>172.0</ele><time>2026-05-01T13:55:42Z</time></trkpt><trkpt lat="42.2845786211087" lon="14.120423963712202"><ele>175.2</ele><time>2026-05-01T13:55:44Z</time></trkpt><trkpt lat="42.28453966942981" lon="14.120509472309475"><ele>178.39999999999998</ele><time>2026-05-01T13:55:47Z</time></trkpt><trkpt lat="42.28450495904084" lon="14.12063654429723"><ele>181.60000000000002</ele><time>2026-05-01T13:55:49Z</time></trkpt><trkpt lat="42.28446814926308" lon="14.120777685728395"><ele>184.8</ele><time>2026-05-01T13:55:51Z</time></trkpt><trkpt lat="42.28444027308671" lon="14.12090457730009"><ele>188.0</ele><time>2026-05-01T13:55:53Z</time></trkpt><trkpt lat="42.28442967876543" lon="14.121009179907054"><ele>188.0</ele><time>2026-05-01T13:55:55Z</time></trkpt><trkpt lat="42.28442007354211" lon="14.121141793795399"><ele>188.0</ele><time>2026-05-01T13:55:58Z</time></trkpt><trkpt lat="42.284411189196014" lon="14.121244004974828"><ele>188.0</ele><time>2026-05-01T13:56:00Z</time></trkpt><trkpt lat="42.28440064109571" lon="14.121389140573006"><ele>188.0</ele><time>2026-05-01T13:56:03Z</time></trkpt><trkpt lat="42.284392483386334" lon="14.12148405812788"><ele>188.0</ele><time>2026-05-01T13:56:05Z</time></trkpt><trkpt lat="42.28438482878743" lon="14.121612559440074"><ele>188.0</ele><time>2026-05-01T13:56:21Z</time></trkpt><trkpt lat="42.28435649497199" lon="14.121743925341871"><ele>188.2</ele><time>2026-05-01T13:56:23Z</time></trkpt><trkpt lat="42.28431353951307" lon="14.12190418769823"><ele>188.4</ele><time>2026-05-01T13:56:25Z</time></trkpt><trkpt lat="42.284278793778036" lon="14.121985941460366"><ele>188.6</ele><time>2026-05-01T13:56:26Z</time></trkpt><trkpt lat="42.28423659966088" lon="14.122061581533863"><ele>188.79999999999998</ele><time>2026-05-01T13:56:27Z</time></trkpt><trkpt lat="42.28411757234962" lon="14.122132870034157"><ele>189.0</ele><time>2026-05-01T13:56:29Z</time></trkpt><trkpt lat="42.284029367207374" lon="14.122149210345388"><ele>189.0</ele><time>2026-05-01T13:56:30Z</time></trkpt><trkpt lat="42.28395100983783" lon="14.12214365115986"><ele>189.0</ele><time>2026-05-01T13:56:31Z</time></trkpt><trkpt lat="42.28387379392022" lon="14.122113749846218"><ele>189.0</ele><time>2026-05-01T13:56:32Z</time></trkpt><trkpt lat="42.28381403874112" lon="14.122058235651066"><ele>189.0</ele><time>2026-05-01T13:56:33Z</time></trkpt><trkpt lat="42.2837694228666" lon="14.121985956938504"><ele>189.0</ele><time>2026-05-01T13:56:34Z</time></trkpt><trkpt lat="42.283704251698865" lon="14.121859779850821"><ele>189.0</ele><time>2026-05-01T13:56:36Z</time></trkpt><trkpt lat="42.283639976988916" lon="14.121735480177952"><ele>193.33333333333334</ele><time>2026-05-01T13:56:38Z</time></trkpt><trkpt lat="42.28358332811923" lon="14.121659929819053"><ele>197.66666666666669</ele><time>2026-05-01T13:56:39Z</time></trkpt><trkpt lat="42.28353320599962" lon="14.121584070994981"><ele>202.0</ele><time>2026-05-01T13:56:40Z</time></trkpt><trkpt lat="42.283478258360034" lon="14.12150144857683"><ele>206.33333333333334</ele><time>2026-05-01T13:56:41Z</time></trkpt><trkpt lat="42.283422121500614" lon="14.121408153907982"><ele>210.66666666666669</ele><time>2026-05-01T13:56:42Z</time></trkpt><trkpt lat="42.2833786879901" lon="14.12130392919728"><ele>215.0</ele><time>2026-05-01T13:56:43Z</time></trkpt><trkpt lat="42.283336065201084" lon="14.121203734304826"><ele>215.0</ele><time>2026-05-01T13:56:44Z</time></trkpt><trkpt lat="42.283291037646684" lon="14.121104854931811"><ele>215.0</ele><time>2026-05-01T13:56:45Z</time></trkpt><trkpt lat="42.283243662246285" lon="14.1210399547724"><ele>215.0</ele><time>2026-05-01T13:56:46Z</time></trkpt><trkpt lat="42.28320730109596" lon="14.120931914817294"><ele>215.0</ele><time>2026-05-01T13:56:48Z</time></trkpt><trkpt lat="42.28317843145484" lon="14.12075853470023"><ele>215.0</ele><time>2026-05-01T13:56:50Z</time></trkpt><trkpt lat="42.28314586541795" lon="14.12063602686838"><ele>214.0</ele><time>2026-05-01T13:56:51Z</time></trkpt><trkpt lat="42.28311135211359" lon="14.120520943877908"><ele>213.0</ele><time>2026-05-01T13:56:52Z</time></trkpt><trkpt lat="42.28306026416769" lon="14.120376470241531"><ele>212.0</ele><time>2026-05-01T13:56:53Z</time></trkpt><trkpt lat="42.283020559673055" lon="14.120227113483738"><ele>211.0</ele><time>2026-05-01T13:56:54Z</time></trkpt><trkpt lat="42.2829762714483" lon="14.120068439808836"><ele>214.8</ele><time>2026-05-01T13:56:55Z</time></trkpt><trkpt lat="42.28293064607334" lon="14.119917689495866"><ele>218.60000000000002</ele><time>2026-05-01T13:56:56Z</time></trkpt><trkpt lat="42.28288969660471" lon="14.119774747528949"><ele>222.4</ele><time>2026-05-01T13:56:57Z</time></trkpt><trkpt lat="42.282852848967494" lon="14.119636472244876"><ele>226.2</ele><time>2026-05-01T13:56:58Z</time></trkpt><trkpt lat="42.28281594822002" lon="14.119503037233853"><ele>230.0</ele><time>2026-05-01T13:56:59Z</time></trkpt><trkpt lat="42.282775191545376" lon="14.119372058664789"><ele>230.0</ele><time>2026-05-01T13:57:00Z</time></trkpt><trkpt lat="42.28274723348634" lon="14.119250562185059"><ele>230.0</ele><time>2026-05-01T13:57:01Z</time></trkpt><trkpt lat="42.28271333138325" lon="14.119131242299494"><ele>230.0</ele><time>2026-05-01T13:57:02Z</time></trkpt><trkpt lat="42.282672143159346" lon="14.119002511608148"><ele>230.0</ele><time>2026-05-01T13:57:03Z</time></trkpt><trkpt lat="42.282635020724086" lon="14.118868468956828"><ele>230.0</ele><time>2026-05-01T13:57:04Z</time></trkpt><trkpt lat="42.28259437025618" lon="14.118735039557446"><ele>229.2</ele><time>2026-05-01T13:57:05Z</time></trkpt><trkpt lat="42.282555768731456" lon="14.118616528216181"><ele>228.4</ele><time>2026-05-01T13:57:06Z</time></trkpt><trkpt lat="42.282517229358454" lon="14.118495802699641"><ele>227.60000000000002</ele><time>2026-05-01T13:57:07Z</time></trkpt><trkpt lat="42.28248615077098" lon="14.118384899095467"><ele>226.8</ele><time>2026-05-01T13:57:08Z</time></trkpt><trkpt lat="42.28244858822023" lon="14.118268064351232"><ele>226.0</ele><time>2026-05-01T13:57:09Z</time></trkpt><trkpt lat="42.282408117009844" lon="14.118160373580618"><ele>225.4</ele><time>2026-05-01T13:57:10Z</time></trkpt><trkpt lat="42.28236040563348" lon="14.118048939543046"><ele>224.8</ele><time>2026-05-01T13:57:11Z</time></trkpt><trkpt lat="42.28231206999199" lon="14.117935530747236"><ele>224.20000000000002</ele><time>2026-05-01T13:57:12Z</time></trkpt><trkpt lat="42.28226065903675" lon="14.117824138012665"><ele>223.60000000000002</ele><time>2026-05-01T13:57:13Z</time></trkpt><trkpt lat="42.282201903030135" lon="14.117723063258527"><ele>223.0</ele><time>2026-05-01T13:57:14Z</time></trkpt><trkpt lat="42.28215042938992" lon="14.117644499059645"><ele>223.0</ele><time>2026-05-01T13:57:15Z</time></trkpt><trkpt lat="42.28207124358611" lon="14.117558886419483"><ele>223.0</ele><time>2026-05-01T13:57:17Z</time></trkpt><trkpt lat="42.28201372072018" lon="14.117612363974247"><ele>223.0</ele><time>2026-05-01T13:57:21Z</time></trkpt><trkpt lat="42.28202745405024" lon="14.117815706643123"><ele>223.0</ele><time>2026-05-01T13:57:23Z</time></trkpt><trkpt lat="42.28203411379784" lon="14.117956134732577"><ele>223.0</ele><time>2026-05-01T13:57:24Z</time></trkpt><trkpt lat="42.28202741809511" lon="14.118133001579766"><ele>224.25</ele><time>2026-05-01T13:57:25Z</time></trkpt><trkpt lat="42.282019419317415" lon="14.118302708328788"><ele>225.5</ele><time>2026-05-01T13:57:26Z</time></trkpt><trkpt lat="42.28200498930169" lon="14.11847725731018"><ele>226.75</ele><time>2026-05-01T13:57:27Z</time></trkpt><trkpt lat="42.28198711816561" lon="14.118662508349157"><ele>228.0</ele><time>2026-05-01T13:57:28Z</time></trkpt><trkpt lat="42.28196604476574" lon="14.118853428082357"><ele>228.0</ele><time>2026-05-01T13:57:29Z</time></trkpt><trkpt lat="42.28194266375009" lon="14.1190595916078"><ele>228.0</ele><time>2026-05-01T13:57:30Z</time></trkpt><trkpt lat="42.28191728877344" lon="14.119270908531707"><ele>228.0</ele><time>2026-05-01T13:57:31Z</time></trkpt><trkpt lat="42.28189532529281" lon="14.119468167941054"><ele>230.0</ele><time>2026-05-01T13:57:32Z</time></trkpt><trkpt lat="42.28189158646751" lon="14.119662506707275"><ele>232.0</ele><time>2026-05-01T13:57:33Z</time></trkpt><trkpt lat="42.281911885609986" lon="14.119854736351076"><ele>234.0</ele><time>2026-05-01T13:57:34Z</time></trkpt><trkpt lat="42.281950289209014" lon="14.120036635069512"><ele>236.0</ele><time>2026-05-01T13:57:35Z</time></trkpt><trkpt lat="42.281995893122236" lon="14.12020812658208"><ele>237.5</ele><time>2026-05-01T13:57:36Z</time></trkpt><trkpt lat="42.282039922243" lon="14.120373916819569"><ele>239.0</ele><time>2026-05-01T13:57:37Z</time></trkpt><trkpt lat="42.282059514398235" lon="14.120536974556225"><ele>240.5</ele><time>2026-05-01T13:57:38Z</time></trkpt><trkpt lat="42.28209562890949" lon="14.120687847303936"><ele>242.0</ele><time>2026-05-01T13:57:39Z</time></trkpt><trkpt lat="42.282097723651255" lon="14.120847429279287"><ele>243.5</ele><time>2026-05-01T13:57:40Z</time></trkpt><trkpt lat="42.28208986866958" lon="14.121005489250694"><ele>245.0</ele><time>2026-05-01T13:57:41Z</time></trkpt><trkpt lat="42.28207934866192" lon="14.121166118706405"><ele>246.5</ele><time>2026-05-01T13:57:42Z</time></trkpt><trkpt lat="42.28205610599812" lon="14.121329387895281"><ele>248.0</ele><time>2026-05-01T13:57:43Z</time></trkpt><trkpt lat="42.28202198101722" lon="14.121488629883428"><ele>249.0</ele><time>2026-05-01T13:57:44Z</time></trkpt><trkpt lat="42.2819923686216" lon="14.121648791577982"><ele>250.0</ele><time>2026-05-01T13:57:45Z</time></trkpt><trkpt lat="42.28198360344339" lon="14.121814212856178"><ele>251.0</ele><time>2026-05-01T13:57:46Z</time></trkpt><trkpt lat="42.28199442444468" lon="14.121984299766824"><ele>252.0</ele><time>2026-05-01T13:57:47Z</time></trkpt><trkpt lat="42.2820183792647" lon="14.122151045187323"><ele>252.0</ele><time>2026-05-01T13:57:48Z</time></trkpt><trkpt lat="42.28204735869731" lon="14.122316388413664"><ele>252.0</ele><time>2026-05-01T13:57:49Z</time></trkpt><trkpt lat="42.28207740299899" lon="14.12247968534115"><ele>252.0</ele><time>2026-05-01T13:57:50Z</time></trkpt><trkpt lat="42.28210452716774" lon="14.122646400255588"><ele>252.0</ele><time>2026-05-01T13:57:51Z</time></trkpt><trkpt lat="42.282123180447186" lon="14.122815354486631"><ele>253.75</ele><time>2026-05-01T13:57:52Z</time></trkpt><trkpt lat="42.28213001721411" lon="14.122987833419764"><ele>255.5</ele><time>2026-05-01T13:57:53Z</time></trkpt><trkpt lat="42.28213565419022" lon="14.123175743255159"><ele>257.25</ele><time>2026-05-01T13:57:54Z</time></trkpt><trkpt lat="42.28214450337291" lon="14.123371988906172"><ele>259.0</ele><time>2026-05-01T13:57:55Z</time></trkpt><trkpt lat="42.28215232829508" lon="14.123577740112971"><ele>263.0</ele><time>2026-05-01T13:57:56Z</time></trkpt><trkpt lat="42.28215521144793" lon="14.123791356393422"><ele>267.0</ele><time>2026-05-01T13:57:57Z</time></trkpt><trkpt lat="42.282158160547226" lon="14.124006921712665"><ele>271.0</ele><time>2026-05-01T13:57:58Z</time></trkpt><trkpt lat="42.282164389477586" lon="14.124225056302688"><ele>273.66666666666663</ele><time>2026-05-01T13:57:59Z</time></trkpt><trkpt lat="42.28217671544191" lon="14.12443972533483"><ele>276.3333333333333</ele><time>2026-05-01T13:58:00Z</time></trkpt><trkpt lat="42.28219390716585" lon="14.124643612281302"><ele>279.0</ele><time>2026-05-01T13:58:01Z</time></trkpt><trkpt lat="42.28221318790914" lon="14.124837453316335"><ele>279.5</ele><time>2026-05-01T13:58:02Z</time></trkpt><trkpt lat="42.28223083859749" lon="14.125027044804458"><ele>280.0</ele><time>2026-05-01T13:58:03Z</time></trkpt><trkpt lat="42.282248713217264" lon="14.125215652250143"><ele>280.5</ele><time>2026-05-01T13:58:04Z</time></trkpt><trkpt lat="42.282265617057035" lon="14.125404973528173"><ele>281.0</ele><time>2026-05-01T13:58:05Z</time></trkpt><trkpt lat="42.28228345492598" lon="14.125592309776826"><ele>283.0</ele><time>2026-05-01T13:58:06Z</time></trkpt><trkpt lat="42.28230414763354" lon="14.125776794044006"><ele>285.0</ele><time>2026-05-01T13:58:07Z</time></trkpt><trkpt lat="42.28232552341267" lon="14.125960596701026"><ele>287.0</ele><time>2026-05-01T13:58:08Z</time></trkpt><trkpt lat="42.282344793787416" lon="14.126141518101381"><ele>289.0</ele><time>2026-05-01T13:58:09Z</time></trkpt><trkpt lat="42.282377539358826" lon="14.126313207073078"><ele>289.0</ele><time>2026-05-01T13:58:10Z</time></trkpt><trkpt lat="42.28242781452434" lon="14.126464881827248"><ele>289.0</ele><time>2026-05-01T13:58:11Z</time></trkpt><trkpt lat="42.28248274419158" lon="14.126596108768204"><ele>289.0</ele><time>2026-05-01T13:58:12Z</time></trkpt><trkpt lat="42.28253362267664" lon="14.12671235933993"><ele>289.0</ele><time>2026-05-01T13:58:13Z</time></trkpt><trkpt lat="42.28257739316523" lon="14.12681796199358"><ele>289.0</ele><time>2026-05-01T13:58:14Z</time></trkpt><trkpt lat="42.28261505448699" lon="14.126908714624857"><ele>290.8333333333333</ele><time>2026-05-01T13:58:15Z</time></trkpt><trkpt lat="42.282657102498405" lon="14.127030308582578"><ele>292.66666666666663</ele><time>2026-05-01T13:58:17Z</time></trkpt><trkpt lat="42.282644729480005" lon="14.127126102051134"><ele>294.5</ele><time>2026-05-01T13:58:19Z</time></trkpt><trkpt lat="42.28271019070902" lon="14.127213509127875"><ele>296.3333333333333</ele><time>2026-05-01T13:58:20Z</time></trkpt><trkpt lat="42.282773515934025" lon="14.127290140531624"><ele>298.1666666666667</ele><time>2026-05-01T13:58:21Z</time></trkpt><trkpt lat="42.28283155381465" lon="14.127400373453934"><ele>300.0</ele><time>2026-05-01T13:58:22Z</time></trkpt><trkpt lat="42.2828967713946" lon="14.127515500815846"><ele>300.25</ele><time>2026-05-01T13:58:23Z</time></trkpt><trkpt lat="42.282970294967534" lon="14.127644372097011"><ele>300.5</ele><time>2026-05-01T13:58:24Z</time></trkpt><trkpt lat="42.2830496580461" lon="14.127781216490584"><ele>300.75</ele><time>2026-05-01T13:58:25Z</time></trkpt><trkpt lat="42.28312260780064" lon="14.127905110874654"><ele>301.0</ele><time>2026-05-01T13:58:26Z</time></trkpt><trkpt lat="42.28319178461209" lon="14.12803177508585"><ele>301.2</ele><time>2026-05-01T13:58:27Z</time></trkpt><trkpt lat="42.28326092524026" lon="14.128158468989554"><ele>301.40000000000003</ele><time>2026-05-01T13:58:28Z</time></trkpt><trkpt lat="42.2833336051023" lon="14.128279329380964"><ele>301.6</ele><time>2026-05-01T13:58:29Z</time></trkpt><trkpt lat="42.283401517093324" lon="14.128390183686578"><ele>301.8</ele><time>2026-05-01T13:58:30Z</time></trkpt><trkpt lat="42.283470107724085" lon="14.12848916623635"><ele>302.0</ele><time>2026-05-01T13:58:31Z</time></trkpt><trkpt lat="42.28354299149935" lon="14.128578096229427"><ele>302.0</ele><time>2026-05-01T13:58:32Z</time></trkpt><trkpt lat="42.2836278733276" lon="14.128646350754027"><ele>302.0</ele><time>2026-05-01T13:58:33Z</time></trkpt><trkpt lat="42.28372437540885" lon="14.128687786961638"><ele>302.0</ele><time>2026-05-01T13:58:34Z</time></trkpt><trkpt lat="42.283826937181026" lon="14.128694669194418"><ele>302.0</ele><time>2026-05-01T13:58:35Z</time></trkpt><trkpt lat="42.283932926400944" lon="14.128694779843634"><ele>302.0</ele><time>2026-05-01T13:58:36Z</time></trkpt><trkpt lat="42.28403778082592" lon="14.128703311042832"><ele>302.4</ele><time>2026-05-01T13:58:37Z</time></trkpt><trkpt lat="42.28413815230916" lon="14.128724490642382"><ele>302.79999999999995</ele><time>2026-05-01T13:58:38Z</time></trkpt><trkpt lat="42.284233665543304" lon="14.128763652680375"><ele>303.2</ele><time>2026-05-01T13:58:39Z</time></trkpt><trkpt lat="42.284322988371514" lon="14.128826929642525"><ele>303.59999999999997</ele><time>2026-05-01T13:58:40Z</time></trkpt><trkpt lat="42.28440986962401" lon="14.1289064375494"><ele>304.0</ele><time>2026-05-01T13:58:41Z</time></trkpt><trkpt lat="42.28449634256974" lon="14.12899457652571"><ele>303.59999999999997</ele><time>2026-05-01T13:58:42Z</time></trkpt><trkpt lat="42.28458575412907" lon="14.129084199773631"><ele>303.2</ele><time>2026-05-01T13:58:43Z</time></trkpt><trkpt lat="42.284674826596536" lon="14.129172679028523"><ele>302.79999999999995</ele><time>2026-05-01T13:58:44Z</time></trkpt><trkpt lat="42.284761391591154" lon="14.129261751639861"><ele>302.4</ele><time>2026-05-01T13:58:45Z</time></trkpt><trkpt lat="42.28484866992397" lon="14.129352352656108"><ele>302.0</ele><time>2026-05-01T13:58:46Z</time></trkpt><trkpt lat="42.28493537120939" lon="14.129447912411687"><ele>302.0</ele><time>2026-05-01T13:58:47Z</time></trkpt><trkpt lat="42.28502174835699" lon="14.129546360454285"><ele>302.0</ele><time>2026-05-01T13:58:48Z</time></trkpt><trkpt lat="42.285105933044605" lon="14.129653355001837"><ele>302.0</ele><time>2026-05-01T13:58:49Z</time></trkpt><trkpt lat="42.28518571520925" lon="14.129765016806665"><ele>302.0</ele><time>2026-05-01T13:58:50Z</time></trkpt><trkpt lat="42.285264954046006" lon="14.12987609540307"><ele>303.25</ele><time>2026-05-01T13:58:51Z</time></trkpt><trkpt lat="42.28534704840859" lon="14.129986423362352"><ele>304.5</ele><time>2026-05-01T13:58:52Z</time></trkpt><trkpt lat="42.28542874758759" lon="14.130099132640268"><ele>305.75</ele><time>2026-05-01T13:58:53Z</time></trkpt><trkpt lat="42.285507725594044" lon="14.13021736977409"><ele>307.0</ele><time>2026-05-01T13:58:54Z</time></trkpt><trkpt lat="42.285582894054606" lon="14.130344940690991"><ele>304.75</ele><time>2026-05-01T13:58:55Z</time></trkpt><trkpt lat="42.28564947287611" lon="14.130484402337482"><ele>302.5</ele><time>2026-05-01T13:58:56Z</time></trkpt><trkpt lat="42.28571210309097" lon="14.130627944828039"><ele>300.25</ele><time>2026-05-01T13:58:57Z</time></trkpt><trkpt lat="42.28577934342305" lon="14.130770503582303"><ele>298.0</ele><time>2026-05-01T13:58:58Z</time></trkpt><trkpt lat="42.28584821521712" lon="14.130914169460207"><ele>298.0</ele><time>2026-05-01T13:58:59Z</time></trkpt><trkpt lat="42.2859180836606" lon="14.131054215173343"><ele>298.0</ele><time>2026-05-01T13:59:00Z</time></trkpt><trkpt lat="42.28599177271842" lon="14.13118433522029"><ele>298.0</ele><time>2026-05-01T13:59:01Z</time></trkpt><trkpt lat="42.28606886955942" lon="14.13130573359475"><ele>298.0</ele><time>2026-05-01T13:59:02Z</time></trkpt><trkpt lat="42.28614708557682" lon="14.131425077786083"><ele>298.0</ele><time>2026-05-01T13:59:03Z</time></trkpt><trkpt lat="42.28622440465979" lon="14.131543511406681"><ele>298.0</ele><time>2026-05-01T13:59:04Z</time></trkpt><trkpt lat="42.28630021372121" lon="14.131658829490478"><ele>298.0</ele><time>2026-05-01T13:59:05Z</time></trkpt><trkpt lat="42.28637171657244" lon="14.131775240924984"><ele>298.0</ele><time>2026-05-01T13:59:06Z</time></trkpt><trkpt lat="42.286440142646754" lon="14.13189531325004"><ele>296.8</ele><time>2026-05-01T13:59:07Z</time></trkpt><trkpt lat="42.28650268876621" lon="14.13201671901711"><ele>295.6</ele><time>2026-05-01T13:59:08Z</time></trkpt><trkpt lat="42.286566578517466" lon="14.132136008078456"><ele>294.4</ele><time>2026-05-01T13:59:09Z</time></trkpt><trkpt lat="42.286628673309174" lon="14.132257563636905"><ele>293.2</ele><time>2026-05-01T13:59:10Z</time></trkpt><trkpt lat="42.28667727162557" lon="14.13238813000066"><ele>292.0</ele><time>2026-05-01T13:59:11Z</time></trkpt><trkpt lat="42.28671286845154" lon="14.132528776683701"><ele>292.0</ele><time>2026-05-01T13:59:12Z</time></trkpt><trkpt lat="42.2867417385933" lon="14.132675509476211"><ele>292.0</ele><time>2026-05-01T13:59:13Z</time></trkpt><trkpt lat="42.286770985646854" lon="14.13282499401657"><ele>292.0</ele><time>2026-05-01T13:59:14Z</time></trkpt><trkpt lat="42.286798453157964" lon="14.13296883620485"><ele>292.0</ele><time>2026-05-01T13:59:15Z</time></trkpt><trkpt lat="42.286829437886375" lon="14.133099374655519"><ele>292.0</ele><time>2026-05-01T13:59:16Z</time></trkpt><trkpt lat="42.28686554705852" lon="14.133217728043702"><ele>291.4</ele><time>2026-05-01T13:59:17Z</time></trkpt><trkpt lat="42.28692283386279" lon="14.133314609622426"><ele>290.79999999999995</ele><time>2026-05-01T13:59:18Z</time></trkpt><trkpt lat="42.28700448217139" lon="14.133382543292324"><ele>290.2</ele><time>2026-05-01T13:59:19Z</time></trkpt><trkpt lat="42.287103805861776" lon="14.133427190840075"><ele>289.59999999999997</ele><time>2026-05-01T13:59:20Z</time></trkpt><trkpt lat="42.28720227340234" lon="14.133465332416252"><ele>289.0</ele><time>2026-05-01T13:59:21Z</time></trkpt><trkpt lat="42.287290419203764" lon="14.13350576254419"><ele>289.0</ele><time>2026-05-01T13:59:22Z</time></trkpt><trkpt lat="42.28738681557371" lon="14.133549310014846"><ele>289.0</ele><time>2026-05-01T13:59:23Z</time></trkpt><trkpt lat="42.287485927205246" lon="14.133585695005848"><ele>289.0</ele><time>2026-05-01T13:59:24Z</time></trkpt><trkpt lat="42.28758843209734" lon="14.13362506188342"><ele>289.0</ele><time>2026-05-01T13:59:25Z</time></trkpt><trkpt lat="42.2876918179642" lon="14.13366248477487"><ele>289.0</ele><time>2026-05-01T13:59:26Z</time></trkpt><trkpt lat="42.287794104882096" lon="14.133701013701506"><ele>289.0</ele><time>2026-05-01T13:59:27Z</time></trkpt><trkpt lat="42.287888770117306" lon="14.133749912989144"><ele>289.0</ele><time>2026-05-01T13:59:28Z</time></trkpt><trkpt lat="42.28797756669122" lon="14.133823313469858"><ele>289.0</ele><time>2026-05-01T13:59:29Z</time></trkpt><trkpt lat="42.288054894590225" lon="14.133922028479606"><ele>289.0</ele><time>2026-05-01T13:59:30Z</time></trkpt><trkpt lat="42.28811645478713" lon="14.134048128659572"><ele>289.0</ele><time>2026-05-01T13:59:31Z</time></trkpt><trkpt lat="42.28817396120703" lon="14.134182798099774"><ele>291.25</ele><time>2026-05-01T13:59:32Z</time></trkpt><trkpt lat="42.288241495538514" lon="14.134313574252975"><ele>293.5</ele><time>2026-05-01T13:59:33Z</time></trkpt><trkpt lat="42.28831721670897" lon="14.13443840371527"><ele>295.75</ele><time>2026-05-01T13:59:34Z</time></trkpt><trkpt lat="42.28839747538314" lon="14.1345540129024"><ele>298.0</ele><time>2026-05-01T13:59:35Z</time></trkpt><trkpt lat="42.28848246315641" lon="14.134657486624786"><ele>298.0</ele><time>2026-05-01T13:59:36Z</time></trkpt><trkpt lat="42.28857097101769" lon="14.134742715932589"><ele>298.0</ele><time>2026-05-01T13:59:37Z</time></trkpt><trkpt lat="42.28866445598812" lon="14.134810398335393"><ele>298.0</ele><time>2026-05-01T13:59:38Z</time></trkpt><trkpt lat="42.28875921690756" lon="14.134875451021715"><ele>298.0</ele><time>2026-05-01T13:59:39Z</time></trkpt><trkpt lat="42.28885330352039" lon="14.134951783281673"><ele>298.0</ele><time>2026-05-01T13:59:40Z</time></trkpt><trkpt lat="42.28894409839351" lon="14.135044569925748"><ele>300.4</ele><time>2026-05-01T13:59:41Z</time></trkpt><trkpt lat="42.28903243264217" lon="14.135140770404757"><ele>302.8</ele><time>2026-05-01T13:59:42Z</time></trkpt><trkpt lat="42.28912142301876" lon="14.135229111127577"><ele>305.2</ele><time>2026-05-01T13:59:43Z</time></trkpt><trkpt lat="42.28920695841166" lon="14.135316152082124"><ele>307.6</ele><time>2026-05-01T13:59:44Z</time></trkpt><trkpt lat="42.289289527402" lon="14.135405423123105"><ele>310.0</ele><time>2026-05-01T13:59:45Z</time></trkpt><trkpt lat="42.28937212926059" lon="14.135492633104079"><ele>310.0</ele><time>2026-05-01T13:59:46Z</time></trkpt><trkpt lat="42.28945824715051" lon="14.135577566724356"><ele>310.0</ele><time>2026-05-01T13:59:47Z</time></trkpt><trkpt lat="42.28955315307043" lon="14.135652683618579"><ele>310.0</ele><time>2026-05-01T13:59:48Z</time></trkpt><trkpt lat="42.28965347702953" lon="14.135716309811508"><ele>310.0</ele><time>2026-05-01T13:59:49Z</time></trkpt><trkpt lat="42.28976218294132" lon="14.135758479006073"><ele>310.0</ele><time>2026-05-01T13:59:50Z</time></trkpt><trkpt lat="42.28987465334809" lon="14.135787932638534"><ele>310.2</ele><time>2026-05-01T13:59:51Z</time></trkpt><trkpt lat="42.28998468534113" lon="14.13583902380901"><ele>310.4</ele><time>2026-05-01T13:59:52Z</time></trkpt><trkpt lat="42.290099866589635" lon="14.135851883952935"><ele>310.6</ele><time>2026-05-01T13:59:53Z</time></trkpt><trkpt lat="42.290201290036975" lon="14.135889514637386"><ele>310.8</ele><time>2026-05-01T13:59:54Z</time></trkpt><trkpt lat="42.290301115526816" lon="14.135923852600127"><ele>311.0</ele><time>2026-05-01T13:59:55Z</time></trkpt><trkpt lat="42.290401034158364" lon="14.135955892957972"><ele>311.0</ele><time>2026-05-01T13:59:56Z</time></trkpt><trkpt lat="42.29050051721192" lon="14.13598872800877"><ele>311.0</ele><time>2026-05-01T13:59:57Z</time></trkpt><trkpt lat="42.290600815618966" lon="14.136019993820746"><ele>311.0</ele><time>2026-05-01T13:59:58Z</time></trkpt><trkpt lat="42.29070314687082" lon="14.136052532132254"><ele>311.0</ele><time>2026-05-01T13:59:59Z</time></trkpt><trkpt lat="42.29080465491127" lon="14.136085449295214"><ele>311.0</ele><time>2026-05-01T14:00:00Z</time></trkpt><trkpt lat="42.29090385318921" lon="14.136117865771816"><ele>312.0</ele><time>2026-05-01T14:00:01Z</time></trkpt><trkpt lat="42.2910003536341" lon="14.136136206234287"><ele>313.0</ele><time>2026-05-01T14:00:02Z</time></trkpt><trkpt lat="42.29109163706895" lon="14.13612810293059"><ele>314.0</ele><time>2026-05-01T14:00:03Z</time></trkpt><trkpt lat="42.29117276788833" lon="14.136100197284245"><ele>315.0</ele><time>2026-05-01T14:00:04Z</time></trkpt><trkpt lat="42.291246645334844" lon="14.136068248276972"><ele>316.0</ele><time>2026-05-01T14:00:05Z</time></trkpt><trkpt lat="42.29130840529777" lon="14.136044783024992"><ele>317.0</ele><time>2026-05-01T14:00:06Z</time></trkpt><trkpt lat="42.291386241154996" lon="14.13603284079425"><ele>317.0</ele><time>2026-05-01T14:00:08Z</time></trkpt><trkpt lat="42.29142801744377" lon="14.135953097610372"><ele>317.0</ele><time>2026-05-01T14:00:11Z</time></trkpt><trkpt lat="42.29147473752936" lon="14.135882269751841"><ele>317.0</ele><time>2026-05-01T14:00:13Z</time></trkpt><trkpt lat="42.29141514731493" lon="14.13581127622659"><ele>317.0</ele><time>2026-05-01T14:00:15Z</time></trkpt><trkpt lat="42.29137736736869" lon="14.135710412029958"><ele>317.0</ele><time>2026-05-01T14:00:18Z</time></trkpt><trkpt lat="42.29133289535284" lon="14.135613341622477"><ele>317.0</ele><time>2026-05-01T14:00:20Z</time></trkpt><trkpt lat="42.29129998516395" lon="14.135529020702656"><ele>317.0</ele><time>2026-05-01T14:00:23Z</time></trkpt><trkpt lat="42.29131354391797" lon="14.135445851170887"><ele>317.0</ele><time>2026-05-01T14:00:25Z</time></trkpt><trkpt lat="42.29127134944269" lon="14.13535657896799"><ele>317.0</ele><time>2026-05-01T14:02:41Z</time></trkpt><trkpt lat="42.29129390636858" lon="14.135494670577392"><ele>317.0</ele><time>2026-05-01T14:02:53Z</time></trkpt><trkpt lat="42.29130937895012" lon="14.13557885219368"><ele>317.0</ele><time>2026-05-01T14:02:54Z</time></trkpt><trkpt lat="42.29132639423886" lon="14.135675427659681"><ele>317.0</ele><time>2026-05-01T14:02:55Z</time></trkpt><trkpt lat="42.29133972078985" lon="14.135766668183967"><ele>317.0</ele><time>2026-05-01T14:02:56Z</time></trkpt><trkpt lat="42.291397666658405" lon="14.13581872262577"><ele>317.0</ele><time>2026-05-01T14:02:57Z</time></trkpt><trkpt lat="42.29143800468527" lon="14.135925630888043"><ele>317.0</ele><time>2026-05-01T14:02:59Z</time></trkpt><trkpt lat="42.29146840928905" lon="14.136024162212367"><ele>317.0</ele><time>2026-05-01T14:03:01Z</time></trkpt><trkpt lat="42.29157552323725" lon="14.136075048029406"><ele>317.0</ele><time>2026-05-01T14:03:02Z</time></trkpt><trkpt lat="42.29165373866489" lon="14.13613272025954"><ele>317.0</ele><time>2026-05-01T14:03:03Z</time></trkpt><trkpt lat="42.29173070437472" lon="14.136186474078078"><ele>316.2</ele><time>2026-05-01T14:03:04Z</time></trkpt><trkpt lat="42.291812845325204" lon="14.136233739018362"><ele>315.4</ele><time>2026-05-01T14:03:05Z</time></trkpt><trkpt lat="42.29189665201316" lon="14.136275894853778"><ele>314.6</ele><time>2026-05-01T14:03:06Z</time></trkpt><trkpt lat="42.29198056331425" lon="14.136317034687437"><ele>313.8</ele><time>2026-05-01T14:03:07Z</time></trkpt><trkpt lat="42.29206552887676" lon="14.136354673121206"><ele>313.0</ele><time>2026-05-01T14:03:08Z</time></trkpt><trkpt lat="42.29215704335863" lon="14.13639639655542"><ele>313.0</ele><time>2026-05-01T14:03:09Z</time></trkpt><trkpt lat="42.292251208854715" lon="14.136441767863445"><ele>313.0</ele><time>2026-05-01T14:03:10Z</time></trkpt><trkpt lat="42.29234286711767" lon="14.136488652907813"><ele>313.0</ele><time>2026-05-01T14:03:11Z</time></trkpt><trkpt lat="42.29243408368236" lon="14.136535665518881"><ele>313.0</ele><time>2026-05-01T14:03:12Z</time></trkpt><trkpt lat="42.292526297196865" lon="14.136579378035925"><ele>313.0</ele><time>2026-05-01T14:03:13Z</time></trkpt><trkpt lat="42.29261757441432" lon="14.136620653814797"><ele>313.2</ele><time>2026-05-01T14:03:14Z</time></trkpt><trkpt lat="42.292709969977224" lon="14.136664792385565"><ele>313.4</ele><time>2026-05-01T14:03:15Z</time></trkpt><trkpt lat="42.29280036269966" lon="14.1367065503262"><ele>313.59999999999997</ele><time>2026-05-01T14:03:16Z</time></trkpt><trkpt lat="42.29288950212806" lon="14.136749028273126"><ele>313.8</ele><time>2026-05-01T14:03:17Z</time></trkpt><trkpt lat="42.29297872794397" lon="14.136791941070129"><ele>314.0</ele><time>2026-05-01T14:03:18Z</time></trkpt><trkpt lat="42.29307716561954" lon="14.13683533382955"><ele>314.2</ele><time>2026-05-01T14:03:19Z</time></trkpt><trkpt lat="42.29317751531801" lon="14.136880964506053"><ele>314.4</ele><time>2026-05-01T14:03:20Z</time></trkpt><trkpt lat="42.29328129603319" lon="14.136932374483779"><ele>314.6</ele><time>2026-05-01T14:03:21Z</time></trkpt><trkpt lat="42.29338117704286" lon="14.136981880596466"><ele>314.8</ele><time>2026-05-01T14:03:22Z</time></trkpt><trkpt lat="42.29348001878001" lon="14.137025395990534"><ele>315.0</ele><time>2026-05-01T14:03:23Z</time></trkpt><trkpt lat="42.29358253716514" lon="14.137072107677135"><ele>315.0</ele><time>2026-05-01T14:03:24Z</time></trkpt><trkpt lat="42.293687204756736" lon="14.137114356311555"><ele>315.0</ele><time>2026-05-01T14:03:25Z</time></trkpt><trkpt lat="42.29379656730076" lon="14.137153070354145"><ele>315.0</ele><time>2026-05-01T14:03:26Z</time></trkpt><trkpt lat="42.293905251880915" lon="14.137188023074097"><ele>315.0</ele><time>2026-05-01T14:03:27Z</time></trkpt><trkpt lat="42.2940106078088" lon="14.137219798910007"><ele>315.0</ele><time>2026-05-01T14:03:28Z</time></trkpt><trkpt lat="42.29411416763891" lon="14.137253233454308"><ele>315.4</ele><time>2026-05-01T14:03:29Z</time></trkpt><trkpt lat="42.294219523549096" lon="14.137286373793467"><ele>315.8</ele><time>2026-05-01T14:03:30Z</time></trkpt><trkpt lat="42.29432387736535" lon="14.1373193789707"><ele>316.2</ele><time>2026-05-01T14:03:31Z</time></trkpt><trkpt lat="42.29442526804086" lon="14.137348635555837"><ele>316.6</ele><time>2026-05-01T14:03:32Z</time></trkpt><trkpt lat="42.294528049665374" lon="14.137380143260179"><ele>317.0</ele><time>2026-05-01T14:03:33Z</time></trkpt><trkpt lat="42.29463139997872" lon="14.137414055872709"><ele>317.0</ele><time>2026-05-01T14:03:34Z</time></trkpt><trkpt lat="42.294736878545415" lon="14.137442732292337"><ele>317.0</ele><time>2026-05-01T14:03:35Z</time></trkpt><trkpt lat="42.294839120483076" lon="14.137460201304298"><ele>317.0</ele><time>2026-05-01T14:03:36Z</time></trkpt><trkpt lat="42.294942146209515" lon="14.137460759411036"><ele>317.0</ele><time>2026-05-01T14:03:37Z</time></trkpt><trkpt lat="42.29504269479666" lon="14.137440685222256"><ele>317.0</ele><time>2026-05-01T14:03:38Z</time></trkpt><trkpt lat="42.29514533509535" lon="14.137401063119377"><ele>317.2</ele><time>2026-05-01T14:03:39Z</time></trkpt><trkpt lat="42.29524111535083" lon="14.137360220168429"><ele>317.4</ele><time>2026-05-01T14:03:40Z</time></trkpt><trkpt lat="42.29533044865728" lon="14.137319953596691"><ele>317.6</ele><time>2026-05-01T14:03:41Z</time></trkpt><trkpt lat="42.29542008536143" lon="14.13727314841717"><ele>317.8</ele><time>2026-05-01T14:03:42Z</time></trkpt><trkpt lat="42.295503567480154" lon="14.137219668139767"><ele>318.0</ele><time>2026-05-01T14:03:43Z</time></trkpt><trkpt lat="42.29557861146639" lon="14.137149604338473"><ele>317.8</ele><time>2026-05-01T14:03:44Z</time></trkpt><trkpt lat="42.29564775858751" lon="14.137057310915674"><ele>317.6</ele><time>2026-05-01T14:03:45Z</time></trkpt><trkpt lat="42.295713854210824" lon="14.1369600713874"><ele>317.4</ele><time>2026-05-01T14:03:46Z</time></trkpt><trkpt lat="42.29578182469106" lon="14.136858259764674"><ele>317.2</ele><time>2026-05-01T14:03:47Z</time></trkpt><trkpt lat="42.29584791261486" lon="14.136754423824085"><ele>317.0</ele><time>2026-05-01T14:03:48Z</time></trkpt><trkpt lat="42.29591318025701" lon="14.13665214974601"><ele>315.4</ele><time>2026-05-01T14:03:49Z</time></trkpt><trkpt lat="42.29597710517013" lon="14.136547884553849"><ele>313.79999999999995</ele><time>2026-05-01T14:03:50Z</time></trkpt><trkpt lat="42.29604048839653" lon="14.136446045905986"><ele>312.2</ele><time>2026-05-01T14:03:51Z</time></trkpt><trkpt lat="42.29609952888957" lon="14.136341214902384"><ele>310.59999999999997</ele><time>2026-05-01T14:03:52Z</time></trkpt><trkpt lat="42.29615118131538" lon="14.136226601563502"><ele>309.0</ele><time>2026-05-01T14:03:53Z</time></trkpt><trkpt lat="42.296197915422134" lon="14.136105727994716"><ele>309.0</ele><time>2026-05-01T14:03:54Z</time></trkpt><trkpt lat="42.29624263456803" lon="14.135978309003773"><ele>309.0</ele><time>2026-05-01T14:03:55Z</time></trkpt><trkpt lat="42.29628885347406" lon="14.135849014513743"><ele>309.0</ele><time>2026-05-01T14:03:56Z</time></trkpt><trkpt lat="42.29633584505158" lon="14.135717438558943"><ele>309.0</ele><time>2026-05-01T14:03:57Z</time></trkpt><trkpt lat="42.29637967323481" lon="14.135583111285557"><ele>309.0</ele><time>2026-05-01T14:03:58Z</time></trkpt><trkpt lat="42.29642520677633" lon="14.135447389497477"><ele>312.5</ele><time>2026-05-01T14:03:59Z</time></trkpt><trkpt lat="42.29647152875122" lon="14.135311773269336"><ele>316.0</ele><time>2026-05-01T14:04:00Z</time></trkpt><trkpt lat="42.29651756262478" lon="14.135172545213177"><ele>319.5</ele><time>2026-05-01T14:04:01Z</time></trkpt><trkpt lat="42.29656580738296" lon="14.135033341397545"><ele>323.0</ele><time>2026-05-01T14:04:02Z</time></trkpt><trkpt lat="42.296614417094816" lon="14.134894650220588"><ele>322.0</ele><time>2026-05-01T14:04:03Z</time></trkpt><trkpt lat="42.2966616138976" lon="14.134755200419562"><ele>321.0</ele><time>2026-05-01T14:04:04Z</time></trkpt><trkpt lat="42.29670959857877" lon="14.134613006018114"><ele>320.0</ele><time>2026-05-01T14:04:05Z</time></trkpt><trkpt lat="42.29675772601163" lon="14.134476640368332"><ele>319.0</ele><time>2026-05-01T14:04:06Z</time></trkpt><trkpt lat="42.29680709628299" lon="14.134344844454459"><ele>319.0</ele><time>2026-05-01T14:04:07Z</time></trkpt><trkpt lat="42.29685389126139" lon="14.134221321120247"><ele>319.0</ele><time>2026-05-01T14:04:08Z</time></trkpt><trkpt lat="42.2969009887347" lon="14.134121478162282"><ele>319.0</ele><time>2026-05-01T14:04:09Z</time></trkpt><trkpt lat="42.29695503712635" lon="14.134057406658709"><ele>319.0</ele><time>2026-05-01T14:04:10Z</time></trkpt><trkpt lat="42.29701344447409" lon="14.13402431360052"><ele>319.0</ele><time>2026-05-01T14:04:11Z</time></trkpt><trkpt lat="42.29707772059618" lon="14.134029263421333"><ele>319.0</ele><time>2026-05-01T14:04:12Z</time></trkpt><trkpt lat="42.297149362798436" lon="14.13407523475445"><ele>319.0</ele><time>2026-05-01T14:04:13Z</time></trkpt><trkpt lat="42.29722236230601" lon="14.134154246248842"><ele>319.0</ele><time>2026-05-01T14:04:14Z</time></trkpt><trkpt lat="42.29730085523263" lon="14.13423566462508"><ele>319.0</ele><time>2026-05-01T14:04:15Z</time></trkpt><trkpt lat="42.29738892316535" lon="14.134324336830746"><ele>319.0</ele><time>2026-05-01T14:04:16Z</time></trkpt><trkpt lat="42.297478679281674" lon="14.134418852366588"><ele>319.0</ele><time>2026-05-01T14:04:17Z</time></trkpt><trkpt lat="42.297565496419985" lon="14.13451755930974"><ele>319.5</ele><time>2026-05-01T14:04:18Z</time></trkpt><trkpt lat="42.29764412891824" lon="14.13461922075103"><ele>320.0</ele><time>2026-05-01T14:04:19Z</time></trkpt><trkpt lat="42.2977170020686" lon="14.134711544441796"><ele>320.5</ele><time>2026-05-01T14:04:20Z</time></trkpt><trkpt lat="42.297790295798" lon="14.13478713772825"><ele>321.0</ele><time>2026-05-01T14:04:21Z</time></trkpt><trkpt lat="42.2978598390243" lon="14.134825789590568"><ele>321.5</ele><time>2026-05-01T14:04:22Z</time></trkpt><trkpt lat="42.29792554209754" lon="14.134815368130825"><ele>322.0</ele><time>2026-05-01T14:04:23Z</time></trkpt><trkpt lat="42.298012050788095" lon="14.13470067002724"><ele>322.0</ele><time>2026-05-01T14:04:25Z</time></trkpt><trkpt lat="42.298020445129666" lon="14.13460427149805"><ele>322.0</ele><time>2026-05-01T14:04:26Z</time></trkpt><trkpt lat="42.29800238648218" lon="14.134503835086146"><ele>322.0</ele><time>2026-05-01T14:04:27Z</time></trkpt><trkpt lat="42.297971832076264" lon="14.134405502194847"><ele>322.0</ele><time>2026-05-01T14:04:28Z</time></trkpt><trkpt lat="42.297929169099994" lon="14.134299410513295"><ele>322.0</ele><time>2026-05-01T14:04:29Z</time></trkpt><trkpt lat="42.297884819195104" lon="14.134187976515904"><ele>322.0</ele><time>2026-05-01T14:04:30Z</time></trkpt><trkpt lat="42.29784020140135" lon="14.134074506078283"><ele>320.8</ele><time>2026-05-01T14:04:31Z</time></trkpt><trkpt lat="42.29779573081076" lon="14.133961411426949"><ele>319.6</ele><time>2026-05-01T14:04:32Z</time></trkpt><trkpt lat="42.297750185255154" lon="14.133845389177838"><ele>318.40000000000003</ele><time>2026-05-01T14:04:33Z</time></trkpt><trkpt lat="42.29770415173575" lon="14.13372761131705"><ele>317.20000000000005</ele><time>2026-05-01T14:04:34Z</time></trkpt><trkpt lat="42.297677140631436" lon="14.133612658522512"><ele>316.0</ele><time>2026-05-01T14:04:35Z</time></trkpt><trkpt lat="42.29766920442343" lon="14.133500487010847"><ele>316.0</ele><time>2026-05-01T14:04:36Z</time></trkpt><trkpt lat="42.297676285975776" lon="14.133378705936746"><ele>316.0</ele><time>2026-05-01T14:04:37Z</time></trkpt><trkpt lat="42.297684364732135" lon="14.133252941244708"><ele>316.0</ele><time>2026-05-01T14:04:38Z</time></trkpt><trkpt lat="42.29769211198496" lon="14.13312252370675"><ele>316.0</ele><time>2026-05-01T14:04:39Z</time></trkpt><trkpt lat="42.2976837953644" lon="14.132980243950238"><ele>316.0</ele><time>2026-05-01T14:04:40Z</time></trkpt><trkpt lat="42.29765985912099" lon="14.132824597048922"><ele>314.5</ele><time>2026-05-01T14:04:41Z</time></trkpt><trkpt lat="42.29763414749086" lon="14.132655521902922"><ele>313.0</ele><time>2026-05-01T14:04:42Z</time></trkpt><trkpt lat="42.29760558492186" lon="14.132476295169743"><ele>311.5</ele><time>2026-05-01T14:04:43Z</time></trkpt><trkpt lat="42.29757395187437" lon="14.132295032529123"><ele>310.0</ele><time>2026-05-01T14:04:44Z</time></trkpt><trkpt lat="42.297545558830066" lon="14.13211970332736"><ele>308.75</ele><time>2026-05-01T14:04:45Z</time></trkpt><trkpt lat="42.297519196242504" lon="14.131958874903273"><ele>307.5</ele><time>2026-05-01T14:04:46Z</time></trkpt><trkpt lat="42.297493575841095" lon="14.13181151759487"><ele>306.25</ele><time>2026-05-01T14:04:47Z</time></trkpt><trkpt lat="42.29746823866624" lon="14.131667092050142"><ele>305.0</ele><time>2026-05-01T14:04:48Z</time></trkpt><trkpt lat="42.29744198500332" lon="14.131516618280246"><ele>302.25</ele><time>2026-05-01T14:04:49Z</time></trkpt><trkpt lat="42.29741800439655" lon="14.131361279125922"><ele>299.5</ele><time>2026-05-01T14:04:50Z</time></trkpt><trkpt lat="42.2973963539002" lon="14.131205901715875"><ele>296.75</ele><time>2026-05-01T14:04:51Z</time></trkpt><trkpt lat="42.29737129693079" lon="14.13105309706497"><ele>294.0</ele><time>2026-05-01T14:04:52Z</time></trkpt><trkpt lat="42.29733911511338" lon="14.130905730813625"><ele>294.0</ele><time>2026-05-01T14:04:53Z</time></trkpt><trkpt lat="42.29729029195995" lon="14.13076206616327"><ele>294.0</ele><time>2026-05-01T14:04:54Z</time></trkpt><trkpt lat="42.29722205068969" lon="14.130622158311683"><ele>294.0</ele><time>2026-05-01T14:04:55Z</time></trkpt><trkpt lat="42.29713969035532" lon="14.130491329622506"><ele>294.0</ele><time>2026-05-01T14:04:56Z</time></trkpt><trkpt lat="42.2970526829931" lon="14.130362402077015"><ele>295.0</ele><time>2026-05-01T14:04:57Z</time></trkpt><trkpt lat="42.296964278509364" lon="14.130230838423365"><ele>296.0</ele><time>2026-05-01T14:04:58Z</time></trkpt><trkpt lat="42.29687463771943" lon="14.130099904893674"><ele>297.0</ele><time>2026-05-01T14:04:59Z</time></trkpt><trkpt lat="42.29678777550034" lon="14.129973249016864"><ele>298.0</ele><time>2026-05-01T14:05:00Z</time></trkpt><trkpt lat="42.29670714165942" lon="14.129852465234766"><ele>296.2</ele><time>2026-05-01T14:05:01Z</time></trkpt><trkpt lat="42.296632693411055" lon="14.129735700268546"><ele>294.4</ele><time>2026-05-01T14:05:02Z</time></trkpt><trkpt lat="42.296567976066775" lon="14.129618984482574"><ele>292.59999999999997</ele><time>2026-05-01T14:05:03Z</time></trkpt><trkpt lat="42.29653402182276" lon="14.12948433547712"><ele>290.8</ele><time>2026-05-01T14:05:04Z</time></trkpt><trkpt lat="42.296489899330275" lon="14.129357478145232"><ele>289.0</ele><time>2026-05-01T14:05:05Z</time></trkpt><trkpt lat="42.296474409543215" lon="14.1292147854715"><ele>289.0</ele><time>2026-05-01T14:05:06Z</time></trkpt><trkpt lat="42.29645359290849" lon="14.129071367557186"><ele>289.0</ele><time>2026-05-01T14:05:07Z</time></trkpt><trkpt lat="42.29642709730961" lon="14.128930254210065"><ele>289.0</ele><time>2026-05-01T14:05:08Z</time></trkpt><trkpt lat="42.29642407990601" lon="14.128796659482653"><ele>289.0</ele><time>2026-05-01T14:05:09Z</time></trkpt><trkpt lat="42.296404909828375" lon="14.128673964352394"><ele>289.0</ele><time>2026-05-01T14:05:10Z</time></trkpt><trkpt lat="42.29638612751892" lon="14.128551259624244"><ele>287.2</ele><time>2026-05-01T14:05:11Z</time></trkpt><trkpt lat="42.29637087962" lon="14.128449842457934"><ele>285.4</ele><time>2026-05-01T14:05:12Z</time></trkpt><trkpt lat="42.296348628287454" lon="14.12831087305413"><ele>283.6</ele><time>2026-05-01T14:05:14Z</time></trkpt><trkpt lat="42.2963345781139" lon="14.128224988601133"><ele>281.8</ele><time>2026-05-01T14:05:17Z</time></trkpt><trkpt lat="42.296238370296564" lon="14.128225381799401"><ele>280.0</ele><time>2026-05-01T14:08:45Z</time></trkpt><trkpt lat="42.29633502735459" lon="14.128345816516052"><ele>278.5</ele><time>2026-05-01T14:14:33Z</time></trkpt><trkpt lat="42.29634007486913" lon="14.128477135236478"><ele>277.0</ele><time>2026-05-01T14:14:34Z</time></trkpt><trkpt lat="42.296354650868984" lon="14.128626273513046"><ele>275.5</ele><time>2026-05-01T14:14:35Z</time></trkpt><trkpt lat="42.29637981705157" lon="14.128788357519774"><ele>274.0</ele><time>2026-05-01T14:14:36Z</time></trkpt><trkpt lat="42.29640722765111" lon="14.128950283283185"><ele>277.75</ele><time>2026-05-01T14:14:37Z</time></trkpt><trkpt lat="42.296427136007026" lon="14.129108374068117"><ele>281.5</ele><time>2026-05-01T14:14:38Z</time></trkpt><trkpt lat="42.29645267763882" lon="14.12927123942208"><ele>285.25</ele><time>2026-05-01T14:14:39Z</time></trkpt><trkpt lat="42.29648200238932" lon="14.129434704946158"><ele>289.0</ele><time>2026-05-01T14:14:40Z</time></trkpt><trkpt lat="42.29652789756694" lon="14.129586755167232"><ele>289.0</ele><time>2026-05-01T14:14:41Z</time></trkpt><trkpt lat="42.2966047284537" lon="14.129720755117827"><ele>289.0</ele><time>2026-05-01T14:14:42Z</time></trkpt><trkpt lat="42.296690336543726" lon="14.129856422633253"><ele>289.0</ele><time>2026-05-01T14:14:43Z</time></trkpt><trkpt lat="42.296778793108096" lon="14.129994501350529"><ele>289.0</ele><time>2026-05-01T14:14:44Z</time></trkpt><trkpt lat="42.296866983189105" lon="14.130136795086456"><ele>291.25</ele><time>2026-05-01T14:14:45Z</time></trkpt><trkpt lat="42.2969605396239" lon="14.130272997948815"><ele>293.5</ele><time>2026-05-01T14:14:46Z</time></trkpt><trkpt lat="42.297052908037806" lon="14.130408546890159"><ele>295.75</ele><time>2026-05-01T14:14:47Z</time></trkpt><trkpt lat="42.29713951427743" lon="14.130543728199857"><ele>298.0</ele><time>2026-05-01T14:14:48Z</time></trkpt><trkpt lat="42.29721698114371" lon="14.13067522283695"><ele>297.0</ele><time>2026-05-01T14:14:49Z</time></trkpt><trkpt lat="42.297279451880556" lon="14.130811162377306"><ele>296.0</ele><time>2026-05-01T14:14:50Z</time></trkpt><trkpt lat="42.29732667435051" lon="14.130957960703336"><ele>295.0</ele><time>2026-05-01T14:14:51Z</time></trkpt><trkpt lat="42.297358931920336" lon="14.131119054742166"><ele>294.0</ele><time>2026-05-01T14:14:52Z</time></trkpt><trkpt lat="42.29738277827081" lon="14.131295409502137"><ele>294.0</ele><time>2026-05-01T14:14:53Z</time></trkpt><trkpt lat="42.29740999310413" lon="14.131479265820117"><ele>294.0</ele><time>2026-05-01T14:14:54Z</time></trkpt><trkpt lat="42.29744387772345" lon="14.131672568473425"><ele>294.0</ele><time>2026-05-01T14:14:55Z</time></trkpt><trkpt lat="42.297479354537785" lon="14.131871332625318"><ele>294.0</ele><time>2026-05-01T14:14:56Z</time></trkpt><trkpt lat="42.29751425770498" lon="14.132075651968776"><ele>297.6666666666667</ele><time>2026-05-01T14:14:57Z</time></trkpt><trkpt lat="42.297550319859226" lon="14.132282806693276"><ele>301.33333333333337</ele><time>2026-05-01T14:14:58Z</time></trkpt><trkpt lat="42.29758362732129" lon="14.132483293678353"><ele>305.0</ele><time>2026-05-01T14:14:59Z</time></trkpt><trkpt lat="42.2976149393037" lon="14.132677568935861"><ele>306.25</ele><time>2026-05-01T14:15:00Z</time></trkpt><trkpt lat="42.297641361480785" lon="14.132860668504293"><ele>307.5</ele><time>2026-05-01T14:15:01Z</time></trkpt><trkpt lat="42.29766168625234" lon="14.133037526985595"><ele>308.75</ele><time>2026-05-01T14:15:02Z</time></trkpt><trkpt lat="42.29766378720986" lon="14.133214414884606"><ele>310.0</ele><time>2026-05-01T14:15:03Z</time></trkpt><trkpt lat="42.297647579940055" lon="14.133387407935414"><ele>311.5</ele><time>2026-05-01T14:15:04Z</time></trkpt><trkpt lat="42.29764584181647" lon="14.133554348945058"><ele>313.0</ele><time>2026-05-01T14:15:05Z</time></trkpt><trkpt lat="42.29766660218091" lon="14.13371259082574"><ele>314.5</ele><time>2026-05-01T14:15:06Z</time></trkpt><trkpt lat="42.29771943992913" lon="14.133861806986149"><ele>316.0</ele><time>2026-05-01T14:15:07Z</time></trkpt><trkpt lat="42.29778545147495" lon="14.134014166541162"><ele>317.5</ele><time>2026-05-01T14:15:08Z</time></trkpt><trkpt lat="42.297849635841786" lon="14.134166581801079"><ele>319.0</ele><time>2026-05-01T14:15:09Z</time></trkpt><trkpt lat="42.29790881705078" lon="14.134316666835009"><ele>320.5</ele><time>2026-05-01T14:15:10Z</time></trkpt><trkpt lat="42.297960396319105" lon="14.134455406309755"><ele>322.0</ele><time>2026-05-01T14:15:11Z</time></trkpt><trkpt lat="42.297991365794445" lon="14.134579469588981"><ele>322.0</ele><time>2026-05-01T14:15:12Z</time></trkpt><trkpt lat="42.297983307644486" lon="14.134686834631388"><ele>322.0</ele><time>2026-05-01T14:15:13Z</time></trkpt><trkpt lat="42.29793687824542" lon="14.134755768912006"><ele>322.0</ele><time>2026-05-01T14:15:14Z</time></trkpt><trkpt lat="42.29787358223722" lon="14.134774390429598"><ele>322.0</ele><time>2026-05-01T14:15:15Z</time></trkpt><trkpt lat="42.29780486832727" lon="14.134747527996046"><ele>322.0</ele><time>2026-05-01T14:15:16Z</time></trkpt><trkpt lat="42.297739759014384" lon="14.134670275011604"><ele>322.0</ele><time>2026-05-01T14:15:17Z</time></trkpt><trkpt lat="42.297671317851375" lon="14.134573752030882"><ele>322.0</ele><time>2026-05-01T14:15:18Z</time></trkpt><trkpt lat="42.29758595048778" lon="14.134469426211066"><ele>322.0</ele><time>2026-05-01T14:15:19Z</time></trkpt><trkpt lat="42.297484603064426" lon="14.134363583528538"><ele>322.0</ele><time>2026-05-01T14:15:20Z</time></trkpt><trkpt lat="42.29737673587616" lon="14.134253774441394"><ele>322.0</ele><time>2026-05-01T14:15:21Z</time></trkpt><trkpt lat="42.297274183277466" lon="14.134142962898336"><ele>321.40000000000003</ele><time>2026-05-01T14:15:22Z</time></trkpt><trkpt lat="42.29717768335363" lon="14.134044663893132"><ele>320.8</ele><time>2026-05-01T14:15:23Z</time></trkpt><trkpt lat="42.29708416047201" lon="14.13398077892215"><ele>320.2</ele><time>2026-05-01T14:15:24Z</time></trkpt><trkpt lat="42.297006321233134" lon="14.13397877710541"><ele>319.6</ele><time>2026-05-01T14:15:25Z</time></trkpt><trkpt lat="42.29693491818693" lon="14.134018285526134"><ele>319.0</ele><time>2026-05-01T14:15:26Z</time></trkpt><trkpt lat="42.29687204138011" lon="14.134088274701565"><ele>319.0</ele><time>2026-05-01T14:15:27Z</time></trkpt><trkpt lat="42.296822090344136" lon="14.134208078577426"><ele>319.0</ele><time>2026-05-01T14:15:28Z</time></trkpt><trkpt lat="42.296773790088075" lon="14.134358472792183"><ele>319.0</ele><time>2026-05-01T14:15:29Z</time></trkpt><trkpt lat="42.2967165432377" lon="14.13451937792632"><ele>319.0</ele><time>2026-05-01T14:15:30Z</time></trkpt><trkpt lat="42.2966538303997" lon="14.134695078539385"><ele>319.0</ele><time>2026-05-01T14:15:31Z</time></trkpt><trkpt lat="42.29658807099921" lon="14.13488287276262"><ele>319.0</ele><time>2026-05-01T14:15:32Z</time></trkpt><trkpt lat="42.2965253542459" lon="14.135064227245714"><ele>319.0</ele><time>2026-05-01T14:15:33Z</time></trkpt><trkpt lat="42.29646607436763" lon="14.135239990425086"><ele>319.0</ele><time>2026-05-01T14:15:34Z</time></trkpt><trkpt lat="42.29640926021335" lon="14.135424223611084"><ele>316.5</ele><time>2026-05-01T14:15:35Z</time></trkpt><trkpt lat="42.29635004680067" lon="14.135607841173165"><ele>314.0</ele><time>2026-05-01T14:15:36Z</time></trkpt><trkpt lat="42.29628910881125" lon="14.135788156571216"><ele>311.5</ele><time>2026-05-01T14:15:37Z</time></trkpt><trkpt lat="42.296225566733845" lon="14.135965741261954"><ele>309.0</ele><time>2026-05-01T14:15:38Z</time></trkpt><trkpt lat="42.29615840481967" lon="14.136140804896208"><ele>309.0</ele><time>2026-05-01T14:15:39Z</time></trkpt><trkpt lat="42.296088464581175" lon="14.136311268973277"><ele>309.0</ele><time>2026-05-01T14:15:40Z</time></trkpt><trkpt lat="42.29600849475552" lon="14.136468724246978"><ele>309.0</ele><time>2026-05-01T14:15:41Z</time></trkpt><trkpt lat="42.295918438304604" lon="14.136608894221792"><ele>309.0</ele><time>2026-05-01T14:15:42Z</time></trkpt><trkpt lat="42.29582775219079" lon="14.136744640958733"><ele>311.0</ele><time>2026-05-01T14:15:43Z</time></trkpt><trkpt lat="42.295739921297965" lon="14.136876188589312"><ele>313.0</ele><time>2026-05-01T14:15:44Z</time></trkpt><trkpt lat="42.29565654594597" lon="14.137002306167435"><ele>315.0</ele><time>2026-05-01T14:15:45Z</time></trkpt><trkpt lat="42.29557847889414" lon="14.137116736304463"><ele>317.0</ele><time>2026-05-01T14:15:46Z</time></trkpt><trkpt lat="42.295494546625534" lon="14.137203192768451"><ele>317.25</ele><time>2026-05-01T14:15:47Z</time></trkpt><trkpt lat="42.29539722503887" lon="14.137262786583337"><ele>317.5</ele><time>2026-05-01T14:15:48Z</time></trkpt><trkpt lat="42.29528731067517" lon="14.137311007463163"><ele>317.75</ele><time>2026-05-01T14:15:49Z</time></trkpt><trkpt lat="42.29517247543168" lon="14.13735540585916"><ele>318.0</ele><time>2026-05-01T14:15:50Z</time></trkpt><trkpt lat="42.29505202697867" lon="14.13740309583561"><ele>318.0</ele><time>2026-05-01T14:15:51Z</time></trkpt><trkpt lat="42.294932643370956" lon="14.137437013519186"><ele>318.0</ele><time>2026-05-01T14:15:52Z</time></trkpt><trkpt lat="42.29481917422678" lon="14.137433287273375"><ele>318.0</ele><time>2026-05-01T14:15:53Z</time></trkpt><trkpt lat="42.294700396479165" lon="14.137405162813945"><ele>318.0</ele><time>2026-05-01T14:15:54Z</time></trkpt><trkpt lat="42.294577080367915" lon="14.137366036976038"><ele>318.0</ele><time>2026-05-01T14:15:55Z</time></trkpt><trkpt lat="42.29444236132685" lon="14.137320212318283"><ele>318.0</ele><time>2026-05-01T14:15:56Z</time></trkpt><trkpt lat="42.2942966077994" lon="14.137276588486905"><ele>318.0</ele><time>2026-05-01T14:15:57Z</time></trkpt><trkpt lat="42.29415100680916" lon="14.137235959893959"><ele>318.0</ele><time>2026-05-01T14:15:58Z</time></trkpt><trkpt lat="42.29401218718421" lon="14.13719626239579"><ele>317.25</ele><time>2026-05-01T14:15:59Z</time></trkpt><trkpt lat="42.293879030810544" lon="14.137154222763952"><ele>316.5</ele><time>2026-05-01T14:16:00Z</time></trkpt><trkpt lat="42.29374932809096" lon="14.137112097050185"><ele>315.75</ele><time>2026-05-01T14:16:01Z</time></trkpt><trkpt lat="42.293624751590215" lon="14.13706424090178"><ele>315.0</ele><time>2026-05-01T14:16:02Z</time></trkpt><trkpt lat="42.293503459041204" lon="14.137013679729751"><ele>315.0</ele><time>2026-05-01T14:16:03Z</time></trkpt><trkpt lat="42.29338418709181" lon="14.136959574723388"><ele>315.0</ele><time>2026-05-01T14:16:04Z</time></trkpt><trkpt lat="42.29326451311743" lon="14.136904072160833"><ele>315.0</ele><time>2026-05-01T14:16:05Z</time></trkpt><trkpt lat="42.2931497805155" lon="14.136827409903168"><ele>315.0</ele><time>2026-05-01T14:16:06Z</time></trkpt><trkpt lat="42.293028084426226" lon="14.136770022307386"><ele>314.75</ele><time>2026-05-01T14:16:07Z</time></trkpt><trkpt lat="42.292908609510064" lon="14.136713888609366"><ele>314.5</ele><time>2026-05-01T14:16:08Z</time></trkpt><trkpt lat="42.292788569817525" lon="14.136657489539866"><ele>314.25</ele><time>2026-05-01T14:16:09Z</time></trkpt><trkpt lat="42.292670659412416" lon="14.136602090867258"><ele>314.0</ele><time>2026-05-01T14:16:10Z</time></trkpt><trkpt lat="42.292553787998116" lon="14.136547023398931"><ele>313.75</ele><time>2026-05-01T14:16:11Z</time></trkpt><trkpt lat="42.29243882822954" lon="14.136492857898801"><ele>313.5</ele><time>2026-05-01T14:16:12Z</time></trkpt><trkpt lat="42.29232582632443" lon="14.136437695761936"><ele>313.25</ele><time>2026-05-01T14:16:13Z</time></trkpt><trkpt lat="42.292214360036525" lon="14.13638356469074"><ele>313.0</ele><time>2026-05-01T14:16:14Z</time></trkpt><trkpt lat="42.292102185721305" lon="14.136328536255522"><ele>313.0</ele><time>2026-05-01T14:16:15Z</time></trkpt><trkpt lat="42.29198971757316" lon="14.136272894895814"><ele>313.0</ele><time>2026-05-01T14:16:16Z</time></trkpt><trkpt lat="42.29187714034683" lon="14.13621719957533"><ele>313.0</ele><time>2026-05-01T14:16:17Z</time></trkpt><trkpt lat="42.29176273855906" lon="14.136175627276195"><ele>313.0</ele><time>2026-05-01T14:16:18Z</time></trkpt><trkpt lat="42.29167572297297" lon="14.136108940221556"><ele>313.0</ele><time>2026-05-01T14:16:19Z</time></trkpt><trkpt lat="42.291602598256" lon="14.136045991027553"><ele>313.0</ele><time>2026-05-01T14:16:20Z</time></trkpt><trkpt lat="42.291542796024714" lon="14.135984961682661"><ele>313.0</ele><time>2026-05-01T14:16:21Z</time></trkpt><trkpt lat="42.29149268683354" lon="14.13591508801298"><ele>313.0</ele><time>2026-05-01T14:16:22Z</time></trkpt><trkpt lat="42.2914413085431" lon="14.135839224012752"><ele>313.0</ele><time>2026-05-01T14:16:23Z</time></trkpt><trkpt lat="42.29138953855746" lon="14.135762211841561"><ele>313.0</ele><time>2026-05-01T14:16:24Z</time></trkpt><trkpt lat="42.29135574665869" lon="14.135669221203594"><ele>316.0</ele><time>2026-05-01T14:16:25Z</time></trkpt><trkpt lat="42.291315562431855" lon="14.135583937696989"><ele>319.0</ele><time>2026-05-01T14:16:26Z</time></trkpt><trkpt lat="42.291293305848534" lon="14.135463678377475"><ele>322.0</ele><time>2026-05-01T14:16:27Z</time></trkpt><trkpt lat="42.29127458765413" lon="14.135326149479976"><ele>325.0</ele><time>2026-05-01T14:16:28Z</time></trkpt><trkpt lat="42.29124716099317" lon="14.135182689146497"><ele>328.0</ele><time>2026-05-01T14:16:29Z</time></trkpt><trkpt lat="42.29121607890441" lon="14.135037897829537"><ele>328.0</ele><time>2026-05-01T14:16:30Z</time></trkpt><trkpt lat="42.29117911369185" lon="14.134895278731749"><ele>328.0</ele><time>2026-05-01T14:16:31Z</time></trkpt><trkpt lat="42.29113802182398" lon="14.134762903317627"><ele>328.0</ele><time>2026-05-01T14:16:32Z</time></trkpt><trkpt lat="42.29108428907391" lon="14.134641371702507"><ele>328.0</ele><time>2026-05-01T14:16:33Z</time></trkpt><trkpt lat="42.291025428008" lon="14.13452076341511"><ele>328.0</ele><time>2026-05-01T14:16:34Z</time></trkpt><trkpt lat="42.290960945054884" lon="14.134405319197365"><ele>326.59999999999997</ele><time>2026-05-01T14:16:35Z</time></trkpt><trkpt lat="42.29089346580744" lon="14.134303217203792"><ele>325.2</ele><time>2026-05-01T14:16:36Z</time></trkpt><trkpt lat="42.290835595383996" lon="14.134202152362146"><ele>323.8</ele><time>2026-05-01T14:16:37Z</time></trkpt><trkpt lat="42.29078089024723" lon="14.134131390931364"><ele>322.4</ele><time>2026-05-01T14:16:38Z</time></trkpt><trkpt lat="42.29065996307292" lon="14.134071559405745"><ele>321.0</ele><time>2026-05-01T14:16:40Z</time></trkpt><trkpt lat="42.29060647955603" lon="14.13401181007684"><ele>320.6</ele><time>2026-05-01T14:16:41Z</time></trkpt><trkpt lat="42.290524964330075" lon="14.13397481525826"><ele>320.20000000000005</ele><time>2026-05-01T14:16:42Z</time></trkpt><trkpt lat="42.29043323063841" lon="14.133933346748941"><ele>319.79999999999995</ele><time>2026-05-01T14:16:43Z</time></trkpt><trkpt lat="42.29033358010363" lon="14.133886947401571"><ele>319.4</ele><time>2026-05-01T14:16:44Z</time></trkpt><trkpt lat="42.29023067808909" lon="14.133835829858999"><ele>319.0</ele><time>2026-05-01T14:16:45Z</time></trkpt><trkpt lat="42.290131278609806" lon="14.133776373070525"><ele>319.0</ele><time>2026-05-01T14:16:46Z</time></trkpt><trkpt lat="42.290041218773744" lon="14.133698343141978"><ele>319.0</ele><time>2026-05-01T14:16:47Z</time></trkpt><trkpt lat="42.289973608037" lon="14.133585742550116"><ele>319.0</ele><time>2026-05-01T14:16:48Z</time></trkpt><trkpt lat="42.28991799235434" lon="14.133461053161806"><ele>319.0</ele><time>2026-05-01T14:16:49Z</time></trkpt><trkpt lat="42.28986593070515" lon="14.133333645315306"><ele>319.0</ele><time>2026-05-01T14:16:50Z</time></trkpt><trkpt lat="42.289808977215834" lon="14.133218933813845"><ele>318.0</ele><time>2026-05-01T14:16:51Z</time></trkpt><trkpt lat="42.28974032881011" lon="14.13312667335633"><ele>317.0</ele><time>2026-05-01T14:16:52Z</time></trkpt><trkpt lat="42.289676308847056" lon="14.133068651072287"><ele>316.0</ele><time>2026-05-01T14:16:53Z</time></trkpt><trkpt lat="42.289628014898454" lon="14.133008945983027"><ele>315.0</ele><time>2026-05-01T14:16:54Z</time></trkpt><trkpt lat="42.289546964791896" lon="14.132946491101102"><ele>314.0</ele><time>2026-05-01T14:16:56Z</time></trkpt><trkpt lat="42.28961193787709" lon="14.132748161793758"><ele>314.0</ele><time>2026-05-01T14:16:57Z</time></trkpt><trkpt lat="42.28963143900912" lon="14.132629574429478"><ele>314.0</ele><time>2026-05-01T14:16:58Z</time></trkpt><trkpt lat="42.28964651676454" lon="14.132499409825057"><ele>314.0</ele><time>2026-05-01T14:16:59Z</time></trkpt><trkpt lat="42.28968012892908" lon="14.132371983589717"><ele>314.0</ele><time>2026-05-01T14:17:00Z</time></trkpt><trkpt lat="42.28970524610199" lon="14.13225091737843"><ele>314.0</ele><time>2026-05-01T14:17:01Z</time></trkpt><trkpt lat="42.28973517110938" lon="14.132148815766994"><ele>313.1666666666667</ele><time>2026-05-01T14:17:02Z</time></trkpt><trkpt lat="42.28976308968462" lon="14.132061082629994"><ele>312.33333333333337</ele><time>2026-05-01T14:17:03Z</time></trkpt><trkpt lat="42.289816849846304" lon="14.131928325427475"><ele>311.5</ele><time>2026-05-01T14:17:05Z</time></trkpt><trkpt lat="42.289844295933726" lon="14.131825667495646"><ele>310.6666666666667</ele><time>2026-05-01T14:17:07Z</time></trkpt><trkpt lat="42.28988310703885" lon="14.131741237080803"><ele>309.8333333333333</ele><time>2026-05-01T14:17:10Z</time></trkpt><trkpt lat="42.28992666488056" lon="14.131647529955307"><ele>309.0</ele><time>2026-05-01T14:17:13Z</time></trkpt><trkpt lat="42.28996831459618" lon="14.131557150992972"><ele>306.7142857142857</ele><time>2026-05-01T14:17:16Z</time></trkpt><trkpt lat="42.29001398057966" lon="14.131482961987798"><ele>304.42857142857144</ele><time>2026-05-01T14:17:19Z</time></trkpt><trkpt lat="42.29005481801306" lon="14.131403990768083"><ele>302.1428571428571</ele><time>2026-05-01T14:17:22Z</time></trkpt><trkpt lat="42.29008665429557" lon="14.131325295603357"><ele>299.8571428571429</ele><time>2026-05-01T14:17:32Z</time></trkpt><trkpt lat="42.29013613543029" lon="14.131254024708282"><ele>297.57142857142856</ele><time>2026-05-01T14:17:34.999Z</time></trkpt><trkpt lat="42.29017267539728" lon="14.131143779198792"><ele>295.2857142857143</ele><time>2026-05-01T14:17:37.999Z</time></trkpt><trkpt lat="42.29018139390394" lon="14.131054179305735"><ele>293.0</ele><time>2026-05-01T14:17:39.999Z</time></trkpt><trkpt lat="42.29020291813734" lon="14.130968703186591"><ele>293.0</ele><time>2026-05-01T14:17:41.999Z</time></trkpt><trkpt lat="42.29024120786466" lon="14.130879709159016"><ele>293.0</ele><time>2026-05-01T14:17:43.999Z</time></trkpt><trkpt lat="42.29026864483943" lon="14.1307626900047"><ele>293.0</ele><time>2026-05-01T14:17:45.999Z</time></trkpt><trkpt lat="42.29028443700297" lon="14.130612804474222"><ele>293.0</ele><time>2026-05-01T14:17:47.999Z</time></trkpt><trkpt lat="42.29031758652472" lon="14.130481306810385"><ele>293.0</ele><time>2026-05-01T14:17:49.999Z</time></trkpt><trkpt lat="42.290339120323694" lon="14.130363088459578"><ele>289.8</ele><time>2026-05-01T14:17:51.999Z</time></trkpt><trkpt lat="42.29036641066795" lon="14.130230441167411"><ele>286.6</ele><time>2026-05-01T14:17:53.999Z</time></trkpt><trkpt lat="42.29038399149766" lon="14.13007907401393"><ele>283.4</ele><time>2026-05-01T14:17:56Z</time></trkpt><trkpt lat="42.290376620901576" lon="14.129929405926813"><ele>280.2</ele><time>2026-05-01T14:17:58Z</time></trkpt><trkpt lat="42.29036860149492" lon="14.12978588914814"><ele>277.0</ele><time>2026-05-01T14:18:00Z</time></trkpt><trkpt lat="42.29037867575665" lon="14.129631197240203"><ele>275.4</ele><time>2026-05-01T14:18:02Z</time></trkpt><trkpt lat="42.2903733770567" lon="14.129502690146587"><ele>273.79999999999995</ele><time>2026-05-01T14:18:04Z</time></trkpt><trkpt lat="42.29036847050282" lon="14.129361362783822"><ele>272.2</ele><time>2026-05-01T14:18:06Z</time></trkpt><trkpt lat="42.29037015338194" lon="14.129227087012557"><ele>270.59999999999997</ele><time>2026-05-01T14:18:08Z</time></trkpt><trkpt lat="42.29035954897837" lon="14.129086047565336"><ele>269.0</ele><time>2026-05-01T14:18:10Z</time></trkpt><trkpt lat="42.290383364355705" lon="14.128953190426724"><ele>265.0</ele><time>2026-05-01T14:18:12Z</time></trkpt><trkpt lat="42.290377292001764" lon="14.128819982259468"><ele>261.0</ele><time>2026-05-01T14:18:14Z</time></trkpt><trkpt lat="42.29039755019603" lon="14.12867794498235"><ele>257.0</ele><time>2026-05-01T14:18:16Z</time></trkpt><trkpt lat="42.29043423481167" lon="14.128525189238642"><ele>253.0</ele><time>2026-05-01T14:18:18Z</time></trkpt><trkpt lat="42.290447145285334" lon="14.12835989329978"><ele>249.0</ele><time>2026-05-01T14:18:20Z</time></trkpt><trkpt lat="42.29047066227589" lon="14.12827814471709"><ele>245.5</ele><time>2026-05-01T14:18:21Z</time></trkpt><trkpt lat="42.29048162464458" lon="14.128192319499096"><ele>242.0</ele><time>2026-05-01T14:18:22Z</time></trkpt><trkpt lat="42.29049249285618" lon="14.128107230739323"><ele>238.5</ele><time>2026-05-01T14:18:23Z</time></trkpt><trkpt lat="42.29050334862495" lon="14.12802224049192"><ele>235.0</ele><time>2026-05-01T14:18:24Z</time></trkpt><trkpt lat="42.290521188462414" lon="14.127882570883083"><ele>231.5</ele><time>2026-05-01T14:18:26Z</time></trkpt><trkpt lat="42.29053750443503" lon="14.12775483140453"><ele>228.0</ele><time>2026-05-01T14:18:28Z</time></trkpt><trkpt lat="42.29055510648486" lon="14.127617023718434"><ele>228.0</ele><time>2026-05-01T14:18:30Z</time></trkpt><trkpt lat="42.290555600448464" lon="14.127481673781094"><ele>228.0</ele><time>2026-05-01T14:18:32Z</time></trkpt><trkpt lat="42.2905784323999" lon="14.12734276201899"><ele>228.0</ele><time>2026-05-01T14:18:34Z</time></trkpt><trkpt lat="42.290593448219965" lon="14.127214328807362"><ele>228.0</ele><time>2026-05-01T14:18:36Z</time></trkpt><trkpt lat="42.29061101496998" lon="14.127077661878731"><ele>228.0</ele><time>2026-05-01T14:18:38Z</time></trkpt><trkpt lat="42.290634731293466" lon="14.126924917715996"><ele>227.2</ele><time>2026-05-01T14:18:40Z</time></trkpt><trkpt lat="42.29063834651837" lon="14.126774382851622"><ele>226.4</ele><time>2026-05-01T14:18:42Z</time></trkpt><trkpt lat="42.2906320625271" lon="14.126610102106905"><ele>225.59999999999997</ele><time>2026-05-01T14:18:44Z</time></trkpt><trkpt lat="42.290635587551876" lon="14.126442016840112"><ele>224.79999999999998</ele><time>2026-05-01T14:18:46Z</time></trkpt><trkpt lat="42.290628626890495" lon="14.126348763745362"><ele>224.0</ele><time>2026-05-01T14:18:47Z</time></trkpt><trkpt lat="42.290615013801855" lon="14.126175895632766"><ele>222.2</ele><time>2026-05-01T14:18:49Z</time></trkpt><trkpt lat="42.290607504827086" lon="14.126088180012175"><ele>220.39999999999998</ele><time>2026-05-01T14:18:50Z</time></trkpt><trkpt lat="42.29059452920327" lon="14.125936605554404"><ele>218.6</ele><time>2026-05-01T14:18:52Z</time></trkpt><trkpt lat="42.29058233438234" lon="14.125794152273675"><ele>216.8</ele><time>2026-05-01T14:18:54Z</time></trkpt><trkpt lat="42.29056948854248" lon="14.12564182304744"><ele>215.0</ele><time>2026-05-01T14:18:56Z</time></trkpt><trkpt lat="42.2905617525527" lon="14.125535077385003"><ele>212.33333333333334</ele><time>2026-05-01T14:18:58Z</time></trkpt><trkpt lat="42.2905537636884" lon="14.125413797247852"><ele>209.66666666666669</ele><time>2026-05-01T14:19:00Z</time></trkpt><trkpt lat="42.29054694931162" lon="14.125296110048945"><ele>207.0</ele><time>2026-05-01T14:19:02Z</time></trkpt><trkpt lat="42.290541649526645" lon="14.125178613782435"><ele>204.33333333333331</ele><time>2026-05-01T14:19:04Z</time></trkpt><trkpt lat="42.29054337570882" lon="14.12506440893626"><ele>201.66666666666666</ele><time>2026-05-01T14:19:06Z</time></trkpt><trkpt lat="42.290551505392784" lon="14.124970763533844"><ele>199.0</ele><time>2026-05-01T14:19:08Z</time></trkpt><trkpt lat="42.290559503532755" lon="14.124862791110248"><ele>198.28571428571428</ele><time>2026-05-01T14:19:11Z</time></trkpt><trkpt lat="42.29060044071445" lon="14.124792088605043"><ele>197.57142857142856</ele><time>2026-05-01T14:19:13Z</time></trkpt><trkpt lat="42.29063493575718" lon="14.124711552038155"><ele>196.85714285714283</ele><time>2026-05-01T14:19:15Z</time></trkpt><trkpt lat="42.2906716820343" lon="14.124635386316136"><ele>196.14285714285714</ele><time>2026-05-01T14:19:17Z</time></trkpt><trkpt lat="42.290726484583416" lon="14.124560719678483"><ele>195.42857142857144</ele><time>2026-05-01T14:19:19Z</time></trkpt><trkpt lat="42.29075932254076" lon="14.124460729411382"><ele>194.7142857142857</ele><time>2026-05-01T14:19:21Z</time></trkpt><trkpt lat="42.29080465796274" lon="14.124375509294575"><ele>194.0</ele><time>2026-05-01T14:19:23Z</time></trkpt><trkpt lat="42.290868936053606" lon="14.12427613851811"><ele>194.0</ele><time>2026-05-01T14:19:24.999Z</time></trkpt><trkpt lat="42.29091063647516" lon="14.124151768778068"><ele>194.0</ele><time>2026-05-01T14:19:26.999Z</time></trkpt><trkpt lat="42.290926789629616" lon="14.124013916623275"><ele>194.0</ele><time>2026-05-01T14:19:28.999Z</time></trkpt><trkpt lat="42.29095060557309" lon="14.123886860443886"><ele>194.0</ele><time>2026-05-01T14:19:30.999Z</time></trkpt><trkpt lat="42.29097694368767" lon="14.123758114645097"><ele>194.0</ele><time>2026-05-01T14:19:32.999Z</time></trkpt><trkpt lat="42.29099325677164" lon="14.123648659915254"><ele>190.39999999999998</ele><time>2026-05-01T14:19:34.999Z</time></trkpt><trkpt lat="42.2909790457325" lon="14.123515300588556"><ele>186.8</ele><time>2026-05-01T14:19:36.999Z</time></trkpt><trkpt lat="42.290963898125675" lon="14.123396820564052"><ele>183.2</ele><time>2026-05-01T14:19:38.999Z</time></trkpt><trkpt lat="42.29091604335828" lon="14.123267079493859"><ele>179.60000000000002</ele><time>2026-05-01T14:19:40.999Z</time></trkpt><trkpt lat="42.29086780052093" lon="14.123145649914774"><ele>176.0</ele><time>2026-05-01T14:19:42.999Z</time></trkpt><trkpt lat="42.29082461742324" lon="14.123058249114317"><ele>173.85714285714286</ele><time>2026-05-01T14:19:44.999Z</time></trkpt><trkpt lat="42.290794917807105" lon="14.122956294865824"><ele>171.71428571428572</ele><time>2026-05-01T14:19:47.999Z</time></trkpt><trkpt lat="42.290788455002115" lon="14.122865021422628"><ele>169.57142857142856</ele><time>2026-05-01T14:19:49.999Z</time></trkpt><trkpt lat="42.290767122980334" lon="14.122769676923573"><ele>167.42857142857144</ele><time>2026-05-01T14:19:52.999Z</time></trkpt><trkpt lat="42.29075277041657" lon="14.122680367032581"><ele>165.28571428571428</ele><time>2026-05-01T14:19:57.999Z</time></trkpt><trkpt lat="42.29074154354742" lon="14.122594533986678"><ele>163.14285714285714</ele><time>2026-05-01T14:20:01Z</time></trkpt><trkpt lat="42.290759083041756" lon="14.122485034533458"><ele>161.0</ele><time>2026-05-01T14:20:05Z</time></trkpt><trkpt lat="42.29079167572079" lon="14.122411202924534"><ele>161.0</ele><time>2026-05-01T14:20:07Z</time></trkpt><trkpt lat="42.29084573375626" lon="14.122363273701836"><ele>161.0</ele><time>2026-05-01T14:20:09Z</time></trkpt><trkpt lat="42.290908793955666" lon="14.122314379295528"><ele>161.0</ele><time>2026-05-01T14:20:11Z</time></trkpt><trkpt lat="42.29098619963352" lon="14.122251250722408"><ele>161.0</ele><time>2026-05-01T14:20:13Z</time></trkpt><trkpt lat="42.291004850088484" lon="14.122116315497616"><ele>161.0</ele><time>2026-05-01T14:20:16Z</time></trkpt><trkpt lat="42.29098630535934" lon="14.121957777944138"><ele>161.0</ele><time>2026-05-01T14:20:18Z</time></trkpt><trkpt lat="42.29099962901607" lon="14.121820658269911"><ele>161.0</ele><time>2026-05-01T14:20:20Z</time></trkpt><trkpt lat="42.291079259114056" lon="14.121707226810889"><ele>161.0</ele><time>2026-05-01T14:20:22Z</time></trkpt><trkpt lat="42.29114968096661" lon="14.121562833996508"><ele>161.0</ele><time>2026-05-01T14:20:24Z</time></trkpt><trkpt lat="42.291184919839935" lon="14.121480068277844"><ele>161.0</ele><time>2026-05-01T14:20:25Z</time></trkpt><trkpt lat="42.29122463104605" lon="14.121397411717266"><ele>161.0</ele><time>2026-05-01T14:20:26Z</time></trkpt><trkpt lat="42.291269168609304" lon="14.121312928922064"><ele>162.66666666666666</ele><time>2026-05-01T14:20:27Z</time></trkpt><trkpt lat="42.291309806626664" lon="14.121233742863202"><ele>164.33333333333331</ele><time>2026-05-01T14:20:28Z</time></trkpt><trkpt lat="42.29135343184166" lon="14.121136975365843"><ele>166.0</ele><time>2026-05-01T14:20:29Z</time></trkpt><trkpt lat="42.291392006042045" lon="14.121043543890616"><ele>167.66666666666666</ele><time>2026-05-01T14:20:30Z</time></trkpt><trkpt lat="42.291425704049836" lon="14.120959000019647"><ele>169.33333333333334</ele><time>2026-05-01T14:20:31Z</time></trkpt><trkpt lat="42.29146413633701" lon="14.120872200280871"><ele>171.0</ele><time>2026-05-01T14:20:32Z</time></trkpt><trkpt lat="42.291503077468725" lon="14.120791954847745"><ele>175.33333333333334</ele><time>2026-05-01T14:20:33Z</time></trkpt><trkpt lat="42.2915499897819" lon="14.12070049939436"><ele>179.66666666666669</ele><time>2026-05-01T14:20:34Z</time></trkpt><trkpt lat="42.29159530414043" lon="14.120608857123523"><ele>184.0</ele><time>2026-05-01T14:20:35Z</time></trkpt><trkpt lat="42.29163512693178" lon="14.120530616280606"><ele>188.33333333333334</ele><time>2026-05-01T14:20:36Z</time></trkpt><trkpt lat="42.29167400120469" lon="14.120455728934353"><ele>192.66666666666669</ele><time>2026-05-01T14:20:37Z</time></trkpt><trkpt lat="42.29170845207395" lon="14.120380481240202"><ele>197.0</ele><time>2026-05-01T14:20:38Z</time></trkpt><trkpt lat="42.291775799151466" lon="14.120249933544699"><ele>197.00000000000003</ele><time>2026-05-01T14:20:40Z</time></trkpt><trkpt lat="42.29181865100814" lon="14.120132523606163"><ele>197.0</ele><time>2026-05-01T14:20:42Z</time></trkpt><trkpt lat="42.291809166152404" lon="14.119980779124962"><ele>197.0</ele><time>2026-05-01T14:20:44Z</time></trkpt><trkpt lat="42.291802194301894" lon="14.119887087669868"><ele>197.0</ele><time>2026-05-01T14:20:45Z</time></trkpt><trkpt lat="42.291795030266435" lon="14.119792742501897"><ele>197.00000000000003</ele><time>2026-05-01T14:20:46Z</time></trkpt><trkpt lat="42.29178511596395" lon="14.119696089590672"><ele>197.0</ele><time>2026-05-01T14:20:47Z</time></trkpt><trkpt lat="42.29176327049483" lon="14.119593919215196"><ele>200.6</ele><time>2026-05-01T14:20:48Z</time></trkpt><trkpt lat="42.2917319631704" lon="14.119515459089564"><ele>204.2</ele><time>2026-05-01T14:20:49Z</time></trkpt><trkpt lat="42.29175698638125" lon="14.119431530654202"><ele>207.8</ele><time>2026-05-01T14:20:53Z</time></trkpt><trkpt lat="42.29186691238793" lon="14.119512179586097"><ele>211.4</ele><time>2026-05-01T14:20:56Z</time></trkpt><trkpt lat="42.2919787551253" lon="14.1195349455303"><ele>215.0</ele><time>2026-05-01T14:20:58Z</time></trkpt><trkpt lat="42.29209089334303" lon="14.119492904214962"><ele>215.00000000000003</ele><time>2026-05-01T14:21:00Z</time></trkpt><trkpt lat="42.292193461333625" lon="14.119422159385952"><ele>215.0</ele><time>2026-05-01T14:21:02Z</time></trkpt><trkpt lat="42.29225325044369" lon="14.119389320430804"><ele>215.0</ele><time>2026-05-01T14:21:03Z</time></trkpt><trkpt lat="42.29231254475562" lon="14.119347981472915"><ele>215.0</ele><time>2026-05-01T14:21:04Z</time></trkpt><trkpt lat="42.292374799891114" lon="14.119309528200873"><ele>215.00000000000003</ele><time>2026-05-01T14:21:05Z</time></trkpt><trkpt lat="42.29243238078906" lon="14.119267905391647"><ele>215.0</ele><time>2026-05-01T14:21:06Z</time></trkpt><trkpt lat="42.29253033814782" lon="14.119203679476914"><ele>217.50000000000003</ele><time>2026-05-01T14:21:08Z</time></trkpt><trkpt lat="42.29260997740568" lon="14.119114887245892"><ele>220.0</ele><time>2026-05-01T14:21:10Z</time></trkpt><trkpt lat="42.292696420894835" lon="14.11900290300954"><ele>222.5</ele><time>2026-05-01T14:21:12Z</time></trkpt><trkpt lat="42.292744323963575" lon="14.118941975456673"><ele>225.0</ele><time>2026-05-01T14:21:13Z</time></trkpt><trkpt lat="42.29279552664897" lon="14.118889048109324"><ele>227.50000000000003</ele><time>2026-05-01T14:21:14Z</time></trkpt><trkpt lat="42.29285169749651" lon="14.118832157332633"><ele>230.0</ele><time>2026-05-01T14:21:15Z</time></trkpt><trkpt lat="42.29290528202946" lon="14.118777721022267"><ele>233.4</ele><time>2026-05-01T14:21:16Z</time></trkpt><trkpt lat="42.29296521865544" lon="14.118723205566969"><ele>236.8</ele><time>2026-05-01T14:21:17Z</time></trkpt><trkpt lat="42.293056095800985" lon="14.118649295607645"><ele>240.2</ele><time>2026-05-01T14:21:19Z</time></trkpt><trkpt lat="42.293058803974574" lon="14.118562201348364"><ele>243.6</ele><time>2026-05-01T14:21:21Z</time></trkpt><trkpt lat="42.29301050195484" lon="14.118400507933497"><ele>247.0</ele><time>2026-05-01T14:21:23Z</time></trkpt><trkpt lat="42.29298685799727" lon="14.118243146869508"><ele>246.0</ele><time>2026-05-01T14:21:25Z</time></trkpt><trkpt lat="42.29297412963586" lon="14.118156162475263"><ele>245.0</ele><time>2026-05-01T14:21:29Z</time></trkpt><trkpt lat="42.29287399907212" lon="14.118106618264529"><ele>244.0</ele><time>2026-05-01T14:21:32Z</time></trkpt><trkpt lat="42.29276410762127" lon="14.11807274181016"><ele>243.0</ele><time>2026-05-01T14:21:34Z</time></trkpt><trkpt lat="42.2926535979985" lon="14.118032414881215"><ele>242.0</ele><time>2026-05-01T14:21:36Z</time></trkpt><trkpt lat="42.29253953333856" lon="14.117984970822773"><ele>242.0</ele><time>2026-05-01T14:21:37.999Z</time></trkpt><trkpt lat="42.29243404557599" lon="14.117903694298338"><ele>242.0</ele><time>2026-05-01T14:21:39.999Z</time></trkpt><trkpt lat="42.2923673574882" lon="14.117762486121823"><ele>242.0</ele><time>2026-05-01T14:21:41.999Z</time></trkpt><trkpt lat="42.29238557534121" lon="14.117606628163648"><ele>242.0</ele><time>2026-05-01T14:21:43.999Z</time></trkpt><trkpt lat="42.29243700422567" lon="14.117552549985048"><ele>242.0</ele><time>2026-05-01T14:21:44.999Z</time></trkpt><trkpt lat="42.29250445935615" lon="14.117529977370435"><ele>242.00000000000003</ele><time>2026-05-01T14:21:45.999Z</time></trkpt><trkpt lat="42.292577426999166" lon="14.117550429576285"><ele>242.0</ele><time>2026-05-01T14:21:46.999Z</time></trkpt><trkpt lat="42.29264827752998" lon="14.117599011570581"><ele>242.0</ele><time>2026-05-01T14:21:47.999Z</time></trkpt><trkpt lat="42.292712376335295" lon="14.117656835205372"><ele>242.0</ele><time>2026-05-01T14:21:48.999Z</time></trkpt><trkpt lat="42.292780556387704" lon="14.117712344511322"><ele>242.00000000000003</ele><time>2026-05-01T14:21:49.999Z</time></trkpt><trkpt lat="42.29285810685993" lon="14.117762241781282"><ele>242.0</ele><time>2026-05-01T14:21:50.999Z</time></trkpt><trkpt lat="42.29293412198312" lon="14.117802992104108"><ele>242.00000000000003</ele><time>2026-05-01T14:21:51.999Z</time></trkpt><trkpt lat="42.29300850250392" lon="14.117822134143134"><ele>242.0</ele><time>2026-05-01T14:21:52.999Z</time></trkpt><trkpt lat="42.29312308952061" lon="14.117785193405735"><ele>242.0</ele><time>2026-05-01T14:21:54.999Z</time></trkpt><trkpt lat="42.29315343595299" lon="14.117635308123978"><ele>242.0</ele><time>2026-05-01T14:21:56.999Z</time></trkpt><trkpt lat="42.29311437494909" lon="14.117564871504912"><ele>242.00000000000003</ele><time>2026-05-01T14:21:57.999Z</time></trkpt><trkpt lat="42.29307065188627" lon="14.117496280950604"><ele>242.0</ele><time>2026-05-01T14:21:58.999Z</time></trkpt><trkpt lat="42.29300953247279" lon="14.117440372350915"><ele>239.83333333333334</ele><time>2026-05-01T14:21:59.999Z</time></trkpt><trkpt lat="42.29294684268479" lon="14.117380861170911"><ele>237.66666666666669</ele><time>2026-05-01T14:22:00.999Z</time></trkpt><trkpt lat="42.292874683423506" lon="14.117329646652404"><ele>235.5</ele><time>2026-05-01T14:22:01.999Z</time></trkpt><trkpt lat="42.29281547037907" lon="14.117258191743442"><ele>233.33333333333331</ele><time>2026-05-01T14:22:02.999Z</time></trkpt><trkpt lat="42.29276217144104" lon="14.1171809349075"><ele>231.16666666666666</ele><time>2026-05-01T14:22:03.999Z</time></trkpt><trkpt lat="42.29271156490663" lon="14.117095620587463"><ele>229.0</ele><time>2026-05-01T14:22:04.999Z</time></trkpt><trkpt lat="42.2926689716435" lon="14.117009220388667"><ele>228.99999999999997</ele><time>2026-05-01T14:22:05.999Z</time></trkpt><trkpt lat="42.29263032623571" lon="14.116919633969909"><ele>229.0</ele><time>2026-05-01T14:22:07Z</time></trkpt><trkpt lat="42.29258819216662" lon="14.116839978314738"><ele>229.0</ele><time>2026-05-01T14:22:08Z</time></trkpt><trkpt lat="42.292539468585765" lon="14.116757114901485"><ele>229.0</ele><time>2026-05-01T14:22:09Z</time></trkpt><trkpt lat="42.29249045670252" lon="14.116666037432575"><ele>228.99999999999997</ele><time>2026-05-01T14:22:10Z</time></trkpt><trkpt lat="42.29243727033721" lon="14.116569060509262"><ele>229.0</ele><time>2026-05-01T14:22:11Z</time></trkpt><trkpt lat="42.29239030207991" lon="14.116459785898481"><ele>226.2</ele><time>2026-05-01T14:22:12Z</time></trkpt><trkpt lat="42.292325809563295" lon="14.11636012456445"><ele>223.39999999999998</ele><time>2026-05-01T14:22:13Z</time></trkpt><trkpt lat="42.29225390766698" lon="14.116266772456461"><ele>220.6</ele><time>2026-05-01T14:22:14Z</time></trkpt><trkpt lat="42.29216714776811" lon="14.11618851281613"><ele>217.8</ele><time>2026-05-01T14:22:15Z</time></trkpt><trkpt lat="42.29208814687038" lon="14.116093220981043"><ele>215.0</ele><time>2026-05-01T14:22:16Z</time></trkpt><trkpt lat="42.29200642357247" lon="14.115995636334885"><ele>215.0</ele><time>2026-05-01T14:22:17Z</time></trkpt><trkpt lat="42.29192605284137" lon="14.115893332710735"><ele>215.0</ele><time>2026-05-01T14:22:18Z</time></trkpt><trkpt lat="42.29185838060483" lon="14.115770848678098"><ele>215.0</ele><time>2026-05-01T14:22:19Z</time></trkpt><trkpt lat="42.291781283845985" lon="14.115660452079346"><ele>215.0</ele><time>2026-05-01T14:22:20Z</time></trkpt><trkpt lat="42.29170769124085" lon="14.115550646191123"><ele>215.0</ele><time>2026-05-01T14:22:21Z</time></trkpt><trkpt lat="42.29163755345957" lon="14.115441783993063"><ele>214.4</ele><time>2026-05-01T14:22:22Z</time></trkpt><trkpt lat="42.291558820552076" lon="14.115350132430388"><ele>213.8</ele><time>2026-05-01T14:22:23Z</time></trkpt><trkpt lat="42.29149891008756" lon="14.11524584068878"><ele>213.2</ele><time>2026-05-01T14:22:24Z</time></trkpt><trkpt lat="42.29144253868423" lon="14.115143525580642"><ele>212.6</ele><time>2026-05-01T14:22:25Z</time></trkpt><trkpt lat="42.29138602677663" lon="14.11504679248305"><ele>212.0</ele><time>2026-05-01T14:22:26Z</time></trkpt><trkpt lat="42.29133300679471" lon="14.114955598511587"><ele>213.2</ele><time>2026-05-01T14:22:27Z</time></trkpt><trkpt lat="42.29128895856059" lon="14.114857936809534"><ele>214.39999999999998</ele><time>2026-05-01T14:22:28Z</time></trkpt><trkpt lat="42.29124019256163" lon="14.11473928982523"><ele>215.60000000000002</ele><time>2026-05-01T14:22:29Z</time></trkpt><trkpt lat="42.291183045674615" lon="14.114616431600032"><ele>216.8</ele><time>2026-05-01T14:22:30Z</time></trkpt><trkpt lat="42.291125301312725" lon="14.11449659035736"><ele>218.0</ele><time>2026-05-01T14:22:31Z</time></trkpt><trkpt lat="42.291066098108175" lon="14.114373997854242"><ele>218.0</ele><time>2026-05-01T14:22:32Z</time></trkpt><trkpt lat="42.291003776522004" lon="14.114242907403145"><ele>218.0</ele><time>2026-05-01T14:22:33Z</time></trkpt><trkpt lat="42.290945561465875" lon="14.114104685779678"><ele>218.0</ele><time>2026-05-01T14:22:34Z</time></trkpt><trkpt lat="42.29088862723733" lon="14.113965771917238"><ele>218.0</ele><time>2026-05-01T14:22:35Z</time></trkpt><trkpt lat="42.29082883826101" lon="14.113834126906488"><ele>218.75</ele><time>2026-05-01T14:22:36Z</time></trkpt><trkpt lat="42.29076396992963" lon="14.11369887593438"><ele>219.5</ele><time>2026-05-01T14:22:37Z</time></trkpt><trkpt lat="42.29069840181711" lon="14.113558753080335"><ele>220.25</ele><time>2026-05-01T14:22:38Z</time></trkpt><trkpt lat="42.290635798660496" lon="14.113415260749923"><ele>221.0</ele><time>2026-05-01T14:22:39Z</time></trkpt><trkpt lat="42.29057807073823" lon="14.113275006383994"><ele>221.75</ele><time>2026-05-01T14:22:40Z</time></trkpt><trkpt lat="42.29052405191545" lon="14.113129506911136"><ele>222.5</ele><time>2026-05-01T14:22:41Z</time></trkpt><trkpt lat="42.29048125937024" lon="14.112975327474391"><ele>223.25</ele><time>2026-05-01T14:22:42Z</time></trkpt><trkpt lat="42.290443832186455" lon="14.112816295615266"><ele>224.0</ele><time>2026-05-01T14:22:43Z</time></trkpt><trkpt lat="42.29040263362544" lon="14.112656601559205"><ele>224.0</ele><time>2026-05-01T14:22:44Z</time></trkpt><trkpt lat="42.29035634568414" lon="14.112496191471463"><ele>224.0</ele><time>2026-05-01T14:22:45Z</time></trkpt><trkpt lat="42.290315975801974" lon="14.112328533683742"><ele>224.0</ele><time>2026-05-01T14:22:46Z</time></trkpt><trkpt lat="42.290284458282144" lon="14.11215079951479"><ele>224.0</ele><time>2026-05-01T14:22:47Z</time></trkpt><trkpt lat="42.29024923605606" lon="14.111976660058156"><ele>222.75</ele><time>2026-05-01T14:22:48Z</time></trkpt><trkpt lat="42.29021340475623" lon="14.111803274565698"><ele>221.5</ele><time>2026-05-01T14:22:49Z</time></trkpt><trkpt lat="42.29018054831181" lon="14.11162618186765"><ele>220.25</ele><time>2026-05-01T14:22:50Z</time></trkpt><trkpt lat="42.290152918208484" lon="14.111455967733685"><ele>219.0</ele><time>2026-05-01T14:22:51Z</time></trkpt><trkpt lat="42.29013654148937" lon="14.111296268653826"><ele>217.6</ele><time>2026-05-01T14:22:52Z</time></trkpt><trkpt lat="42.29013587972086" lon="14.111142864486043"><ele>216.2</ele><time>2026-05-01T14:22:53Z</time></trkpt><trkpt lat="42.29015569889848" lon="14.11099539692775"><ele>214.79999999999998</ele><time>2026-05-01T14:22:54Z</time></trkpt><trkpt lat="42.29018642584079" lon="14.110851489432294"><ele>213.39999999999998</ele><time>2026-05-01T14:22:55Z</time></trkpt><trkpt lat="42.29022450445318" lon="14.110713665490564"><ele>212.0</ele><time>2026-05-01T14:22:56Z</time></trkpt><trkpt lat="42.29027114477027" lon="14.110583986879028"><ele>212.39999999999998</ele><time>2026-05-01T14:22:57Z</time></trkpt><trkpt lat="42.29032506017322" lon="14.110469861555874"><ele>212.79999999999998</ele><time>2026-05-01T14:22:58Z</time></trkpt><trkpt lat="42.290385804428134" lon="14.11036427424277"><ele>213.2</ele><time>2026-05-01T14:22:59Z</time></trkpt><trkpt lat="42.29047587599314" lon="14.110296404863002"><ele>213.6</ele><time>2026-05-01T14:23:00Z</time></trkpt><trkpt lat="42.29055979411562" lon="14.110205420317685"><ele>214.0</ele><time>2026-05-01T14:23:01Z</time></trkpt><trkpt lat="42.29066645976508" lon="14.110129116396811"><ele>214.0</ele><time>2026-05-01T14:23:02Z</time></trkpt><trkpt lat="42.29077199891827" lon="14.110036818853079"><ele>214.0</ele><time>2026-05-01T14:23:03Z</time></trkpt><trkpt lat="42.29088865068476" lon="14.109948412655857"><ele>214.0</ele><time>2026-05-01T14:23:04Z</time></trkpt><trkpt lat="42.290989158667834" lon="14.10981670603956"><ele>214.0</ele><time>2026-05-01T14:23:05Z</time></trkpt><trkpt lat="42.291091854144334" lon="14.109697306781174"><ele>212.25</ele><time>2026-05-01T14:23:06Z</time></trkpt><trkpt lat="42.29118825291485" lon="14.109581518027293"><ele>210.5</ele><time>2026-05-01T14:23:07Z</time></trkpt><trkpt lat="42.29128544256755" lon="14.109471708264156"><ele>208.75</ele><time>2026-05-01T14:23:08Z</time></trkpt><trkpt lat="42.29137801262987" lon="14.109363601068418"><ele>207.0</ele><time>2026-05-01T14:23:09Z</time></trkpt><trkpt lat="42.29146738554222" lon="14.109276977841079"><ele>210.39999999999998</ele><time>2026-05-01T14:23:10Z</time></trkpt><trkpt lat="42.291557804407624" lon="14.10920823375499"><ele>213.79999999999998</ele><time>2026-05-01T14:23:11Z</time></trkpt><trkpt lat="42.2916611147394" lon="14.109164955617755"><ele>217.2</ele><time>2026-05-01T14:23:12Z</time></trkpt><trkpt lat="42.29175903543347" lon="14.109112925733342"><ele>220.6</ele><time>2026-05-01T14:23:13Z</time></trkpt><trkpt lat="42.291851462441485" lon="14.109052189816927"><ele>224.0</ele><time>2026-05-01T14:23:14Z</time></trkpt><trkpt lat="42.29193975630174" lon="14.108985181275022"><ele>223.6</ele><time>2026-05-01T14:23:15Z</time></trkpt><trkpt lat="42.29202731402768" lon="14.108909034358788"><ele>223.2</ele><time>2026-05-01T14:23:16Z</time></trkpt><trkpt lat="42.292113541923065" lon="14.108823952083467"><ele>222.79999999999998</ele><time>2026-05-01T14:23:17Z</time></trkpt><trkpt lat="42.292190420593776" lon="14.108736636605439"><ele>222.39999999999998</ele><time>2026-05-01T14:23:18Z</time></trkpt><trkpt lat="42.29225852672897" lon="14.108646732040885"><ele>222.0</ele><time>2026-05-01T14:23:19Z</time></trkpt><trkpt lat="42.29232433508966" lon="14.108553603192243"><ele>222.0</ele><time>2026-05-01T14:23:20Z</time></trkpt><trkpt lat="42.292384055963915" lon="14.10844933393605"><ele>222.0</ele><time>2026-05-01T14:23:21Z</time></trkpt><trkpt lat="42.292441638600685" lon="14.108332078971424"><ele>222.0</ele><time>2026-05-01T14:23:22Z</time></trkpt><trkpt lat="42.29249694011298" lon="14.108195661057682"><ele>222.0</ele><time>2026-05-01T14:23:23Z</time></trkpt><trkpt lat="42.29256860576141" lon="14.1080700447377"><ele>222.0</ele><time>2026-05-01T14:23:24Z</time></trkpt><trkpt lat="42.2926072237992" lon="14.107933087128385"><ele>223.25</ele><time>2026-05-01T14:23:25Z</time></trkpt><trkpt lat="42.292662883290596" lon="14.107799336788757"><ele>224.5</ele><time>2026-05-01T14:23:26Z</time></trkpt><trkpt lat="42.29272836733466" lon="14.107661268230972"><ele>225.75</ele><time>2026-05-01T14:23:27Z</time></trkpt><trkpt lat="42.292771000880535" lon="14.107498767419646"><ele>227.0</ele><time>2026-05-01T14:23:28Z</time></trkpt><trkpt lat="42.292834047674326" lon="14.10734729779776"><ele>227.75</ele><time>2026-05-01T14:23:29Z</time></trkpt><trkpt lat="42.29289455189953" lon="14.10718987047352"><ele>228.5</ele><time>2026-05-01T14:23:30Z</time></trkpt><trkpt lat="42.292954072111584" lon="14.107028069458908"><ele>229.25</ele><time>2026-05-01T14:23:31Z</time></trkpt><trkpt lat="42.293012342059896" lon="14.10686604098583"><ele>230.0</ele><time>2026-05-01T14:23:32Z</time></trkpt><trkpt lat="42.293065647556546" lon="14.106711684058034"><ele>226.75</ele><time>2026-05-01T14:23:33Z</time></trkpt><trkpt lat="42.29312173893774" lon="14.106558748408695"><ele>223.5</ele><time>2026-05-01T14:23:34Z</time></trkpt><trkpt lat="42.29318066770507" lon="14.106409230541619"><ele>220.25</ele><time>2026-05-01T14:23:35Z</time></trkpt><trkpt lat="42.29324472070275" lon="14.106265504130798"><ele>217.0</ele><time>2026-05-01T14:23:36Z</time></trkpt><trkpt lat="42.29331213658357" lon="14.106120978671228"><ele>217.0</ele><time>2026-05-01T14:23:37Z</time></trkpt><trkpt lat="42.293389194151885" lon="14.105981572693459"><ele>217.0</ele><time>2026-05-01T14:23:38Z</time></trkpt><trkpt lat="42.293474554100705" lon="14.105850316684371"><ele>217.0</ele><time>2026-05-01T14:23:39Z</time></trkpt><trkpt lat="42.2935652075706" lon="14.105726175300067"><ele>217.0</ele><time>2026-05-01T14:23:40Z</time></trkpt><trkpt lat="42.293653753982895" lon="14.105610534230651"><ele>217.75</ele><time>2026-05-01T14:23:41Z</time></trkpt><trkpt lat="42.293741105262534" lon="14.105492768893988"><ele>218.5</ele><time>2026-05-01T14:23:42Z</time></trkpt><trkpt lat="42.29382325219191" lon="14.105367639497265"><ele>219.25</ele><time>2026-05-01T14:23:43Z</time></trkpt><trkpt lat="42.293897113113836" lon="14.105231307954506"><ele>220.0</ele><time>2026-05-01T14:23:44Z</time></trkpt><trkpt lat="42.29396807918957" lon="14.10508641078818"><ele>217.25</ele><time>2026-05-01T14:23:45Z</time></trkpt><trkpt lat="42.2940390078864" lon="14.104938648105486"><ele>214.5</ele><time>2026-05-01T14:23:46Z</time></trkpt><trkpt lat="42.29411280959396" lon="14.104794485986085"><ele>211.75</ele><time>2026-05-01T14:23:47Z</time></trkpt><trkpt lat="42.29418646085029" lon="14.104649735749641"><ele>209.0</ele><time>2026-05-01T14:23:48Z</time></trkpt><trkpt lat="42.294258540227595" lon="14.104504982961979"><ele>209.0</ele><time>2026-05-01T14:23:49Z</time></trkpt><trkpt lat="42.29433058123869" lon="14.10436315868872"><ele>209.0</ele><time>2026-05-01T14:23:50Z</time></trkpt><trkpt lat="42.294403296786385" lon="14.10422128293009"><ele>209.0</ele><time>2026-05-01T14:23:51Z</time></trkpt><trkpt lat="42.29447467227917" lon="14.104076376930697"><ele>209.0</ele><time>2026-05-01T14:23:52Z</time></trkpt><trkpt lat="42.29454536303344" lon="14.103931179251164"><ele>209.0</ele><time>2026-05-01T14:23:53Z</time></trkpt><trkpt lat="42.294632495795" lon="14.103797003982494"><ele>209.0</ele><time>2026-05-01T14:23:54Z</time></trkpt><trkpt lat="42.294705613287356" lon="14.103649533322882"><ele>209.0</ele><time>2026-05-01T14:23:55Z</time></trkpt><trkpt lat="42.2947766753246" lon="14.10350323572597"><ele>209.0</ele><time>2026-05-01T14:23:56Z</time></trkpt><trkpt lat="42.29484627132369" lon="14.103356796062679"><ele>207.75</ele><time>2026-05-01T14:23:56.999Z</time></trkpt><trkpt lat="42.29491622872754" lon="14.103209595321577"><ele>206.5</ele><time>2026-05-01T14:23:57.999Z</time></trkpt><trkpt lat="42.29498557252053" lon="14.103064207625362"><ele>205.25</ele><time>2026-05-01T14:23:58.999Z</time></trkpt><trkpt lat="42.29504362534958" lon="14.102907295622188"><ele>204.0</ele><time>2026-05-01T14:23:59.999Z</time></trkpt><trkpt lat="42.295120620665074" lon="14.102768418165468"><ele>204.0</ele><time>2026-05-01T14:24:00.999Z</time></trkpt><trkpt lat="42.295195923615275" lon="14.102629460044463"><ele>204.0</ele><time>2026-05-01T14:24:01.999Z</time></trkpt><trkpt lat="42.295273297551695" lon="14.102490279362128"><ele>204.0</ele><time>2026-05-01T14:24:02.999Z</time></trkpt><trkpt lat="42.29535733880044" lon="14.10236015444369"><ele>204.0</ele><time>2026-05-01T14:24:03.999Z</time></trkpt><trkpt lat="42.29544467806774" lon="14.102238549083987"><ele>203.75</ele><time>2026-05-01T14:24:04.999Z</time></trkpt><trkpt lat="42.29553148928336" lon="14.102120031095184"><ele>203.5</ele><time>2026-05-01T14:24:05.999Z</time></trkpt><trkpt lat="42.295618813733654" lon="14.102004055102004"><ele>203.25</ele><time>2026-05-01T14:24:06.999Z</time></trkpt><trkpt lat="42.2957113219158" lon="14.101897417916902"><ele>203.0</ele><time>2026-05-01T14:24:07.999Z</time></trkpt><trkpt lat="42.29580509115353" lon="14.101794802176759"><ele>202.75</ele><time>2026-05-01T14:24:08.999Z</time></trkpt><trkpt lat="42.295905573964234" lon="14.101703882538935"><ele>202.5</ele><time>2026-05-01T14:24:09.999Z</time></trkpt><trkpt lat="42.29599068521539" lon="14.101589887408252"><ele>202.25</ele><time>2026-05-01T14:24:10.999Z</time></trkpt><trkpt lat="42.296058702254534" lon="14.101453403612041"><ele>202.0</ele><time>2026-05-01T14:24:11.999Z</time></trkpt><trkpt lat="42.296143325391334" lon="14.101334324157078"><ele>202.75</ele><time>2026-05-01T14:24:13Z</time></trkpt><trkpt lat="42.29622629861869" lon="14.101216407768057"><ele>203.5</ele><time>2026-05-01T14:24:14Z</time></trkpt><trkpt lat="42.29631086284033" lon="14.101097807570548"><ele>204.25</ele><time>2026-05-01T14:24:15Z</time></trkpt><trkpt lat="42.29639777049061" lon="14.100979672281074"><ele>205.0</ele><time>2026-05-01T14:24:16Z</time></trkpt><trkpt lat="42.29648665836072" lon="14.100860974331335"><ele>203.75</ele><time>2026-05-01T14:24:17Z</time></trkpt><trkpt lat="42.29658083152335" lon="14.100748029018598"><ele>202.5</ele><time>2026-05-01T14:24:18Z</time></trkpt><trkpt lat="42.29668395491484" lon="14.100644560743431"><ele>201.25</ele><time>2026-05-01T14:24:19Z</time></trkpt><trkpt lat="42.29679286456975" lon="14.100550947263992"><ele>200.0</ele><time>2026-05-01T14:24:20Z</time></trkpt><trkpt lat="42.29690399930305" lon="14.1004575806808"><ele>200.0</ele><time>2026-05-01T14:24:21Z</time></trkpt><trkpt lat="42.29701239381677" lon="14.100352098044386"><ele>200.0</ele><time>2026-05-01T14:24:22Z</time></trkpt><trkpt lat="42.297111984862354" lon="14.100227424364382"><ele>200.0</ele><time>2026-05-01T14:24:23Z</time></trkpt><trkpt lat="42.29720628697092" lon="14.100095658485719"><ele>200.0</ele><time>2026-05-01T14:24:24Z</time></trkpt><trkpt lat="42.29729602919584" lon="14.099957765890041"><ele>196.0</ele><time>2026-05-01T14:24:25Z</time></trkpt><trkpt lat="42.2973784181559" lon="14.09981677656693"><ele>192.0</ele><time>2026-05-01T14:24:26Z</time></trkpt><trkpt lat="42.29746430138039" lon="14.099681346946866"><ele>188.0</ele><time>2026-05-01T14:24:27Z</time></trkpt><trkpt lat="42.297526701139475" lon="14.09952918976884"><ele>184.0</ele><time>2026-05-01T14:24:28Z</time></trkpt><trkpt lat="42.29757252401615" lon="14.09937070257526"><ele>184.0</ele><time>2026-05-01T14:24:29Z</time></trkpt><trkpt lat="42.29760555277531" lon="14.099208861180449"><ele>184.0</ele><time>2026-05-01T14:24:30Z</time></trkpt><trkpt lat="42.29762233111749" lon="14.099042981033634"><ele>184.0</ele><time>2026-05-01T14:24:31Z</time></trkpt><trkpt lat="42.29762919469299" lon="14.098878692735905"><ele>184.0</ele><time>2026-05-01T14:24:32Z</time></trkpt><trkpt lat="42.297632418743135" lon="14.098717817690998"><ele>183.2</ele><time>2026-05-01T14:24:33Z</time></trkpt><trkpt lat="42.29763168780371" lon="14.09855868444131"><ele>182.39999999999998</ele><time>2026-05-01T14:24:34Z</time></trkpt><trkpt lat="42.29761397297474" lon="14.098406581952839"><ele>181.6</ele><time>2026-05-01T14:24:35Z</time></trkpt><trkpt lat="42.297632618823094" lon="14.098264007178846"><ele>180.8</ele><time>2026-05-01T14:24:36Z</time></trkpt><trkpt lat="42.29762261179725" lon="14.098125192083927"><ele>180.0</ele><time>2026-05-01T14:24:37Z</time></trkpt><trkpt lat="42.29764237925761" lon="14.097995293345464"><ele>180.0</ele><time>2026-05-01T14:24:38Z</time></trkpt><trkpt lat="42.2976629720567" lon="14.097883055397727"><ele>180.0</ele><time>2026-05-01T14:24:39Z</time></trkpt><trkpt lat="42.29768187085216" lon="14.09779142464868"><ele>180.0</ele><time>2026-05-01T14:24:40Z</time></trkpt><trkpt lat="42.29772273375507" lon="14.097661757602001"><ele>180.0</ele><time>2026-05-01T14:24:42Z</time></trkpt><trkpt lat="42.29776899020117" lon="14.097770403170221"><ele>180.0</ele><time>2026-05-01T14:24:46Z</time></trkpt><trkpt lat="42.29777965328586" lon="14.097918374393876"><ele>180.0</ele><time>2026-05-01T14:24:48Z</time></trkpt><trkpt lat="42.29781005007473" lon="14.09799335379487"><ele>180.0</ele><time>2026-05-01T14:24:49Z</time></trkpt><trkpt lat="42.29786708834536" lon="14.09804733939145"><ele>180.0</ele><time>2026-05-01T14:24:50Z</time></trkpt><trkpt lat="42.29792045068428" lon="14.098108093744894"><ele>180.0</ele><time>2026-05-01T14:24:51Z</time></trkpt><trkpt lat="42.2979939477466" lon="14.098115075772261"><ele>180.0</ele><time>2026-05-01T14:24:52Z</time></trkpt><trkpt lat="42.298061799108154" lon="14.09814590342262"><ele>180.0</ele><time>2026-05-01T14:24:53Z</time></trkpt><trkpt lat="42.29812270852513" lon="14.098191348971497"><ele>180.0</ele><time>2026-05-01T14:24:54Z</time></trkpt><trkpt lat="42.29815470764867" lon="14.098272276781739"><ele>177.14285714285714</ele><time>2026-05-01T14:24:55Z</time></trkpt><trkpt lat="42.29819913721256" lon="14.098333947279524"><ele>174.2857142857143</ele><time>2026-05-01T14:24:56Z</time></trkpt><trkpt lat="42.29826072140756" lon="14.09837156611701"><ele>171.42857142857144</ele><time>2026-05-01T14:24:57Z</time></trkpt><trkpt lat="42.29831781477032" lon="14.098418490661905"><ele>168.57142857142856</ele><time>2026-05-01T14:24:58Z</time></trkpt><trkpt lat="42.29837185899291" lon="14.09848323323038"><ele>165.71428571428572</ele><time>2026-05-01T14:24:59Z</time></trkpt><trkpt lat="42.298438270651914" lon="14.098532867897495"><ele>162.85714285714286</ele><time>2026-05-01T14:25:00Z</time></trkpt><trkpt lat="42.298509419032506" lon="14.098580442833699"><ele>160.0</ele><time>2026-05-01T14:25:01Z</time></trkpt><trkpt lat="42.298580005726585" lon="14.09861253726873"><ele>160.0</ele><time>2026-05-01T14:25:02Z</time></trkpt><trkpt lat="42.29864815356478" lon="14.098635718755911"><ele>160.0</ele><time>2026-05-01T14:25:03Z</time></trkpt><trkpt lat="42.29872039092961" lon="14.09865285779742"><ele>160.0</ele><time>2026-05-01T14:25:04Z</time></trkpt><trkpt lat="42.29879975688451" lon="14.098671173718255"><ele>160.0</ele><time>2026-05-01T14:25:05Z</time></trkpt><trkpt lat="42.298884450472826" lon="14.098692475075943"><ele>160.0</ele><time>2026-05-01T14:25:06Z</time></trkpt><trkpt lat="42.29897875722781" lon="14.098716195933083"><ele>160.0</ele><time>2026-05-01T14:25:07Z</time></trkpt><trkpt lat="42.29907711375318" lon="14.09874093361961"><ele>155.8</ele><time>2026-05-01T14:25:08Z</time></trkpt><trkpt lat="42.29917709103662" lon="14.098762991701754"><ele>151.6</ele><time>2026-05-01T14:25:09Z</time></trkpt><trkpt lat="42.29927448443818" lon="14.098783696464896"><ele>147.4</ele><time>2026-05-01T14:25:10Z</time></trkpt><trkpt lat="42.299371394653356" lon="14.098799507436036"><ele>143.2</ele><time>2026-05-01T14:25:11Z</time></trkpt><trkpt lat="42.2994676899233" lon="14.098802874920148"><ele>139.0</ele><time>2026-05-01T14:25:12Z</time></trkpt><trkpt lat="42.29955870836995" lon="14.09879528948634"><ele>139.0</ele><time>2026-05-01T14:25:13Z</time></trkpt><trkpt lat="42.299649749767184" lon="14.09878017301167"><ele>139.0</ele><time>2026-05-01T14:25:14Z</time></trkpt><trkpt lat="42.29974158566319" lon="14.098764697502553"><ele>139.0</ele><time>2026-05-01T14:25:15Z</time></trkpt><trkpt lat="42.29983879128451" lon="14.098745364283937"><ele>139.0</ele><time>2026-05-01T14:25:16Z</time></trkpt><trkpt lat="42.299934781797724" lon="14.09871970582136"><ele>139.0</ele><time>2026-05-01T14:25:17Z</time></trkpt><trkpt lat="42.30002292468399" lon="14.098689274122112"><ele>136.83333333333334</ele><time>2026-05-01T14:25:18Z</time></trkpt><trkpt lat="42.30010328471687" lon="14.098633978698114"><ele>134.66666666666669</ele><time>2026-05-01T14:25:19Z</time></trkpt><trkpt lat="42.300183165957314" lon="14.098595218346079"><ele>132.5</ele><time>2026-05-01T14:25:20Z</time></trkpt><trkpt lat="42.300264168565214" lon="14.098547007727952"><ele>130.33333333333334</ele><time>2026-05-01T14:25:21Z</time></trkpt><trkpt lat="42.30035187829402" lon="14.098516043761084"><ele>128.16666666666666</ele><time>2026-05-01T14:25:22Z</time></trkpt><trkpt lat="42.30043108720246" lon="14.0984616246328"><ele>126.0</ele><time>2026-05-01T14:25:23Z</time></trkpt><trkpt lat="42.300509029626106" lon="14.0983943606262"><ele>126.0</ele><time>2026-05-01T14:25:24Z</time></trkpt><trkpt lat="42.300574631793836" lon="14.09831464820715"><ele>126.0</ele><time>2026-05-01T14:25:25Z</time></trkpt><trkpt lat="42.300635564119645" lon="14.098235328806563"><ele>126.0</ele><time>2026-05-01T14:25:26Z</time></trkpt><trkpt lat="42.30070028752139" lon="14.098162649212506"><ele>126.0</ele><time>2026-05-01T14:25:27Z</time></trkpt><trkpt lat="42.30076690498297" lon="14.098092963559115"><ele>126.0</ele><time>2026-05-01T14:25:28Z</time></trkpt><trkpt lat="42.30083693598989" lon="14.098031241720136"><ele>126.0</ele><time>2026-05-01T14:25:29Z</time></trkpt><trkpt lat="42.30091214407093" lon="14.097980502861718"><ele>123.0</ele><time>2026-05-01T14:25:30Z</time></trkpt><trkpt lat="42.30100326714067" lon="14.097927427182446"><ele>120.0</ele><time>2026-05-01T14:25:31Z</time></trkpt><trkpt lat="42.301098206247325" lon="14.097863492784201"><ele>117.0</ele><time>2026-05-01T14:25:32Z</time></trkpt><trkpt lat="42.30119941995441" lon="14.097826083260541"><ele>114.0</ele><time>2026-05-01T14:25:33Z</time></trkpt><trkpt lat="42.30129944267088" lon="14.09782898788683"><ele>111.0</ele><time>2026-05-01T14:25:34Z</time></trkpt><trkpt lat="42.30138661105763" lon="14.097806951858166"><ele>110.16666666666667</ele><time>2026-05-01T14:25:35Z</time></trkpt><trkpt lat="42.30146481759643" lon="14.097813439113036"><ele>109.33333333333334</ele><time>2026-05-01T14:25:36Z</time></trkpt><trkpt lat="42.301534312922875" lon="14.097821389770242"><ele>108.5</ele><time>2026-05-01T14:25:37Z</time></trkpt><trkpt lat="42.30163100734654" lon="14.09784931931616"><ele>107.66666666666667</ele><time>2026-05-01T14:25:39Z</time></trkpt><trkpt lat="42.301672934980154" lon="14.097700978845596"><ele>106.83333333333334</ele><time>2026-05-01T14:25:41Z</time></trkpt><trkpt lat="42.30167318943935" lon="14.097612637985845"><ele>106.0</ele><time>2026-05-01T14:25:42Z</time></trkpt><trkpt lat="42.30168321810304" lon="14.097506322797503"><ele>105.8</ele><time>2026-05-01T14:25:43Z</time></trkpt><trkpt lat="42.3017059002301" lon="14.097382885887862"><ele>105.6</ele><time>2026-05-01T14:25:44Z</time></trkpt><trkpt lat="42.30172941309874" lon="14.09724046294266"><ele>105.4</ele><time>2026-05-01T14:25:45Z</time></trkpt><trkpt lat="42.301752324598425" lon="14.09708576236965"><ele>105.2</ele><time>2026-05-01T14:25:46Z</time></trkpt><trkpt lat="42.301773616509806" lon="14.096942952046442"><ele>105.0</ele><time>2026-05-01T14:25:47Z</time></trkpt><trkpt lat="42.30181917154652" lon="14.0967980988657"><ele>105.0</ele><time>2026-05-01T14:25:48Z</time></trkpt><trkpt lat="42.30185076364927" lon="14.096641189543595"><ele>105.0</ele><time>2026-05-01T14:25:49Z</time></trkpt><trkpt lat="42.301881103475644" lon="14.09647676014266"><ele>105.0</ele><time>2026-05-01T14:25:50Z</time></trkpt><trkpt lat="42.30190688712291" lon="14.096312413896456"><ele>105.0</ele><time>2026-05-01T14:25:51Z</time></trkpt><trkpt lat="42.30192976195509" lon="14.09614296727398"><ele>105.25</ele><time>2026-05-01T14:25:52Z</time></trkpt><trkpt lat="42.30195030211042" lon="14.09596978639555"><ele>105.5</ele><time>2026-05-01T14:25:53Z</time></trkpt><trkpt lat="42.301970081469065" lon="14.095794089655241"><ele>105.75</ele><time>2026-05-01T14:25:54Z</time></trkpt><trkpt lat="42.301988491559214" lon="14.095621031761544"><ele>106.0</ele><time>2026-05-01T14:25:54.999Z</time></trkpt><trkpt lat="42.30200579748509" lon="14.095448154705979"><ele>106.0</ele><time>2026-05-01T14:25:55.999Z</time></trkpt><trkpt lat="42.302023610927904" lon="14.095277491606613"><ele>106.0</ele><time>2026-05-01T14:25:56.999Z</time></trkpt><trkpt lat="42.30202782073155" lon="14.095102359181093"><ele>106.0</ele><time>2026-05-01T14:25:57.999Z</time></trkpt><trkpt lat="42.30205036868259" lon="14.094938994176333"><ele>106.0</ele><time>2026-05-01T14:25:58.999Z</time></trkpt><trkpt lat="42.302068013506926" lon="14.094791005864852"><ele>105.83333333333334</ele><time>2026-05-01T14:25:59.999Z</time></trkpt><trkpt lat="42.30206926193953" lon="14.094667776471471"><ele>105.66666666666667</ele><time>2026-05-01T14:26:00.999Z</time></trkpt><trkpt lat="42.30206275586346" lon="14.094550906104452"><ele>105.5</ele><time>2026-05-01T14:26:01.999Z</time></trkpt><trkpt lat="42.30200569866199" lon="14.094456571573252"><ele>105.33333333333334</ele><time>2026-05-01T14:26:02.999Z</time></trkpt><trkpt lat="42.30197273062903" lon="14.094353423186082"><ele>105.16666666666667</ele><time>2026-05-01T14:26:03.999Z</time></trkpt><trkpt lat="42.30198531471317" lon="14.094238785911221"><ele>105.0</ele><time>2026-05-01T14:26:04.999Z</time></trkpt><trkpt lat="42.30197463422337" lon="14.094119739721583"><ele>105.2</ele><time>2026-05-01T14:26:05.999Z</time></trkpt><trkpt lat="42.30194727717321" lon="14.093998086759536"><ele>105.4</ele><time>2026-05-01T14:26:06.999Z</time></trkpt><trkpt lat="42.30189143940877" lon="14.093885619925047"><ele>105.6</ele><time>2026-05-01T14:26:07.999Z</time></trkpt><trkpt lat="42.30181773517653" lon="14.093784692127933"><ele>105.8</ele><time>2026-05-01T14:26:08.999Z</time></trkpt><trkpt lat="42.301749855308785" lon="14.093690626488417"><ele>106.0</ele><time>2026-05-01T14:26:09.999Z</time></trkpt><trkpt lat="42.30170083594219" lon="14.093602630011794"><ele>106.00000000000001</ele><time>2026-05-01T14:26:10.999Z</time></trkpt><trkpt lat="42.30165775418979" lon="14.09352739486962"><ele>106.0</ele><time>2026-05-01T14:26:11.999Z</time></trkpt><trkpt lat="42.301661165785745" lon="14.093434300341523"><ele>106.0</ele><time>2026-05-01T14:26:12.999Z</time></trkpt><trkpt lat="42.301702662358615" lon="14.093353942432813"><ele>106.0</ele><time>2026-05-01T14:26:13.999Z</time></trkpt><trkpt lat="42.301780392317596" lon="14.09333017064265"><ele>106.00000000000001</ele><time>2026-05-01T14:26:14.999Z</time></trkpt><trkpt lat="42.30186786144552" lon="14.093286743996906"><ele>106.0</ele><time>2026-05-01T14:26:15.999Z</time></trkpt><trkpt lat="42.3019618226274" lon="14.093238605649647"><ele>108.25</ele><time>2026-05-01T14:26:16.999Z</time></trkpt><trkpt lat="42.30206214649156" lon="14.093184366194787"><ele>110.5</ele><time>2026-05-01T14:26:17.999Z</time></trkpt><trkpt lat="42.302168271438106" lon="14.093127556431535"><ele>112.75</ele><time>2026-05-01T14:26:19Z</time></trkpt><trkpt lat="42.302272579007074" lon="14.093053129060767"><ele>115.0</ele><time>2026-05-01T14:26:20Z</time></trkpt><trkpt lat="42.302383089007606" lon="14.093004078026212"><ele>115.0</ele><time>2026-05-01T14:26:21Z</time></trkpt><trkpt lat="42.302488914025574" lon="14.092953471225156"><ele>115.0</ele><time>2026-05-01T14:26:22Z</time></trkpt><trkpt lat="42.30257663448859" lon="14.092903893987938"><ele>115.0</ele><time>2026-05-01T14:26:23Z</time></trkpt><trkpt lat="42.30265436705011" lon="14.092856865737254"><ele>115.0</ele><time>2026-05-01T14:26:24Z</time></trkpt><trkpt lat="42.302735157444175" lon="14.092810043891653"><ele>115.0</ele><time>2026-05-01T14:26:25Z</time></trkpt><trkpt lat="42.3028133401885" lon="14.092764997972713"><ele>115.0</ele><time>2026-05-01T14:26:26Z</time></trkpt><trkpt lat="42.30288625361639" lon="14.092707816092366"><ele>115.0</ele><time>2026-05-01T14:26:27Z</time></trkpt><trkpt lat="42.30295522163876" lon="14.092626515063643"><ele>115.0</ele><time>2026-05-01T14:26:28Z</time></trkpt><trkpt lat="42.30301691552024" lon="14.092530451307562"><ele>115.0</ele><time>2026-05-01T14:26:29Z</time></trkpt><trkpt lat="42.3030831891717" lon="14.09242944543586"><ele>115.0</ele><time>2026-05-01T14:26:30Z</time></trkpt><trkpt lat="42.30315451158213" lon="14.092323636387171"><ele>114.2</ele><time>2026-05-01T14:26:31Z</time></trkpt><trkpt lat="42.30322745579009" lon="14.09221964151563"><ele>113.4</ele><time>2026-05-01T14:26:32Z</time></trkpt><trkpt lat="42.30330006167725" lon="14.092119481417127"><ele>112.6</ele><time>2026-05-01T14:26:33Z</time></trkpt><trkpt lat="42.30337539947321" lon="14.092026783593674"><ele>111.8</ele><time>2026-05-01T14:26:34Z</time></trkpt><trkpt lat="42.30345128107628" lon="14.091943373945577"><ele>111.0</ele><time>2026-05-01T14:26:35Z</time></trkpt><trkpt lat="42.303530925661654" lon="14.09186899139167"><ele>111.0</ele><time>2026-05-01T14:26:36Z</time></trkpt><trkpt lat="42.30361978734885" lon="14.091826498788311"><ele>111.0</ele><time>2026-05-01T14:26:37Z</time></trkpt><trkpt lat="42.303695417609276" lon="14.091765222997214"><ele>111.0</ele><time>2026-05-01T14:26:38Z</time></trkpt><trkpt lat="42.30378797772616" lon="14.091713213429585"><ele>111.0</ele><time>2026-05-01T14:26:39Z</time></trkpt><trkpt lat="42.30387844243826" lon="14.09166038079531"><ele>111.0</ele><time>2026-05-01T14:26:40Z</time></trkpt><trkpt lat="42.30397786374967" lon="14.09161415018827"><ele>111.25</ele><time>2026-05-01T14:26:41Z</time></trkpt><trkpt lat="42.304074041619394" lon="14.091561997753091"><ele>111.5</ele><time>2026-05-01T14:26:42Z</time></trkpt><trkpt lat="42.304182666087115" lon="14.091505613402925"><ele>111.75</ele><time>2026-05-01T14:26:43Z</time></trkpt><trkpt lat="42.30429211263133" lon="14.091448148740415"><ele>112.0</ele><time>2026-05-01T14:26:44Z</time></trkpt><trkpt lat="42.304403485198335" lon="14.091386598652393"><ele>112.0</ele><time>2026-05-01T14:26:45Z</time></trkpt><trkpt lat="42.30451306435061" lon="14.091324189123576"><ele>112.0</ele><time>2026-05-01T14:26:46Z</time></trkpt><trkpt lat="42.30462014371644" lon="14.091261610107722"><ele>112.0</ele><time>2026-05-01T14:26:47Z</time></trkpt><trkpt lat="42.30472276043342" lon="14.091198841524713"><ele>112.0</ele><time>2026-05-01T14:26:48Z</time></trkpt><trkpt lat="42.304825844640185" lon="14.091136798762541"><ele>109.0</ele><time>2026-05-01T14:26:49Z</time></trkpt><trkpt lat="42.30493277060122" lon="14.09107055581784"><ele>106.0</ele><time>2026-05-01T14:26:50Z</time></trkpt><trkpt lat="42.30503992838434" lon="14.091007125646577"><ele>103.0</ele><time>2026-05-01T14:26:51Z</time></trkpt><trkpt lat="42.30514392967839" lon="14.090935075562083"><ele>100.0</ele><time>2026-05-01T14:26:52Z</time></trkpt><trkpt lat="42.30524582766607" lon="14.090868649353157"><ele>100.0</ele><time>2026-05-01T14:26:53Z</time></trkpt><trkpt lat="42.305352288009175" lon="14.0908264230785"><ele>100.0</ele><time>2026-05-01T14:26:54Z</time></trkpt><trkpt lat="42.305447237400195" lon="14.090737958162908"><ele>100.0</ele><time>2026-05-01T14:26:55Z</time></trkpt><trkpt lat="42.305557325969595" lon="14.090673273643352"><ele>100.0</ele><time>2026-05-01T14:26:56Z</time></trkpt><trkpt lat="42.30566803953689" lon="14.090602727151833"><ele>99.2</ele><time>2026-05-01T14:26:57Z</time></trkpt><trkpt lat="42.305766736421205" lon="14.090538221136745"><ele>98.4</ele><time>2026-05-01T14:26:58Z</time></trkpt><trkpt lat="42.30584682562097" lon="14.09048686087278"><ele>97.6</ele><time>2026-05-01T14:26:59Z</time></trkpt><trkpt lat="42.30591952388482" lon="14.090437693326543"><ele>96.8</ele><time>2026-05-01T14:27:00Z</time></trkpt><trkpt lat="42.305988669175626" lon="14.090375887691144"><ele>96.0</ele><time>2026-05-01T14:27:01Z</time></trkpt><trkpt lat="42.30606891465285" lon="14.090304679864254"><ele>96.0</ele><time>2026-05-01T14:27:02Z</time></trkpt><trkpt lat="42.30615753123223" lon="14.090232758127835"><ele>96.0</ele><time>2026-05-01T14:27:03Z</time></trkpt><trkpt lat="42.30624708791584" lon="14.0901451539831"><ele>96.0</ele><time>2026-05-01T14:27:04Z</time></trkpt><trkpt lat="42.30632815216665" lon="14.09003096078007"><ele>96.0</ele><time>2026-05-01T14:27:05Z</time></trkpt><trkpt lat="42.30639641242918" lon="14.089887557346954"><ele>95.4</ele><time>2026-05-01T14:27:06Z</time></trkpt><trkpt lat="42.30645334568427" lon="14.08974076964965"><ele>94.8</ele><time>2026-05-01T14:27:07Z</time></trkpt><trkpt lat="42.30650145680268" lon="14.089603420330274"><ele>94.2</ele><time>2026-05-01T14:27:08Z</time></trkpt><trkpt lat="42.306550538241645" lon="14.089494197176819"><ele>93.60000000000001</ele><time>2026-05-01T14:27:09Z</time></trkpt><trkpt lat="42.306608204739184" lon="14.089415423642457"><ele>93.0</ele><time>2026-05-01T14:27:10Z</time></trkpt><trkpt lat="42.30667316549907" lon="14.089366092555792"><ele>93.0</ele><time>2026-05-01T14:27:11Z</time></trkpt><trkpt lat="42.306748794464255" lon="14.089351223307135"><ele>93.0</ele><time>2026-05-01T14:27:12Z</time></trkpt><trkpt lat="42.30682670816568" lon="14.089391134812015"><ele>93.0</ele><time>2026-05-01T14:27:13Z</time></trkpt><trkpt lat="42.306908086344606" lon="14.089429291872564"><ele>93.0</ele><time>2026-05-01T14:27:14Z</time></trkpt><trkpt lat="42.30699580953071" lon="14.089477397792399"><ele>93.0</ele><time>2026-05-01T14:27:15Z</time></trkpt><trkpt lat="42.30708481434945" lon="14.08952823361428"><ele>93.0</ele><time>2026-05-01T14:27:16Z</time></trkpt><trkpt lat="42.3071703035239" lon="14.089571782696694"><ele>92.80000000000001</ele><time>2026-05-01T14:27:17Z</time></trkpt><trkpt lat="42.307251387370975" lon="14.089609076796638"><ele>92.6</ele><time>2026-05-01T14:27:18Z</time></trkpt><trkpt lat="42.307329643199964" lon="14.0896133004848"><ele>92.4</ele><time>2026-05-01T14:27:19Z</time></trkpt><trkpt lat="42.30744195544759" lon="14.0896063759725"><ele>92.19999999999999</ele><time>2026-05-01T14:27:21Z</time></trkpt><trkpt lat="42.30753864875307" lon="14.089563162194409"><ele>92.0</ele><time>2026-05-01T14:27:23Z</time></trkpt><trkpt lat="42.30765088383943" lon="14.089700750928884"><ele>92.0</ele><time>2026-05-01T14:27:24Z</time></trkpt><trkpt lat="42.307732033490986" lon="14.089733446110042"><ele>92.0</ele><time>2026-05-01T14:27:25Z</time></trkpt><trkpt lat="42.30781396948927" lon="14.089759272211971"><ele>92.0</ele><time>2026-05-01T14:27:26Z</time></trkpt><trkpt lat="42.30788931545696" lon="14.089776445977817"><ele>92.0</ele><time>2026-05-01T14:27:27Z</time></trkpt><trkpt lat="42.30795821842652" lon="14.089822520251737"><ele>92.0</ele><time>2026-05-01T14:27:28Z</time></trkpt><trkpt lat="42.30804226855113" lon="14.08985060496195"><ele>92.0</ele><time>2026-05-01T14:27:29Z</time></trkpt><trkpt lat="42.30813768488706" lon="14.089881840531751"><ele>91.0</ele><time>2026-05-01T14:27:30Z</time></trkpt><trkpt lat="42.30822860122127" lon="14.089908602142854"><ele>90.0</ele><time>2026-05-01T14:27:31Z</time></trkpt><trkpt lat="42.30833106964312" lon="14.089938764240621"><ele>89.0</ele><time>2026-05-01T14:27:32Z</time></trkpt><trkpt lat="42.30842816555741" lon="14.089969483941116"><ele>88.0</ele><time>2026-05-01T14:27:33Z</time></trkpt><trkpt lat="42.30853211956525" lon="14.090002747340906"><ele>87.0</ele><time>2026-05-01T14:27:34Z</time></trkpt><trkpt lat="42.30863126601146" lon="14.090013808294511"><ele>86.0</ele><time>2026-05-01T14:27:35Z</time></trkpt><trkpt lat="42.308723785246116" lon="14.090045907285347"><ele>85.0</ele><time>2026-05-01T14:27:36Z</time></trkpt><trkpt lat="42.308796013994666" lon="14.09007430090854"><ele>84.0</ele><time>2026-05-01T14:27:37Z</time></trkpt><trkpt lat="42.30890094684054" lon="14.090114046693664"><ele>83.0</ele><time>2026-05-01T14:27:39Z</time></trkpt><trkpt lat="42.30897730982004" lon="14.090176001928612"><ele>82.0</ele><time>2026-05-01T14:27:46Z</time></trkpt><trkpt lat="42.309050304385984" lon="14.09023573158596"><ele>81.33333333333333</ele><time>2026-05-01T14:27:49Z</time></trkpt><trkpt lat="42.30911635893903" lon="14.090281499563881"><ele>80.66666666666666</ele><time>2026-05-01T14:27:51Z</time></trkpt><trkpt lat="42.309188860407666" lon="14.090318247974633"><ele>80.0</ele><time>2026-05-01T14:27:53Z</time></trkpt><trkpt lat="42.30924234548378" lon="14.090394024708946"><ele>79.33333333333333</ele><time>2026-05-01T14:27:55Z</time></trkpt><trkpt lat="42.309236446949946" lon="14.090502417823716"><ele>78.66666666666667</ele><time>2026-05-01T14:27:56Z</time></trkpt><trkpt lat="42.3092580803985" lon="14.090602903234569"><ele>78.0</ele><time>2026-05-01T14:27:58Z</time></trkpt><trkpt lat="42.309273563648496" lon="14.090712657540168"><ele>77.6</ele><time>2026-05-01T14:28:00Z</time></trkpt><trkpt lat="42.30930444438481" lon="14.090825257720436"><ele>77.19999999999999</ele><time>2026-05-01T14:28:02Z</time></trkpt><trkpt lat="42.30937359816002" lon="14.090918973356548"><ele>76.8</ele><time>2026-05-01T14:28:04Z</time></trkpt><trkpt lat="42.309470884964846" lon="14.090993255580083"><ele>76.39999999999999</ele><time>2026-05-01T14:28:06Z</time></trkpt><trkpt lat="42.309553893013366" lon="14.091071506264944"><ele>76.0</ele><time>2026-05-01T14:28:07.999Z</time></trkpt><trkpt lat="42.309619297407174" lon="14.0911681456842"><ele>76.0</ele><time>2026-05-01T14:28:09.999Z</time></trkpt><trkpt lat="42.30969881484779" lon="14.091277477714875"><ele>76.0</ele><time>2026-05-01T14:28:11.999Z</time></trkpt><trkpt lat="42.309750396593536" lon="14.091339726784375"><ele>76.0</ele><time>2026-05-01T14:28:12.999Z</time></trkpt><trkpt lat="42.309804272971654" lon="14.091400706579412"><ele>76.0</ele><time>2026-05-01T14:28:13.999Z</time></trkpt><trkpt lat="42.30985459604272" lon="14.09146524800625"><ele>76.0</ele><time>2026-05-01T14:28:14.999Z</time></trkpt><trkpt lat="42.309894658272306" lon="14.091531623322783"><ele>76.0</ele><time>2026-05-01T14:28:15.999Z</time></trkpt><trkpt lat="42.30993444988862" lon="14.091606751486966"><ele>77.66666666666666</ele><time>2026-05-01T14:28:16.999Z</time></trkpt><trkpt lat="42.30997995928998" lon="14.091690074861289"><ele>79.33333333333333</ele><time>2026-05-01T14:28:17.999Z</time></trkpt><trkpt lat="42.310030600314434" lon="14.091782953668023"><ele>81.0</ele><time>2026-05-01T14:28:18.999Z</time></trkpt><trkpt lat="42.31008164221278" lon="14.091876262519545"><ele>82.66666666666667</ele><time>2026-05-01T14:28:19.999Z</time></trkpt><trkpt lat="42.31012674551254" lon="14.091955069940433"><ele>84.33333333333334</ele><time>2026-05-01T14:28:20.999Z</time></trkpt><trkpt lat="42.31017467672355" lon="14.092030167763491"><ele>86.0</ele><time>2026-05-01T14:28:21.999Z</time></trkpt><trkpt lat="42.310223308283646" lon="14.092101178358982"><ele>86.0</ele><time>2026-05-01T14:28:22.999Z</time></trkpt><trkpt lat="42.310274590334025" lon="14.092171058065023"><ele>86.0</ele><time>2026-05-01T14:28:23.999Z</time></trkpt><trkpt lat="42.310327415116035" lon="14.092243964349683"><ele>86.0</ele><time>2026-05-01T14:28:25Z</time></trkpt><trkpt lat="42.31037257889419" lon="14.092313042282676"><ele>86.0</ele><time>2026-05-01T14:28:26Z</time></trkpt><trkpt lat="42.31040938014056" lon="14.092384069191075"><ele>86.0</ele><time>2026-05-01T14:28:27Z</time></trkpt><trkpt lat="42.310486847659334" lon="14.092528113551817"><ele>86.0</ele><time>2026-05-01T14:28:29Z</time></trkpt><trkpt lat="42.310530380438074" lon="14.092602994520204"><ele>87.0</ele><time>2026-05-01T14:28:30Z</time></trkpt><trkpt lat="42.31057228903632" lon="14.092670604767758"><ele>88.0</ele><time>2026-05-01T14:28:31Z</time></trkpt><trkpt lat="42.310654697519446" lon="14.092798829179067"><ele>89.0</ele><time>2026-05-01T14:28:33Z</time></trkpt><trkpt lat="42.310702642768014" lon="14.092877333880898"><ele>90.0</ele><time>2026-05-01T14:28:34Z</time></trkpt><trkpt lat="42.310750568660005" lon="14.092954869734319"><ele>91.0</ele><time>2026-05-01T14:28:35Z</time></trkpt><trkpt lat="42.31079759211206" lon="14.093028232413582"><ele>92.0</ele><time>2026-05-01T14:28:36Z</time></trkpt><trkpt lat="42.310848443544245" lon="14.093109199487097"><ele>92.0</ele><time>2026-05-01T14:28:37Z</time></trkpt><trkpt lat="42.31089227020599" lon="14.093171831007258"><ele>92.0</ele><time>2026-05-01T14:28:38Z</time></trkpt><trkpt lat="42.310947501921504" lon="14.09325078691911"><ele>92.0</ele><time>2026-05-01T14:28:39Z</time></trkpt><trkpt lat="42.310996953014985" lon="14.09332338154164"><ele>92.0</ele><time>2026-05-01T14:28:40Z</time></trkpt><trkpt lat="42.31104261246254" lon="14.09339150591749"><ele>92.0</ele><time>2026-05-01T14:28:41Z</time></trkpt><trkpt lat="42.311090093677585" lon="14.093448119779609"><ele>92.0</ele><time>2026-05-01T14:28:42Z</time></trkpt><trkpt lat="42.31115090745877" lon="14.093549691971226"><ele>92.0</ele><time>2026-05-01T14:28:44Z</time></trkpt><trkpt lat="42.31120646563347" lon="14.093666054473882"><ele>92.66666666666667</ele><time>2026-05-01T14:28:46Z</time></trkpt><trkpt lat="42.31125632745494" lon="14.093729353554677"><ele>93.33333333333334</ele><time>2026-05-01T14:28:52Z</time></trkpt><trkpt lat="42.311335318416546" lon="14.093847193519219"><ele>94.0</ele><time>2026-05-01T14:28:54Z</time></trkpt><trkpt lat="42.311398031090505" lon="14.093913115449316"><ele>94.66666666666667</ele><time>2026-05-01T14:28:56Z</time></trkpt><trkpt lat="42.311446978432976" lon="14.09383017903215"><ele>95.33333333333333</ele><time>2026-05-01T14:28:59Z</time></trkpt><trkpt lat="42.311489462205834" lon="14.093712917155461"><ele>96.0</ele><time>2026-05-01T14:29:01Z</time></trkpt><trkpt lat="42.311552429981326" lon="14.093579109019062"><ele>96.0</ele><time>2026-05-01T14:29:03Z</time></trkpt><trkpt lat="42.31161753077218" lon="14.09342902873557"><ele>96.0</ele><time>2026-05-01T14:29:05Z</time></trkpt><trkpt lat="42.311659452371764" lon="14.093345539531418"><ele>96.0</ele><time>2026-05-01T14:29:06Z</time></trkpt><trkpt lat="42.311710721003124" lon="14.09325866423055"><ele>96.0</ele><time>2026-05-01T14:29:07Z</time></trkpt><trkpt lat="42.31176627719744" lon="14.093172051643915"><ele>96.0</ele><time>2026-05-01T14:29:08Z</time></trkpt><trkpt lat="42.311824944550594" lon="14.093076671087713"><ele>95.19999999999999</ele><time>2026-05-01T14:29:09Z</time></trkpt><trkpt lat="42.31188061729085" lon="14.092982385303303"><ele>94.39999999999999</ele><time>2026-05-01T14:29:10Z</time></trkpt><trkpt lat="42.311937370413" lon="14.092879057502605"><ele>93.6</ele><time>2026-05-01T14:29:11Z</time></trkpt><trkpt lat="42.312005602874066" lon="14.092790328934708"><ele>92.8</ele><time>2026-05-01T14:29:12Z</time></trkpt><trkpt lat="42.312050145492236" lon="14.09267476799879"><ele>92.0</ele><time>2026-05-01T14:29:13Z</time></trkpt><trkpt lat="42.31210274376316" lon="14.0925758391114"><ele>92.0</ele><time>2026-05-01T14:29:14Z</time></trkpt><trkpt lat="42.31215224437122" lon="14.092470421692726"><ele>92.0</ele><time>2026-05-01T14:29:15Z</time></trkpt><trkpt lat="42.31220304402417" lon="14.092362461408024"><ele>92.0</ele><time>2026-05-01T14:29:16Z</time></trkpt><trkpt lat="42.3122626490606" lon="14.092264182994551"><ele>92.0</ele><time>2026-05-01T14:29:17Z</time></trkpt><trkpt lat="42.31233286768375" lon="14.092191573523818"><ele>92.0</ele><time>2026-05-01T14:29:18Z</time></trkpt><trkpt lat="42.31238067787441" lon="14.092126462231587"><ele>92.0</ele><time>2026-05-01T14:29:19Z</time></trkpt><trkpt lat="42.31247045966221" lon="14.092017936597314"><ele>92.33333333333334</ele><time>2026-05-01T14:29:21Z</time></trkpt><trkpt lat="42.312516119995564" lon="14.091949132731905"><ele>92.66666666666667</ele><time>2026-05-01T14:29:22Z</time></trkpt><trkpt lat="42.3125827849368" lon="14.091895981317405"><ele>93.0</ele><time>2026-05-01T14:29:23Z</time></trkpt><trkpt lat="42.312657477434115" lon="14.091832994399859"><ele>93.33333333333333</ele><time>2026-05-01T14:29:24Z</time></trkpt><trkpt lat="42.312738789479546" lon="14.091768251511082"><ele>93.66666666666666</ele><time>2026-05-01T14:29:25Z</time></trkpt><trkpt lat="42.31281869209532" lon="14.091703118044986"><ele>94.0</ele><time>2026-05-01T14:29:26Z</time></trkpt><trkpt lat="42.31289386037764" lon="14.091636142240041"><ele>94.0</ele><time>2026-05-01T14:29:27Z</time></trkpt><trkpt lat="42.312961134922546" lon="14.091555826133106"><ele>94.0</ele><time>2026-05-01T14:29:28Z</time></trkpt><trkpt lat="42.313009855474306" lon="14.091461113644177"><ele>94.0</ele><time>2026-05-01T14:29:29Z</time></trkpt><trkpt lat="42.313046733979455" lon="14.09134506713347"><ele>94.0</ele><time>2026-05-01T14:29:30Z</time></trkpt><trkpt lat="42.31306406095204" lon="14.091215602707916"><ele>94.0</ele><time>2026-05-01T14:29:31Z</time></trkpt><trkpt lat="42.313080869634504" lon="14.091076149611226"><ele>94.0</ele><time>2026-05-01T14:29:32Z</time></trkpt><trkpt lat="42.31310809543896" lon="14.090926102652404"><ele>94.0</ele><time>2026-05-01T14:29:33Z</time></trkpt><trkpt lat="42.313134410436" lon="14.090773144021954"><ele>94.0</ele><time>2026-05-01T14:29:34Z</time></trkpt><trkpt lat="42.31315523247552" lon="14.09063591279333"><ele>94.0</ele><time>2026-05-01T14:29:35Z</time></trkpt><trkpt lat="42.313178060943436" lon="14.090498651681145"><ele>94.0</ele><time>2026-05-01T14:29:36Z</time></trkpt><trkpt lat="42.31320061373201" lon="14.090362845481973"><ele>94.0</ele><time>2026-05-01T14:29:37Z</time></trkpt><trkpt lat="42.31321926736291" lon="14.090225594688725"><ele>94.0</ele><time>2026-05-01T14:29:38Z</time></trkpt><trkpt lat="42.31323412120555" lon="14.090092216327832"><ele>94.0</ele><time>2026-05-01T14:29:39Z</time></trkpt><trkpt lat="42.31324948559687" lon="14.089957557632802"><ele>94.0</ele><time>2026-05-01T14:29:40Z</time></trkpt><trkpt lat="42.313273106512064" lon="14.089824376678601"><ele>94.0</ele><time>2026-05-01T14:29:41Z</time></trkpt><trkpt lat="42.313289310646745" lon="14.08968873993701"><ele>93.6</ele><time>2026-05-01T14:29:42Z</time></trkpt><trkpt lat="42.31331799710909" lon="14.089550171215516"><ele>93.2</ele><time>2026-05-01T14:29:43Z</time></trkpt><trkpt lat="42.31336734847945" lon="14.089420400290027"><ele>92.8</ele><time>2026-05-01T14:29:44Z</time></trkpt><trkpt lat="42.31340695544665" lon="14.089290538309463"><ele>92.39999999999999</ele><time>2026-05-01T14:29:45Z</time></trkpt><trkpt lat="42.31344489385637" lon="14.089168243004073"><ele>92.0</ele><time>2026-05-01T14:29:46Z</time></trkpt><trkpt lat="42.31347070103281" lon="14.089040678920469"><ele>91.66666666666667</ele><time>2026-05-01T14:29:47Z</time></trkpt><trkpt lat="42.31350626291842" lon="14.088927707247905"><ele>91.33333333333334</ele><time>2026-05-01T14:29:48Z</time></trkpt><trkpt lat="42.3135421359205" lon="14.088817073410299"><ele>91.0</ele><time>2026-05-01T14:29:49Z</time></trkpt><trkpt lat="42.31357609826829" lon="14.088712907273914"><ele>90.66666666666667</ele><time>2026-05-01T14:29:50Z</time></trkpt><trkpt lat="42.31361336834697" lon="14.088611221791908"><ele>90.33333333333333</ele><time>2026-05-01T14:29:51Z</time></trkpt><trkpt lat="42.3136660603885" lon="14.088506699716493"><ele>90.0</ele><time>2026-05-01T14:29:52Z</time></trkpt><trkpt lat="42.313726462392545" lon="14.088401106819495"><ele>90.0</ele><time>2026-05-01T14:29:53Z</time></trkpt><trkpt lat="42.313793790510914" lon="14.088297130810687"><ele>90.0</ele><time>2026-05-01T14:29:54Z</time></trkpt><trkpt lat="42.31386757162528" lon="14.08820115921453"><ele>90.0</ele><time>2026-05-01T14:29:55Z</time></trkpt><trkpt lat="42.31394508583142" lon="14.088100365743516"><ele>90.0</ele><time>2026-05-01T14:29:56Z</time></trkpt><trkpt lat="42.31402072211879" lon="14.08800087431581"><ele>90.0</ele><time>2026-05-01T14:29:57Z</time></trkpt><trkpt lat="42.31409630546937" lon="14.087902965150292"><ele>88.5</ele><time>2026-05-01T14:29:58Z</time></trkpt><trkpt lat="42.3141695892238" lon="14.087805889284732"><ele>87.0</ele><time>2026-05-01T14:29:59Z</time></trkpt><trkpt lat="42.314245751237095" lon="14.087700715530758"><ele>85.5</ele><time>2026-05-01T14:30:00Z</time></trkpt><trkpt lat="42.314333644909404" lon="14.087583982437197"><ele>84.0</ele><time>2026-05-01T14:30:01Z</time></trkpt><trkpt lat="42.31442779060189" lon="14.087463259483307"><ele>83.6</ele><time>2026-05-01T14:30:02Z</time></trkpt><trkpt lat="42.314517423422" lon="14.08735428269544"><ele>83.2</ele><time>2026-05-01T14:30:03Z</time></trkpt><trkpt lat="42.314596984573214" lon="14.08725289759372"><ele>82.8</ele><time>2026-05-01T14:30:04Z</time></trkpt><trkpt lat="42.31468175652198" lon="14.087182927213714"><ele>82.39999999999999</ele><time>2026-05-01T14:30:05Z</time></trkpt><trkpt lat="42.31474284216562" lon="14.087092960466101"><ele>82.0</ele><time>2026-05-01T14:30:06Z</time></trkpt><trkpt lat="42.31481816062682" lon="14.087022002767512"><ele>81.39999999999999</ele><time>2026-05-01T14:30:07Z</time></trkpt><trkpt lat="42.31490125327233" lon="14.086950109647331"><ele>80.8</ele><time>2026-05-01T14:30:08Z</time></trkpt><trkpt lat="42.31498583138375" lon="14.086877782497192"><ele>80.2</ele><time>2026-05-01T14:30:09Z</time></trkpt><trkpt lat="42.31506443217875" lon="14.08681399117811"><ele>79.6</ele><time>2026-05-01T14:30:10Z</time></trkpt><trkpt lat="42.31513847182632" lon="14.086764402112262"><ele>79.0</ele><time>2026-05-01T14:30:11Z</time></trkpt><trkpt lat="42.31521250603094" lon="14.086732779057293"><ele>79.0</ele><time>2026-05-01T14:30:12Z</time></trkpt><trkpt lat="42.315298279500894" lon="14.086709328964544"><ele>79.0</ele><time>2026-05-01T14:30:13Z</time></trkpt><trkpt lat="42.31538890472138" lon="14.086701819963945"><ele>79.0</ele><time>2026-05-01T14:30:14Z</time></trkpt><trkpt lat="42.315483797281345" lon="14.086729744718557"><ele>79.0</ele><time>2026-05-01T14:30:15Z</time></trkpt><trkpt lat="42.31558505169523" lon="14.086729118490668"><ele>79.0</ele><time>2026-05-01T14:30:16Z</time></trkpt><trkpt lat="42.31569090984459" lon="14.086754586966888"><ele>79.2</ele><time>2026-05-01T14:30:17Z</time></trkpt><trkpt lat="42.315802521464406" lon="14.086775818963208"><ele>79.4</ele><time>2026-05-01T14:30:18Z</time></trkpt><trkpt lat="42.315914634662334" lon="14.08678645838232"><ele>79.6</ele><time>2026-05-01T14:30:19Z</time></trkpt><trkpt lat="42.31602577083659" lon="14.086792630247892"><ele>79.8</ele><time>2026-05-01T14:30:20Z</time></trkpt><trkpt lat="42.31612347507388" lon="14.086805945375431"><ele>80.0</ele><time>2026-05-01T14:30:21Z</time></trkpt><trkpt lat="42.31620281903703" lon="14.086817068690959"><ele>80.0</ele><time>2026-05-01T14:30:22Z</time></trkpt><trkpt lat="42.31628835649843" lon="14.086842497941193"><ele>80.0</ele><time>2026-05-01T14:30:23Z</time></trkpt><trkpt lat="42.31637126849542" lon="14.08687549477695"><ele>80.0</ele><time>2026-05-01T14:30:24Z</time></trkpt><trkpt lat="42.31646144442439" lon="14.086922454212125"><ele>80.0</ele><time>2026-05-01T14:30:25Z</time></trkpt><trkpt lat="42.316551202009705" lon="14.086975799651436"><ele>80.0</ele><time>2026-05-01T14:30:26Z</time></trkpt><trkpt lat="42.31663986494152" lon="14.087034103304875"><ele>79.4</ele><time>2026-05-01T14:30:27Z</time></trkpt><trkpt lat="42.31672601522672" lon="14.087093374735003"><ele>78.8</ele><time>2026-05-01T14:30:28Z</time></trkpt><trkpt lat="42.31681538802002" lon="14.087147755833245"><ele>78.2</ele><time>2026-05-01T14:30:29Z</time></trkpt><trkpt lat="42.316899328270615" lon="14.087197748132418"><ele>77.6</ele><time>2026-05-01T14:30:29.999Z</time></trkpt><trkpt lat="42.31697576650502" lon="14.087244400188064"><ele>77.0</ele><time>2026-05-01T14:30:30.999Z</time></trkpt><trkpt lat="42.31705131883831" lon="14.087284030680733"><ele>77.0</ele><time>2026-05-01T14:30:31.999Z</time></trkpt><trkpt lat="42.31713270175625" lon="14.087329889594038"><ele>77.0</ele><time>2026-05-01T14:30:32.999Z</time></trkpt><trkpt lat="42.31721320266753" lon="14.087374585173013"><ele>77.0</ele><time>2026-05-01T14:30:33.999Z</time></trkpt><trkpt lat="42.31728443642243" lon="14.08741552019018"><ele>77.0</ele><time>2026-05-01T14:30:34.999Z</time></trkpt><trkpt lat="42.31734341039095" lon="14.087451412579574"><ele>77.0</ele><time>2026-05-01T14:30:35.999Z</time></trkpt><trkpt lat="42.31744401597203" lon="14.087510711141148"><ele>77.0</ele><time>2026-05-01T14:30:37.999Z</time></trkpt><trkpt lat="42.3175030517578" lon="14.087552011608983"><ele>75.33333333333334</ele><time>2026-05-01T14:30:38.999Z</time></trkpt><trkpt lat="42.31757130380061" lon="14.087603410564054"><ele>73.66666666666667</ele><time>2026-05-01T14:30:39.999Z</time></trkpt><trkpt lat="42.31764055356448" lon="14.087657350605916"><ele>72.0</ele><time>2026-05-01T14:30:41Z</time></trkpt><trkpt lat="42.3176950022555" lon="14.087733790418058"><ele>70.33333333333333</ele><time>2026-05-01T14:30:42Z</time></trkpt><trkpt lat="42.31777148966052" lon="14.087787893045519"><ele>68.66666666666666</ele><time>2026-05-01T14:30:43Z</time></trkpt><trkpt lat="42.31783670406918" lon="14.087861442176896"><ele>67.0</ele><time>2026-05-01T14:30:44Z</time></trkpt><trkpt lat="42.31789887108175" lon="14.087936769030387"><ele>67.0</ele><time>2026-05-01T14:30:45Z</time></trkpt><trkpt lat="42.317943905806" lon="14.08802831444912"><ele>67.0</ele><time>2026-05-01T14:30:46Z</time></trkpt><trkpt lat="42.31798492816073" lon="14.088093058687148"><ele>67.0</ele><time>2026-05-01T14:30:47Z</time></trkpt><trkpt lat="42.31808639820465" lon="14.088201029988722"><ele>67.0</ele><time>2026-05-01T14:30:49Z</time></trkpt><trkpt lat="42.31814857984526" lon="14.088252731078853"><ele>67.0</ele><time>2026-05-01T14:30:50Z</time></trkpt><trkpt lat="42.31822211802967" lon="14.088290812458737"><ele>67.0</ele><time>2026-05-01T14:30:51Z</time></trkpt><trkpt lat="42.31830359082518" lon="14.088321867294551"><ele>66.5</ele><time>2026-05-01T14:30:52Z</time></trkpt><trkpt lat="42.31839222411544" lon="14.08832383603696"><ele>66.0</ele><time>2026-05-01T14:30:53Z</time></trkpt><trkpt lat="42.31848107773486" lon="14.08831703422776"><ele>65.5</ele><time>2026-05-01T14:30:54Z</time></trkpt><trkpt lat="42.318560277895735" lon="14.088321358518375"><ele>65.0</ele><time>2026-05-01T14:30:55Z</time></trkpt><trkpt lat="42.31864357623269" lon="14.088341012478738"><ele>64.5</ele><time>2026-05-01T14:30:56Z</time></trkpt><trkpt lat="42.3187279150881" lon="14.088379985855081"><ele>64.0</ele><time>2026-05-01T14:30:57Z</time></trkpt><trkpt lat="42.3188207755103" lon="14.088421065207292"><ele>63.6</ele><time>2026-05-01T14:30:58Z</time></trkpt><trkpt lat="42.31891707696948" lon="14.0884647976791"><ele>63.2</ele><time>2026-05-01T14:30:59Z</time></trkpt><trkpt lat="42.31901331239298" lon="14.088532745667626"><ele>62.800000000000004</ele><time>2026-05-01T14:31:00Z</time></trkpt><trkpt lat="42.319112808904435" lon="14.088566891109073"><ele>62.400000000000006</ele><time>2026-05-01T14:31:01Z</time></trkpt><trkpt lat="42.31920879828945" lon="14.088591105522335"><ele>62.0</ele><time>2026-05-01T14:31:02Z</time></trkpt><trkpt lat="42.31929364703308" lon="14.088608958998883"><ele>62.00000000000001</ele><time>2026-05-01T14:31:03Z</time></trkpt><trkpt lat="42.31937017090429" lon="14.088615874145923"><ele>62.0</ele><time>2026-05-01T14:31:04Z</time></trkpt><trkpt lat="42.3194717537254" lon="14.088658881253203"><ele>62.0</ele><time>2026-05-01T14:31:06Z</time></trkpt><trkpt lat="42.31952665458163" lon="14.088611167159918"><ele>62.0</ele><time>2026-05-01T14:31:08Z</time></trkpt><trkpt lat="42.31960253751708" lon="14.088500962718948"><ele>62.00000000000001</ele><time>2026-05-01T14:31:10Z</time></trkpt><trkpt lat="42.31963980362863" lon="14.088432131855667"><ele>62.0</ele><time>2026-05-01T14:31:11Z</time></trkpt><trkpt lat="42.31967955169573" lon="14.088358716794982"><ele>62.00000000000001</ele><time>2026-05-01T14:31:12Z</time></trkpt><trkpt lat="42.31971960849473" lon="14.088284731499494"><ele>62.0</ele><time>2026-05-01T14:31:13Z</time></trkpt><trkpt lat="42.31976232459975" lon="14.088204462775979"><ele>62.0</ele><time>2026-05-01T14:31:14Z</time></trkpt><trkpt lat="42.31980730451889" lon="14.088118167967774"><ele>62.0</ele><time>2026-05-01T14:31:15Z</time></trkpt><trkpt lat="42.31985657361745" lon="14.08802364429033"><ele>62.00000000000001</ele><time>2026-05-01T14:31:16Z</time></trkpt><trkpt lat="42.319907025095844" lon="14.087926852194"><ele>62.0</ele><time>2026-05-01T14:31:17Z</time></trkpt><trkpt lat="42.319957461279394" lon="14.087830082936641"><ele>61.833333333333336</ele><time>2026-05-01T14:31:18Z</time></trkpt><trkpt lat="42.32000844312914" lon="14.087732264753564"><ele>61.66666666666667</ele><time>2026-05-01T14:31:19Z</time></trkpt><trkpt lat="42.320056113849155" lon="14.08764209765141"><ele>61.5</ele><time>2026-05-01T14:31:20Z</time></trkpt><trkpt lat="42.3201050570465" lon="14.087561514662417"><ele>61.33333333333333</ele><time>2026-05-01T14:31:21Z</time></trkpt><trkpt lat="42.3201628349973" lon="14.087492060755988"><ele>61.166666666666664</ele><time>2026-05-01T14:31:22Z</time></trkpt><trkpt lat="42.32022269435033" lon="14.087441638683496"><ele>61.0</ele><time>2026-05-01T14:31:23Z</time></trkpt><trkpt lat="42.32030490569396" lon="14.087367989169719"><ele>61.0</ele><time>2026-05-01T14:31:25Z</time></trkpt><trkpt lat="42.320391935647415" lon="14.087346151816446"><ele>60.99999999999999</ele><time>2026-05-01T14:31:29Z</time></trkpt><trkpt lat="42.320436555941676" lon="14.087522033128003"><ele>60.99999999999999</ele><time>2026-05-01T14:31:30Z</time></trkpt><trkpt lat="42.320484415286025" lon="14.087628621107438"><ele>61.0</ele><time>2026-05-01T14:31:31Z</time></trkpt><trkpt lat="42.320545221006384" lon="14.087751715844053"><ele>61.0</ele><time>2026-05-01T14:31:32Z</time></trkpt><trkpt lat="42.32060824949158" lon="14.087876822734382"><ele>60.75</ele><time>2026-05-01T14:31:33Z</time></trkpt><trkpt lat="42.32066791515207" lon="14.087999668615774"><ele>60.5</ele><time>2026-05-01T14:31:34Z</time></trkpt><trkpt lat="42.3207308981048" lon="14.088131259144607"><ele>60.25</ele><time>2026-05-01T14:31:35Z</time></trkpt><trkpt lat="42.32079459442412" lon="14.088265254232153"><ele>60.0</ele><time>2026-05-01T14:31:36Z</time></trkpt><trkpt lat="42.32086028286923" lon="14.088400074894151"><ele>60.0</ele><time>2026-05-01T14:31:37Z</time></trkpt><trkpt lat="42.32092485394335" lon="14.088534070476815"><ele>60.0</ele><time>2026-05-01T14:31:38Z</time></trkpt><trkpt lat="42.320986785952364" lon="14.088663946789879"><ele>60.0</ele><time>2026-05-01T14:31:39Z</time></trkpt><trkpt lat="42.32104563670788" lon="14.088786566962083"><ele>60.0</ele><time>2026-05-01T14:31:40Z</time></trkpt><trkpt lat="42.3211030079202" lon="14.088901403490404"><ele>60.0</ele><time>2026-05-01T14:31:41Z</time></trkpt><trkpt lat="42.32116362724352" lon="14.089015747686998"><ele>59.75</ele><time>2026-05-01T14:31:42Z</time></trkpt><trkpt lat="42.32122430104902" lon="14.089136169339811"><ele>59.5</ele><time>2026-05-01T14:31:43Z</time></trkpt><trkpt lat="42.32128450240596" lon="14.089262130268686"><ele>59.25</ele><time>2026-05-01T14:31:44Z</time></trkpt><trkpt lat="42.321346685209484" lon="14.0893945309372"><ele>59.0</ele><time>2026-05-01T14:31:45Z</time></trkpt><trkpt lat="42.32141005045486" lon="14.089528310679517"><ele>59.0</ele><time>2026-05-01T14:31:46Z</time></trkpt><trkpt lat="42.32147135164282" lon="14.089657414767261"><ele>59.0</ele><time>2026-05-01T14:31:47Z</time></trkpt><trkpt lat="42.32153199160957" lon="14.089790800585472"><ele>59.0</ele><time>2026-05-01T14:31:48Z</time></trkpt><trkpt lat="42.32159636280922" lon="14.089927240079325"><ele>59.0</ele><time>2026-05-01T14:31:49Z</time></trkpt><trkpt lat="42.32166166434161" lon="14.090064214604421"><ele>58.75</ele><time>2026-05-01T14:31:50Z</time></trkpt><trkpt lat="42.321727278637674" lon="14.090198416772099"><ele>58.5</ele><time>2026-05-01T14:31:51Z</time></trkpt><trkpt lat="42.32179360051852" lon="14.090335519131614"><ele>58.25</ele><time>2026-05-01T14:31:52Z</time></trkpt><trkpt lat="42.321859652821345" lon="14.090475552257468"><ele>58.0</ele><time>2026-05-01T14:31:53Z</time></trkpt><trkpt lat="42.32192460390793" lon="14.09061782885966"><ele>58.0</ele><time>2026-05-01T14:31:54Z</time></trkpt><trkpt lat="42.32199058423763" lon="14.090756997184496"><ele>58.0</ele><time>2026-05-01T14:31:55Z</time></trkpt><trkpt lat="42.3220581083099" lon="14.090895594490348"><ele>58.0</ele><time>2026-05-01T14:31:56Z</time></trkpt><trkpt lat="42.32212403865908" lon="14.091034157972356"><ele>58.0</ele><time>2026-05-01T14:31:57Z</time></trkpt><trkpt lat="42.32219041319039" lon="14.091170947961352"><ele>58.25</ele><time>2026-05-01T14:31:58Z</time></trkpt><trkpt lat="42.322256699598846" lon="14.091307565222598"><ele>58.5</ele><time>2026-05-01T14:31:59Z</time></trkpt><trkpt lat="42.32232295252115" lon="14.091443592451535"><ele>58.75</ele><time>2026-05-01T14:32:00Z</time></trkpt><trkpt lat="42.322390192313826" lon="14.091578881292838"><ele>59.0</ele><time>2026-05-01T14:32:01Z</time></trkpt><trkpt lat="42.32245574237898" lon="14.09171591809651"><ele>59.0</ele><time>2026-05-01T14:32:02Z</time></trkpt><trkpt lat="42.32251895681425" lon="14.09185576360618"><ele>59.0</ele><time>2026-05-01T14:32:03Z</time></trkpt><trkpt lat="42.322583402623415" lon="14.091995195627383"><ele>59.0</ele><time>2026-05-01T14:32:04Z</time></trkpt><trkpt lat="42.32265089877894" lon="14.092133174039331"><ele>59.0</ele><time>2026-05-01T14:32:05Z</time></trkpt><trkpt lat="42.322717960926646" lon="14.092272838127178"><ele>59.0</ele><time>2026-05-01T14:32:06Z</time></trkpt><trkpt lat="42.32278493545286" lon="14.092415084651206"><ele>59.0</ele><time>2026-05-01T14:32:07Z</time></trkpt><trkpt lat="42.32285358483725" lon="14.09255725164379"><ele>59.0</ele><time>2026-05-01T14:32:08Z</time></trkpt><trkpt lat="42.322923671164475" lon="14.092698440205561"><ele>59.0</ele><time>2026-05-01T14:32:09Z</time></trkpt><trkpt lat="42.322994799013436" lon="14.092840371918424"><ele>58.75</ele><time>2026-05-01T14:32:10Z</time></trkpt><trkpt lat="42.32306382465504" lon="14.092982958139235"><ele>58.5</ele><time>2026-05-01T14:32:11Z</time></trkpt><trkpt lat="42.32313024304085" lon="14.093127429991647"><ele>58.25</ele><time>2026-05-01T14:32:12Z</time></trkpt><trkpt lat="42.32319585005635" lon="14.093269825052879"><ele>58.0</ele><time>2026-05-01T14:32:13Z</time></trkpt><trkpt lat="42.32326299586413" lon="14.093410515076824"><ele>58.0</ele><time>2026-05-01T14:32:14Z</time></trkpt><trkpt lat="42.323327433832716" lon="14.093549942773558"><ele>58.0</ele><time>2026-05-01T14:32:15Z</time></trkpt><trkpt lat="42.323391542668" lon="14.093686691171666"><ele>58.0</ele><time>2026-05-01T14:32:16Z</time></trkpt><trkpt lat="42.323455793022774" lon="14.093824457879379"><ele>58.0</ele><time>2026-05-01T14:32:17Z</time></trkpt><trkpt lat="42.323516324189676" lon="14.093964829495361"><ele>58.0</ele><time>2026-05-01T14:32:18Z</time></trkpt><trkpt lat="42.32356766631205" lon="14.094111656012089"><ele>58.0</ele><time>2026-05-01T14:32:19Z</time></trkpt><trkpt lat="42.32360793084655" lon="14.094264375073077"><ele>58.0</ele><time>2026-05-01T14:32:20Z</time></trkpt><trkpt lat="42.323643011836545" lon="14.094417104048036"><ele>58.0</ele><time>2026-05-01T14:32:21Z</time></trkpt><trkpt lat="42.3236763551612" lon="14.094568805660456"><ele>58.0</ele><time>2026-05-01T14:32:22Z</time></trkpt><trkpt lat="42.32370825082968" lon="14.094718703220146"><ele>58.0</ele><time>2026-05-01T14:32:23Z</time></trkpt><trkpt lat="42.32373853225393" lon="14.094870068045285"><ele>58.0</ele><time>2026-05-01T14:32:24Z</time></trkpt><trkpt lat="42.3237699976102" lon="14.095022184644176"><ele>58.0</ele><time>2026-05-01T14:32:25Z</time></trkpt><trkpt lat="42.32380300277589" lon="14.095176359925269"><ele>58.0</ele><time>2026-05-01T14:32:26Z</time></trkpt><trkpt lat="42.32383875828415" lon="14.095331852449558"><ele>58.0</ele><time>2026-05-01T14:32:27Z</time></trkpt><trkpt lat="42.323873344406906" lon="14.095491126784761"><ele>58.0</ele><time>2026-05-01T14:32:28Z</time></trkpt><trkpt lat="42.323906968798525" lon="14.095651731809358"><ele>58.0</ele><time>2026-05-01T14:32:29Z</time></trkpt><trkpt lat="42.323939310727184" lon="14.095813002556268"><ele>58.0</ele><time>2026-05-01T14:32:30Z</time></trkpt><trkpt lat="42.32397230030498" lon="14.095972493614573"><ele>58.0</ele><time>2026-05-01T14:32:31Z</time></trkpt><trkpt lat="42.32400598901299" lon="14.09613352676952"><ele>58.0</ele><time>2026-05-01T14:32:32Z</time></trkpt><trkpt lat="42.324038448522636" lon="14.096293902002344"><ele>58.0</ele><time>2026-05-01T14:32:33Z</time></trkpt><trkpt lat="42.32406864452531" lon="14.096454945752289"><ele>58.0</ele><time>2026-05-01T14:32:34Z</time></trkpt><trkpt lat="42.3241001367872" lon="14.096615966078112"><ele>58.0</ele><time>2026-05-01T14:32:35Z</time></trkpt><trkpt lat="42.324132569990844" lon="14.096781395421381"><ele>58.0</ele><time>2026-05-01T14:32:35.999Z</time></trkpt><trkpt lat="42.32416705821234" lon="14.096949389426875"><ele>58.0</ele><time>2026-05-01T14:32:36.999Z</time></trkpt><trkpt lat="42.32420102524379" lon="14.097114939084687"><ele>58.0</ele><time>2026-05-01T14:32:37.999Z</time></trkpt><trkpt lat="42.324235001542796" lon="14.097282054462696"><ele>58.0</ele><time>2026-05-01T14:32:38.999Z</time></trkpt><trkpt lat="42.32427060309115" lon="14.097450942659387"><ele>58.0</ele><time>2026-05-01T14:32:39.999Z</time></trkpt><trkpt lat="42.32431151916099" lon="14.097619018988418"><ele>58.0</ele><time>2026-05-01T14:32:40.999Z</time></trkpt><trkpt lat="42.32436371952717" lon="14.097786565505489"><ele>57.75</ele><time>2026-05-01T14:32:41.999Z</time></trkpt><trkpt lat="42.32442387955913" lon="14.097949315235837"><ele>57.5</ele><time>2026-05-01T14:32:42.999Z</time></trkpt><trkpt lat="42.32449313069922" lon="14.098105159503657"><ele>57.25</ele><time>2026-05-01T14:32:43.999Z</time></trkpt><trkpt lat="42.324571597381905" lon="14.09825227506657"><ele>57.0</ele><time>2026-05-01T14:32:44.999Z</time></trkpt><trkpt lat="42.32465593093716" lon="14.098391396947168"><ele>56.0</ele><time>2026-05-01T14:32:45.999Z</time></trkpt><trkpt lat="42.32474047844465" lon="14.098528605627429"><ele>55.0</ele><time>2026-05-01T14:32:46.999Z</time></trkpt><trkpt lat="42.324823259527314" lon="14.098666190956429"><ele>54.0</ele><time>2026-05-01T14:32:47.999Z</time></trkpt><trkpt lat="42.32490694949269" lon="14.09880182768371"><ele>53.0</ele><time>2026-05-01T14:32:48.999Z</time></trkpt><trkpt lat="42.32499024892854" lon="14.098937951230832"><ele>53.0</ele><time>2026-05-01T14:32:49.999Z</time></trkpt><trkpt lat="42.325072343588545" lon="14.099074196496202"><ele>53.0</ele><time>2026-05-01T14:32:50.999Z</time></trkpt><trkpt lat="42.32515543654967" lon="14.099208855343063"><ele>53.0</ele><time>2026-05-01T14:32:51.999Z</time></trkpt><trkpt lat="42.325240171946824" lon="14.099340891037675"><ele>53.0</ele><time>2026-05-01T14:32:52.999Z</time></trkpt><trkpt lat="42.32532518132814" lon="14.099472191544853"><ele>53.0</ele><time>2026-05-01T14:32:53.999Z</time></trkpt><trkpt lat="42.32540902528586" lon="14.099603956419102"><ele>53.0</ele><time>2026-05-01T14:32:54.999Z</time></trkpt><trkpt lat="42.32549485087897" lon="14.099738968693574"><ele>53.0</ele><time>2026-05-01T14:32:55.999Z</time></trkpt><trkpt lat="42.32557776115255" lon="14.099871450219881"><ele>53.0</ele><time>2026-05-01T14:32:56.999Z</time></trkpt><trkpt lat="42.32565674079444" lon="14.100001278977437"><ele>53.0</ele><time>2026-05-01T14:32:57.999Z</time></trkpt><trkpt lat="42.32574009006463" lon="14.100131112597353"><ele>53.0</ele><time>2026-05-01T14:32:58.999Z</time></trkpt><trkpt lat="42.325823225779104" lon="14.100259486912506"><ele>53.0</ele><time>2026-05-01T14:32:59.999Z</time></trkpt><trkpt lat="42.32590557738245" lon="14.100388171493593"><ele>53.0</ele><time>2026-05-01T14:33:00.999Z</time></trkpt><trkpt lat="42.325980888827196" lon="14.10050700027249"><ele>53.00000000000001</ele><time>2026-05-01T14:33:01.999Z</time></trkpt><trkpt lat="42.3260440008473" lon="14.10062399796271"><ele>53.0</ele><time>2026-05-01T14:33:02.999Z</time></trkpt><trkpt lat="42.32608981865454" lon="14.100734027625128"><ele>53.0</ele><time>2026-05-01T14:33:03.999Z</time></trkpt><trkpt lat="42.326123590231454" lon="14.100837684505708"><ele>53.0</ele><time>2026-05-01T14:33:04.999Z</time></trkpt><trkpt lat="42.3261424798118" lon="14.100933214790341"><ele>53.00000000000001</ele><time>2026-05-01T14:33:05.999Z</time></trkpt><trkpt lat="42.32615060683656" lon="14.101030817133015"><ele>53.0</ele><time>2026-05-01T14:33:06.999Z</time></trkpt><trkpt lat="42.32616624752195" lon="14.101125807449662"><ele>53.333333333333336</ele><time>2026-05-01T14:33:07.999Z</time></trkpt><trkpt lat="42.32620871041896" lon="14.101197194815066"><ele>53.66666666666667</ele><time>2026-05-01T14:33:08.999Z</time></trkpt><trkpt lat="42.32628543863424" lon="14.101239351547767"><ele>54.0</ele><time>2026-05-01T14:33:09.999Z</time></trkpt><trkpt lat="42.32637006215181" lon="14.101267055102857"><ele>54.33333333333333</ele><time>2026-05-01T14:33:10.999Z</time></trkpt><trkpt lat="42.32645550092531" lon="14.101314929853062"><ele>54.666666666666664</ele><time>2026-05-01T14:33:11.999Z</time></trkpt><trkpt lat="42.326534794628714" lon="14.10139754150636"><ele>55.0</ele><time>2026-05-01T14:33:12.999Z</time></trkpt><trkpt lat="42.32659859063977" lon="14.101508000136333"><ele>55.0</ele><time>2026-05-01T14:33:13.999Z</time></trkpt><trkpt lat="42.32666764564927" lon="14.101628142735379"><ele>55.0</ele><time>2026-05-01T14:33:14.999Z</time></trkpt><trkpt lat="42.32674513673309" lon="14.1017486670664"><ele>55.0</ele><time>2026-05-01T14:33:15.999Z</time></trkpt><trkpt lat="42.32682340080487" lon="14.101874736631894"><ele>55.0</ele><time>2026-05-01T14:33:16.999Z</time></trkpt><trkpt lat="42.32690577326191" lon="14.102011032049814"><ele>55.0</ele><time>2026-05-01T14:33:17.999Z</time></trkpt><trkpt lat="42.32699408112032" lon="14.10215700002632"><ele>55.0</ele><time>2026-05-01T14:33:18.999Z</time></trkpt><trkpt lat="42.32708132192101" lon="14.102311569897246"><ele>55.0</ele><time>2026-05-01T14:33:19.999Z</time></trkpt><trkpt lat="42.32716115180442" lon="14.10248619883266"><ele>55.0</ele><time>2026-05-01T14:33:20.999Z</time></trkpt><trkpt lat="42.327231439285775" lon="14.102668498979266"><ele>53.5</ele><time>2026-05-01T14:33:21.999Z</time></trkpt><trkpt lat="42.32729043245048" lon="14.10284733904356"><ele>52.0</ele><time>2026-05-01T14:33:22.999Z</time></trkpt><trkpt lat="42.327344608419764" lon="14.103031340419765"><ele>50.5</ele><time>2026-05-01T14:33:23.999Z</time></trkpt><trkpt lat="42.32740258066359" lon="14.103212657946738"><ele>49.0</ele><time>2026-05-01T14:33:24.999Z</time></trkpt><trkpt lat="42.327460920145846" lon="14.103393299452996"><ele>49.0</ele><time>2026-05-01T14:33:25.999Z</time></trkpt><trkpt lat="42.327516648456886" lon="14.103572760754956"><ele>49.0</ele><time>2026-05-01T14:33:26.999Z</time></trkpt><trkpt lat="42.327570230703124" lon="14.103746519702197"><ele>49.0</ele><time>2026-05-01T14:33:27.999Z</time></trkpt><trkpt lat="42.32762179465302" lon="14.103908608444236"><ele>49.0</ele><time>2026-05-01T14:33:28.999Z</time></trkpt><trkpt lat="42.32767264661743" lon="14.104060991724989"><ele>48.5</ele><time>2026-05-01T14:33:29.999Z</time></trkpt><trkpt lat="42.32772098160291" lon="14.104203917826323"><ele>48.0</ele><time>2026-05-01T14:33:30.999Z</time></trkpt><trkpt lat="42.3277671973447" lon="14.104346113279707"><ele>47.5</ele><time>2026-05-01T14:33:31.999Z</time></trkpt><trkpt lat="42.327813753599855" lon="14.104494701979322"><ele>47.0</ele><time>2026-05-01T14:33:32.999Z</time></trkpt><trkpt lat="42.327860193499205" lon="14.1046445910642"><ele>47.0</ele><time>2026-05-01T14:33:33.999Z</time></trkpt><trkpt lat="42.32790452083076" lon="14.10479252282389"><ele>47.0</ele><time>2026-05-01T14:33:34.999Z</time></trkpt><trkpt lat="42.327950232400944" lon="14.104938613844334"><ele>47.0</ele><time>2026-05-01T14:33:35.999Z</time></trkpt><trkpt lat="42.327996284245835" lon="14.105083341780034"><ele>47.0</ele><time>2026-05-01T14:33:36.999Z</time></trkpt><trkpt lat="42.32804177435134" lon="14.105228904867301"><ele>46.75</ele><time>2026-05-01T14:33:37.999Z</time></trkpt><trkpt lat="42.328086913148" lon="14.10537566708964"><ele>46.5</ele><time>2026-05-01T14:33:38.999Z</time></trkpt><trkpt lat="42.32813366400724" lon="14.105526549724404"><ele>46.25</ele><time>2026-05-01T14:33:39.999Z</time></trkpt><trkpt lat="42.328180321058895" lon="14.105675041991375"><ele>46.0</ele><time>2026-05-01T14:33:40.999Z</time></trkpt><trkpt lat="42.32822565000019" lon="14.105816528176506"><ele>46.0</ele><time>2026-05-01T14:33:41.999Z</time></trkpt><trkpt lat="42.328269207102146" lon="14.105959570153878"><ele>46.0</ele><time>2026-05-01T14:33:42.999Z</time></trkpt><trkpt lat="42.32831342245837" lon="14.106099730472742"><ele>46.0</ele><time>2026-05-01T14:33:43.999Z</time></trkpt><trkpt lat="42.32836113537651" lon="14.106242235731425"><ele>46.0</ele><time>2026-05-01T14:33:44.999Z</time></trkpt><trkpt lat="42.3284073747417" lon="14.106388790386204"><ele>46.0</ele><time>2026-05-01T14:33:45.999Z</time></trkpt><trkpt lat="42.328455311343994" lon="14.106534961939731"><ele>46.0</ele><time>2026-05-01T14:33:46.999Z</time></trkpt><trkpt lat="42.32850189072482" lon="14.106684994086551"><ele>46.0</ele><time>2026-05-01T14:33:47.999Z</time></trkpt><trkpt lat="42.32854648756219" lon="14.106833874837319"><ele>46.0</ele><time>2026-05-01T14:33:48.999Z</time></trkpt><trkpt lat="42.328592125566814" lon="14.106984331755182"><ele>46.0</ele><time>2026-05-01T14:33:49.999Z</time></trkpt><trkpt lat="42.32863971293572" lon="14.107135368102847"><ele>46.0</ele><time>2026-05-01T14:33:50.999Z</time></trkpt><trkpt lat="42.32868744776563" lon="14.107288154372455"><ele>46.0</ele><time>2026-05-01T14:33:51.999Z</time></trkpt><trkpt lat="42.32873855460691" lon="14.107440544048012"><ele>46.0</ele><time>2026-05-01T14:33:52.999Z</time></trkpt><trkpt lat="42.32878899628467" lon="14.107592521065982"><ele>46.0</ele><time>2026-05-01T14:33:53.999Z</time></trkpt><trkpt lat="42.328838149246515" lon="14.107744151603907"><ele>46.0</ele><time>2026-05-01T14:33:54.999Z</time></trkpt><trkpt lat="42.32888661505462" lon="14.107894317640428"><ele>46.0</ele><time>2026-05-01T14:33:55.999Z</time></trkpt><trkpt lat="42.32893474687924" lon="14.108047070397904"><ele>46.0</ele><time>2026-05-01T14:33:56.999Z</time></trkpt><trkpt lat="42.328983269343546" lon="14.10819582121237"><ele>44.75</ele><time>2026-05-01T14:33:57.999Z</time></trkpt><trkpt lat="42.32902959709044" lon="14.108344733652855"><ele>43.5</ele><time>2026-05-01T14:33:58.999Z</time></trkpt><trkpt lat="42.32907688246209" lon="14.108494501235802"><ele>42.25</ele><time>2026-05-01T14:33:59.999Z</time></trkpt><trkpt lat="42.329123897870176" lon="14.108645242430175"><ele>41.0</ele><time>2026-05-01T14:34:00.999Z</time></trkpt><trkpt lat="42.32916970368878" lon="14.108795080232168"><ele>41.0</ele><time>2026-05-01T14:34:01.999Z</time></trkpt><trkpt lat="42.3292137681262" lon="14.10894275199737"><ele>41.0</ele><time>2026-05-01T14:34:02.999Z</time></trkpt><trkpt lat="42.329257780344115" lon="14.109091743084479"><ele>41.0</ele><time>2026-05-01T14:34:03.999Z</time></trkpt><trkpt lat="42.32930539508004" lon="14.109238818958506"><ele>41.0</ele><time>2026-05-01T14:34:04.999Z</time></trkpt><trkpt lat="42.32935186368672" lon="14.109387595193702"><ele>41.5</ele><time>2026-05-01T14:34:05.999Z</time></trkpt><trkpt lat="42.329396940933485" lon="14.109536290188421"><ele>42.0</ele><time>2026-05-01T14:34:06.999Z</time></trkpt><trkpt lat="42.32944122293001" lon="14.109682189766668"><ele>42.5</ele><time>2026-05-01T14:34:07.999Z</time></trkpt><trkpt lat="42.32948814258321" lon="14.109830469002171"><ele>43.0</ele><time>2026-05-01T14:34:08.999Z</time></trkpt><trkpt lat="42.32953496611924" lon="14.109980022227806"><ele>43.25</ele><time>2026-05-01T14:34:09.999Z</time></trkpt><trkpt lat="42.329583133355456" lon="14.110126608829889"><ele>43.5</ele><time>2026-05-01T14:34:10.999Z</time></trkpt><trkpt lat="42.32963031340348" lon="14.110272532481979"><ele>43.75</ele><time>2026-05-01T14:34:11.999Z</time></trkpt><trkpt lat="42.32967683879237" lon="14.11041942250737"><ele>44.0</ele><time>2026-05-01T14:34:12.999Z</time></trkpt><trkpt lat="42.329723849087166" lon="14.11056622750955"><ele>43.5</ele><time>2026-05-01T14:34:13.999Z</time></trkpt><trkpt lat="42.329768299702" lon="14.110711892568117"><ele>43.0</ele><time>2026-05-01T14:34:14.999Z</time></trkpt><trkpt lat="42.32981292161379" lon="14.110855638684486"><ele>42.5</ele><time>2026-05-01T14:34:15.999Z</time></trkpt><trkpt lat="42.32985964224272" lon="14.1110055215902"><ele>42.0</ele><time>2026-05-01T14:34:16.999Z</time></trkpt><trkpt lat="42.32991010500816" lon="14.111156556263607"><ele>42.0</ele><time>2026-05-01T14:34:17.999Z</time></trkpt><trkpt lat="42.329958144666" lon="14.111304115230038"><ele>42.0</ele><time>2026-05-01T14:34:18.999Z</time></trkpt><trkpt lat="42.33000284399336" lon="14.111449486616728"><ele>42.0</ele><time>2026-05-01T14:34:19.999Z</time></trkpt><trkpt lat="42.33004658117414" lon="14.111591792104953"><ele>42.0</ele><time>2026-05-01T14:34:20.999Z</time></trkpt><trkpt lat="42.33009014566909" lon="14.111733894576185"><ele>42.2</ele><time>2026-05-01T14:34:21.999Z</time></trkpt><trkpt lat="42.33013369092461" lon="14.111877327741471"><ele>42.400000000000006</ele><time>2026-05-01T14:34:22.999Z</time></trkpt><trkpt lat="42.33017722625929" lon="14.112018940286209"><ele>42.599999999999994</ele><time>2026-05-01T14:34:23.999Z</time></trkpt><trkpt lat="42.33022054335132" lon="14.112153966554732"><ele>42.8</ele><time>2026-05-01T14:34:24.999Z</time></trkpt><trkpt lat="42.33026259465235" lon="14.112282979801222"><ele>43.0</ele><time>2026-05-01T14:34:25.999Z</time></trkpt><trkpt lat="42.33030138714845" lon="14.112408303356787"><ele>43.0</ele><time>2026-05-01T14:34:26.999Z</time></trkpt><trkpt lat="42.33033895092162" lon="14.112524492380723"><ele>43.0</ele><time>2026-05-01T14:34:27.999Z</time></trkpt><trkpt lat="42.330373397090206" lon="14.112629632350684"><ele>43.0</ele><time>2026-05-01T14:34:28.999Z</time></trkpt><trkpt lat="42.33040283288026" lon="14.112726076597594"><ele>43.0</ele><time>2026-05-01T14:34:29.999Z</time></trkpt><trkpt lat="42.33042820734509" lon="14.112816528238715"><ele>43.0</ele><time>2026-05-01T14:34:30.999Z</time></trkpt><trkpt lat="42.330439785833114" lon="14.112901509376055"><ele>43.0</ele><time>2026-05-01T14:34:31.999Z</time></trkpt><trkpt lat="42.330441870653466" lon="14.112990681977706"><ele>43.0</ele><time>2026-05-01T14:34:32.999Z</time></trkpt><trkpt lat="42.330441987988756" lon="14.113081757496332"><ele>43.0</ele><time>2026-05-01T14:34:33.999Z</time></trkpt><trkpt lat="42.330448915710804" lon="14.113166773623803"><ele>43.0</ele><time>2026-05-01T14:34:34.999Z</time></trkpt><trkpt lat="42.33052594750874" lon="14.113299654366788"><ele>43.0</ele><time>2026-05-01T14:34:36.999Z</time></trkpt><trkpt lat="42.330579392298" lon="14.113353600054975"><ele>43.0</ele><time>2026-05-01T14:34:37.999Z</time></trkpt><trkpt lat="42.33062153149262" lon="14.113424662133754"><ele>43.0</ele><time>2026-05-01T14:34:38.999Z</time></trkpt><trkpt lat="42.33065398805149" lon="14.11351979332907"><ele>42.16666666666667</ele><time>2026-05-01T14:34:39.999Z</time></trkpt><trkpt lat="42.33068342271796" lon="14.113622115299918"><ele>41.333333333333336</ele><time>2026-05-01T14:34:40.999Z</time></trkpt><trkpt lat="42.33071558781166" lon="14.113729441138956"><ele>40.5</ele><time>2026-05-01T14:34:41.999Z</time></trkpt><trkpt lat="42.33075104885918" lon="14.113837612267734"><ele>39.666666666666664</ele><time>2026-05-01T14:34:42.999Z</time></trkpt><trkpt lat="42.33078640220777" lon="14.113947814198584"><ele>38.83333333333333</ele><time>2026-05-01T14:34:43.999Z</time></trkpt><trkpt lat="42.33082333742542" lon="14.11405980788588"><ele>38.0</ele><time>2026-05-01T14:34:44.999Z</time></trkpt><trkpt lat="42.33086115060406" lon="14.11417327536292"><ele>38.0</ele><time>2026-05-01T14:34:45.999Z</time></trkpt><trkpt lat="42.33089786102159" lon="14.114294263027501"><ele>38.0</ele><time>2026-05-01T14:34:46.999Z</time></trkpt><trkpt lat="42.330933502154934" lon="14.114414753182837"><ele>38.0</ele><time>2026-05-01T14:34:47.999Z</time></trkpt><trkpt lat="42.330970855835204" lon="14.114536395512324"><ele>38.0</ele><time>2026-05-01T14:34:48.999Z</time></trkpt><trkpt lat="42.33101032445465" lon="14.11466138865998"><ele>38.0</ele><time>2026-05-01T14:34:49.999Z</time></trkpt><trkpt lat="42.33105120492943" lon="14.114785504165143"><ele>38.0</ele><time>2026-05-01T14:34:50.999Z</time></trkpt><trkpt lat="42.33109175624204" lon="14.114911241456909"><ele>38.0</ele><time>2026-05-01T14:34:51.999Z</time></trkpt><trkpt lat="42.3311318222793" lon="14.115036123529249"><ele>38.0</ele><time>2026-05-01T14:34:52.999Z</time></trkpt><trkpt lat="42.33117095882591" lon="14.1151619502405"><ele>38.0</ele><time>2026-05-01T14:34:53.999Z</time></trkpt><trkpt lat="42.33121307547487" lon="14.115290128304013"><ele>38.0</ele><time>2026-05-01T14:34:54.999Z</time></trkpt><trkpt lat="42.33125546595975" lon="14.115421087001355"><ele>38.0</ele><time>2026-05-01T14:34:55.999Z</time></trkpt><trkpt lat="42.33129752124262" lon="14.115554589048124"><ele>38.0</ele><time>2026-05-01T14:34:56.999Z</time></trkpt><trkpt lat="42.33133973785383" lon="14.115688349817246"><ele>38.0</ele><time>2026-05-01T14:34:57.999Z</time></trkpt><trkpt lat="42.33138207648419" lon="14.115821770803292"><ele>38.0</ele><time>2026-05-01T14:34:58.999Z</time></trkpt><trkpt lat="42.33142391068318" lon="14.115955431223725"><ele>38.0</ele><time>2026-05-01T14:34:59.999Z</time></trkpt><trkpt lat="42.331465729108274" lon="14.116087234232754"><ele>38.0</ele><time>2026-05-01T14:35:00.999Z</time></trkpt><trkpt lat="42.33150917260603" lon="14.116218113993726"><ele>38.0</ele><time>2026-05-01T14:35:01.999Z</time></trkpt><trkpt lat="42.331548474615396" lon="14.116348344014847"><ele>38.0</ele><time>2026-05-01T14:35:02.999Z</time></trkpt><trkpt lat="42.3315868587249" lon="14.11647504462074"><ele>38.0</ele><time>2026-05-01T14:35:03.999Z</time></trkpt><trkpt lat="42.331623314407324" lon="14.116589128889443"><ele>38.0</ele><time>2026-05-01T14:35:04.999Z</time></trkpt><trkpt lat="42.33165776855669" lon="14.116700058866781"><ele>38.0</ele><time>2026-05-01T14:35:05.999Z</time></trkpt><trkpt lat="42.33169180948713" lon="14.116812637007211"><ele>38.0</ele><time>2026-05-01T14:35:06.999Z</time></trkpt><trkpt lat="42.331730412925204" lon="14.116928849233735"><ele>38.0</ele><time>2026-05-01T14:35:07.999Z</time></trkpt><trkpt lat="42.3317679556023" lon="14.117048538467781"><ele>38.0</ele><time>2026-05-01T14:35:08.999Z</time></trkpt><trkpt lat="42.33180024115366" lon="14.117171993252454"><ele>38.0</ele><time>2026-05-01T14:35:09.999Z</time></trkpt><trkpt lat="42.331838176883764" lon="14.117291900315962"><ele>38.4</ele><time>2026-05-01T14:35:10.999Z</time></trkpt><trkpt lat="42.33187428445214" lon="14.117409013958191"><ele>38.8</ele><time>2026-05-01T14:35:11.999Z</time></trkpt><trkpt lat="42.331910634743416" lon="14.117519779370987"><ele>39.2</ele><time>2026-05-01T14:35:12.999Z</time></trkpt><trkpt lat="42.331949097521075" lon="14.117633760094714"><ele>39.6</ele><time>2026-05-01T14:35:13.999Z</time></trkpt><trkpt lat="42.33198693496446" lon="14.117753917452243"><ele>40.0</ele><time>2026-05-01T14:35:14.999Z</time></trkpt><trkpt lat="42.33202366910209" lon="14.11787635519008"><ele>40.0</ele><time>2026-05-01T14:35:15.999Z</time></trkpt><trkpt lat="42.3320635804825" lon="14.117998592901257"><ele>40.0</ele><time>2026-05-01T14:35:16.999Z</time></trkpt><trkpt lat="42.33210361817828" lon="14.118122276504607"><ele>40.0</ele><time>2026-05-01T14:35:17.999Z</time></trkpt><trkpt lat="42.3321439374437" lon="14.118247668165587"><ele>40.0</ele><time>2026-05-01T14:35:18.999Z</time></trkpt><trkpt lat="42.33218332114782" lon="14.11837600530061"><ele>40.0</ele><time>2026-05-01T14:35:19.999Z</time></trkpt><trkpt lat="42.33222069093436" lon="14.11850256915177"><ele>39.6</ele><time>2026-05-01T14:35:20.999Z</time></trkpt><trkpt lat="42.33226000435372" lon="14.118626262644861"><ele>39.2</ele><time>2026-05-01T14:35:21.999Z</time></trkpt><trkpt lat="42.33229847608555" lon="14.118753579483169"><ele>38.8</ele><time>2026-05-01T14:35:22.999Z</time></trkpt><trkpt lat="42.332337351106496" lon="14.11887936463253"><ele>38.4</ele><time>2026-05-01T14:35:23.999Z</time></trkpt><trkpt lat="42.332374423719486" lon="14.119008173192709"><ele>38.0</ele><time>2026-05-01T14:35:24.999Z</time></trkpt><trkpt lat="42.33241799800154" lon="14.119137978938335"><ele>37.8</ele><time>2026-05-01T14:35:25.999Z</time></trkpt><trkpt lat="42.332459493269745" lon="14.119267610388121"><ele>37.599999999999994</ele><time>2026-05-01T14:35:26.999Z</time></trkpt><trkpt lat="42.332499290920154" lon="14.11939931681835"><ele>37.400000000000006</ele><time>2026-05-01T14:35:27.999Z</time></trkpt><trkpt lat="42.33253983874266" lon="14.119528452517878"><ele>37.2</ele><time>2026-05-01T14:35:28.999Z</time></trkpt><trkpt lat="42.332582370041834" lon="14.119659236785663"><ele>37.0</ele><time>2026-05-01T14:35:29.999Z</time></trkpt><trkpt lat="42.33262324512846" lon="14.119793057421541"><ele>37.6</ele><time>2026-05-01T14:35:30.999Z</time></trkpt><trkpt lat="42.332666019010944" lon="14.119929715420684"><ele>38.2</ele><time>2026-05-01T14:35:31.999Z</time></trkpt><trkpt lat="42.3327091003078" lon="14.120065328927078"><ele>38.8</ele><time>2026-05-01T14:35:32.999Z</time></trkpt><trkpt lat="42.332752655831605" lon="14.120203948399512"><ele>39.4</ele><time>2026-05-01T14:35:33.999Z</time></trkpt><trkpt lat="42.332797158883906" lon="14.120342820957815"><ele>40.0</ele><time>2026-05-01T14:35:34.999Z</time></trkpt><trkpt lat="42.33283982728433" lon="14.12047843982767"><ele>40.0</ele><time>2026-05-01T14:35:35.999Z</time></trkpt><trkpt lat="42.33287900491861" lon="14.120604115051101"><ele>40.0</ele><time>2026-05-01T14:35:36.999Z</time></trkpt><trkpt lat="42.33291476803563" lon="14.120719855455707"><ele>40.0</ele><time>2026-05-01T14:35:37.999Z</time></trkpt><trkpt lat="42.33295008476563" lon="14.120829144593909"><ele>40.0</ele><time>2026-05-01T14:35:38.999Z</time></trkpt><trkpt lat="42.33298650319003" lon="14.12093483178316"><ele>40.0</ele><time>2026-05-01T14:35:39.999Z</time></trkpt><trkpt lat="42.333021539547126" lon="14.121044931436131"><ele>40.0</ele><time>2026-05-01T14:35:40.999Z</time></trkpt><trkpt lat="42.33305500656327" lon="14.121159063099919"><ele>40.0</ele><time>2026-05-01T14:35:41.999Z</time></trkpt><trkpt lat="42.33308829383614" lon="14.121269867205129"><ele>40.0</ele><time>2026-05-01T14:35:42.999Z</time></trkpt><trkpt lat="42.33311927175229" lon="14.121368716129286"><ele>40.0</ele><time>2026-05-01T14:35:43.999Z</time></trkpt><trkpt lat="42.333147600442025" lon="14.12145752139314"><ele>40.0</ele><time>2026-05-01T14:35:44.999Z</time></trkpt><trkpt lat="42.33317175900525" lon="14.121538616891964"><ele>40.0</ele><time>2026-05-01T14:35:45.999Z</time></trkpt><trkpt lat="42.333197402385196" lon="14.121623021248611"><ele>40.285714285714285</ele><time>2026-05-01T14:35:46.999Z</time></trkpt><trkpt lat="42.33322611162913" lon="14.121708226417658"><ele>40.57142857142857</ele><time>2026-05-01T14:35:47.999Z</time></trkpt><trkpt lat="42.3332548781613" lon="14.121797140961469"><ele>40.85714285714286</ele><time>2026-05-01T14:35:48.999Z</time></trkpt><trkpt lat="42.33328360448178" lon="14.121889888779831"><ele>41.14285714285714</ele><time>2026-05-01T14:35:49.999Z</time></trkpt><trkpt lat="42.3333167320858" lon="14.121978447205096"><ele>41.42857142857143</ele><time>2026-05-01T14:35:50.999Z</time></trkpt><trkpt lat="42.33334830252949" lon="14.122067069416595"><ele>41.714285714285715</ele><time>2026-05-01T14:35:51.999Z</time></trkpt><trkpt lat="42.33337705142599" lon="14.122156270113354"><ele>42.0</ele><time>2026-05-01T14:35:52.999Z</time></trkpt><trkpt lat="42.33340537870154" lon="14.122250362488039"><ele>42.0</ele><time>2026-05-01T14:35:53.999Z</time></trkpt><trkpt lat="42.33343412536961" lon="14.122348700474983"><ele>42.0</ele><time>2026-05-01T14:35:55Z</time></trkpt><trkpt lat="42.33346517763306" lon="14.122453881965125"><ele>42.0</ele><time>2026-05-01T14:35:56Z</time></trkpt><trkpt lat="42.333498934039575" lon="14.122557844693377"><ele>42.0</ele><time>2026-05-01T14:35:57Z</time></trkpt><trkpt lat="42.33353262604904" lon="14.122666428963942"><ele>42.0</ele><time>2026-05-01T14:35:58Z</time></trkpt><trkpt lat="42.33356768219009" lon="14.122784981963603"><ele>42.0</ele><time>2026-05-01T14:35:59Z</time></trkpt><trkpt lat="42.333605764881355" lon="14.122913989000558"><ele>42.25</ele><time>2026-05-01T14:36:00Z</time></trkpt><trkpt lat="42.33365038902525" lon="14.123054596274775"><ele>42.5</ele><time>2026-05-01T14:36:01Z</time></trkpt><trkpt lat="42.33369833564021" lon="14.123200494367111"><ele>42.75</ele><time>2026-05-01T14:36:02Z</time></trkpt><trkpt lat="42.33374621373309" lon="14.123356713162018"><ele>43.0</ele><time>2026-05-01T14:36:03Z</time></trkpt><trkpt lat="42.33379765245831" lon="14.123519343684881"><ele>43.0</ele><time>2026-05-01T14:36:04Z</time></trkpt><trkpt lat="42.33384920093224" lon="14.123681542663991"><ele>43.0</ele><time>2026-05-01T14:36:05Z</time></trkpt><trkpt lat="42.3339015052245" lon="14.123843819751285"><ele>43.0</ele><time>2026-05-01T14:36:06Z</time></trkpt><trkpt lat="42.333951592660995" lon="14.124002654107505"><ele>43.0</ele><time>2026-05-01T14:36:07Z</time></trkpt><trkpt lat="42.334003213473494" lon="14.124164376159857"><ele>42.5</ele><time>2026-05-01T14:36:08Z</time></trkpt><trkpt lat="42.334054424984075" lon="14.124326713210072"><ele>42.0</ele><time>2026-05-01T14:36:09Z</time></trkpt><trkpt lat="42.33410534079917" lon="14.124493994114903"><ele>41.5</ele><time>2026-05-01T14:36:10Z</time></trkpt><trkpt lat="42.334158402075566" lon="14.124659988799673"><ele>41.0</ele><time>2026-05-01T14:36:11Z</time></trkpt><trkpt lat="42.33421043474905" lon="14.124819329865836"><ele>41.5</ele><time>2026-05-01T14:36:12Z</time></trkpt><trkpt lat="42.33425936709455" lon="14.124972685987654"><ele>42.0</ele><time>2026-05-01T14:36:13Z</time></trkpt><trkpt lat="42.33430784373993" lon="14.125123012450372"><ele>42.5</ele><time>2026-05-01T14:36:14Z</time></trkpt><trkpt lat="42.33435489542332" lon="14.125269069880146"><ele>43.0</ele><time>2026-05-01T14:36:15Z</time></trkpt><trkpt lat="42.33440085937749" lon="14.125412579553005"><ele>43.0</ele><time>2026-05-01T14:36:16Z</time></trkpt><trkpt lat="42.33444615294266" lon="14.125553188700337"><ele>43.0</ele><time>2026-05-01T14:36:17Z</time></trkpt><trkpt lat="42.33449027489075" lon="14.125692620549371"><ele>43.0</ele><time>2026-05-01T14:36:18Z</time></trkpt><trkpt lat="42.334531471093456" lon="14.125830728968939"><ele>43.0</ele><time>2026-05-01T14:36:19Z</time></trkpt><trkpt lat="42.33457222433757" lon="14.125966934776823"><ele>43.0</ele><time>2026-05-01T14:36:20Z</time></trkpt><trkpt lat="42.33461292928644" lon="14.12609943976989"><ele>43.4</ele><time>2026-05-01T14:36:21Z</time></trkpt><trkpt lat="42.334655280676884" lon="14.126229396941431"><ele>43.8</ele><time>2026-05-01T14:36:22Z</time></trkpt><trkpt lat="42.3346952791079" lon="14.126359149029454"><ele>44.2</ele><time>2026-05-01T14:36:23Z</time></trkpt><trkpt lat="42.33473413301831" lon="14.126481113238814"><ele>44.6</ele><time>2026-05-01T14:36:24Z</time></trkpt><trkpt lat="42.33477024490477" lon="14.126599227051061"><ele>45.0</ele><time>2026-05-01T14:36:25Z</time></trkpt><trkpt lat="42.33480473863717" lon="14.126710462170632"><ele>45.166666666666664</ele><time>2026-05-01T14:36:26Z</time></trkpt><trkpt lat="42.33483689558579" lon="14.126818183709615"><ele>45.333333333333336</ele><time>2026-05-01T14:36:27Z</time></trkpt><trkpt lat="42.33487150820578" lon="14.126922769111607"><ele>45.5</ele><time>2026-05-01T14:36:28Z</time></trkpt><trkpt lat="42.334902326804816" lon="14.127020095270264"><ele>45.66666666666667</ele><time>2026-05-01T14:36:29Z</time></trkpt><trkpt lat="42.33493081305015" lon="14.1271116223641"><ele>45.833333333333336</ele><time>2026-05-01T14:36:30Z</time></trkpt><trkpt lat="42.334954671924855" lon="14.12719218727211"><ele>46.0</ele><time>2026-05-01T14:36:31Z</time></trkpt><trkpt lat="42.33500215051446" lon="14.12734177810918"><ele>46.285714285714285</ele><time>2026-05-01T14:36:33Z</time></trkpt><trkpt lat="42.33502641344227" lon="14.127422370982694"><ele>46.57142857142857</ele><time>2026-05-01T14:36:34Z</time></trkpt><trkpt lat="42.33505236099494" lon="14.127507388925968"><ele>46.857142857142854</ele><time>2026-05-01T14:36:35Z</time></trkpt><trkpt lat="42.335079960650454" lon="14.127597161444887"><ele>47.14285714285714</ele><time>2026-05-01T14:36:36Z</time></trkpt><trkpt lat="42.33510911061316" lon="14.127690622398461"><ele>47.42857142857143</ele><time>2026-05-01T14:36:37Z</time></trkpt><trkpt lat="42.33513731777977" lon="14.127785809583669"><ele>47.71428571428571</ele><time>2026-05-01T14:36:38Z</time></trkpt><trkpt lat="42.33516781918959" lon="14.127885456807379"><ele>48.0</ele><time>2026-05-01T14:36:39Z</time></trkpt><trkpt lat="42.335200188137286" lon="14.12797754166624"><ele>48.0</ele><time>2026-05-01T14:36:40Z</time></trkpt><trkpt lat="42.33522735383144" lon="14.12806557980118"><ele>48.0</ele><time>2026-05-01T14:36:41Z</time></trkpt><trkpt lat="42.33525609223721" lon="14.128152657180772"><ele>48.0</ele><time>2026-05-01T14:36:42Z</time></trkpt><trkpt lat="42.33528154093633" lon="14.128231535733594"><ele>48.0</ele><time>2026-05-01T14:36:43Z</time></trkpt><trkpt lat="42.335323845116285" lon="14.128375536741256"><ele>48.0</ele><time>2026-05-01T14:36:45Z</time></trkpt><trkpt lat="42.33537315912009" lon="14.128536740798957"><ele>48.0</ele><time>2026-05-01T14:36:47Z</time></trkpt><trkpt lat="42.33540068270443" lon="14.128624262624736"><ele>48.2</ele><time>2026-05-01T14:36:47.999Z</time></trkpt><trkpt lat="42.335428754158826" lon="14.12870803869607"><ele>48.4</ele><time>2026-05-01T14:36:48.999Z</time></trkpt><trkpt lat="42.335477877551455" lon="14.128852839284948"><ele>48.6</ele><time>2026-05-01T14:36:50.999Z</time></trkpt><trkpt lat="42.335532065206685" lon="14.129004963246478"><ele>48.800000000000004</ele><time>2026-05-01T14:36:52.999Z</time></trkpt><trkpt lat="42.33555904039818" lon="14.129092303017043"><ele>49.0</ele><time>2026-05-01T14:36:53.999Z</time></trkpt><trkpt lat="42.335590830893345" lon="14.129184217759917"><ele>49.166666666666664</ele><time>2026-05-01T14:36:54.999Z</time></trkpt><trkpt lat="42.33562208876239" lon="14.129281711878205"><ele>49.33333333333333</ele><time>2026-05-01T14:36:55.999Z</time></trkpt><trkpt lat="42.33565611945758" lon="14.129382157605312"><ele>49.5</ele><time>2026-05-01T14:36:56.999Z</time></trkpt><trkpt lat="42.33569117405082" lon="14.129491791556704"><ele>49.66666666666667</ele><time>2026-05-01T14:36:57.999Z</time></trkpt><trkpt lat="42.33572681697576" lon="14.129610245473193"><ele>49.833333333333336</ele><time>2026-05-01T14:36:58.999Z</time></trkpt><trkpt lat="42.33576650580525" lon="14.129732538836778"><ele>50.0</ele><time>2026-05-01T14:36:59.999Z</time></trkpt><trkpt lat="42.33580549755142" lon="14.129853637873824"><ele>50.4</ele><time>2026-05-01T14:37:00.999Z</time></trkpt><trkpt lat="42.33583973636279" lon="14.129969684709538"><ele>50.8</ele><time>2026-05-01T14:37:01.999Z</time></trkpt><trkpt lat="42.33587168845499" lon="14.130074782319195"><ele>51.2</ele><time>2026-05-01T14:37:02.999Z</time></trkpt><trkpt lat="42.335906186940925" lon="14.130184031140079"><ele>51.6</ele><time>2026-05-01T14:37:03.999Z</time></trkpt><trkpt lat="42.335942438885496" lon="14.130300856744261"><ele>52.0</ele><time>2026-05-01T14:37:04.999Z</time></trkpt><trkpt lat="42.335981664957984" lon="14.130423420343728"><ele>52.0</ele><time>2026-05-01T14:37:05.999Z</time></trkpt><trkpt lat="42.336020676154206" lon="14.130549275296758"><ele>52.0</ele><time>2026-05-01T14:37:06.999Z</time></trkpt><trkpt lat="42.336058881909175" lon="14.130675645133064"><ele>52.0</ele><time>2026-05-01T14:37:07.999Z</time></trkpt><trkpt lat="42.33609633483756" lon="14.130801385332518"><ele>52.0</ele><time>2026-05-01T14:37:08.999Z</time></trkpt><trkpt lat="42.336134994492745" lon="14.130928003742072"><ele>52.0</ele><time>2026-05-01T14:37:09.999Z</time></trkpt><trkpt lat="42.33617437391181" lon="14.131056850973401"><ele>52.0</ele><time>2026-05-01T14:37:10.999Z</time></trkpt><trkpt lat="42.33621295371642" lon="14.13118591516004"><ele>52.0</ele><time>2026-05-01T14:37:11.999Z</time></trkpt><trkpt lat="42.33625153043275" lon="14.131311608522996"><ele>52.0</ele><time>2026-05-01T14:37:12.999Z</time></trkpt><trkpt lat="42.336289990801895" lon="14.131432529781925"><ele>52.0</ele><time>2026-05-01T14:37:13.999Z</time></trkpt><trkpt lat="42.33632802999904" lon="14.131550040726996"><ele>52.0</ele><time>2026-05-01T14:37:14.999Z</time></trkpt><trkpt lat="42.336366304660366" lon="14.13167717299279"><ele>52.0</ele><time>2026-05-01T14:37:15.999Z</time></trkpt><trkpt lat="42.33640985940406" lon="14.131795897334511"><ele>52.0</ele><time>2026-05-01T14:37:16.999Z</time></trkpt><trkpt lat="42.33645023279167" lon="14.131907546190806"><ele>52.0</ele><time>2026-05-01T14:37:17.999Z</time></trkpt><trkpt lat="42.33649530196501" lon="14.132025101490587"><ele>52.0</ele><time>2026-05-01T14:37:18.999Z</time></trkpt><trkpt lat="42.336549526649485" lon="14.132128886193332"><ele>52.0</ele><time>2026-05-01T14:37:19.999Z</time></trkpt><trkpt lat="42.33660569013698" lon="14.132222121512205"><ele>51.99999999999999</ele><time>2026-05-01T14:37:21Z</time></trkpt><trkpt lat="42.33666231475767" lon="14.132311398341697"><ele>52.0</ele><time>2026-05-01T14:37:22Z</time></trkpt><trkpt lat="42.336723844578394" lon="14.132389966550726"><ele>52.0</ele><time>2026-05-01T14:37:23Z</time></trkpt><trkpt lat="42.33678570521824" lon="14.132466942029309"><ele>52.0</ele><time>2026-05-01T14:37:24Z</time></trkpt><trkpt lat="42.33684617504476" lon="14.132537915885349"><ele>51.99999999999999</ele><time>2026-05-01T14:37:25Z</time></trkpt><trkpt lat="42.33690507990909" lon="14.132598875504216"><ele>52.0</ele><time>2026-05-01T14:37:26Z</time></trkpt><trkpt lat="42.336966613988096" lon="14.132647741676344"><ele>52.400000000000006</ele><time>2026-05-01T14:37:27Z</time></trkpt><trkpt lat="42.33702805910139" lon="14.132693087347072"><ele>52.800000000000004</ele><time>2026-05-01T14:37:28Z</time></trkpt><trkpt lat="42.33713297341151" lon="14.132753273840267"><ele>53.2</ele><time>2026-05-01T14:37:30Z</time></trkpt><trkpt lat="42.337256147799025" lon="14.13283901798875"><ele>53.6</ele><time>2026-05-01T14:37:32Z</time></trkpt><trkpt lat="42.337365397168696" lon="14.132891867110699"><ele>54.0</ele><time>2026-05-01T14:37:33Z</time></trkpt><trkpt lat="42.33750611174389" lon="14.132941861812842"><ele>54.33333333333333</ele><time>2026-05-01T14:37:34Z</time></trkpt><trkpt lat="42.33767003121085" lon="14.13299122098443"><ele>54.666666666666664</ele><time>2026-05-01T14:37:35Z</time></trkpt><trkpt lat="42.337848802639684" lon="14.13304319859322"><ele>55.0</ele><time>2026-05-01T14:37:36Z</time></trkpt><trkpt lat="42.33801092487009" lon="14.133093082930301"><ele>55.0</ele><time>2026-05-01T14:37:37Z</time></trkpt><trkpt lat="42.33816961694283" lon="14.133142816805853"><ele>55.0</ele><time>2026-05-01T14:37:38Z</time></trkpt><trkpt lat="42.33830656198918" lon="14.13318573514719"><ele>55.0</ele><time>2026-05-01T14:37:39Z</time></trkpt><trkpt lat="42.33842275479006" lon="14.133222122070867"><ele>55.0</ele><time>2026-05-01T14:37:40Z</time></trkpt><trkpt lat="42.33853678069912" lon="14.13325777063605"><ele>55.0</ele><time>2026-05-01T14:37:41Z</time></trkpt><trkpt lat="42.33864935973802" lon="14.133292966845818"><ele>55.0</ele><time>2026-05-01T14:37:42Z</time></trkpt><trkpt lat="42.33875214998381" lon="14.133325102733757"><ele>55.0</ele><time>2026-05-01T14:37:43Z</time></trkpt><trkpt lat="42.338850879945966" lon="14.13335527969643"><ele>55.0</ele><time>2026-05-01T14:37:44Z</time></trkpt><trkpt lat="42.33895136782993" lon="14.133385970991812"><ele>55.0</ele><time>2026-05-01T14:37:45Z</time></trkpt><trkpt lat="42.339061518784774" lon="14.133419613608407"><ele>55.25</ele><time>2026-05-01T14:37:46Z</time></trkpt><trkpt lat="42.33918627627035" lon="14.13345735503808"><ele>55.5</ele><time>2026-05-01T14:37:47Z</time></trkpt><trkpt lat="42.33932156874693" lon="14.13349802292609"><ele>55.75</ele><time>2026-05-01T14:37:48Z</time></trkpt><trkpt lat="42.33943813616652" lon="14.13353334169428"><ele>56.0</ele><time>2026-05-01T14:37:49Z</time></trkpt><trkpt lat="42.33953614671811" lon="14.13356366867737"><ele>56.00000000000001</ele><time>2026-05-01T14:37:50Z</time></trkpt><trkpt lat="42.3396252149283" lon="14.133569986891452"><ele>56.0</ele><time>2026-05-01T14:37:51Z</time></trkpt><trkpt lat="42.33971242766097" lon="14.13359941023302"><ele>56.0</ele><time>2026-05-01T14:37:52Z</time></trkpt><trkpt lat="42.33979267313519" lon="14.13362292172766"><ele>56.0</ele><time>2026-05-01T14:37:53Z</time></trkpt><trkpt lat="42.33986612113264" lon="14.13364507721818"><ele>56.00000000000001</ele><time>2026-05-01T14:37:54Z</time></trkpt><trkpt lat="42.33993603095653" lon="14.13368688134861"><ele>56.0</ele><time>2026-05-01T14:37:55Z</time></trkpt><trkpt lat="42.340008916423706" lon="14.133708588159717"><ele>55.833333333333336</ele><time>2026-05-01T14:37:56Z</time></trkpt><trkpt lat="42.34008163709046" lon="14.133707690255434"><ele>55.66666666666667</ele><time>2026-05-01T14:37:57Z</time></trkpt><trkpt lat="42.34013793904594" lon="14.133747696646873"><ele>55.5</ele><time>2026-05-01T14:37:58Z</time></trkpt><trkpt lat="42.340255599297855" lon="14.133763454170793"><ele>55.33333333333333</ele><time>2026-05-01T14:38:00Z</time></trkpt><trkpt lat="42.340334116147375" lon="14.133788050936174"><ele>55.166666666666664</ele><time>2026-05-01T14:38:02Z</time></trkpt><trkpt lat="42.3404064983453" lon="14.13381208282435"><ele>55.0</ele><time>2026-05-01T14:38:04Z</time></trkpt><trkpt lat="42.34048354833945" lon="14.133888084657238"><ele>54.99999999999999</ele><time>2026-05-01T14:38:06Z</time></trkpt><trkpt lat="42.340541069830266" lon="14.133977397583928"><ele>55.0</ele><time>2026-05-01T14:38:09Z</time></trkpt><trkpt lat="42.34062887928238" lon="14.134034916599083"><ele>55.0</ele><time>2026-05-01T14:38:11Z</time></trkpt><trkpt lat="42.34069021472109" lon="14.133962727939123"><ele>55.0</ele><time>2026-05-01T14:38:12Z</time></trkpt><trkpt lat="42.340724593621374" lon="14.133884245097622"><ele>54.99999999999999</ele><time>2026-05-01T14:38:13Z</time></trkpt><trkpt lat="42.340707790001716" lon="14.133733369270644"><ele>55.0</ele><time>2026-05-01T14:38:15Z</time></trkpt><trkpt lat="42.34067626598864" lon="14.133653941945614"><ele>54.6</ele><time>2026-05-01T14:38:16Z</time></trkpt><trkpt lat="42.34066129410979" lon="14.133565697284245"><ele>54.2</ele><time>2026-05-01T14:38:17Z</time></trkpt><trkpt lat="42.3406818686704" lon="14.133461016304993"><ele>53.8</ele><time>2026-05-01T14:38:18Z</time></trkpt><trkpt lat="42.340730558079656" lon="14.133356909775165"><ele>53.4</ele><time>2026-05-01T14:38:19Z</time></trkpt><trkpt lat="42.34079666561821" lon="14.133239409552802"><ele>53.0</ele><time>2026-05-01T14:38:20Z</time></trkpt><trkpt lat="42.3408664114365" lon="14.13310935024215"><ele>52.599999999999994</ele><time>2026-05-01T14:38:21Z</time></trkpt><trkpt lat="42.34093329388013" lon="14.1329844928143"><ele>52.199999999999996</ele><time>2026-05-01T14:38:22Z</time></trkpt><trkpt lat="42.34099713865603" lon="14.132873058059495"><ele>51.8</ele><time>2026-05-01T14:38:23Z</time></trkpt><trkpt lat="42.34105975071135" lon="14.13277361012024"><ele>51.4</ele><time>2026-05-01T14:38:24Z</time></trkpt><trkpt lat="42.34112751847878" lon="14.132670182444194"><ele>51.0</ele><time>2026-05-01T14:38:25Z</time></trkpt><trkpt lat="42.34119925645119" lon="14.132564725305029"><ele>51.0</ele><time>2026-05-01T14:38:26Z</time></trkpt><trkpt lat="42.341273152012064" lon="14.13245895822521"><ele>51.0</ele><time>2026-05-01T14:38:27Z</time></trkpt><trkpt lat="42.341348575345556" lon="14.13235240418054"><ele>51.0</ele><time>2026-05-01T14:38:28Z</time></trkpt><trkpt lat="42.34141549848507" lon="14.132245429577601"><ele>51.0</ele><time>2026-05-01T14:38:29Z</time></trkpt><trkpt lat="42.34147072525915" lon="14.132134419828581"><ele>51.0</ele><time>2026-05-01T14:38:30Z</time></trkpt><trkpt lat="42.34151942041918" lon="14.132012288987028"><ele>50.4</ele><time>2026-05-01T14:38:31Z</time></trkpt><trkpt lat="42.34156375247959" lon="14.131878739708174"><ele>49.8</ele><time>2026-05-01T14:38:32Z</time></trkpt><trkpt lat="42.34160233397151" lon="14.131734852797877"><ele>49.199999999999996</ele><time>2026-05-01T14:38:33Z</time></trkpt><trkpt lat="42.34164394126727" lon="14.131612793000954"><ele>48.599999999999994</ele><time>2026-05-01T14:38:34Z</time></trkpt><trkpt lat="42.34168939887619" lon="14.131497666297715"><ele>48.0</ele><time>2026-05-01T14:38:35Z</time></trkpt><trkpt lat="42.3417225477021" lon="14.131353539119308"><ele>47.8</ele><time>2026-05-01T14:38:36Z</time></trkpt><trkpt lat="42.34177137940796" lon="14.13124598184753"><ele>47.599999999999994</ele><time>2026-05-01T14:38:37Z</time></trkpt><trkpt lat="42.341845957698524" lon="14.131182411014061"><ele>47.400000000000006</ele><time>2026-05-01T14:38:38Z</time></trkpt><trkpt lat="42.34187335411198" lon="14.131056254542372"><ele>47.2</ele><time>2026-05-01T14:38:39Z</time></trkpt><trkpt lat="42.341869232184685" lon="14.13090429800859"><ele>47.0</ele><time>2026-05-01T14:38:40Z</time></trkpt><trkpt lat="42.34189335002421" lon="14.130751232092987"><ele>46.75</ele><time>2026-05-01T14:38:41Z</time></trkpt><trkpt lat="42.34193382622294" lon="14.130595556484714"><ele>46.5</ele><time>2026-05-01T14:38:42Z</time></trkpt><trkpt lat="42.34196833438801" lon="14.130437263077873"><ele>46.25</ele><time>2026-05-01T14:38:43Z</time></trkpt><trkpt lat="42.341998630591284" lon="14.130283813422848"><ele>46.0</ele><time>2026-05-01T14:38:44Z</time></trkpt><trkpt lat="42.34202435740696" lon="14.13015262546882"><ele>46.0</ele><time>2026-05-01T14:38:45Z</time></trkpt><trkpt lat="42.34203182480454" lon="14.130023971450578"><ele>46.0</ele><time>2026-05-01T14:38:46Z</time></trkpt><trkpt lat="42.34203639577936" lon="14.129913832559145"><ele>46.0</ele><time>2026-05-01T14:38:47Z</time></trkpt><trkpt lat="42.34205325610945" lon="14.129809891942847"><ele>46.0</ele><time>2026-05-01T14:38:48Z</time></trkpt><trkpt lat="42.342088601503605" lon="14.129718490224809"><ele>46.0</ele><time>2026-05-01T14:38:49Z</time></trkpt><trkpt lat="42.34213985270115" lon="14.12964364854137"><ele>46.0</ele><time>2026-05-01T14:38:50Z</time></trkpt><trkpt lat="42.34218084730696" lon="14.1295549859674"><ele>45.66666666666667</ele><time>2026-05-01T14:38:51Z</time></trkpt><trkpt lat="42.342193210249974" lon="14.12944813037192"><ele>45.333333333333336</ele><time>2026-05-01T14:38:52Z</time></trkpt><trkpt lat="42.34217603564145" lon="14.129341624901354"><ele>45.0</ele><time>2026-05-01T14:38:53Z</time></trkpt><trkpt lat="42.342131246473855" lon="14.129249458928745"><ele>44.666666666666664</ele><time>2026-05-01T14:38:53.999Z</time></trkpt><trkpt lat="42.34206473303711" lon="14.129181134999723"><ele>44.33333333333333</ele><time>2026-05-01T14:38:54.999Z</time></trkpt><trkpt lat="42.34197968406163" lon="14.12915342248863"><ele>44.0</ele><time>2026-05-01T14:38:55.999Z</time></trkpt><trkpt lat="42.34191936497544" lon="14.129017378501812"><ele>42.75</ele><time>2026-05-01T14:38:56.999Z</time></trkpt><trkpt lat="42.34188010294536" lon="14.128881150384903"><ele>41.5</ele><time>2026-05-01T14:38:57.999Z</time></trkpt><trkpt lat="42.341846222046875" lon="14.128722235443632"><ele>40.25</ele><time>2026-05-01T14:38:58.999Z</time></trkpt><trkpt lat="42.34180513374317" lon="14.128541891246337"><ele>39.0</ele><time>2026-05-01T14:38:59.999Z</time></trkpt><trkpt lat="42.34176554196074" lon="14.128347940217072"><ele>38.5</ele><time>2026-05-01T14:39:00.999Z</time></trkpt><trkpt lat="42.34173276019619" lon="14.128154304481582"><ele>38.0</ele><time>2026-05-01T14:39:01.999Z</time></trkpt><trkpt lat="42.34170167772175" lon="14.127958926149233"><ele>37.5</ele><time>2026-05-01T14:39:02.999Z</time></trkpt><trkpt lat="42.341668189267445" lon="14.127763673883855"><ele>37.0</ele><time>2026-05-01T14:39:03.999Z</time></trkpt><trkpt lat="42.34163472002357" lon="14.127570562040306"><ele>36.333333333333336</ele><time>2026-05-01T14:39:04.999Z</time></trkpt><trkpt lat="42.34160051479769" lon="14.127372627074047"><ele>35.666666666666664</ele><time>2026-05-01T14:39:05.999Z</time></trkpt><trkpt lat="42.341567372871225" lon="14.127170920681767"><ele>35.0</ele><time>2026-05-01T14:39:06.999Z</time></trkpt><trkpt lat="42.34153345526821" lon="14.126969962601096"><ele>35.0</ele><time>2026-05-01T14:39:07.999Z</time></trkpt><trkpt lat="42.34149830376721" lon="14.126769448723751"><ele>35.0</ele><time>2026-05-01T14:39:08.999Z</time></trkpt><trkpt lat="42.341462708035834" lon="14.126574619128725"><ele>35.0</ele><time>2026-05-01T14:39:09.999Z</time></trkpt><trkpt lat="42.34143073744831" lon="14.126384698049968"><ele>35.0</ele><time>2026-05-01T14:39:10.999Z</time></trkpt><trkpt lat="42.34139860243334" lon="14.126192474672184"><ele>35.0</ele><time>2026-05-01T14:39:11.999Z</time></trkpt><trkpt lat="42.34136868084491" lon="14.126009043039042"><ele>35.0</ele><time>2026-05-01T14:39:12.999Z</time></trkpt><trkpt lat="42.341340002079654" lon="14.125829378680185"><ele>35.0</ele><time>2026-05-01T14:39:13.999Z</time></trkpt><trkpt lat="42.34131156557988" lon="14.125659766777732"><ele>35.0</ele><time>2026-05-01T14:39:14.999Z</time></trkpt><trkpt lat="42.34128002423547" lon="14.125490732431656"><ele>35.0</ele><time>2026-05-01T14:39:15.999Z</time></trkpt><trkpt lat="42.341249127311194" lon="14.125316344231384"><ele>35.0</ele><time>2026-05-01T14:39:16.999Z</time></trkpt><trkpt lat="42.3412207798973" lon="14.125142532341957"><ele>35.0</ele><time>2026-05-01T14:39:17.999Z</time></trkpt><trkpt lat="42.341190877052874" lon="14.124968502354353"><ele>35.0</ele><time>2026-05-01T14:39:18.999Z</time></trkpt><trkpt lat="42.34116347713299" lon="14.124794476296646"><ele>35.0</ele><time>2026-05-01T14:39:19.999Z</time></trkpt><trkpt lat="42.34113367646606" lon="14.124616580317191"><ele>35.0</ele><time>2026-05-01T14:39:20.999Z</time></trkpt><trkpt lat="42.341102328718996" lon="14.124437316788393"><ele>35.0</ele><time>2026-05-01T14:39:22Z</time></trkpt><trkpt lat="42.341070091872005" lon="14.124251346742291"><ele>35.0</ele><time>2026-05-01T14:39:23Z</time></trkpt><trkpt lat="42.34103713745894" lon="14.12406220946755"><ele>35.25</ele><time>2026-05-01T14:39:24Z</time></trkpt><trkpt lat="42.34100407304588" lon="14.123868594857242"><ele>35.5</ele><time>2026-05-01T14:39:25Z</time></trkpt><trkpt lat="42.340973447135134" lon="14.123669957056057"><ele>35.75</ele><time>2026-05-01T14:39:26Z</time></trkpt><trkpt lat="42.34094075534032" lon="14.123473523036674"><ele>36.0</ele><time>2026-05-01T14:39:27Z</time></trkpt><trkpt lat="42.34090871427678" lon="14.12327842847772"><ele>35.75</ele><time>2026-05-01T14:39:28Z</time></trkpt><trkpt lat="42.34087812471131" lon="14.123088191036949"><ele>35.5</ele><time>2026-05-01T14:39:29Z</time></trkpt><trkpt lat="42.34084733362773" lon="14.122904890644586"><ele>35.25</ele><time>2026-05-01T14:39:30Z</time></trkpt><trkpt lat="42.340819133947875" lon="14.122728111814526"><ele>35.0</ele><time>2026-05-01T14:39:31Z</time></trkpt><trkpt lat="42.340798001195374" lon="14.12255567612948"><ele>34.75</ele><time>2026-05-01T14:39:32Z</time></trkpt><trkpt lat="42.340789937547" lon="14.122386362961699"><ele>34.5</ele><time>2026-05-01T14:39:33Z</time></trkpt><trkpt lat="42.34079586106847" lon="14.122221300505036"><ele>34.25</ele><time>2026-05-01T14:39:34Z</time></trkpt><trkpt lat="42.34081102160112" lon="14.122061873809908"><ele>34.0</ele><time>2026-05-01T14:39:35Z</time></trkpt><trkpt lat="42.34083835222804" lon="14.121915809978443"><ele>34.0</ele><time>2026-05-01T14:39:36Z</time></trkpt><trkpt lat="42.34087694248309" lon="14.12179510996678"><ele>34.0</ele><time>2026-05-01T14:39:37Z</time></trkpt><trkpt lat="42.34092425948588" lon="14.121705995883493"><ele>34.0</ele><time>2026-05-01T14:39:38Z</time></trkpt><trkpt lat="42.340979715663785" lon="14.12164594728461"><ele>34.0</ele><time>2026-05-01T14:39:39Z</time></trkpt><trkpt lat="42.341042049648244" lon="14.121609108725295"><ele>34.0</ele><time>2026-05-01T14:39:40Z</time></trkpt><trkpt lat="42.34110597570072" lon="14.121576012601393"><ele>34.0</ele><time>2026-05-01T14:39:41Z</time></trkpt><trkpt lat="42.341161230787804" lon="14.121500989820358"><ele>33.2</ele><time>2026-05-01T14:39:42Z</time></trkpt><trkpt lat="42.34119418265879" lon="14.121388410930074"><ele>32.4</ele><time>2026-05-01T14:39:43Z</time></trkpt><trkpt lat="42.341205140330494" lon="14.121260272053162"><ele>31.6</ele><time>2026-05-01T14:39:44Z</time></trkpt><trkpt lat="42.34120382199554" lon="14.12112781514642"><ele>30.8</ele><time>2026-05-01T14:39:45Z</time></trkpt><trkpt lat="42.3412215601258" lon="14.12099411936551"><ele>30.0</ele><time>2026-05-01T14:39:46Z</time></trkpt><trkpt lat="42.34127653184149" lon="14.120875526769428"><ele>30.0</ele><time>2026-05-01T14:39:47Z</time></trkpt><trkpt lat="42.34134585308476" lon="14.120758934931091"><ele>30.0</ele><time>2026-05-01T14:39:48Z</time></trkpt><trkpt lat="42.34142056050365" lon="14.120629561222698"><ele>30.0</ele><time>2026-05-01T14:39:49Z</time></trkpt><trkpt lat="42.341497450100114" lon="14.120485840393771"><ele>30.0</ele><time>2026-05-01T14:39:50Z</time></trkpt><trkpt lat="42.34158004146748" lon="14.120332778231559"><ele>30.25</ele><time>2026-05-01T14:39:51Z</time></trkpt><trkpt lat="42.34166806912797" lon="14.120173360478802"><ele>30.5</ele><time>2026-05-01T14:39:52Z</time></trkpt><trkpt lat="42.34175584972829" lon="14.120016447243076"><ele>30.75</ele><time>2026-05-01T14:39:53Z</time></trkpt><trkpt lat="42.3418379514846" lon="14.1198677332393"><ele>31.0</ele><time>2026-05-01T14:39:54Z</time></trkpt><trkpt lat="42.341913198744095" lon="14.119729004428436"><ele>31.0</ele><time>2026-05-01T14:39:55Z</time></trkpt><trkpt lat="42.341986678307855" lon="14.119602997395228"><ele>31.0</ele><time>2026-05-01T14:39:56Z</time></trkpt><trkpt lat="42.34205057913131" lon="14.119490222225714"><ele>31.0</ele><time>2026-05-01T14:39:57Z</time></trkpt><trkpt lat="42.34210756715197" lon="14.119388107472265"><ele>31.0</ele><time>2026-05-01T14:39:58Z</time></trkpt><trkpt lat="42.34216026395739" lon="14.119284061937737"><ele>31.0</ele><time>2026-05-01T14:39:59Z</time></trkpt><trkpt lat="42.34221967399168" lon="14.11917432661689"><ele>31.4</ele><time>2026-05-01T14:40:00Z</time></trkpt><trkpt lat="42.3422805729894" lon="14.119063113237484"><ele>31.8</ele><time>2026-05-01T14:40:01Z</time></trkpt><trkpt lat="42.34233697205845" lon="14.118945934395612"><ele>32.199999999999996</ele><time>2026-05-01T14:40:02Z</time></trkpt><trkpt lat="42.3423881909537" lon="14.118819514366235"><ele>32.6</ele><time>2026-05-01T14:40:03Z</time></trkpt><trkpt lat="42.34243733665815" lon="14.11867713869353"><ele>33.0</ele><time>2026-05-01T14:40:04Z</time></trkpt><trkpt lat="42.34248231521717" lon="14.11852354715373"><ele>33.0</ele><time>2026-05-01T14:40:05Z</time></trkpt><trkpt lat="42.342521584079584" lon="14.11836262353778"><ele>33.0</ele><time>2026-05-01T14:40:06Z</time></trkpt><trkpt lat="42.34255475439989" lon="14.118198543003293"><ele>33.0</ele><time>2026-05-01T14:40:07Z</time></trkpt><trkpt lat="42.342586641361564" lon="14.118040237282207"><ele>33.0</ele><time>2026-05-01T14:40:08Z</time></trkpt><trkpt lat="42.3426188760012" lon="14.1178850666451"><ele>34.199999999999996</ele><time>2026-05-01T14:40:09Z</time></trkpt><trkpt lat="42.34265021854977" lon="14.117732222639395"><ele>35.4</ele><time>2026-05-01T14:40:10Z</time></trkpt><trkpt lat="42.34267670873466" lon="14.117580440776871"><ele>36.599999999999994</ele><time>2026-05-01T14:40:11Z</time></trkpt><trkpt lat="42.34270321010726" lon="14.117432158337383"><ele>37.8</ele><time>2026-05-01T14:40:12Z</time></trkpt><trkpt lat="42.34272933689207" lon="14.117298107842764"><ele>39.0</ele><time>2026-05-01T14:40:13Z</time></trkpt><trkpt lat="42.34275180817798" lon="14.117175154546256"><ele>40.2</ele><time>2026-05-01T14:40:14Z</time></trkpt><trkpt lat="42.342772622773765" lon="14.117043429195185"><ele>41.4</ele><time>2026-05-01T14:40:15Z</time></trkpt><trkpt lat="42.34279596977044" lon="14.11690497187685"><ele>42.6</ele><time>2026-05-01T14:40:16Z</time></trkpt><trkpt lat="42.342822006579624" lon="14.116762192278324"><ele>43.8</ele><time>2026-05-01T14:40:17Z</time></trkpt><trkpt lat="42.3428510431041" lon="14.116610254805051"><ele>45.0</ele><time>2026-05-01T14:40:18Z</time></trkpt><trkpt lat="42.34288074662262" lon="14.116459506172093"><ele>45.25</ele><time>2026-05-01T14:40:19Z</time></trkpt><trkpt lat="42.3429092821746" lon="14.11630650200798"><ele>45.5</ele><time>2026-05-01T14:40:20Z</time></trkpt><trkpt lat="42.342936905957025" lon="14.116153786753488"><ele>45.75</ele><time>2026-05-01T14:40:21Z</time></trkpt><trkpt lat="42.34296355849143" lon="14.116000205861036"><ele>46.0</ele><time>2026-05-01T14:40:22Z</time></trkpt><trkpt lat="42.342992233283084" lon="14.115849743671124"><ele>46.4</ele><time>2026-05-01T14:40:23Z</time></trkpt><trkpt lat="42.34301938521408" lon="14.115703903645942"><ele>46.8</ele><time>2026-05-01T14:40:24Z</time></trkpt><trkpt lat="42.34304390297401" lon="14.115562933774186"><ele>47.199999999999996</ele><time>2026-05-01T14:40:25Z</time></trkpt><trkpt lat="42.34306398707033" lon="14.115430533871438"><ele>47.599999999999994</ele><time>2026-05-01T14:40:26Z</time></trkpt><trkpt lat="42.343085118120904" lon="14.115301195331204"><ele>48.0</ele><time>2026-05-01T14:40:27Z</time></trkpt><trkpt lat="42.34310655928282" lon="14.115175139232717"><ele>48.0</ele><time>2026-05-01T14:40:28Z</time></trkpt><trkpt lat="42.34312731099208" lon="14.115049552605408"><ele>48.0</ele><time>2026-05-01T14:40:29Z</time></trkpt><trkpt lat="42.34314299842077" lon="14.114926432189405"><ele>48.0</ele><time>2026-05-01T14:40:30Z</time></trkpt><trkpt lat="42.343158419882634" lon="14.11480492295673"><ele>48.0</ele><time>2026-05-01T14:40:31Z</time></trkpt><trkpt lat="42.34317252980791" lon="14.114692497956977"><ele>48.0</ele><time>2026-05-01T14:40:32Z</time></trkpt><trkpt lat="42.34318772788702" lon="14.114580053824538"><ele>48.0</ele><time>2026-05-01T14:40:33Z</time></trkpt><trkpt lat="42.34320381699981" lon="14.114463977285194"><ele>48.0</ele><time>2026-05-01T14:40:34Z</time></trkpt><trkpt lat="42.34321980644779" lon="14.114349157613733"><ele>48.0</ele><time>2026-05-01T14:40:35Z</time></trkpt><trkpt lat="42.34323576042274" lon="14.114233165578186"><ele>48.0</ele><time>2026-05-01T14:40:36Z</time></trkpt><trkpt lat="42.34325104111892" lon="14.114103363081428"><ele>48.0</ele><time>2026-05-01T14:40:37Z</time></trkpt><trkpt lat="42.34326632309824" lon="14.113973151065904"><ele>48.0</ele><time>2026-05-01T14:40:38Z</time></trkpt><trkpt lat="42.343282146226166" lon="14.113848481979256"><ele>47.8</ele><time>2026-05-01T14:40:39Z</time></trkpt><trkpt lat="42.34329849784315" lon="14.113722734524753"><ele>47.599999999999994</ele><time>2026-05-01T14:40:40Z</time></trkpt><trkpt lat="42.343315667209694" lon="14.113597136669501"><ele>47.400000000000006</ele><time>2026-05-01T14:40:41Z</time></trkpt><trkpt lat="42.3433345599286" lon="14.113469756446847"><ele>47.2</ele><time>2026-05-01T14:40:42Z</time></trkpt><trkpt lat="42.34335291798275" lon="14.11334031769265"><ele>47.0</ele><time>2026-05-01T14:40:43Z</time></trkpt><trkpt lat="42.34337086864177" lon="14.113206810968645"><ele>47.0</ele><time>2026-05-01T14:40:44Z</time></trkpt><trkpt lat="42.34338867068638" lon="14.113069635999052"><ele>47.0</ele><time>2026-05-01T14:40:45Z</time></trkpt><trkpt lat="42.3434055350272" lon="14.112935155839988"><ele>47.0</ele><time>2026-05-01T14:40:46Z</time></trkpt><trkpt lat="42.343422361958886" lon="14.11280566610226"><ele>47.0</ele><time>2026-05-01T14:40:47Z</time></trkpt><trkpt lat="42.343438597299965" lon="14.112678940384008"><ele>47.0</ele><time>2026-05-01T14:40:48Z</time></trkpt><trkpt lat="42.34345476955938" lon="14.112559968653521"><ele>47.0</ele><time>2026-05-01T14:40:49Z</time></trkpt><trkpt lat="42.343469976235575" lon="14.112455527327217"><ele>47.0</ele><time>2026-05-01T14:40:50Z</time></trkpt><trkpt lat="42.343483318918565" lon="14.112356750788116"><ele>47.0</ele><time>2026-05-01T14:40:51Z</time></trkpt><trkpt lat="42.34349564701092" lon="14.112262174186581"><ele>47.0</ele><time>2026-05-01T14:40:52Z</time></trkpt><trkpt lat="42.3435069980628" lon="14.112175649533864"><ele>47.0</ele><time>2026-05-01T14:40:53Z</time></trkpt><trkpt lat="42.34351781630327" lon="14.112088531927318"><ele>47.0</ele><time>2026-05-01T14:40:54Z</time></trkpt><trkpt lat="42.34353805835392" lon="14.111926394319951"><ele>47.0</ele><time>2026-05-01T14:40:56Z</time></trkpt><trkpt lat="42.34355716605206" lon="14.111788343393139"><ele>47.0</ele><time>2026-05-01T14:40:58Z</time></trkpt><trkpt lat="42.34357479142101" lon="14.111665835817933"><ele>47.0</ele><time>2026-05-01T14:40:59.999Z</time></trkpt><trkpt lat="42.343603701275356" lon="14.11154426992924"><ele>47.0</ele><time>2026-05-01T14:41:01.999Z</time></trkpt><trkpt lat="42.3436875479703" lon="14.111458082611811"><ele>47.0</ele><time>2026-05-01T14:41:03.999Z</time></trkpt><trkpt lat="42.34379568679712" lon="14.11149317996757"><ele>47.2</ele><time>2026-05-01T14:41:05.999Z</time></trkpt><trkpt lat="42.34386764799242" lon="14.111549862413257"><ele>47.400000000000006</ele><time>2026-05-01T14:41:06.999Z</time></trkpt><trkpt lat="42.34395107693053" lon="14.111603640112925"><ele>47.599999999999994</ele><time>2026-05-01T14:41:07.999Z</time></trkpt><trkpt lat="42.34404591121962" lon="14.11165995715394"><ele>47.8</ele><time>2026-05-01T14:41:08.999Z</time></trkpt><trkpt lat="42.34414745770247" lon="14.111719568996325"><ele>48.0</ele><time>2026-05-01T14:41:09.999Z</time></trkpt><trkpt lat="42.344256816719714" lon="14.111787753956566"><ele>48.0</ele><time>2026-05-01T14:41:10.999Z</time></trkpt><trkpt lat="42.344370449170036" lon="14.111863193605517"><ele>48.0</ele><time>2026-05-01T14:41:11.999Z</time></trkpt><trkpt lat="42.3444908124574" lon="14.111944030371523"><ele>48.0</ele><time>2026-05-01T14:41:12.999Z</time></trkpt><trkpt lat="42.344611965626264" lon="14.1120253870924"><ele>48.0</ele><time>2026-05-01T14:41:13.999Z</time></trkpt><trkpt lat="42.34472984150795" lon="14.112104970845072"><ele>47.25</ele><time>2026-05-01T14:41:14.999Z</time></trkpt><trkpt lat="42.344844502750185" lon="14.112182493746472"><ele>46.5</ele><time>2026-05-01T14:41:15.999Z</time></trkpt><trkpt lat="42.344953000957055" lon="14.112250621776415"><ele>45.75</ele><time>2026-05-01T14:41:16.999Z</time></trkpt><trkpt lat="42.345057204230315" lon="14.112311796209841"><ele>45.0</ele><time>2026-05-01T14:41:17.999Z</time></trkpt><trkpt lat="42.34516238139889" lon="14.112361149073479"><ele>45.0</ele><time>2026-05-01T14:41:18.999Z</time></trkpt><trkpt lat="42.345263829248836" lon="14.11240398383964"><ele>45.0</ele><time>2026-05-01T14:41:19.999Z</time></trkpt><trkpt lat="42.345369468177914" lon="14.112445678220041"><ele>45.0</ele><time>2026-05-01T14:41:20.999Z</time></trkpt><trkpt lat="42.34547737005368" lon="14.112479970613228"><ele>45.0</ele><time>2026-05-01T14:41:21.999Z</time></trkpt><trkpt lat="42.34558306406461" lon="14.112509031449667"><ele>45.0</ele><time>2026-05-01T14:41:22.999Z</time></trkpt><trkpt lat="42.34568606179909" lon="14.11253646390649"><ele>45.2</ele><time>2026-05-01T14:41:23.999Z</time></trkpt><trkpt lat="42.3457879303301" lon="14.112562355270995"><ele>45.4</ele><time>2026-05-01T14:41:24.999Z</time></trkpt><trkpt lat="42.34588756082189" lon="14.112588950885574"><ele>45.599999999999994</ele><time>2026-05-01T14:41:26Z</time></trkpt><trkpt lat="42.34598644311223" lon="14.112618583840492"><ele>45.8</ele><time>2026-05-01T14:41:27Z</time></trkpt><trkpt lat="42.34608645008396" lon="14.112650649714423"><ele>46.0</ele><time>2026-05-01T14:41:28Z</time></trkpt><trkpt lat="42.346187593216264" lon="14.112686676418557"><ele>46.0</ele><time>2026-05-01T14:41:29Z</time></trkpt><trkpt lat="42.346289410790796" lon="14.112727585751454"><ele>46.0</ele><time>2026-05-01T14:41:30Z</time></trkpt><trkpt lat="42.346394649430195" lon="14.112777356813863"><ele>46.0</ele><time>2026-05-01T14:41:31Z</time></trkpt><trkpt lat="42.34649934932796" lon="14.112829856531738"><ele>46.0</ele><time>2026-05-01T14:41:32Z</time></trkpt><trkpt lat="42.34661094404134" lon="14.112881833441534"><ele>46.0</ele><time>2026-05-01T14:41:33Z</time></trkpt><trkpt lat="42.34673103428871" lon="14.112940861245152"><ele>45.5</ele><time>2026-05-01T14:41:34Z</time></trkpt><trkpt lat="42.34685799491963" lon="14.113007241935762"><ele>45.0</ele><time>2026-05-01T14:41:35Z</time></trkpt><trkpt lat="42.346976305435064" lon="14.113064355855702"><ele>44.5</ele><time>2026-05-01T14:41:36Z</time></trkpt><trkpt lat="42.34709112089358" lon="14.113116485776318"><ele>44.0</ele><time>2026-05-01T14:41:37Z</time></trkpt><trkpt lat="42.347202220272194" lon="14.113168746211837"><ele>44.2</ele><time>2026-05-01T14:41:38Z</time></trkpt><trkpt lat="42.347310752907575" lon="14.113225296320268"><ele>44.400000000000006</ele><time>2026-05-01T14:41:39Z</time></trkpt><trkpt lat="42.347415694233064" lon="14.113277961599568"><ele>44.6</ele><time>2026-05-01T14:41:40Z</time></trkpt><trkpt lat="42.347519318702076" lon="14.11332816629074"><ele>44.8</ele><time>2026-05-01T14:41:41Z</time></trkpt><trkpt lat="42.34762252170827" lon="14.113378017858645"><ele>45.0</ele><time>2026-05-01T14:41:42Z</time></trkpt><trkpt lat="42.34772217329668" lon="14.113427640932667"><ele>45.0</ele><time>2026-05-01T14:41:43Z</time></trkpt><trkpt lat="42.34781985736196" lon="14.113474481010595"><ele>45.0</ele><time>2026-05-01T14:41:44Z</time></trkpt><trkpt lat="42.347915929462175" lon="14.113521284390764"><ele>45.0</ele><time>2026-05-01T14:41:45Z</time></trkpt><trkpt lat="42.34801244512003" lon="14.113568044141784"><ele>45.0</ele><time>2026-05-01T14:41:46Z</time></trkpt><trkpt lat="42.34810935383604" lon="14.113611251974596"><ele>45.0</ele><time>2026-05-01T14:41:47Z</time></trkpt><trkpt lat="42.34820651536179" lon="14.113647250064645"><ele>45.0</ele><time>2026-05-01T14:41:48Z</time></trkpt><trkpt lat="42.34829928043752" lon="14.113689945090428"><ele>45.0</ele><time>2026-05-01T14:41:49Z</time></trkpt><trkpt lat="42.348403965539" lon="14.113651452185483"><ele>45.0</ele><time>2026-05-01T14:41:50Z</time></trkpt><trkpt lat="42.3485031981747" lon="14.113616919197105"><ele>45.0</ele><time>2026-05-01T14:41:51Z</time></trkpt><trkpt lat="42.348606710914574" lon="14.11356090211995"><ele>45.0</ele><time>2026-05-01T14:41:52Z</time></trkpt><trkpt lat="42.34871098390479" lon="14.113496807490069"><ele>45.0</ele><time>2026-05-01T14:41:53Z</time></trkpt><trkpt lat="42.34881829444997" lon="14.113428795802838"><ele>45.0</ele><time>2026-05-01T14:41:54Z</time></trkpt><trkpt lat="42.34892762477591" lon="14.113362247574305"><ele>45.0</ele><time>2026-05-01T14:41:55Z</time></trkpt><trkpt lat="42.34903553301201" lon="14.113294972515126"><ele>45.0</ele><time>2026-05-01T14:41:56Z</time></trkpt><trkpt lat="42.34913800760802" lon="14.113224522685991"><ele>44.2</ele><time>2026-05-01T14:41:57Z</time></trkpt><trkpt lat="42.34924517950494" lon="14.113179556121958"><ele>43.4</ele><time>2026-05-01T14:41:58Z</time></trkpt><trkpt lat="42.349340137060324" lon="14.113117404313234"><ele>42.599999999999994</ele><time>2026-05-01T14:41:59Z</time></trkpt><trkpt lat="42.34942660430543" lon="14.113057509932053"><ele>41.8</ele><time>2026-05-01T14:42:00Z</time></trkpt><trkpt lat="42.34949448936593" lon="14.112985240222878"><ele>41.0</ele><time>2026-05-01T14:42:01Z</time></trkpt><trkpt lat="42.34956409767138" lon="14.112937119429727"><ele>41.0</ele><time>2026-05-01T14:42:02Z</time></trkpt><trkpt lat="42.34963048725205" lon="14.112892109896816"><ele>41.0</ele><time>2026-05-01T14:42:03Z</time></trkpt><trkpt lat="42.349700592017506" lon="14.112843833296912"><ele>41.0</ele><time>2026-05-01T14:42:04Z</time></trkpt><trkpt lat="42.34977544424656" lon="14.112795741578461"><ele>41.0</ele><time>2026-05-01T14:42:05Z</time></trkpt><trkpt lat="42.34984405154631" lon="14.112754831543736"><ele>41.0</ele><time>2026-05-01T14:42:06Z</time></trkpt><trkpt lat="42.34991723056935" lon="14.112711416992001"><ele>41.0</ele><time>2026-05-01T14:42:07Z</time></trkpt><trkpt lat="42.35000366362603" lon="14.11265990617412"><ele>41.75</ele><time>2026-05-01T14:42:08Z</time></trkpt><trkpt lat="42.35010841687008" lon="14.11260641438619"><ele>42.5</ele><time>2026-05-01T14:42:09Z</time></trkpt><trkpt lat="42.350231509062056" lon="14.112560756698588"><ele>43.25</ele><time>2026-05-01T14:42:10Z</time></trkpt><trkpt lat="42.350369402241384" lon="14.112526490215574"><ele>44.0</ele><time>2026-05-01T14:42:11Z</time></trkpt><trkpt lat="42.350514717531155" lon="14.112507165602498"><ele>44.0</ele><time>2026-05-01T14:42:12Z</time></trkpt><trkpt lat="42.35065904346493" lon="14.112506530517711"><ele>44.0</ele><time>2026-05-01T14:42:13Z</time></trkpt><trkpt lat="42.35079727337004" lon="14.11252383179258"><ele>44.0</ele><time>2026-05-01T14:42:14Z</time></trkpt><trkpt lat="42.35092414424918" lon="14.112548664355208"><ele>44.0</ele><time>2026-05-01T14:42:15Z</time></trkpt><trkpt lat="42.35104565287576" lon="14.112583991062365"><ele>44.0</ele><time>2026-05-01T14:42:16Z</time></trkpt><trkpt lat="42.351167420145735" lon="14.112625924700488"><ele>44.0</ele><time>2026-05-01T14:42:17Z</time></trkpt><trkpt lat="42.35129034370381" lon="14.112671459861115"><ele>44.0</ele><time>2026-05-01T14:42:18Z</time></trkpt><trkpt lat="42.3514235549699" lon="14.112723813013233"><ele>44.0</ele><time>2026-05-01T14:42:19Z</time></trkpt><trkpt lat="42.351564225925905" lon="14.112780759973568"><ele>43.0</ele><time>2026-05-01T14:42:20Z</time></trkpt><trkpt lat="42.35170396315706" lon="14.112839623403687"><ele>42.0</ele><time>2026-05-01T14:42:21Z</time></trkpt><trkpt lat="42.35184216396438" lon="14.112901561456235"><ele>41.0</ele><time>2026-05-01T14:42:22Z</time></trkpt><trkpt lat="42.35198301601165" lon="14.11296058945574"><ele>40.0</ele><time>2026-05-01T14:42:23Z</time></trkpt><trkpt lat="42.3521318902224" lon="14.113021750353143"><ele>38.333333333333336</ele><time>2026-05-01T14:42:24Z</time></trkpt><trkpt lat="42.35228945102244" lon="14.113088111538682"><ele>36.666666666666664</ele><time>2026-05-01T14:42:25Z</time></trkpt><trkpt lat="42.3524519296962" lon="14.113155085315029"><ele>35.0</ele><time>2026-05-01T14:42:26Z</time></trkpt><trkpt lat="42.35261844058633" lon="14.113221553451625"><ele>35.0</ele><time>2026-05-01T14:42:27Z</time></trkpt><trkpt lat="42.35278586610338" lon="14.113287411035394"><ele>35.0</ele><time>2026-05-01T14:42:28Z</time></trkpt><trkpt lat="42.35295066972491" lon="14.113353162795715"><ele>35.0</ele><time>2026-05-01T14:42:29Z</time></trkpt><trkpt lat="42.35311295271862" lon="14.113419418593137"><ele>35.0</ele><time>2026-05-01T14:42:30Z</time></trkpt><trkpt lat="42.35327480895224" lon="14.113484972697325"><ele>35.0</ele><time>2026-05-01T14:42:31Z</time></trkpt><trkpt lat="42.35343517507618" lon="14.113549273606885"><ele>35.0</ele><time>2026-05-01T14:42:32Z</time></trkpt><trkpt lat="42.35359345483029" lon="14.113611729845058"><ele>35.0</ele><time>2026-05-01T14:42:33Z</time></trkpt><trkpt lat="42.353749318508655" lon="14.113672749343284"><ele>35.0</ele><time>2026-05-01T14:42:34Z</time></trkpt><trkpt lat="42.353903292576405" lon="14.113734073687302"><ele>35.0</ele><time>2026-05-01T14:42:35Z</time></trkpt><trkpt lat="42.35405732258198" lon="14.11379650177471"><ele>35.33333333333333</ele><time>2026-05-01T14:42:36Z</time></trkpt><trkpt lat="42.35420976634822" lon="14.113857344036596"><ele>35.666666666666664</ele><time>2026-05-01T14:42:37Z</time></trkpt><trkpt lat="42.35436294279223" lon="14.1139180976418"><ele>36.0</ele><time>2026-05-01T14:42:38Z</time></trkpt><trkpt lat="42.35451719975366" lon="14.113979351502987"><ele>36.0</ele><time>2026-05-01T14:42:39Z</time></trkpt><trkpt lat="42.35466970866022" lon="14.114040928945748"><ele>36.0</ele><time>2026-05-01T14:42:40Z</time></trkpt><trkpt lat="42.35482532688243" lon="14.114105266099715"><ele>36.0</ele><time>2026-05-01T14:42:41Z</time></trkpt><trkpt lat="42.354982575520715" lon="14.114168952746526"><ele>36.333333333333336</ele><time>2026-05-01T14:42:42Z</time></trkpt><trkpt lat="42.355138903326846" lon="14.114229593785089"><ele>36.66666666666667</ele><time>2026-05-01T14:42:43Z</time></trkpt><trkpt lat="42.355296704906934" lon="14.114292996820438"><ele>37.0</ele><time>2026-05-01T14:42:44Z</time></trkpt><trkpt lat="42.35545278305032" lon="14.114356155362584"><ele>40.333333333333336</ele><time>2026-05-01T14:42:45Z</time></trkpt><trkpt lat="42.35560897166397" lon="14.114418304918734"><ele>43.666666666666664</ele><time>2026-05-01T14:42:46Z</time></trkpt><trkpt lat="42.355766221072884" lon="14.114482200306522"><ele>47.0</ele><time>2026-05-01T14:42:47Z</time></trkpt><trkpt lat="42.35592272028671" lon="14.114547441503296"><ele>47.0</ele><time>2026-05-01T14:42:48Z</time></trkpt><trkpt lat="42.35608228668042" lon="14.11461247393994"><ele>47.0</ele><time>2026-05-01T14:42:49Z</time></trkpt><trkpt lat="42.3562437172198" lon="14.114676364970936"><ele>47.0</ele><time>2026-05-01T14:42:50Z</time></trkpt><trkpt lat="42.35640493847302" lon="14.114740563250159"><ele>47.666666666666664</ele><time>2026-05-01T14:42:51Z</time></trkpt><trkpt lat="42.35656841076731" lon="14.114805157232858"><ele>48.33333333333333</ele><time>2026-05-01T14:42:52Z</time></trkpt><trkpt lat="42.356732341827474" lon="14.114869984392097"><ele>49.0</ele><time>2026-05-01T14:42:53Z</time></trkpt><trkpt lat="42.35689428000777" lon="14.114934088640668"><ele>46.33333333333333</ele><time>2026-05-01T14:42:54Z</time></trkpt><trkpt lat="42.35705449998744" lon="14.11499816546063"><ele>43.666666666666664</ele><time>2026-05-01T14:42:55Z</time></trkpt><trkpt lat="42.35721097257156" lon="14.115060137700855"><ele>41.0</ele><time>2026-05-01T14:42:56Z</time></trkpt><trkpt lat="42.357369941098966" lon="14.115123526101545"><ele>41.0</ele><time>2026-05-01T14:42:57Z</time></trkpt><trkpt lat="42.357530237544175" lon="14.115187645534453"><ele>41.0</ele><time>2026-05-01T14:42:58Z</time></trkpt><trkpt lat="42.357691604656054" lon="14.115254099912796"><ele>41.0</ele><time>2026-05-01T14:42:59Z</time></trkpt><trkpt lat="42.35785426956054" lon="14.11532261184749"><ele>41.0</ele><time>2026-05-01T14:43:00Z</time></trkpt><trkpt lat="42.35801879269404" lon="14.115391839690927"><ele>41.0</ele><time>2026-05-01T14:43:01Z</time></trkpt><trkpt lat="42.3581867626018" lon="14.115459089673012"><ele>41.0</ele><time>2026-05-01T14:43:02Z</time></trkpt><trkpt lat="42.358356230660654" lon="14.115529542270902"><ele>41.0</ele><time>2026-05-01T14:43:03Z</time></trkpt><trkpt lat="42.358526922413894" lon="14.115597742569408"><ele>41.0</ele><time>2026-05-01T14:43:04Z</time></trkpt><trkpt lat="42.35870172839127" lon="14.115664695300387"><ele>41.0</ele><time>2026-05-01T14:43:05Z</time></trkpt><trkpt lat="42.358872992833916" lon="14.115730311671085"><ele>39.33333333333333</ele><time>2026-05-01T14:43:06Z</time></trkpt><trkpt lat="42.35904349653564" lon="14.115795372019809"><ele>37.666666666666664</ele><time>2026-05-01T14:43:07Z</time></trkpt><trkpt lat="42.35921320006271" lon="14.1158646319055"><ele>36.0</ele><time>2026-05-01T14:43:08Z</time></trkpt><trkpt lat="42.35938199416491" lon="14.115936755664295"><ele>36.0</ele><time>2026-05-01T14:43:09Z</time></trkpt><trkpt lat="42.35955178141251" lon="14.116009822638132"><ele>36.0</ele><time>2026-05-01T14:43:10Z</time></trkpt><trkpt lat="42.359718229347386" lon="14.116083588202194"><ele>36.0</ele><time>2026-05-01T14:43:11Z</time></trkpt><trkpt lat="42.35988503054205" lon="14.116157485761198"><ele>36.333333333333336</ele><time>2026-05-01T14:43:12Z</time></trkpt><trkpt lat="42.36005169589852" lon="14.116230377761294"><ele>36.66666666666667</ele><time>2026-05-01T14:43:13Z</time></trkpt><trkpt lat="42.360217430754176" lon="14.116304918614137"><ele>37.0</ele><time>2026-05-01T14:43:14Z</time></trkpt><trkpt lat="42.360381673528764" lon="14.116380563996447"><ele>38.66666666666667</ele><time>2026-05-01T14:43:15Z</time></trkpt><trkpt lat="42.36054371302664" lon="14.116455064808354"><ele>40.333333333333336</ele><time>2026-05-01T14:43:16Z</time></trkpt><trkpt lat="42.36070464521461" lon="14.116527443300384"><ele>42.0</ele><time>2026-05-01T14:43:17Z</time></trkpt><trkpt lat="42.3608633305741" lon="14.116599104830279"><ele>38.0</ele><time>2026-05-01T14:43:18Z</time></trkpt><trkpt lat="42.36102057672351" lon="14.116669754473307"><ele>34.0</ele><time>2026-05-01T14:43:19Z</time></trkpt><trkpt lat="42.36117560865219" lon="14.116739293496684"><ele>30.0</ele><time>2026-05-01T14:43:20Z</time></trkpt><trkpt lat="42.36133183627757" lon="14.116808940204569"><ele>32.0</ele><time>2026-05-01T14:43:21Z</time></trkpt><trkpt lat="42.361486799100156" lon="14.116878542286996"><ele>34.0</ele><time>2026-05-01T14:43:22Z</time></trkpt><trkpt lat="42.36164318218726" lon="14.11694977802441"><ele>36.0</ele><time>2026-05-01T14:43:23Z</time></trkpt><trkpt lat="42.361799764690645" lon="14.117021848572845"><ele>36.0</ele><time>2026-05-01T14:43:24Z</time></trkpt><trkpt lat="42.36195903924462" lon="14.117095717840444"><ele>36.0</ele><time>2026-05-01T14:43:25Z</time></trkpt><trkpt lat="42.362120618443235" lon="14.117166732775424"><ele>36.0</ele><time>2026-05-01T14:43:26Z</time></trkpt><trkpt lat="42.36228235510891" lon="14.117236848355216"><ele>39.0</ele><time>2026-05-01T14:43:27Z</time></trkpt><trkpt lat="42.36243910542091" lon="14.117303363305068"><ele>42.0</ele><time>2026-05-01T14:43:28Z</time></trkpt><trkpt lat="42.362591718871094" lon="14.117359570785593"><ele>45.0</ele><time>2026-05-01T14:43:29Z</time></trkpt><trkpt lat="42.36274713107791" lon="14.117401545450411"><ele>40.333333333333336</ele><time>2026-05-01T14:43:30Z</time></trkpt><trkpt lat="42.36290528289971" lon="14.117430323895434"><ele>35.66666666666667</ele><time>2026-05-01T14:43:31Z</time></trkpt><trkpt lat="42.363066170974975" lon="14.117445521535714"><ele>31.0</ele><time>2026-05-01T14:43:32Z</time></trkpt><trkpt lat="42.36322656112306" lon="14.117452665425786"><ele>31.0</ele><time>2026-05-01T14:43:33Z</time></trkpt><trkpt lat="42.363390369668394" lon="14.117458293131035"><ele>31.0</ele><time>2026-05-01T14:43:34Z</time></trkpt><trkpt lat="42.36355266383207" lon="14.117459487295415"><ele>31.0</ele><time>2026-05-01T14:43:35Z</time></trkpt><trkpt lat="42.36370955665133" lon="14.117458708653249"><ele>31.666666666666668</ele><time>2026-05-01T14:43:36Z</time></trkpt><trkpt lat="42.363864672645384" lon="14.1174589040665"><ele>32.333333333333336</ele><time>2026-05-01T14:43:37Z</time></trkpt><trkpt lat="42.36401113614233" lon="14.117466840525974"><ele>33.0</ele><time>2026-05-01T14:43:38Z</time></trkpt><trkpt lat="42.36415868865329" lon="14.117489903719374"><ele>33.0</ele><time>2026-05-01T14:43:39Z</time></trkpt><trkpt lat="42.36430814889973" lon="14.117529304037042"><ele>33.0</ele><time>2026-05-01T14:43:40Z</time></trkpt><trkpt lat="42.36445715438215" lon="14.117591559427801"><ele>33.0</ele><time>2026-05-01T14:43:41Z</time></trkpt><trkpt lat="42.364606520753384" lon="14.117674162434886"><ele>32.666666666666664</ele><time>2026-05-01T14:43:42Z</time></trkpt><trkpt lat="42.36475465727343" lon="14.117767809769475"><ele>32.33333333333333</ele><time>2026-05-01T14:43:43Z</time></trkpt><trkpt lat="42.36490880444796" lon="14.117867455406804"><ele>32.0</ele><time>2026-05-01T14:43:44Z</time></trkpt><trkpt lat="42.36506298334984" lon="14.117970595359829"><ele>32.0</ele><time>2026-05-01T14:43:45Z</time></trkpt><trkpt lat="42.36521772142126" lon="14.118076263205385"><ele>32.0</ele><time>2026-05-01T14:43:46Z</time></trkpt><trkpt lat="42.365373209696216" lon="14.118182127253423"><ele>32.0</ele><time>2026-05-01T14:43:47Z</time></trkpt><trkpt lat="42.365526065239976" lon="14.118288878419182"><ele>30.666666666666664</ele><time>2026-05-01T14:43:48Z</time></trkpt><trkpt lat="42.36567857814749" lon="14.11839527778776"><ele>29.333333333333336</ele><time>2026-05-01T14:43:49Z</time></trkpt><trkpt lat="42.365831155381564" lon="14.118501936851757"><ele>28.0</ele><time>2026-05-01T14:43:50Z</time></trkpt><trkpt lat="42.36598319225537" lon="14.1186045532368"><ele>28.0</ele><time>2026-05-01T14:43:51Z</time></trkpt><trkpt lat="42.366134304683335" lon="14.118702547470827"><ele>28.0</ele><time>2026-05-01T14:43:52Z</time></trkpt><trkpt lat="42.36628427569208" lon="14.118800092133872"><ele>28.0</ele><time>2026-05-01T14:43:53Z</time></trkpt><trkpt lat="42.36643126791015" lon="14.11889998027292"><ele>28.0</ele><time>2026-05-01T14:43:54Z</time></trkpt><trkpt lat="42.36657707391267" lon="14.119005582882764"><ele>28.0</ele><time>2026-05-01T14:43:55Z</time></trkpt><trkpt lat="42.36672394628459" lon="14.119108157676212"><ele>28.0</ele><time>2026-05-01T14:43:56Z</time></trkpt><trkpt lat="42.36687115400935" lon="14.119213269100786"><ele>28.0</ele><time>2026-05-01T14:43:57Z</time></trkpt><trkpt lat="42.36701936851918" lon="14.119318247777498"><ele>28.0</ele><time>2026-05-01T14:43:58Z</time></trkpt><trkpt lat="42.36716974160884" lon="14.119422987904375"><ele>28.0</ele><time>2026-05-01T14:43:59Z</time></trkpt><trkpt lat="42.36732139089733" lon="14.11952639008452"><ele>28.0</ele><time>2026-05-01T14:44:00Z</time></trkpt><trkpt lat="42.36747188915722" lon="14.119628604000091"><ele>28.0</ele><time>2026-05-01T14:44:01Z</time></trkpt><trkpt lat="42.36762129456678" lon="14.11973198999009"><ele>28.0</ele><time>2026-05-01T14:44:02Z</time></trkpt><trkpt lat="42.367769862250924" lon="14.119833918992663"><ele>28.0</ele><time>2026-05-01T14:44:03Z</time></trkpt><trkpt lat="42.36790937730487" lon="14.119931498629121"><ele>28.0</ele><time>2026-05-01T14:44:04Z</time></trkpt><trkpt lat="42.368040382563954" lon="14.120022632559188"><ele>28.0</ele><time>2026-05-01T14:44:05Z</time></trkpt><trkpt lat="42.36816713726199" lon="14.120106126535836"><ele>28.0</ele><time>2026-05-01T14:44:06Z</time></trkpt><trkpt lat="42.36829642588013" lon="14.120177320376651"><ele>28.333333333333336</ele><time>2026-05-01T14:44:07Z</time></trkpt><trkpt lat="42.36843625560996" lon="14.120230509332458"><ele>28.666666666666664</ele><time>2026-05-01T14:44:08Z</time></trkpt><trkpt lat="42.3685848599287" lon="14.120265872085414"><ele>29.0</ele><time>2026-05-01T14:44:09Z</time></trkpt><trkpt lat="42.36874177067844" lon="14.120288889369801"><ele>31.666666666666664</ele><time>2026-05-01T14:44:10Z</time></trkpt><trkpt lat="42.36890062033124" lon="14.120311023276335"><ele>34.333333333333336</ele><time>2026-05-01T14:44:11Z</time></trkpt><trkpt lat="42.36906504688271" lon="14.120331796595119"><ele>37.0</ele><time>2026-05-01T14:44:12Z</time></trkpt><trkpt lat="42.369231263552486" lon="14.120352865295676"><ele>37.0</ele><time>2026-05-01T14:44:13Z</time></trkpt><trkpt lat="42.369399689138554" lon="14.12037246904508"><ele>37.0</ele><time>2026-05-01T14:44:14Z</time></trkpt><trkpt lat="42.369566763637835" lon="14.120392722791642"><ele>37.0</ele><time>2026-05-01T14:44:15Z</time></trkpt><trkpt lat="42.36973436484766" lon="14.120413170981767"><ele>37.0</ele><time>2026-05-01T14:44:16Z</time></trkpt><trkpt lat="42.36990252100152" lon="14.120435127687253"><ele>37.0</ele><time>2026-05-01T14:44:17Z</time></trkpt><trkpt lat="42.37006691790117" lon="14.120457840711541"><ele>37.0</ele><time>2026-05-01T14:44:18Z</time></trkpt><trkpt lat="42.37022680879738" lon="14.120475683695906"><ele>37.0</ele><time>2026-05-01T14:44:19Z</time></trkpt><trkpt lat="42.370383986938556" lon="14.120493028439277"><ele>37.0</ele><time>2026-05-01T14:44:20Z</time></trkpt><trkpt lat="42.37053727650371" lon="14.120514832701186"><ele>37.0</ele><time>2026-05-01T14:44:21Z</time></trkpt><trkpt lat="42.370684930009716" lon="14.120540570121204"><ele>37.333333333333336</ele><time>2026-05-01T14:44:22Z</time></trkpt><trkpt lat="42.37083234717691" lon="14.12057781549281"><ele>37.666666666666664</ele><time>2026-05-01T14:44:23Z</time></trkpt><trkpt lat="42.37097992453381" lon="14.120629000329288"><ele>38.0</ele><time>2026-05-01T14:44:24Z</time></trkpt><trkpt lat="42.37112741842868" lon="14.120685946810097"><ele>36.33333333333333</ele><time>2026-05-01T14:44:25Z</time></trkpt><trkpt lat="42.371276445143934" lon="14.120747737301725"><ele>34.666666666666664</ele><time>2026-05-01T14:44:26Z</time></trkpt><trkpt lat="42.37143098635404" lon="14.120815509176987"><ele>33.0</ele><time>2026-05-01T14:44:27Z</time></trkpt><trkpt lat="42.37158249359234" lon="14.120885411996905"><ele>33.0</ele><time>2026-05-01T14:44:28Z</time></trkpt><trkpt lat="42.371729729043544" lon="14.120952084770234"><ele>33.0</ele><time>2026-05-01T14:44:29Z</time></trkpt><trkpt lat="42.37187136610586" lon="14.121017834305222"><ele>33.0</ele><time>2026-05-01T14:44:30Z</time></trkpt><trkpt lat="42.37200468306383" lon="14.12108725213488"><ele>33.0</ele><time>2026-05-01T14:44:31Z</time></trkpt><trkpt lat="42.372130386578135" lon="14.121163335637283"><ele>35.5</ele><time>2026-05-01T14:44:32Z</time></trkpt><trkpt lat="42.37224774442259" lon="14.121250386866523"><ele>38.0</ele><time>2026-05-01T14:44:33Z</time></trkpt><trkpt lat="42.372365603901045" lon="14.12134332465999"><ele>40.5</ele><time>2026-05-01T14:44:34Z</time></trkpt><trkpt lat="42.37248546872954" lon="14.121437868980742"><ele>43.0</ele><time>2026-05-01T14:44:35Z</time></trkpt><trkpt lat="42.37260459204467" lon="14.121535155793831"><ele>42.5</ele><time>2026-05-01T14:44:36Z</time></trkpt><trkpt lat="42.37272612923206" lon="14.12163193255816"><ele>42.0</ele><time>2026-05-01T14:44:37Z</time></trkpt><trkpt lat="42.37284477110142" lon="14.121725288365317"><ele>41.5</ele><time>2026-05-01T14:44:38Z</time></trkpt><trkpt lat="42.3729631279117" lon="14.121817443875377"><ele>41.0</ele><time>2026-05-01T14:44:39Z</time></trkpt><trkpt lat="42.373079743784174" lon="14.121909125250989"><ele>41.0</ele><time>2026-05-01T14:44:40Z</time></trkpt><trkpt lat="42.37319567988269" lon="14.1219988526047"><ele>41.0</ele><time>2026-05-01T14:44:41Z</time></trkpt><trkpt lat="42.373309165529164" lon="14.122086719069015"><ele>41.0</ele><time>2026-05-01T14:44:42Z</time></trkpt><trkpt lat="42.3734155569997" lon="14.122169829736452"><ele>41.0</ele><time>2026-05-01T14:44:43Z</time></trkpt><trkpt lat="42.37351588674098" lon="14.122249134665532"><ele>41.0</ele><time>2026-05-01T14:44:44Z</time></trkpt><trkpt lat="42.37360961764682" lon="14.12232411396481"><ele>41.0</ele><time>2026-05-01T14:44:45Z</time></trkpt><trkpt lat="42.373694443725114" lon="14.12239195040269"><ele>41.0</ele><time>2026-05-01T14:44:46Z</time></trkpt><trkpt lat="42.37377251499739" lon="14.122453250930299"><ele>41.0</ele><time>2026-05-01T14:44:47Z</time></trkpt><trkpt lat="42.373839952788785" lon="14.122508619689112"><ele>41.0</ele><time>2026-05-01T14:44:48Z</time></trkpt><trkpt lat="42.37389465165804" lon="14.122554803670763"><ele>41.0</ele><time>2026-05-01T14:44:49Z</time></trkpt><trkpt lat="42.37397082474572" lon="14.12262379784926"><ele>41.0</ele><time>2026-05-01T14:44:51Z</time></trkpt><trkpt lat="42.37402474832647" lon="14.122672035450337"><ele>41.0</ele><time>2026-05-01T14:44:53Z</time></trkpt><trkpt lat="42.37408756997607" lon="14.12271805368578"><ele>41.0</ele><time>2026-05-01T14:44:56Z</time></trkpt><trkpt lat="42.37419746909249" lon="14.122788325913877"><ele>41.0</ele><time>2026-05-01T14:44:59Z</time></trkpt><trkpt lat="42.37427273742477" lon="14.122849276163842"><ele>41.0</ele><time>2026-05-01T14:45:00Z</time></trkpt><trkpt lat="42.37435966576429" lon="14.122931480391362"><ele>41.0</ele><time>2026-05-01T14:45:01Z</time></trkpt><trkpt lat="42.37446237262771" lon="14.123012281777784"><ele>41.0</ele><time>2026-05-01T14:45:02Z</time></trkpt><trkpt lat="42.37456388901821" lon="14.123090983619289"><ele>41.0</ele><time>2026-05-01T14:45:03Z</time></trkpt><trkpt lat="42.374674916631264" lon="14.123174232983724"><ele>41.0</ele><time>2026-05-01T14:45:04Z</time></trkpt><trkpt lat="42.37479221771555" lon="14.123261246786136"><ele>40.5</ele><time>2026-05-01T14:45:05Z</time></trkpt><trkpt lat="42.37491036507597" lon="14.12335058893169"><ele>40.0</ele><time>2026-05-01T14:45:06Z</time></trkpt><trkpt lat="42.375029390456696" lon="14.123445138278054"><ele>39.5</ele><time>2026-05-01T14:45:07Z</time></trkpt><trkpt lat="42.37514665868443" lon="14.12353798691214"><ele>39.0</ele><time>2026-05-01T14:45:08Z</time></trkpt><trkpt lat="42.37526378193477" lon="14.123630289741335"><ele>39.0</ele><time>2026-05-01T14:45:09Z</time></trkpt><trkpt lat="42.375379634382135" lon="14.123720777154535"><ele>39.0</ele><time>2026-05-01T14:45:10Z</time></trkpt><trkpt lat="42.375494846064804" lon="14.123808700534072"><ele>39.0</ele><time>2026-05-01T14:45:11Z</time></trkpt><trkpt lat="42.37561141005686" lon="14.123888643284364"><ele>39.0</ele><time>2026-05-01T14:45:12Z</time></trkpt><trkpt lat="42.37572697234604" lon="14.123952537419077"><ele>38.8</ele><time>2026-05-01T14:45:13Z</time></trkpt><trkpt lat="42.37583721000338" lon="14.12399753582342"><ele>38.599999999999994</ele><time>2026-05-01T14:45:14Z</time></trkpt><trkpt lat="42.37593792024953" lon="14.124031562208542"><ele>38.4</ele><time>2026-05-01T14:45:15Z</time></trkpt><trkpt lat="42.37602836494718" lon="14.124053741637605"><ele>38.199999999999996</ele><time>2026-05-01T14:45:16Z</time></trkpt><trkpt lat="42.376108201910675" lon="14.124071018652206"><ele>38.0</ele><time>2026-05-01T14:45:17Z</time></trkpt><trkpt lat="42.37617875903668" lon="14.124097283366343"><ele>38.0</ele><time>2026-05-01T14:45:18Z</time></trkpt><trkpt lat="42.37627271135316" lon="14.124168343015393"><ele>38.0</ele><time>2026-05-01T14:45:20Z</time></trkpt><trkpt lat="42.376329076613004" lon="14.124251241660668"><ele>38.0</ele><time>2026-05-01T14:45:22Z</time></trkpt><trkpt lat="42.37637025237292" lon="14.124370506985372"><ele>38.0</ele><time>2026-05-01T14:45:24Z</time></trkpt><trkpt lat="42.376440862418285" lon="14.1245046900345"><ele>38.0</ele><time>2026-05-01T14:45:26Z</time></trkpt><trkpt lat="42.376557884174254" lon="14.124541385142718"><ele>37.83333333333333</ele><time>2026-05-01T14:45:28Z</time></trkpt><trkpt lat="42.37661736540895" lon="14.124507084178658"><ele>37.666666666666664</ele><time>2026-05-01T14:45:29Z</time></trkpt><trkpt lat="42.3766614947454" lon="14.124443831574288"><ele>37.5</ele><time>2026-05-01T14:45:30Z</time></trkpt><trkpt lat="42.37668500811348" lon="14.124357147247025"><ele>37.333333333333336</ele><time>2026-05-01T14:45:31Z</time></trkpt><trkpt lat="42.37670731096424" lon="14.12425521108579"><ele>37.16666666666667</ele><time>2026-05-01T14:45:32Z</time></trkpt><trkpt lat="42.376764201112785" lon="14.124160732852175"><ele>37.0</ele><time>2026-05-01T14:45:33Z</time></trkpt><trkpt lat="42.37684387523506" lon="14.124061967845627"><ele>38.75</ele><time>2026-05-01T14:45:34Z</time></trkpt><trkpt lat="42.37693300662072" lon="14.123945895814018"><ele>40.5</ele><time>2026-05-01T14:45:35Z</time></trkpt><trkpt lat="42.377018786051714" lon="14.123807780685027"><ele>42.25</ele><time>2026-05-01T14:45:36Z</time></trkpt><trkpt lat="42.37709293678212" lon="14.12366282688717"><ele>44.0</ele><time>2026-05-01T14:45:37Z</time></trkpt><trkpt lat="42.377168932227754" lon="14.12353861450455"><ele>44.5</ele><time>2026-05-01T14:45:38Z</time></trkpt><trkpt lat="42.37726260274463" lon="14.123454663818034"><ele>45.0</ele><time>2026-05-01T14:45:39Z</time></trkpt><trkpt lat="42.37737586997938" lon="14.12340570915745"><ele>45.5</ele><time>2026-05-01T14:45:40Z</time></trkpt><trkpt lat="42.3774973678462" lon="14.123391006646292"><ele>46.0</ele><time>2026-05-01T14:45:41Z</time></trkpt><trkpt lat="42.37762027544899" lon="14.123408052354623"><ele>46.0</ele><time>2026-05-01T14:45:42Z</time></trkpt><trkpt lat="42.377751264536165" lon="14.123442224166489"><ele>46.0</ele><time>2026-05-01T14:45:43Z</time></trkpt><trkpt lat="42.377894090906764" lon="14.123473686187403"><ele>46.0</ele><time>2026-05-01T14:45:44Z</time></trkpt><trkpt lat="42.37804575695786" lon="14.123503610311674"><ele>46.0</ele><time>2026-05-01T14:45:45Z</time></trkpt><trkpt lat="42.37819792241963" lon="14.123524833537788"><ele>48.25</ele><time>2026-05-01T14:45:46Z</time></trkpt><trkpt lat="42.378341737114035" lon="14.123541495841376"><ele>50.5</ele><time>2026-05-01T14:45:47Z</time></trkpt><trkpt lat="42.378484292531496" lon="14.123560325771122"><ele>52.75</ele><time>2026-05-01T14:45:48Z</time></trkpt><trkpt lat="42.378622096709286" lon="14.12357795348057"><ele>55.0</ele><time>2026-05-01T14:45:49Z</time></trkpt><trkpt lat="42.378754298235826" lon="14.123596171909554"><ele>56.0</ele><time>2026-05-01T14:45:50Z</time></trkpt><trkpt lat="42.37888181987286" lon="14.12361790814498"><ele>57.0</ele><time>2026-05-01T14:45:51Z</time></trkpt><trkpt lat="42.37900769589786" lon="14.123641656509168"><ele>58.0</ele><time>2026-05-01T14:45:52Z</time></trkpt><trkpt lat="42.37912994209985" lon="14.123671963855472"><ele>59.0</ele><time>2026-05-01T14:45:53Z</time></trkpt><trkpt lat="42.37924834774339" lon="14.123710413070524"><ele>59.0</ele><time>2026-05-01T14:45:54Z</time></trkpt><trkpt lat="42.379358521984855" lon="14.123761016415848"><ele>59.00000000000001</ele><time>2026-05-01T14:45:55Z</time></trkpt><trkpt lat="42.379448998223566" lon="14.123822629418036"><ele>59.00000000000001</ele><time>2026-05-01T14:45:56Z</time></trkpt><trkpt lat="42.37953108340529" lon="14.123869322222305"><ele>59.0</ele><time>2026-05-01T14:45:57Z</time></trkpt><trkpt lat="42.379580518727124" lon="14.123968993607486"><ele>59.0</ele><time>2026-05-01T14:45:58Z</time></trkpt><trkpt lat="42.379634949780005" lon="14.124026516192732"><ele>57.25</ele><time>2026-05-01T14:45:59Z</time></trkpt><trkpt lat="42.37971627338312" lon="14.124087521149704"><ele>55.5</ele><time>2026-05-01T14:46:01Z</time></trkpt><trkpt lat="42.37982740267803" lon="14.124221936602847"><ele>53.75</ele><time>2026-05-01T14:46:03Z</time></trkpt><trkpt lat="42.37990984304932" lon="14.124298715073765"><ele>52.0</ele><time>2026-05-01T14:46:04Z</time></trkpt><trkpt lat="42.38001465131179" lon="14.124374784001915"><ele>52.0</ele><time>2026-05-01T14:46:05Z</time></trkpt><trkpt lat="42.38013861287907" lon="14.124456495164539"><ele>52.0</ele><time>2026-05-01T14:46:06Z</time></trkpt><trkpt lat="42.38027492165814" lon="14.124552656038224"><ele>52.0</ele><time>2026-05-01T14:46:07Z</time></trkpt><trkpt lat="42.38040596415096" lon="14.124651637498877"><ele>52.0</ele><time>2026-05-01T14:46:08Z</time></trkpt><trkpt lat="42.38053493001154" lon="14.124749750988244"><ele>50.666666666666664</ele><time>2026-05-01T14:46:09Z</time></trkpt><trkpt lat="42.38066792521194" lon="14.124848813681538"><ele>49.33333333333333</ele><time>2026-05-01T14:46:10Z</time></trkpt><trkpt lat="42.38080571535229" lon="14.124950888879725"><ele>48.0</ele><time>2026-05-01T14:46:11Z</time></trkpt><trkpt lat="42.38094569221644" lon="14.125052245803426"><ele>48.0</ele><time>2026-05-01T14:46:12Z</time></trkpt><trkpt lat="42.381084990551116" lon="14.125152378947389"><ele>48.0</ele><time>2026-05-01T14:46:13Z</time></trkpt><trkpt lat="42.381228367784246" lon="14.125250011168697"><ele>48.0</ele><time>2026-05-01T14:46:14Z</time></trkpt><trkpt lat="42.381371203527216" lon="14.125347998233275"><ele>49.66666666666667</ele><time>2026-05-01T14:46:15Z</time></trkpt><trkpt lat="42.381509469501914" lon="14.12544833196055"><ele>51.333333333333336</ele><time>2026-05-01T14:46:16Z</time></trkpt><trkpt lat="42.38164604891815" lon="14.125551778197513"><ele>53.0</ele><time>2026-05-01T14:46:17Z</time></trkpt><trkpt lat="42.381777331570134" lon="14.12565589889427"><ele>53.0</ele><time>2026-05-01T14:46:18Z</time></trkpt><trkpt lat="42.38190548259716" lon="14.125761504954298"><ele>53.0</ele><time>2026-05-01T14:46:19Z</time></trkpt><trkpt lat="42.38202883056541" lon="14.125872461070719"><ele>53.0</ele><time>2026-05-01T14:46:20Z</time></trkpt><trkpt lat="42.38214948791242" lon="14.125984781004849"><ele>53.0</ele><time>2026-05-01T14:46:21Z</time></trkpt><trkpt lat="42.38226738803874" lon="14.12609157573822"><ele>53.0</ele><time>2026-05-01T14:46:22Z</time></trkpt><trkpt lat="42.38238174343431" lon="14.126184338358703"><ele>53.0</ele><time>2026-05-01T14:46:23Z</time></trkpt><trkpt lat="42.38249520887886" lon="14.126259433857255"><ele>53.0</ele><time>2026-05-01T14:46:24Z</time></trkpt><trkpt lat="42.38261515397607" lon="14.126322087082064"><ele>53.0</ele><time>2026-05-01T14:46:25Z</time></trkpt><trkpt lat="42.382743442991995" lon="14.12636934194196"><ele>53.0</ele><time>2026-05-01T14:46:26Z</time></trkpt><trkpt lat="42.382877598822404" lon="14.126393962800883"><ele>53.0</ele><time>2026-05-01T14:46:27Z</time></trkpt><trkpt lat="42.383013357682074" lon="14.126409285935138"><ele>53.0</ele><time>2026-05-01T14:46:28Z</time></trkpt><trkpt lat="42.38314506069704" lon="14.126407182383433"><ele>53.0</ele><time>2026-05-01T14:46:29Z</time></trkpt><trkpt lat="42.38326509570997" lon="14.126432236240813"><ele>53.0</ele><time>2026-05-01T14:46:30Z</time></trkpt><trkpt lat="42.38336832109721" lon="14.126412538243777"><ele>53.0</ele><time>2026-05-01T14:46:31Z</time></trkpt><trkpt lat="42.38346928161081" lon="14.12644324074976"><ele>53.0</ele><time>2026-05-01T14:46:32Z</time></trkpt><trkpt lat="42.383571362023424" lon="14.126499634353637"><ele>53.0</ele><time>2026-05-01T14:46:33Z</time></trkpt><trkpt lat="42.38367311228996" lon="14.126576943120696"><ele>53.0</ele><time>2026-05-01T14:46:34Z</time></trkpt><trkpt lat="42.383775649571454" lon="14.126648134211129"><ele>50.25</ele><time>2026-05-01T14:46:35Z</time></trkpt><trkpt lat="42.38388009192428" lon="14.126706111740749"><ele>47.5</ele><time>2026-05-01T14:46:36Z</time></trkpt><trkpt lat="42.38398914644109" lon="14.126760755252134"><ele>44.75</ele><time>2026-05-01T14:46:37Z</time></trkpt><trkpt lat="42.38410222942161" lon="14.126816578214914"><ele>42.0</ele><time>2026-05-01T14:46:38Z</time></trkpt><trkpt lat="42.38421938365756" lon="14.126870379750233"><ele>42.0</ele><time>2026-05-01T14:46:39Z</time></trkpt><trkpt lat="42.384339688631606" lon="14.12692067129896"><ele>42.0</ele><time>2026-05-01T14:46:40Z</time></trkpt><trkpt lat="42.38445817764595" lon="14.126971938816286"><ele>42.0</ele><time>2026-05-01T14:46:41Z</time></trkpt><trkpt lat="42.38457603727689" lon="14.127017123382045"><ele>42.0</ele><time>2026-05-01T14:46:42Z</time></trkpt><trkpt lat="42.384693403452474" lon="14.12705666132186"><ele>42.75</ele><time>2026-05-01T14:46:43Z</time></trkpt><trkpt lat="42.38480749509583" lon="14.127097139427132"><ele>43.5</ele><time>2026-05-01T14:46:44Z</time></trkpt><trkpt lat="42.384920052621005" lon="14.127150398737573"><ele>44.25</ele><time>2026-05-01T14:46:45Z</time></trkpt><trkpt lat="42.38503457828264" lon="14.127222644547917"><ele>45.0</ele><time>2026-05-01T14:46:46Z</time></trkpt><trkpt lat="42.3851442343611" lon="14.127319262907273"><ele>42.75</ele><time>2026-05-01T14:46:47Z</time></trkpt><trkpt lat="42.38525029837854" lon="14.127430545130752"><ele>40.5</ele><time>2026-05-01T14:46:48Z</time></trkpt><trkpt lat="42.38535609028176" lon="14.127544040615675"><ele>38.25</ele><time>2026-05-01T14:46:49Z</time></trkpt><trkpt lat="42.38546054220647" lon="14.127661957678121"><ele>36.0</ele><time>2026-05-01T14:46:50Z</time></trkpt><trkpt lat="42.38556527209935" lon="14.127777207016878"><ele>36.0</ele><time>2026-05-01T14:46:51Z</time></trkpt><trkpt lat="42.38567268073981" lon="14.127889022405785"><ele>36.0</ele><time>2026-05-01T14:46:52.001Z</time></trkpt><trkpt lat="42.38578276831953" lon="14.12799299838229"><ele>36.0</ele><time>2026-05-01T14:46:53.001Z</time></trkpt><trkpt lat="42.385893504372255" lon="14.12809126388216"><ele>36.0</ele><time>2026-05-01T14:46:54.001Z</time></trkpt><trkpt lat="42.38600380955212" lon="14.128192739112986"><ele>35.75</ele><time>2026-05-01T14:46:55.001Z</time></trkpt><trkpt lat="42.38611451144094" lon="14.128298457140412"><ele>35.5</ele><time>2026-05-01T14:46:56.001Z</time></trkpt><trkpt lat="42.386221346315196" lon="14.128412955033957"><ele>35.25</ele><time>2026-05-01T14:46:57.001Z</time></trkpt><trkpt lat="42.386318759633774" lon="14.128546379962149"><ele>35.0</ele><time>2026-05-01T14:46:58.001Z</time></trkpt><trkpt lat="42.38640632359418" lon="14.128692881684303"><ele>35.5</ele><time>2026-05-01T14:46:59.001Z</time></trkpt><trkpt lat="42.3864947842427" lon="14.12884213405381"><ele>36.0</ele><time>2026-05-01T14:47:00.001Z</time></trkpt><trkpt lat="42.3865841942744" lon="14.128990101392743"><ele>36.5</ele><time>2026-05-01T14:47:01.001Z</time></trkpt><trkpt lat="42.3866782985036" lon="14.129135422065602"><ele>37.0</ele><time>2026-05-01T14:47:02.001Z</time></trkpt><trkpt lat="42.38677233527851" lon="14.12927833165514"><ele>36.2</ele><time>2026-05-01T14:47:03.001Z</time></trkpt><trkpt lat="42.386854465016434" lon="14.12939451409733"><ele>35.400000000000006</ele><time>2026-05-01T14:47:04.001Z</time></trkpt><trkpt lat="42.386924183470825" lon="14.129483002387726"><ele>34.599999999999994</ele><time>2026-05-01T14:47:05.001Z</time></trkpt><trkpt lat="42.38699524930326" lon="14.129558525606626"><ele>33.8</ele><time>2026-05-01T14:47:06.001Z</time></trkpt><trkpt lat="42.38706448039477" lon="14.129626827617159"><ele>33.0</ele><time>2026-05-01T14:47:07.001Z</time></trkpt><trkpt lat="42.38713613251334" lon="14.129694703198714"><ele>32.8</ele><time>2026-05-01T14:47:08.001Z</time></trkpt><trkpt lat="42.38721277254293" lon="14.129768469405013"><ele>32.599999999999994</ele><time>2026-05-01T14:47:09.001Z</time></trkpt><trkpt lat="42.38729636221848" lon="14.129846559502678"><ele>32.400000000000006</ele><time>2026-05-01T14:47:10.001Z</time></trkpt><trkpt lat="42.38738351973589" lon="14.129929262346065"><ele>32.2</ele><time>2026-05-01T14:47:11.001Z</time></trkpt><trkpt lat="42.38747549170579" lon="14.130014730516288"><ele>32.0</ele><time>2026-05-01T14:47:12.001Z</time></trkpt><trkpt lat="42.38757039790929" lon="14.130103803143573"><ele>32.0</ele><time>2026-05-01T14:47:13.001Z</time></trkpt><trkpt lat="42.38766702255415" lon="14.1301954964904"><ele>32.0</ele><time>2026-05-01T14:47:14.001Z</time></trkpt><trkpt lat="42.38776161273513" lon="14.13028703088983"><ele>32.0</ele><time>2026-05-01T14:47:15.001Z</time></trkpt><trkpt lat="42.38784806899403" lon="14.130371887860727"><ele>32.0</ele><time>2026-05-01T14:47:16.001Z</time></trkpt><trkpt lat="42.38793225110081" lon="14.130440017447642"><ele>32.0</ele><time>2026-05-01T14:47:17.001Z</time></trkpt><trkpt lat="42.388016570632125" lon="14.130490490214182"><ele>32.0</ele><time>2026-05-01T14:47:18Z</time></trkpt><trkpt lat="42.388102726793015" lon="14.130530913930015"><ele>32.0</ele><time>2026-05-01T14:47:19Z</time></trkpt><trkpt lat="42.388195621932525" lon="14.130575128008923"><ele>32.0</ele><time>2026-05-01T14:47:20Z</time></trkpt><trkpt lat="42.38829967491263" lon="14.130626007114847"><ele>32.0</ele><time>2026-05-01T14:47:21Z</time></trkpt><trkpt lat="42.3884121371403" lon="14.130687197982583"><ele>32.0</ele><time>2026-05-01T14:47:22Z</time></trkpt><trkpt lat="42.38853011785706" lon="14.130758645185262"><ele>32.0</ele><time>2026-05-01T14:47:23Z</time></trkpt><trkpt lat="42.38865254178059" lon="14.130832945977549"><ele>32.0</ele><time>2026-05-01T14:47:24Z</time></trkpt><trkpt lat="42.38877844821994" lon="14.130915111683485"><ele>32.0</ele><time>2026-05-01T14:47:25Z</time></trkpt><trkpt lat="42.38890481510452" lon="14.131001060790139"><ele>32.0</ele><time>2026-05-01T14:47:26Z</time></trkpt><trkpt lat="42.38903337812339" lon="14.131089111430976"><ele>32.25</ele><time>2026-05-01T14:47:27Z</time></trkpt><trkpt lat="42.389163452697574" lon="14.13118025297515"><ele>32.5</ele><time>2026-05-01T14:47:28Z</time></trkpt><trkpt lat="42.38929141278307" lon="14.131273779239821"><ele>32.75</ele><time>2026-05-01T14:47:29Z</time></trkpt><trkpt lat="42.38941597432561" lon="14.131376444252844"><ele>33.0</ele><time>2026-05-01T14:47:30Z</time></trkpt><trkpt lat="42.38953866575037" lon="14.131482416923223"><ele>32.75</ele><time>2026-05-01T14:47:31Z</time></trkpt><trkpt lat="42.38966197140538" lon="14.13158992461489"><ele>32.5</ele><time>2026-05-01T14:47:32Z</time></trkpt><trkpt lat="42.389787138227675" lon="14.131697894462459"><ele>32.25</ele><time>2026-05-01T14:47:33Z</time></trkpt><trkpt lat="42.38991358009842" lon="14.131808620743499"><ele>32.0</ele><time>2026-05-01T14:47:34Z</time></trkpt><trkpt lat="42.39004040878826" lon="14.13192066395121"><ele>31.666666666666664</ele><time>2026-05-01T14:47:35Z</time></trkpt><trkpt lat="42.39016832486039" lon="14.132032530593367"><ele>31.333333333333336</ele><time>2026-05-01T14:47:36Z</time></trkpt><trkpt lat="42.390295789269" lon="14.132142240989209"><ele>31.0</ele><time>2026-05-01T14:47:37Z</time></trkpt><trkpt lat="42.390423054063774" lon="14.132254320894255"><ele>31.333333333333336</ele><time>2026-05-01T14:47:38Z</time></trkpt><trkpt lat="42.390549741618706" lon="14.132369592235149"><ele>31.666666666666664</ele><time>2026-05-01T14:47:39Z</time></trkpt><trkpt lat="42.390677130643105" lon="14.132485238751604"><ele>32.0</ele><time>2026-05-01T14:47:40Z</time></trkpt><trkpt lat="42.39080415625888" lon="14.132598230146282"><ele>31.5</ele><time>2026-05-01T14:47:41Z</time></trkpt><trkpt lat="42.390929374688355" lon="14.132708931505043"><ele>31.0</ele><time>2026-05-01T14:47:42Z</time></trkpt><trkpt lat="42.391054887957345" lon="14.13281867789282"><ele>30.5</ele><time>2026-05-01T14:47:43Z</time></trkpt><trkpt lat="42.39118029685497" lon="14.132926877061545"><ele>30.0</ele><time>2026-05-01T14:47:44Z</time></trkpt><trkpt lat="42.391304653294235" lon="14.13303895896195"><ele>30.0</ele><time>2026-05-01T14:47:45Z</time></trkpt><trkpt lat="42.39142782722117" lon="14.133151295513239"><ele>30.0</ele><time>2026-05-01T14:47:46Z</time></trkpt><trkpt lat="42.39155126881039" lon="14.133263872794572"><ele>30.0</ele><time>2026-05-01T14:47:47Z</time></trkpt><trkpt lat="42.39167631976784" lon="14.133376059487817"><ele>30.0</ele><time>2026-05-01T14:47:48Z</time></trkpt><trkpt lat="42.391799885341676" lon="14.133489324713146"><ele>30.0</ele><time>2026-05-01T14:47:49Z</time></trkpt><trkpt lat="42.39192475192264" lon="14.133604733610301"><ele>30.0</ele><time>2026-05-01T14:47:50Z</time></trkpt><trkpt lat="42.392049742015466" lon="14.133717343917509"><ele>30.0</ele><time>2026-05-01T14:47:51Z</time></trkpt><trkpt lat="42.39217561915061" lon="14.133828201723377"><ele>29.666666666666664</ele><time>2026-05-01T14:47:52Z</time></trkpt><trkpt lat="42.39230256931545" lon="14.133941016546817"><ele>29.333333333333332</ele><time>2026-05-01T14:47:53Z</time></trkpt><trkpt lat="42.392430133115084" lon="14.134056000639694"><ele>29.0</ele><time>2026-05-01T14:47:54Z</time></trkpt><trkpt lat="42.392560160931716" lon="14.13417313355696"><ele>29.0</ele><time>2026-05-01T14:47:55Z</time></trkpt><trkpt lat="42.392693659326525" lon="14.13429303000117"><ele>29.0</ele><time>2026-05-01T14:47:56Z</time></trkpt><trkpt lat="42.39283017074757" lon="14.134415419641483"><ele>29.0</ele><time>2026-05-01T14:47:57Z</time></trkpt><trkpt lat="42.39296951771899" lon="14.134540534796667"><ele>29.333333333333332</ele><time>2026-05-01T14:47:58Z</time></trkpt><trkpt lat="42.3931033711783" lon="14.134662701389981"><ele>29.666666666666664</ele><time>2026-05-01T14:47:59Z</time></trkpt><trkpt lat="42.39322090665099" lon="14.13476548101351"><ele>30.0</ele><time>2026-05-01T14:48:00Z</time></trkpt><trkpt lat="42.39337050383584" lon="14.134890479084973"><ele>29.0</ele><time>2026-05-01T14:48:01Z</time></trkpt><trkpt lat="42.39350470729468" lon="14.135010092096664"><ele>28.0</ele><time>2026-05-01T14:48:02Z</time></trkpt><trkpt lat="42.39364367830888" lon="14.135135733067063"><ele>27.0</ele><time>2026-05-01T14:48:03Z</time></trkpt><trkpt lat="42.39378324193093" lon="14.135260592086588"><ele>28.0</ele><time>2026-05-01T14:48:04Z</time></trkpt><trkpt lat="42.3939195459097" lon="14.135381453821505"><ele>29.0</ele><time>2026-05-01T14:48:05Z</time></trkpt><trkpt lat="42.394050073354876" lon="14.135497098457515"><ele>30.0</ele><time>2026-05-01T14:48:06Z</time></trkpt><trkpt lat="42.39417281953188" lon="14.135608688122327"><ele>30.0</ele><time>2026-05-01T14:48:07Z</time></trkpt><trkpt lat="42.39429195025195" lon="14.135716678046476"><ele>30.0</ele><time>2026-05-01T14:48:08Z</time></trkpt><trkpt lat="42.39440878209802" lon="14.135821367509303"><ele>30.0</ele><time>2026-05-01T14:48:09Z</time></trkpt><trkpt lat="42.39452471116092" lon="14.135925034877838"><ele>30.0</ele><time>2026-05-01T14:48:10Z</time></trkpt><trkpt lat="42.39463898724201" lon="14.136027266077448"><ele>29.75</ele><time>2026-05-01T14:48:11Z</time></trkpt><trkpt lat="42.39475275562601" lon="14.136128211887364"><ele>29.5</ele><time>2026-05-01T14:48:12Z</time></trkpt><trkpt lat="42.39486577624316" lon="14.136230257202667"><ele>29.25</ele><time>2026-05-01T14:48:13Z</time></trkpt><trkpt lat="42.3949813350365" lon="14.136333929795093"><ele>29.0</ele><time>2026-05-01T14:48:14Z</time></trkpt><trkpt lat="42.395099391863404" lon="14.136440799442024"><ele>29.0</ele><time>2026-05-01T14:48:15Z</time></trkpt><trkpt lat="42.39521904957492" lon="14.1365465775431"><ele>29.0</ele><time>2026-05-01T14:48:16Z</time></trkpt><trkpt lat="42.39533755028093" lon="14.136654625379224"><ele>29.0</ele><time>2026-05-01T14:48:17Z</time></trkpt><trkpt lat="42.39545793020759" lon="14.136763734357427"><ele>29.0</ele><time>2026-05-01T14:48:18Z</time></trkpt><trkpt lat="42.39557804925912" lon="14.136871104003552"><ele>28.25</ele><time>2026-05-01T14:48:19Z</time></trkpt><trkpt lat="42.39569446593584" lon="14.136976967467682"><ele>27.5</ele><time>2026-05-01T14:48:20Z</time></trkpt><trkpt lat="42.39580865160974" lon="14.137080050469468"><ele>26.75</ele><time>2026-05-01T14:48:21Z</time></trkpt><trkpt lat="42.39592027652155" lon="14.137177557053088"><ele>26.0</ele><time>2026-05-01T14:48:22Z</time></trkpt><trkpt lat="42.39602944977566" lon="14.137273195335585"><ele>26.0</ele><time>2026-05-01T14:48:23Z</time></trkpt><trkpt lat="42.3961366250641" lon="14.137368697358628"><ele>26.0</ele><time>2026-05-01T14:48:24Z</time></trkpt><trkpt lat="42.39624710140806" lon="14.13746917884343"><ele>26.0</ele><time>2026-05-01T14:48:25Z</time></trkpt><trkpt lat="42.3963589117813" lon="14.137570978647068"><ele>26.0</ele><time>2026-05-01T14:48:26Z</time></trkpt><trkpt lat="42.3964724821031" lon="14.13767439975713"><ele>26.25</ele><time>2026-05-01T14:48:27Z</time></trkpt><trkpt lat="42.396587543155285" lon="14.137779824873032"><ele>26.5</ele><time>2026-05-01T14:48:28Z</time></trkpt><trkpt lat="42.396704280954125" lon="14.137885788625216"><ele>26.75</ele><time>2026-05-01T14:48:29Z</time></trkpt><trkpt lat="42.39682087518672" lon="14.137990249305824"><ele>27.0</ele><time>2026-05-01T14:48:30Z</time></trkpt><trkpt lat="42.396935426309994" lon="14.138092498200391"><ele>27.0</ele><time>2026-05-01T14:48:31Z</time></trkpt><trkpt lat="42.397052109586774" lon="14.138194538325328"><ele>27.0</ele><time>2026-05-01T14:48:32Z</time></trkpt><trkpt lat="42.397166036557756" lon="14.138291531337948"><ele>27.0</ele><time>2026-05-01T14:48:33Z</time></trkpt><trkpt lat="42.39727803552048" lon="14.138391251936559"><ele>27.0</ele><time>2026-05-01T14:48:34Z</time></trkpt><trkpt lat="42.39738994908888" lon="14.138492729692565"><ele>26.75</ele><time>2026-05-01T14:48:35Z</time></trkpt><trkpt lat="42.3975029628208" lon="14.138594620166433"><ele>26.5</ele><time>2026-05-01T14:48:36Z</time></trkpt><trkpt lat="42.39761573330779" lon="14.138696008253746"><ele>26.25</ele><time>2026-05-01T14:48:37Z</time></trkpt><trkpt lat="42.397728107916954" lon="14.138798302672845"><ele>26.0</ele><time>2026-05-01T14:48:38Z</time></trkpt><trkpt lat="42.39784116509173" lon="14.138901241007382"><ele>26.0</ele><time>2026-05-01T14:48:39Z</time></trkpt><trkpt lat="42.39795457493277" lon="14.13900303202713"><ele>26.0</ele><time>2026-05-01T14:48:40Z</time></trkpt><trkpt lat="42.39806943153144" lon="14.139106205835935"><ele>26.0</ele><time>2026-05-01T14:48:41Z</time></trkpt><trkpt lat="42.39818324643056" lon="14.139208468221275"><ele>26.0</ele><time>2026-05-01T14:48:42Z</time></trkpt><trkpt lat="42.398297750311116" lon="14.139308908485576"><ele>26.0</ele><time>2026-05-01T14:48:43Z</time></trkpt><trkpt lat="42.39840868149822" lon="14.139410433380675"><ele>26.0</ele><time>2026-05-01T14:48:44Z</time></trkpt><trkpt lat="42.39851768952202" lon="14.139508053268925"><ele>26.0</ele><time>2026-05-01T14:48:45Z</time></trkpt><trkpt lat="42.39862463737591" lon="14.139606036536549"><ele>26.0</ele><time>2026-05-01T14:48:46Z</time></trkpt><trkpt lat="42.39872975557412" lon="14.139701108740084"><ele>26.0</ele><time>2026-05-01T14:48:47Z</time></trkpt><trkpt lat="42.39883232651572" lon="14.139796494787713"><ele>26.0</ele><time>2026-05-01T14:48:48Z</time></trkpt><trkpt lat="42.398935496106226" lon="14.139890917263042"><ele>26.0</ele><time>2026-05-01T14:48:49Z</time></trkpt><trkpt lat="42.399040804551944" lon="14.13998364480156"><ele>26.0</ele><time>2026-05-01T14:48:50Z</time></trkpt><trkpt lat="42.399147509315675" lon="14.140073811891199"><ele>25.75</ele><time>2026-05-01T14:48:51Z</time></trkpt><trkpt lat="42.399255512270145" lon="14.140166239331661"><ele>25.5</ele><time>2026-05-01T14:48:52Z</time></trkpt><trkpt lat="42.399362431425644" lon="14.140261036945056"><ele>25.25</ele><time>2026-05-01T14:48:53Z</time></trkpt><trkpt lat="42.39946696330255" lon="14.140355222603564"><ele>25.0</ele><time>2026-05-01T14:48:54Z</time></trkpt><trkpt lat="42.39957043833008" lon="14.140447464235145"><ele>24.75</ele><time>2026-05-01T14:48:55Z</time></trkpt><trkpt lat="42.3996713794267" lon="14.140540390221727"><ele>24.5</ele><time>2026-05-01T14:48:56.001Z</time></trkpt><trkpt lat="42.39977208772631" lon="14.140629779009428"><ele>24.25</ele><time>2026-05-01T14:48:57.001Z</time></trkpt><trkpt lat="42.39986795427942" lon="14.140717321334076"><ele>24.0</ele><time>2026-05-01T14:48:58.001Z</time></trkpt><trkpt lat="42.39996148643657" lon="14.140802045420234"><ele>24.4</ele><time>2026-05-01T14:48:59.001Z</time></trkpt><trkpt lat="42.40005238458671" lon="14.140885065242385"><ele>24.799999999999997</ele><time>2026-05-01T14:49:00.001Z</time></trkpt><trkpt lat="42.40014363896427" lon="14.140966821346462"><ele>25.200000000000003</ele><time>2026-05-01T14:49:01.001Z</time></trkpt><trkpt lat="42.400235504501765" lon="14.141045689005946"><ele>25.6</ele><time>2026-05-01T14:49:02.001Z</time></trkpt><trkpt lat="42.40032682845261" lon="14.141125879211868"><ele>26.0</ele><time>2026-05-01T14:49:03.001Z</time></trkpt><trkpt lat="42.40041569489007" lon="14.141205969162272"><ele>25.8</ele><time>2026-05-01T14:49:04.001Z</time></trkpt><trkpt lat="42.400503945684235" lon="14.141284652107668"><ele>25.6</ele><time>2026-05-01T14:49:05.001Z</time></trkpt><trkpt lat="42.40059422732877" lon="14.14136378776562"><ele>25.4</ele><time>2026-05-01T14:49:06.001Z</time></trkpt><trkpt lat="42.400683846892136" lon="14.141444355027435"><ele>25.2</ele><time>2026-05-01T14:49:07.001Z</time></trkpt><trkpt lat="42.400775461604155" lon="14.141526801411862"><ele>25.0</ele><time>2026-05-01T14:49:08.001Z</time></trkpt><trkpt lat="42.40086759241634" lon="14.141612746038833"><ele>25.0</ele><time>2026-05-01T14:49:09.001Z</time></trkpt><trkpt lat="42.400961546152516" lon="14.141696801509207"><ele>25.0</ele><time>2026-05-01T14:49:10.001Z</time></trkpt><trkpt lat="42.40105617481452" lon="14.141778609480921"><ele>25.0</ele><time>2026-05-01T14:49:11.001Z</time></trkpt><trkpt lat="42.40114822937937" lon="14.141858387397125"><ele>25.0</ele><time>2026-05-01T14:49:12.001Z</time></trkpt><trkpt lat="42.40123878267834" lon="14.141939673396124"><ele>25.0</ele><time>2026-05-01T14:49:13.001Z</time></trkpt><trkpt lat="42.40132806226515" lon="14.142019502202293"><ele>25.0</ele><time>2026-05-01T14:49:14.001Z</time></trkpt><trkpt lat="42.401415897436465" lon="14.142100491455325"><ele>25.0</ele><time>2026-05-01T14:49:15.001Z</time></trkpt><trkpt lat="42.40150053549213" lon="14.142180512981486"><ele>25.0</ele><time>2026-05-01T14:49:16.001Z</time></trkpt><trkpt lat="42.401585430117315" lon="14.142257532934275"><ele>25.0</ele><time>2026-05-01T14:49:17.001Z</time></trkpt><trkpt lat="42.40166851761143" lon="14.142331003105635"><ele>25.0</ele><time>2026-05-01T14:49:18.001Z</time></trkpt><trkpt lat="42.40175184778095" lon="14.14240652655293"><ele>24.8</ele><time>2026-05-01T14:49:19.001Z</time></trkpt><trkpt lat="42.40183390893414" lon="14.142483860734501"><ele>24.6</ele><time>2026-05-01T14:49:20.001Z</time></trkpt><trkpt lat="42.40191698272439" lon="14.142559222727376"><ele>24.4</ele><time>2026-05-01T14:49:21.001Z</time></trkpt><trkpt lat="42.40200110354159" lon="14.142638206631299"><ele>24.2</ele><time>2026-05-01T14:49:22.001Z</time></trkpt><trkpt lat="42.40208861748923" lon="14.142719407330583"><ele>24.0</ele><time>2026-05-01T14:49:23.001Z</time></trkpt><trkpt lat="42.402173931283315" lon="14.142797414063066"><ele>24.0</ele><time>2026-05-01T14:49:24Z</time></trkpt><trkpt lat="42.402259656113664" lon="14.142871431444052"><ele>24.0</ele><time>2026-05-01T14:49:25Z</time></trkpt><trkpt lat="42.40234660808979" lon="14.142943854515863"><ele>24.0</ele><time>2026-05-01T14:49:26Z</time></trkpt><trkpt lat="42.40243341603051" lon="14.143018386769226"><ele>24.0</ele><time>2026-05-01T14:49:27Z</time></trkpt><trkpt lat="42.40252639332299" lon="14.143097396846018"><ele>24.0</ele><time>2026-05-01T14:49:28Z</time></trkpt><trkpt lat="42.40262022957242" lon="14.143175142857055"><ele>24.0</ele><time>2026-05-01T14:49:29Z</time></trkpt><trkpt lat="42.40271609144293" lon="14.143255128519415"><ele>24.0</ele><time>2026-05-01T14:49:30Z</time></trkpt><trkpt lat="42.40281352503642" lon="14.143338131168557"><ele>24.0</ele><time>2026-05-01T14:49:31Z</time></trkpt><trkpt lat="42.402908826465385" lon="14.143421529873315"><ele>24.0</ele><time>2026-05-01T14:49:32Z</time></trkpt><trkpt lat="42.40300514209619" lon="14.143503757172226"><ele>24.0</ele><time>2026-05-01T14:49:33Z</time></trkpt><trkpt lat="42.40309927504766" lon="14.143582561870351"><ele>24.0</ele><time>2026-05-01T14:49:34Z</time></trkpt><trkpt lat="42.40319487673789" lon="14.14366482166588"><ele>24.0</ele><time>2026-05-01T14:49:35Z</time></trkpt><trkpt lat="42.403289412692324" lon="14.143749534730599"><ele>24.0</ele><time>2026-05-01T14:49:36Z</time></trkpt><trkpt lat="42.40338331921907" lon="14.14383612727094"><ele>24.0</ele><time>2026-05-01T14:49:37Z</time></trkpt><trkpt lat="42.40347528852071" lon="14.143921970341411"><ele>24.0</ele><time>2026-05-01T14:49:38Z</time></trkpt><trkpt lat="42.40356630059953" lon="14.144006175213436"><ele>24.0</ele><time>2026-05-01T14:49:39Z</time></trkpt><trkpt lat="42.40365777867941" lon="14.144088770978584"><ele>24.0</ele><time>2026-05-01T14:49:40Z</time></trkpt><trkpt lat="42.40374796491264" lon="14.144170102503534"><ele>24.0</ele><time>2026-05-01T14:49:41Z</time></trkpt><trkpt lat="42.40383844233092" lon="14.144248396532028"><ele>24.2</ele><time>2026-05-01T14:49:42Z</time></trkpt><trkpt lat="42.40392919521765" lon="14.144329614673481"><ele>24.4</ele><time>2026-05-01T14:49:43Z</time></trkpt><trkpt lat="42.40402101792002" lon="14.144412943320095"><ele>24.6</ele><time>2026-05-01T14:49:44Z</time></trkpt><trkpt lat="42.40411293258102" lon="14.14449846652941"><ele>24.8</ele><time>2026-05-01T14:49:45Z</time></trkpt><trkpt lat="42.40420303273601" lon="14.144582773328851"><ele>25.0</ele><time>2026-05-01T14:49:46Z</time></trkpt><trkpt lat="42.404292929656265" lon="14.144666802337397"><ele>25.0</ele><time>2026-05-01T14:49:47Z</time></trkpt><trkpt lat="42.404383096302105" lon="14.144747521458532"><ele>25.0</ele><time>2026-05-01T14:49:48Z</time></trkpt><trkpt lat="42.404473320904515" lon="14.144827784114906"><ele>25.0</ele><time>2026-05-01T14:49:49Z</time></trkpt><trkpt lat="42.40456234354893" lon="14.144906177509409"><ele>25.0</ele><time>2026-05-01T14:49:50Z</time></trkpt><trkpt lat="42.40465006353786" lon="14.144984229253527"><ele>25.0</ele><time>2026-05-01T14:49:51Z</time></trkpt><trkpt lat="42.40473504839421" lon="14.145058639487644"><ele>24.6</ele><time>2026-05-01T14:49:52Z</time></trkpt><trkpt lat="42.4048170801763" lon="14.145130046565349"><ele>24.2</ele><time>2026-05-01T14:49:53Z</time></trkpt><trkpt lat="42.404897260341734" lon="14.145200337967728"><ele>23.799999999999997</ele><time>2026-05-01T14:49:54Z</time></trkpt><trkpt lat="42.404978170958515" lon="14.145273915076032"><ele>23.4</ele><time>2026-05-01T14:49:55Z</time></trkpt><trkpt lat="42.40505910328069" lon="14.145347561132157"><ele>23.0</ele><time>2026-05-01T14:49:56Z</time></trkpt><trkpt lat="42.40513432194284" lon="14.145417074287947"><ele>23.0</ele><time>2026-05-01T14:49:57Z</time></trkpt><trkpt lat="42.405203731624745" lon="14.145481456470918"><ele>23.0</ele><time>2026-05-01T14:49:58Z</time></trkpt><trkpt lat="42.40526702752284" lon="14.145541541904159"><ele>23.0</ele><time>2026-05-01T14:49:59Z</time></trkpt><trkpt lat="42.40532408153607" lon="14.14559217370903"><ele>23.0</ele><time>2026-05-01T14:50:00Z</time></trkpt><trkpt lat="42.4053764989671" lon="14.145640939163838"><ele>23.0</ele><time>2026-05-01T14:50:01Z</time></trkpt><trkpt lat="42.405417217797655" lon="14.14570824718355"><ele>23.0</ele><time>2026-05-01T14:50:02Z</time></trkpt><trkpt lat="42.40546051996598" lon="14.145773381907448"><ele>23.0</ele><time>2026-05-01T14:50:03Z</time></trkpt><trkpt lat="42.40543781307243" lon="14.145923877803437"><ele>22.75</ele><time>2026-05-01T14:50:05Z</time></trkpt><trkpt lat="42.405470116829775" lon="14.146051792941309"><ele>22.5</ele><time>2026-05-01T14:50:07Z</time></trkpt><trkpt lat="42.4055765504636" lon="14.146105165154196"><ele>22.25</ele><time>2026-05-01T14:50:09Z</time></trkpt><trkpt lat="42.40568537589351" lon="14.146055092729828"><ele>22.0</ele><time>2026-05-01T14:50:11Z</time></trkpt><trkpt lat="42.40581186249199" lon="14.146045287942249"><ele>22.0</ele><time>2026-05-01T14:50:13Z</time></trkpt><trkpt lat="42.40587502875942" lon="14.14608417955154"><ele>22.0</ele><time>2026-05-01T14:50:14Z</time></trkpt><trkpt lat="42.40593742056747" lon="14.146137703114794"><ele>22.0</ele><time>2026-05-01T14:50:15Z</time></trkpt><trkpt lat="42.40600187570874" lon="14.146199768760814"><ele>22.0</ele><time>2026-05-01T14:50:16Z</time></trkpt><trkpt lat="42.406070282252635" lon="14.146265666271056"><ele>22.0</ele><time>2026-05-01T14:50:17Z</time></trkpt><trkpt lat="42.406143955908156" lon="14.146333222127259"><ele>22.0</ele><time>2026-05-01T14:50:18Z</time></trkpt><trkpt lat="42.40622526997644" lon="14.146403779230228"><ele>22.0</ele><time>2026-05-01T14:50:19Z</time></trkpt><trkpt lat="42.40631077887734" lon="14.1464819360323"><ele>22.0</ele><time>2026-05-01T14:50:20Z</time></trkpt><trkpt lat="42.40640368030561" lon="14.146564827991025"><ele>22.0</ele><time>2026-05-01T14:50:21Z</time></trkpt><trkpt lat="42.40650092145149" lon="14.146646467309543"><ele>22.0</ele><time>2026-05-01T14:50:22Z</time></trkpt><trkpt lat="42.40660304878581" lon="14.146726860300543"><ele>22.0</ele><time>2026-05-01T14:50:23Z</time></trkpt><trkpt lat="42.406709059486545" lon="14.146800614781627"><ele>22.0</ele><time>2026-05-01T14:50:24Z</time></trkpt><trkpt lat="42.40681659916852" lon="14.146864294762352"><ele>22.0</ele><time>2026-05-01T14:50:25Z</time></trkpt><trkpt lat="42.40692772029519" lon="14.146921786761046"><ele>22.0</ele><time>2026-05-01T14:50:26Z</time></trkpt><trkpt lat="42.4070403637943" lon="14.146968513983536"><ele>22.0</ele><time>2026-05-01T14:50:27Z</time></trkpt><trkpt lat="42.407154776411005" lon="14.14700641389227"><ele>21.0</ele><time>2026-05-01T14:50:28Z</time></trkpt><trkpt lat="42.407273522941665" lon="14.147042634191521"><ele>20.0</ele><time>2026-05-01T14:50:29Z</time></trkpt><trkpt lat="42.40739833193092" lon="14.147078817397329"><ele>19.0</ele><time>2026-05-01T14:50:30Z</time></trkpt><trkpt lat="42.407526340281166" lon="14.147108225680249"><ele>18.0</ele><time>2026-05-01T14:50:31Z</time></trkpt><trkpt lat="42.40765525984802" lon="14.147130947706028"><ele>18.0</ele><time>2026-05-01T14:50:32Z</time></trkpt><trkpt lat="42.40778510034127" lon="14.147153389153077"><ele>18.0</ele><time>2026-05-01T14:50:33Z</time></trkpt><trkpt lat="42.40791212484409" lon="14.147178839176464"><ele>18.0</ele><time>2026-05-01T14:50:34Z</time></trkpt><trkpt lat="42.4080356071639" lon="14.147205311480436"><ele>18.0</ele><time>2026-05-01T14:50:35Z</time></trkpt><trkpt lat="42.40815862819522" lon="14.147235237500672"><ele>17.75</ele><time>2026-05-01T14:50:36Z</time></trkpt><trkpt lat="42.408276444900515" lon="14.14727223654289"><ele>17.5</ele><time>2026-05-01T14:50:37Z</time></trkpt><trkpt lat="42.40838984836715" lon="14.147318468445205"><ele>17.25</ele><time>2026-05-01T14:50:38Z</time></trkpt><trkpt lat="42.40850247944451" lon="14.147371757409104"><ele>17.0</ele><time>2026-05-01T14:50:39Z</time></trkpt><trkpt lat="42.40861435819895" lon="14.147430354768979"><ele>17.0</ele><time>2026-05-01T14:50:40Z</time></trkpt><trkpt lat="42.408723339488674" lon="14.14749499301148"><ele>17.0</ele><time>2026-05-01T14:50:41Z</time></trkpt><trkpt lat="42.40882952128286" lon="14.147568021216053"><ele>17.0</ele><time>2026-05-01T14:50:42Z</time></trkpt><trkpt lat="42.408933720241095" lon="14.147647565986462"><ele>17.0</ele><time>2026-05-01T14:50:43Z</time></trkpt><trkpt lat="42.40903894390448" lon="14.147730096601956"><ele>17.0</ele><time>2026-05-01T14:50:44Z</time></trkpt><trkpt lat="42.409144496726064" lon="14.14781178581852"><ele>17.0</ele><time>2026-05-01T14:50:45Z</time></trkpt><trkpt lat="42.40925309506297" lon="14.147897844773675"><ele>17.0</ele><time>2026-05-01T14:50:46Z</time></trkpt><trkpt lat="42.409365118097966" lon="14.147987673189231"><ele>17.0</ele><time>2026-05-01T14:50:47Z</time></trkpt><trkpt lat="42.40948009644962" lon="14.148080409496348"><ele>17.0</ele><time>2026-05-01T14:50:48Z</time></trkpt><trkpt lat="42.40959658350322" lon="14.148173967240696"><ele>17.0</ele><time>2026-05-01T14:50:49Z</time></trkpt><trkpt lat="42.40971022400279" lon="14.148264155955872"><ele>17.0</ele><time>2026-05-01T14:50:50Z</time></trkpt><trkpt lat="42.409825521215346" lon="14.148354683547787"><ele>17.0</ele><time>2026-05-01T14:50:51Z</time></trkpt><trkpt lat="42.409948808590656" lon="14.148450370971995"><ele>17.5</ele><time>2026-05-01T14:50:52Z</time></trkpt><trkpt lat="42.41007645258054" lon="14.148551313130234"><ele>18.0</ele><time>2026-05-01T14:50:53Z</time></trkpt><trkpt lat="42.4101984117308" lon="14.148648903107915"><ele>18.5</ele><time>2026-05-01T14:50:54Z</time></trkpt><trkpt lat="42.410320525029" lon="14.148744598134128"><ele>19.0</ele><time>2026-05-01T14:50:55Z</time></trkpt><trkpt lat="42.410442710340305" lon="14.148843792776304"><ele>19.0</ele><time>2026-05-01T14:50:56Z</time></trkpt><trkpt lat="42.410567676705185" lon="14.148944326841292"><ele>19.0</ele><time>2026-05-01T14:50:57Z</time></trkpt><trkpt lat="42.41069423453191" lon="14.149044453325509"><ele>19.0</ele><time>2026-05-01T14:50:58Z</time></trkpt><trkpt lat="42.4108184960162" lon="14.149144231070887"><ele>19.0</ele><time>2026-05-01T14:50:59Z</time></trkpt><trkpt lat="42.41094228161011" lon="14.149241767994738"><ele>19.5</ele><time>2026-05-01T14:51:00Z</time></trkpt><trkpt lat="42.41106585979805" lon="14.14933714743784"><ele>20.0</ele><time>2026-05-01T14:51:01Z</time></trkpt><trkpt lat="42.411187540440345" lon="14.149432144370484"><ele>20.5</ele><time>2026-05-01T14:51:02Z</time></trkpt><trkpt lat="42.411309400451856" lon="14.149527759712461"><ele>21.0</ele><time>2026-05-01T14:51:03Z</time></trkpt><trkpt lat="42.41143113266859" lon="14.149622841028773"><ele>21.0</ele><time>2026-05-01T14:51:04Z</time></trkpt><trkpt lat="42.4115501211375" lon="14.149719811475718"><ele>21.0</ele><time>2026-05-01T14:51:05Z</time></trkpt><trkpt lat="42.411667238881165" lon="14.14981458695639"><ele>21.0</ele><time>2026-05-01T14:51:06Z</time></trkpt><trkpt lat="42.41178532653069" lon="14.149907522599623"><ele>21.0</ele><time>2026-05-01T14:51:07.001Z</time></trkpt><trkpt lat="42.41190320820401" lon="14.149999283703515"><ele>20.25</ele><time>2026-05-01T14:51:08.001Z</time></trkpt><trkpt lat="42.41202155511678" lon="14.150092520638582"><ele>19.5</ele><time>2026-05-01T14:51:09.001Z</time></trkpt><trkpt lat="42.41214123384071" lon="14.15018703228171"><ele>18.75</ele><time>2026-05-01T14:51:10.001Z</time></trkpt><trkpt lat="42.41226165398838" lon="14.150281423434421"><ele>18.0</ele><time>2026-05-01T14:51:11.001Z</time></trkpt><trkpt lat="42.41238010771292" lon="14.150377062356133"><ele>17.25</ele><time>2026-05-01T14:51:12.001Z</time></trkpt><trkpt lat="42.41250052872083" lon="14.150472391118159"><ele>16.5</ele><time>2026-05-01T14:51:13.001Z</time></trkpt><trkpt lat="42.41262197983442" lon="14.150567252512836"><ele>15.75</ele><time>2026-05-01T14:51:14.001Z</time></trkpt><trkpt lat="42.412742802350444" lon="14.15066234543914"><ele>15.0</ele><time>2026-05-01T14:51:15.001Z</time></trkpt><trkpt lat="42.41286008984671" lon="14.150763230214395"><ele>15.0</ele><time>2026-05-01T14:51:16.001Z</time></trkpt><trkpt lat="42.41297235567143" lon="14.150871868097864"><ele>15.0</ele><time>2026-05-01T14:51:17.001Z</time></trkpt><trkpt lat="42.41308220745456" lon="14.150987073772933"><ele>15.0</ele><time>2026-05-01T14:51:18.001Z</time></trkpt><trkpt lat="42.41319025394397" lon="14.151103587116513"><ele>15.0</ele><time>2026-05-01T14:51:19.001Z</time></trkpt><trkpt lat="42.413298578197924" lon="14.151217777065314"><ele>15.0</ele><time>2026-05-01T14:51:20.001Z</time></trkpt><trkpt lat="42.41340669693399" lon="14.151332230356354"><ele>15.0</ele><time>2026-05-01T14:51:21.001Z</time></trkpt><trkpt lat="42.413516218450454" lon="14.151441937480579"><ele>15.0</ele><time>2026-05-01T14:51:22.001Z</time></trkpt><trkpt lat="42.41362960220156" lon="14.151541992041729"><ele>15.0</ele><time>2026-05-01T14:51:23.001Z</time></trkpt><trkpt lat="42.41374256019522" lon="14.15163183975316"><ele>15.25</ele><time>2026-05-01T14:51:24.001Z</time></trkpt><trkpt lat="42.413857489369605" lon="14.151710558516937"><ele>15.5</ele><time>2026-05-01T14:51:25.001Z</time></trkpt><trkpt lat="42.4139733505666" lon="14.151777391892809"><ele>15.75</ele><time>2026-05-01T14:51:26.001Z</time></trkpt><trkpt lat="42.4140922065628" lon="14.151839680861633"><ele>16.0</ele><time>2026-05-01T14:51:27.001Z</time></trkpt><trkpt lat="42.41421142326759" lon="14.151894394386344"><ele>16.0</ele><time>2026-05-01T14:51:28.001Z</time></trkpt><trkpt lat="42.414334534202105" lon="14.151942551064606"><ele>16.0</ele><time>2026-05-01T14:51:29.001Z</time></trkpt><trkpt lat="42.414459974067924" lon="14.151981079479965"><ele>16.0</ele><time>2026-05-01T14:51:30Z</time></trkpt><trkpt lat="42.41458913467903" lon="14.15201325424038"><ele>16.0</ele><time>2026-05-01T14:51:31Z</time></trkpt><trkpt lat="42.41472066843745" lon="14.152040077035199"><ele>15.75</ele><time>2026-05-01T14:51:32Z</time></trkpt><trkpt lat="42.41485392257542" lon="14.152052860117115"><ele>15.5</ele><time>2026-05-01T14:51:33Z</time></trkpt><trkpt lat="42.4149880857661" lon="14.15206071218781"><ele>15.25</ele><time>2026-05-01T14:51:34Z</time></trkpt><trkpt lat="42.41512477453355" lon="14.152066767763992"><ele>15.0</ele><time>2026-05-01T14:51:35Z</time></trkpt><trkpt lat="42.41526196567609" lon="14.152073556533905"><ele>15.0</ele><time>2026-05-01T14:51:36Z</time></trkpt><trkpt lat="42.41539705965632" lon="14.152082858093472"><ele>15.0</ele><time>2026-05-01T14:51:37Z</time></trkpt><trkpt lat="42.415528153589115" lon="14.152091537773254"><ele>15.0</ele><time>2026-05-01T14:51:38Z</time></trkpt><trkpt lat="42.41565784645002" lon="14.152102490419614"><ele>15.0</ele><time>2026-05-01T14:51:39Z</time></trkpt><trkpt lat="42.415788975485626" lon="14.152124218352437"><ele>15.25</ele><time>2026-05-01T14:51:40Z</time></trkpt><trkpt lat="42.41592028125157" lon="14.152157908970409"><ele>15.5</ele><time>2026-05-01T14:51:41Z</time></trkpt><trkpt lat="42.4160447549079" lon="14.15221375680999"><ele>15.75</ele><time>2026-05-01T14:51:42Z</time></trkpt><trkpt lat="42.41616522659226" lon="14.152290727125527"><ele>16.0</ele><time>2026-05-01T14:51:43Z</time></trkpt><trkpt lat="42.41627828346138" lon="14.152383624854822"><ele>17.0</ele><time>2026-05-01T14:51:44Z</time></trkpt><trkpt lat="42.41638445463941" lon="14.152493126798806"><ele>18.0</ele><time>2026-05-01T14:51:45Z</time></trkpt><trkpt lat="42.41648094528272" lon="14.152614757188783"><ele>19.0</ele><time>2026-05-01T14:51:46Z</time></trkpt><trkpt lat="42.416567323315036" lon="14.152738804802796"><ele>20.0</ele><time>2026-05-01T14:51:47Z</time></trkpt><trkpt lat="42.41665043677931" lon="14.152858814583974"><ele>20.0</ele><time>2026-05-01T14:51:48Z</time></trkpt><trkpt lat="42.41673136229306" lon="14.152970793392555"><ele>20.0</ele><time>2026-05-01T14:51:49Z</time></trkpt><trkpt lat="42.41680813251977" lon="14.153078334866445"><ele>20.0</ele><time>2026-05-01T14:51:50Z</time></trkpt><trkpt lat="42.41688161566392" lon="14.153181927255371"><ele>20.0</ele><time>2026-05-01T14:51:51Z</time></trkpt><trkpt lat="42.41695715794248" lon="14.15328350265635"><ele>20.0</ele><time>2026-05-01T14:51:52Z</time></trkpt><trkpt lat="42.41703074290705" lon="14.153385192655705"><ele>19.8</ele><time>2026-05-01T14:51:53Z</time></trkpt><trkpt lat="42.41710693336084" lon="14.153489273176373"><ele>19.6</ele><time>2026-05-01T14:51:54Z</time></trkpt><trkpt lat="42.417184483746084" lon="14.153592858596474"><ele>19.4</ele><time>2026-05-01T14:51:55Z</time></trkpt><trkpt lat="42.417263330225374" lon="14.153698300232177"><ele>19.2</ele><time>2026-05-01T14:51:56Z</time></trkpt><trkpt lat="42.41734216244004" lon="14.153806312008323"><ele>19.0</ele><time>2026-05-01T14:51:57Z</time></trkpt><trkpt lat="42.41741682643991" lon="14.153909005973693"><ele>19.0</ele><time>2026-05-01T14:51:58Z</time></trkpt><trkpt lat="42.41749514692163" lon="14.15401703770896"><ele>19.0</ele><time>2026-05-01T14:51:59Z</time></trkpt><trkpt lat="42.417576458885016" lon="14.154124783573627"><ele>19.0</ele><time>2026-05-01T14:52:00Z</time></trkpt><trkpt lat="42.417660229805584" lon="14.154234420703702"><ele>19.0</ele><time>2026-05-01T14:52:01Z</time></trkpt><trkpt lat="42.41774543930511" lon="14.154347430114468"><ele>19.0</ele><time>2026-05-01T14:52:02Z</time></trkpt><trkpt lat="42.41783183346575" lon="14.154461566848402"><ele>19.0</ele><time>2026-05-01T14:52:03Z</time></trkpt><trkpt lat="42.41792162479862" lon="14.154576769856808"><ele>19.0</ele><time>2026-05-01T14:52:04Z</time></trkpt><trkpt lat="42.41801199824485" lon="14.154695998050327"><ele>19.0</ele><time>2026-05-01T14:52:05Z</time></trkpt><trkpt lat="42.41809883272441" lon="14.15481657453866"><ele>18.5</ele><time>2026-05-01T14:52:06Z</time></trkpt><trkpt lat="42.418186393150734" lon="14.154941819184195"><ele>18.0</ele><time>2026-05-01T14:52:07Z</time></trkpt><trkpt lat="42.41827177346784" lon="14.15506177679886"><ele>17.5</ele><time>2026-05-01T14:52:08Z</time></trkpt><trkpt lat="42.41835592669108" lon="14.155177492216035"><ele>17.0</ele><time>2026-05-01T14:52:09Z</time></trkpt><trkpt lat="42.418438875864005" lon="14.15529292213371"><ele>17.0</ele><time>2026-05-01T14:52:10Z</time></trkpt><trkpt lat="42.418524180289744" lon="14.15540560658638"><ele>17.0</ele><time>2026-05-01T14:52:11Z</time></trkpt><trkpt lat="42.41860910552258" lon="14.155518030010823"><ele>17.0</ele><time>2026-05-01T14:52:12Z</time></trkpt><trkpt lat="42.41869215946304" lon="14.155634581945064"><ele>17.0</ele><time>2026-05-01T14:52:13Z</time></trkpt><trkpt lat="42.4187762867528" lon="14.1557510448655"><ele>18.5</ele><time>2026-05-01T14:52:14Z</time></trkpt><trkpt lat="42.41885944567637" lon="14.155874104179603"><ele>20.0</ele><time>2026-05-01T14:52:15Z</time></trkpt><trkpt lat="42.418949301266366" lon="14.155999191646117"><ele>21.5</ele><time>2026-05-01T14:52:16Z</time></trkpt><trkpt lat="42.41904101795252" lon="14.156123774075667"><ele>23.0</ele><time>2026-05-01T14:52:17Z</time></trkpt><trkpt lat="42.41914077991063" lon="14.15623926274223"><ele>23.0</ele><time>2026-05-01T14:52:18Z</time></trkpt><trkpt lat="42.41925072746846" lon="14.156332962876196"><ele>23.0</ele><time>2026-05-01T14:52:19Z</time></trkpt><trkpt lat="42.419369498058984" lon="14.156406886216402"><ele>23.0</ele><time>2026-05-01T14:52:20Z</time></trkpt><trkpt lat="42.419494011081234" lon="14.156463359488908"><ele>23.0</ele><time>2026-05-01T14:52:21Z</time></trkpt><trkpt lat="42.41961932986579" lon="14.156516007384583"><ele>22.25</ele><time>2026-05-01T14:52:22Z</time></trkpt><trkpt lat="42.41974331347452" lon="14.156568336381596"><ele>21.5</ele><time>2026-05-01T14:52:23Z</time></trkpt><trkpt lat="42.41986419895116" lon="14.156620893225186"><ele>20.75</ele><time>2026-05-01T14:52:24Z</time></trkpt><trkpt lat="42.41998256032146" lon="14.156673317127632"><ele>20.0</ele><time>2026-05-01T14:52:25Z</time></trkpt><trkpt lat="42.42009961989885" lon="14.156722360115493"><ele>20.0</ele><time>2026-05-01T14:52:26Z</time></trkpt><trkpt lat="42.42021483031616" lon="14.156769753756494"><ele>20.0</ele><time>2026-05-01T14:52:27Z</time></trkpt><trkpt lat="42.420328679338525" lon="14.156820229253638"><ele>20.0</ele><time>2026-05-01T14:52:28Z</time></trkpt><trkpt lat="42.42044143321246" lon="14.156866955137705"><ele>20.0</ele><time>2026-05-01T14:52:29Z</time></trkpt><trkpt lat="42.420553201320075" lon="14.156917238945017"><ele>20.2</ele><time>2026-05-01T14:52:30Z</time></trkpt><trkpt lat="42.42066755494306" lon="14.156960936095972"><ele>20.4</ele><time>2026-05-01T14:52:31Z</time></trkpt><trkpt lat="42.42077681618182" lon="14.157003559089683"><ele>20.6</ele><time>2026-05-01T14:52:32Z</time></trkpt><trkpt lat="42.4208797652239" lon="14.157043259196291"><ele>20.8</ele><time>2026-05-01T14:52:33Z</time></trkpt><trkpt lat="42.42097639471708" lon="14.157083808982971"><ele>21.0</ele><time>2026-05-01T14:52:34Z</time></trkpt><trkpt lat="42.42107013101797" lon="14.157122674325892"><ele>21.0</ele><time>2026-05-01T14:52:35Z</time></trkpt><trkpt lat="42.421163176760246" lon="14.157161484811134"><ele>21.0</ele><time>2026-05-01T14:52:36Z</time></trkpt><trkpt lat="42.421253176828316" lon="14.157199210320066"><ele>21.0</ele><time>2026-05-01T14:52:37Z</time></trkpt><trkpt lat="42.42133964980751" lon="14.157234684871696"><ele>21.0</ele><time>2026-05-01T14:52:38Z</time></trkpt><trkpt lat="42.421421906693396" lon="14.157269042303623"><ele>21.0</ele><time>2026-05-01T14:52:39Z</time></trkpt><trkpt lat="42.421496327917446" lon="14.157300677143214"><ele>21.0</ele><time>2026-05-01T14:52:40Z</time></trkpt><trkpt lat="42.42156837671972" lon="14.157330509490635"><ele>21.333333333333332</ele><time>2026-05-01T14:52:41Z</time></trkpt><trkpt lat="42.42163995762442" lon="14.157358842204808"><ele>21.666666666666668</ele><time>2026-05-01T14:52:42Z</time></trkpt><trkpt lat="42.421713174815146" lon="14.157388061357683"><ele>22.0</ele><time>2026-05-01T14:52:43Z</time></trkpt><trkpt lat="42.421787329413874" lon="14.1574175363007"><ele>22.333333333333336</ele><time>2026-05-01T14:52:44Z</time></trkpt><trkpt lat="42.421866704494974" lon="14.157434301912618"><ele>22.666666666666668</ele><time>2026-05-01T14:52:45Z</time></trkpt><trkpt lat="42.421945416773696" lon="14.157435924646895"><ele>23.0</ele><time>2026-05-01T14:52:46Z</time></trkpt><trkpt lat="42.42203017685223" lon="14.157428018723373"><ele>22.5</ele><time>2026-05-01T14:52:47Z</time></trkpt><trkpt lat="42.42211079928602" lon="14.15741301791534"><ele>22.0</ele><time>2026-05-01T14:52:48Z</time></trkpt><trkpt lat="42.42218504424961" lon="14.157414914232925"><ele>21.5</ele><time>2026-05-01T14:52:49Z</time></trkpt><trkpt lat="42.42225693086588" lon="14.157444150962947"><ele>21.0</ele><time>2026-05-01T14:52:50Z</time></trkpt><trkpt lat="42.42233250232784" lon="14.157484226819605"><ele>20.5</ele><time>2026-05-01T14:52:51Z</time></trkpt><trkpt lat="42.42241321032151" lon="14.157529894629594"><ele>20.0</ele><time>2026-05-01T14:52:52Z</time></trkpt><trkpt lat="42.422500286862196" lon="14.157571794554512"><ele>20.0</ele><time>2026-05-01T14:52:53Z</time></trkpt><trkpt lat="42.42258439169739" lon="14.157621811936567"><ele>20.0</ele><time>2026-05-01T14:52:54Z</time></trkpt><trkpt lat="42.42266236985819" lon="14.15768680542866"><ele>20.0</ele><time>2026-05-01T14:52:55Z</time></trkpt><trkpt lat="42.422732712808724" lon="14.15775051893399"><ele>20.0</ele><time>2026-05-01T14:52:56Z</time></trkpt><trkpt lat="42.42280705890118" lon="14.157800706682284"><ele>20.0</ele><time>2026-05-01T14:52:57Z</time></trkpt><trkpt lat="42.42288800162137" lon="14.157842338545095"><ele>20.0</ele><time>2026-05-01T14:52:58Z</time></trkpt><trkpt lat="42.42297323236532" lon="14.15787982880985"><ele>19.6</ele><time>2026-05-01T14:52:59Z</time></trkpt><trkpt lat="42.423063390250256" lon="14.157916904748424"><ele>19.2</ele><time>2026-05-01T14:53:00Z</time></trkpt><trkpt lat="42.42315610229117" lon="14.157955670077996"><ele>18.8</ele><time>2026-05-01T14:53:01Z</time></trkpt><trkpt lat="42.42325226635879" lon="14.157997352403983"><ele>18.4</ele><time>2026-05-01T14:53:02Z</time></trkpt><trkpt lat="42.42335043101567" lon="14.158041109139004"><ele>18.0</ele><time>2026-05-01T14:53:03Z</time></trkpt><trkpt lat="42.423445031139295" lon="14.158080538899906"><ele>18.0</ele><time>2026-05-01T14:53:04Z</time></trkpt><trkpt lat="42.42353286305809" lon="14.15811807995329"><ele>18.0</ele><time>2026-05-01T14:53:05Z</time></trkpt><trkpt lat="42.423613685675406" lon="14.158152914777224"><ele>18.0</ele><time>2026-05-01T14:53:06Z</time></trkpt><trkpt lat="42.42368562817334" lon="14.158181385459148"><ele>18.0</ele><time>2026-05-01T14:53:07Z</time></trkpt><trkpt lat="42.42375206992792" lon="14.158206576760323"><ele>18.0</ele><time>2026-05-01T14:53:08Z</time></trkpt><trkpt lat="42.42386439871785" lon="14.158249633945639"><ele>18.0</ele><time>2026-05-01T14:53:10Z</time></trkpt><trkpt lat="42.423963028177766" lon="14.15828939389097"><ele>17.833333333333332</ele><time>2026-05-01T14:53:12Z</time></trkpt><trkpt lat="42.42406771389906" lon="14.158334950283566"><ele>17.666666666666668</ele><time>2026-05-01T14:53:14Z</time></trkpt><trkpt lat="42.42413007133874" lon="14.158365842153325"><ele>17.5</ele><time>2026-05-01T14:53:15Z</time></trkpt><trkpt lat="42.424198605953556" lon="14.158398856582671"><ele>17.333333333333336</ele><time>2026-05-01T14:53:16Z</time></trkpt><trkpt lat="42.42427407013105" lon="14.15843138839187"><ele>17.166666666666668</ele><time>2026-05-01T14:53:17Z</time></trkpt><trkpt lat="42.424351518336074" lon="14.158463130904677"><ele>17.0</ele><time>2026-05-01T14:53:18Z</time></trkpt><trkpt lat="42.42442113946578" lon="14.1584927488146"><ele>17.0</ele><time>2026-05-01T14:53:19Z</time></trkpt><trkpt lat="42.42448697565305" lon="14.158519570043469"><ele>17.0</ele><time>2026-05-01T14:53:20Z</time></trkpt><trkpt lat="42.42455321896534" lon="14.15854839917405"><ele>17.0</ele><time>2026-05-01T14:53:21Z</time></trkpt><trkpt lat="42.424625317394735" lon="14.158580750818006"><ele>17.0</ele><time>2026-05-01T14:53:22Z</time></trkpt><trkpt lat="42.42470401273084" lon="14.158614793246384"><ele>17.0</ele><time>2026-05-01T14:53:23Z</time></trkpt><trkpt lat="42.42478787109385" lon="14.158648296638507"><ele>17.0</ele><time>2026-05-01T14:53:24Z</time></trkpt><trkpt lat="42.4248765230845" lon="14.158683354523122"><ele>17.2</ele><time>2026-05-01T14:53:25Z</time></trkpt><trkpt lat="42.42496616902336" lon="14.158722901795235"><ele>17.4</ele><time>2026-05-01T14:53:26Z</time></trkpt><trkpt lat="42.42505854264634" lon="14.158764500216513"><ele>17.6</ele><time>2026-05-01T14:53:27Z</time></trkpt><trkpt lat="42.42515400857136" lon="14.15880358714198"><ele>17.8</ele><time>2026-05-01T14:53:28Z</time></trkpt><trkpt lat="42.42525077726163" lon="14.158842795938195"><ele>18.0</ele><time>2026-05-01T14:53:29Z</time></trkpt><trkpt lat="42.42534287427115" lon="14.158883528939272"><ele>18.0</ele><time>2026-05-01T14:53:30.001Z</time></trkpt><trkpt lat="42.42542515799172" lon="14.15892197718862"><ele>18.0</ele><time>2026-05-01T14:53:31.001Z</time></trkpt><trkpt lat="42.425498022028954" lon="14.158956099544207"><ele>18.0</ele><time>2026-05-01T14:53:32.001Z</time></trkpt><trkpt lat="42.42555985068433" lon="14.158987504182571"><ele>18.0</ele><time>2026-05-01T14:53:33.001Z</time></trkpt><trkpt lat="42.425655789417284" lon="14.159036002270868"><ele>18.0</ele><time>2026-05-01T14:53:35.001Z</time></trkpt><trkpt lat="42.42573148250641" lon="14.159072619840655"><ele>18.0</ele><time>2026-05-01T14:53:37Z</time></trkpt><trkpt lat="42.42580421863964" lon="14.159111826950568"><ele>18.2</ele><time>2026-05-01T14:53:39Z</time></trkpt><trkpt lat="42.425929585675625" lon="14.159173013157089"><ele>18.4</ele><time>2026-05-01T14:53:41Z</time></trkpt><trkpt lat="42.42600396567498" lon="14.159217607533458"><ele>18.599999999999998</ele><time>2026-05-01T14:53:42Z</time></trkpt><trkpt lat="42.42607784340297" lon="14.159262971001205"><ele>18.8</ele><time>2026-05-01T14:53:43Z</time></trkpt><trkpt lat="42.42615388790702" lon="14.159310765934086"><ele>19.0</ele><time>2026-05-01T14:53:44Z</time></trkpt><trkpt lat="42.42623000452175" lon="14.159360905353568"><ele>19.0</ele><time>2026-05-01T14:53:45Z</time></trkpt><trkpt lat="42.42630455416825" lon="14.159413612637739"><ele>19.0</ele><time>2026-05-01T14:53:46Z</time></trkpt><trkpt lat="42.42638417063591" lon="14.159470670715415"><ele>19.0</ele><time>2026-05-01T14:53:47Z</time></trkpt><trkpt lat="42.42646534903715" lon="14.159527683506095"><ele>19.0</ele><time>2026-05-01T14:53:48Z</time></trkpt><trkpt lat="42.42655072345739" lon="14.15958636327979"><ele>19.0</ele><time>2026-05-01T14:53:49Z</time></trkpt><trkpt lat="42.42664025216316" lon="14.159650525768193"><ele>19.0</ele><time>2026-05-01T14:53:50Z</time></trkpt><trkpt lat="42.42673024234241" lon="14.159718573535168"><ele>19.0</ele><time>2026-05-01T14:53:51Z</time></trkpt><trkpt lat="42.426817945625345" lon="14.159786474411348"><ele>19.0</ele><time>2026-05-01T14:53:52Z</time></trkpt><trkpt lat="42.42690628785661" lon="14.159853952538585"><ele>19.0</ele><time>2026-05-01T14:53:53Z</time></trkpt><trkpt lat="42.42700152903469" lon="14.159930971495166"><ele>19.0</ele><time>2026-05-01T14:53:54Z</time></trkpt><trkpt lat="42.427107716657105" lon="14.160016515513375"><ele>18.75</ele><time>2026-05-01T14:53:55Z</time></trkpt><trkpt lat="42.42721068053429" lon="14.160103715651484"><ele>18.5</ele><time>2026-05-01T14:53:56Z</time></trkpt><trkpt lat="42.4273183351834" lon="14.160200735441808"><ele>18.25</ele><time>2026-05-01T14:53:57Z</time></trkpt><trkpt lat="42.42742822600664" lon="14.160301717141955"><ele>18.0</ele><time>2026-05-01T14:53:58Z</time></trkpt><trkpt lat="42.42753675468476" lon="14.16040168853561"><ele>18.0</ele><time>2026-05-01T14:53:59Z</time></trkpt><trkpt lat="42.42764487290253" lon="14.160500986495991"><ele>18.0</ele><time>2026-05-01T14:54:00Z</time></trkpt><trkpt lat="42.42775107911546" lon="14.160602184309168"><ele>18.0</ele><time>2026-05-01T14:54:01Z</time></trkpt><trkpt lat="42.42785398581764" lon="14.160701698793206"><ele>18.0</ele><time>2026-05-01T14:54:02Z</time></trkpt><trkpt lat="42.42795523006838" lon="14.160799064142937"><ele>17.75</ele><time>2026-05-01T14:54:03Z</time></trkpt><trkpt lat="42.428051531051835" lon="14.160895500345916"><ele>17.5</ele><time>2026-05-01T14:54:04Z</time></trkpt><trkpt lat="42.42814998397848" lon="14.160994357373653"><ele>17.25</ele><time>2026-05-01T14:54:05Z</time></trkpt><trkpt lat="42.42825084891556" lon="14.161094307096901"><ele>17.0</ele><time>2026-05-01T14:54:06Z</time></trkpt><trkpt lat="42.42835507535679" lon="14.161191282759873"><ele>17.0</ele><time>2026-05-01T14:54:07Z</time></trkpt><trkpt lat="42.42845677827027" lon="14.161288900769918"><ele>17.0</ele><time>2026-05-01T14:54:08Z</time></trkpt><trkpt lat="42.428556332413756" lon="14.16138622230265"><ele>17.0</ele><time>2026-05-01T14:54:09Z</time></trkpt><trkpt lat="42.42865383397465" lon="14.161481833985635"><ele>17.0</ele><time>2026-05-01T14:54:10Z</time></trkpt><trkpt lat="42.428746570573814" lon="14.161574323487534"><ele>19.0</ele><time>2026-05-01T14:54:11Z</time></trkpt><trkpt lat="42.42883418729094" lon="14.161662726917141"><ele>21.0</ele><time>2026-05-01T14:54:12Z</time></trkpt><trkpt lat="42.428919645329195" lon="14.161750415176698"><ele>23.000000000000004</ele><time>2026-05-01T14:54:13Z</time></trkpt><trkpt lat="42.42899995754599" lon="14.161832385144413"><ele>25.0</ele><time>2026-05-01T14:54:14Z</time></trkpt><trkpt lat="42.42907625510636" lon="14.161910014422835"><ele>27.0</ele><time>2026-05-01T14:54:15Z</time></trkpt><trkpt lat="42.429152375177026" lon="14.161986726528179"><ele>27.0</ele><time>2026-05-01T14:54:16Z</time></trkpt><trkpt lat="42.4292272493856" lon="14.162061274631828"><ele>27.000000000000004</ele><time>2026-05-01T14:54:17Z</time></trkpt><trkpt lat="42.42930044848784" lon="14.162136433852043"><ele>27.000000000000004</ele><time>2026-05-01T14:54:18Z</time></trkpt><trkpt lat="42.42937849884492" lon="14.162214904436683"><ele>27.0</ele><time>2026-05-01T14:54:19Z</time></trkpt><trkpt lat="42.429458241519185" lon="14.162295015107361"><ele>27.0</ele><time>2026-05-01T14:54:20Z</time></trkpt><trkpt lat="42.429538084376226" lon="14.162375822131473"><ele>25.8</ele><time>2026-05-01T14:54:21Z</time></trkpt><trkpt lat="42.429620146679795" lon="14.162453224177595"><ele>24.6</ele><time>2026-05-01T14:54:22Z</time></trkpt><trkpt lat="42.429704243883734" lon="14.16252483391822"><ele>23.400000000000002</ele><time>2026-05-01T14:54:23Z</time></trkpt><trkpt lat="42.429791045405054" lon="14.16259052739373"><ele>22.200000000000003</ele><time>2026-05-01T14:54:24Z</time></trkpt><trkpt lat="42.42987963046156" lon="14.162646888088005"><ele>21.0</ele><time>2026-05-01T14:54:25Z</time></trkpt><trkpt lat="42.42996901836554" lon="14.162690442321935"><ele>21.0</ele><time>2026-05-01T14:54:26Z</time></trkpt><trkpt lat="42.43005981178508" lon="14.162725582146008"><ele>21.0</ele><time>2026-05-01T14:54:27Z</time></trkpt><trkpt lat="42.43015043170709" lon="14.162752697453358"><ele>21.0</ele><time>2026-05-01T14:54:28Z</time></trkpt><trkpt lat="42.43023840813016" lon="14.16276701390816"><ele>21.0</ele><time>2026-05-01T14:54:29Z</time></trkpt><trkpt lat="42.43031842865055" lon="14.162774537156006"><ele>21.0</ele><time>2026-05-01T14:54:30Z</time></trkpt><trkpt lat="42.43038368095941" lon="14.162807600616265"><ele>21.0</ele><time>2026-05-01T14:54:31Z</time></trkpt><trkpt lat="42.43048657740367" lon="14.162822905521448"><ele>21.0</ele><time>2026-05-01T14:54:33Z</time></trkpt><trkpt lat="42.43049760690695" lon="14.162615327993398"><ele>21.0</ele><time>2026-05-01T14:54:37Z</time></trkpt><trkpt lat="42.430437263388384" lon="14.162572610792697"><ele>21.0</ele><time>2026-05-01T14:54:38Z</time></trkpt><trkpt lat="42.43038075529601" lon="14.162527378167347"><ele>21.0</ele><time>2026-05-01T14:54:39Z</time></trkpt><trkpt lat="42.43032930758421" lon="14.162409392484411"><ele>21.0</ele><time>2026-05-01T14:54:41Z</time></trkpt><trkpt lat="42.43037182308589" lon="14.162246725520161"><ele>21.4</ele><time>2026-05-01T14:54:43Z</time></trkpt><trkpt lat="42.43041730239195" lon="14.162157308098799"><ele>21.8</ele><time>2026-05-01T14:54:44Z</time></trkpt><trkpt lat="42.43046206122106" lon="14.162050877820498"><ele>22.2</ele><time>2026-05-01T14:54:45Z</time></trkpt><trkpt lat="42.43051064536235" lon="14.161930741184952"><ele>22.599999999999998</ele><time>2026-05-01T14:54:46Z</time></trkpt><trkpt lat="42.43055900731607" lon="14.161816858411672"><ele>23.0</ele><time>2026-05-01T14:54:47Z</time></trkpt><trkpt lat="42.430606448381866" lon="14.161704135025497"><ele>23.0</ele><time>2026-05-01T14:54:48Z</time></trkpt><trkpt lat="42.43065379445446" lon="14.16158489307769"><ele>23.0</ele><time>2026-05-01T14:54:49Z</time></trkpt><trkpt lat="42.43070008064486" lon="14.161466866015566"><ele>23.0</ele><time>2026-05-01T14:54:50Z</time></trkpt><trkpt lat="42.43074277886806" lon="14.16135318952943"><ele>23.0</ele><time>2026-05-01T14:54:51Z</time></trkpt><trkpt lat="42.43078487467844" lon="14.161244579242522"><ele>23.0</ele><time>2026-05-01T14:54:52Z</time></trkpt><trkpt lat="42.430824869704004" lon="14.161147978201978"><ele>23.799999999999997</ele><time>2026-05-01T14:54:53Z</time></trkpt><trkpt lat="42.43092414251468" lon="14.161083491015637"><ele>24.6</ele><time>2026-05-01T14:54:54Z</time></trkpt><trkpt lat="42.4309420948123" lon="14.160985554826198"><ele>25.400000000000002</ele><time>2026-05-01T14:54:55Z</time></trkpt><trkpt lat="42.43097218100708" lon="14.16087649642185"><ele>26.200000000000003</ele><time>2026-05-01T14:54:56Z</time></trkpt><trkpt lat="42.431003942050864" lon="14.160747632139598"><ele>27.0</ele><time>2026-05-01T14:54:57Z</time></trkpt><trkpt lat="42.43105720857086" lon="14.160622254915827"><ele>27.0</ele><time>2026-05-01T14:54:58Z</time></trkpt><trkpt lat="42.43111011319496" lon="14.160490525345521"><ele>27.0</ele><time>2026-05-01T14:54:59Z</time></trkpt><trkpt lat="42.431164323289" lon="14.160353794928097"><ele>27.0</ele><time>2026-05-01T14:55:00Z</time></trkpt><trkpt lat="42.4312213712908" lon="14.16021510959896"><ele>27.0</ele><time>2026-05-01T14:55:01Z</time></trkpt><trkpt lat="42.43127898275704" lon="14.160076062425016"><ele>27.75</ele><time>2026-05-01T14:55:02Z</time></trkpt><trkpt lat="42.431338710032506" lon="14.15993469045966"><ele>28.5</ele><time>2026-05-01T14:55:03Z</time></trkpt><trkpt lat="42.43139958938061" lon="14.15979119938541"><ele>29.25</ele><time>2026-05-01T14:55:04Z</time></trkpt><trkpt lat="42.43146033894532" lon="14.15964440922728"><ele>30.0</ele><time>2026-05-01T14:55:05Z</time></trkpt><trkpt lat="42.431520017430174" lon="14.15949653521473"><ele>30.5</ele><time>2026-05-01T14:55:06Z</time></trkpt><trkpt lat="42.43157915735273" lon="14.159355100291261"><ele>31.0</ele><time>2026-05-01T14:55:07Z</time></trkpt><trkpt lat="42.43163949913072" lon="14.159216846618966"><ele>31.5</ele><time>2026-05-01T14:55:08Z</time></trkpt><trkpt lat="42.43169678727121" lon="14.159081268839321"><ele>32.0</ele><time>2026-05-01T14:55:09Z</time></trkpt><trkpt lat="42.43174819325138" lon="14.15894828845388"><ele>32.2</ele><time>2026-05-01T14:55:10Z</time></trkpt><trkpt lat="42.43179815327102" lon="14.158819320671386"><ele>32.400000000000006</ele><time>2026-05-01T14:55:11Z</time></trkpt><trkpt lat="42.431848636486386" lon="14.158695266369524"><ele>32.599999999999994</ele><time>2026-05-01T14:55:12Z</time></trkpt><trkpt lat="42.43189841182329" lon="14.158574614132025"><ele>32.8</ele><time>2026-05-01T14:55:13Z</time></trkpt><trkpt lat="42.431946518425974" lon="14.158454331928931"><ele>33.0</ele><time>2026-05-01T14:55:14Z</time></trkpt><trkpt lat="42.43199607234428" lon="14.158334973761443"><ele>33.0</ele><time>2026-05-01T14:55:15Z</time></trkpt><trkpt lat="42.43204564711072" lon="14.158217758422145"><ele>33.0</ele><time>2026-05-01T14:55:16Z</time></trkpt><trkpt lat="42.43209411902036" lon="14.158096727373637"><ele>33.0</ele><time>2026-05-01T14:55:17Z</time></trkpt><trkpt lat="42.43214968021025" lon="14.157973517673618"><ele>33.0</ele><time>2026-05-01T14:55:18Z</time></trkpt><trkpt lat="42.43220466615984" lon="14.157845992667783"><ele>33.0</ele><time>2026-05-01T14:55:19Z</time></trkpt><trkpt lat="42.43226085320969" lon="14.15771319112311"><ele>35.0</ele><time>2026-05-01T14:55:20Z</time></trkpt><trkpt lat="42.432322662637716" lon="14.157581216813554"><ele>37.0</ele><time>2026-05-01T14:55:21Z</time></trkpt><trkpt lat="42.43239574332364" lon="14.157457440050472"><ele>39.0</ele><time>2026-05-01T14:55:22Z</time></trkpt><trkpt lat="42.432479379825566" lon="14.157342755804473"><ele>41.0</ele><time>2026-05-01T14:55:23Z</time></trkpt><trkpt lat="42.43257104585734" lon="14.157234808576606"><ele>42.0</ele><time>2026-05-01T14:55:24Z</time></trkpt><trkpt lat="42.432668094399396" lon="14.157133975521623"><ele>43.0</ele><time>2026-05-01T14:55:25Z</time></trkpt><trkpt lat="42.43276886825708" lon="14.157036282266981"><ele>44.0</ele><time>2026-05-01T14:55:26Z</time></trkpt><trkpt lat="42.43287431055471" lon="14.156943059726157"><ele>45.0</ele><time>2026-05-01T14:55:27.001Z</time></trkpt><trkpt lat="42.43298302976068" lon="14.156849842796758"><ele>46.25</ele><time>2026-05-01T14:55:28.001Z</time></trkpt><trkpt lat="42.43309109042351" lon="14.15675548822831"><ele>47.5</ele><time>2026-05-01T14:55:29.001Z</time></trkpt><trkpt lat="42.4331998680738" lon="14.156667822430029"><ele>48.75</ele><time>2026-05-01T14:55:30.001Z</time></trkpt><trkpt lat="42.433304592242635" lon="14.156581503715659"><ele>50.0</ele><time>2026-05-01T14:55:31.001Z</time></trkpt><trkpt lat="42.433406800995975" lon="14.15649797257804"><ele>50.5</ele><time>2026-05-01T14:55:32.001Z</time></trkpt><trkpt lat="42.433506615715224" lon="14.156419178042107"><ele>51.0</ele><time>2026-05-01T14:55:33.001Z</time></trkpt><trkpt lat="42.43360519523778" lon="14.156343478783969"><ele>51.5</ele><time>2026-05-01T14:55:34.001Z</time></trkpt><trkpt lat="42.43370506763544" lon="14.156268164920077"><ele>52.0</ele><time>2026-05-01T14:55:35.001Z</time></trkpt><trkpt lat="42.43380551460626" lon="14.156189433213658"><ele>52.5</ele><time>2026-05-01T14:55:36.001Z</time></trkpt><trkpt lat="42.433909677194" lon="14.156114040235826"><ele>53.0</ele><time>2026-05-01T14:55:37.001Z</time></trkpt><trkpt lat="42.43401299208693" lon="14.156034310968346"><ele>53.5</ele><time>2026-05-01T14:55:38.001Z</time></trkpt><trkpt lat="42.434115720547204" lon="14.155954836306625"><ele>54.0</ele><time>2026-05-01T14:55:39.001Z</time></trkpt><trkpt lat="42.43421891944989" lon="14.155880163759653"><ele>54.0</ele><time>2026-05-01T14:55:40.001Z</time></trkpt><trkpt lat="42.43432373547675" lon="14.155805355186303"><ele>54.0</ele><time>2026-05-01T14:55:41.001Z</time></trkpt><trkpt lat="42.43442937077379" lon="14.155728445158486"><ele>54.0</ele><time>2026-05-01T14:55:42Z</time></trkpt><trkpt lat="42.434534251888" lon="14.155650841890166"><ele>54.0</ele><time>2026-05-01T14:55:43Z</time></trkpt><trkpt lat="42.43463432084382" lon="14.15557073378003"><ele>55.25</ele><time>2026-05-01T14:55:44Z</time></trkpt><trkpt lat="42.43473699724647" lon="14.155494894685356"><ele>56.5</ele><time>2026-05-01T14:55:45Z</time></trkpt><trkpt lat="42.434838363261086" lon="14.155421079451507"><ele>57.75</ele><time>2026-05-01T14:55:46Z</time></trkpt><trkpt lat="42.4349399159102" lon="14.155344857476274"><ele>59.0</ele><time>2026-05-01T14:55:47Z</time></trkpt><trkpt lat="42.43504006595386" lon="14.15526592537024"><ele>59.0</ele><time>2026-05-01T14:55:48Z</time></trkpt><trkpt lat="42.435141838219984" lon="14.155188833959103"><ele>59.0</ele><time>2026-05-01T14:55:49Z</time></trkpt><trkpt lat="42.43524557826213" lon="14.155113745431258"><ele>59.0</ele><time>2026-05-01T14:55:50Z</time></trkpt><trkpt lat="42.43534808895095" lon="14.155035024205649"><ele>59.0</ele><time>2026-05-01T14:55:51Z</time></trkpt><trkpt lat="42.4354519768012" lon="14.154954237552932"><ele>58.75</ele><time>2026-05-01T14:55:52Z</time></trkpt><trkpt lat="42.43555569916027" lon="14.154872282074647"><ele>58.5</ele><time>2026-05-01T14:55:53Z</time></trkpt><trkpt lat="42.43566121216781" lon="14.15479062051208"><ele>58.25</ele><time>2026-05-01T14:55:54Z</time></trkpt><trkpt lat="42.4357667945193" lon="14.154713401496021"><ele>58.0</ele><time>2026-05-01T14:55:55Z</time></trkpt><trkpt lat="42.43587474410711" lon="14.154634061245916"><ele>59.25</ele><time>2026-05-01T14:55:56Z</time></trkpt><trkpt lat="42.43597957035551" lon="14.154552617180988"><ele>60.5</ele><time>2026-05-01T14:55:57Z</time></trkpt><trkpt lat="42.43608454180346" lon="14.154468257887519"><ele>61.75</ele><time>2026-05-01T14:55:58Z</time></trkpt><trkpt lat="42.43619032459499" lon="14.154380027981093"><ele>63.0</ele><time>2026-05-01T14:55:59Z</time></trkpt><trkpt lat="42.43629619262166" lon="14.154290456808257"><ele>63.25</ele><time>2026-05-01T14:56:00Z</time></trkpt><trkpt lat="42.436401904688935" lon="14.154201118594385"><ele>63.5</ele><time>2026-05-01T14:56:01Z</time></trkpt><trkpt lat="42.43650778379486" lon="14.154110697373683"><ele>63.75</ele><time>2026-05-01T14:56:02Z</time></trkpt><trkpt lat="42.4366114671234" lon="14.154021641449729"><ele>64.0</ele><time>2026-05-01T14:56:03Z</time></trkpt><trkpt lat="42.43671211031784" lon="14.153934083092466"><ele>65.5</ele><time>2026-05-01T14:56:04Z</time></trkpt><trkpt lat="42.43681091114874" lon="14.153846009571865"><ele>67.0</ele><time>2026-05-01T14:56:05Z</time></trkpt><trkpt lat="42.436910094386285" lon="14.1537580266955"><ele>68.5</ele><time>2026-05-01T14:56:06Z</time></trkpt><trkpt lat="42.437010614917725" lon="14.153666914988916"><ele>70.0</ele><time>2026-05-01T14:56:07Z</time></trkpt><trkpt lat="42.437114335676064" lon="14.153578409035807"><ele>69.75</ele><time>2026-05-01T14:56:08Z</time></trkpt><trkpt lat="42.43721812149194" lon="14.153495757388885"><ele>69.5</ele><time>2026-05-01T14:56:09Z</time></trkpt><trkpt lat="42.43732109284967" lon="14.153420790521105"><ele>69.25</ele><time>2026-05-01T14:56:10Z</time></trkpt><trkpt lat="42.43742625108379" lon="14.153351604467781"><ele>69.0</ele><time>2026-05-01T14:56:11Z</time></trkpt><trkpt lat="42.4375406078811" lon="14.153295783137747"><ele>69.0</ele><time>2026-05-01T14:56:12Z</time></trkpt><trkpt lat="42.43766274822247" lon="14.153259409535355"><ele>69.0</ele><time>2026-05-01T14:56:13Z</time></trkpt><trkpt lat="42.4377889297168" lon="14.153230727304921"><ele>69.0</ele><time>2026-05-01T14:56:14Z</time></trkpt><trkpt lat="42.43791771449179" lon="14.15320070617633"><ele>69.0</ele><time>2026-05-01T14:56:15Z</time></trkpt><trkpt lat="42.438048531877754" lon="14.15316330549716"><ele>67.5</ele><time>2026-05-01T14:56:16Z</time></trkpt><trkpt lat="42.43817772279585" lon="14.153110584754447"><ele>66.0</ele><time>2026-05-01T14:56:17Z</time></trkpt><trkpt lat="42.43830264412781" lon="14.153040159767745"><ele>64.5</ele><time>2026-05-01T14:56:18Z</time></trkpt><trkpt lat="42.438418858399515" lon="14.15295120482826"><ele>63.0</ele><time>2026-05-01T14:56:19Z</time></trkpt><trkpt lat="42.438533494272164" lon="14.15284901998813"><ele>63.0</ele><time>2026-05-01T14:56:20Z</time></trkpt><trkpt lat="42.43864780402015" lon="14.152737639748606"><ele>63.0</ele><time>2026-05-01T14:56:21Z</time></trkpt><trkpt lat="42.43875726080936" lon="14.152609440913139"><ele>63.0</ele><time>2026-05-01T14:56:22Z</time></trkpt><trkpt lat="42.43886570775166" lon="14.152464752489616"><ele>63.0</ele><time>2026-05-01T14:56:23Z</time></trkpt><trkpt lat="42.438973764080046" lon="14.15231090903328"><ele>65.5</ele><time>2026-05-01T14:56:24Z</time></trkpt><trkpt lat="42.43907155793413" lon="14.152166670380717"><ele>68.0</ele><time>2026-05-01T14:56:25Z</time></trkpt><trkpt lat="42.43916706520175" lon="14.152022327778111"><ele>70.5</ele><time>2026-05-01T14:56:26Z</time></trkpt><trkpt lat="42.43926768721362" lon="14.151886315497508"><ele>73.0</ele><time>2026-05-01T14:56:27Z</time></trkpt><trkpt lat="42.439376349466784" lon="14.151767926267071"><ele>73.0</ele><time>2026-05-01T14:56:28Z</time></trkpt><trkpt lat="42.43948942405048" lon="14.151669243902724"><ele>73.0</ele><time>2026-05-01T14:56:29Z</time></trkpt><trkpt lat="42.439605854616936" lon="14.151586363122492"><ele>73.0</ele><time>2026-05-01T14:56:30Z</time></trkpt><trkpt lat="42.43972411915938" lon="14.151520707463014"><ele>73.0</ele><time>2026-05-01T14:56:31Z</time></trkpt><trkpt lat="42.439842470673334" lon="14.151463991165233"><ele>73.75</ele><time>2026-05-01T14:56:32Z</time></trkpt><trkpt lat="42.439958590511104" lon="14.151409537893802"><ele>74.5</ele><time>2026-05-01T14:56:33Z</time></trkpt><trkpt lat="42.440071703272565" lon="14.15134854197499"><ele>75.25</ele><time>2026-05-01T14:56:34Z</time></trkpt><trkpt lat="42.440183298886964" lon="14.15129104683834"><ele>76.0</ele><time>2026-05-01T14:56:35Z</time></trkpt><trkpt lat="42.44028943733415" lon="14.151225161658752"><ele>76.0</ele><time>2026-05-01T14:56:36Z</time></trkpt><trkpt lat="42.440376859911304" lon="14.151155620868817"><ele>76.0</ele><time>2026-05-01T14:56:37Z</time></trkpt><trkpt lat="42.44046257740654" lon="14.151083582359075"><ele>76.0</ele><time>2026-05-01T14:56:38Z</time></trkpt><trkpt lat="42.440551642335485" lon="14.151016124007802"><ele>76.0</ele><time>2026-05-01T14:56:39Z</time></trkpt><trkpt lat="42.44064461574072" lon="14.150956064907756"><ele>76.0</ele><time>2026-05-01T14:56:40Z</time></trkpt><trkpt lat="42.440744328093444" lon="14.15090577526501"><ele>79.0</ele><time>2026-05-01T14:56:41Z</time></trkpt><trkpt lat="42.440848823365265" lon="14.150862060017685"><ele>82.0</ele><time>2026-05-01T14:56:42Z</time></trkpt><trkpt lat="42.440959103823566" lon="14.150830783447624"><ele>85.0</ele><time>2026-05-01T14:56:43Z</time></trkpt><trkpt lat="42.44107233313535" lon="14.150816709435466"><ele>88.0</ele><time>2026-05-01T14:56:44Z</time></trkpt><trkpt lat="42.44118825653388" lon="14.150832992369445"><ele>88.75</ele><time>2026-05-01T14:56:45Z</time></trkpt><trkpt lat="42.44130955453507" lon="14.150871122457527"><ele>89.5</ele><time>2026-05-01T14:56:46Z</time></trkpt><trkpt lat="42.44143723633801" lon="14.150920723323013"><ele>90.25</ele><time>2026-05-01T14:56:47Z</time></trkpt><trkpt lat="42.44156992167475" lon="14.150962827214151"><ele>91.0</ele><time>2026-05-01T14:56:48Z</time></trkpt><trkpt lat="42.441700506024354" lon="14.150987049155985"><ele>91.0</ele><time>2026-05-01T14:56:49Z</time></trkpt><trkpt lat="42.44183534434867" lon="14.150991621414114"><ele>91.0</ele><time>2026-05-01T14:56:50Z</time></trkpt><trkpt lat="42.44196975022008" lon="14.150962890382653"><ele>91.0</ele><time>2026-05-01T14:56:51Z</time></trkpt><trkpt lat="42.44209713143064" lon="14.150906662204982"><ele>91.0</ele><time>2026-05-01T14:56:52Z</time></trkpt><trkpt lat="42.44219868123352" lon="14.150831546776512"><ele>91.6</ele><time>2026-05-01T14:56:53Z</time></trkpt><trkpt lat="42.44227876717252" lon="14.150742404387064"><ele>92.19999999999999</ele><time>2026-05-01T14:56:54Z</time></trkpt><trkpt lat="42.44233759672472" lon="14.150631300276428"><ele>92.80000000000001</ele><time>2026-05-01T14:56:55Z</time></trkpt><trkpt lat="42.44237856281759" lon="14.15049569674261"><ele>93.4</ele><time>2026-05-01T14:56:56Z</time></trkpt><trkpt lat="42.44240743210397" lon="14.150342751765283"><ele>94.0</ele><time>2026-05-01T14:56:57Z</time></trkpt><trkpt lat="42.44243616052835" lon="14.150181348767646"><ele>94.0</ele><time>2026-05-01T14:56:58Z</time></trkpt><trkpt lat="42.44247094221944" lon="14.150013205142494"><ele>94.0</ele><time>2026-05-01T14:56:59Z</time></trkpt><trkpt lat="42.442512627329165" lon="14.14983912900365"><ele>94.0</ele><time>2026-05-01T14:57:00Z</time></trkpt><trkpt lat="42.44255656898895" lon="14.149663198935764"><ele>94.0</ele><time>2026-05-01T14:57:01Z</time></trkpt><trkpt lat="42.44260297472522" lon="14.149487129342138"><ele>95.0</ele><time>2026-05-01T14:57:02Z</time></trkpt><trkpt lat="42.44265416050356" lon="14.149314970182894"><ele>96.0</ele><time>2026-05-01T14:57:03Z</time></trkpt><trkpt lat="42.442710596973605" lon="14.149150816302305"><ele>97.0</ele><time>2026-05-01T14:57:04Z</time></trkpt><trkpt lat="42.44277353114858" lon="14.148994713451811"><ele>98.0</ele><time>2026-05-01T14:57:05Z</time></trkpt><trkpt lat="42.44283954714255" lon="14.148846563824756"><ele>99.5</ele><time>2026-05-01T14:57:06Z</time></trkpt><trkpt lat="42.44291141489243" lon="14.148708737211008"><ele>101.0</ele><time>2026-05-01T14:57:07Z</time></trkpt><trkpt lat="42.44299184011007" lon="14.148581056984646"><ele>102.5</ele><time>2026-05-01T14:57:08Z</time></trkpt><trkpt lat="42.44307744002326" lon="14.148457879591929"><ele>104.0</ele><time>2026-05-01T14:57:09Z</time></trkpt><trkpt lat="42.44316406868461" lon="14.148332664962785"><ele>107.75</ele><time>2026-05-01T14:57:10Z</time></trkpt><trkpt lat="42.4432507175203" lon="14.148206772172896"><ele>111.5</ele><time>2026-05-01T14:57:11Z</time></trkpt><trkpt lat="42.44333975499646" lon="14.14807883092071"><ele>115.25</ele><time>2026-05-01T14:57:12Z</time></trkpt><trkpt lat="42.443429231348865" lon="14.147951907542655"><ele>119.0</ele><time>2026-05-01T14:57:13Z</time></trkpt><trkpt lat="42.44351924686767" lon="14.147832598717333"><ele>119.0</ele><time>2026-05-01T14:57:14Z</time></trkpt><trkpt lat="42.44360895854484" lon="14.147719743512807"><ele>119.0</ele><time>2026-05-01T14:57:15Z</time></trkpt><trkpt lat="42.44370367251437" lon="14.14762454835915"><ele>119.0</ele><time>2026-05-01T14:57:16Z</time></trkpt><trkpt lat="42.443805987458106" lon="14.147556823410765"><ele>119.0</ele><time>2026-05-01T14:57:17Z</time></trkpt><trkpt lat="42.443911560879364" lon="14.1475108885096"><ele>118.0</ele><time>2026-05-01T14:57:18Z</time></trkpt><trkpt lat="42.44401836885709" lon="14.147479691800704"><ele>117.0</ele><time>2026-05-01T14:57:19Z</time></trkpt><trkpt lat="42.444120807146966" lon="14.147453319316593"><ele>116.0</ele><time>2026-05-01T14:57:20Z</time></trkpt><trkpt lat="42.444219107870516" lon="14.147428186328183"><ele>115.0</ele><time>2026-05-01T14:57:21Z</time></trkpt><trkpt lat="42.44431320603274" lon="14.147394474877107"><ele>114.0</ele><time>2026-05-01T14:57:22Z</time></trkpt><trkpt lat="42.44439802804405" lon="14.147338790207511"><ele>116.0</ele><time>2026-05-01T14:57:23Z</time></trkpt><trkpt lat="42.444464583547926" lon="14.147254781037995"><ele>118.0</ele><time>2026-05-01T14:57:24Z</time></trkpt><trkpt lat="42.44451104168197" lon="14.147156504619906"><ele>120.0</ele><time>2026-05-01T14:57:25Z</time></trkpt><trkpt lat="42.44454850002258" lon="14.147054991957608"><ele>122.0</ele><time>2026-05-01T14:57:26Z</time></trkpt><trkpt lat="42.44458109575111" lon="14.146965465746288"><ele>124.0</ele><time>2026-05-01T14:57:27Z</time></trkpt><trkpt lat="42.4446022051196" lon="14.146803860154957"><ele>124.4</ele><time>2026-05-01T14:57:29Z</time></trkpt><trkpt lat="42.44471777355263" lon="14.146738178687956"><ele>124.80000000000001</ele><time>2026-05-01T14:57:30Z</time></trkpt><trkpt lat="42.44478094823153" lon="14.146655086224145"><ele>125.19999999999999</ele><time>2026-05-01T14:57:31Z</time></trkpt><trkpt lat="42.44484084188575" lon="14.146559281674794"><ele>125.6</ele><time>2026-05-01T14:57:32.001Z</time></trkpt><trkpt lat="42.44489564230451" lon="14.146456339492037"><ele>126.0</ele><time>2026-05-01T14:57:33.001Z</time></trkpt><trkpt lat="42.444951880034544" lon="14.146349536031945"><ele>126.0</ele><time>2026-05-01T14:57:34.001Z</time></trkpt><trkpt lat="42.44501543981674" lon="14.1462354878282"><ele>126.0</ele><time>2026-05-01T14:57:35.001Z</time></trkpt><trkpt lat="42.445081179142214" lon="14.146114053747043"><ele>126.0</ele><time>2026-05-01T14:57:36.001Z</time></trkpt><trkpt lat="42.445154308714" lon="14.14598663749944"><ele>126.0</ele><time>2026-05-01T14:57:37.001Z</time></trkpt><trkpt lat="42.44522558350075" lon="14.145859627025441"><ele>126.0</ele><time>2026-05-01T14:57:38.001Z</time></trkpt><trkpt lat="42.44529629784429" lon="14.145732615636112"><ele>126.0</ele><time>2026-05-01T14:57:39.001Z</time></trkpt><trkpt lat="42.445369700348735" lon="14.145596510623621"><ele>126.0</ele><time>2026-05-01T14:57:40.001Z</time></trkpt><trkpt lat="42.4454522373675" lon="14.145466335623953"><ele>126.0</ele><time>2026-05-01T14:57:41.001Z</time></trkpt><trkpt lat="42.44554750443608" lon="14.145345521106156"><ele>124.5</ele><time>2026-05-01T14:57:42.001Z</time></trkpt><trkpt lat="42.44565312142388" lon="14.145231528557806"><ele>123.0</ele><time>2026-05-01T14:57:43.001Z</time></trkpt><trkpt lat="42.44576520526435" lon="14.14512358050973"><ele>121.5</ele><time>2026-05-01T14:57:44.001Z</time></trkpt><trkpt lat="42.44589230462545" lon="14.145047434928536"><ele>120.0</ele><time>2026-05-01T14:57:45.001Z</time></trkpt><trkpt lat="42.44600719777549" lon="14.144941055070273"><ele>120.25</ele><time>2026-05-01T14:57:46.001Z</time></trkpt><trkpt lat="42.44613239995028" lon="14.144859234522604"><ele>120.5</ele><time>2026-05-01T14:57:47.001Z</time></trkpt><trkpt lat="42.44626217505944" lon="14.14478556120533"><ele>120.75</ele><time>2026-05-01T14:57:48Z</time></trkpt><trkpt lat="42.44639020316295" lon="14.14472919441759"><ele>121.0</ele><time>2026-05-01T14:57:49Z</time></trkpt><trkpt lat="42.446508943676385" lon="14.14469206200109"><ele>121.0</ele><time>2026-05-01T14:57:50Z</time></trkpt><trkpt lat="42.44662872943716" lon="14.144661771261436"><ele>121.0</ele><time>2026-05-01T14:57:51Z</time></trkpt><trkpt lat="42.446754739069206" lon="14.1446289614792"><ele>121.0</ele><time>2026-05-01T14:57:52Z</time></trkpt><trkpt lat="42.44688272681163" lon="14.14459340341046"><ele>121.0</ele><time>2026-05-01T14:57:53Z</time></trkpt><trkpt lat="42.44700400148396" lon="14.144555419350398"><ele>121.0</ele><time>2026-05-01T14:57:54Z</time></trkpt><trkpt lat="42.447119797025124" lon="14.144524568714742"><ele>121.0</ele><time>2026-05-01T14:57:55Z</time></trkpt><trkpt lat="42.44722512278335" lon="14.144505759671235"><ele>121.0</ele><time>2026-05-01T14:57:56Z</time></trkpt><trkpt lat="42.44732733244035" lon="14.144513399296777"><ele>121.0</ele><time>2026-05-01T14:57:57Z</time></trkpt><trkpt lat="42.44741441657211" lon="14.144552195587778"><ele>121.0</ele><time>2026-05-01T14:57:58Z</time></trkpt><trkpt lat="42.44748590505237" lon="14.144634615290114"><ele>122.0</ele><time>2026-05-01T14:57:59Z</time></trkpt><trkpt lat="42.44753501976558" lon="14.14474081484762"><ele>123.0</ele><time>2026-05-01T14:58:00Z</time></trkpt><trkpt lat="42.44756364529528" lon="14.144867311044296"><ele>124.0</ele><time>2026-05-01T14:58:01Z</time></trkpt><trkpt lat="42.44757311386326" lon="14.145010290209141"><ele>125.0</ele><time>2026-05-01T14:58:02Z</time></trkpt><trkpt lat="42.447571922752445" lon="14.145164475325277"><ele>126.0</ele><time>2026-05-01T14:58:03Z</time></trkpt><trkpt lat="42.44757090036076" lon="14.145314517289016"><ele>126.19999999999999</ele><time>2026-05-01T14:58:04Z</time></trkpt><trkpt lat="42.44757464651148" lon="14.145454791579894"><ele>126.39999999999999</ele><time>2026-05-01T14:58:05Z</time></trkpt><trkpt lat="42.447580355824655" lon="14.145591126038097"><ele>126.6</ele><time>2026-05-01T14:58:06Z</time></trkpt><trkpt lat="42.44761047983868" lon="14.145711090852906"><ele>126.8</ele><time>2026-05-01T14:58:07Z</time></trkpt><trkpt lat="42.447657182435" lon="14.145818024971588"><ele>127.0</ele><time>2026-05-01T14:58:08Z</time></trkpt><trkpt lat="42.44771275566356" lon="14.14591270623101"><ele>127.39999999999999</ele><time>2026-05-01T14:58:09Z</time></trkpt><trkpt lat="42.44777501061559" lon="14.146001932801324"><ele>127.79999999999998</ele><time>2026-05-01T14:58:10Z</time></trkpt><trkpt lat="42.44784456251317" lon="14.14608272641693"><ele>128.2</ele><time>2026-05-01T14:58:11Z</time></trkpt><trkpt lat="42.44792186250983" lon="14.146161919980608"><ele>128.6</ele><time>2026-05-01T14:58:12Z</time></trkpt><trkpt lat="42.44800998180969" lon="14.146230700810992"><ele>129.0</ele><time>2026-05-01T14:58:13Z</time></trkpt><trkpt lat="42.44810633826669" lon="14.146283334417602"><ele>131.6</ele><time>2026-05-01T14:58:14Z</time></trkpt><trkpt lat="42.44820805775279" lon="14.146330045520799"><ele>134.2</ele><time>2026-05-01T14:58:15Z</time></trkpt><trkpt lat="42.448313510424406" lon="14.146373680048786"><ele>136.79999999999998</ele><time>2026-05-01T14:58:16Z</time></trkpt><trkpt lat="42.44842241564096" lon="14.146414958629563"><ele>139.4</ele><time>2026-05-01T14:58:17Z</time></trkpt><trkpt lat="42.44853428655225" lon="14.146442414428137"><ele>142.0</ele><time>2026-05-01T14:58:18Z</time></trkpt><trkpt lat="42.4486471315653" lon="14.146449135574791"><ele>142.0</ele><time>2026-05-01T14:58:19Z</time></trkpt><trkpt lat="42.44875459063079" lon="14.146432150515201"><ele>142.0</ele><time>2026-05-01T14:58:20Z</time></trkpt><trkpt lat="42.44885508197507" lon="14.146395331205929"><ele>142.0</ele><time>2026-05-01T14:58:21Z</time></trkpt><trkpt lat="42.44894957100537" lon="14.146338734818944"><ele>142.0</ele><time>2026-05-01T14:58:22Z</time></trkpt><trkpt lat="42.44904147693743" lon="14.146261724781326"><ele>142.0</ele><time>2026-05-01T14:58:23Z</time></trkpt><trkpt lat="42.449140145727085" lon="14.146182291064283"><ele>142.5</ele><time>2026-05-01T14:58:24Z</time></trkpt><trkpt lat="42.449208224339" lon="14.146043458996004"><ele>143.0</ele><time>2026-05-01T14:58:25Z</time></trkpt><trkpt lat="42.44928646610734" lon="14.145905038449566"><ele>143.5</ele><time>2026-05-01T14:58:26Z</time></trkpt><trkpt lat="42.44936466668873" lon="14.145761106760865"><ele>144.0</ele><time>2026-05-01T14:58:27Z</time></trkpt><trkpt lat="42.44943976861261" lon="14.145625360183312"><ele>142.0</ele><time>2026-05-01T14:58:28Z</time></trkpt><trkpt lat="42.44951397849824" lon="14.145491053083699"><ele>140.0</ele><time>2026-05-01T14:58:29Z</time></trkpt><trkpt lat="42.44958430860484" lon="14.14535031012046"><ele>138.0</ele><time>2026-05-01T14:58:30Z</time></trkpt><trkpt lat="42.449649081576624" lon="14.145205839605604"><ele>136.0</ele><time>2026-05-01T14:58:31Z</time></trkpt><trkpt lat="42.44971004228936" lon="14.145057743367177"><ele>136.0</ele><time>2026-05-01T14:58:32Z</time></trkpt><trkpt lat="42.44976552187614" lon="14.144904298531998"><ele>136.0</ele><time>2026-05-01T14:58:33Z</time></trkpt><trkpt lat="42.449817732191086" lon="14.144749193281363"><ele>136.0</ele><time>2026-05-01T14:58:34Z</time></trkpt><trkpt lat="42.44986541657643" lon="14.144594080046128"><ele>136.0</ele><time>2026-05-01T14:58:35Z</time></trkpt><trkpt lat="42.44990417404791" lon="14.144434567470249"><ele>136.5</ele><time>2026-05-01T14:58:36Z</time></trkpt><trkpt lat="42.449929875838" lon="14.144273267586058"><ele>137.0</ele><time>2026-05-01T14:58:37Z</time></trkpt><trkpt lat="42.449938526877844" lon="14.144106529080377"><ele>137.5</ele><time>2026-05-01T14:58:38Z</time></trkpt><trkpt lat="42.44993662404451" lon="14.143937931368077"><ele>138.0</ele><time>2026-05-01T14:58:39Z</time></trkpt><trkpt lat="42.44992928444407" lon="14.14376693479054"><ele>138.0</ele><time>2026-05-01T14:58:40Z</time></trkpt><trkpt lat="42.44992135041396" lon="14.143595579968087"><ele>138.0</ele><time>2026-05-01T14:58:41Z</time></trkpt><trkpt lat="42.44991258242147" lon="14.143425984596725"><ele>138.0</ele><time>2026-05-01T14:58:42Z</time></trkpt><trkpt lat="42.44989918348274" lon="14.143255087315431"><ele>138.0</ele><time>2026-05-01T14:58:43Z</time></trkpt><trkpt lat="42.44987586464692" lon="14.143089182852576"><ele>137.75</ele><time>2026-05-01T14:58:44Z</time></trkpt><trkpt lat="42.449840917484806" lon="14.142929998267729"><ele>137.5</ele><time>2026-05-01T14:58:45Z</time></trkpt><trkpt lat="42.44979675311581" lon="14.14277871819271"><ele>137.25</ele><time>2026-05-01T14:58:46Z</time></trkpt><trkpt lat="42.4497483844234" lon="14.142633295010777"><ele>137.0</ele><time>2026-05-01T14:58:47Z</time></trkpt><trkpt lat="42.44969908870947" lon="14.142493640294752"><ele>137.6</ele><time>2026-05-01T14:58:48Z</time></trkpt><trkpt lat="42.44964828071339" lon="14.14236116144649"><ele>138.2</ele><time>2026-05-01T14:58:49Z</time></trkpt><trkpt lat="42.449599406825946" lon="14.142236497750694"><ele>138.8</ele><time>2026-05-01T14:58:50Z</time></trkpt><trkpt lat="42.44956166076468" lon="14.142119698015591"><ele>139.4</ele><time>2026-05-01T14:58:51Z</time></trkpt><trkpt lat="42.44954339195276" lon="14.142007082581294"><ele>140.0</ele><time>2026-05-01T14:58:52Z</time></trkpt><trkpt lat="42.44955256994113" lon="14.141904051200715"><ele>140.0</ele><time>2026-05-01T14:58:53Z</time></trkpt><trkpt lat="42.44959206257224" lon="14.141799723804752"><ele>140.0</ele><time>2026-05-01T14:58:54Z</time></trkpt><trkpt lat="42.449653091117646" lon="14.141710048588319"><ele>140.0</ele><time>2026-05-01T14:58:55Z</time></trkpt><trkpt lat="42.449735702496255" lon="14.141637342387405"><ele>140.0</ele><time>2026-05-01T14:58:56Z</time></trkpt><trkpt lat="42.44983201569357" lon="14.141568739843699"><ele>140.0</ele><time>2026-05-01T14:58:57Z</time></trkpt><trkpt lat="42.44993448705585" lon="14.141500000111808"><ele>141.25</ele><time>2026-05-01T14:58:58Z</time></trkpt><trkpt lat="42.45004403459683" lon="14.141433805085606"><ele>142.5</ele><time>2026-05-01T14:58:59Z</time></trkpt><trkpt lat="42.45015577508013" lon="14.14138236181142"><ele>143.75</ele><time>2026-05-01T14:59:00Z</time></trkpt><trkpt lat="42.45026508747738" lon="14.141338497463163"><ele>145.0</ele><time>2026-05-01T14:59:01Z</time></trkpt><trkpt lat="42.45036792339555" lon="14.141296439493598"><ele>145.83333333333334</ele><time>2026-05-01T14:59:02Z</time></trkpt><trkpt lat="42.450462665567855" lon="14.141259464864518"><ele>146.66666666666669</ele><time>2026-05-01T14:59:03Z</time></trkpt><trkpt lat="42.45054886945731" lon="14.141230546002621"><ele>147.5</ele><time>2026-05-01T14:59:04Z</time></trkpt><trkpt lat="42.45062674116153" lon="14.141201929685385"><ele>148.33333333333334</ele><time>2026-05-01T14:59:05Z</time></trkpt><trkpt lat="42.45070479554019" lon="14.141171416860773"><ele>149.16666666666666</ele><time>2026-05-01T14:59:06Z</time></trkpt><trkpt lat="42.45078643805492" lon="14.141141844168331"><ele>150.0</ele><time>2026-05-01T14:59:07Z</time></trkpt><trkpt lat="42.45087718541929" lon="14.141111704903928"><ele>150.0</ele><time>2026-05-01T14:59:08Z</time></trkpt><trkpt lat="42.45097099603293" lon="14.141081283114842"><ele>150.0</ele><time>2026-05-01T14:59:09Z</time></trkpt><trkpt lat="42.451066916649275" lon="14.141050761356967"><ele>150.0</ele><time>2026-05-01T14:59:10Z</time></trkpt><trkpt lat="42.45116538959606" lon="14.141020077510946"><ele>150.0</ele><time>2026-05-01T14:59:11Z</time></trkpt><trkpt lat="42.45126369982095" lon="14.140989038519043"><ele>150.0</ele><time>2026-05-01T14:59:12Z</time></trkpt><trkpt lat="42.45136257713727" lon="14.140957242100399"><ele>150.4</ele><time>2026-05-01T14:59:13Z</time></trkpt><trkpt lat="42.45146060900704" lon="14.140932365207545"><ele>150.8</ele><time>2026-05-01T14:59:14Z</time></trkpt><trkpt lat="42.45155630737121" lon="14.14090798856913"><ele>151.2</ele><time>2026-05-01T14:59:15Z</time></trkpt><trkpt lat="42.45164930744254" lon="14.140884761975279"><ele>151.6</ele><time>2026-05-01T14:59:16Z</time></trkpt><trkpt lat="42.45174197302515" lon="14.140895362297819"><ele>152.0</ele><time>2026-05-01T14:59:17Z</time></trkpt><trkpt lat="42.451833637604985" lon="14.140880085738432"><ele>152.0</ele><time>2026-05-01T14:59:18Z</time></trkpt><trkpt lat="42.451926302384116" lon="14.140861816166408"><ele>152.0</ele><time>2026-05-01T14:59:19Z</time></trkpt><trkpt lat="42.45201685888186" lon="14.1408215816062"><ele>152.0</ele><time>2026-05-01T14:59:20Z</time></trkpt><trkpt lat="42.4521125423099" lon="14.1408238666433"><ele>152.0</ele><time>2026-05-01T14:59:21Z</time></trkpt><trkpt lat="42.452202842944516" lon="14.140781025302596"><ele>152.0</ele><time>2026-05-01T14:59:22Z</time></trkpt><trkpt lat="42.45229839264063" lon="14.140762478699854"><ele>152.0</ele><time>2026-05-01T14:59:23Z</time></trkpt><trkpt lat="42.45238873880838" lon="14.14074847289966"><ele>152.0</ele><time>2026-05-01T14:59:24Z</time></trkpt><trkpt lat="42.4524794088875" lon="14.140731080497877"><ele>152.0</ele><time>2026-05-01T14:59:25.001Z</time></trkpt><trkpt lat="42.45256845036109" lon="14.140712931464137"><ele>152.0</ele><time>2026-05-01T14:59:26.001Z</time></trkpt><trkpt lat="42.45265386417537" lon="14.140692740070504"><ele>152.0</ele><time>2026-05-01T14:59:27.001Z</time></trkpt><trkpt lat="42.45274424819629" lon="14.1406721682566"><ele>152.0</ele><time>2026-05-01T14:59:28.001Z</time></trkpt><trkpt lat="42.452834557633786" lon="14.140647573714093"><ele>152.0</ele><time>2026-05-01T14:59:29.001Z</time></trkpt><trkpt lat="42.45291078345402" lon="14.140621386618848"><ele>152.0</ele><time>2026-05-01T14:59:30.001Z</time></trkpt><trkpt lat="42.453007381111014" lon="14.140589383960508"><ele>152.0</ele><time>2026-05-01T14:59:32.001Z</time></trkpt><trkpt lat="42.453106567292885" lon="14.140558246688038"><ele>152.0</ele><time>2026-05-01T14:59:34.001Z</time></trkpt><trkpt lat="42.45317265481659" lon="14.14052207356212"><ele>152.0</ele><time>2026-05-01T14:59:35.001Z</time></trkpt><trkpt lat="42.45324380469825" lon="14.140478858862556"><ele>154.83333333333331</ele><time>2026-05-01T14:59:36.001Z</time></trkpt><trkpt lat="42.45332152210148" lon="14.140432030745565"><ele>157.66666666666666</ele><time>2026-05-01T14:59:37.001Z</time></trkpt><trkpt lat="42.453400511453566" lon="14.140386008740501"><ele>160.5</ele><time>2026-05-01T14:59:38.001Z</time></trkpt><trkpt lat="42.45347458541202" lon="14.14034097040019"><ele>163.33333333333334</ele><time>2026-05-01T14:59:39.001Z</time></trkpt><trkpt lat="42.45354582785289" lon="14.14030197736434"><ele>166.16666666666669</ele><time>2026-05-01T14:59:40.001Z</time></trkpt><trkpt lat="42.453609279831085" lon="14.140267179347157"><ele>169.0</ele><time>2026-05-01T14:59:41.001Z</time></trkpt><trkpt lat="42.45366945819901" lon="14.140231881182848"><ele>169.0</ele><time>2026-05-01T14:59:42.001Z</time></trkpt><trkpt lat="42.45373071285107" lon="14.140192473112647"><ele>169.0</ele><time>2026-05-01T14:59:43.001Z</time></trkpt><trkpt lat="42.45378936964795" lon="14.140144177128123"><ele>169.0</ele><time>2026-05-01T14:59:44.001Z</time></trkpt><trkpt lat="42.45384455713302" lon="14.140089956346888"><ele>169.0</ele><time>2026-05-01T14:59:45.001Z</time></trkpt><trkpt lat="42.45389446467181" lon="14.140030213223477"><ele>169.0</ele><time>2026-05-01T14:59:46.001Z</time></trkpt><trkpt lat="42.45393467355467" lon="14.139951604596645"><ele>169.0</ele><time>2026-05-01T14:59:47.001Z</time></trkpt><trkpt lat="42.45397553735092" lon="14.139864588550743"><ele>169.0</ele><time>2026-05-01T14:59:48.001Z</time></trkpt><trkpt lat="42.454018681211274" lon="14.139772467856892"><ele>169.83333333333334</ele><time>2026-05-01T14:59:49.001Z</time></trkpt><trkpt lat="42.45406365818153" lon="14.139682749040896"><ele>170.66666666666669</ele><time>2026-05-01T14:59:50.001Z</time></trkpt><trkpt lat="42.454110480021995" lon="14.139594916691482"><ele>171.5</ele><time>2026-05-01T14:59:51.001Z</time></trkpt><trkpt lat="42.45415457033495" lon="14.13950338602821"><ele>172.33333333333334</ele><time>2026-05-01T14:59:52.001Z</time></trkpt><trkpt lat="42.45420025960812" lon="14.13940794115619"><ele>173.16666666666666</ele><time>2026-05-01T14:59:53.001Z</time></trkpt><trkpt lat="42.454247058716426" lon="14.139318394563837"><ele>174.0</ele><time>2026-05-01T14:59:54.001Z</time></trkpt><trkpt lat="42.454294033158895" lon="14.139230958905705"><ele>174.0</ele><time>2026-05-01T14:59:55.001Z</time></trkpt><trkpt lat="42.454339260433045" lon="14.139148034687025"><ele>174.0</ele><time>2026-05-01T14:59:56.001Z</time></trkpt><trkpt lat="42.45438775360827" lon="14.139060242884465"><ele>174.0</ele><time>2026-05-01T14:59:57.001Z</time></trkpt><trkpt lat="42.45443799183177" lon="14.138970950669627"><ele>174.0</ele><time>2026-05-01T14:59:58.001Z</time></trkpt><trkpt lat="42.454490242770994" lon="14.138878360086425"><ele>174.0</ele><time>2026-05-01T14:59:59Z</time></trkpt><trkpt lat="42.454540635055885" lon="14.13879080447385"><ele>174.0</ele><time>2026-05-01T15:00:00Z</time></trkpt><trkpt lat="42.45458913274705" lon="14.138705227542212"><ele>173.83333333333334</ele><time>2026-05-01T15:00:01Z</time></trkpt><trkpt lat="42.454639947912106" lon="14.138623094170065"><ele>173.66666666666666</ele><time>2026-05-01T15:00:02Z</time></trkpt><trkpt lat="42.45469245811618" lon="14.138542317179741"><ele>173.5</ele><time>2026-05-01T15:00:03Z</time></trkpt><trkpt lat="42.454738781266194" lon="14.138467624117835"><ele>173.33333333333331</ele><time>2026-05-01T15:00:04Z</time></trkpt><trkpt lat="42.454786852854525" lon="14.138383055609832"><ele>173.16666666666666</ele><time>2026-05-01T15:00:05Z</time></trkpt><trkpt lat="42.45483989833696" lon="14.138292727519437"><ele>173.0</ele><time>2026-05-01T15:00:06Z</time></trkpt><trkpt lat="42.45489574749775" lon="14.138200219068544"><ele>172.5</ele><time>2026-05-01T15:00:07Z</time></trkpt><trkpt lat="42.45494899962707" lon="14.138100655259151"><ele>172.0</ele><time>2026-05-01T15:00:08Z</time></trkpt><trkpt lat="42.45499464315403" lon="14.137996665345206"><ele>171.5</ele><time>2026-05-01T15:00:09Z</time></trkpt><trkpt lat="42.45502710051099" lon="14.13788831919919"><ele>171.0</ele><time>2026-05-01T15:00:10Z</time></trkpt><trkpt lat="42.45504213614644" lon="14.13777888612744"><ele>170.5</ele><time>2026-05-01T15:00:11Z</time></trkpt><trkpt lat="42.45504733046736" lon="14.137675619667847"><ele>170.0</ele><time>2026-05-01T15:00:12Z</time></trkpt><trkpt lat="42.45504910314321" lon="14.137573183401992"><ele>170.0</ele><time>2026-05-01T15:00:13Z</time></trkpt><trkpt lat="42.45504733740829" lon="14.137473552456122"><ele>170.0</ele><time>2026-05-01T15:00:14Z</time></trkpt><trkpt lat="42.455045395345735" lon="14.137372679761372"><ele>170.0</ele><time>2026-05-01T15:00:15Z</time></trkpt><trkpt lat="42.45504069074439" lon="14.137270050786617"><ele>170.0</ele><time>2026-05-01T15:00:16Z</time></trkpt><trkpt lat="42.45503495057241" lon="14.137165994751566"><ele>170.0</ele><time>2026-05-01T15:00:17Z</time></trkpt><trkpt lat="42.455043299681996" lon="14.137058919927695"><ele>170.0</ele><time>2026-05-01T15:00:18Z</time></trkpt><trkpt lat="42.455040774073105" lon="14.136954204767303"><ele>170.5</ele><time>2026-05-01T15:00:19Z</time></trkpt><trkpt lat="42.45503918622797" lon="14.136860441430592"><ele>171.0</ele><time>2026-05-01T15:00:20Z</time></trkpt><trkpt lat="42.45503982247744" lon="14.136768892509007"><ele>171.5</ele><time>2026-05-01T15:00:21Z</time></trkpt><trkpt lat="42.455040624553256" lon="14.136594676516122"><ele>172.0</ele><time>2026-05-01T15:00:23Z</time></trkpt><trkpt lat="42.45506170279776" lon="14.13643525589378"><ele>172.5</ele><time>2026-05-01T15:00:25Z</time></trkpt><trkpt lat="42.45511270907839" lon="14.136385196141132"><ele>173.0</ele><time>2026-05-01T15:00:26Z</time></trkpt><trkpt lat="42.45518624104329" lon="14.136407790594768"><ele>174.16666666666666</ele><time>2026-05-01T15:00:27Z</time></trkpt><trkpt lat="42.455308281269666" lon="14.13636165850893"><ele>175.33333333333331</ele><time>2026-05-01T15:00:29Z</time></trkpt><trkpt lat="42.45537564707971" lon="14.136334249548833"><ele>176.5</ele><time>2026-05-01T15:00:30Z</time></trkpt><trkpt lat="42.45543898089821" lon="14.136308080982836"><ele>177.66666666666666</ele><time>2026-05-01T15:00:31Z</time></trkpt><trkpt lat="42.45549911816897" lon="14.136266792609995"><ele>178.83333333333334</ele><time>2026-05-01T15:00:32Z</time></trkpt><trkpt lat="42.455563631568126" lon="14.136225470966453"><ele>180.0</ele><time>2026-05-01T15:00:33Z</time></trkpt><trkpt lat="42.45567813530848" lon="14.136147825784423"><ele>180.0</ele><time>2026-05-01T15:00:35Z</time></trkpt><trkpt lat="42.45574372889717" lon="14.136102836411375"><ele>180.0</ele><time>2026-05-01T15:00:36Z</time></trkpt><trkpt lat="42.45580658676818" lon="14.13605740035046"><ele>180.0</ele><time>2026-05-01T15:00:37Z</time></trkpt><trkpt lat="42.455864586031055" lon="14.136012236804593"><ele>180.0</ele><time>2026-05-01T15:00:38Z</time></trkpt><trkpt lat="42.455961309267586" lon="14.135926101948"><ele>180.0</ele><time>2026-05-01T15:00:40Z</time></trkpt><trkpt lat="42.456009332767046" lon="14.135865470427442"><ele>180.0</ele><time>2026-05-01T15:00:41Z</time></trkpt><trkpt lat="42.45605079964183" lon="14.135793025296675"><ele>182.33333333333334</ele><time>2026-05-01T15:00:42Z</time></trkpt><trkpt lat="42.45609296675706" lon="14.135717075572089"><ele>184.66666666666669</ele><time>2026-05-01T15:00:43Z</time></trkpt><trkpt lat="42.456134707302645" lon="14.135632160195836"><ele>187.0</ele><time>2026-05-01T15:00:44Z</time></trkpt><trkpt lat="42.45617502992945" lon="14.13553328543968"><ele>189.33333333333334</ele><time>2026-05-01T15:00:45Z</time></trkpt><trkpt lat="42.45620220572704" lon="14.135426284479971"><ele>191.66666666666669</ele><time>2026-05-01T15:00:46Z</time></trkpt><trkpt lat="42.456239199508225" lon="14.135327152641118"><ele>194.0</ele><time>2026-05-01T15:00:47Z</time></trkpt><trkpt lat="42.456270216318934" lon="14.135218398921431"><ele>188.79999999999998</ele><time>2026-05-01T15:00:48Z</time></trkpt><trkpt lat="42.45629925172086" lon="14.135110587918962"><ele>183.6</ele><time>2026-05-01T15:00:49Z</time></trkpt><trkpt lat="42.456344699501585" lon="14.135005869151286"><ele>178.4</ele><time>2026-05-01T15:00:50Z</time></trkpt><trkpt lat="42.45637972472537" lon="14.13489170847633"><ele>173.2</ele><time>2026-05-01T15:00:51Z</time></trkpt><trkpt lat="42.4564151549825" lon="14.134776227558461"><ele>168.0</ele><time>2026-05-01T15:00:52Z</time></trkpt><trkpt lat="42.45645466402959" lon="14.13464958929052"><ele>168.0</ele><time>2026-05-01T15:00:53Z</time></trkpt><trkpt lat="42.45650040809013" lon="14.134503562227541"><ele>168.0</ele><time>2026-05-01T15:00:54Z</time></trkpt><trkpt lat="42.45652687077922" lon="14.134363723036877"><ele>168.0</ele><time>2026-05-01T15:00:55Z</time></trkpt><trkpt lat="42.4565648229084" lon="14.13424118290517"><ele>168.0</ele><time>2026-05-01T15:00:56Z</time></trkpt><trkpt lat="42.45660873336027" lon="14.134109399433436"><ele>168.0</ele><time>2026-05-01T15:00:57Z</time></trkpt><trkpt lat="42.456646864588095" lon="14.133977077730371"><ele>168.0</ele><time>2026-05-01T15:00:58Z</time></trkpt><trkpt lat="42.45667674709314" lon="14.133859397523521"><ele>168.0</ele><time>2026-05-01T15:00:59Z</time></trkpt><trkpt lat="42.45670067381912" lon="14.133729749056354"><ele>168.0</ele><time>2026-05-01T15:01:00Z</time></trkpt><trkpt lat="42.45674351641205" lon="14.133602337386652"><ele>168.0</ele><time>2026-05-01T15:01:01Z</time></trkpt><trkpt lat="42.456767376471916" lon="14.133465634193078"><ele>168.0</ele><time>2026-05-01T15:01:02Z</time></trkpt><trkpt lat="42.45678644797537" lon="14.133338413739766"><ele>167.60000000000002</ele><time>2026-05-01T15:01:03Z</time></trkpt><trkpt lat="42.45680342814684" lon="14.133210688531085"><ele>167.20000000000002</ele><time>2026-05-01T15:01:04Z</time></trkpt><trkpt lat="42.456818827721534" lon="14.133088548808677"><ele>166.8</ele><time>2026-05-01T15:01:05Z</time></trkpt><trkpt lat="42.45683318928225" lon="14.132959323127968"><ele>166.4</ele><time>2026-05-01T15:01:06Z</time></trkpt><trkpt lat="42.45683287010807" lon="14.132825548573548"><ele>166.0</ele><time>2026-05-01T15:01:07Z</time></trkpt><trkpt lat="42.45685761236116" lon="14.132690877224826"><ele>166.0</ele><time>2026-05-01T15:01:08Z</time></trkpt><trkpt lat="42.456888765904296" lon="14.132560048048187"><ele>166.0</ele><time>2026-05-01T15:01:09Z</time></trkpt><trkpt lat="42.456925065683045" lon="14.132427114827218"><ele>166.0</ele><time>2026-05-01T15:01:10Z</time></trkpt><trkpt lat="42.45696840861775" lon="14.13229902302854"><ele>166.0</ele><time>2026-05-01T15:01:11.001Z</time></trkpt><trkpt lat="42.457017011135775" lon="14.132172127653426"><ele>166.0</ele><time>2026-05-01T15:01:12.001Z</time></trkpt><trkpt lat="42.45706752970187" lon="14.132047979750595"><ele>164.8</ele><time>2026-05-01T15:01:13.001Z</time></trkpt><trkpt lat="42.457123812832656" lon="14.131919443856487"><ele>163.60000000000002</ele><time>2026-05-01T15:01:14.001Z</time></trkpt><trkpt lat="42.45717481408055" lon="14.131794865050681"><ele>162.4</ele><time>2026-05-01T15:01:15.001Z</time></trkpt><trkpt lat="42.45722526026145" lon="14.131674085295964"><ele>161.2</ele><time>2026-05-01T15:01:16.001Z</time></trkpt><trkpt lat="42.457274869203204" lon="14.131551320948448"><ele>160.0</ele><time>2026-05-01T15:01:17.001Z</time></trkpt><trkpt lat="42.457327548772504" lon="14.131426983636409"><ele>160.0</ele><time>2026-05-01T15:01:18.001Z</time></trkpt><trkpt lat="42.4573862376158" lon="14.131310126158843"><ele>160.0</ele><time>2026-05-01T15:01:19.001Z</time></trkpt><trkpt lat="42.45743816356727" lon="14.131187188469626"><ele>160.0</ele><time>2026-05-01T15:01:20.001Z</time></trkpt><trkpt lat="42.45748775977554" lon="14.131068034199517"><ele>160.0</ele><time>2026-05-01T15:01:21.001Z</time></trkpt><trkpt lat="42.457538282104935" lon="14.130950231809253"><ele>160.0</ele><time>2026-05-01T15:01:22.001Z</time></trkpt><trkpt lat="42.457592207386156" lon="14.13083811537394"><ele>160.0</ele><time>2026-05-01T15:01:23.001Z</time></trkpt><trkpt lat="42.45765579266197" lon="14.130732055527314"><ele>160.0</ele><time>2026-05-01T15:01:24.001Z</time></trkpt><trkpt lat="42.457729556886804" lon="14.130628454855085"><ele>160.0</ele><time>2026-05-01T15:01:25.001Z</time></trkpt><trkpt lat="42.45780594410966" lon="14.130535837679057"><ele>160.0</ele><time>2026-05-01T15:01:26.001Z</time></trkpt><trkpt lat="42.45789232588019" lon="14.130444602316524"><ele>160.0</ele><time>2026-05-01T15:01:27.001Z</time></trkpt><trkpt lat="42.45798310805489" lon="14.130355380018626"><ele>159.5</ele><time>2026-05-01T15:01:28.001Z</time></trkpt><trkpt lat="42.45807583375808" lon="14.130260435195167"><ele>159.0</ele><time>2026-05-01T15:01:29.001Z</time></trkpt><trkpt lat="42.458170371617754" lon="14.130163754265219"><ele>158.5</ele><time>2026-05-01T15:01:30.001Z</time></trkpt><trkpt lat="42.4582622297602" lon="14.130058080045691"><ele>158.0</ele><time>2026-05-01T15:01:31.001Z</time></trkpt><trkpt lat="42.458341040221924" lon="14.129947724121147"><ele>158.4</ele><time>2026-05-01T15:01:32.001Z</time></trkpt><trkpt lat="42.45841576522675" lon="14.129833845505214"><ele>158.8</ele><time>2026-05-01T15:01:33.001Z</time></trkpt><trkpt lat="42.45848153837874" lon="14.12971607288949"><ele>159.2</ele><time>2026-05-01T15:01:34.001Z</time></trkpt><trkpt lat="42.45853878670454" lon="14.129591600805115"><ele>159.6</ele><time>2026-05-01T15:01:35.001Z</time></trkpt><trkpt lat="42.4585887839688" lon="14.129456868640634"><ele>160.0</ele><time>2026-05-01T15:01:36.001Z</time></trkpt><trkpt lat="42.45863353282004" lon="14.129320285159597"><ele>160.0</ele><time>2026-05-01T15:01:37.001Z</time></trkpt><trkpt lat="42.4586718565129" lon="14.129181245070088"><ele>160.0</ele><time>2026-05-01T15:01:38.001Z</time></trkpt><trkpt lat="42.45870151715127" lon="14.129042801360029"><ele>160.0</ele><time>2026-05-01T15:01:39.001Z</time></trkpt><trkpt lat="42.45872174528908" lon="14.128900399364532"><ele>160.0</ele><time>2026-05-01T15:01:40.001Z</time></trkpt><trkpt lat="42.45872950254801" lon="14.128754917850157"><ele>160.0</ele><time>2026-05-01T15:01:41.001Z</time></trkpt><trkpt lat="42.458719082246766" lon="14.128606939013393"><ele>160.75</ele><time>2026-05-01T15:01:42.001Z</time></trkpt><trkpt lat="42.45869158745993" lon="14.128456021753166"><ele>161.5</ele><time>2026-05-01T15:01:43.001Z</time></trkpt><trkpt lat="42.45865446452925" lon="14.128305203501384"><ele>162.25</ele><time>2026-05-01T15:01:44.001Z</time></trkpt><trkpt lat="42.458610109055655" lon="14.128158946116937"><ele>163.0</ele><time>2026-05-01T15:01:45.001Z</time></trkpt><trkpt lat="42.45855688662978" lon="14.128025581056809"><ele>163.0</ele><time>2026-05-01T15:01:46.001Z</time></trkpt><trkpt lat="42.458503713007" lon="14.127894863533804"><ele>163.0</ele><time>2026-05-01T15:01:47.001Z</time></trkpt><trkpt lat="42.45845268597303" lon="14.127768764953162"><ele>163.0</ele><time>2026-05-01T15:01:48.001Z</time></trkpt><trkpt lat="42.45841036157952" lon="14.127638419860027"><ele>163.0</ele><time>2026-05-01T15:01:49.001Z</time></trkpt><trkpt lat="42.45836159868866" lon="14.127514641537283"><ele>163.0</ele><time>2026-05-01T15:01:50.001Z</time></trkpt><trkpt lat="42.45831213701859" lon="14.127397911292997"><ele>161.6</ele><time>2026-05-01T15:01:51.001Z</time></trkpt><trkpt lat="42.45825245191766" lon="14.127295971773366"><ele>160.20000000000002</ele><time>2026-05-01T15:01:52.001Z</time></trkpt><trkpt lat="42.45817950566264" lon="14.127204633236477"><ele>158.8</ele><time>2026-05-01T15:01:53.001Z</time></trkpt><trkpt lat="42.458093419991954" lon="14.127127003944222"><ele>157.4</ele><time>2026-05-01T15:01:54.001Z</time></trkpt><trkpt lat="42.458006492784136" lon="14.127062335237728"><ele>156.0</ele><time>2026-05-01T15:01:55.001Z</time></trkpt><trkpt lat="42.45792748024717" lon="14.12697476021586"><ele>156.0</ele><time>2026-05-01T15:01:56.001Z</time></trkpt><trkpt lat="42.45787706626832" lon="14.126852274598146"><ele>156.0</ele><time>2026-05-01T15:01:57.001Z</time></trkpt><trkpt lat="42.45781264246026" lon="14.126734087966213"><ele>156.0</ele><time>2026-05-01T15:01:58.001Z</time></trkpt><trkpt lat="42.457744989572134" lon="14.126617650215447"><ele>156.0</ele><time>2026-05-01T15:01:59.001Z</time></trkpt><trkpt lat="42.457682427231916" lon="14.126502907937043"><ele>156.0</ele><time>2026-05-01T15:02:00.001Z</time></trkpt><trkpt lat="42.457624896611144" lon="14.12639068974337"><ele>158.2</ele><time>2026-05-01T15:02:01.001Z</time></trkpt><trkpt lat="42.45757156951909" lon="14.126280243251923"><ele>160.39999999999998</ele><time>2026-05-01T15:02:02.001Z</time></trkpt><trkpt lat="42.457518758765346" lon="14.126174975527782"><ele>162.6</ele><time>2026-05-01T15:02:03.001Z</time></trkpt><trkpt lat="42.45746681093075" lon="14.126062596195608"><ele>164.79999999999998</ele><time>2026-05-01T15:02:04.001Z</time></trkpt><trkpt lat="42.45741459241386" lon="14.125949234435542"><ele>167.0</ele><time>2026-05-01T15:02:05.001Z</time></trkpt><trkpt lat="42.45737408073308" lon="14.125840881378736"><ele>168.39999999999998</ele><time>2026-05-01T15:02:06.001Z</time></trkpt><trkpt lat="42.45733839332996" lon="14.125727903260278"><ele>169.79999999999998</ele><time>2026-05-01T15:02:07.001Z</time></trkpt><trkpt lat="42.45730707534636" lon="14.125607798499894"><ele>171.2</ele><time>2026-05-01T15:02:08Z</time></trkpt><trkpt lat="42.45728272597301" lon="14.125485148771237"><ele>172.6</ele><time>2026-05-01T15:02:09Z</time></trkpt><trkpt lat="42.45726128570881" lon="14.125363172139027"><ele>174.0</ele><time>2026-05-01T15:02:10Z</time></trkpt><trkpt lat="42.457243062051795" lon="14.125236166814286"><ele>174.0</ele><time>2026-05-01T15:02:11Z</time></trkpt><trkpt lat="42.45723077755819" lon="14.12509802632759"><ele>174.0</ele><time>2026-05-01T15:02:12Z</time></trkpt><trkpt lat="42.45722732549119" lon="14.124954609226268"><ele>174.0</ele><time>2026-05-01T15:02:13Z</time></trkpt><trkpt lat="42.45723647486945" lon="14.124807548437703"><ele>174.0</ele><time>2026-05-01T15:02:14Z</time></trkpt><trkpt lat="42.4572480222458" lon="14.124654348369425"><ele>174.0</ele><time>2026-05-01T15:02:15Z</time></trkpt><trkpt lat="42.45726676761323" lon="14.12449826848352"><ele>173.39999999999998</ele><time>2026-05-01T15:02:16Z</time></trkpt><trkpt lat="42.45729342465956" lon="14.124346181104377"><ele>172.8</ele><time>2026-05-01T15:02:17Z</time></trkpt><trkpt lat="42.45732384461583" lon="14.12419890626766"><ele>172.2</ele><time>2026-05-01T15:02:18Z</time></trkpt><trkpt lat="42.457360829993824" lon="14.124056267033007"><ele>171.60000000000002</ele><time>2026-05-01T15:02:19Z</time></trkpt><trkpt lat="42.457397690677595" lon="14.12391833357677"><ele>171.0</ele><time>2026-05-01T15:02:20Z</time></trkpt><trkpt lat="42.45743731056119" lon="14.123784642818174"><ele>169.60000000000002</ele><time>2026-05-01T15:02:21Z</time></trkpt><trkpt lat="42.45747847873652" lon="14.123652181363443"><ele>168.2</ele><time>2026-05-01T15:02:22Z</time></trkpt><trkpt lat="42.45751512597292" lon="14.123522795542407"><ele>166.8</ele><time>2026-05-01T15:02:23Z</time></trkpt><trkpt lat="42.45755569081332" lon="14.123389445739427"><ele>165.39999999999998</ele><time>2026-05-01T15:02:24Z</time></trkpt><trkpt lat="42.45759322203203" lon="14.123257546664188"><ele>164.0</ele><time>2026-05-01T15:02:25Z</time></trkpt><trkpt lat="42.45763109531585" lon="14.123120982054434"><ele>163.6</ele><time>2026-05-01T15:02:26Z</time></trkpt><trkpt lat="42.45767036873873" lon="14.122983971968154"><ele>163.2</ele><time>2026-05-01T15:02:27Z</time></trkpt><trkpt lat="42.45771257214976" lon="14.122844049844925"><ele>162.79999999999998</ele><time>2026-05-01T15:02:28Z</time></trkpt><trkpt lat="42.457754599035134" lon="14.122704696179664"><ele>162.39999999999998</ele><time>2026-05-01T15:02:29Z</time></trkpt><trkpt lat="42.45780033822942" lon="14.12256221730622"><ele>162.0</ele><time>2026-05-01T15:02:30Z</time></trkpt><trkpt lat="42.457847227664445" lon="14.122425732833426"><ele>161.6</ele><time>2026-05-01T15:02:31Z</time></trkpt><trkpt lat="42.457900280925266" lon="14.122294692043866"><ele>161.2</ele><time>2026-05-01T15:02:32Z</time></trkpt><trkpt lat="42.45795985471149" lon="14.1221697277544"><ele>160.8</ele><time>2026-05-01T15:02:33Z</time></trkpt><trkpt lat="42.458025262402856" lon="14.122054582698599"><ele>160.4</ele><time>2026-05-01T15:02:34Z</time></trkpt><trkpt lat="42.45809960635544" lon="14.12194598726854"><ele>160.0</ele><time>2026-05-01T15:02:35Z</time></trkpt><trkpt lat="42.45817883957585" lon="14.121844910775883"><ele>160.0</ele><time>2026-05-01T15:02:36Z</time></trkpt><trkpt lat="42.458262367870276" lon="14.121744582281208"><ele>160.0</ele><time>2026-05-01T15:02:37Z</time></trkpt><trkpt lat="42.45835270241969" lon="14.121646660292125"><ele>160.0</ele><time>2026-05-01T15:02:38Z</time></trkpt><trkpt lat="42.45844366032044" lon="14.121551577772086"><ele>160.0</ele><time>2026-05-01T15:02:39Z</time></trkpt><trkpt lat="42.458537674629945" lon="14.121453306394805"><ele>160.0</ele><time>2026-05-01T15:02:40Z</time></trkpt><trkpt lat="42.45863060693017" lon="14.121355821057634"><ele>160.0</ele><time>2026-05-01T15:02:41Z</time></trkpt><trkpt lat="42.45872154016594" lon="14.12125420769207"><ele>160.0</ele><time>2026-05-01T15:02:42Z</time></trkpt><trkpt lat="42.45881593874193" lon="14.121154583430364"><ele>160.0</ele><time>2026-05-01T15:02:43Z</time></trkpt><trkpt lat="42.4589104167734" lon="14.121056486051913"><ele>160.0</ele><time>2026-05-01T15:02:44Z</time></trkpt><trkpt lat="42.4590034400701" lon="14.120956085738959"><ele>160.0</ele><time>2026-05-01T15:02:45Z</time></trkpt><trkpt lat="42.45909407960198" lon="14.12085434917131"><ele>160.0</ele><time>2026-05-01T15:02:46Z</time></trkpt><trkpt lat="42.459183514190876" lon="14.120753754838477"><ele>160.0</ele><time>2026-05-01T15:02:47Z</time></trkpt><trkpt lat="42.459271790687254" lon="14.120658204253553"><ele>160.0</ele><time>2026-05-01T15:02:48Z</time></trkpt><trkpt lat="42.45935927703263" lon="14.120566535226226"><ele>160.0</ele><time>2026-05-01T15:02:49Z</time></trkpt><trkpt lat="42.45944179530768" lon="14.120483015805668"><ele>160.0</ele><time>2026-05-01T15:02:50Z</time></trkpt><trkpt lat="42.45952002258003" lon="14.120412696398327"><ele>160.0</ele><time>2026-05-01T15:02:51Z</time></trkpt><trkpt lat="42.45959045138314" lon="14.120347239406785"><ele>160.0</ele><time>2026-05-01T15:02:52Z</time></trkpt><trkpt lat="42.45965166868933" lon="14.12028301800792"><ele>160.0</ele><time>2026-05-01T15:02:53Z</time></trkpt><trkpt lat="42.45970898945169" lon="14.120224239525593"><ele>160.0</ele><time>2026-05-01T15:02:54Z</time></trkpt><trkpt lat="42.459764000588336" lon="14.12017293006837"><ele>160.0</ele><time>2026-05-01T15:02:55Z</time></trkpt><trkpt lat="42.459821777112374" lon="14.120125323465482"><ele>160.0</ele><time>2026-05-01T15:02:56Z</time></trkpt><trkpt lat="42.459881717308335" lon="14.120088918867472"><ele>160.0</ele><time>2026-05-01T15:02:57Z</time></trkpt><trkpt lat="42.459948232131595" lon="14.120071384140605"><ele>160.0</ele><time>2026-05-01T15:02:58Z</time></trkpt><trkpt lat="42.46001553939615" lon="14.120063965909736"><ele>160.0</ele><time>2026-05-01T15:02:59Z</time></trkpt><trkpt lat="42.46008991120222" lon="14.120040784189214"><ele>160.0</ele><time>2026-05-01T15:03:00Z</time></trkpt><trkpt lat="42.460160444147874" lon="14.120011389811605"><ele>160.0</ele><time>2026-05-01T15:03:01Z</time></trkpt><trkpt lat="42.46022874391052" lon="14.119999969766878"><ele>160.0</ele><time>2026-05-01T15:03:02Z</time></trkpt><trkpt lat="42.46030228729719" lon="14.120013435393616"><ele>160.0</ele><time>2026-05-01T15:03:03Z</time></trkpt><trkpt lat="42.46038290290342" lon="14.120039839216822"><ele>160.0</ele><time>2026-05-01T15:03:04Z</time></trkpt><trkpt lat="42.4604789619207" lon="14.120082538340705"><ele>160.0</ele><time>2026-05-01T15:03:05Z</time></trkpt><trkpt lat="42.46058805468305" lon="14.120133620031226"><ele>160.5</ele><time>2026-05-01T15:03:06Z</time></trkpt><trkpt lat="42.46070675624748" lon="14.120184042158343"><ele>161.0</ele><time>2026-05-01T15:03:07Z</time></trkpt><trkpt lat="42.46083620495535" lon="14.120225261059918"><ele>161.5</ele><time>2026-05-01T15:03:08Z</time></trkpt><trkpt lat="42.46097411970321" lon="14.120263616687835"><ele>162.0</ele><time>2026-05-01T15:03:09Z</time></trkpt><trkpt lat="42.461110674979196" lon="14.120297647339227"><ele>162.0</ele><time>2026-05-01T15:03:10Z</time></trkpt><trkpt lat="42.461243143770204" lon="14.120334530535349"><ele>162.0</ele><time>2026-05-01T15:03:11Z</time></trkpt><trkpt lat="42.46137234020021" lon="14.1203888892175"><ele>162.0</ele><time>2026-05-01T15:03:12Z</time></trkpt><trkpt lat="42.46149845677081" lon="14.120480570053234"><ele>162.0</ele><time>2026-05-01T15:03:13Z</time></trkpt><trkpt lat="42.46162105755567" lon="14.120583864377465"><ele>163.0</ele><time>2026-05-01T15:03:14Z</time></trkpt><trkpt lat="42.46173768515446" lon="14.120675643260864"><ele>164.0</ele><time>2026-05-01T15:03:15Z</time></trkpt><trkpt lat="42.46186465820764" lon="14.120762098937371"><ele>165.0</ele><time>2026-05-01T15:03:16Z</time></trkpt><trkpt lat="42.46199281302118" lon="14.120856627929461"><ele>166.0</ele><time>2026-05-01T15:03:17Z</time></trkpt><trkpt lat="42.46212656237643" lon="14.120958723916846"><ele>166.0</ele><time>2026-05-01T15:03:18Z</time></trkpt><trkpt lat="42.4622633961711" lon="14.121062183603406"><ele>166.0</ele><time>2026-05-01T15:03:19Z</time></trkpt><trkpt lat="42.462401822930744" lon="14.121167297809874"><ele>166.0</ele><time>2026-05-01T15:03:20Z</time></trkpt><trkpt lat="42.46254040504527" lon="14.121272374996137"><ele>166.0</ele><time>2026-05-01T15:03:21Z</time></trkpt><trkpt lat="42.46267830572418" lon="14.121372379044628"><ele>166.0</ele><time>2026-05-01T15:03:22Z</time></trkpt><trkpt lat="42.462815440229306" lon="14.121472610383064"><ele>166.0</ele><time>2026-05-01T15:03:23Z</time></trkpt><trkpt lat="42.462948181687146" lon="14.121574391888773"><ele>163.25</ele><time>2026-05-01T15:03:24Z</time></trkpt><trkpt lat="42.46307225810307" lon="14.12166768184232"><ele>160.5</ele><time>2026-05-01T15:03:25Z</time></trkpt><trkpt lat="42.463190542055465" lon="14.121749705885389"><ele>157.75</ele><time>2026-05-01T15:03:26Z</time></trkpt><trkpt lat="42.46330615501677" lon="14.121829053359297"><ele>155.0</ele><time>2026-05-01T15:03:27Z</time></trkpt><trkpt lat="42.46342228991308" lon="14.121919621236547"><ele>155.0</ele><time>2026-05-01T15:03:28Z</time></trkpt><trkpt lat="42.46353829818385" lon="14.122010368911791"><ele>155.0</ele><time>2026-05-01T15:03:29Z</time></trkpt><trkpt lat="42.463648681696434" lon="14.122091980813979"><ele>155.0</ele><time>2026-05-01T15:03:30Z</time></trkpt><trkpt lat="42.46374932243357" lon="14.122178334415858"><ele>155.0</ele><time>2026-05-01T15:03:31Z</time></trkpt><trkpt lat="42.463841814852174" lon="14.122278628509157"><ele>153.5</ele><time>2026-05-01T15:03:32Z</time></trkpt><trkpt lat="42.46393166733804" lon="14.12240530345045"><ele>152.0</ele><time>2026-05-01T15:03:33Z</time></trkpt><trkpt lat="42.46400763385408" lon="14.122559496667346"><ele>150.5</ele><time>2026-05-01T15:03:34Z</time></trkpt><trkpt lat="42.46408545244484" lon="14.122716129088667"><ele>149.0</ele><time>2026-05-01T15:03:35Z</time></trkpt><trkpt lat="42.4641601874885" lon="14.122874272940537"><ele>149.0</ele><time>2026-05-01T15:03:36Z</time></trkpt><trkpt lat="42.46422366691992" lon="14.123029551674342"><ele>149.0</ele><time>2026-05-01T15:03:37.001Z</time></trkpt><trkpt lat="42.46427676017701" lon="14.123189570514347"><ele>149.0</ele><time>2026-05-01T15:03:38.001Z</time></trkpt><trkpt lat="42.46432207311453" lon="14.123363707910668"><ele>149.0</ele><time>2026-05-01T15:03:39.001Z</time></trkpt><trkpt lat="42.46436451620878" lon="14.123541575922832"><ele>149.0</ele><time>2026-05-01T15:03:40.001Z</time></trkpt><trkpt lat="42.4644114435137" lon="14.123716677358154"><ele>149.0</ele><time>2026-05-01T15:03:41.001Z</time></trkpt><trkpt lat="42.46446394219038" lon="14.12388462346773"><ele>149.0</ele><time>2026-05-01T15:03:42.001Z</time></trkpt><trkpt lat="42.46452176642867" lon="14.12404011345893"><ele>149.0</ele><time>2026-05-01T15:03:43.001Z</time></trkpt><trkpt lat="42.46458964301914" lon="14.124179949549271"><ele>147.0</ele><time>2026-05-01T15:03:44.001Z</time></trkpt><trkpt lat="42.46466934623081" lon="14.124290674323756"><ele>145.0</ele><time>2026-05-01T15:03:45.001Z</time></trkpt><trkpt lat="42.464758327145326" lon="14.12439363650161"><ele>143.0</ele><time>2026-05-01T15:03:46.001Z</time></trkpt><trkpt lat="42.46485152027938" lon="14.124508951395052"><ele>141.0</ele><time>2026-05-01T15:03:47.001Z</time></trkpt><trkpt lat="42.46494862790792" lon="14.124634590403929"><ele>141.0</ele><time>2026-05-01T15:03:48.001Z</time></trkpt><trkpt lat="42.46504407269167" lon="14.12476956638777"><ele>141.0</ele><time>2026-05-01T15:03:49.001Z</time></trkpt><trkpt lat="42.465118064259066" lon="14.124931098102783"><ele>141.0</ele><time>2026-05-01T15:03:50.001Z</time></trkpt><trkpt lat="42.465202002962656" lon="14.125091826124454"><ele>141.0</ele><time>2026-05-01T15:03:51.001Z</time></trkpt><trkpt lat="42.46529891827554" lon="14.1252447445407"><ele>139.33333333333334</ele><time>2026-05-01T15:03:52.001Z</time></trkpt><trkpt lat="42.46539310073447" lon="14.125405285353485"><ele>137.66666666666669</ele><time>2026-05-01T15:03:53.001Z</time></trkpt><trkpt lat="42.46550058758611" lon="14.1255535956615"><ele>136.0</ele><time>2026-05-01T15:03:54.001Z</time></trkpt><trkpt lat="42.465609299075126" lon="14.125691509115095"><ele>137.75</ele><time>2026-05-01T15:03:55.001Z</time></trkpt><trkpt lat="42.46571694751427" lon="14.125824711216762"><ele>139.5</ele><time>2026-05-01T15:03:56.001Z</time></trkpt><trkpt lat="42.46583284755559" lon="14.125937922483818"><ele>141.25</ele><time>2026-05-01T15:03:57.001Z</time></trkpt><trkpt lat="42.465957930236236" lon="14.12602790605907"><ele>143.0</ele><time>2026-05-01T15:03:58.001Z</time></trkpt><trkpt lat="42.466092713624526" lon="14.126090127654946"><ele>143.0</ele><time>2026-05-01T15:03:59.001Z</time></trkpt><trkpt lat="42.46623753293607" lon="14.126120272002797"><ele>143.0</ele><time>2026-05-01T15:04:00.001Z</time></trkpt><trkpt lat="42.46638262088443" lon="14.126137724065769"><ele>143.0</ele><time>2026-05-01T15:04:01.001Z</time></trkpt><trkpt lat="42.466514534249626" lon="14.126165317175769"><ele>143.0</ele><time>2026-05-01T15:04:02.001Z</time></trkpt><trkpt lat="42.466633546112405" lon="14.126209743796535"><ele>142.0</ele><time>2026-05-01T15:04:03.001Z</time></trkpt><trkpt lat="42.466729635670276" lon="14.126280123046547"><ele>141.0</ele><time>2026-05-01T15:04:04.001Z</time></trkpt><trkpt lat="42.46680287404672" lon="14.126391763703497"><ele>140.0</ele><time>2026-05-01T15:04:05Z</time></trkpt><trkpt lat="42.466871985684215" lon="14.126532746715762"><ele>139.0</ele><time>2026-05-01T15:04:06Z</time></trkpt><trkpt lat="42.466949346708525" lon="14.12669079436183"><ele>139.0</ele><time>2026-05-01T15:04:07Z</time></trkpt><trkpt lat="42.46703334514959" lon="14.12686439279618"><ele>139.0</ele><time>2026-05-01T15:04:08Z</time></trkpt><trkpt lat="42.46712189890593" lon="14.127044509726899"><ele>139.0</ele><time>2026-05-01T15:04:09Z</time></trkpt><trkpt lat="42.467209644105516" lon="14.127224259926678"><ele>141.0</ele><time>2026-05-01T15:04:10Z</time></trkpt><trkpt lat="42.467292687591716" lon="14.12740928798568"><ele>143.0</ele><time>2026-05-01T15:04:11Z</time></trkpt><trkpt lat="42.46736619822792" lon="14.12759770643002"><ele>145.0</ele><time>2026-05-01T15:04:12Z</time></trkpt><trkpt lat="42.46743450564654" lon="14.127788206918927"><ele>145.0</ele><time>2026-05-01T15:04:13Z</time></trkpt><trkpt lat="42.46749983511604" lon="14.127971493495902"><ele>145.0</ele><time>2026-05-01T15:04:14Z</time></trkpt><trkpt lat="42.46756567790805" lon="14.128152171988873"><ele>145.0</ele><time>2026-05-01T15:04:15Z</time></trkpt><trkpt lat="42.46762993199126" lon="14.128324046468766"><ele>145.0</ele><time>2026-05-01T15:04:16Z</time></trkpt><trkpt lat="42.46768784194968" lon="14.128473300384094"><ele>145.5</ele><time>2026-05-01T15:04:17Z</time></trkpt><trkpt lat="42.46774961921534" lon="14.128595835170765"><ele>146.0</ele><time>2026-05-01T15:04:18Z</time></trkpt><trkpt lat="42.46782662207599" lon="14.128693886095528"><ele>146.5</ele><time>2026-05-01T15:04:19Z</time></trkpt><trkpt lat="42.46792655707649" lon="14.12876953720593"><ele>147.0</ele><time>2026-05-01T15:04:20Z</time></trkpt><trkpt lat="42.46804205708825" lon="14.128816369893174"><ele>149.5</ele><time>2026-05-01T15:04:21Z</time></trkpt><trkpt lat="42.468165251843416" lon="14.128857252516548"><ele>152.0</ele><time>2026-05-01T15:04:22Z</time></trkpt><trkpt lat="42.46828850842235" lon="14.128899928959264"><ele>154.5</ele><time>2026-05-01T15:04:23Z</time></trkpt><trkpt lat="42.46841499978393" lon="14.128941164730934"><ele>157.0</ele><time>2026-05-01T15:04:24Z</time></trkpt><trkpt lat="42.468551028814844" lon="14.128988222987042"><ele>157.0</ele><time>2026-05-01T15:04:25Z</time></trkpt><trkpt lat="42.46869180601216" lon="14.129036353124352"><ele>157.0</ele><time>2026-05-01T15:04:26Z</time></trkpt><trkpt lat="42.468824021726434" lon="14.129081234782065"><ele>157.0</ele><time>2026-05-01T15:04:27Z</time></trkpt><trkpt lat="42.46894673989393" lon="14.129123697289725"><ele>157.0</ele><time>2026-05-01T15:04:28Z</time></trkpt><trkpt lat="42.46906275882769" lon="14.129164284786643"><ele>155.25</ele><time>2026-05-01T15:04:29Z</time></trkpt><trkpt lat="42.46917355338396" lon="14.129211791400236"><ele>153.5</ele><time>2026-05-01T15:04:30Z</time></trkpt><trkpt lat="42.46928531008932" lon="14.129273926707356"><ele>151.75</ele><time>2026-05-01T15:04:31Z</time></trkpt><trkpt lat="42.46939169674904" lon="14.129358637317182"><ele>150.0</ele><time>2026-05-01T15:04:32Z</time></trkpt><trkpt lat="42.4694931457961" lon="14.129461762976222"><ele>150.0</ele><time>2026-05-01T15:04:33Z</time></trkpt><trkpt lat="42.46959101827736" lon="14.129564633854693"><ele>150.0</ele><time>2026-05-01T15:04:34Z</time></trkpt><trkpt lat="42.46968744222497" lon="14.129666550226464"><ele>150.0</ele><time>2026-05-01T15:04:35Z</time></trkpt><trkpt lat="42.46978271031392" lon="14.129773874649171"><ele>150.0</ele><time>2026-05-01T15:04:36Z</time></trkpt><trkpt lat="42.46987592929331" lon="14.129881905652557"><ele>150.0</ele><time>2026-05-01T15:04:37Z</time></trkpt><trkpt lat="42.46996865803299" lon="14.12999233892547"><ele>150.0</ele><time>2026-05-01T15:04:38Z</time></trkpt><trkpt lat="42.47005991141971" lon="14.130105068360333"><ele>150.0</ele><time>2026-05-01T15:04:39Z</time></trkpt><trkpt lat="42.4701516998375" lon="14.130218462686049"><ele>150.0</ele><time>2026-05-01T15:04:40Z</time></trkpt><trkpt lat="42.470244470542994" lon="14.13032933436081"><ele>150.0</ele><time>2026-05-01T15:04:41Z</time></trkpt><trkpt lat="42.47033658071909" lon="14.130439921322829"><ele>150.0</ele><time>2026-05-01T15:04:42Z</time></trkpt><trkpt lat="42.47042607412289" lon="14.130553615933515"><ele>150.0</ele><time>2026-05-01T15:04:43Z</time></trkpt><trkpt lat="42.47052032045756" lon="14.130668424372752"><ele>150.0</ele><time>2026-05-01T15:04:44Z</time></trkpt><trkpt lat="42.470619006141746" lon="14.13078617829681"><ele>148.5</ele><time>2026-05-01T15:04:45Z</time></trkpt><trkpt lat="42.47071882575054" lon="14.130908612283719"><ele>147.0</ele><time>2026-05-01T15:04:46Z</time></trkpt><trkpt lat="42.47081841795526" lon="14.131032777892234"><ele>145.5</ele><time>2026-05-01T15:04:47Z</time></trkpt><trkpt lat="42.47091770551529" lon="14.131156399363269"><ele>144.0</ele><time>2026-05-01T15:04:48Z</time></trkpt><trkpt lat="42.471015452903494" lon="14.131283011288545"><ele>144.0</ele><time>2026-05-01T15:04:49Z</time></trkpt><trkpt lat="42.47111719982495" lon="14.131407264593802"><ele>144.0</ele><time>2026-05-01T15:04:50Z</time></trkpt><trkpt lat="42.47122097797614" lon="14.13153010030277"><ele>144.0</ele><time>2026-05-01T15:04:51Z</time></trkpt><trkpt lat="42.47131625467763" lon="14.131653522273597"><ele>144.0</ele><time>2026-05-01T15:04:52Z</time></trkpt><trkpt lat="42.471404367549596" lon="14.131773640480082"><ele>143.6</ele><time>2026-05-01T15:04:53Z</time></trkpt><trkpt lat="42.471476934925306" lon="14.131894133245048"><ele>143.2</ele><time>2026-05-01T15:04:54Z</time></trkpt><trkpt lat="42.47152383588597" lon="14.132026352497308"><ele>142.79999999999998</ele><time>2026-05-01T15:04:55Z</time></trkpt><trkpt lat="42.47152661052597" lon="14.13217266573875"><ele>142.4</ele><time>2026-05-01T15:04:56Z</time></trkpt><trkpt lat="42.47153267996261" lon="14.132312752749694"><ele>142.0</ele><time>2026-05-01T15:04:57Z</time></trkpt><trkpt lat="42.471549346223775" lon="14.132433281201857"><ele>143.2</ele><time>2026-05-01T15:04:58Z</time></trkpt><trkpt lat="42.471550324065895" lon="14.13254250399361"><ele>144.39999999999998</ele><time>2026-05-01T15:04:59Z</time></trkpt><trkpt lat="42.471556164297375" lon="14.13266668286368"><ele>145.60000000000002</ele><time>2026-05-01T15:05:00Z</time></trkpt><trkpt lat="42.471574784790754" lon="14.132804836207555"><ele>146.8</ele><time>2026-05-01T15:05:01Z</time></trkpt><trkpt lat="42.47161294151532" lon="14.1329222527962"><ele>148.0</ele><time>2026-05-01T15:05:02Z</time></trkpt><trkpt lat="42.47165751265482" lon="14.133044441037457"><ele>148.0</ele><time>2026-05-01T15:05:03Z</time></trkpt><trkpt lat="42.471714640124794" lon="14.133158733510538"><ele>148.0</ele><time>2026-05-01T15:05:04Z</time></trkpt><trkpt lat="42.47178709948114" lon="14.133254611093172"><ele>148.0</ele><time>2026-05-01T15:05:05Z</time></trkpt><trkpt lat="42.471879133600396" lon="14.13332850231104"><ele>148.0</ele><time>2026-05-01T15:05:06Z</time></trkpt><trkpt lat="42.47198772744044" lon="14.133368627645124"><ele>148.0</ele><time>2026-05-01T15:05:07Z</time></trkpt><trkpt lat="42.4721073648553" lon="14.133380207136755"><ele>150.5</ele><time>2026-05-01T15:05:08Z</time></trkpt><trkpt lat="42.47223226730466" lon="14.133371238207479"><ele>153.0</ele><time>2026-05-01T15:05:09Z</time></trkpt><trkpt lat="42.47235374657426" lon="14.133363990345554"><ele>155.5</ele><time>2026-05-01T15:05:10Z</time></trkpt><trkpt lat="42.472454433282294" lon="14.1333871200297"><ele>158.0</ele><time>2026-05-01T15:05:11Z</time></trkpt><trkpt lat="42.47254803425423" lon="14.133451596553176"><ele>158.0</ele><time>2026-05-01T15:05:12Z</time></trkpt><trkpt lat="42.47263599454983" lon="14.133555453353402"><ele>158.0</ele><time>2026-05-01T15:05:13Z</time></trkpt><trkpt lat="42.47272225319811" lon="14.133680643069127"><ele>158.0</ele><time>2026-05-01T15:05:14Z</time></trkpt><trkpt lat="42.47282079662063" lon="14.133800332787892"><ele>158.0</ele><time>2026-05-01T15:05:15Z</time></trkpt><trkpt lat="42.47294006189679" lon="14.133894724904303"><ele>160.0</ele><time>2026-05-01T15:05:16Z</time></trkpt><trkpt lat="42.473068174525196" lon="14.133972820664434"><ele>162.0</ele><time>2026-05-01T15:05:17Z</time></trkpt><trkpt lat="42.47319248016507" lon="14.134049155237882"><ele>164.0</ele><time>2026-05-01T15:05:18Z</time></trkpt><trkpt lat="42.47330488375209" lon="14.134146881744647"><ele>166.0</ele><time>2026-05-01T15:05:19Z</time></trkpt><trkpt lat="42.4734009030338" lon="14.134264990943059"><ele>166.0</ele><time>2026-05-01T15:05:20Z</time></trkpt><trkpt lat="42.47348236419905" lon="14.134395410347494"><ele>166.0</ele><time>2026-05-01T15:05:21Z</time></trkpt><trkpt lat="42.47353897829503" lon="14.134520747673028"><ele>166.0</ele><time>2026-05-01T15:05:22Z</time></trkpt><trkpt lat="42.47357339801837" lon="14.134645143932302"><ele>166.0</ele><time>2026-05-01T15:05:23Z</time></trkpt><trkpt lat="42.473588291169435" lon="14.134779120892897"><ele>166.0</ele><time>2026-05-01T15:05:24Z</time></trkpt><trkpt lat="42.47360225031313" lon="14.134922066700348"><ele>164.4</ele><time>2026-05-01T15:05:25Z</time></trkpt><trkpt lat="42.473631829220786" lon="14.135061595598865"><ele>162.8</ele><time>2026-05-01T15:05:26Z</time></trkpt><trkpt lat="42.47367267608404" lon="14.135198518602587"><ele>161.20000000000002</ele><time>2026-05-01T15:05:27Z</time></trkpt><trkpt lat="42.473712022553485" lon="14.13531981730411"><ele>159.60000000000002</ele><time>2026-05-01T15:05:28Z</time></trkpt><trkpt lat="42.473770064173394" lon="14.135421227407972"><ele>158.0</ele><time>2026-05-01T15:05:29Z</time></trkpt><trkpt lat="42.473858523750565" lon="14.13549496156395"><ele>160.0</ele><time>2026-05-01T15:05:30Z</time></trkpt><trkpt lat="42.4739663466917" lon="14.135548808919873"><ele>162.0</ele><time>2026-05-01T15:05:31Z</time></trkpt><trkpt lat="42.47408321086548" lon="14.135602486171353"><ele>164.0</ele><time>2026-05-01T15:05:32Z</time></trkpt><trkpt lat="42.47420431109769" lon="14.135660767797695"><ele>166.0</ele><time>2026-05-01T15:05:33Z</time></trkpt><trkpt lat="42.47432528373838" lon="14.135728927468255"><ele>166.0</ele><time>2026-05-01T15:05:34Z</time></trkpt><trkpt lat="42.47443192705613" lon="14.135830584006637"><ele>166.0</ele><time>2026-05-01T15:05:35Z</time></trkpt><trkpt lat="42.47453397694915" lon="14.135934548252614"><ele>166.0</ele><time>2026-05-01T15:05:36Z</time></trkpt><trkpt lat="42.474634838947374" lon="14.136025014115706"><ele>166.0</ele><time>2026-05-01T15:05:37Z</time></trkpt><trkpt lat="42.47473963678477" lon="14.136099535827865"><ele>170.25</ele><time>2026-05-01T15:05:38Z</time></trkpt><trkpt lat="42.474860221347555" lon="14.136145902206094"><ele>174.5</ele><time>2026-05-01T15:05:39Z</time></trkpt><trkpt lat="42.474984255090675" lon="14.136179299780993"><ele>178.75</ele><time>2026-05-01T15:05:40Z</time></trkpt><trkpt lat="42.47509608400789" lon="14.136221344043001"><ele>183.0</ele><time>2026-05-01T15:05:41Z</time></trkpt><trkpt lat="42.47517915457914" lon="14.136312697038093"><ele>183.0</ele><time>2026-05-01T15:05:42Z</time></trkpt><trkpt lat="42.47524888864351" lon="14.136421347628751"><ele>183.0</ele><time>2026-05-01T15:05:43Z</time></trkpt><trkpt lat="42.47532782041551" lon="14.136539092716506"><ele>183.0</ele><time>2026-05-01T15:05:44Z</time></trkpt><trkpt lat="42.47540959963698" lon="14.136663493162057"><ele>183.0</ele><time>2026-05-01T15:05:45Z</time></trkpt><trkpt lat="42.475520236582625" lon="14.136761584806084"><ele>183.0</ele><time>2026-05-01T15:05:46Z</time></trkpt><trkpt lat="42.47564925792656" lon="14.136852436685036"><ele>183.0</ele><time>2026-05-01T15:05:47Z</time></trkpt><trkpt lat="42.47578607390441" lon="14.136942652915424"><ele>183.0</ele><time>2026-05-01T15:05:48Z</time></trkpt><trkpt lat="42.475927926416496" lon="14.137035022087852"><ele>183.0</ele><time>2026-05-01T15:05:49Z</time></trkpt><trkpt lat="42.47607185430877" lon="14.137122946686677"><ele>183.0</ele><time>2026-05-01T15:05:50Z</time></trkpt><trkpt lat="42.47621649067179" lon="14.137208147416343"><ele>183.0</ele><time>2026-05-01T15:05:51Z</time></trkpt><trkpt lat="42.47635263672901" lon="14.137287299493554"><ele>182.0</ele><time>2026-05-01T15:05:52Z</time></trkpt><trkpt lat="42.47648102851194" lon="14.13735181378856"><ele>181.0</ele><time>2026-05-01T15:05:53Z</time></trkpt><trkpt lat="42.476606532805285" lon="14.137396107652732"><ele>180.0</ele><time>2026-05-01T15:05:54Z</time></trkpt><trkpt lat="42.47673007146124" lon="14.137425244273919"><ele>179.0</ele><time>2026-05-01T15:05:55Z</time></trkpt><trkpt lat="42.47684800532915" lon="14.137442339014376"><ele>179.0</ele><time>2026-05-01T15:05:56Z</time></trkpt><trkpt lat="42.47696246527372" lon="14.137451519988685"><ele>179.0</ele><time>2026-05-01T15:05:57Z</time></trkpt><trkpt lat="42.477075234267346" lon="14.13745776389159"><ele>179.0</ele><time>2026-05-01T15:05:58Z</time></trkpt><trkpt lat="42.4771856845725" lon="14.137461013675411"><ele>179.0</ele><time>2026-05-01T15:05:59Z</time></trkpt><trkpt lat="42.47729943822598" lon="14.137450812475665"><ele>179.75</ele><time>2026-05-01T15:06:00Z</time></trkpt><trkpt lat="42.47741783949485" lon="14.137426518243966"><ele>180.5</ele><time>2026-05-01T15:06:01Z</time></trkpt><trkpt lat="42.477542447831794" lon="14.13741326723689"><ele>181.25</ele><time>2026-05-01T15:06:02Z</time></trkpt><trkpt lat="42.477666218798355" lon="14.13736541278886"><ele>182.0</ele><time>2026-05-01T15:06:03Z</time></trkpt><trkpt lat="42.47778402231407" lon="14.13729477516018"><ele>180.39999999999998</ele><time>2026-05-01T15:06:04Z</time></trkpt><trkpt lat="42.47790341072018" lon="14.13724614300117"><ele>178.79999999999998</ele><time>2026-05-01T15:06:05Z</time></trkpt><trkpt lat="42.47801297946616" lon="14.13720945680802"><ele>177.2</ele><time>2026-05-01T15:06:06Z</time></trkpt><trkpt lat="42.47811309929147" lon="14.137179957849096"><ele>175.6</ele><time>2026-05-01T15:06:07Z</time></trkpt><trkpt lat="42.4782076943682" lon="14.137173454929714"><ele>174.0</ele><time>2026-05-01T15:06:08Z</time></trkpt><trkpt lat="42.4783042806409" lon="14.137192566064282"><ele>172.5</ele><time>2026-05-01T15:06:09Z</time></trkpt><trkpt lat="42.47840948776998" lon="14.137237324111668"><ele>171.0</ele><time>2026-05-01T15:06:10Z</time></trkpt><trkpt lat="42.47852011121597" lon="14.137288391078648"><ele>169.5</ele><time>2026-05-01T15:06:11Z</time></trkpt><trkpt lat="42.47862805415041" lon="14.137317966250222"><ele>168.0</ele><time>2026-05-01T15:06:12Z</time></trkpt><trkpt lat="42.478742012566926" lon="14.137314781371778"><ele>167.75</ele><time>2026-05-01T15:06:13Z</time></trkpt><trkpt lat="42.478862489542905" lon="14.137264177601285"><ele>167.5</ele><time>2026-05-01T15:06:14Z</time></trkpt><trkpt lat="42.478981530330714" lon="14.137199830679878"><ele>167.25</ele><time>2026-05-01T15:06:15Z</time></trkpt><trkpt lat="42.47908612787156" lon="14.13713621541984"><ele>167.0</ele><time>2026-05-01T15:06:16Z</time></trkpt><trkpt lat="42.479183038317416" lon="14.137060239763201"><ele>167.0</ele><time>2026-05-01T15:06:17Z</time></trkpt><trkpt lat="42.47927314357339" lon="14.136961373453525"><ele>167.0</ele><time>2026-05-01T15:06:18Z</time></trkpt><trkpt lat="42.47934861269186" lon="14.136836458649261"><ele>167.0</ele><time>2026-05-01T15:06:19Z</time></trkpt><trkpt lat="42.47941924214851" lon="14.136691528642299"><ele>167.0</ele><time>2026-05-01T15:06:20Z</time></trkpt><trkpt lat="42.47949305318641" lon="14.13654688214804"><ele>166.5</ele><time>2026-05-01T15:06:21Z</time></trkpt><trkpt lat="42.4795759280139" lon="14.136412354845312"><ele>166.0</ele><time>2026-05-01T15:06:22Z</time></trkpt><trkpt lat="42.479685202485975" lon="14.136304780754438"><ele>165.5</ele><time>2026-05-01T15:06:23Z</time></trkpt><trkpt lat="42.47977076498011" lon="14.13617521254277"><ele>165.0</ele><time>2026-05-01T15:06:24Z</time></trkpt><trkpt lat="42.47985109273511" lon="14.136056148516442"><ele>165.0</ele><time>2026-05-01T15:06:25Z</time></trkpt><trkpt lat="42.4799135127405" lon="14.135907955095947"><ele>165.0</ele><time>2026-05-01T15:06:26Z</time></trkpt><trkpt lat="42.47995861502529" lon="14.135741249832577"><ele>165.0</ele><time>2026-05-01T15:06:27Z</time></trkpt><trkpt lat="42.47998799171334" lon="14.135576816577823"><ele>165.0</ele><time>2026-05-01T15:06:28Z</time></trkpt><trkpt lat="42.480038917792555" lon="14.135440281328744"><ele>163.4</ele><time>2026-05-01T15:06:29Z</time></trkpt><trkpt lat="42.48007212658844" lon="14.135307680107081"><ele>161.8</ele><time>2026-05-01T15:06:30Z</time></trkpt><trkpt lat="42.48013506152334" lon="14.135196382063324"><ele>160.2</ele><time>2026-05-01T15:06:31Z</time></trkpt><trkpt lat="42.48020795053933" lon="14.135092998897665"><ele>158.6</ele><time>2026-05-01T15:06:32Z</time></trkpt><trkpt lat="42.480296906430745" lon="14.134998033464234"><ele>157.0</ele><time>2026-05-01T15:06:33Z</time></trkpt><trkpt lat="42.48039602062114" lon="14.134915437813635"><ele>155.4</ele><time>2026-05-01T15:06:34Z</time></trkpt><trkpt lat="42.4804937242582" lon="14.134839219535293"><ele>153.79999999999998</ele><time>2026-05-01T15:06:35Z</time></trkpt><trkpt lat="42.48058478348239" lon="14.134781830865998"><ele>152.2</ele><time>2026-05-01T15:06:36Z</time></trkpt><trkpt lat="42.480672215382214" lon="14.134755191446962"><ele>150.6</ele><time>2026-05-01T15:06:37Z</time></trkpt><trkpt lat="42.480755728374035" lon="14.134768460354534"><ele>149.0</ele><time>2026-05-01T15:06:38Z</time></trkpt><trkpt lat="42.48084159842154" lon="14.134843629706237"><ele>150.8</ele><time>2026-05-01T15:06:39Z</time></trkpt><trkpt lat="42.480922157944384" lon="14.134914136899297"><ele>152.60000000000002</ele><time>2026-05-01T15:06:40Z</time></trkpt><trkpt lat="42.48099621468155" lon="14.135001455528219"><ele>154.4</ele><time>2026-05-01T15:06:41Z</time></trkpt><trkpt lat="42.48106378523694" lon="14.135106420530127"><ele>156.20000000000002</ele><time>2026-05-01T15:06:42Z</time></trkpt><trkpt lat="42.48111749548117" lon="14.13522641428253"><ele>158.0</ele><time>2026-05-01T15:06:43Z</time></trkpt><trkpt lat="42.48116331949877" lon="14.135366720085793"><ele>158.0</ele><time>2026-05-01T15:06:44Z</time></trkpt><trkpt lat="42.48120710947887" lon="14.135517289084397"><ele>158.0</ele><time>2026-05-01T15:06:45Z</time></trkpt><trkpt lat="42.48125184585259" lon="14.135670326253063"><ele>158.0</ele><time>2026-05-01T15:06:46Z</time></trkpt><trkpt lat="42.48130380985663" lon="14.135825905903197"><ele>158.0</ele><time>2026-05-01T15:06:47Z</time></trkpt><trkpt lat="42.481363313642646" lon="14.135979178563124"><ele>155.25</ele><time>2026-05-01T15:06:48Z</time></trkpt><trkpt lat="42.481416017085216" lon="14.136132996358258"><ele>152.5</ele><time>2026-05-01T15:06:49Z</time></trkpt><trkpt lat="42.48146585136137" lon="14.136277939216862"><ele>149.75</ele><time>2026-05-01T15:06:50Z</time></trkpt><trkpt lat="42.48151571733229" lon="14.136410820387956"><ele>147.0</ele><time>2026-05-01T15:06:51Z</time></trkpt><trkpt lat="42.481593912383886" lon="14.136506321263056"><ele>147.0</ele><time>2026-05-01T15:06:52Z</time></trkpt><trkpt lat="42.48167800971451" lon="14.136563089447106"><ele>147.0</ele><time>2026-05-01T15:06:53Z</time></trkpt><trkpt lat="42.481777246107015" lon="14.13657748404022"><ele>147.0</ele><time>2026-05-01T15:06:54Z</time></trkpt><trkpt lat="42.481881251389375" lon="14.136555211196754"><ele>147.0</ele><time>2026-05-01T15:06:55Z</time></trkpt><trkpt lat="42.48197254299" lon="14.13649925681396"><ele>147.0</ele><time>2026-05-01T15:06:56Z</time></trkpt><trkpt lat="42.48203910279761" lon="14.136417833873589"><ele>147.0</ele><time>2026-05-01T15:06:57Z</time></trkpt><trkpt lat="42.48208844703753" lon="14.136324959344869"><ele>147.0</ele><time>2026-05-01T15:06:58Z</time></trkpt><trkpt lat="42.482130191790674" lon="14.136204002476237"><ele>147.0</ele><time>2026-05-01T15:06:59Z</time></trkpt><trkpt lat="42.482161668453166" lon="14.136053097148714"><ele>147.0</ele><time>2026-05-01T15:07:00Z</time></trkpt><trkpt lat="42.48219159034971" lon="14.135883363763776"><ele>147.0</ele><time>2026-05-01T15:07:01Z</time></trkpt><trkpt lat="42.482227350783724" lon="14.135701008372356"><ele>145.0</ele><time>2026-05-01T15:07:02Z</time></trkpt><trkpt lat="42.482269446478234" lon="14.135505450319016"><ele>143.0</ele><time>2026-05-01T15:07:03Z</time></trkpt><trkpt lat="42.48231378691174" lon="14.135309438352374"><ele>141.0</ele><time>2026-05-01T15:07:04Z</time></trkpt><trkpt lat="42.482355192683606" lon="14.135116726194306"><ele>139.0</ele><time>2026-05-01T15:07:05Z</time></trkpt><trkpt lat="42.48239660169894" lon="14.134925603527826"><ele>138.5</ele><time>2026-05-01T15:07:06Z</time></trkpt><trkpt lat="42.48243613105352" lon="14.13473575396"><ele>138.0</ele><time>2026-05-01T15:07:07Z</time></trkpt><trkpt lat="42.482475827236854" lon="14.134546130652007"><ele>137.5</ele><time>2026-05-01T15:07:08Z</time></trkpt><trkpt lat="42.482514187671725" lon="14.134360163475856"><ele>137.0</ele><time>2026-05-01T15:07:09Z</time></trkpt><trkpt lat="42.48255098012402" lon="14.134184912226392"><ele>136.0</ele><time>2026-05-01T15:07:10Z</time></trkpt><trkpt lat="42.482586682118345" lon="14.134020212357276"><ele>135.0</ele><time>2026-05-01T15:07:11Z</time></trkpt><trkpt lat="42.48261968338785" lon="14.133865513300933"><ele>134.0</ele><time>2026-05-01T15:07:12Z</time></trkpt><trkpt lat="42.48265297912755" lon="14.133719637253938"><ele>133.0</ele><time>2026-05-01T15:07:13Z</time></trkpt><trkpt lat="42.48270612388256" lon="14.133591416073962"><ele>133.0</ele><time>2026-05-01T15:07:14Z</time></trkpt><trkpt lat="42.48273784448729" lon="14.133458594485921"><ele>133.0</ele><time>2026-05-01T15:07:15Z</time></trkpt><trkpt lat="42.48280285418599" lon="14.133353860994713"><ele>133.0</ele><time>2026-05-01T15:07:16Z</time></trkpt><trkpt lat="42.48288536569512" lon="14.133273165742487"><ele>133.0</ele><time>2026-05-01T15:07:17Z</time></trkpt><trkpt lat="42.48298542845271" lon="14.133213145632785"><ele>133.0</ele><time>2026-05-01T15:07:18Z</time></trkpt><trkpt lat="42.483101604343226" lon="14.13315896759414"><ele>132.0</ele><time>2026-05-01T15:07:19Z</time></trkpt><trkpt lat="42.48322722571476" lon="14.133098391860765"><ele>131.0</ele><time>2026-05-01T15:07:20Z</time></trkpt><trkpt lat="42.483359186814766" lon="14.133032095256384"><ele>130.0</ele><time>2026-05-01T15:07:21Z</time></trkpt><trkpt lat="42.483495517508494" lon="14.13296527455406"><ele>129.0</ele><time>2026-05-01T15:07:22Z</time></trkpt><trkpt lat="42.48363213783453" lon="14.132899196195288"><ele>128.0</ele><time>2026-05-01T15:07:23Z</time></trkpt><trkpt lat="42.48376652899431" lon="14.132832089405277"><ele>127.0</ele><time>2026-05-01T15:07:24Z</time></trkpt><trkpt lat="42.483897004369936" lon="14.13276758599732"><ele>126.0</ele><time>2026-05-01T15:07:25Z</time></trkpt><trkpt lat="42.48402632779393" lon="14.132705950144663"><ele>125.0</ele><time>2026-05-01T15:07:26Z</time></trkpt><trkpt lat="42.484155295701825" lon="14.132644922295272"><ele>125.0</ele><time>2026-05-01T15:07:27Z</time></trkpt><trkpt lat="42.484282355680726" lon="14.132586448795552"><ele>125.0</ele><time>2026-05-01T15:07:28Z</time></trkpt><trkpt lat="42.484408080507976" lon="14.13252846437165"><ele>125.0</ele><time>2026-05-01T15:07:29Z</time></trkpt><trkpt lat="42.484532646250386" lon="14.132470946629775"><ele>125.0</ele><time>2026-05-01T15:07:30Z</time></trkpt><trkpt lat="42.484654029921316" lon="14.132413659740545"><ele>123.5</ele><time>2026-05-01T15:07:31Z</time></trkpt><trkpt lat="42.48477187234948" lon="14.132358782383209"><ele>122.0</ele><time>2026-05-01T15:07:32Z</time></trkpt><trkpt lat="42.48488747528931" lon="14.132317029720443"><ele>120.5</ele><time>2026-05-01T15:07:33Z</time></trkpt><trkpt lat="42.48499822273947" lon="14.132301727998694"><ele>119.0</ele><time>2026-05-01T15:07:34Z</time></trkpt><trkpt lat="42.485094049652446" lon="14.132260439308817"><ele>119.0</ele><time>2026-05-01T15:07:35Z</time></trkpt><trkpt lat="42.48518406483598" lon="14.132224021696182"><ele>119.0</ele><time>2026-05-01T15:07:36Z</time></trkpt><trkpt lat="42.48532007112925" lon="14.13242115318484"><ele>119.0</ele><time>2026-05-01T15:07:37Z</time></trkpt><trkpt lat="42.485421661227285" lon="14.132517785950395"><ele>119.0</ele><time>2026-05-01T15:07:38Z</time></trkpt><trkpt lat="42.48551757651738" lon="14.132636068960979"><ele>118.75</ele><time>2026-05-01T15:07:39Z</time></trkpt><trkpt lat="42.48561596820338" lon="14.132759599562984"><ele>118.5</ele><time>2026-05-01T15:07:40Z</time></trkpt><trkpt lat="42.48572106334289" lon="14.13288524707534"><ele>118.25</ele><time>2026-05-01T15:07:41Z</time></trkpt><trkpt lat="42.48582980118872" lon="14.133012015559789"><ele>118.0</ele><time>2026-05-01T15:07:42Z</time></trkpt><trkpt lat="42.48593984482698" lon="14.133134993021718"><ele>117.75</ele><time>2026-05-01T15:07:43Z</time></trkpt><trkpt lat="42.48604245605045" lon="14.133253121345582"><ele>117.5</ele><time>2026-05-01T15:07:44Z</time></trkpt><trkpt lat="42.48614137130533" lon="14.133372654042057"><ele>117.25</ele><time>2026-05-01T15:07:45Z</time></trkpt><trkpt lat="42.48623783394848" lon="14.13348783792155"><ele>117.0</ele><time>2026-05-01T15:07:46Z</time></trkpt><trkpt lat="42.48633132445783" lon="14.13359725314722"><ele>117.0</ele><time>2026-05-01T15:07:47Z</time></trkpt><trkpt lat="42.486417401278224" lon="14.133699858161956"><ele>116.99999999999999</ele><time>2026-05-01T15:07:48Z</time></trkpt><trkpt lat="42.48649691532092" lon="14.133796588073356"><ele>116.99999999999999</ele><time>2026-05-01T15:07:49Z</time></trkpt><trkpt lat="42.48656560746221" lon="14.133892779558224"><ele>117.0</ele><time>2026-05-01T15:07:50Z</time></trkpt><trkpt lat="42.4866207476904" lon="14.133999180041153"><ele>117.0</ele><time>2026-05-01T15:07:51Z</time></trkpt><trkpt lat="42.48666246029454" lon="14.134124906802786"><ele>117.0</ele><time>2026-05-01T15:07:52Z</time></trkpt><trkpt lat="42.48668584799643" lon="14.134268183598262"><ele>116.99999999999999</ele><time>2026-05-01T15:07:53Z</time></trkpt><trkpt lat="42.486704463285996" lon="14.134417412034285"><ele>116.99999999999999</ele><time>2026-05-01T15:07:54Z</time></trkpt><trkpt lat="42.48672800292905" lon="14.134567354188164"><ele>117.0</ele><time>2026-05-01T15:07:55Z</time></trkpt><trkpt lat="42.48675524756234" lon="14.134718911054875"><ele>117.0</ele><time>2026-05-01T15:07:56Z</time></trkpt><trkpt lat="42.486784997092215" lon="14.134870251188584"><ele>117.0</ele><time>2026-05-01T15:07:57Z</time></trkpt><trkpt lat="42.486816112383124" lon="14.13502378005344"><ele>117.0</ele><time>2026-05-01T15:07:58Z</time></trkpt><trkpt lat="42.486844162894585" lon="14.135183226042955"><ele>117.0</ele><time>2026-05-01T15:07:59Z</time></trkpt><trkpt lat="42.486874735295835" lon="14.135347037132215"><ele>117.0</ele><time>2026-05-01T15:08:00Z</time></trkpt><trkpt lat="42.486908263705764" lon="14.135514414630327"><ele>117.0</ele><time>2026-05-01T15:08:01Z</time></trkpt><trkpt lat="42.48694257706382" lon="14.135686776638059"><ele>117.0</ele><time>2026-05-01T15:08:02Z</time></trkpt><trkpt lat="42.48698385616893" lon="14.135861764149935"><ele>117.0</ele><time>2026-05-01T15:08:03Z</time></trkpt><trkpt lat="42.48703875497979" lon="14.136031984780828"><ele>117.0</ele><time>2026-05-01T15:08:04Z</time></trkpt><trkpt lat="42.487103264410614" lon="14.136199080488687"><ele>117.5</ele><time>2026-05-01T15:08:05Z</time></trkpt><trkpt lat="42.48717146008435" lon="14.136365331102313"><ele>118.0</ele><time>2026-05-01T15:08:06Z</time></trkpt><trkpt lat="42.48723675360578" lon="14.136521529099468"><ele>118.5</ele><time>2026-05-01T15:08:07Z</time></trkpt><trkpt lat="42.48729158921497" lon="14.136665997680227"><ele>119.0</ele><time>2026-05-01T15:08:08Z</time></trkpt><trkpt lat="42.487339636407235" lon="14.136808031743847"><ele>120.25</ele><time>2026-05-01T15:08:09Z</time></trkpt><trkpt lat="42.487388826470806" lon="14.136950881233652"><ele>121.5</ele><time>2026-05-01T15:08:10Z</time></trkpt><trkpt lat="42.48743917091753" lon="14.137095342918103"><ele>122.75</ele><time>2026-05-01T15:08:11Z</time></trkpt><trkpt lat="42.48748657461864" lon="14.137233188393708"><ele>124.0</ele><time>2026-05-01T15:08:12Z</time></trkpt><trkpt lat="42.48753217038077" lon="14.137367213019777"><ele>124.0</ele><time>2026-05-01T15:08:13Z</time></trkpt><trkpt lat="42.48756834027566" lon="14.137487403225986"><ele>124.0</ele><time>2026-05-01T15:08:14Z</time></trkpt><trkpt lat="42.48759807651807" lon="14.137602796864433"><ele>124.0</ele><time>2026-05-01T15:08:15Z</time></trkpt><trkpt lat="42.48762828472981" lon="14.137730491054008"><ele>124.0</ele><time>2026-05-01T15:08:16Z</time></trkpt><trkpt lat="42.48764358570852" lon="14.137879413144775"><ele>124.0</ele><time>2026-05-01T15:08:17Z</time></trkpt><trkpt lat="42.48763976716362" lon="14.138040329782749"><ele>124.0</ele><time>2026-05-01T15:08:18Z</time></trkpt><trkpt lat="42.48762966985946" lon="14.138201862358365"><ele>124.0</ele><time>2026-05-01T15:08:19Z</time></trkpt><trkpt lat="42.48762170602441" lon="14.138348004276367"><ele>124.0</ele><time>2026-05-01T15:08:20Z</time></trkpt><trkpt lat="42.48762569004977" lon="14.138493058525148"><ele>124.0</ele><time>2026-05-01T15:08:21Z</time></trkpt><trkpt lat="42.48765154377344" lon="14.13864406177933"><ele>124.0</ele><time>2026-05-01T15:08:22Z</time></trkpt><trkpt lat="42.48769689829398" lon="14.138796487616336"><ele>124.25</ele><time>2026-05-01T15:08:23Z</time></trkpt><trkpt lat="42.487755764306236" lon="14.138941104908493"><ele>124.5</ele><time>2026-05-01T15:08:24Z</time></trkpt><trkpt lat="42.4878256394599" lon="14.139063247800559"><ele>124.75</ele><time>2026-05-01T15:08:25Z</time></trkpt><trkpt lat="42.487915299924694" lon="14.139171281104606"><ele>125.0</ele><time>2026-05-01T15:08:26Z</time></trkpt><trkpt lat="42.48802329500996" lon="14.13925958002675"><ele>127.25</ele><time>2026-05-01T15:08:27Z</time></trkpt><trkpt lat="42.48814772993962" lon="14.139323060848602"><ele>129.5</ele><time>2026-05-01T15:08:28Z</time></trkpt><trkpt lat="42.48828160847748" lon="14.139357953212581"><ele>131.75</ele><time>2026-05-01T15:08:29Z</time></trkpt><trkpt lat="42.48841639845105" lon="14.139369969770394"><ele>134.0</ele><time>2026-05-01T15:08:30Z</time></trkpt><trkpt lat="42.488539468607875" lon="14.139374181949066"><ele>134.0</ele><time>2026-05-01T15:08:31Z</time></trkpt><trkpt lat="42.48865593501248" lon="14.13937590490983"><ele>134.0</ele><time>2026-05-01T15:08:32Z</time></trkpt><trkpt lat="42.48876522482983" lon="14.139377763476777"><ele>134.0</ele><time>2026-05-01T15:08:33Z</time></trkpt><trkpt lat="42.48886691558808" lon="14.13938495585037"><ele>134.0</ele><time>2026-05-01T15:08:34Z</time></trkpt><trkpt lat="42.48895693189971" lon="14.139411361437498"><ele>134.0</ele><time>2026-05-01T15:08:35Z</time></trkpt><trkpt lat="42.48902953550452" lon="14.139459700500424"><ele>134.42857142857144</ele><time>2026-05-01T15:08:36Z</time></trkpt><trkpt lat="42.489090383284484" lon="14.139519110116732"><ele>134.85714285714286</ele><time>2026-05-01T15:08:37Z</time></trkpt><trkpt lat="42.489151361577285" lon="14.139576440326564"><ele>135.28571428571428</ele><time>2026-05-01T15:08:38Z</time></trkpt><trkpt lat="42.48921709639637" lon="14.13961975003984"><ele>135.71428571428572</ele><time>2026-05-01T15:08:39Z</time></trkpt><trkpt lat="42.489288972841884" lon="14.139628980623682"><ele>136.14285714285714</ele><time>2026-05-01T15:08:40Z</time></trkpt><trkpt lat="42.48936035278548" lon="14.13959729146138"><ele>136.57142857142858</ele><time>2026-05-01T15:08:41Z</time></trkpt><trkpt lat="42.48942262576629" lon="14.139532943002985"><ele>137.0</ele><time>2026-05-01T15:08:42Z</time></trkpt><trkpt lat="42.48949716883495" lon="14.139469572849663"><ele>137.0</ele><time>2026-05-01T15:08:43Z</time></trkpt><trkpt lat="42.4895919426402" lon="14.13944306630996"><ele>137.0</ele><time>2026-05-01T15:08:44Z</time></trkpt><trkpt lat="42.48969721644358" lon="14.139448266246744"><ele>137.0</ele><time>2026-05-01T15:08:45Z</time></trkpt><trkpt lat="42.48980860805702" lon="14.139458595999841"><ele>137.0</ele><time>2026-05-01T15:08:46Z</time></trkpt><trkpt lat="42.48992493975381" lon="14.139465694132339"><ele>137.0</ele><time>2026-05-01T15:08:47Z</time></trkpt><trkpt lat="42.490045563482454" lon="14.139470122803338"><ele>138.0</ele><time>2026-05-01T15:08:48Z</time></trkpt><trkpt lat="42.490165326039445" lon="14.139473699151461"><ele>139.0</ele><time>2026-05-01T15:08:49Z</time></trkpt><trkpt lat="42.490286941600644" lon="14.139477663395908"><ele>140.0</ele><time>2026-05-01T15:08:50Z</time></trkpt><trkpt lat="42.49040760179785" lon="14.139485704339299"><ele>141.0</ele><time>2026-05-01T15:08:51Z</time></trkpt><trkpt lat="42.49052458767429" lon="14.139491775696753"><ele>142.66666666666666</ele><time>2026-05-01T15:08:52Z</time></trkpt><trkpt lat="42.49063222407709" lon="14.139497011357435"><ele>144.33333333333334</ele><time>2026-05-01T15:08:53Z</time></trkpt><trkpt lat="42.49072456671188" lon="14.139509598106233"><ele>146.0</ele><time>2026-05-01T15:08:54Z</time></trkpt><trkpt lat="42.49079815125261" lon="14.139547753182644"><ele>147.66666666666669</ele><time>2026-05-01T15:08:55Z</time></trkpt><trkpt lat="42.49084294236135" lon="14.139614121428803"><ele>149.33333333333334</ele><time>2026-05-01T15:08:56Z</time></trkpt><trkpt lat="42.49086817656001" lon="14.139707300808345"><ele>151.0</ele><time>2026-05-01T15:08:57Z</time></trkpt><trkpt lat="42.49087453643184" lon="14.139823457500704"><ele>152.0</ele><time>2026-05-01T15:08:58Z</time></trkpt><trkpt lat="42.490868650526295" lon="14.139950949709746"><ele>153.0</ele><time>2026-05-01T15:08:59Z</time></trkpt><trkpt lat="42.490865026711965" lon="14.140100742763998"><ele>154.0</ele><time>2026-05-01T15:09:00Z</time></trkpt><trkpt lat="42.49086550054623" lon="14.14026532459685"><ele>155.0</ele><time>2026-05-01T15:09:01Z</time></trkpt><trkpt lat="42.49086674878094" lon="14.140432971323182"><ele>155.0</ele><time>2026-05-01T15:09:02Z</time></trkpt><trkpt lat="42.490866865185325" lon="14.14058850413371"><ele>155.0</ele><time>2026-05-01T15:09:03Z</time></trkpt><trkpt lat="42.490870793724994" lon="14.140720159939168"><ele>155.0</ele><time>2026-05-01T15:09:04Z</time></trkpt><trkpt lat="42.49090081991268" lon="14.140814184236277"><ele>155.0</ele><time>2026-05-01T15:09:05Z</time></trkpt><trkpt lat="42.490952318716865" lon="14.140869562374675"><ele>155.0</ele><time>2026-05-01T15:09:06Z</time></trkpt><trkpt lat="42.49101737554697" lon="14.140892146782521"><ele>155.0</ele><time>2026-05-01T15:09:07Z</time></trkpt><trkpt lat="42.49108973136316" lon="14.140861201131283"><ele>155.0</ele><time>2026-05-01T15:09:08Z</time></trkpt><trkpt lat="42.49115439382394" lon="14.140784134819302"><ele>155.0</ele><time>2026-05-01T15:09:09Z</time></trkpt><trkpt lat="42.49120980848302" lon="14.140677902961349"><ele>155.0</ele><time>2026-05-01T15:09:10Z</time></trkpt><trkpt lat="42.491259414570905" lon="14.140586871556584"><ele>155.0</ele><time>2026-05-01T15:09:11Z</time></trkpt><trkpt lat="42.491305308998434" lon="14.140514189011338"><ele>155.0</ele><time>2026-05-01T15:09:12Z</time></trkpt><trkpt lat="42.491357854572655" lon="14.140465638783942"><ele>155.0</ele><time>2026-05-01T15:09:15Z</time></trkpt><trkpt lat="42.49134864183943" lon="14.140573152748733"><ele>155.8</ele><time>2026-05-01T15:09:27Z</time></trkpt><trkpt lat="42.49128747342378" lon="14.140649425048988"><ele>156.6</ele><time>2026-05-01T15:09:29Z</time></trkpt><trkpt lat="42.49122783589157" lon="14.140751774685281"><ele>157.4</ele><time>2026-05-01T15:09:31Z</time></trkpt><trkpt lat="42.491266973643164" lon="14.140684606484792"><ele>158.2</ele><time>2026-05-01T15:09:46Z</time></trkpt><trkpt lat="42.49134995942193" lon="14.140576078885292"><ele>159.0</ele><time>2026-05-01T15:09:48Z</time></trkpt><trkpt lat="42.491369988891854" lon="14.140438272221003"><ele>159.4</ele><time>2026-05-01T15:09:50Z</time></trkpt><trkpt lat="42.49142087328325" lon="14.140331861772683"><ele>159.8</ele><time>2026-05-01T15:09:52Z</time></trkpt><trkpt lat="42.49153612307199" lon="14.140373980051935"><ele>160.20000000000002</ele><time>2026-05-01T15:09:54Z</time></trkpt><trkpt lat="42.491583049314706" lon="14.140450786625253"><ele>160.60000000000002</ele><time>2026-05-01T15:09:55Z</time></trkpt><trkpt lat="42.49162183830803" lon="14.140544360183362"><ele>161.0</ele><time>2026-05-01T15:09:56Z</time></trkpt><trkpt lat="42.49165197904381" lon="14.140653845613366"><ele>161.0</ele><time>2026-05-01T15:09:57Z</time></trkpt><trkpt lat="42.491682335819995" lon="14.14077505504633"><ele>161.0</ele><time>2026-05-01T15:09:58Z</time></trkpt><trkpt lat="42.491719172433704" lon="14.140912224127876"><ele>161.0</ele><time>2026-05-01T15:09:59Z</time></trkpt><trkpt lat="42.491752664423544" lon="14.14104599349434"><ele>161.0</ele><time>2026-05-01T15:10:00Z</time></trkpt><trkpt lat="42.491781567968346" lon="14.141188217896868"><ele>161.0</ele><time>2026-05-01T15:10:01Z</time></trkpt><trkpt lat="42.49178904258466" lon="14.141334818910062"><ele>161.0</ele><time>2026-05-01T15:10:02Z</time></trkpt><trkpt lat="42.491778942531944" lon="14.14148243308465"><ele>161.0</ele><time>2026-05-01T15:10:03Z</time></trkpt><trkpt lat="42.49175715596182" lon="14.141628780098186"><ele>161.0</ele><time>2026-05-01T15:10:04Z</time></trkpt><trkpt lat="42.491711883132005" lon="14.141773280992313"><ele>161.0</ele><time>2026-05-01T15:10:05Z</time></trkpt><trkpt lat="42.491649802300685" lon="14.141911286925723"><ele>161.0</ele><time>2026-05-01T15:10:06Z</time></trkpt><trkpt lat="42.491596723649444" lon="14.142048989111844"><ele>161.0</ele><time>2026-05-01T15:10:07Z</time></trkpt><trkpt lat="42.49157310292073" lon="14.14217178168922"><ele>161.0</ele><time>2026-05-01T15:10:08Z</time></trkpt><trkpt lat="42.4915818337199" lon="14.142289597034567"><ele>161.0</ele><time>2026-05-01T15:10:09Z</time></trkpt><trkpt lat="42.49161989200825" lon="14.14240503172011"><ele>161.0</ele><time>2026-05-01T15:10:10Z</time></trkpt><trkpt lat="42.491678179052464" lon="14.142512914372519"><ele>160.20000000000002</ele><time>2026-05-01T15:10:11Z</time></trkpt><trkpt lat="42.491741815724524" lon="14.142623284290426"><ele>159.4</ele><time>2026-05-01T15:10:12Z</time></trkpt><trkpt lat="42.49178707206536" lon="14.142735840264267"><ele>158.6</ele><time>2026-05-01T15:10:13Z</time></trkpt><trkpt lat="42.49180282989273" lon="14.142848625211965"><ele>157.8</ele><time>2026-05-01T15:10:14Z</time></trkpt><trkpt lat="42.49178471409431" lon="14.14296367637462"><ele>157.0</ele><time>2026-05-01T15:10:15Z</time></trkpt><trkpt lat="42.491732719919995" lon="14.143062482416923"><ele>157.0</ele><time>2026-05-01T15:10:16Z</time></trkpt><trkpt lat="42.491658927250946" lon="14.143138213101887"><ele>157.0</ele><time>2026-05-01T15:10:17Z</time></trkpt><trkpt lat="42.49159784635646" lon="14.143221059728143"><ele>157.0</ele><time>2026-05-01T15:10:18Z</time></trkpt><trkpt lat="42.49153872689847" lon="14.14331500650191"><ele>157.0</ele><time>2026-05-01T15:10:19Z</time></trkpt><trkpt lat="42.491538634608624" lon="14.14345579759965"><ele>157.0</ele><time>2026-05-01T15:10:20Z</time></trkpt><trkpt lat="42.49154434883484" lon="14.14359041501508"><ele>157.0</ele><time>2026-05-01T15:10:21Z</time></trkpt><trkpt lat="42.49159538247526" lon="14.143739058288004"><ele>157.0</ele><time>2026-05-01T15:10:22Z</time></trkpt><trkpt lat="42.491673035072644" lon="14.143865827034688"><ele>157.0</ele><time>2026-05-01T15:10:23Z</time></trkpt><trkpt lat="42.49174105049325" lon="14.14399922364698"><ele>157.0</ele><time>2026-05-01T15:10:24Z</time></trkpt><trkpt lat="42.49182780287542" lon="14.144115476702412"><ele>157.0</ele><time>2026-05-01T15:10:25Z</time></trkpt><trkpt lat="42.49194145819947" lon="14.144200160015442"><ele>157.0</ele><time>2026-05-01T15:10:26Z</time></trkpt><trkpt lat="42.49207201227285" lon="14.144252301755065"><ele>157.0</ele><time>2026-05-01T15:10:27Z</time></trkpt><trkpt lat="42.49220432555655" lon="14.14429161247624"><ele>157.0</ele><time>2026-05-01T15:10:28Z</time></trkpt><trkpt lat="42.49232691596619" lon="14.144348881435109"><ele>150.75</ele><time>2026-05-01T15:10:29Z</time></trkpt><trkpt lat="42.492436055660455" lon="14.144426710329796"><ele>144.5</ele><time>2026-05-01T15:10:30Z</time></trkpt><trkpt lat="42.49255629914682" lon="14.144492305461968"><ele>138.25</ele><time>2026-05-01T15:10:31Z</time></trkpt><trkpt lat="42.492682219807286" lon="14.144540501055756"><ele>132.0</ele><time>2026-05-01T15:10:32Z</time></trkpt><trkpt lat="42.492788603103435" lon="14.144605927851785"><ele>132.0</ele><time>2026-05-01T15:10:33Z</time></trkpt><trkpt lat="42.49288727891597" lon="14.14466426255378"><ele>132.0</ele><time>2026-05-01T15:10:34Z</time></trkpt><trkpt lat="42.49296710904555" lon="14.144753745656624"><ele>132.0</ele><time>2026-05-01T15:10:35Z</time></trkpt><trkpt lat="42.49303272838452" lon="14.144868387879898"><ele>132.0</ele><time>2026-05-01T15:10:36Z</time></trkpt><trkpt lat="42.49310359950137" lon="14.145000109845089"><ele>132.0</ele><time>2026-05-01T15:10:37Z</time></trkpt><trkpt lat="42.49318674941237" lon="14.145122065451195"><ele>133.0</ele><time>2026-05-01T15:10:38Z</time></trkpt><trkpt lat="42.493283315298385" lon="14.145213377712215"><ele>134.0</ele><time>2026-05-01T15:10:39Z</time></trkpt><trkpt lat="42.49337874651985" lon="14.145276623013908"><ele>135.0</ele><time>2026-05-01T15:10:40Z</time></trkpt><trkpt lat="42.493469202032735" lon="14.14531183208462"><ele>136.0</ele><time>2026-05-01T15:10:41Z</time></trkpt><trkpt lat="42.493560977670946" lon="14.145313275340666"><ele>137.0</ele><time>2026-05-01T15:10:42Z</time></trkpt><trkpt lat="42.493657754849224" lon="14.145272351610654"><ele>137.0</ele><time>2026-05-01T15:10:43Z</time></trkpt><trkpt lat="42.493749266987706" lon="14.145203373044744"><ele>137.0</ele><time>2026-05-01T15:10:44Z</time></trkpt><trkpt lat="42.493821550042526" lon="14.145112270584322"><ele>137.0</ele><time>2026-05-01T15:10:45Z</time></trkpt><trkpt lat="42.49387593435721" lon="14.144993022630858"><ele>137.0</ele><time>2026-05-01T15:10:46Z</time></trkpt><trkpt lat="42.49391317034452" lon="14.144843285665301"><ele>137.0</ele><time>2026-05-01T15:10:47Z</time></trkpt><trkpt lat="42.49394886908241" lon="14.144677432390772"><ele>132.25</ele><time>2026-05-01T15:10:48Z</time></trkpt><trkpt lat="42.49399312238241" lon="14.1445178933425"><ele>127.5</ele><time>2026-05-01T15:10:49Z</time></trkpt><trkpt lat="42.49403291886507" lon="14.144372473307424"><ele>122.75</ele><time>2026-05-01T15:10:50Z</time></trkpt><trkpt lat="42.49407272125235" lon="14.144236099351442"><ele>118.0</ele><time>2026-05-01T15:10:51Z</time></trkpt><trkpt lat="42.49412686907225" lon="14.144116112289847"><ele>112.75</ele><time>2026-05-01T15:10:52Z</time></trkpt><trkpt lat="42.49420630395557" lon="14.144024832882032"><ele>107.5</ele><time>2026-05-01T15:10:53Z</time></trkpt><trkpt lat="42.49430582493243" lon="14.143955595020568"><ele>102.25</ele><time>2026-05-01T15:10:54Z</time></trkpt><trkpt lat="42.49441279735721" lon="14.143891165058701"><ele>97.0</ele><time>2026-05-01T15:10:55Z</time></trkpt><trkpt lat="42.494527492483904" lon="14.143845296515988"><ele>98.75</ele><time>2026-05-01T15:10:56Z</time></trkpt><trkpt lat="42.49465162951826" lon="14.143835541111924"><ele>100.5</ele><time>2026-05-01T15:10:57Z</time></trkpt><trkpt lat="42.49478266332569" lon="14.143850449523157"><ele>102.25</ele><time>2026-05-01T15:10:58Z</time></trkpt><trkpt lat="42.494912180168406" lon="14.143864904371622"><ele>104.0</ele><time>2026-05-01T15:10:59Z</time></trkpt><trkpt lat="42.49504195489681" lon="14.143852375137515"><ele>104.0</ele><time>2026-05-01T15:11:00Z</time></trkpt><trkpt lat="42.49518094489834" lon="14.143811343145519"><ele>104.0</ele><time>2026-05-01T15:11:01Z</time></trkpt><trkpt lat="42.49531610330517" lon="14.14376194366976"><ele>104.0</ele><time>2026-05-01T15:11:02Z</time></trkpt><trkpt lat="42.49544295860025" lon="14.14371438158297"><ele>104.0</ele><time>2026-05-01T15:11:03Z</time></trkpt><trkpt lat="42.49555901116162" lon="14.14366739740409"><ele>105.75</ele><time>2026-05-01T15:11:04Z</time></trkpt><trkpt lat="42.49567152016072" lon="14.143599345911202"><ele>107.5</ele><time>2026-05-01T15:11:05Z</time></trkpt><trkpt lat="42.49578497603147" lon="14.143500241831354"><ele>109.25</ele><time>2026-05-01T15:11:06Z</time></trkpt><trkpt lat="42.49590705596501" lon="14.143383211673681"><ele>111.0</ele><time>2026-05-01T15:11:07Z</time></trkpt><trkpt lat="42.49603632160666" lon="14.14325756430104"><ele>108.0</ele><time>2026-05-01T15:11:08Z</time></trkpt><trkpt lat="42.49616371825399" lon="14.143143199702036"><ele>105.0</ele><time>2026-05-01T15:11:09Z</time></trkpt><trkpt lat="42.49629394416337" lon="14.14303342866761"><ele>102.0</ele><time>2026-05-01T15:11:10Z</time></trkpt><trkpt lat="42.49642838015578" lon="14.142924608846624"><ele>101.5</ele><time>2026-05-01T15:11:11Z</time></trkpt><trkpt lat="42.49655773634146" lon="14.14282171426196"><ele>101.0</ele><time>2026-05-01T15:11:12Z</time></trkpt><trkpt lat="42.49668272116503" lon="14.142720788483178"><ele>100.5</ele><time>2026-05-01T15:11:13Z</time></trkpt><trkpt lat="42.4968026432946" lon="14.142617843458769"><ele>100.0</ele><time>2026-05-01T15:11:14Z</time></trkpt><trkpt lat="42.49691619357108" lon="14.142508676432438"><ele>100.0</ele><time>2026-05-01T15:11:15Z</time></trkpt><trkpt lat="42.497025083841166" lon="14.142397657334156"><ele>100.0</ele><time>2026-05-01T15:11:16Z</time></trkpt><trkpt lat="42.497128326897375" lon="14.142279457464362"><ele>100.0</ele><time>2026-05-01T15:11:17Z</time></trkpt><trkpt lat="42.497217630644165" lon="14.142166244127175"><ele>100.0</ele><time>2026-05-01T15:11:18Z</time></trkpt><trkpt lat="42.49729389431044" lon="14.142070682804974"><ele>97.50000000000001</ele><time>2026-05-01T15:11:19Z</time></trkpt><trkpt lat="42.497366056774496" lon="14.141993800702458"><ele>95.0</ele><time>2026-05-01T15:11:20Z</time></trkpt><trkpt lat="42.49742490454104" lon="14.141944971541287"><ele>92.5</ele><time>2026-05-01T15:11:21Z</time></trkpt><trkpt lat="42.49753560155972" lon="14.141950907483196"><ele>90.0</ele><time>2026-05-01T15:11:23Z</time></trkpt><trkpt lat="42.49758809291112" lon="14.14202625119655"><ele>87.5</ele><time>2026-05-01T15:11:24Z</time></trkpt><trkpt lat="42.49761134941671" lon="14.142134052543785"><ele>85.0</ele><time>2026-05-01T15:11:25Z</time></trkpt><trkpt lat="42.49759523478799" lon="14.142248426399052"><ele>85.0</ele><time>2026-05-01T15:11:26Z</time></trkpt><trkpt lat="42.49754006658603" lon="14.14235345242956"><ele>85.0</ele><time>2026-05-01T15:11:27Z</time></trkpt><trkpt lat="42.49747283796236" lon="14.142458349810212"><ele>85.0</ele><time>2026-05-01T15:11:28Z</time></trkpt><trkpt lat="42.49740292401828" lon="14.142579798077609"><ele>85.0</ele><time>2026-05-01T15:11:29Z</time></trkpt><trkpt lat="42.497328182751914" lon="14.142715167474206"><ele>85.0</ele><time>2026-05-01T15:11:30Z</time></trkpt><trkpt lat="42.49724978645124" lon="14.142860393594589"><ele>85.25</ele><time>2026-05-01T15:11:31Z</time></trkpt><trkpt lat="42.497165392544936" lon="14.143007997990235"><ele>85.5</ele><time>2026-05-01T15:11:32Z</time></trkpt><trkpt lat="42.49707643935612" lon="14.143160158526166"><ele>85.75</ele><time>2026-05-01T15:11:33Z</time></trkpt><trkpt lat="42.49698765706215" lon="14.143317435697865"><ele>86.0</ele><time>2026-05-01T15:11:34Z</time></trkpt><trkpt lat="42.49689911158753" lon="14.14347210133725"><ele>88.5</ele><time>2026-05-01T15:11:35Z</time></trkpt><trkpt lat="42.49680807161678" lon="14.143622486985699"><ele>91.0</ele><time>2026-05-01T15:11:36Z</time></trkpt><trkpt lat="42.49671643729339" lon="14.143766344255665"><ele>93.5</ele><time>2026-05-01T15:11:37Z</time></trkpt><trkpt lat="42.49662441512194" lon="14.143894635971572"><ele>96.0</ele><time>2026-05-01T15:11:38Z</time></trkpt><trkpt lat="42.49653787976701" lon="14.144009470678608"><ele>93.19999999999999</ele><time>2026-05-01T15:11:39Z</time></trkpt><trkpt lat="42.49646875061667" lon="14.144124809955446"><ele>90.39999999999999</ele><time>2026-05-01T15:11:40Z</time></trkpt><trkpt lat="42.49642292124187" lon="14.14425506939307"><ele>87.6</ele><time>2026-05-01T15:11:41Z</time></trkpt><trkpt lat="42.49640254650248" lon="14.144402836482767"><ele>84.8</ele><time>2026-05-01T15:11:42Z</time></trkpt><trkpt lat="42.49640030718703" lon="14.1445628909939"><ele>82.0</ele><time>2026-05-01T15:11:43Z</time></trkpt><trkpt lat="42.496395028865315" lon="14.144723209026882"><ele>82.0</ele><time>2026-05-01T15:11:44Z</time></trkpt><trkpt lat="42.49641847320881" lon="14.144870960535815"><ele>82.0</ele><time>2026-05-01T15:11:45Z</time></trkpt><trkpt lat="42.49640109071478" lon="14.14501682372473"><ele>82.0</ele><time>2026-05-01T15:11:46Z</time></trkpt><trkpt lat="42.496357661946" lon="14.145142685263776"><ele>82.0</ele><time>2026-05-01T15:11:47Z</time></trkpt><trkpt lat="42.496299959922666" lon="14.145267582730426"><ele>82.0</ele><time>2026-05-01T15:11:48Z</time></trkpt><trkpt lat="42.496220996826764" lon="14.145373714091392"><ele>82.0</ele><time>2026-05-01T15:11:49Z</time></trkpt><trkpt lat="42.496167134983615" lon="14.145492938867083"><ele>82.0</ele><time>2026-05-01T15:11:50Z</time></trkpt><trkpt lat="42.49613931390876" lon="14.145619360884323"><ele>82.0</ele><time>2026-05-01T15:11:51Z</time></trkpt><trkpt lat="42.49614658440164" lon="14.145749975413386"><ele>82.0</ele><time>2026-05-01T15:11:52Z</time></trkpt><trkpt lat="42.496196449890256" lon="14.14586485983293"><ele>82.0</ele><time>2026-05-01T15:11:53Z</time></trkpt><trkpt lat="42.496255396620406" lon="14.145963022212847"><ele>80.0</ele><time>2026-05-01T15:11:54Z</time></trkpt><trkpt lat="42.49634383458756" lon="14.146030398663518"><ele>78.0</ele><time>2026-05-01T15:11:55Z</time></trkpt><trkpt lat="42.496449583960676" lon="14.146049555211205"><ele>76.0</ele><time>2026-05-01T15:11:56Z</time></trkpt><trkpt lat="42.49654814550458" lon="14.146033976787143"><ele>74.0</ele><time>2026-05-01T15:11:57Z</time></trkpt><trkpt lat="42.4966227709132" lon="14.145940615972956"><ele>72.0</ele><time>2026-05-01T15:11:58Z</time></trkpt><trkpt lat="42.496677233625036" lon="14.145843293561159"><ele>71.5</ele><time>2026-05-01T15:11:59Z</time></trkpt><trkpt lat="42.49670932813034" lon="14.145695686605572"><ele>71.0</ele><time>2026-05-01T15:12:00Z</time></trkpt><trkpt lat="42.496721588608196" lon="14.145542188174735"><ele>70.5</ele><time>2026-05-01T15:12:01Z</time></trkpt><trkpt lat="42.49672280810442" lon="14.14537734185372"><ele>70.0</ele><time>2026-05-01T15:12:02Z</time></trkpt><trkpt lat="42.49674221846431" lon="14.14522574885847"><ele>70.0</ele><time>2026-05-01T15:12:03Z</time></trkpt><trkpt lat="42.49679146855297" lon="14.145080046187196"><ele>70.0</ele><time>2026-05-01T15:12:04Z</time></trkpt><trkpt lat="42.49685997298179" lon="14.144934426960742"><ele>70.0</ele><time>2026-05-01T15:12:05Z</time></trkpt><trkpt lat="42.496938304879315" lon="14.14479868370292"><ele>70.0</ele><time>2026-05-01T15:12:06Z</time></trkpt><trkpt lat="42.49702617620129" lon="14.144686674879571"><ele>67.5</ele><time>2026-05-01T15:12:07Z</time></trkpt><trkpt lat="42.49712624882572" lon="14.144595507325175"><ele>65.0</ele><time>2026-05-01T15:12:08Z</time></trkpt><trkpt lat="42.49724008115033" lon="14.144521304777566"><ele>62.5</ele><time>2026-05-01T15:12:09Z</time></trkpt><trkpt lat="42.49736455176726" lon="14.144447465396556"><ele>60.0</ele><time>2026-05-01T15:12:10Z</time></trkpt><trkpt lat="42.497480731851844" lon="14.144365650241534"><ele>60.0</ele><time>2026-05-01T15:12:11Z</time></trkpt><trkpt lat="42.497583048085836" lon="14.14426801552569"><ele>60.0</ele><time>2026-05-01T15:12:12Z</time></trkpt><trkpt lat="42.497685245139486" lon="14.144141048968194"><ele>60.0</ele><time>2026-05-01T15:12:13Z</time></trkpt><trkpt lat="42.49778656892613" lon="14.144000898881814"><ele>60.0</ele><time>2026-05-01T15:12:14Z</time></trkpt><trkpt lat="42.49788828874459" lon="14.14385625721421"><ele>57.75</ele><time>2026-05-01T15:12:15Z</time></trkpt><trkpt lat="42.49798777163423" lon="14.14371006792173"><ele>55.5</ele><time>2026-05-01T15:12:16Z</time></trkpt><trkpt lat="42.498080537345125" lon="14.143569417367504"><ele>53.25</ele><time>2026-05-01T15:12:17Z</time></trkpt><trkpt lat="42.49816977391294" lon="14.143429432514509"><ele>51.0</ele><time>2026-05-01T15:12:18Z</time></trkpt><trkpt lat="42.49825441024354" lon="14.143293288764884"><ele>53.599999999999994</ele><time>2026-05-01T15:12:19Z</time></trkpt><trkpt lat="42.49833413282652" lon="14.143158049379108"><ele>56.2</ele><time>2026-05-01T15:12:20Z</time></trkpt><trkpt lat="42.49840729709094" lon="14.143027932916437"><ele>58.800000000000004</ele><time>2026-05-01T15:12:21Z</time></trkpt><trkpt lat="42.498476118835896" lon="14.142912423162333"><ele>61.400000000000006</ele><time>2026-05-01T15:12:22Z</time></trkpt><trkpt lat="42.49853514441069" lon="14.142819728447094"><ele>64.0</ele><time>2026-05-01T15:12:23Z</time></trkpt><trkpt lat="42.49858276045288" lon="14.142756431459922"><ele>64.0</ele><time>2026-05-01T15:12:24Z</time></trkpt><trkpt lat="42.4986545954479" lon="14.142705546874861"><ele>64.0</ele><time>2026-05-01T15:12:26Z</time></trkpt><trkpt lat="42.498734048568735" lon="14.142656219253187"><ele>64.0</ele><time>2026-05-01T15:12:44.999Z</time></trkpt><trkpt lat="42.49873652633638" lon="14.142497625852567"><ele>64.0</ele><time>2026-05-01T15:12:45.999Z</time></trkpt><trkpt lat="42.4987545578885" lon="14.142372348954341"><ele>64.0</ele><time>2026-05-01T15:12:46.999Z</time></trkpt><trkpt lat="42.49878684618341" lon="14.142255732523356"><ele>59.800000000000004</ele><time>2026-05-01T15:12:47.999Z</time></trkpt><trkpt lat="42.49883796914393" lon="14.142132062869226"><ele>55.60000000000001</ele><time>2026-05-01T15:12:48.999Z</time></trkpt><trkpt lat="42.49889263260147" lon="14.142011625152419"><ele>51.4</ele><time>2026-05-01T15:12:50Z</time></trkpt><trkpt lat="42.498943407734046" lon="14.14189878939236"><ele>47.2</ele><time>2026-05-01T15:12:51Z</time></trkpt><trkpt lat="42.49899639312962" lon="14.14178722620155"><ele>43.0</ele><time>2026-05-01T15:12:52Z</time></trkpt><trkpt lat="42.499059239721554" lon="14.141670634014597"><ele>45.25</ele><time>2026-05-01T15:12:53Z</time></trkpt><trkpt lat="42.4991337442923" lon="14.141548626771437"><ele>47.5</ele><time>2026-05-01T15:12:54Z</time></trkpt><trkpt lat="42.49921836398481" lon="14.141426802378223"><ele>49.75</ele><time>2026-05-01T15:12:55Z</time></trkpt><trkpt lat="42.4993086102941" lon="14.141308646223072"><ele>52.0</ele><time>2026-05-01T15:12:56Z</time></trkpt><trkpt lat="42.499400465309314" lon="14.141193664652778"><ele>52.0</ele><time>2026-05-01T15:12:57Z</time></trkpt><trkpt lat="42.49949643923146" lon="14.141089761720288"><ele>52.0</ele><time>2026-05-01T15:12:58Z</time></trkpt><trkpt lat="42.49959453430953" lon="14.14099709284808"><ele>52.0</ele><time>2026-05-01T15:12:59Z</time></trkpt><trkpt lat="42.49969233362033" lon="14.140906316177583"><ele>52.0</ele><time>2026-05-01T15:13:00Z</time></trkpt><trkpt lat="42.49978448952849" lon="14.14081055951159"><ele>48.75</ele><time>2026-05-01T15:13:01Z</time></trkpt><trkpt lat="42.499874378501175" lon="14.140706223547156"><ele>45.5</ele><time>2026-05-01T15:13:02Z</time></trkpt><trkpt lat="42.49995559214417" lon="14.140592583142965"><ele>42.25</ele><time>2026-05-01T15:13:03Z</time></trkpt><trkpt lat="42.500032743299826" lon="14.140474155915175"><ele>39.0</ele><time>2026-05-01T15:13:04Z</time></trkpt><trkpt lat="42.50010933992308" lon="14.140354257367239"><ele>39.0</ele><time>2026-05-01T15:13:05Z</time></trkpt><trkpt lat="42.50018383349821" lon="14.140235064189149"><ele>39.0</ele><time>2026-05-01T15:13:06Z</time></trkpt><trkpt lat="42.500257890599926" lon="14.140123333225782"><ele>39.0</ele><time>2026-05-01T15:13:07Z</time></trkpt><trkpt lat="42.500326902224394" lon="14.140017062171028"><ele>39.0</ele><time>2026-05-01T15:13:08Z</time></trkpt><trkpt lat="42.500390387424844" lon="14.139914337299729"><ele>39.0</ele><time>2026-05-01T15:13:09Z</time></trkpt><trkpt lat="42.50045180277416" lon="14.13981546483091"><ele>36.833333333333336</ele><time>2026-05-01T15:13:10Z</time></trkpt><trkpt lat="42.50051231456298" lon="14.139722549176476"><ele>34.666666666666664</ele><time>2026-05-01T15:13:11Z</time></trkpt><trkpt lat="42.50057118857587" lon="14.139629929174129"><ele>32.5</ele><time>2026-05-01T15:13:12Z</time></trkpt><trkpt lat="42.50062706865151" lon="14.139534726388336"><ele>30.333333333333332</ele><time>2026-05-01T15:13:13Z</time></trkpt><trkpt lat="42.50067821217639" lon="14.13943718144082"><ele>28.166666666666664</ele><time>2026-05-01T15:13:14Z</time></trkpt><trkpt lat="42.500727548038974" lon="14.139346200763057"><ele>26.0</ele><time>2026-05-01T15:13:15Z</time></trkpt><trkpt lat="42.50077322765909" lon="14.1392600264053"><ele>25.999999999999996</ele><time>2026-05-01T15:13:16Z</time></trkpt><trkpt lat="42.50081785660069" lon="14.13917366040772"><ele>26.0</ele><time>2026-05-01T15:13:17Z</time></trkpt><trkpt lat="42.500859843267605" lon="14.139088934396963"><ele>26.0</ele><time>2026-05-01T15:13:18Z</time></trkpt><trkpt lat="42.50089877199183" lon="14.139009932825521"><ele>26.0</ele><time>2026-05-01T15:13:19Z</time></trkpt><trkpt lat="42.50096041017057" lon="14.138879843442101"><ele>25.999999999999996</ele><time>2026-05-01T15:13:21Z</time></trkpt><trkpt lat="42.501012427074045" lon="14.138760818313997"><ele>26.0</ele><time>2026-05-01T15:13:23Z</time></trkpt><trkpt lat="42.5010560381931" lon="14.138650203041651"><ele>25.166666666666664</ele><time>2026-05-01T15:13:25Z</time></trkpt><trkpt lat="42.501107229879274" lon="14.138546920786837"><ele>24.333333333333332</ele><time>2026-05-01T15:13:27Z</time></trkpt><trkpt lat="42.501175673501" lon="14.138428343745192"><ele>23.5</ele><time>2026-05-01T15:13:29Z</time></trkpt><trkpt lat="42.50120551267946" lon="14.13834648242495"><ele>22.666666666666664</ele><time>2026-05-01T15:13:30Z</time></trkpt><trkpt lat="42.50122697518542" lon="14.138258050077301"><ele>21.833333333333332</ele><time>2026-05-01T15:13:31Z</time></trkpt><trkpt lat="42.50124658345339" lon="14.138153635693387"><ele>21.0</ele><time>2026-05-01T15:13:32Z</time></trkpt><trkpt lat="42.50126757333958" lon="14.138035304698217"><ele>20.0</ele><time>2026-05-01T15:13:33Z</time></trkpt><trkpt lat="42.501293017084826" lon="14.137907891672917"><ele>19.0</ele><time>2026-05-01T15:13:34Z</time></trkpt><trkpt lat="42.501320255745746" lon="14.137790982821194"><ele>18.0</ele><time>2026-05-01T15:13:35Z</time></trkpt><trkpt lat="42.501350115823335" lon="14.137673718130547"><ele>17.0</ele><time>2026-05-01T15:13:36Z</time></trkpt><trkpt lat="42.501382235814596" lon="14.137554150985443"><ele>16.0</ele><time>2026-05-01T15:13:37Z</time></trkpt><trkpt lat="42.50141128310066" lon="14.137439425785388"><ele>15.666666666666666</ele><time>2026-05-01T15:13:38Z</time></trkpt><trkpt lat="42.50143806263727" lon="14.137330903801379"><ele>15.333333333333332</ele><time>2026-05-01T15:13:39Z</time></trkpt><trkpt lat="42.50146581719733" lon="14.137223767945764"><ele>15.0</ele><time>2026-05-01T15:13:40Z</time></trkpt><trkpt lat="42.501495957469366" lon="14.13711550371661"><ele>14.666666666666668</ele><time>2026-05-01T15:13:41Z</time></trkpt><trkpt lat="42.50152623659131" lon="14.137002048152121"><ele>14.333333333333334</ele><time>2026-05-01T15:13:42Z</time></trkpt><trkpt lat="42.50155407742805" lon="14.136887346023746"><ele>14.0</ele><time>2026-05-01T15:13:43Z</time></trkpt><trkpt lat="42.501583453411854" lon="14.136776612856808"><ele>14.000000000000002</ele><time>2026-05-01T15:13:44Z</time></trkpt><trkpt lat="42.50161276091912" lon="14.136665746461123"><ele>14.0</ele><time>2026-05-01T15:13:45Z</time></trkpt><trkpt lat="42.501640483704804" lon="14.136555753765192"><ele>14.0</ele><time>2026-05-01T15:13:46Z</time></trkpt><trkpt lat="42.501667055135826" lon="14.136446215979994"><ele>14.0</ele><time>2026-05-01T15:13:47Z</time></trkpt><trkpt lat="42.50169290986477" lon="14.136341083311418"><ele>14.000000000000002</ele><time>2026-05-01T15:13:48Z</time></trkpt><trkpt lat="42.50171986488232" lon="14.13623703583738"><ele>14.0</ele><time>2026-05-01T15:13:49Z</time></trkpt><trkpt lat="42.50174537750728" lon="14.136137937854432"><ele>14.000000000000002</ele><time>2026-05-01T15:13:50Z</time></trkpt><trkpt lat="42.50176922935353" lon="14.13604340364368"><ele>14.0</ele><time>2026-05-01T15:13:51Z</time></trkpt><trkpt lat="42.501793998931475" lon="14.135953288277177"><ele>14.0</ele><time>2026-05-01T15:13:52Z</time></trkpt><trkpt lat="42.5018156541448" lon="14.135867285557078"><ele>14.0</ele><time>2026-05-01T15:13:53Z</time></trkpt><trkpt lat="42.50185140199651" lon="14.135725302605506"><ele>14.000000000000002</ele><time>2026-05-01T15:13:55Z</time></trkpt><trkpt lat="42.50188490125094" lon="14.135612808070011"><ele>14.0</ele><time>2026-05-01T15:13:57Z</time></trkpt><trkpt lat="42.50191501056078" lon="14.135499268211305"><ele>14.2</ele><time>2026-05-01T15:13:59Z</time></trkpt><trkpt lat="42.501951348985166" lon="14.135362433338955"><ele>14.399999999999999</ele><time>2026-05-01T15:14:01Z</time></trkpt><trkpt lat="42.50199179625474" lon="14.135220628160724"><ele>14.6</ele><time>2026-05-01T15:14:03Z</time></trkpt><trkpt lat="42.502035454591855" lon="14.135082193447847"><ele>14.8</ele><time>2026-05-01T15:14:05Z</time></trkpt><trkpt lat="42.502057068031334" lon="14.135001724670023"><ele>15.0</ele><time>2026-05-01T15:14:06Z</time></trkpt><trkpt lat="42.50206567911573" lon="14.13491459913085"><ele>14.833333333333334</ele><time>2026-05-01T15:14:07Z</time></trkpt><trkpt lat="42.50212903668965" lon="14.134808291265541"><ele>14.666666666666668</ele><time>2026-05-01T15:14:09Z</time></trkpt><trkpt lat="42.502213907359014" lon="14.134736188756161"><ele>14.5</ele><time>2026-05-01T15:14:11Z</time></trkpt><trkpt lat="42.50227705140114" lon="14.134712730622631"><ele>14.333333333333334</ele><time>2026-05-01T15:14:12Z</time></trkpt><trkpt lat="42.502351373530956" lon="14.134701269062393"><ele>14.166666666666668</ele><time>2026-05-01T15:14:13Z</time></trkpt><trkpt lat="42.50242296122619" lon="14.134709224613617"><ele>14.0</ele><time>2026-05-01T15:14:14Z</time></trkpt><trkpt lat="42.50251875545377" lon="14.134763000117635"><ele>14.000000000000002</ele><time>2026-05-01T15:14:16Z</time></trkpt><trkpt lat="42.50256990155786" lon="14.134813728098095"><ele>14.0</ele><time>2026-05-01T15:14:17Z</time></trkpt><trkpt lat="42.502633807605356" lon="14.134886262284517"><ele>14.0</ele><time>2026-05-01T15:14:18Z</time></trkpt><trkpt lat="42.50270006993388" lon="14.134961525928833"><ele>14.0</ele><time>2026-05-01T15:14:19Z</time></trkpt><trkpt lat="42.50276259013779" lon="14.135030470903633"><ele>14.000000000000002</ele><time>2026-05-01T15:14:20Z</time></trkpt><trkpt lat="42.50284819091659" lon="14.135120935178726"><ele>14.0</ele><time>2026-05-01T15:14:22Z</time></trkpt><trkpt lat="42.502937671012305" lon="14.135211928264106"><ele>13.6</ele><time>2026-05-01T15:14:24Z</time></trkpt><trkpt lat="42.5030294158741" lon="14.135305092210364"><ele>13.2</ele><time>2026-05-01T15:14:26Z</time></trkpt><trkpt lat="42.50308776428037" lon="14.135362679444"><ele>12.799999999999999</ele><time>2026-05-01T15:14:27Z</time></trkpt><trkpt lat="42.50317490224773" lon="14.135459656142872"><ele>12.399999999999999</ele><time>2026-05-01T15:14:28Z</time></trkpt><trkpt lat="42.503261031420514" lon="14.135566888678033"><ele>12.0</ele><time>2026-05-01T15:14:29Z</time></trkpt><trkpt lat="42.5033536785349" lon="14.135673388104047"><ele>12.5</ele><time>2026-05-01T15:14:30Z</time></trkpt><trkpt lat="42.50345442237418" lon="14.135782813014925"><ele>13.0</ele><time>2026-05-01T15:14:31Z</time></trkpt><trkpt lat="42.503548950470474" lon="14.135887211739819"><ele>13.5</ele><time>2026-05-01T15:14:32Z</time></trkpt><trkpt lat="42.50363261048452" lon="14.13598287292253"><ele>14.0</ele><time>2026-05-01T15:14:33Z</time></trkpt><trkpt lat="42.50371455352382" lon="14.136076126537066"><ele>13.2</ele><time>2026-05-01T15:14:34Z</time></trkpt><trkpt lat="42.50379971593295" lon="14.1361681483068"><ele>12.399999999999999</ele><time>2026-05-01T15:14:35Z</time></trkpt><trkpt lat="42.503881921654894" lon="14.136254717054655"><ele>11.6</ele><time>2026-05-01T15:14:36Z</time></trkpt><trkpt lat="42.50396156976379" lon="14.136339211845609"><ele>10.8</ele><time>2026-05-01T15:14:37Z</time></trkpt><trkpt lat="42.504038519620075" lon="14.136422823528303"><ele>10.0</ele><time>2026-05-01T15:14:38Z</time></trkpt><trkpt lat="42.50410852923343" lon="14.136499468339903"><ele>10.0</ele><time>2026-05-01T15:14:39Z</time></trkpt><trkpt lat="42.50416516405755" lon="14.136570977379344"><ele>10.0</ele><time>2026-05-01T15:14:40Z</time></trkpt><trkpt lat="42.50422035377599" lon="14.13667417382714"><ele>10.0</ele><time>2026-05-01T15:14:42Z</time></trkpt><trkpt lat="42.504165663644976" lon="14.136561949624056"><ele>10.0</ele><time>2026-05-01T15:14:56Z</time></trkpt><trkpt lat="42.50407591610189" lon="14.136408830702166"><ele>10.0</ele><time>2026-05-01T15:14:57Z</time></trkpt><trkpt lat="42.50397697351821" lon="14.136293792640103"><ele>10.0</ele><time>2026-05-01T15:14:58Z</time></trkpt><trkpt lat="42.50388961310719" lon="14.136200335973012"><ele>10.0</ele><time>2026-05-01T15:14:59Z</time></trkpt><trkpt lat="42.50379716805539" lon="14.136101024438798"><ele>10.0</ele><time>2026-05-01T15:15:00Z</time></trkpt><trkpt lat="42.50370572963846" lon="14.135999229963728"><ele>10.0</ele><time>2026-05-01T15:15:01Z</time></trkpt><trkpt lat="42.50361744634893" lon="14.135897772049875"><ele>10.4</ele><time>2026-05-01T15:15:02Z</time></trkpt><trkpt lat="42.50352770489974" lon="14.135790558497428"><ele>10.8</ele><time>2026-05-01T15:15:03Z</time></trkpt><trkpt lat="42.50343960242785" lon="14.135688270391228"><ele>11.2</ele><time>2026-05-01T15:15:04Z</time></trkpt><trkpt lat="42.50336335551028" lon="14.135605184895228"><ele>11.6</ele><time>2026-05-01T15:15:05Z</time></trkpt><trkpt lat="42.503302264634954" lon="14.135538977447395"><ele>12.0</ele><time>2026-05-01T15:15:06Z</time></trkpt><trkpt lat="42.503253176655704" lon="14.135480109774216"><ele>12.0</ele><time>2026-05-01T15:15:07Z</time></trkpt><trkpt lat="42.503205788884955" lon="14.135422317150729"><ele>12.0</ele><time>2026-05-01T15:15:10Z</time></trkpt><trkpt lat="42.50313829551468" lon="14.135329871958223"><ele>12.0</ele><time>2026-05-01T15:15:14Z</time></trkpt><trkpt lat="42.50313704956662" lon="14.135241253145194"><ele>12.0</ele><time>2026-05-01T15:15:15Z</time></trkpt><trkpt lat="42.50317650836148" lon="14.135000949075604"><ele>12.0</ele><time>2026-05-01T15:15:17Z</time></trkpt><trkpt lat="42.50321533585465" lon="14.134849846637609"><ele>12.2</ele><time>2026-05-01T15:15:18Z</time></trkpt><trkpt lat="42.50326357156625" lon="14.134722383148851"><ele>12.399999999999999</ele><time>2026-05-01T15:15:19Z</time></trkpt><trkpt lat="42.50331149034304" lon="14.134595779907121"><ele>12.600000000000001</ele><time>2026-05-01T15:15:20Z</time></trkpt><trkpt lat="42.50334369583741" lon="14.134471180012104"><ele>12.8</ele><time>2026-05-01T15:15:21Z</time></trkpt><trkpt lat="42.50336745835362" lon="14.13436181012717"><ele>13.0</ele><time>2026-05-01T15:15:22Z</time></trkpt><trkpt lat="42.503389060038984" lon="14.13426220569459"><ele>12.999999999999998</ele><time>2026-05-01T15:15:23Z</time></trkpt><trkpt lat="42.50341206840733" lon="14.134173256818586"><ele>13.0</ele><time>2026-05-01T15:15:24Z</time></trkpt><trkpt lat="42.503434308150005" lon="14.13407677549419"><ele>13.0</ele><time>2026-05-01T15:15:25Z</time></trkpt><trkpt lat="42.5034587933373" lon="14.133943112660143"><ele>13.0</ele><time>2026-05-01T15:15:27Z</time></trkpt><trkpt lat="42.503479822838784" lon="14.133843780211881"><ele>12.999999999999998</ele><time>2026-05-01T15:15:29Z</time></trkpt><trkpt lat="42.50353076571341" lon="14.133749918462692"><ele>13.0</ele><time>2026-05-01T15:15:31Z</time></trkpt><trkpt lat="42.50357854778439" lon="14.133686275273188"><ele>12.999999999999998</ele><time>2026-05-01T15:15:32Z</time></trkpt><trkpt lat="42.503637697084336" lon="14.133616131042563"><ele>13.0</ele><time>2026-05-01T15:15:33Z</time></trkpt><trkpt lat="42.50370960909988" lon="14.133547896892003"><ele>13.0</ele><time>2026-05-01T15:15:34Z</time></trkpt><trkpt lat="42.5037869141685" lon="14.133481145311238"><ele>13.0</ele><time>2026-05-01T15:15:35Z</time></trkpt><trkpt lat="42.503863953106205" lon="14.133409319582022"><ele>12.999999999999998</ele><time>2026-05-01T15:15:36Z</time></trkpt><trkpt lat="42.50394023953019" lon="14.133336828214578"><ele>13.0</ele><time>2026-05-01T15:15:37Z</time></trkpt><trkpt lat="42.504021066676145" lon="14.133264949753825"><ele>13.0</ele><time>2026-05-01T15:15:38Z</time></trkpt><trkpt lat="42.50411483489623" lon="14.133177606566672"><ele>13.0</ele><time>2026-05-01T15:15:39Z</time></trkpt><trkpt lat="42.5042088416378" lon="14.133086164192694"><ele>13.0</ele><time>2026-05-01T15:15:40Z</time></trkpt><trkpt lat="42.504308987197156" lon="14.13299623129687"><ele>13.0</ele><time>2026-05-01T15:15:41Z</time></trkpt><trkpt lat="42.504406713257964" lon="14.132905936154524"><ele>13.0</ele><time>2026-05-01T15:15:42Z</time></trkpt><trkpt lat="42.50450087760764" lon="14.13281991043771"><ele>13.0</ele><time>2026-05-01T15:15:43Z</time></trkpt><trkpt lat="42.50459073846189" lon="14.13273097057367"><ele>13.0</ele><time>2026-05-01T15:15:44Z</time></trkpt><trkpt lat="42.50467217035135" lon="14.132649174904703"><ele>13.0</ele><time>2026-05-01T15:15:45Z</time></trkpt><trkpt lat="42.504749418008394" lon="14.132576818995501"><ele>13.0</ele><time>2026-05-01T15:15:46Z</time></trkpt><trkpt lat="42.50482815449782" lon="14.132512852492681"><ele>12.333333333333332</ele><time>2026-05-01T15:15:47Z</time></trkpt><trkpt lat="42.50490725037855" lon="14.132443906569822"><ele>11.666666666666666</ele><time>2026-05-01T15:15:48Z</time></trkpt><trkpt lat="42.504983340138395" lon="14.132376119784235"><ele>11.0</ele><time>2026-05-01T15:15:49Z</time></trkpt><trkpt lat="42.505053258599354" lon="14.13231192730015"><ele>10.333333333333332</ele><time>2026-05-01T15:15:50Z</time></trkpt><trkpt lat="42.50511812847408" lon="14.1322587765711"><ele>9.666666666666666</ele><time>2026-05-01T15:15:51Z</time></trkpt><trkpt lat="42.505186019659305" lon="14.132193837836938"><ele>9.0</ele><time>2026-05-01T15:15:52Z</time></trkpt><trkpt lat="42.505254506672365" lon="14.132122406225392"><ele>9.0</ele><time>2026-05-01T15:15:53Z</time></trkpt><trkpt lat="42.50532346329605" lon="14.13205413604172"><ele>9.0</ele><time>2026-05-01T15:15:54Z</time></trkpt><trkpt lat="42.50540366106884" lon="14.131978372278276"><ele>9.0</ele><time>2026-05-01T15:15:55Z</time></trkpt><trkpt lat="42.50548468778082" lon="14.13190440610022"><ele>9.0</ele><time>2026-05-01T15:15:56Z</time></trkpt><trkpt lat="42.5055693018985" lon="14.131828287412775"><ele>9.0</ele><time>2026-05-01T15:15:57Z</time></trkpt><trkpt lat="42.50565129959594" lon="14.131752039606214"><ele>9.0</ele><time>2026-05-01T15:15:58Z</time></trkpt><trkpt lat="42.50573949086563" lon="14.13166617666067"><ele>9.0</ele><time>2026-05-01T15:15:59Z</time></trkpt><trkpt lat="42.50583174113331" lon="14.131582589635213"><ele>9.0</ele><time>2026-05-01T15:16:00Z</time></trkpt><trkpt lat="42.50592480771853" lon="14.131512249612888"><ele>9.0</ele><time>2026-05-01T15:16:01Z</time></trkpt><trkpt lat="42.50601638402762" lon="14.13143854580609"><ele>9.0</ele><time>2026-05-01T15:16:02Z</time></trkpt><trkpt lat="42.50609871437166" lon="14.131361665857737"><ele>9.0</ele><time>2026-05-01T15:16:03Z</time></trkpt><trkpt lat="42.50618025430243" lon="14.131283730506654"><ele>9.0</ele><time>2026-05-01T15:16:04Z</time></trkpt><trkpt lat="42.50626128917885" lon="14.131212440338777"><ele>9.0</ele><time>2026-05-01T15:16:05Z</time></trkpt><trkpt lat="42.50634133880032" lon="14.131149815961166"><ele>9.0</ele><time>2026-05-01T15:16:06Z</time></trkpt><trkpt lat="42.50642605131154" lon="14.13109042045283"><ele>9.0</ele><time>2026-05-01T15:16:07Z</time></trkpt><trkpt lat="42.50651173590895" lon="14.131046718720642"><ele>9.0</ele><time>2026-05-01T15:16:08Z</time></trkpt><trkpt lat="42.50659722864803" lon="14.131008930751674"><ele>9.0</ele><time>2026-05-01T15:16:09Z</time></trkpt><trkpt lat="42.50668530620043" lon="14.13096758381496"><ele>9.0</ele><time>2026-05-01T15:16:10Z</time></trkpt><trkpt lat="42.506769394242255" lon="14.13091879691508"><ele>9.0</ele><time>2026-05-01T15:16:11Z</time></trkpt><trkpt lat="42.506851265901105" lon="14.130866402211973"><ele>9.0</ele><time>2026-05-01T15:16:12Z</time></trkpt><trkpt lat="42.50693211511892" lon="14.130819594189898"><ele>9.0</ele><time>2026-05-01T15:16:13Z</time></trkpt><trkpt lat="42.5070231312385" lon="14.130787684098674"><ele>9.0</ele><time>2026-05-01T15:16:14Z</time></trkpt><trkpt lat="42.507122147235215" lon="14.130756442239422"><ele>9.0</ele><time>2026-05-01T15:16:15Z</time></trkpt><trkpt lat="42.507223938891286" lon="14.130723078109414"><ele>9.0</ele><time>2026-05-01T15:16:16Z</time></trkpt><trkpt lat="42.50733594439056" lon="14.130695465180079"><ele>9.0</ele><time>2026-05-01T15:16:17Z</time></trkpt><trkpt lat="42.50745028457927" lon="14.130660588562675"><ele>9.75</ele><time>2026-05-01T15:16:18Z</time></trkpt><trkpt lat="42.50757010474385" lon="14.130618711465944"><ele>10.5</ele><time>2026-05-01T15:16:19Z</time></trkpt><trkpt lat="42.50768807599535" lon="14.130563231567058"><ele>11.25</ele><time>2026-05-01T15:16:20Z</time></trkpt><trkpt lat="42.50779363505979" lon="14.13050367456928"><ele>12.0</ele><time>2026-05-01T15:16:21Z</time></trkpt><trkpt lat="42.50789085790391" lon="14.130440189703117"><ele>12.0</ele><time>2026-05-01T15:16:22Z</time></trkpt><trkpt lat="42.507982713712" lon="14.130375941731625"><ele>12.0</ele><time>2026-05-01T15:16:23Z</time></trkpt><trkpt lat="42.508073221576545" lon="14.13031169129727"><ele>12.0</ele><time>2026-05-01T15:16:24Z</time></trkpt><trkpt lat="42.508160756814455" lon="14.130242752936063"><ele>12.0</ele><time>2026-05-01T15:16:25Z</time></trkpt><trkpt lat="42.50824769759456" lon="14.130172351182862"><ele>12.0</ele><time>2026-05-01T15:16:26Z</time></trkpt><trkpt lat="42.50832883623928" lon="14.130107021454696"><ele>12.0</ele><time>2026-05-01T15:16:27Z</time></trkpt><trkpt lat="42.508406278913796" lon="14.130043187020723"><ele>12.0</ele><time>2026-05-01T15:16:28Z</time></trkpt><trkpt lat="42.50847603003237" lon="14.129981605468387"><ele>12.0</ele><time>2026-05-01T15:16:29Z</time></trkpt><trkpt lat="42.50854001732561" lon="14.12992272579581"><ele>12.0</ele><time>2026-05-01T15:16:30Z</time></trkpt><trkpt lat="42.50859546231274" lon="14.129870264006389"><ele>12.0</ele><time>2026-05-01T15:16:31Z</time></trkpt><trkpt lat="42.508689137917585" lon="14.129796271726832"><ele>12.0</ele><time>2026-05-01T15:16:33Z</time></trkpt><trkpt lat="42.50874001798856" lon="14.129739438139797"><ele>11.0</ele><time>2026-05-01T15:16:35Z</time></trkpt><trkpt lat="42.50884420115501" lon="14.129776058240079"><ele>10.0</ele><time>2026-05-01T15:16:37Z</time></trkpt><trkpt lat="42.508919759896315" lon="14.129769154355147"><ele>9.0</ele><time>2026-05-01T15:16:38Z</time></trkpt><trkpt lat="42.509001315659575" lon="14.129769154355142"><ele>8.0</ele><time>2026-05-01T15:16:39Z</time></trkpt><trkpt lat="42.50907789375234" lon="14.12987679860236"><ele>7.0</ele><time>2026-05-01T15:16:40Z</time></trkpt><trkpt lat="42.509151173269935" lon="14.12996853019546"><ele>7.0</ele><time>2026-05-01T15:16:40.999Z</time></trkpt><trkpt lat="42.50923367011619" lon="14.130086551796749"><ele>7.0</ele><time>2026-05-01T15:16:41.999Z</time></trkpt><trkpt lat="42.5093179759187" lon="14.130211089679173"><ele>7.0</ele><time>2026-05-01T15:16:42.999Z</time></trkpt><trkpt lat="42.50940701162113" lon="14.13033576449501"><ele>7.0</ele><time>2026-05-01T15:16:43.999Z</time></trkpt><trkpt lat="42.50950064679476" lon="14.130464469521485"><ele>7.0</ele><time>2026-05-01T15:16:44.999Z</time></trkpt><trkpt lat="42.50959258143092" lon="14.13059801067677"><ele>7.0</ele><time>2026-05-01T15:16:45.999Z</time></trkpt><trkpt lat="42.50968369889213" lon="14.13073665295217"><ele>7.0</ele><time>2026-05-01T15:16:46.999Z</time></trkpt><trkpt lat="42.509778142027756" lon="14.130877539251356"><ele>7.0</ele><time>2026-05-01T15:16:47.999Z</time></trkpt><trkpt lat="42.509876166053274" lon="14.131022675056979"><ele>6.75</ele><time>2026-05-01T15:16:48.999Z</time></trkpt><trkpt lat="42.50997568317302" lon="14.131176795204187"><ele>6.5</ele><time>2026-05-01T15:16:49.999Z</time></trkpt><trkpt lat="42.51007062214803" lon="14.131332416700257"><ele>6.25</ele><time>2026-05-01T15:16:50.999Z</time></trkpt><trkpt lat="42.51016129480165" lon="14.13148403941996"><ele>6.0</ele><time>2026-05-01T15:16:51.999Z</time></trkpt><trkpt lat="42.51024762198073" lon="14.131638819172322"><ele>6.0</ele><time>2026-05-01T15:16:52.999Z</time></trkpt><trkpt lat="42.51033350070626" lon="14.131800173582935"><ele>6.0</ele><time>2026-05-01T15:16:53.999Z</time></trkpt><trkpt lat="42.51042216626418" lon="14.1319654085866"><ele>6.0</ele><time>2026-05-01T15:16:54.999Z</time></trkpt><trkpt lat="42.510511111748784" lon="14.132132810923844"><ele>6.0</ele><time>2026-05-01T15:16:55.999Z</time></trkpt><trkpt lat="42.51059726933436" lon="14.132305002168229"><ele>6.0</ele><time>2026-05-01T15:16:56.999Z</time></trkpt><trkpt lat="42.51068274489924" lon="14.132476111455123"><ele>6.0</ele><time>2026-05-01T15:16:57.999Z</time></trkpt><trkpt lat="42.510768302369634" lon="14.132641720045747"><ele>6.0</ele><time>2026-05-01T15:16:58.999Z</time></trkpt><trkpt lat="42.51085536524012" lon="14.132806526957102"><ele>6.0</ele><time>2026-05-01T15:16:59.999Z</time></trkpt><trkpt lat="42.51094490734502" lon="14.132967673929596"><ele>6.0</ele><time>2026-05-01T15:17:00.999Z</time></trkpt><trkpt lat="42.51103936030726" lon="14.133123921604309"><ele>6.0</ele><time>2026-05-01T15:17:01.999Z</time></trkpt><trkpt lat="42.511136191970074" lon="14.133276581037821"><ele>6.0</ele><time>2026-05-01T15:17:02.999Z</time></trkpt><trkpt lat="42.511234008213165" lon="14.133431366606178"><ele>5.75</ele><time>2026-05-01T15:17:03.999Z</time></trkpt><trkpt lat="42.51132522778102" lon="14.133584369474487"><ele>5.5</ele><time>2026-05-01T15:17:04.999Z</time></trkpt><trkpt lat="42.51141039632298" lon="14.133745211159937"><ele>5.25</ele><time>2026-05-01T15:17:05.999Z</time></trkpt><trkpt lat="42.51148596712771" lon="14.133912161860833"><ele>5.0</ele><time>2026-05-01T15:17:06.999Z</time></trkpt><trkpt lat="42.51155698255265" lon="14.134077399796917"><ele>5.0</ele><time>2026-05-01T15:17:07.999Z</time></trkpt><trkpt lat="42.511640233271116" lon="14.134227013909028"><ele>5.0</ele><time>2026-05-01T15:17:08.999Z</time></trkpt><trkpt lat="42.51173808651941" lon="14.1343638121651"><ele>5.0</ele><time>2026-05-01T15:17:09.999Z</time></trkpt><trkpt lat="42.511853866440696" lon="14.134483660664985"><ele>5.0</ele><time>2026-05-01T15:17:10.999Z</time></trkpt><trkpt lat="42.51198471280794" lon="14.134587475274929"><ele>4.5</ele><time>2026-05-01T15:17:11.999Z</time></trkpt><trkpt lat="42.5121199402915" lon="14.134679472504356"><ele>4.0</ele><time>2026-05-01T15:17:12.999Z</time></trkpt><trkpt lat="42.5122541501298" lon="14.1347652709122"><ele>3.5</ele><time>2026-05-01T15:17:14Z</time></trkpt><trkpt lat="42.51238285459027" lon="14.13485143750917"><ele>3.0</ele><time>2026-05-01T15:17:15Z</time></trkpt><trkpt lat="42.512506458006264" lon="14.134935678464391"><ele>3.0</ele><time>2026-05-01T15:17:16Z</time></trkpt><trkpt lat="42.512626992442605" lon="14.135017926221444"><ele>3.0</ele><time>2026-05-01T15:17:17Z</time></trkpt><trkpt lat="42.51274019889613" lon="14.135104464442586"><ele>3.0</ele><time>2026-05-01T15:17:18Z</time></trkpt><trkpt lat="42.51284313769154" lon="14.135202665808096"><ele>3.0</ele><time>2026-05-01T15:17:19Z</time></trkpt><trkpt lat="42.512938486725936" lon="14.135308818785203"><ele>3.0</ele><time>2026-05-01T15:17:20Z</time></trkpt><trkpt lat="42.513025041284045" lon="14.13542662933071"><ele>3.0</ele><time>2026-05-01T15:17:21Z</time></trkpt><trkpt lat="42.51310279879319" lon="14.135556699537299"><ele>3.0</ele><time>2026-05-01T15:17:22Z</time></trkpt><trkpt lat="42.513172045589805" lon="14.13569214585476"><ele>3.0</ele><time>2026-05-01T15:17:23Z</time></trkpt><trkpt lat="42.51323367808913" lon="14.135832792616965"><ele>3.0</ele><time>2026-05-01T15:17:24Z</time></trkpt><trkpt lat="42.51328525386999" lon="14.135976610722068"><ele>3.0</ele><time>2026-05-01T15:17:25Z</time></trkpt><trkpt lat="42.51332343072144" lon="14.136122349129923"><ele>3.0</ele><time>2026-05-01T15:17:26Z</time></trkpt><trkpt lat="42.51335258334963" lon="14.13626385238845"><ele>3.0</ele><time>2026-05-01T15:17:27Z</time></trkpt><trkpt lat="42.513378860491" lon="14.136393614407062"><ele>3.0</ele><time>2026-05-01T15:17:28Z</time></trkpt><trkpt lat="42.51340624584166" lon="14.136516820189456"><ele>3.2</ele><time>2026-05-01T15:17:29Z</time></trkpt><trkpt lat="42.51343318283349" lon="14.13664088443371"><ele>3.4</ele><time>2026-05-01T15:17:30Z</time></trkpt><trkpt lat="42.51346255284568" lon="14.136762653769875"><ele>3.6000000000000005</ele><time>2026-05-01T15:17:31Z</time></trkpt><trkpt lat="42.51349809189591" lon="14.136882704533713"><ele>3.8000000000000003</ele><time>2026-05-01T15:17:32Z</time></trkpt><trkpt lat="42.51353686577366" lon="14.136996953854442"><ele>4.0</ele><time>2026-05-01T15:17:33Z</time></trkpt><trkpt lat="42.513575123900274" lon="14.13710198277898"><ele>3.9999999999999996</ele><time>2026-05-01T15:17:34Z</time></trkpt><trkpt lat="42.513612402627295" lon="14.137195716739038"><ele>4.0</ele><time>2026-05-01T15:17:35Z</time></trkpt><trkpt lat="42.513648986983924" lon="14.137285270841272"><ele>4.0</ele><time>2026-05-01T15:17:36Z</time></trkpt><trkpt lat="42.513686024040936" lon="14.137402431768729"><ele>4.0</ele><time>2026-05-01T15:17:38Z</time></trkpt><trkpt lat="42.51371518520075" lon="14.137502756181538"><ele>3.9999999999999996</ele><time>2026-05-01T15:17:40Z</time></trkpt><trkpt lat="42.51373949111712" lon="14.137655071708869"><ele>4.0</ele><time>2026-05-01T15:17:42Z</time></trkpt><trkpt lat="42.513726032195144" lon="14.137837467952275"><ele>4.2</ele><time>2026-05-01T15:17:44Z</time></trkpt><trkpt lat="42.513691050214035" lon="14.137955686049226"><ele>4.4</ele><time>2026-05-01T15:17:45Z</time></trkpt><trkpt lat="42.51363918169913" lon="14.138090865892746"><ele>4.6</ele><time>2026-05-01T15:17:46Z</time></trkpt><trkpt lat="42.513591973272966" lon="14.138220600674126"><ele>4.8</ele><time>2026-05-01T15:17:47Z</time></trkpt><trkpt lat="42.513542379597936" lon="14.138368409923226"><ele>5.0</ele><time>2026-05-01T15:17:48Z</time></trkpt><trkpt lat="42.513457365771856" lon="14.138529443361184"><ele>5.0</ele><time>2026-05-01T15:17:49Z</time></trkpt><trkpt lat="42.51339874328229" lon="14.138735035581613"><ele>5.0</ele><time>2026-05-01T15:17:50Z</time></trkpt><trkpt lat="42.51332479564881" lon="14.138911241081203"><ele>5.0</ele><time>2026-05-01T15:17:51Z</time></trkpt><trkpt lat="42.51325290483676" lon="14.139086230855716"><ele>5.5</ele><time>2026-05-01T15:17:52Z</time></trkpt><trkpt lat="42.51318253050722" lon="14.139264380022805"><ele>6.0</ele><time>2026-05-01T15:17:53Z</time></trkpt><trkpt lat="42.513113810824734" lon="14.13944199407808"><ele>6.5</ele><time>2026-05-01T15:17:54Z</time></trkpt><trkpt lat="42.513046160067816" lon="14.139619087864682"><ele>7.0</ele><time>2026-05-01T15:17:55Z</time></trkpt><trkpt lat="42.51297776162343" lon="14.139793778301716"><ele>6.75</ele><time>2026-05-01T15:17:56Z</time></trkpt><trkpt lat="42.51291151209745" lon="14.139966863139346"><ele>6.5</ele><time>2026-05-01T15:17:57Z</time></trkpt><trkpt lat="42.51285093842141" lon="14.140138091653496"><ele>6.25</ele><time>2026-05-01T15:17:58Z</time></trkpt><trkpt lat="42.51279397896591" lon="14.140304032880353"><ele>6.0</ele><time>2026-05-01T15:17:59Z</time></trkpt><trkpt lat="42.51273564855527" lon="14.1404631497015"><ele>6.0</ele><time>2026-05-01T15:18:00Z</time></trkpt><trkpt lat="42.512677303500084" lon="14.14061775541569"><ele>6.0</ele><time>2026-05-01T15:18:01Z</time></trkpt><trkpt lat="42.51262015573552" lon="14.140768069432355"><ele>6.0</ele><time>2026-05-01T15:18:02Z</time></trkpt><trkpt lat="42.51256445408398" lon="14.14091276343659"><ele>6.0</ele><time>2026-05-01T15:18:03Z</time></trkpt><trkpt lat="42.512513811742664" lon="14.141048800474326"><ele>6.333333333333333</ele><time>2026-05-01T15:18:04Z</time></trkpt><trkpt lat="42.512470038394945" lon="14.141166810469002"><ele>6.666666666666666</ele><time>2026-05-01T15:18:05Z</time></trkpt><trkpt lat="42.512441185447436" lon="14.141267645223332"><ele>7.0</ele><time>2026-05-01T15:18:06Z</time></trkpt><trkpt lat="42.512418266697686" lon="14.141349448868624"><ele>7.333333333333333</ele><time>2026-05-01T15:18:07Z</time></trkpt><trkpt lat="42.51244401125593" lon="14.141446914444554"><ele>7.666666666666666</ele><time>2026-05-01T15:18:08Z</time></trkpt><trkpt lat="42.512505778724595" lon="14.141524806809088"><ele>8.0</ele><time>2026-05-01T15:18:09Z</time></trkpt><trkpt lat="42.51259597471776" lon="14.141529048392885"><ele>8.0</ele><time>2026-05-01T15:18:10Z</time></trkpt><trkpt lat="42.51267530747504" lon="14.141520266167793"><ele>8.0</ele><time>2026-05-01T15:18:11Z</time></trkpt><trkpt lat="42.51276852156561" lon="14.141492864415657"><ele>8.0</ele><time>2026-05-01T15:18:12Z</time></trkpt><trkpt lat="42.512878241799456" lon="14.141466040059926"><ele>8.0</ele><time>2026-05-01T15:18:13Z</time></trkpt><trkpt lat="42.5129927555746" lon="14.141426501884196"><ele>8.0</ele><time>2026-05-01T15:18:14Z</time></trkpt><trkpt lat="42.513121701217315" lon="14.141452165341054"><ele>7.6000000000000005</ele><time>2026-05-01T15:18:15Z</time></trkpt><trkpt lat="42.51323248863051" lon="14.14145906325601"><ele>7.200000000000001</ele><time>2026-05-01T15:18:16Z</time></trkpt><trkpt lat="42.51333154560133" lon="14.14147778026469"><ele>6.8</ele><time>2026-05-01T15:18:17Z</time></trkpt><trkpt lat="42.5134202260448" lon="14.141507572696447"><ele>6.4</ele><time>2026-05-01T15:18:18Z</time></trkpt><trkpt lat="42.51350253233886" lon="14.141550019739636"><ele>6.0</ele><time>2026-05-01T15:18:19Z</time></trkpt><trkpt lat="42.513580843964505" lon="14.14160303063455"><ele>6.0</ele><time>2026-05-01T15:18:20Z</time></trkpt><trkpt lat="42.51365629604331" lon="14.141659499228094"><ele>6.0</ele><time>2026-05-01T15:18:21Z</time></trkpt><trkpt lat="42.51373121546651" lon="14.14171064331399"><ele>6.0</ele><time>2026-05-01T15:18:22Z</time></trkpt><trkpt lat="42.5138039189689" lon="14.141763154438145"><ele>6.0</ele><time>2026-05-01T15:18:23Z</time></trkpt><trkpt lat="42.513873314439664" lon="14.141815438806635"><ele>6.0</ele><time>2026-05-01T15:18:24Z</time></trkpt><trkpt lat="42.51393585050372" lon="14.14186509416062"><ele>6.0</ele><time>2026-05-01T15:18:25Z</time></trkpt><trkpt lat="42.51399459808107" lon="14.141908532474243"><ele>5.571428571428571</ele><time>2026-05-01T15:18:26Z</time></trkpt><trkpt lat="42.51405080826116" lon="14.141948340026445"><ele>5.142857142857142</ele><time>2026-05-01T15:18:27Z</time></trkpt><trkpt lat="42.51410723238092" lon="14.141987315950985"><ele>4.7142857142857135</ele><time>2026-05-01T15:18:28Z</time></trkpt><trkpt lat="42.51416315394441" lon="14.14203391612538"><ele>4.285714285714286</ele><time>2026-05-01T15:18:29Z</time></trkpt><trkpt lat="42.51421533459458" lon="14.142095857234398"><ele>3.8571428571428568</ele><time>2026-05-01T15:18:30Z</time></trkpt><trkpt lat="42.51425402102164" lon="14.14217098628822"><ele>3.4285714285714284</ele><time>2026-05-01T15:18:31Z</time></trkpt><trkpt lat="42.51427216006199" lon="14.14225281649635"><ele>3.0</ele><time>2026-05-01T15:18:32Z</time></trkpt><trkpt lat="42.514303947475554" lon="14.14240704096089"><ele>2.8</ele><time>2026-05-01T15:18:34Z</time></trkpt><trkpt lat="42.51435435239699" lon="14.142524477472026"><ele>2.5999999999999996</ele><time>2026-05-01T15:18:36Z</time></trkpt><trkpt lat="42.514455665256484" lon="14.142495949866825"><ele>2.4000000000000004</ele><time>2026-05-01T15:18:37Z</time></trkpt><trkpt lat="42.514515462317554" lon="14.14246204876137"><ele>2.2</ele><time>2026-05-01T15:18:38Z</time></trkpt><trkpt lat="42.51457521101763" lon="14.142420027514692"><ele>2.0</ele><time>2026-05-01T15:18:39Z</time></trkpt><trkpt lat="42.514721145706616" lon="14.142403535703147"><ele>2.0</ele><time>2026-05-01T15:18:41Z</time></trkpt><trkpt lat="42.51479798549187" lon="14.142476698876553"><ele>2.0</ele><time>2026-05-01T15:18:42Z</time></trkpt><trkpt lat="42.51487226168723" lon="14.142528968931815"><ele>2.0</ele><time>2026-05-01T15:18:43Z</time></trkpt><trkpt lat="42.51494863120762" lon="14.142587803028968"><ele>2.0</ele><time>2026-05-01T15:18:44Z</time></trkpt><trkpt lat="42.515029303236176" lon="14.14265000308585"><ele>2.0</ele><time>2026-05-01T15:18:45Z</time></trkpt><trkpt lat="42.5151144504133" lon="14.142712842138675"><ele>2.0</ele><time>2026-05-01T15:18:46Z</time></trkpt><trkpt lat="42.51520028331381" lon="14.142777991094533"><ele>2.0</ele><time>2026-05-01T15:18:46.999Z</time></trkpt><trkpt lat="42.51529147310566" lon="14.142842869172629"><ele>2.0</ele><time>2026-05-01T15:18:47.999Z</time></trkpt><trkpt lat="42.51538524479473" lon="14.142909797534937"><ele>2.0</ele><time>2026-05-01T15:18:48.999Z</time></trkpt><trkpt lat="42.515478716943115" lon="14.142981308037779"><ele>2.0</ele><time>2026-05-01T15:18:49.999Z</time></trkpt><trkpt lat="42.51557336593284" lon="14.143050885394622"><ele>2.2</ele><time>2026-05-01T15:18:50.999Z</time></trkpt><trkpt lat="42.51567018041396" lon="14.143119415262133"><ele>2.4000000000000004</ele><time>2026-05-01T15:18:51.999Z</time></trkpt><trkpt lat="42.515766716124624" lon="14.143187701997146"><ele>2.5999999999999996</ele><time>2026-05-01T15:18:52.999Z</time></trkpt><trkpt lat="42.515861485334355" lon="14.143258210070366"><ele>2.8</ele><time>2026-05-01T15:18:53.999Z</time></trkpt><trkpt lat="42.515955654896594" lon="14.143326557111212"><ele>3.0</ele><time>2026-05-01T15:18:54.999Z</time></trkpt><trkpt lat="42.51605208430516" lon="14.143392319548502"><ele>3.2</ele><time>2026-05-01T15:18:55.999Z</time></trkpt><trkpt lat="42.51614943233031" lon="14.143461754533675"><ele>3.4</ele><time>2026-05-01T15:18:56.999Z</time></trkpt><trkpt lat="42.516245725277706" lon="14.143534198104627"><ele>3.6000000000000005</ele><time>2026-05-01T15:18:57.999Z</time></trkpt><trkpt lat="42.516341604280974" lon="14.143603329305229"><ele>3.8000000000000003</ele><time>2026-05-01T15:18:58.999Z</time></trkpt><trkpt lat="42.51643975020914" lon="14.14367287688742"><ele>4.0</ele><time>2026-05-01T15:18:59.999Z</time></trkpt><trkpt lat="42.51654364733822" lon="14.143747971335918"><ele>4.5</ele><time>2026-05-01T15:19:00.999Z</time></trkpt><trkpt lat="42.51664927814152" lon="14.143828226584393"><ele>5.0</ele><time>2026-05-01T15:19:01.999Z</time></trkpt><trkpt lat="42.51674985920927" lon="14.14390263695014"><ele>5.5</ele><time>2026-05-01T15:19:02.999Z</time></trkpt><trkpt lat="42.51684748735606" lon="14.14397359488291"><ele>6.0</ele><time>2026-05-01T15:19:03.999Z</time></trkpt><trkpt lat="42.51694310545157" lon="14.14404140582584"><ele>5.5</ele><time>2026-05-01T15:19:04.999Z</time></trkpt><trkpt lat="42.51703939392577" lon="14.144111931870528"><ele>5.0</ele><time>2026-05-01T15:19:05.999Z</time></trkpt><trkpt lat="42.517138900296935" lon="14.144184859256148"><ele>4.5</ele><time>2026-05-01T15:19:06.999Z</time></trkpt><trkpt lat="42.517241402701146" lon="14.144262005161277"><ele>4.0</ele><time>2026-05-01T15:19:07.999Z</time></trkpt><trkpt lat="42.51734686998404" lon="14.14433998819637"><ele>3.75</ele><time>2026-05-01T15:19:08.999Z</time></trkpt><trkpt lat="42.517450687014744" lon="14.144415772281315"><ele>3.5</ele><time>2026-05-01T15:19:09.999Z</time></trkpt><trkpt lat="42.51755406453613" lon="14.14448803753244"><ele>3.25</ele><time>2026-05-01T15:19:10.999Z</time></trkpt><trkpt lat="42.517656248794715" lon="14.14455926754083"><ele>3.0</ele><time>2026-05-01T15:19:11.999Z</time></trkpt><trkpt lat="42.517753112480605" lon="14.144626984034172"><ele>3.0</ele><time>2026-05-01T15:19:12.999Z</time></trkpt><trkpt lat="42.51784785654101" lon="14.144696048916158"><ele>3.0</ele><time>2026-05-01T15:19:13.999Z</time></trkpt><trkpt lat="42.51794357262698" lon="14.144768556550998"><ele>3.0</ele><time>2026-05-01T15:19:14.999Z</time></trkpt><trkpt lat="42.518041739925565" lon="14.144839948068077"><ele>3.0</ele><time>2026-05-01T15:19:15.999Z</time></trkpt><trkpt lat="42.51814340923076" lon="14.144911729719281"><ele>3.0</ele><time>2026-05-01T15:19:16.999Z</time></trkpt><trkpt lat="42.518246793554496" lon="14.144982428755903"><ele>3.0</ele><time>2026-05-01T15:19:17.999Z</time></trkpt><trkpt lat="42.51834049390603" lon="14.145047180481773"><ele>3.0</ele><time>2026-05-01T15:19:18.999Z</time></trkpt><trkpt lat="42.51843331863437" lon="14.145112559070045"><ele>3.0</ele><time>2026-05-01T15:19:19.999Z</time></trkpt><trkpt lat="42.518522762224" lon="14.145175064187246"><ele>3.0</ele><time>2026-05-01T15:19:20.999Z</time></trkpt><trkpt lat="42.51860733043663" lon="14.14523505734835"><ele>3.0</ele><time>2026-05-01T15:19:21.999Z</time></trkpt><trkpt lat="42.51868935897827" lon="14.145295902024294"><ele>3.0</ele><time>2026-05-01T15:19:22.999Z</time></trkpt><trkpt lat="42.518772154724" lon="14.145354946069721"><ele>3.0</ele><time>2026-05-01T15:19:23.999Z</time></trkpt><trkpt lat="42.51885357823087" lon="14.145410190884435"><ele>3.0</ele><time>2026-05-01T15:19:24.999Z</time></trkpt><trkpt lat="42.518930962309966" lon="14.145463837401607"><ele>3.0</ele><time>2026-05-01T15:19:25.999Z</time></trkpt><trkpt lat="42.51900917652134" lon="14.145517923988027"><ele>3.0</ele><time>2026-05-01T15:19:26.999Z</time></trkpt><trkpt lat="42.5190851540627" lon="14.145572374147246"><ele>3.0</ele><time>2026-05-01T15:19:27.999Z</time></trkpt><trkpt lat="42.519160856235494" lon="14.145625622517395"><ele>3.0</ele><time>2026-05-01T15:19:28.999Z</time></trkpt><trkpt lat="42.519232006986286" lon="14.145675595222395"><ele>3.0</ele><time>2026-05-01T15:19:29.999Z</time></trkpt><trkpt lat="42.51929570952667" lon="14.145723158176045"><ele>3.0</ele><time>2026-05-01T15:19:30.999Z</time></trkpt><trkpt lat="42.51938759120169" lon="14.14580232408639"><ele>3.0</ele><time>2026-05-01T15:19:32.999Z</time></trkpt><trkpt lat="42.51944685197027" lon="14.145860303886773"><ele>3.0</ele><time>2026-05-01T15:19:34.999Z</time></trkpt><trkpt lat="42.51951148126053" lon="14.145940301905403"><ele>3.0</ele><time>2026-05-01T15:19:36.999Z</time></trkpt><trkpt lat="42.51956968896597" lon="14.146002148570268"><ele>3.4</ele><time>2026-05-01T15:19:39.999Z</time></trkpt><trkpt lat="42.519546898331136" lon="14.146143174391822"><ele>3.8</ele><time>2026-05-01T15:19:41.999Z</time></trkpt><trkpt lat="42.51950590420026" lon="14.146230653676696"><ele>4.2</ele><time>2026-05-01T15:19:42.999Z</time></trkpt><trkpt lat="42.51942961832291" lon="14.146326366061363"><ele>4.6</ele><time>2026-05-01T15:19:43.999Z</time></trkpt><trkpt lat="42.519347798744896" lon="14.146428571210784"><ele>5.0</ele><time>2026-05-01T15:19:44.999Z</time></trkpt><trkpt lat="42.519280568949405" lon="14.14651479545017"><ele>4.666666666666667</ele><time>2026-05-01T15:19:45.999Z</time></trkpt><trkpt lat="42.51921957549434" lon="14.146596834953408"><ele>4.333333333333334</ele><time>2026-05-01T15:19:46.999Z</time></trkpt><trkpt lat="42.51915396440756" lon="14.146675359224716"><ele>4.0</ele><time>2026-05-01T15:19:47.999Z</time></trkpt><trkpt lat="42.51909432675103" lon="14.146748297276163"><ele>3.666666666666667</ele><time>2026-05-01T15:19:48.999Z</time></trkpt><trkpt lat="42.51904891759053" lon="14.14681613033822"><ele>3.3333333333333335</ele><time>2026-05-01T15:19:49.999Z</time></trkpt><trkpt lat="42.519010065051646" lon="14.146905026583642"><ele>3.0</ele><time>2026-05-01T15:19:51.999Z</time></trkpt><trkpt lat="42.51904642789691" lon="14.1469890475301"><ele>3.0</ele><time>2026-05-01T15:19:54.999Z</time></trkpt><trkpt lat="42.519083682603124" lon="14.147134785228666"><ele>3.0</ele><time>2026-05-01T15:19:56.999Z</time></trkpt><trkpt lat="42.519130695258895" lon="14.147198868349362"><ele>3.0</ele><time>2026-05-01T15:19:57.999Z</time></trkpt><trkpt lat="42.51919783835297" lon="14.14724660960538"><ele>3.0</ele><time>2026-05-01T15:19:58.999Z</time></trkpt><trkpt lat="42.51927843093306" lon="14.147276427349606"><ele>3.0</ele><time>2026-05-01T15:19:59.999Z</time></trkpt><trkpt lat="42.519367651996646" lon="14.147307818234673"><ele>3.0</ele><time>2026-05-01T15:20:00.999Z</time></trkpt><trkpt lat="42.51945152754161" lon="14.14734614884963"><ele>3.0</ele><time>2026-05-01T15:20:02Z</time></trkpt><trkpt lat="42.51952582027948" lon="14.147423114458936"><ele>3.0</ele><time>2026-05-01T15:20:03Z</time></trkpt><trkpt lat="42.51958022928364" lon="14.147527218515073"><ele>3.0</ele><time>2026-05-01T15:20:04Z</time></trkpt><trkpt lat="42.519641602454506" lon="14.147638602080677"><ele>3.0</ele><time>2026-05-01T15:20:05Z</time></trkpt><trkpt lat="42.519712057141525" lon="14.147753284251914"><ele>3.0</ele><time>2026-05-01T15:20:06Z</time></trkpt><trkpt lat="42.519781553534536" lon="14.14786215625145"><ele>2.8</ele><time>2026-05-01T15:20:07Z</time></trkpt><trkpt lat="42.519845376541596" lon="14.147972105554674"><ele>2.5999999999999996</ele><time>2026-05-01T15:20:08Z</time></trkpt><trkpt lat="42.519909180239495" lon="14.148091778097452"><ele>2.4000000000000004</ele><time>2026-05-01T15:20:09Z</time></trkpt><trkpt lat="42.51996101390835" lon="14.148214719226726"><ele>2.2</ele><time>2026-05-01T15:20:10Z</time></trkpt><trkpt lat="42.520007804187735" lon="14.148336436483238"><ele>2.0</ele><time>2026-05-01T15:20:11Z</time></trkpt><trkpt lat="42.5200493289122" lon="14.148456107131963"><ele>2.0</ele><time>2026-05-01T15:20:12Z</time></trkpt><trkpt lat="42.520090578200744" lon="14.148574623143254"><ele>2.0</ele><time>2026-05-01T15:20:13Z</time></trkpt><trkpt lat="42.52013243546134" lon="14.148689573335277"><ele>2.0</ele><time>2026-05-01T15:20:14Z</time></trkpt><trkpt lat="42.52017335162821" lon="14.148799936460744"><ele>2.0</ele><time>2026-05-01T15:20:15Z</time></trkpt><trkpt lat="42.52021258530274" lon="14.148913904180068"><ele>2.0</ele><time>2026-05-01T15:20:16Z</time></trkpt><trkpt lat="42.52025162076624" lon="14.149028547278588"><ele>2.0</ele><time>2026-05-01T15:20:17Z</time></trkpt><trkpt lat="42.52028989705216" lon="14.149143492641409"><ele>2.0</ele><time>2026-05-01T15:20:18Z</time></trkpt><trkpt lat="42.52032923425377" lon="14.149261261609668"><ele>2.0</ele><time>2026-05-01T15:20:19Z</time></trkpt><trkpt lat="42.5203699381152" lon="14.149385164138378"><ele>2.0</ele><time>2026-05-01T15:20:20Z</time></trkpt><trkpt lat="42.52041201768479" lon="14.14950865632418"><ele>2.0</ele><time>2026-05-01T15:20:21Z</time></trkpt><trkpt lat="42.52045367609363" lon="14.149630869451954"><ele>2.0</ele><time>2026-05-01T15:20:22Z</time></trkpt><trkpt lat="42.520498037716116" lon="14.14975305325243"><ele>2.0</ele><time>2026-05-01T15:20:23Z</time></trkpt><trkpt lat="42.520539019964545" lon="14.149875246537217"><ele>2.0</ele><time>2026-05-01T15:20:24Z</time></trkpt><trkpt lat="42.52057963288631" lon="14.14999540290616"><ele>2.0</ele><time>2026-05-01T15:20:25Z</time></trkpt><trkpt lat="42.52061821032646" lon="14.150109096794933"><ele>2.0</ele><time>2026-05-01T15:20:26Z</time></trkpt><trkpt lat="42.52065742632389" lon="14.150219061966487"><ele>1.9999999999999998</ele><time>2026-05-01T15:20:27Z</time></trkpt><trkpt lat="42.52069704900583" lon="14.150330574379018"><ele>2.0</ele><time>2026-05-01T15:20:28Z</time></trkpt><trkpt lat="42.520735721373526" lon="14.150441125859723"><ele>2.0</ele><time>2026-05-01T15:20:29Z</time></trkpt><trkpt lat="42.52077217540963" lon="14.150550319338237"><ele>2.0</ele><time>2026-05-01T15:20:30Z</time></trkpt><trkpt lat="42.52080784570338" lon="14.150657640040208"><ele>1.9999999999999998</ele><time>2026-05-01T15:20:31Z</time></trkpt><trkpt lat="42.5208442777896" lon="14.15076562753481"><ele>2.0</ele><time>2026-05-01T15:20:32Z</time></trkpt><trkpt lat="42.520879224420334" lon="14.150867399711172"><ele>1.9999999999999998</ele><time>2026-05-01T15:20:33Z</time></trkpt><trkpt lat="42.52091474521863" lon="14.150969724783563"><ele>2.0</ele><time>2026-05-01T15:20:34Z</time></trkpt><trkpt lat="42.52095026017021" lon="14.151072874442693"><ele>2.0</ele><time>2026-05-01T15:20:35Z</time></trkpt><trkpt lat="42.520983978964175" lon="14.151171612463923"><ele>2.0</ele><time>2026-05-01T15:20:36Z</time></trkpt><trkpt lat="42.521016379364845" lon="14.151267013179705"><ele>1.9999999999999998</ele><time>2026-05-01T15:20:37Z</time></trkpt><trkpt lat="42.5210485112121" lon="14.151358989087308"><ele>2.0</ele><time>2026-05-01T15:20:38Z</time></trkpt><trkpt lat="42.52107911875673" lon="14.15145168347495"><ele>1.9999999999999998</ele><time>2026-05-01T15:20:39Z</time></trkpt><trkpt lat="42.52110945979401" lon="14.151546222792398"><ele>2.0</ele><time>2026-05-01T15:20:40Z</time></trkpt><trkpt lat="42.52114018058215" lon="14.151643862738949"><ele>2.0</ele><time>2026-05-01T15:20:41Z</time></trkpt><trkpt lat="42.52117409419088" lon="14.151744846568041"><ele>2.0</ele><time>2026-05-01T15:20:42Z</time></trkpt><trkpt lat="42.52120696748177" lon="14.15184359984822"><ele>1.9999999999999998</ele><time>2026-05-01T15:20:43Z</time></trkpt><trkpt lat="42.52124116236259" lon="14.151946164263984"><ele>2.0</ele><time>2026-05-01T15:20:44Z</time></trkpt><trkpt lat="42.521268582411814" lon="14.152027845438592"><ele>1.6666666666666665</ele><time>2026-05-01T15:20:45Z</time></trkpt><trkpt lat="42.521319033067634" lon="14.152171510664502"><ele>1.3333333333333333</ele><time>2026-05-01T15:20:47Z</time></trkpt><trkpt lat="42.52134870333755" lon="14.152251312178308"><ele>1.0</ele><time>2026-05-01T15:20:48Z</time></trkpt><trkpt lat="42.52138419665194" lon="14.15234546684552"><ele>0.6666666666666666</ele><time>2026-05-01T15:20:49Z</time></trkpt><trkpt lat="42.52142124090329" lon="14.152442999450612"><ele>0.3333333333333333</ele><time>2026-05-01T15:20:50Z</time></trkpt><trkpt lat="42.52145962661671" lon="14.152537189960453"><ele>0.0</ele><time>2026-05-01T15:20:51Z</time></trkpt><trkpt lat="42.52149352158156" lon="14.152618857215083"><ele>-0.2</ele><time>2026-05-01T15:20:52Z</time></trkpt><trkpt lat="42.52154844700201" lon="14.152768318648363"><ele>-0.4</ele><time>2026-05-01T15:20:53.998Z</time></trkpt><trkpt lat="42.52157960832104" lon="14.152852499539254"><ele>-0.6000000000000001</ele><time>2026-05-01T15:20:54.998Z</time></trkpt><trkpt lat="42.52161964435324" lon="14.152951401384378"><ele>-0.8</ele><time>2026-05-01T15:20:55.998Z</time></trkpt><trkpt lat="42.52164827858165" lon="14.153075875285575"><ele>-1.0</ele><time>2026-05-01T15:20:56.998Z</time></trkpt><trkpt lat="42.521689290438616" lon="14.153194684908817"><ele>-0.8333333333333333</ele><time>2026-05-01T15:20:57.998Z</time></trkpt><trkpt lat="42.52172791194408" lon="14.15330582204636"><ele>-0.6666666666666666</ele><time>2026-05-01T15:20:58.998Z</time></trkpt><trkpt lat="42.52177825228277" lon="14.153398538542932"><ele>-0.5</ele><time>2026-05-01T15:20:59.998Z</time></trkpt><trkpt lat="42.52180992491653" lon="14.153489643588543"><ele>-0.3333333333333333</ele><time>2026-05-01T15:21:00.998Z</time></trkpt><trkpt lat="42.52184119862051" lon="14.153631815753156"><ele>-0.16666666666666666</ele><time>2026-05-01T15:21:02.998Z</time></trkpt><trkpt lat="42.52187904831669" lon="14.153710472988816"><ele>0.0</ele><time>2026-05-01T15:21:05.998Z</time></trkpt><trkpt lat="42.52200235652584" lon="14.153626887015697"><ele>0.3333333333333333</ele><time>2026-05-01T15:21:07.998Z</time></trkpt><trkpt lat="42.52206871248479" lon="14.153561296338598"><ele>0.6666666666666666</ele><time>2026-05-01T15:21:10.999Z</time></trkpt><trkpt lat="42.522124309090486" lon="14.153519224485988"><ele>1.0</ele><time>2026-05-01T15:21:12.999Z</time></trkpt><trkpt lat="42.52220236793208" lon="14.153451328132743"><ele>1.3333333333333333</ele><time>2026-05-01T15:21:15.999Z</time></trkpt><trkpt lat="42.522270840020546" lon="14.153389940891628"><ele>1.6666666666666665</ele><time>2026-05-01T15:21:18.999Z</time></trkpt><trkpt lat="42.52232446224794" lon="14.153339282447597"><ele>2.0</ele><time>2026-05-01T15:21:20.999Z</time></trkpt><trkpt lat="42.52229206918656" lon="14.153247117140696"><ele>2.0</ele><time>2026-05-01T15:21:26.999Z</time></trkpt><trkpt lat="42.522317975427626" lon="14.153346161976362"><ele>2.0</ele><time>2026-05-01T15:21:27.999Z</time></trkpt><trkpt lat="42.52224504675946" lon="14.153109386524356"><ele>2.0</ele><time>2026-05-01T15:21:29.999Z</time></trkpt><trkpt lat="42.5222106275884" lon="14.15303589767941"><ele>2.0</ele><time>2026-05-01T15:21:31.999Z</time></trkpt><trkpt lat="42.522170105587506" lon="14.152948134899887"><ele>2.0</ele><time>2026-05-01T15:21:33.999Z</time></trkpt><trkpt lat="42.52212166009933" lon="14.152844157267378"><ele>2.0</ele><time>2026-05-01T15:21:36.999Z</time></trkpt><trkpt lat="42.5220795647416" lon="14.152777029420955"><ele>1.9999999999999998</ele><time>2026-05-01T15:21:38.999Z</time></trkpt><trkpt lat="42.52204011781967" lon="14.152701700038612"><ele>2.0</ele><time>2026-05-01T15:21:40.999Z</time></trkpt><trkpt lat="42.52200066277457" lon="14.152622421675591"><ele>2.0</ele><time>2026-05-01T15:21:43.999Z</time></trkpt><trkpt lat="42.52197003160519" lon="14.152533688773767"><ele>1.9999999999999998</ele><time>2026-05-01T15:21:48.999Z</time></trkpt><trkpt lat="42.521931490002714" lon="14.152433127796233"><ele>2.0</ele><time>2026-05-01T15:21:51.999Z</time></trkpt><trkpt lat="42.52189033471389" lon="14.152343016003847"><ele>2.0</ele><time>2026-05-01T15:21:53.999Z</time></trkpt><trkpt lat="42.52185489111425" lon="14.152265410264482"><ele>1.5</ele><time>2026-05-01T15:21:55.999Z</time></trkpt><trkpt lat="42.52181638952363" lon="14.152181109003694"><ele>1.0</ele><time>2026-05-01T15:21:58.999Z</time></trkpt><trkpt lat="42.52183826307124" lon="14.152045217369432"><ele>0.5</ele><time>2026-05-01T15:22:01.999Z</time></trkpt><trkpt lat="42.52187580487563" lon="14.151969234963401"><ele>0.0</ele><time>2026-05-01T15:22:08.999Z</time></trkpt><trkpt lat="42.52205390114268" lon="14.152320057001164"><ele>0.2857142857142857</ele><time>2026-05-01T15:22:24.999Z</time></trkpt><trkpt lat="42.52208944836309" lon="14.152411159925075"><ele>0.5714285714285714</ele><time>2026-05-01T15:23:21.999Z</time></trkpt><trkpt lat="42.522153711190086" lon="14.152454915623803"><ele>0.8571428571428571</ele><time>2026-05-01T15:23:28.999Z</time></trkpt><trkpt lat="42.52220942638272" lon="14.15252239773684"><ele>1.1428571428571428</ele><time>2026-05-01T15:23:34.999Z</time></trkpt><trkpt lat="42.52220766214633" lon="14.152430684668474"><ele>1.4285714285714284</ele><time>2026-05-01T15:32:29Z</time></trkpt><trkpt lat="42.52223009706375" lon="14.152334831420148"><ele>1.7142857142857142</ele><time>2026-05-01T15:32:36Z</time></trkpt><trkpt lat="42.522217568409005" lon="14.152430362139574"><ele>2.0</ele><time>2026-05-01T15:33:07Z</time></trkpt><trkpt lat="42.52215759269337" lon="14.152460584392358"><ele>2.0</ele><time>2026-05-01T15:33:14Z</time></trkpt><trkpt lat="42.522112666154726" lon="14.152397275614218"><ele>1.9999999999999998</ele><time>2026-05-01T15:33:20Z</time></trkpt><trkpt lat="42.5220836831045" lon="14.15232022083404"><ele>2.0</ele><time>2026-05-01T15:33:38.001Z</time></trkpt><trkpt lat="42.522100446982265" lon="14.152410425018163"><ele>2.0</ele><time>2026-05-01T15:34:48Z</time></trkpt><trkpt lat="42.52213314848126" lon="14.15248420142614"><ele>1.9999999999999998</ele><time>2026-05-01T15:34:52Z</time></trkpt><trkpt lat="42.522179981286385" lon="14.152564128961483"><ele>2.0</ele><time>2026-05-01T15:34:56Z</time></trkpt><trkpt lat="42.52221354321686" lon="14.152641359010252"><ele>2.0</ele><time>2026-05-01T15:34:59Z</time></trkpt><trkpt lat="42.52226237864207" lon="14.152758578267276"><ele>2.0</ele><time>2026-05-01T15:35:01Z</time></trkpt><trkpt lat="42.5223149149266" lon="14.152861559495081"><ele>2.0</ele><time>2026-05-01T15:35:03Z</time></trkpt><trkpt lat="42.52235832269231" lon="14.152945528647182"><ele>2.0</ele><time>2026-05-01T15:35:05Z</time></trkpt><trkpt lat="42.52242170512664" lon="14.153020473904661"><ele>2.0</ele><time>2026-05-01T15:35:08Z</time></trkpt><trkpt lat="42.52252103113955" lon="14.152962498346229"><ele>2.0</ele><time>2026-05-01T15:35:38Z</time></trkpt><trkpt lat="42.52262587566782" lon="14.152876988898571"><ele>2.0</ele><time>2026-05-01T15:35:40Z</time></trkpt><trkpt lat="42.52270584429487" lon="14.152900594574374"><ele>2.0</ele><time>2026-05-01T15:35:42Z</time></trkpt><trkpt lat="42.52275288885624" lon="14.15300543452105"><ele>2.0</ele><time>2026-05-01T15:35:47Z</time></trkpt><trkpt lat="42.52283990817476" lon="14.152959347757413"><ele>2.0</ele><time>2026-05-01T15:35:48Z</time></trkpt><trkpt lat="42.5229144210606" lon="14.15289773733131"><ele>2.0</ele><time>2026-05-01T15:35:49Z</time></trkpt><trkpt lat="42.52299764847112" lon="14.152812341330806"><ele>1.8</ele><time>2026-05-01T15:35:50Z</time></trkpt><trkpt lat="42.523087589780005" lon="14.152725443252846"><ele>1.6</ele><time>2026-05-01T15:35:51Z</time></trkpt><trkpt lat="42.523172930622714" lon="14.152653182608036"><ele>1.4000000000000001</ele><time>2026-05-01T15:35:52Z</time></trkpt><trkpt lat="42.523245175384844" lon="14.152591805149155"><ele>1.2000000000000002</ele><time>2026-05-01T15:35:53Z</time></trkpt><trkpt lat="42.52331090038364" lon="14.15253646588482"><ele>1.0</ele><time>2026-05-01T15:35:54Z</time></trkpt><trkpt lat="42.52340854515711" lon="14.152459831508283"><ele>0.9999999999999999</ele><time>2026-05-01T15:35:56Z</time></trkpt><trkpt lat="42.52348072116041" lon="14.152404065691858"><ele>1.0</ele><time>2026-05-01T15:35:58Z</time></trkpt><trkpt lat="42.52354413694927" lon="14.152351891761489"><ele>1.0</ele><time>2026-05-01T15:36:00Z</time></trkpt><trkpt lat="42.523580730436045" lon="14.152260738133977"><ele>1.0</ele><time>2026-05-01T15:36:02Z</time></trkpt><trkpt lat="42.52355057993615" lon="14.152095100161333"><ele>0.9999999999999999</ele><time>2026-05-01T15:36:04Z</time></trkpt><trkpt lat="42.5234990619889" lon="14.152005340917485"><ele>1.0</ele><time>2026-05-01T15:36:05Z</time></trkpt><trkpt lat="42.523455199693274" lon="14.151909486200584"><ele>1.0</ele><time>2026-05-01T15:36:06Z</time></trkpt><trkpt lat="42.52340500342516" lon="14.151807071674751"><ele>1.0</ele><time>2026-05-01T15:36:07Z</time></trkpt><trkpt lat="42.523356309814886" lon="14.151700861552431"><ele>1.0</ele><time>2026-05-01T15:36:08Z</time></trkpt><trkpt lat="42.523308702855736" lon="14.15159054116269"><ele>1.0</ele><time>2026-05-01T15:36:09Z</time></trkpt><trkpt lat="42.52325573722019" lon="14.151483892485565"><ele>1.0</ele><time>2026-05-01T15:36:10Z</time></trkpt><trkpt lat="42.523208040331106" lon="14.151377201514851"><ele>1.0</ele><time>2026-05-01T15:36:11Z</time></trkpt><trkpt lat="42.52316123737848" lon="14.151277930633693"><ele>0.9999999999999999</ele><time>2026-05-01T15:36:12Z</time></trkpt><trkpt lat="42.52311707022475" lon="14.151182929038438"><ele>1.0</ele><time>2026-05-01T15:36:13Z</time></trkpt><trkpt lat="42.523076363381435" lon="14.15109184456728"><ele>1.0</ele><time>2026-05-01T15:36:14Z</time></trkpt><trkpt lat="42.52304397885643" lon="14.151006682206777"><ele>0.9999999999999999</ele><time>2026-05-01T15:36:15Z</time></trkpt><trkpt lat="42.52301731729535" lon="14.150926052699095"><ele>1.0</ele><time>2026-05-01T15:36:16Z</time></trkpt><trkpt lat="42.52298711035131" lon="14.15084942438441"><ele>1.0</ele><time>2026-05-01T15:36:17Z</time></trkpt><trkpt lat="42.522998113249386" lon="14.150753486401982"><ele>0.9999999999999999</ele><time>2026-05-01T15:36:19Z</time></trkpt><trkpt lat="42.522992587831126" lon="14.150662491577382"><ele>1.0</ele><time>2026-05-01T15:36:20Z</time></trkpt><trkpt lat="42.52296348303011" lon="14.150572541090053"><ele>1.0</ele><time>2026-05-01T15:36:21Z</time></trkpt><trkpt lat="42.522920714760836" lon="14.15047753278309"><ele>1.0</ele><time>2026-05-01T15:36:22Z</time></trkpt><trkpt lat="42.52287226679468" lon="14.1503727472027"><ele>0.9999999999999999</ele><time>2026-05-01T15:36:23Z</time></trkpt><trkpt lat="42.52281889040089" lon="14.150257108139419"><ele>1.0</ele><time>2026-05-01T15:36:24Z</time></trkpt><trkpt lat="42.52275759995666" lon="14.150130534192177"><ele>0.75</ele><time>2026-05-01T15:36:25Z</time></trkpt><trkpt lat="42.52269110255515" lon="14.149990694955608"><ele>0.5</ele><time>2026-05-01T15:36:26Z</time></trkpt><trkpt lat="42.5226210023099" lon="14.149841335091464"><ele>0.25</ele><time>2026-05-01T15:36:27Z</time></trkpt><trkpt lat="42.52255353186496" lon="14.14969721157187"><ele>0.0</ele><time>2026-05-01T15:36:28Z</time></trkpt><trkpt lat="42.52249023710866" lon="14.149561304676688"><ele>0.0</ele><time>2026-05-01T15:36:29Z</time></trkpt><trkpt lat="42.522427814077886" lon="14.14942868070164"><ele>0.0</ele><time>2026-05-01T15:36:30Z</time></trkpt><trkpt lat="42.52236349761898" lon="14.149296764600237"><ele>0.0</ele><time>2026-05-01T15:36:31Z</time></trkpt><trkpt lat="42.52230265668966" lon="14.149165600983427"><ele>0.0</ele><time>2026-05-01T15:36:32Z</time></trkpt><trkpt lat="42.522248904204105" lon="14.14903345622102"><ele>0.0</ele><time>2026-05-01T15:36:32.999Z</time></trkpt><trkpt lat="42.52220517436799" lon="14.148899702761087"><ele>0.0</ele><time>2026-05-01T15:36:33.999Z</time></trkpt><trkpt lat="42.52217360385322" lon="14.148765567302648"><ele>0.0</ele><time>2026-05-01T15:36:34.999Z</time></trkpt><trkpt lat="42.52215160844318" lon="14.148634291948984"><ele>0.0</ele><time>2026-05-01T15:36:35.999Z</time></trkpt><trkpt lat="42.522138781023735" lon="14.148505279862858"><ele>0.0</ele><time>2026-05-01T15:36:36.999Z</time></trkpt><trkpt lat="42.522138081274804" lon="14.148369237834501"><ele>0.0</ele><time>2026-05-01T15:36:37.999Z</time></trkpt><trkpt lat="42.52214580780683" lon="14.148231503208905"><ele>0.0</ele><time>2026-05-01T15:36:38.999Z</time></trkpt><trkpt lat="42.52216000876149" lon="14.148095819546775"><ele>0.0</ele><time>2026-05-01T15:36:39.999Z</time></trkpt><trkpt lat="42.52218003825868" lon="14.147960703083587"><ele>0.0</ele><time>2026-05-01T15:36:40.999Z</time></trkpt><trkpt lat="42.522202438361695" lon="14.147823362943061"><ele>0.0</ele><time>2026-05-01T15:36:41.999Z</time></trkpt><trkpt lat="42.522223983310965" lon="14.147680627981327"><ele>0.25</ele><time>2026-05-01T15:36:42.999Z</time></trkpt><trkpt lat="42.52224583445152" lon="14.147531982152827"><ele>0.5</ele><time>2026-05-01T15:36:43.999Z</time></trkpt><trkpt lat="42.52228626559328" lon="14.147383709178998"><ele>0.75</ele><time>2026-05-01T15:36:44.999Z</time></trkpt><trkpt lat="42.5223136509466" lon="14.147223876982302"><ele>1.0</ele><time>2026-05-01T15:36:45.999Z</time></trkpt><trkpt lat="42.52234091973237" lon="14.147060089325027"><ele>1.0</ele><time>2026-05-01T15:36:46.999Z</time></trkpt><trkpt lat="42.52236845050187" lon="14.14689472781905"><ele>1.0</ele><time>2026-05-01T15:36:47.999Z</time></trkpt><trkpt lat="42.522393377648505" lon="14.146725690126193"><ele>1.0</ele><time>2026-05-01T15:36:48.999Z</time></trkpt><trkpt lat="42.52241767526567" lon="14.14656073612051"><ele>1.0</ele><time>2026-05-01T15:36:49.999Z</time></trkpt><trkpt lat="42.52244102377912" lon="14.146402225554038"><ele>1.0</ele><time>2026-05-01T15:36:50.999Z</time></trkpt><trkpt lat="42.52246572491984" lon="14.14624886338872"><ele>1.0</ele><time>2026-05-01T15:36:51.999Z</time></trkpt><trkpt lat="42.522491185714294" lon="14.146098763219324"><ele>1.0</ele><time>2026-05-01T15:36:52.999Z</time></trkpt><trkpt lat="42.52251581627238" lon="14.145953557465708"><ele>1.0</ele><time>2026-05-01T15:36:53.999Z</time></trkpt><trkpt lat="42.522539032061886" lon="14.14581989339577"><ele>1.0</ele><time>2026-05-01T15:36:54.999Z</time></trkpt><trkpt lat="42.52255335529561" lon="14.145689259981454"><ele>1.4</ele><time>2026-05-01T15:36:55.999Z</time></trkpt><trkpt lat="42.522590395482275" lon="14.145576089389671"><ele>1.8</ele><time>2026-05-01T15:36:56.999Z</time></trkpt><trkpt lat="42.52263505699839" lon="14.145466272430028"><ele>2.1999999999999997</ele><time>2026-05-01T15:36:57.999Z</time></trkpt><trkpt lat="42.522688944728145" lon="14.145361923466057"><ele>2.6</ele><time>2026-05-01T15:36:58.999Z</time></trkpt><trkpt lat="42.52275075447955" lon="14.145262541366357"><ele>3.0</ele><time>2026-05-01T15:36:59.999Z</time></trkpt><trkpt lat="42.52282258273176" lon="14.14516636885394"><ele>3.4</ele><time>2026-05-01T15:37:00.999Z</time></trkpt><trkpt lat="42.52290256774591" lon="14.145070011276406"><ele>3.8</ele><time>2026-05-01T15:37:01.999Z</time></trkpt><trkpt lat="42.522989217631824" lon="14.14497671531328"><ele>4.2</ele><time>2026-05-01T15:37:02.999Z</time></trkpt><trkpt lat="42.52307867685081" lon="14.14488808521564"><ele>4.6</ele><time>2026-05-01T15:37:03.999Z</time></trkpt><trkpt lat="42.52316562807568" lon="14.144804307152791"><ele>5.0</ele><time>2026-05-01T15:37:04.999Z</time></trkpt><trkpt lat="42.52325487616103" lon="14.144717812506881"><ele>5.0</ele><time>2026-05-01T15:37:05.999Z</time></trkpt><trkpt lat="42.523340932994806" lon="14.144629941312386"><ele>5.0</ele><time>2026-05-01T15:37:06.999Z</time></trkpt><trkpt lat="42.52342720521303" lon="14.14454094290431"><ele>5.0</ele><time>2026-05-01T15:37:07.999Z</time></trkpt><trkpt lat="42.523509513623175" lon="14.144458039418414"><ele>5.0</ele><time>2026-05-01T15:37:08.999Z</time></trkpt><trkpt lat="42.523583984081384" lon="14.144383436993401"><ele>5.0</ele><time>2026-05-01T15:37:09.999Z</time></trkpt><trkpt lat="42.523651543146656" lon="14.14431716667324"><ele>5.0</ele><time>2026-05-01T15:37:10.999Z</time></trkpt><trkpt lat="42.5237160633563" lon="14.144257745909949"><ele>5.0</ele><time>2026-05-01T15:37:11.999Z</time></trkpt><trkpt lat="42.52377362507793" lon="14.144208990663254"><ele>5.0</ele><time>2026-05-01T15:37:12.999Z</time></trkpt><trkpt lat="42.523854651458734" lon="14.144156011131669"><ele>5.0</ele><time>2026-05-01T15:37:14.999Z</time></trkpt><trkpt lat="42.52394513956622" lon="14.144160323970103"><ele>5.0</ele><time>2026-05-01T15:37:16.999Z</time></trkpt><trkpt lat="42.524067225477935" lon="14.144172812400454"><ele>5.0</ele><time>2026-05-01T15:37:19Z</time></trkpt><trkpt lat="42.52412381262234" lon="14.144128617686354"><ele>4.833333333333334</ele><time>2026-05-01T15:37:20Z</time></trkpt><trkpt lat="42.52416621897422" lon="14.144058186943505"><ele>4.666666666666667</ele><time>2026-05-01T15:37:21Z</time></trkpt><trkpt lat="42.52416555571079" lon="14.143887804022127"><ele>4.5</ele><time>2026-05-01T15:37:23Z</time></trkpt><trkpt lat="42.52412655461012" lon="14.14381477482018"><ele>4.333333333333333</ele><time>2026-05-01T15:37:24Z</time></trkpt><trkpt lat="42.524082515564885" lon="14.143748776694364"><ele>4.166666666666666</ele><time>2026-05-01T15:37:25Z</time></trkpt><trkpt lat="42.52398828523626" lon="14.143737585112792"><ele>4.0</ele><time>2026-05-01T15:37:26Z</time></trkpt><trkpt lat="42.52390883229457" lon="14.143677404264224"><ele>4.0</ele><time>2026-05-01T15:37:27Z</time></trkpt><trkpt lat="42.52384549972717" lon="14.143568144141561"><ele>4.0</ele><time>2026-05-01T15:37:28Z</time></trkpt><trkpt lat="42.52377876459541" lon="14.143438699379828"><ele>4.0</ele><time>2026-05-01T15:37:29Z</time></trkpt><trkpt lat="42.52369829876933" lon="14.143302070242605"><ele>4.0</ele><time>2026-05-01T15:37:30Z</time></trkpt><trkpt lat="42.52362449153585" lon="14.143171200831508"><ele>3.9999999999999996</ele><time>2026-05-01T15:37:31Z</time></trkpt><trkpt lat="42.523562484451176" lon="14.143057905265586"><ele>4.0</ele><time>2026-05-01T15:37:32Z</time></trkpt><trkpt lat="42.523518043815436" lon="14.142971303195123"><ele>4.0</ele><time>2026-05-01T15:37:33Z</time></trkpt><trkpt lat="42.52347654739454" lon="14.142886867274468"><ele>4.0</ele><time>2026-05-01T15:37:34Z</time></trkpt><trkpt lat="42.52344037931678" lon="14.142808956506471"><ele>3.9999999999999996</ele><time>2026-05-01T15:37:35Z</time></trkpt><trkpt lat="42.52340418546004" lon="14.142734590639764"><ele>4.0</ele><time>2026-05-01T15:37:36Z</time></trkpt><trkpt lat="42.52336908308981" lon="14.142662758978787"><ele>3.9999999999999996</ele><time>2026-05-01T15:37:37Z</time></trkpt><trkpt lat="42.52333121837508" lon="14.14259141005594"><ele>4.0</ele><time>2026-05-01T15:37:38Z</time></trkpt><trkpt lat="42.52325639013527" lon="14.14248009710423"><ele>4.0</ele><time>2026-05-01T15:37:40.001Z</time></trkpt><trkpt lat="42.52321470517327" lon="14.142402644754297"><ele>4.0</ele><time>2026-05-01T15:37:42.001Z</time></trkpt><trkpt lat="42.523168657877925" lon="14.142318116394154"><ele>3.9999999999999996</ele><time>2026-05-01T15:37:45.001Z</time></trkpt><trkpt lat="42.5231670257832" lon="14.142226889437946"><ele>4.0</ele><time>2026-05-01T15:37:48.001Z</time></trkpt><trkpt lat="42.52318150583581" lon="14.142100333692913"><ele>3.9999999999999996</ele><time>2026-05-01T15:37:50.001Z</time></trkpt><trkpt lat="42.52317223725358" lon="14.142008141569358"><ele>4.0</ele><time>2026-05-01T15:37:51.001Z</time></trkpt><trkpt lat="42.52312740282066" lon="14.141923138021651"><ele>4.0</ele><time>2026-05-01T15:37:52.001Z</time></trkpt><trkpt lat="42.523071885107164" lon="14.141870951462467"><ele>4.0</ele><time>2026-05-01T15:37:53.001Z</time></trkpt><trkpt lat="42.52302112889646" lon="14.141807223857432"><ele>3.9999999999999996</ele><time>2026-05-01T15:37:58.001Z</time></trkpt><trkpt lat="42.522912926188184" lon="14.14177764236271"><ele>4.0</ele><time>2026-05-01T15:38:01.001Z</time></trkpt><trkpt lat="42.52285544499133" lon="14.141720197628947"><ele>4.0</ele><time>2026-05-01T15:38:02.001Z</time></trkpt><trkpt lat="42.52280596892277" lon="14.141631060055374"><ele>4.0</ele><time>2026-05-01T15:38:03.001Z</time></trkpt><trkpt lat="42.52275725599562" lon="14.141524670930526"><ele>4.0</ele><time>2026-05-01T15:38:04.001Z</time></trkpt><trkpt lat="42.522702020395" lon="14.141416715818625"><ele>4.0</ele><time>2026-05-01T15:38:05.001Z</time></trkpt><trkpt lat="42.52263921634512" lon="14.141293603242069"><ele>4.0</ele><time>2026-05-01T15:38:06.001Z</time></trkpt><trkpt lat="42.52257954834986" lon="14.141177698335637"><ele>4.0</ele><time>2026-05-01T15:38:07.001Z</time></trkpt><trkpt lat="42.52252617081448" lon="14.141069442924408"><ele>4.0</ele><time>2026-05-01T15:38:08.001Z</time></trkpt><trkpt lat="42.522474761684535" lon="14.140963024560001"><ele>4.0</ele><time>2026-05-01T15:38:09.001Z</time></trkpt><trkpt lat="42.522422640102405" lon="14.140854260714253"><ele>4.0</ele><time>2026-05-01T15:38:10.001Z</time></trkpt><trkpt lat="42.522369976297085" lon="14.14074587595516"><ele>4.0</ele><time>2026-05-01T15:38:11.001Z</time></trkpt><trkpt lat="42.522320857415195" lon="14.140642136030033"><ele>3.9999999999999996</ele><time>2026-05-01T15:38:12.001Z</time></trkpt><trkpt lat="42.52227738923991" lon="14.140546659622384"><ele>4.0</ele><time>2026-05-01T15:38:13.001Z</time></trkpt><trkpt lat="42.522237714007986" lon="14.140468146172505"><ele>4.0</ele><time>2026-05-01T15:38:14.001Z</time></trkpt><trkpt lat="42.52217147592973" lon="14.140372566009283"><ele>4.0</ele><time>2026-05-01T15:38:16.001Z</time></trkpt><trkpt lat="42.52208434242079" lon="14.14027941707419"><ele>3.9999999999999996</ele><time>2026-05-01T15:38:18.001Z</time></trkpt><trkpt lat="42.52203925592819" lon="14.140181533445329"><ele>4.0</ele><time>2026-05-01T15:38:19.001Z</time></trkpt><trkpt lat="42.521993026317126" lon="14.140058081173235"><ele>3.9999999999999996</ele><time>2026-05-01T15:38:20.001Z</time></trkpt><trkpt lat="42.521938309308354" lon="14.139927814892634"><ele>4.0</ele><time>2026-05-01T15:38:21.001Z</time></trkpt><trkpt lat="42.5218969776508" lon="14.139801665266672"><ele>4.0</ele><time>2026-05-01T15:38:22.001Z</time></trkpt><trkpt lat="42.52187226670465" lon="14.139691412115612"><ele>4.0</ele><time>2026-05-01T15:38:23Z</time></trkpt><trkpt lat="42.52184851874905" lon="14.139594074288096"><ele>3.9999999999999996</ele><time>2026-05-01T15:38:24Z</time></trkpt><trkpt lat="42.521822552837776" lon="14.13950931515671"><ele>4.0</ele><time>2026-05-01T15:38:25Z</time></trkpt><trkpt lat="42.52177320069529" lon="14.139380520918976"><ele>4.0</ele><time>2026-05-01T15:38:27Z</time></trkpt><trkpt lat="42.52172500705349" lon="14.139260273668812"><ele>4.0</ele><time>2026-05-01T15:38:29Z</time></trkpt><trkpt lat="42.521672721227134" lon="14.139115122323412"><ele>4.0</ele><time>2026-05-01T15:38:31Z</time></trkpt><trkpt lat="42.521645713472566" lon="14.139001505924659"><ele>4.0</ele><time>2026-05-01T15:38:33Z</time></trkpt><trkpt lat="42.52162156355451" lon="14.138919294549238"><ele>4.0</ele><time>2026-05-01T15:38:36Z</time></trkpt><trkpt lat="42.521555561244554" lon="14.138789590702471"><ele>4.166666666666666</ele><time>2026-05-01T15:38:41Z</time></trkpt><trkpt lat="42.52151580599262" lon="14.138693736891694"><ele>4.333333333333333</ele><time>2026-05-01T15:38:42Z</time></trkpt><trkpt lat="42.52147494320925" lon="14.13858297520986"><ele>4.5</ele><time>2026-05-01T15:38:43Z</time></trkpt><trkpt lat="42.521437336870974" lon="14.138472481287264"><ele>4.666666666666667</ele><time>2026-05-01T15:38:44Z</time></trkpt><trkpt lat="42.521402900165825" lon="14.1383677989374"><ele>4.833333333333334</ele><time>2026-05-01T15:38:45Z</time></trkpt><trkpt lat="42.52136674619411" lon="14.138269572497325"><ele>5.0</ele><time>2026-05-01T15:38:46Z</time></trkpt><trkpt lat="42.52132706472508" lon="14.13817768996331"><ele>5.166666666666667</ele><time>2026-05-01T15:38:47Z</time></trkpt><trkpt lat="42.52128951878635" lon="14.138098455423313"><ele>5.333333333333334</ele><time>2026-05-01T15:38:48Z</time></trkpt><trkpt lat="42.521240670498806" lon="14.137997307390586"><ele>5.5</ele><time>2026-05-01T15:38:50Z</time></trkpt><trkpt lat="42.52118739316501" lon="14.137886663493871"><ele>5.666666666666667</ele><time>2026-05-01T15:38:52Z</time></trkpt><trkpt lat="42.52111137143173" lon="14.137773643869211"><ele>5.833333333333333</ele><time>2026-05-01T15:38:54Z</time></trkpt><trkpt lat="42.5210487307675" lon="14.137710957469642"><ele>6.0</ele><time>2026-05-01T15:38:55Z</time></trkpt><trkpt lat="42.52097483212861" lon="14.137651048238391"><ele>5.8</ele><time>2026-05-01T15:38:56Z</time></trkpt><trkpt lat="42.52088769043594" lon="14.137576041728906"><ele>5.6</ele><time>2026-05-01T15:38:57Z</time></trkpt><trkpt lat="42.52079725899919" lon="14.137493158674902"><ele>5.4</ele><time>2026-05-01T15:38:58Z</time></trkpt><trkpt lat="42.52071133630292" lon="14.137407786958699"><ele>5.2</ele><time>2026-05-01T15:38:59Z</time></trkpt><trkpt lat="42.520628355853155" lon="14.137317631452767"><ele>5.0</ele><time>2026-05-01T15:39:00Z</time></trkpt><trkpt lat="42.520547694994725" lon="14.137223728399922"><ele>5.0</ele><time>2026-05-01T15:39:01Z</time></trkpt><trkpt lat="42.520463719093705" lon="14.137129931749213"><ele>5.0</ele><time>2026-05-01T15:39:02Z</time></trkpt><trkpt lat="42.52038147789424" lon="14.137034071434941"><ele>5.0</ele><time>2026-05-01T15:39:03Z</time></trkpt><trkpt lat="42.52029420450597" lon="14.136940485968537"><ele>5.0</ele><time>2026-05-01T15:39:04Z</time></trkpt><trkpt lat="42.520214495719145" lon="14.136848052118319"><ele>5.0</ele><time>2026-05-01T15:39:05Z</time></trkpt><trkpt lat="42.520144944728514" lon="14.136765445329493"><ele>5.4</ele><time>2026-05-01T15:39:06Z</time></trkpt><trkpt lat="42.52008113913066" lon="14.136692568978951"><ele>5.8</ele><time>2026-05-01T15:39:07Z</time></trkpt><trkpt lat="42.520029990362" lon="14.136629877978793"><ele>6.199999999999999</ele><time>2026-05-01T15:39:09Z</time></trkpt><trkpt lat="42.520011500145316" lon="14.136517975132065"><ele>6.6</ele><time>2026-05-01T15:39:12Z</time></trkpt><trkpt lat="42.519980706047626" lon="14.136377761024697"><ele>7.0</ele><time>2026-05-01T15:39:14Z</time></trkpt><trkpt lat="42.519915155820485" lon="14.136266223941215"><ele>7.000000000000001</ele><time>2026-05-01T15:39:16Z</time></trkpt><trkpt lat="42.51985465434156" lon="14.13622151712665"><ele>7.0</ele><time>2026-05-01T15:39:17Z</time></trkpt><trkpt lat="42.51977941739273" lon="14.136204588214854"><ele>7.0</ele><time>2026-05-01T15:39:18Z</time></trkpt><trkpt lat="42.519693021118805" lon="14.136194893206286"><ele>7.0</ele><time>2026-05-01T15:39:19Z</time></trkpt><trkpt lat="42.519611781180465" lon="14.136172713408632"><ele>7.000000000000001</ele><time>2026-05-01T15:39:20Z</time></trkpt><trkpt lat="42.5195360140553" lon="14.136113456091772"><ele>7.0</ele><time>2026-05-01T15:39:21Z</time></trkpt><trkpt lat="42.51945807305549" lon="14.136017666316537"><ele>7.0</ele><time>2026-05-01T15:39:22Z</time></trkpt><trkpt lat="42.51937326028674" lon="14.135902313370467"><ele>7.0</ele><time>2026-05-01T15:39:23Z</time></trkpt><trkpt lat="42.51929343611031" lon="14.135790553388052"><ele>7.0</ele><time>2026-05-01T15:39:24Z</time></trkpt><trkpt lat="42.519221128551884" lon="14.135680875511978"><ele>7.0</ele><time>2026-05-01T15:39:25Z</time></trkpt><trkpt lat="42.519149187083094" lon="14.135567291405494"><ele>6.6</ele><time>2026-05-01T15:39:26Z</time></trkpt><trkpt lat="42.51908962757789" lon="14.135452938076169"><ele>6.199999999999999</ele><time>2026-05-01T15:39:27Z</time></trkpt><trkpt lat="42.51902323076648" lon="14.135327396075741"><ele>5.8</ele><time>2026-05-01T15:39:28Z</time></trkpt><trkpt lat="42.5189494021083" lon="14.135207767068705"><ele>5.4</ele><time>2026-05-01T15:39:29Z</time></trkpt><trkpt lat="42.51888074025182" lon="14.13509535103374"><ele>5.0</ele><time>2026-05-01T15:39:30Z</time></trkpt><trkpt lat="42.51882649257102" lon="14.134997766405878"><ele>5.0</ele><time>2026-05-01T15:39:31Z</time></trkpt><trkpt lat="42.51878351780447" lon="14.134896854899699"><ele>5.0</ele><time>2026-05-01T15:39:33Z</time></trkpt><trkpt lat="42.51892833498681" lon="14.134793082834848"><ele>5.0</ele><time>2026-05-01T15:39:37Z</time></trkpt><trkpt lat="42.5189902728713" lon="14.134764330597989"><ele>5.0</ele><time>2026-05-01T15:39:38Z</time></trkpt><trkpt lat="42.519015764118514" lon="14.134626744567381"><ele>5.0</ele><time>2026-05-01T15:39:39Z</time></trkpt><trkpt lat="42.519086189289794" lon="14.134594210207421"><ele>6.0</ele><time>2026-05-01T15:39:41Z</time></trkpt><trkpt lat="42.51915351040615" lon="14.134597554544525"><ele>6.0</ele><time>2026-05-01T15:39:56.001Z</time></trkpt><trkpt lat="42.51909373525601" lon="14.134550923820907"><ele>6.0</ele><time>2026-05-01T15:40:31Z</time></trkpt></trkseg></trk></gpx>